
Distance (Route):
Temperature : 17.4°C
Humidity : 71.9%
Pressure : 1006.6hPa| Receiver | Frames | First received | Last received |
|---|---|---|---|
| BIOWL1-15 | 842 | 2026-09-02 06:47:53 | 2026-09-02 09:07:06 |
| DL1XH-west | 749 | 2026-09-02 06:51:36 | 2026-09-02 09:02:47 |
| DM0DOS-11 | 606 | 2026-09-02 06:46:21 | 2026-09-02 09:07:06 |
| DO2JMG | 603 | 2026-09-02 07:03:20 | 2026-09-02 09:02:54 |
| DL1XH1-15 | 560 | 2026-09-02 06:52:10 | 2026-09-02 09:02:47 |
| DL1XH-15 | 436 | 2026-09-02 06:57:51 | 2026-09-02 08:59:27 |
| AA1-15 | 400 | 2026-09-02 07:11:31 | 2026-09-02 08:52:37 |
| HSKMA3-T | 388 | 2026-09-02 07:27:55 | 2026-09-02 08:51:40 |
| DN9WHV | 370 | 2026-09-02 06:51:45 | 2026-09-02 08:54:02 |
| GOEST3-10 | 326 | 2026-09-02 06:52:40 | 2026-09-02 09:00:02 |
| DB0DAN | 309 | 2026-09-02 07:08:55 | 2026-09-02 09:05:40 |
| DD8BA-10 | 277 | 2026-09-02 06:48:37 | 2026-09-02 09:05:27 |
| DF8AY | 192 | 2026-09-02 07:33:06 | 2026-09-02 08:47:27 |
| DL1NUX | 166 | 2026-09-02 07:29:22 | 2026-09-02 08:42:12 |
| DJ2DS-15 | 114 | 2026-09-02 06:47:53 | 2026-09-02 09:03:50 |
| DL3AQ-11 | 110 | 2026-09-02 06:56:57 | 2026-09-02 09:01:13 |
| DF5WG-10 | 92 | 2026-09-02 07:00:17 | 2026-09-02 08:53:07 |
| DL4XJ-10 | 81 | 2026-09-02 07:10:27 | 2026-09-02 09:03:50 |
| DL4BBY-15 | 76 | 2026-09-02 06:51:55 | 2026-09-02 09:01:06 |
| DO9LL-15 | 61 | 2026-09-02 06:49:34 | 2026-09-02 09:01:40 |
| DB0UT-7 | 51 | 2026-09-02 07:02:23 | 2026-09-02 08:57:19 |
| BIOWL9-15 | 43 | 2026-09-02 06:52:11 | 2026-09-02 09:06:42 |
| DB0NH | 41 | 2026-09-02 07:14:38 | 2026-09-02 08:52:35 |
| SO1NDE-10 | 40 | 2026-09-02 07:30:50 | 2026-09-02 08:41:01 |
| SONCRA | 39 | 2026-09-02 07:04:39 | 2026-09-02 08:53:53 |
| DD1CC3-15 | 38 | 2026-09-02 06:58:48 | 2026-09-02 08:56:30 |
| DD1CC8 | 36 | 2026-09-02 07:09:46 | 2026-09-02 08:56:23 |
| HTAHTA | 35 | 2026-09-02 06:53:42 | 2026-09-02 08:55:18 |
| DL1LOL-11 | 34 | 2026-09-02 06:47:07 | 2026-09-02 09:04:50 |
| DJ2KF-10 | 34 | 2026-09-02 07:12:24 | 2026-09-02 08:34:23 |
| BIOWL7-15 | 31 | 2026-09-02 06:48:29 | 2026-09-02 09:06:27 |
| BUE01 | 28 | 2026-09-02 07:19:01 | 2026-09-02 09:00:59 |
| DC6BW-12 | 26 | 2026-09-02 06:48:37 | 2026-09-02 08:13:50 |
| DO3DL | 26 | 2026-09-02 07:20:13 | 2026-09-02 08:52:03 |
| SMARD9-15 | 25 | 2026-09-02 07:19:30 | 2026-09-02 08:30:24 |
| D01LWL | 24 | 2026-09-02 07:31:09 | 2026-09-02 08:52:56 |
| DL1CLM-18 | 23 | 2026-09-02 06:48:32 | 2026-09-02 09:03:44 |
| DK9SH | 20 | 2026-09-02 06:55:36 | 2026-09-02 09:04:32 |
| DD1CC2-15 | 20 | 2026-09-02 06:58:09 | 2026-09-02 08:52:26 |
| DB0ND-19 | 16 | 2026-09-02 07:37:45 | 2026-09-02 08:50:10 |
| SONDE2-11 | 15 | 2026-09-02 07:55:16 | 2026-09-02 08:35:06 |
| DL3OBA | 14 | 2026-09-02 07:29:12 | 2026-09-02 08:51:53 |
| EDDB2-11 | 12 | 2026-09-02 07:58:55 | 2026-09-02 08:37:43 |
| AU51GT2 | 11 | 2026-09-02 07:20:59 | 2026-09-02 08:28:44 |
| DK5PH-5 | 11 | 2026-09-02 07:42:12 | 2026-09-02 08:24:55 |
| DL8OAI-8 | 11 | 2026-09-02 07:54:08 | 2026-09-02 08:56:41 |
| EDDB2-12 | 11 | 2026-09-02 07:59:10 | 2026-09-02 08:32:47 |
| DF4FW | 10 | 2026-09-02 06:55:16 | 2026-09-02 07:41:26 |
| DO2KSM | 5 | 2026-09-02 07:11:18 | 2026-09-02 08:37:28 |
| SMARD9-10 | 5 | 2026-09-02 07:14:00 | 2026-09-02 08:55:13 |
| DD1CC1-15 | 5 | 2026-09-02 07:14:24 | 2026-09-02 08:14:51 |
| WEDDY | 5 | 2026-09-02 07:21:33 | 2026-09-02 08:21:19 |
| DO2LYB-13 | 5 | 2026-09-02 07:45:07 | 2026-09-02 08:47:57 |
| DL1ZP-14 | 5 | 2026-09-02 07:46:21 | 2026-09-02 08:30:51 |
| DJ8HS-15 | 5 | 2026-09-02 07:59:06 | 2026-09-02 08:02:31 |
| DF8AY-15 | 5 | 2026-09-02 07:59:36 | 2026-09-02 08:11:33 |
| MET0W-2 | 4 | 2026-09-02 07:02:43 | 2026-09-02 07:09:56 |
| DL8DAS-14 | 4 | 2026-09-02 07:42:33 | 2026-09-02 08:21:50 |
| DD1CC9-15 | 3 | 2026-09-02 07:17:39 | 2026-09-02 08:25:08 |
| DJ3KS | 2 | 2026-09-02 07:53:05 | 2026-09-02 07:53:27 |
| DO1YAY-16 | 2 | 2026-09-02 07:55:32 | 2026-09-02 08:05:53 |
| NBG1-10 | 2 | 2026-09-02 08:18:57 | 2026-09-02 08:21:52 |
| DL8DAS-15 | 1 | 2026-09-02 07:37:07 | 2026-09-02 07:37:07 |
| DF7PN | 1 | 2026-09-02 08:27:16 | 2026-09-02 08:27:16 |
| S3001 | 1 | 2026-09-02 08:38:47 | 2026-09-02 08:38:47 |
| Receiver | Date | Latitude | Longitude | Direction | Speed | Altitude | Climb | Temperature | Humidity | Pressure | Voltage | Killtimer | Uptime | BKT | XDATA |
|---|---|---|---|---|---|---|---|---|---|---|---|---|---|---|---|
| BIOWL1-15 | 2026-09-02 09:07:06 | 52.51731 | 8.87448 | 91° | 11km/h | 149m | -10.6m/s | 17.4°C | 71.9% | 1006.6hPa | 2.7V | 07:29:52 | 02:32:12 | 00:00:00 | |
| DM0DOS-11 | 2026-09-02 09:07:06 | 52.51731 | 8.87448 | 90° | 11km/h | 149m | -10.6m/s | 17.4°C | 64.7% | 1006.6hPa | 2.7V | 07:29:49 | 02:32:12 | 00:00:00 | |
| DM0DOS-11 | 2026-09-02 09:07:06 | 52.51730 | 8.87438 | 71° | 11km/h | 170m | -10.8m/s | 17.2°C | 65.3% | 1004.1hPa | 2.8V | 07:29:51 | 02:32:10 | 00:00:00 | |
| BIOWL1-15 | 2026-09-02 09:07:06 | 52.51731 | 8.87443 | 79° | 13km/h | 160m | -10m/s | 17.3°C | 72.1% | 1005.3hPa | 2.7V | 07:29:52 | 02:32:11 | 00:00:00 | |
| BIOWL1-15 | 2026-09-02 09:07:03 | 52.51730 | 8.87433 | 75° | 13km/h | 181m | -10.9m/s | 17.1°C | 72.3% | 1003hPa | 2.7V | 07:29:52 | 02:32:09 | 00:00:00 | |
| DM0DOS-11 | 2026-09-02 09:07:00 | 52.51728 | 8.87418 | 95° | 13km/h | 209m | -9.2m/s | 16.9°C | 66.9% | 999.3hPa | 2.7V | 07:29:55 | 02:32:06 | 00:00:00 | |
| DM0DOS-11 | 2026-09-02 09:07:00 | 52.51727 | 8.87409 | 65° | 13km/h | 228m | -8.7m/s | 16.6°C | 67.4% | 997.1hPa | 2.7V | 07:29:57 | 02:32:04 | 00:00:00 | |
| DM0DOS-11 | 2026-09-02 09:07:00 | 52.51725 | 8.87398 | 90° | 13km/h | 244m | -9.3m/s | 16.5°C | 68.2% | 995.4hPa | 2.7V | 07:29:59 | 02:32:02 | 00:00:00 | |
| BIOWL1-15 | 2026-09-02 09:07:00 | 52.51728 | 8.87423 | 85° | 13km/h | 200m | -9.5m/s | 17°C | 72.7% | 1000.6hPa | 2.7V | 07:30:43 | 02:32:07 | 00:00:00 | |
| BIOWL1-15 | 2026-09-02 09:06:58 | 52.51727 | 8.87413 | 83° | 11km/h | 219m | -9.4m/s | 16.8°C | 73.6% | 998.3hPa | 2.7V | 07:30:43 | 02:32:05 | 00:00:00 | |
| BIOWL1-15 | 2026-09-02 09:06:56 | 52.51726 | 8.87403 | 85° | 13km/h | 236m | -8.2m/s | 16.6°C | 74.7% | 996hPa | 2.7V | 07:30:43 | 02:32:03 | 00:00:00 | |
| BIOWL1-15 | 2026-09-02 09:06:55 | 52.51725 | 8.87398 | 90° | 13km/h | 245m | -9.3m/s | 16.5°C | 75.4% | 995.4hPa | 2.7V | 07:30:43 | 02:32:02 | 00:00:00 | |
| DM0DOS-11 | 2026-09-02 09:06:54 | 52.51725 | 8.87390 | 84° | 9km/h | 263m | -9.8m/s | 16.3°C | 68.9% | 993.1hPa | 2.7V | 07:30:01 | 02:32:00 | 00:00:00 | |
| BIOWL1-15 | 2026-09-02 09:06:53 | 52.51722 | 8.87381 | 61° | 13km/h | 282m | -9.3m/s | 16.2°C | 76.8% | 991hPa | 2.7V | 07:30:43 | 02:31:58 | 00:00:00 | |
| BIOWL1-15 | 2026-09-02 09:06:52 | 52.51721 | 8.87376 | 76° | 15km/h | 290m | -8.2m/s | 16.1°C | 77% | 990hPa | 2.8V | 07:30:43 | 02:31:57 | 00:00:00 | |
| DM0DOS-11 | 2026-09-02 09:06:48 | 52.51712 | 8.87354 | 57° | 13km/h | 327m | -6.7m/s | 15.8°C | 70% | 985.6hPa | 2.8V | 07:30:09 | 02:31:52 | 00:00:00 | |
| DM0DOS-11 | 2026-09-02 09:06:48 | 52.51709 | 8.87345 | 71° | 11km/h | 339m | -5.8m/s | 15.7°C | 71.6% | 984.1hPa | 2.7V | 07:30:11 | 02:31:50 | 00:00:00 | |
| BIOWL1-15 | 2026-09-02 09:06:48 | 52.51717 | 8.87367 | 51° | 11km/h | 306m | -7.4m/s | 16°C | 77.5% | 988.1hPa | 2.7V | 07:30:43 | 02:31:55 | 00:00:00 | |
| BIOWL1-15 | 2026-09-02 09:06:46 | 52.51712 | 8.87354 | 57° | 13km/h | 328m | -6.7m/s | 15.8°C | 75.6% | 985.6hPa | 2.8V | 07:30:43 | 02:31:52 | 00:00:00 | |
| BIOWL1-15 | 2026-09-02 09:06:46 | 52.51710 | 8.87350 | 60° | 13km/h | 333m | -5.3m/s | 15.7°C | 76.5% | 984.7hPa | 2.7V | 07:30:43 | 02:31:51 | 00:00:00 | |
| BIOWL9-15 | 2026-09-02 09:06:42 | 52.51708 | 8.87340 | 67° | 13km/h | 345m | -5.9m/s | 15.6°C | 71.8% | 983.5hPa | 2.7V | 00:00:00 | 00:00:00 | 00:00:00 | |
| BIOWL1-15 | 2026-09-02 09:06:42 | 52.51698 | 8.87300 | 72° | 16km/h | 383m | -5.2m/s | 15.3°C | 79% | 979hPa | 2.7V | 07:30:43 | 02:31:42 | 00:00:00 | |
| DM0DOS-11 | 2026-09-02 09:06:42 | 52.51704 | 8.87325 | 70° | 13km/h | 362m | -5.7m/s | 15.5°C | 72.6% | 981.6hPa | 2.7V | 07:30:15 | 02:31:46 | 00:00:00 | |
| BIOWL1-15 | 2026-09-02 09:06:42 | 52.51697 | 8.87294 | 63° | 16km/h | 389m | -5.4m/s | 15.3°C | 78.8% | 978.4hPa | 2.7V | 07:30:43 | 02:31:41 | 00:00:00 | |
| BIOWL1-15 | 2026-09-02 09:06:39 | 52.51695 | 8.87287 | 71° | 18km/h | 394m | -5.1m/s | 15.2°C | 79.1% | 977.8hPa | 2.7V | 07:30:43 | 02:31:40 | 00:00:00 | |
| BIOWL1-15 | 2026-09-02 09:06:37 | 52.51693 | 8.87281 | 66° | 16km/h | 399m | -4.5m/s | 15.2°C | 79.7% | 977.2hPa | 2.7V | 07:30:43 | 02:31:39 | 00:00:00 | |
| DM0DOS-11 | 2026-09-02 09:06:36 | 52.51690 | 8.87268 | 70° | 15km/h | 409m | -5.6m/s | 15°C | 74.3% | 976.1hPa | 2.7V | 07:30:24 | 02:31:37 | 00:00:00 | |
| BIOWL1-15 | 2026-09-02 09:06:33 | 52.51692 | 8.87274 | 66° | 16km/h | 404m | -5m/s | 15.1°C | 80.6% | 976.7hPa | 2.7V | 07:30:43 | 02:31:38 | 00:00:00 | |
| DM0DOS-11 | 2026-09-02 09:06:31 | 52.51686 | 8.87249 | 78° | 16km/h | 427m | -6m/s | 14.7°C | 71.7% | 974hPa | 2.7V | 07:30:27 | 02:31:34 | 00:00:00 | |
| DM0DOS-11 | 2026-09-02 09:06:31 | 52.51685 | 8.87235 | 80° | 18km/h | 438m | -5.7m/s | 14.6°C | 73.3% | 972.5hPa | 2.7V | 07:30:29 | 02:31:32 | 00:00:00 | |
| BIOWL1-15 | 2026-09-02 09:06:29 | 52.51686 | 8.87242 | 73° | 18km/h | 433m | -6.1m/s | 14.7°C | 77.5% | 973.2hPa | 2.7V | 07:30:43 | 02:31:33 | 00:00:00 | |
| BIOWL1-15 | 2026-09-02 09:06:29 | 52.51684 | 8.87235 | 81° | 18km/h | 438m | -5.7m/s | 14.6°C | 79.7% | 972.5hPa | 2.7V | 07:30:43 | 02:31:32 | 00:00:00 | |
| BIOWL7-15 | 2026-09-02 09:06:27 | 52.51688 | 8.87256 | 78° | 16km/h | 421m | -5.8m/s | 14.8°C | 67.5% | 974.6hPa | 2.8V | 07:30:00 | 00:00:00 | 00:00:00 | |
| DM0DOS-11 | 2026-09-02 09:06:24 | 52.51678 | 8.87191 | 72° | 18km/h | 472m | -5.5m/s | 14.7°C | 57.4% | 968.6hPa | 2.8V | 07:30:35 | 02:31:26 | 00:00:00 | |
| BIOWL1-15 | 2026-09-02 09:06:23 | 52.51681 | 8.87212 | 74° | 18km/h | 455m | -5.6m/s | 14.5°C | 78.6% | 970.5hPa | 2.7V | 07:30:43 | 02:31:29 | 00:00:00 | |
| BIOWL1-15 | 2026-09-02 09:06:23 | 52.51680 | 8.87205 | 76° | 18km/h | 461m | -5.6m/s | 14.5°C | 78.1% | 969.9hPa | 2.7V | 07:30:43 | 02:31:28 | 00:00:00 | |
| BIOWL1-15 | 2026-09-02 09:06:19 | 52.51678 | 8.87190 | 73° | 18km/h | 472m | -5.5m/s | 14.7°C | 62.6% | 968.6hPa | 2.8V | 07:30:43 | 02:31:26 | 00:00:00 | |
| DM0DOS-11 | 2026-09-02 09:06:18 | 52.51673 | 8.87161 | 72° | 18km/h | 493m | -5.1m/s | 14.5°C | 58.2% | 966.2hPa | 2.7V | 07:30:39 | 02:31:22 | 00:00:00 | |
| DM0DOS-11 | 2026-09-02 09:06:18 | 52.51671 | 8.87147 | 77° | 18km/h | 504m | -5.4m/s | 14.4°C | 58.8% | 965.2hPa | 2.7V | 07:30:41 | 02:31:20 | 00:00:00 | |
| BIOWL1-15 | 2026-09-02 09:06:17 | 52.51675 | 8.87176 | 77° | 18km/h | 482m | -5.3m/s | 14.6°C | 63% | 967.6hPa | 2.7V | 07:30:43 | 02:31:24 | 00:00:00 | |
| BIOWL1-15 | 2026-09-02 09:06:16 | 52.51674 | 8.87168 | 77° | 18km/h | 488m | -5.2m/s | 14.6°C | 63% | 966.9hPa | 2.7V | 07:30:43 | 02:31:23 | 00:00:00 | |
| BIOWL1-15 | 2026-09-02 09:06:14 | 52.51672 | 8.87154 | 76° | 18km/h | 498m | -5.4m/s | 14.5°C | 63.5% | 965.8hPa | 2.7V | 07:30:43 | 02:31:21 | 00:00:00 | |
| BIOWL1-15 | 2026-09-02 09:06:13 | 52.51671 | 8.87147 | 78° | 18km/h | 504m | -5.4m/s | 14.4°C | 63.9% | 965.2hPa | 2.7V | 07:30:43 | 02:31:20 | 00:00:00 | |
| DM0DOS-11 | 2026-09-02 09:06:12 | 52.51669 | 8.87132 | 78° | 18km/h | 514m | -5.1m/s | 14.3°C | 59.3% | 964hPa | 2.7V | 07:30:43 | 02:31:18 | 00:00:00 | |
| BIOWL1-15 | 2026-09-02 09:06:11 | 52.51666 | 8.87109 | 82° | 20km/h | 529m | -4.8m/s | 14.2°C | 65.8% | 962.3hPa | 2.7V | 07:31:34 | 02:31:15 | 00:00:00 | |
| BIOWL1-15 | 2026-09-02 09:06:11 | 52.51665 | 8.87101 | 83° | 20km/h | 534m | -5.2m/s | 14.1°C | 66.8% | 961.6hPa | 2.7V | 07:31:34 | 02:31:14 | 00:00:00 | |
| BIOWL7-15 | 2026-09-02 09:06:07 | 52.51665 | 8.87108 | 83° | 20km/h | 529m | -4.8m/s | 14.2°C | 60.3% | 962.3hPa | 2.7V | 00:00:00 | 00:00:00 | 00:00:00 | |
| DM0DOS-11 | 2026-09-02 09:06:06 | 52.51664 | 8.87084 | 87° | 20km/h | 544m | -4.8m/s | 14°C | 62.8% | 960.4hPa | 2.7V | 07:30:49 | 02:31:12 | 00:00:00 | |
| DM0DOS-11 | 2026-09-02 09:06:06 | 52.51664 | 8.87068 | 83° | 20km/h | 554m | -5.1m/s | 13.9°C | 65.4% | 959.4hPa | 2.7V | 07:30:51 | 02:31:10 | 00:00:00 | |
| DM0DOS-11 | 2026-09-02 09:06:06 | 52.51662 | 8.87052 | 86° | 20km/h | 564m | -5.2m/s | 13.8°C | 67.7% | 958.2hPa | 2.7V | 07:30:53 | 02:31:08 | 00:00:00 | |
| BIOWL1-15 | 2026-09-02 09:06:05 | 52.51664 | 8.87085 | 87° | 20km/h | 544m | -4.8m/s | 14°C | 68.1% | 960.5hPa | 2.7V | 07:31:34 | 02:31:12 | 00:00:00 | |
| BIOWL1-15 | 2026-09-02 09:06:03 | 52.51663 | 8.87060 | 84° | 20km/h | 560m | -5m/s | 13.9°C | 71.5% | 958.7hPa | 2.7V | 07:31:34 | 02:31:09 | 00:00:00 | |
| BIOWL1-15 | 2026-09-02 09:06:03 | 52.51663 | 8.87052 | 87° | 20km/h | 564m | -5.2m/s | 13.8°C | 73% | 958.2hPa | 2.7V | 07:31:34 | 02:31:08 | 00:00:00 | |
| DM0DOS-11 | 2026-09-02 09:06:00 | 52.51661 | 8.87018 | 82° | 22km/h | 584m | -5m/s | 13.7°C | 64.8% | 955.8hPa | 2.7V | 07:30:57 | 02:31:04 | 00:00:00 | |
| DM0DOS-11 | 2026-09-02 09:06:00 | 52.51659 | 8.87000 | 82° | 20km/h | 595m | -5.2m/s | 13.7°C | 59.2% | 954.6hPa | 2.7V | 07:30:59 | 02:31:02 | 00:00:00 | |
| BIOWL1-15 | 2026-09-02 09:05:59 | 52.51658 | 8.86982 | 84° | 22km/h | 605m | -5.4m/s | 13.7°C | 60.4% | 953.5hPa | 2.7V | 07:31:34 | 02:31:00 | 00:00:00 | |
| BIOWL1-15 | 2026-09-02 09:05:59 | 52.51658 | 8.86973 | 84° | 22km/h | 611m | -5.2m/s | 13.7°C | 59.8% | 952.9hPa | 2.7V | 07:31:34 | 02:30:59 | 00:00:00 | |
| BIOWL1-15 | 2026-09-02 09:05:54 | 52.51657 | 8.86964 | 83° | 22km/h | 615m | -4.9m/s | 13.6°C | 59.8% | 952.4hPa | 2.7V | 07:31:34 | 02:30:58 | 00:00:00 | |
| DM0DOS-11 | 2026-09-02 09:05:54 | 52.51658 | 8.86982 | 83° | 22km/h | 605m | -5.3m/s | 13.7°C | 55% | 953.5hPa | 2.7V | 07:31:01 | 02:31:00 | 00:00:00 | |
| DM0DOS-11 | 2026-09-02 09:05:54 | 52.51657 | 8.86964 | 83° | 22km/h | 615m | -4.9m/s | 13.6°C | 54.4% | 952.4hPa | 2.7V | 07:31:03 | 02:30:58 | 00:00:00 | |
| BIOWL1-15 | 2026-09-02 09:05:52 | 52.51656 | 8.86955 | 84° | 22km/h | 620m | -4.9m/s | 13.6°C | 59.8% | 951.8hPa | 2.7V | 07:31:34 | 02:30:57 | 00:00:00 | |
| DM0DOS-11 | 2026-09-02 09:05:48 | 52.51656 | 8.86909 | 87° | 22km/h | 647m | -5.1m/s | 13.4°C | 58.8% | 948.8hPa | 2.7V | 07:31:09 | 02:30:52 | 00:00:00 | |
| BIOWL1-15 | 2026-09-02 09:05:48 | 52.51656 | 8.86937 | 89° | 24km/h | 631m | -5.2m/s | 13.5°C | 66.1% | 950.5hPa | 2.7V | 07:31:34 | 02:30:55 | 00:00:00 | |
| BIOWL1-15 | 2026-09-02 09:05:46 | 52.51656 | 8.86918 | 91° | 24km/h | 642m | -5.4m/s | 13.5°C | 66.9% | 949.4hPa | 2.7V | 07:31:34 | 02:30:53 | 00:00:00 | |
| BIOWL1-15 | 2026-09-02 09:05:44 | 52.51655 | 8.86899 | 86° | 24km/h | 652m | -5.2m/s | 13.4°C | 63.2% | 948.1hPa | 2.7V | 07:31:34 | 02:30:51 | 00:00:00 | |
| BIOWL1-15 | 2026-09-02 09:05:43 | 52.51655 | 8.86890 | 87° | 22km/h | 657m | -5.1m/s | 13.4°C | 61.3% | 947.6hPa | 2.7V | 07:31:34 | 02:30:50 | 00:00:00 | |
| DM0DOS-11 | 2026-09-02 09:05:43 | 52.51655 | 8.86871 | 83° | 22km/h | 668m | -5.6m/s | 13.4°C | 56.4% | 946.5hPa | 2.7V | 07:31:13 | 02:30:48 | 00:00:00 | |
| DM0DOS-11 | 2026-09-02 09:05:43 | 52.51654 | 8.86851 | 86° | 24km/h | 678m | -5.2m/s | 13.3°C | 58.7% | 945.3hPa | 2.7V | 07:31:15 | 02:30:46 | 00:00:00 | |
| BIOWL1-15 | 2026-09-02 09:05:42 | 52.51655 | 8.86880 | 91° | 24km/h | 663m | -4.9m/s | 13.4°C | 61.5% | 947hPa | 2.7V | 07:31:34 | 02:30:49 | 00:00:00 | |
| DB0DAN | 2026-09-02 09:05:40 | 52.51655 | 8.86861 | 92° | 22km/h | 673m | -5.2m/s | 13.3°C | 57.5% | 945.89hPa | 2.7V | 00:00:00 | 00:00:00 | 00:00:00 | |
| BIOWL1-15 | 2026-09-02 09:05:40 | 52.51652 | 8.86802 | 88° | 24km/h | 704m | -5.3m/s | 13.1°C | 67.7% | 942.2hPa | 2.7V | 07:31:34 | 02:30:41 | 00:00:00 | |
| BIOWL1-15 | 2026-09-02 09:05:40 | 52.51652 | 8.86793 | 86° | 24km/h | 709m | -5.1m/s | 13.1°C | 67.8% | 941.8hPa | 2.7V | 07:31:34 | 02:30:40 | 00:00:00 | |
| DM0DOS-11 | 2026-09-02 09:05:36 | 52.51652 | 8.86812 | 89° | 24km/h | 699m | -5.2m/s | 13.1°C | 62% | 942.9hPa | 2.7V | 07:31:19 | 02:30:42 | 00:00:00 | |
| DM0DOS-11 | 2026-09-02 09:05:36 | 52.51652 | 8.86793 | 85° | 24km/h | 709m | -5.1m/s | 13.1°C | 62% | 941.8hPa | 2.7V | 07:31:21 | 02:30:40 | 00:00:00 | |
| BIOWL1-15 | 2026-09-02 09:05:35 | 52.51651 | 8.86783 | 87° | 24km/h | 714m | -5.1m/s | 13°C | 67.9% | 941.1hPa | 2.7V | 07:31:34 | 02:30:39 | 00:00:00 | |
| BIOWL1-15 | 2026-09-02 09:05:33 | 52.51651 | 8.86773 | 85° | 22km/h | 720m | -5.5m/s | 13°C | 68.2% | 940.6hPa | 2.7V | 07:31:34 | 02:30:38 | 00:00:00 | |
| DM0DOS-11 | 2026-09-02 09:05:31 | 52.51650 | 8.86754 | 86° | 24km/h | 731m | -5.4m/s | 12.9°C | 62.7% | 939.4hPa | 2.7V | 07:31:25 | 02:30:36 | 00:00:00 | |
| BIOWL1-15 | 2026-09-02 09:05:29 | 52.51650 | 8.86744 | 88° | 24km/h | 736m | -5.5m/s | 12.9°C | 69% | 938.8hPa | 2.7V | 07:31:34 | 02:30:35 | 00:00:00 | |
| BIOWL1-15 | 2026-09-02 09:05:29 | 52.51650 | 8.86734 | 89° | 24km/h | 742m | -5.6m/s | 12.8°C | 69.2% | 938.2hPa | 2.7V | 07:31:34 | 02:30:34 | 00:00:00 | |
| DD8BA-10 | 2026-09-02 09:05:27 | 52.51650 | 8.86734 | 90° | 26km/h | 742m | -5.6m/s | 12.8°C | 63.3% | 938.1hPa | 2.7V | 00:00:00 | 00:00:00 | 00:00:00 | |
| BIOWL7-15 | 2026-09-02 09:05:26 | 52.51650 | 8.86734 | 90° | 24km/h | 742m | -5.6m/s | 12.8°C | 63.0% | 938.2hPa | 2.7V | 00:00:00 | 00:00:00 | 00:00:00 | |
| DM0DOS-11 | 2026-09-02 09:05:26 | 52.51648 | 8.86671 | 87° | 26km/h | 774m | -5.4m/s | 12.5°C | 64.2% | 934.6hPa | 2.7V | 07:31:33 | 02:30:28 | 00:00:00 | |
| DB0DAN | 2026-09-02 09:05:25 | 52.51649 | 8.86713 | 87° | 24km/h | 753m | -5.2m/s | 12.7°C | 63.4% | 937.02hPa | 2.7V | 00:00:00 | 00:00:00 | 00:00:00 | |
| BIOWL1-15 | 2026-09-02 09:05:25 | 52.51648 | 8.86671 | 88° | 26km/h | 774m | -5.4m/s | 12.5°C | 69.9% | 934.6hPa | 2.7V | 07:31:34 | 02:30:28 | 00:00:00 | |
| DD8BA-10 | 2026-09-02 09:05:24 | 52.51649 | 8.86703 | 88° | 26km/h | 758m | -5.3m/s | 12.6°C | 63.9% | 936.4hPa | 2.7V | 07:31:00 | 00:00:00 | 00:00:00 | |
| DD8BA-10 | 2026-09-02 09:05:21 | 52.51648 | 8.86671 | 88° | 26km/h | 774m | -5.4m/s | 12.5°C | 64.2% | 934.6hPa | 2.7V | 00:00:00 | 00:00:00 | 00:00:00 | |
| DM0DOS-11 | 2026-09-02 09:05:20 | 52.51646 | 8.86629 | 84° | 26km/h | 795m | -5.4m/s | 12.3°C | 64.7% | 932.2hPa | 2.7V | 07:31:37 | 02:30:24 | 00:00:00 | |
| DM0DOS-11 | 2026-09-02 09:05:20 | 52.51646 | 8.86608 | 86° | 26km/h | 806m | -5.4m/s | 12.3°C | 65.3% | 931.1hPa | 2.7V | 07:31:39 | 02:30:22 | 00:00:00 | |
| BIOWL1-15 | 2026-09-02 09:05:20 | 52.51646 | 8.86618 | 91° | 26km/h | 800m | -5.3m/s | 12.3°C | 71.1% | 931.7hPa | 2.7V | 07:32:25 | 02:30:23 | 00:00:00 | |
| BIOWL1-15 | 2026-09-02 09:05:19 | 52.51646 | 8.86608 | 87° | 26km/h | 806m | -5.4m/s | 12.3°C | 71.2% | 931.1hPa | 2.7V | 07:32:25 | 02:30:22 | 00:00:00 | |
| DD8BA-10 | 2026-09-02 09:05:18 | 52.51647 | 8.86639 | 87° | 26km/h | 790m | -5.0m/s | 12.3°C | 64.6% | 932.8hPa | 2.7V | 00:00:00 | 00:00:00 | 00:00:00 | |
| DD8BA-10 | 2026-09-02 09:05:15 | 52.51645 | 8.86608 | 87° | 26km/h | 806m | -5.3m/s | 12.2°C | 65.3% | 931.0hPa | 2.7V | 00:00:00 | 00:00:00 | 00:00:00 | |
| DM0DOS-11 | 2026-09-02 09:05:14 | 52.51646 | 8.86586 | 88° | 26km/h | 817m | -5.1m/s | 12.2°C | 65.6% | 929.9hPa | 2.7V | 07:31:41 | 02:30:20 | 00:00:00 | |
| BIOWL1-15 | 2026-09-02 09:05:13 | 52.51645 | 8.86576 | 86° | 26km/h | 822m | -5.2m/s | 12.1°C | 71.4% | 929.3hPa | 2.7V | 07:32:25 | 02:30:19 | 00:00:00 | |
| BIOWL1-15 | 2026-09-02 09:05:13 | 52.51645 | 8.86565 | 90° | 26km/h | 827m | -5m/s | 12.1°C | 71.6% | 928.8hPa | 2.7V | 07:32:25 | 02:30:18 | 00:00:00 | |
| DD8BA-10 | 2026-09-02 09:05:12 | 52.51645 | 8.86576 | 87° | 26km/h | 822m | -5.2m/s | 12.1°C | 65.6% | 929.3hPa | 2.7V | 00:00:00 | 00:00:00 | 00:00:00 | |
| DB0DAN | 2026-09-02 09:05:10 | 52.51645 | 8.86554 | 90° | 24km/h | 833m | -5.5m/s | 12.1°C | 65.4% | 928.21hPa | 2.7V | 00:00:00 | 00:00:00 | 00:00:00 | |
| BIOWL1-15 | 2026-09-02 09:05:09 | 52.51645 | 8.86543 | 88° | 26km/h | 838m | -5.6m/s | 12°C | 71.6% | 927.5hPa | 2.7V | 07:32:25 | 02:30:16 | 00:00:00 | |
| BIOWL1-15 | 2026-09-02 09:05:08 | 52.51645 | 8.86533 | 94° | 26km/h | 844m | -5.2m/s | 12°C | 71.6% | 927hPa | 2.7V | 07:32:25 | 02:30:15 | 00:00:00 | |
| BIOWL1-15 | 2026-09-02 09:05:07 | 52.51645 | 8.86522 | 86° | 26km/h | 849m | -5.3m/s | 11.9°C | 71.9% | 926.4hPa | 2.7V | 07:32:25 | 02:30:14 | 00:00:00 | |
| BIOWL1-15 | 2026-09-02 09:05:05 | 52.51645 | 8.86491 | 89° | 26km/h | 865m | -5.5m/s | 11.8°C | 73% | 924.6hPa | 2.7V | 07:32:25 | 02:30:11 | 00:00:00 | |
| BIOWL1-15 | 2026-09-02 09:05:05 | 52.51645 | 8.86480 | 87° | 26km/h | 871m | -5.1m/s | 11.7°C | 73.2% | 923.9hPa | 2.7V | 07:32:25 | 02:30:10 | 00:00:00 | |
| DD8BA-10 | 2026-09-02 09:05:03 | 52.51645 | 8.86480 | 88° | 26km/h | 871m | -5.0m/s | 11.7°C | 67.5% | 923.9hPa | 2.7V | 00:00:00 | 00:00:00 | 00:00:00 | |
| DM0DOS-11 | 2026-09-02 09:05:02 | 52.51645 | 8.86458 | 87° | 27km/h | 881m | -5.5m/s | 11.7°C | 67.8% | 922.7hPa | 2.7V | 07:31:53 | 02:30:08 | 00:00:00 | |
| DM0DOS-11 | 2026-09-02 09:05:02 | 52.51643 | 8.86413 | 83° | 27km/h | 903m | -5.3m/s | 11.4°C | 68.6% | 920.3hPa | 2.7V | 07:31:57 | 02:30:04 | 00:00:00 | |
| BIOWL1-15 | 2026-09-02 09:05:02 | 52.51645 | 8.86469 | 92° | 27km/h | 876m | -5.2m/s | 11.7°C | 73.4% | 923.3hPa | 2.7V | 07:32:25 | 02:30:09 | 00:00:00 | |
| BIOWL1-15 | 2026-09-02 09:05:00 | 52.51644 | 8.86447 | 89° | 27km/h | 886m | -5.4m/s | 11.6°C | 74.1% | 922.1hPa | 2.7V | 07:32:25 | 02:30:07 | 00:00:00 | |
| BIOWL1-15 | 2026-09-02 09:04:58 | 52.51644 | 8.86424 | 89° | 27km/h | 898m | -5.3m/s | 11.5°C | 74.4% | 920.9hPa | 2.7V | 07:32:25 | 02:30:05 | 00:00:00 | |
| DD8BA-10 | 2026-09-02 09:04:57 | 52.51643 | 8.86413 | 84° | 27km/h | 903m | -5.2m/s | 11.4°C | 68.6% | 920.2hPa | 2.7V | 00:00:00 | 00:00:00 | 00:00:00 | |
| DM0DOS-11 | 2026-09-02 09:04:56 | 52.51643 | 8.86391 | 84° | 27km/h | 913m | -5.6m/s | 11.3°C | 68.9% | 919.1hPa | 2.7V | 07:31:59 | 02:30:02 | 00:00:00 | |
| DM0DOS-11 | 2026-09-02 09:04:56 | 52.51641 | 8.86346 | 87° | 27km/h | 935m | -5.9m/s | 11.2°C | 69.1% | 916.7hPa | 2.7V | 07:32:03 | 02:29:58 | 00:00:00 | |
| BIOWL1-15 | 2026-09-02 09:04:56 | 52.51643 | 8.86402 | 88° | 27km/h | 908m | -5.2m/s | 11.4°C | 74.7% | 919.7hPa | 2.7V | 07:32:25 | 02:30:03 | 00:00:00 | |
| DB0DAN | 2026-09-02 09:04:55 | 52.51643 | 8.86391 | 85° | 26km/h | 913m | -5.6m/s | 11.4°C | 68.5% | 919.1hPa | 2.7V | 00:00:00 | 00:00:00 | 00:00:00 | |
| BIOWL1-15 | 2026-09-02 09:04:55 | 52.51643 | 8.86391 | 85° | 27km/h | 913m | -5.6m/s | 11.4°C | 74.8% | 919.1hPa | 2.7V | 07:32:25 | 02:30:02 | 00:00:00 | |
| BIOWL1-15 | 2026-09-02 09:04:53 | 52.51642 | 8.86368 | 85° | 27km/h | 924m | -5.7m/s | 11.3°C | 75.1% | 917.9hPa | 2.7V | 07:32:25 | 02:30:00 | 00:00:00 | |
| BIOWL1-15 | 2026-09-02 09:04:51 | 52.51641 | 8.86346 | 87° | 27km/h | 935m | -5.9m/s | 11.2°C | 75.1% | 916.7hPa | 2.7V | 07:32:25 | 02:29:58 | 00:00:00 | |
| DD8BA-10 | 2026-09-02 09:04:51 | 52.51641 | 8.86345 | 88° | 27km/h | 935m | -5.8m/s | 11.1°C | 69.1% | 916.6hPa | 2.7V | 00:00:00 | 00:00:00 | 00:00:00 | |
| DL1LOL-11 | 2026-09-02 09:04:50 | 52.51641 | 8.86345 | 88° | 27km/h | 935m | -5.9m/s | 11.2°C | 68.7% | 916.7hPa | 2.7V | 00:00:00 | 00:00:00 | 00:00:00 | |
| DM0DOS-11 | 2026-09-02 09:04:50 | 52.51639 | 8.86300 | 84° | 27km/h | 958m | -5.5m/s | 11°C | 69.2% | 914.2hPa | 2.7V | 07:32:07 | 02:29:54 | 00:00:00 | |
| BIOWL1-15 | 2026-09-02 09:04:49 | 52.51640 | 8.86322 | 89° | 27km/h | 947m | -5.5m/s | 11.1°C | 75.1% | 915.4hPa | 2.7V | 07:32:25 | 02:29:56 | 00:00:00 | |
| BIOWL1-15 | 2026-09-02 09:04:48 | 52.51640 | 8.86311 | 84° | 27km/h | 953m | -5.8m/s | 11°C | 75.4% | 914.8hPa | 2.7V | 07:32:25 | 02:29:55 | 00:00:00 | |
| BIOWL1-15 | 2026-09-02 09:04:47 | 52.51639 | 8.86300 | 84° | 27km/h | 958m | -5.5m/s | 11°C | 75.2% | 914.2hPa | 2.7V | 07:32:25 | 02:29:54 | 00:00:00 | |
| BIOWL1-15 | 2026-09-02 09:04:46 | 52.51638 | 8.86288 | 83° | 27km/h | 963m | -5.3m/s | 10.9°C | 74.9% | 913.7hPa | 2.7V | 07:32:25 | 02:29:53 | 00:00:00 | |
| BIOWL1-15 | 2026-09-02 09:04:44 | 52.51637 | 8.86253 | 87° | 29km/h | 980m | -5.8m/s | 10.8°C | 75.1% | 911.7hPa | 2.7V | 07:32:25 | 02:29:50 | 00:00:00 | |
| BIOWL1-15 | 2026-09-02 09:04:44 | 52.51636 | 8.86241 | 85° | 27km/h | 986m | -5.8m/s | 10.7°C | 75.3% | 911.1hPa | 2.7V | 07:32:25 | 02:29:49 | 00:00:00 | |
| DD8BA-10 | 2026-09-02 09:04:42 | 52.51636 | 8.86241 | 86° | 27km/h | 986m | -5.7m/s | 10.7°C | 69.1% | 911.1hPa | 2.7V | 00:00:00 | 00:00:00 | 00:00:00 | |
| DB0DAN | 2026-09-02 09:04:40 | 52.51635 | 8.86218 | 84° | 26km/h | 997m | -4.8m/s | 10.6°C | 69% | 909.94hPa | 2.7V | 00:00:00 | 00:00:00 | 00:00:00 | |
| BIOWL1-15 | 2026-09-02 09:04:40 | 52.51635 | 8.86218 | 84° | 27km/h | 997m | -4.8m/s | 10.6°C | 75.6% | 909.9hPa | 2.7V | 07:32:25 | 02:29:47 | 00:00:00 | |
| BIOWL1-15 | 2026-09-02 09:04:38 | 52.51633 | 8.86184 | 86° | 27km/h | 1013m | -5.5m/s | 10.5°C | 75.7% | 908.2hPa | 2.7V | 07:32:25 | 02:29:44 | 00:00:00 | |
| BIOWL1-15 | 2026-09-02 09:04:38 | 52.51632 | 8.86172 | 83° | 29km/h | 1018m | -5.4m/s | 10.4°C | 76% | 907.7hPa | 2.7V | 07:32:25 | 02:29:43 | 00:00:00 | |
| BIOWL1-15 | 2026-09-02 09:04:34 | 52.51630 | 8.86149 | 86° | 29km/h | 1030m | -5.8m/s | 10.3°C | 76.3% | 906.4hPa | 2.7V | 07:32:25 | 02:29:41 | 00:00:00 | |
| BIOWL1-15 | 2026-09-02 09:04:33 | 52.51630 | 8.86137 | 83° | 31km/h | 1035m | -5.7m/s | 10.3°C | 76.5% | 905.8hPa | 2.7V | 07:32:25 | 02:29:40 | 00:00:00 | |
| DD8BA-10 | 2026-09-02 09:04:33 | 52.51630 | 8.86136 | 83° | 31km/h | 1035m | -5.7m/s | 10.3°C | 70.4% | 905.7hPa | 2.7V | 00:00:00 | 00:00:00 | 00:00:00 | |
| DK9SH | 2026-09-02 09:04:32 | 52.51630 | 8.86136 | 83° | 31km/h | 1035m | -5.7m/s | 10.3°C | 70.0% | 905.8hPa | 2.7V | 00:00:00 | 00:00:00 | 00:00:00 | |
| DM0DOS-11 | 2026-09-02 09:04:32 | 52.51628 | 8.86111 | 83° | 31km/h | 1046m | -5.6m/s | 10.2°C | 70.8% | 904.5hPa | 2.7V | 07:32:23 | 02:29:38 | 00:00:00 | |
| DM0DOS-11 | 2026-09-02 09:04:32 | 52.51626 | 8.86085 | 82° | 33km/h | 1058m | -6m/s | 10.1°C | 71% | 903.2hPa | 2.7V | 07:32:25 | 02:29:36 | 00:00:00 | |
| BIOWL1-15 | 2026-09-02 09:04:31 | 52.51627 | 8.86098 | 82° | 33km/h | 1052m | -6m/s | 10.2°C | 77.5% | 903.9hPa | 2.7V | 07:32:25 | 02:29:37 | 00:00:00 | |
| BIOWL1-15 | 2026-09-02 09:04:31 | 52.51626 | 8.86085 | 82° | 33km/h | 1058m | -6m/s | 10.1°C | 77.4% | 903.2hPa | 2.7V | 07:32:25 | 02:29:36 | 00:00:00 | |
| BIOWL1-15 | 2026-09-02 09:04:28 | 52.51625 | 8.86072 | 82° | 33km/h | 1064m | -5.9m/s | 10.1°C | 77.5% | 902.6hPa | 2.7V | 07:33:16 | 02:29:35 | 00:00:00 | |
| BIOWL1-15 | 2026-09-02 09:04:27 | 52.51624 | 8.86058 | 83° | 31km/h | 1070m | -5.2m/s | 10°C | 77.4% | 902hPa | 2.7V | 07:33:16 | 02:29:34 | 00:00:00 | |
| DD8BA-10 | 2026-09-02 09:04:27 | 52.51623 | 8.86058 | 83° | 31km/h | 1070m | -5.1m/s | 10.0°C | 71.2% | 902.0hPa | 2.7V | 00:00:00 | 00:00:00 | 00:00:00 | |
| DM0DOS-11 | 2026-09-02 09:04:26 | 52.51622 | 8.86032 | 88° | 31km/h | 1080m | -5.8m/s | 9.9°C | 71.6% | 900.8hPa | 2.7V | 07:32:29 | 02:29:32 | 00:00:00 | |
| DB0DAN | 2026-09-02 09:04:25 | 52.51622 | 8.86032 | 89° | 29km/h | 1080m | -5.8m/s | 9.9°C | 71.2% | 900.83hPa | 2.7V | 00:00:00 | 00:00:00 | 00:00:00 | |
| BIOWL1-15 | 2026-09-02 09:04:25 | 52.51622 | 8.86032 | 89° | 31km/h | 1080m | -5.8m/s | 9.9°C | 77.9% | 900.8hPa | 2.7V | 07:33:16 | 02:29:32 | 00:00:00 | |
| BIOWL1-15 | 2026-09-02 09:04:23 | 52.51622 | 8.86006 | 89° | 31km/h | 1091m | -5.4m/s | 9.8°C | 77.2% | 899.6hPa | 2.7V | 07:33:16 | 02:29:30 | 00:00:00 | |
| BIOWL1-15 | 2026-09-02 09:04:22 | 52.51622 | 8.85993 | 87° | 31km/h | 1097m | -5.3m/s | 9.8°C | 77.2% | 899hPa | 2.6V | 07:33:16 | 02:29:29 | 00:00:00 | |
| DM0DOS-11 | 2026-09-02 09:04:21 | 52.51614 | 8.85904 | 81° | 29km/h | 1136m | -5.3m/s | 9.5°C | 72.1% | 894.7hPa | 2.7V | 07:32:39 | 02:29:22 | 00:00:00 | |
| BIOWL1-15 | 2026-09-02 09:04:21 | 52.51621 | 8.85980 | 87° | 31km/h | 1102m | -5.7m/s | 9.8°C | 77.6% | 898.5hPa | 2.7V | 07:33:16 | 02:29:28 | 00:00:00 | |
| BIOWL1-15 | 2026-09-02 09:04:19 | 52.51620 | 8.85954 | 82° | 31km/h | 1114m | -5.9m/s | 9.7°C | 78.1% | 897.2hPa | 2.7V | 07:33:16 | 02:29:26 | 00:00:00 | |
| BIOWL1-15 | 2026-09-02 09:04:18 | 52.51618 | 8.85941 | 80° | 31km/h | 1120m | -4.8m/s | 9.6°C | 78.3% | 896.6hPa | 2.7V | 07:33:16 | 02:29:25 | 00:00:00 | |
| BIOWL1-15 | 2026-09-02 09:04:17 | 52.51617 | 8.85929 | 77° | 31km/h | 1124m | -5.5m/s | 9.6°C | 78.2% | 896.1hPa | 2.7V | 07:33:16 | 02:29:24 | 00:00:00 | |
| BIOWL1-15 | 2026-09-02 09:04:16 | 52.51611 | 8.85867 | 80° | 31km/h | 1152m | -5.9m/s | 9.3°C | 78.5% | 893.1hPa | 2.7V | 07:33:16 | 02:29:19 | 00:00:00 | |
| BIOWL1-15 | 2026-09-02 09:04:15 | 52.51610 | 8.85854 | 84° | 29km/h | 1158m | -5.7m/s | 9.3°C | 78.5% | 892.5hPa | 2.7V | 07:33:16 | 02:29:18 | 00:00:00 | |
| DD8BA-10 | 2026-09-02 09:04:15 | 52.51614 | 8.85904 | 82° | 31km/h | 1136m | -5.3m/s | 9.4°C | 72.1% | 894.6hPa | 2.7V | 00:00:00 | 00:00:00 | 00:00:00 | |
| DM0DOS-11 | 2026-09-02 09:04:14 | 52.51610 | 8.85854 | 83° | 29km/h | 1158m | -5.7m/s | 9.3°C | 72.2% | 892.5hPa | 2.7V | 07:32:43 | 02:29:18 | 00:00:00 | |
| DM0DOS-11 | 2026-09-02 09:04:14 | 52.51609 | 8.85805 | 89° | 33km/h | 1180m | -5.6m/s | 9.1°C | 72.4% | 890.2hPa | 2.7V | 07:32:47 | 02:29:14 | 00:00:00 | |
| DD8BA-10 | 2026-09-02 09:04:12 | 52.51611 | 8.85867 | 81° | 29km/h | 1152m | -5.8m/s | 9.3°C | 72.2% | 893.0hPa | 2.7V | 07:32:00 | 00:00:00 | 00:00:00 | |
| DB0DAN | 2026-09-02 09:04:10 | 52.51609 | 8.85842 | 88° | 27km/h | 1164m | -5.7m/s | 9.2°C | 71.6% | 891.89hPa | 2.7V | 00:00:00 | 00:00:00 | 00:00:00 | |
| BIOWL1-15 | 2026-09-02 09:04:09 | 52.51609 | 8.85818 | 92° | 31km/h | 1175m | -5.7m/s | 9.1°C | 78.4% | 890.7hPa | 2.7V | 07:33:16 | 02:29:15 | 00:00:00 | |
| BIOWL1-15 | 2026-09-02 09:04:09 | 52.51610 | 8.85805 | 90° | 33km/h | 1180m | -5.6m/s | 9.1°C | 78.5% | 890.2hPa | 2.7V | 07:33:16 | 02:29:14 | 00:00:00 | |
| BIOWL1-15 | 2026-09-02 09:04:05 | 52.51609 | 8.85777 | 87° | 35km/h | 1191m | -5.5m/s | 9°C | 78.9% | 888.8hPa | 2.7V | 07:33:16 | 02:29:12 | 00:00:00 | |
| BIOWL1-15 | 2026-09-02 09:04:03 | 52.51607 | 8.85749 | 78° | 33km/h | 1202m | -5.2m/s | 8.9°C | 79.2% | 887.8hPa | 2.7V | 07:33:16 | 02:29:10 | 00:00:00 | |
| DD8BA-10 | 2026-09-02 09:04:03 | 52.51607 | 8.85749 | 79° | 31km/h | 1202m | -5.1m/s | 8.9°C | 73.2% | 887.7hPa | 2.7V | 00:00:00 | 00:00:00 | 00:00:00 | |
| BIOWL7-15 | 2026-09-02 09:04:02 | 52.51607 | 8.85749 | 79° | 33km/h | 1202m | -5.2m/s | 8.9°C | 72.7% | 887.8hPa | 2.7V | 07:33:00 | 00:00:00 | 00:00:00 | |
| DL1LOL-11 | 2026-09-02 09:04:02 | 52.51607 | 8.85749 | 79° | 33km/h | 1202m | -5.2m/s | 8.9°C | 72.7% | 887.8hPa | 2.7V | 07:33:00 | 00:00:00 | 00:00:00 | |
| DM0DOS-11 | 2026-09-02 09:04:02 | 52.51604 | 8.85724 | 79° | 27km/h | 1212m | -5.5m/s | 8.8°C | 72.9% | 886.7hPa | 2.7V | 07:32:53 | 02:29:08 | 00:00:00 | |
| BIOWL1-15 | 2026-09-02 09:04:01 | 52.51604 | 8.85724 | 80° | 27km/h | 1212m | -5.5m/s | 8.8°C | 79.2% | 886.7hPa | 2.7V | 07:33:16 | 02:29:08 | 00:00:00 | |
| BIOWL1-15 | 2026-09-02 09:04:00 | 52.51602 | 8.85713 | 78° | 27km/h | 1218m | -5.3m/s | 8.8°C | 79.3% | 886hPa | 2.7V | 07:33:16 | 02:29:07 | 00:00:00 | |
| BIOWL1-15 | 2026-09-02 09:03:58 | 52.51601 | 8.85691 | 83° | 26km/h | 1229m | -5.4m/s | 8.7°C | 78.4% | 884.8hPa | 2.7V | 07:33:16 | 02:29:05 | 00:00:00 | |
| BIOWL1-15 | 2026-09-02 09:03:57 | 52.51600 | 8.85680 | 82° | 26km/h | 1234m | -5.5m/s | 8.7°C | 78.4% | 884hPa | 2.7V | 07:33:16 | 02:29:04 | 00:00:00 | |
| BIOWL1-15 | 2026-09-02 09:03:56 | 52.51591 | 8.85615 | 83° | 27km/h | 1267m | -5.4m/s | 8.4°C | 79.3% | 880.9hPa | 2.7V | 07:33:16 | 02:28:58 | 00:00:00 | |
| BIOWL1-15 | 2026-09-02 09:03:55 | 52.51591 | 8.85603 | 88° | 29km/h | 1272m | -5.3m/s | 8.3°C | 79.4% | 880.1hPa | 2.7V | 07:33:16 | 02:28:57 | 00:00:00 | |
| DB0DAN | 2026-09-02 09:03:55 | 52.51597 | 8.85659 | 77° | 26km/h | 1245m | -5.3m/s | 8.6°C | 72.1% | 883.01hPa | 2.7V | 00:00:00 | 00:00:00 | 00:00:00 | |
| BIOWL1-15 | 2026-09-02 09:03:51 | 52.51591 | 8.85591 | 91° | 29km/h | 1277m | -5.7m/s | 8.3°C | 79.8% | 879.6hPa | 2.7V | 07:33:16 | 02:28:56 | 00:00:00 | |
| DD8BA-10 | 2026-09-02 09:03:51 | 52.51591 | 8.85615 | 83° | 29km/h | 1267m | -5.3m/s | 8.3°C | 73.1% | 880.8hPa | 2.7V | 00:00:00 | 00:00:00 | 00:00:00 | |
| DJ2DS-15 | 2026-09-02 09:03:50 | 52.51591 | 8.85603 | 89° | 31km/h | 1272m | -5.3m/s | 8.3°C | 73.1% | 880.1hPa | 2.7V | 00:00:00 | 02:28:57 | 00:00:00 | |
| DL4XJ-10 | 2026-09-02 09:03:50 | 52.51591 | 8.85603 | 89° | 35km/h | 1273m | -5.3m/s | 7.6°C | 0% | 0hPa | 2.7V | 00:00:00 | 00:00:00 | 00:00:00 | |
| DM0DOS-11 | 2026-09-02 09:03:49 | 52.51591 | 8.85565 | 88° | 33km/h | 1289m | -5.7m/s | 8.2°C | 73.8% | 878.4hPa | 2.7V | 07:33:07 | 02:28:54 | 00:00:00 | |
| BIOWL1-15 | 2026-09-02 09:03:47 | 52.51591 | 8.85565 | 89° | 33km/h | 1289m | -5.7m/s | 8.2°C | 79.6% | 878.4hPa | 2.7V | 07:33:16 | 02:28:54 | 00:00:00 | |
| BIOWL1-15 | 2026-09-02 09:03:45 | 52.51587 | 8.85507 | 78° | 38km/h | 1311m | -5.7m/s | 8°C | 80.9% | 876.2hPa | 2.7V | 07:33:16 | 02:28:50 | 00:00:00 | |
| BIOWL1-15 | 2026-09-02 09:03:45 | 52.51585 | 8.85491 | 75° | 38km/h | 1317m | -5.5m/s | 7.9°C | 81% | 875.5hPa | 2.7V | 07:33:16 | 02:28:49 | 00:00:00 | |
| DJ2DS-15 | 2026-09-02 09:03:45 | 52.51590 | 8.85537 | 85° | 38km/h | 1300m | -5.5m/s | 8.0°C | 74.5% | 877.3hPa | 2.7V | 00:00:00 | 02:28:52 | 00:00:00 | |
| DL1CLM-18 | 2026-09-02 09:03:44 | 52.51590 | 8.85537 | 85° | 35km/h | 1300m | -5.5m/s | 8.1°C | 74.0% | 877.3hPa | 2.7V | 07:33:00 | 00:00:00 | 00:00:00 | |
| DM0DOS-11 | 2026-09-02 09:03:44 | 52.51587 | 8.85507 | 77° | 38km/h | 1311m | -5.7m/s | 8°C | 74.8% | 876.2hPa | 2.7V | 07:33:11 | 02:28:50 | 00:00:00 | |
| DM0DOS-11 | 2026-09-02 09:03:44 | 52.51578 | 8.85446 | 75° | 37km/h | 1334m | -5.2m/s | 7.8°C | 74.5% | 873.8hPa | 2.7V | 07:33:15 | 02:28:46 | 00:00:00 | |
| BIOWL1-15 | 2026-09-02 09:03:43 | 52.51583 | 8.85476 | 75° | 38km/h | 1323m | -6m/s | 7.9°C | 80.2% | 875hPa | 2.6V | 07:33:16 | 02:28:48 | 00:00:00 | |
| BIOWL7-15 | 2026-09-02 09:03:41 | 52.51585 | 8.85491 | 76° | 38km/h | 1317m | -5.5m/s | 7.9°C | 74.5% | 875.5hPa | 2.7V | 07:33:00 | 00:00:00 | 00:00:00 | |
| DB0DAN | 2026-09-02 09:03:40 | 52.51580 | 8.85460 | 74° | 35km/h | 1329m | -5.2m/s | 7.8°C | 73.6% | 874.44hPa | 2.7V | 00:00:00 | 00:00:00 | 00:00:00 | |
| DJ2DS-15 | 2026-09-02 09:03:40 | 52.51580 | 8.85460 | 75° | 35km/h | 1329m | -5.2m/s | 7.8°C | 74.1% | 874.4hPa | 2.7V | 00:00:00 | 02:28:47 | 00:00:00 | |
| DL4XJ-10 | 2026-09-02 09:03:40 | 52.51580 | 8.85460 | 75° | 33km/h | 1328m | -5.2m/s | 7.2°C | 0% | 0hPa | 2.7V | 00:00:00 | 00:00:00 | 00:00:00 | |
| DM0DOS-11 | 2026-09-02 09:03:39 | 52.51572 | 8.85393 | 84° | 31km/h | 1355m | -5.6m/s | 7.6°C | 76.5% | 871.5hPa | 2.7V | 07:33:19 | 02:28:42 | 00:00:00 | |
| BIOWL1-15 | 2026-09-02 09:03:39 | 52.51578 | 8.85446 | 75° | 37km/h | 1334m | -5.2m/s | 7.8°C | 79.8% | 873.8hPa | 2.7V | 07:33:16 | 02:28:46 | 00:00:00 | |
| BIOWL1-15 | 2026-09-02 09:03:37 | 52.51574 | 8.85418 | 79° | 31km/h | 1344m | -4.9m/s | 7.7°C | 80.5% | 872.7hPa | 2.7V | 07:34:07 | 02:28:44 | 00:00:00 | |
| BIOWL1-15 | 2026-09-02 09:03:35 | 52.51572 | 8.85393 | 85° | 31km/h | 1355m | -5.6m/s | 7.6°C | 82.1% | 871.5hPa | 2.7V | 07:34:07 | 02:28:42 | 00:00:00 | |
| BIOWL1-15 | 2026-09-02 09:03:33 | 52.51570 | 8.85367 | 80° | 31km/h | 1366m | -5.5m/s | 7.5°C | 82.9% | 870.4hPa | 2.7V | 07:34:07 | 02:28:40 | 00:00:00 | |
| BIOWL1-15 | 2026-09-02 09:03:32 | 52.51568 | 8.85354 | 80° | 29km/h | 1372m | -5.6m/s | 7.4°C | 83.7% | 869.7hPa | 2.7V | 07:34:07 | 02:28:39 | 00:00:00 | |
| BIOWL1-15 | 2026-09-02 09:03:30 | 52.51566 | 8.85331 | 80° | 27km/h | 1383m | -5.8m/s | 7.3°C | 86.1% | 868.4hPa | 2.6V | 07:34:07 | 02:28:37 | 00:00:00 | |
| BIOWL1-15 | 2026-09-02 09:03:29 | 52.51565 | 8.85319 | 80° | 29km/h | 1389m | -5.5m/s | 7.3°C | 85.1% | 867.9hPa | 2.7V | 07:34:07 | 02:28:36 | 00:00:00 | |
| DD8BA-10 | 2026-09-02 09:03:29 | 52.51564 | 8.85319 | 80° | 31km/h | 1389m | -5.5m/s | 7.2°C | 79.9% | 867.8hPa | 2.7V | 00:00:00 | 00:00:00 | 00:00:00 | |
| DM0DOS-11 | 2026-09-02 09:03:28 | 52.51556 | 8.85266 | 75° | 37km/h | 1410m | -5.7m/s | 7.1°C | 79.8% | 865.7hPa | 2.7V | 07:33:29 | 02:28:32 | 00:00:00 | |
| BIOWL1-15 | 2026-09-02 09:03:27 | 52.51558 | 8.85280 | 73° | 37km/h | 1405m | -5.3m/s | 7.2°C | 85% | 866.2hPa | 2.7V | 07:34:07 | 02:28:33 | 00:00:00 | |
| BIOWL1-15 | 2026-09-02 09:03:27 | 52.51556 | 8.85266 | 76° | 37km/h | 1410m | -5.7m/s | 7.1°C | 85.3% | 865.7hPa | 2.7V | 07:34:07 | 02:28:32 | 00:00:00 | |
| DB0DAN | 2026-09-02 09:03:25 | 52.51556 | 8.85266 | 76° | 35km/h | 1410m | -5.7m/s | 7.1°C | 79.2% | 865.7hPa | 2.7V | 00:00:00 | 00:00:00 | 00:00:00 | |
| BIOWL1-15 | 2026-09-02 09:03:24 | 52.51550 | 8.85221 | 77° | 35km/h | 1427m | -5.2m/s | 6.9°C | 86.4% | 863.8hPa | 2.7V | 07:34:07 | 02:28:29 | 00:00:00 | |
| BIOWL1-15 | 2026-09-02 09:03:23 | 52.51548 | 8.85208 | 76° | 33km/h | 1432m | -5.5m/s | 6.9°C | 86.9% | 863.4hPa | 2.7V | 07:34:07 | 02:28:28 | 00:00:00 | |
| BIOWL1-15 | 2026-09-02 09:03:19 | 52.51542 | 8.85171 | 70° | 31km/h | 1449m | -6.1m/s | 6.7°C | 87.9% | 861.5hPa | 2.7V | 07:34:07 | 02:28:25 | 00:00:00 | |
| BIOWL1-15 | 2026-09-02 09:03:19 | 52.51539 | 8.85158 | 69° | 33km/h | 1455m | -5.8m/s | 6.7°C | 87.8% | 860.8hPa | 2.7V | 07:34:07 | 02:28:24 | 00:00:00 | |
| DM0DOS-11 | 2026-09-02 09:03:17 | 52.51532 | 8.85131 | 70° | 37km/h | 1466m | -5.3m/s | 6.6°C | 83.3% | 859.5hPa | 2.7V | 07:33:39 | 02:28:22 | 00:00:00 | |
| DM0DOS-11 | 2026-09-02 09:03:17 | 52.51527 | 8.85101 | 75° | 38km/h | 1477m | -5.6m/s | 6.7°C | 80.8% | 858.5hPa | 2.7V | 07:33:41 | 02:28:20 | 00:00:00 | |
| BIOWL1-15 | 2026-09-02 09:03:15 | 52.51533 | 8.85131 | 71° | 37km/h | 1467m | -5.3m/s | 6.6°C | 87.6% | 859.5hPa | 2.7V | 07:34:07 | 02:28:22 | 00:00:00 | |
| BIOWL1-15 | 2026-09-02 09:03:14 | 52.51530 | 8.85116 | 74° | 37km/h | 1472m | -5.4m/s | 6.6°C | 87.1% | 859.1hPa | 2.7V | 07:34:07 | 02:28:21 | 00:00:00 | |
| BIOWL1-15 | 2026-09-02 09:03:13 | 52.51527 | 8.85101 | 76° | 38km/h | 1477m | -5.6m/s | 6.7°C | 85.5% | 858.5hPa | 2.7V | 07:34:07 | 02:28:20 | 00:00:00 | |
| BIOWL1-15 | 2026-09-02 09:03:11 | 52.51523 | 8.85071 | 80° | 37km/h | 1489m | -5.8m/s | 6.6°C | 84.5% | 857.4hPa | 2.7V | 07:34:07 | 02:28:18 | 00:00:00 | |
| DB0DAN | 2026-09-02 09:03:10 | 52.51522 | 8.85057 | 81° | 31km/h | 1495m | -5.4m/s | 6.6°C | 79.1% | 856.78hPa | 2.7V | 00:00:00 | 00:00:00 | 00:00:00 | |
| BIOWL1-15 | 2026-09-02 09:03:09 | 52.51519 | 8.85031 | 75° | 31km/h | 1505m | -5.5m/s | 6.5°C | 84.3% | 855.8hPa | 2.7V | 07:34:07 | 02:28:15 | 00:00:00 | |
| BIOWL1-15 | 2026-09-02 09:03:09 | 52.51516 | 8.85019 | 72° | 33km/h | 1511m | -5.4m/s | 6.4°C | 84.6% | 855hPa | 2.7V | 07:34:07 | 02:28:14 | 00:00:00 | |
| DD8BA-10 | 2026-09-02 09:03:08 | 52.51519 | 8.85031 | 75° | 35km/h | 1505m | -5.5m/s | 6.4°C | 79.1% | 855.8hPa | 2.7V | 00:00:00 | 00:00:00 | 00:00:00 | |
| DM0DOS-11 | 2026-09-02 09:03:06 | 52.51511 | 8.84992 | 71° | 35km/h | 1522m | -5.4m/s | 6.3°C | 78.5% | 853.9hPa | 2.7V | 07:33:49 | 02:28:12 | 00:00:00 | |
| BIOWL1-15 | 2026-09-02 09:03:05 | 52.51511 | 8.84992 | 72° | 35km/h | 1522m | -5.4m/s | 6.3°C | 83.5% | 853.9hPa | 2.7V | 07:34:07 | 02:28:12 | 00:00:00 | |
| BIOWL1-15 | 2026-09-02 09:03:03 | 52.51505 | 8.84965 | 70° | 37km/h | 1533m | -5.4m/s | 6.3°C | 83.2% | 852.8hPa | 2.6V | 07:34:07 | 02:28:10 | 00:00:00 | |
| BIOWL1-15 | 2026-09-02 09:03:01 | 52.51499 | 8.84937 | 67° | 37km/h | 1544m | -5.9m/s | 6.2°C | 82.1% | 851.6hPa | 2.7V | 07:34:07 | 02:28:08 | 00:00:00 | |
| BIOWL1-15 | 2026-09-02 09:03:00 | 52.51496 | 8.84923 | 69° | 35km/h | 1550m | -5.4m/s | 6.2°C | 81.6% | 851.1hPa | 2.7V | 07:34:07 | 02:28:07 | 00:00:00 | |
| BIOWL1-15 | 2026-09-02 09:02:58 | 52.51489 | 8.84895 | 68° | 38km/h | 1560m | -5.4m/s | 6.2°C | 78.3% | 850hPa | 2.7V | 07:34:07 | 02:28:05 | 00:00:00 | |
| BIOWL1-15 | 2026-09-02 09:02:56 | 52.51482 | 8.84864 | 70° | 42km/h | 1571m | -5.6m/s | 6.1°C | 79.6% | 848.7hPa | 2.6V | 07:34:07 | 02:28:03 | 00:00:00 | |
| DB0DAN | 2026-09-02 09:02:55 | 52.51479 | 8.84848 | 74° | 40km/h | 1577m | -5.7m/s | 6.1°C | 73.8% | 848.18hPa | 2.7V | 00:00:00 | 00:00:00 | 00:00:00 | |
| BIOWL1-15 | 2026-09-02 09:02:55 | 52.51479 | 8.84848 | 74° | 42km/h | 1577m | -5.7m/s | 6.1°C | 79.6% | 848.2hPa | 2.7V | 07:34:07 | 02:28:02 | 00:00:00 | |
| DO2JMG | 2026-09-02 09:02:54 | 52.51476 | 8.84831 | 74° | 42km/h | 1583m | -5.3m/s | 6°C | 80.9% | 847.7hPa | 2.7V | 07:34:07 | 02:28:01 | 00:00:00 | |
| BIOWL1-15 | 2026-09-02 09:02:53 | 52.51470 | 8.84799 | 71° | 38km/h | 1593m | -5.7m/s | 6°C | 85.5% | 846.5hPa | 2.7V | 07:34:07 | 02:27:59 | 00:00:00 | |
| DO2JMG | 2026-09-02 09:02:53 | 52.51473 | 8.84815 | 73° | 40km/h | 1588m | -5.8m/s | 6°C | 82.6% | 847.1hPa | 2.7V | 07:34:07 | 02:28:00 | 00:00:00 | |
| DO2JMG | 2026-09-02 09:02:51 | 52.51467 | 8.84784 | 72° | 37km/h | 1599m | -5.6m/s | 5.9°C | 86.5% | 846hPa | 2.7V | 07:34:07 | 02:27:58 | 00:00:00 | |
| DO2JMG | 2026-09-02 09:02:50 | 52.51464 | 8.84769 | 69° | 38km/h | 1605m | -5.4m/s | 5.9°C | 88.6% | 845.5hPa | 2.7V | 07:34:07 | 02:27:57 | 00:00:00 | |
| DO2JMG | 2026-09-02 09:02:48 | 52.51457 | 8.84740 | 71° | 37km/h | 1616m | -5.3m/s | 5.8°C | 91.1% | 844.3hPa | 2.7V | 07:34:07 | 02:27:55 | 00:00:00 | |
| DD8BA-10 | 2026-09-02 09:02:48 | 52.51457 | 8.84740 | 72° | 35km/h | 1616m | -5.3m/s | 5.7°C | 85.9% | 844.2hPa | 2.7V | 00:00:00 | 00:00:00 | 00:00:00 | |
| DL1XH1-15 | 2026-09-02 09:02:47 | 52.51439 | 8.84660 | 68° | 35km/h | 1650m | -5.7m/s | 5.5°C | 89% | 840.7hPa | 2.7V | 07:34:12 | 02:27:49 | 00:00:00 | |
| DL1XH-west | 2026-09-02 09:02:47 | 52.51454 | 8.84726 | 73° | 35km/h | 1622m | -5.6m/s | 5.7°C | 92% | 843.7hPa | 2.6V | 07:34:07 | 02:27:54 | 00:00:00 | |
| DO2JMG | 2026-09-02 09:02:45 | 52.51448 | 8.84700 | 67° | 35km/h | 1633m | -5.9m/s | 5.7°C | 92.8% | 842.5hPa | 2.7V | 07:35:49 | 02:27:52 | 00:00:00 | |
| DL1XH-west | 2026-09-02 09:02:44 | 52.51445 | 8.84687 | 67° | 33km/h | 1639m | -5.7m/s | 5.6°C | 93% | 842hPa | 2.7V | 07:34:58 | 02:27:51 | 00:00:00 | |
| BIOWL1-15 | 2026-09-02 09:02:43 | 52.51442 | 8.84674 | 72° | 33km/h | 1644m | -5.6m/s | 5.6°C | 93.5% | 841.4hPa | 2.7V | 07:34:58 | 02:27:50 | 00:00:00 | |
| DL1XH-west | 2026-09-02 09:02:42 | 52.51439 | 8.84660 | 68° | 35km/h | 1650m | -5.7m/s | 5.5°C | 94% | 840.7hPa | 2.7V | 07:34:58 | 02:27:49 | 00:00:00 | |
| DL1XH-west | 2026-09-02 09:02:41 | 52.51436 | 8.84647 | 68° | 35km/h | 1655m | -5.7m/s | 5.5°C | 94.2% | 840.2hPa | 2.7V | 07:34:58 | 02:27:48 | 00:00:00 | |
| DB0DAN | 2026-09-02 09:02:40 | 52.51432 | 8.84633 | 67° | 35km/h | 1661m | -5.7m/s | 5.4°C | 88.8% | 839.63hPa | 2.7V | 00:00:00 | 00:00:00 | 00:00:00 | |
| DL1XH-west | 2026-09-02 09:02:40 | 52.51432 | 8.84633 | 67° | 37km/h | 1661m | -5.7m/s | 5.4°C | 94.2% | 839.6hPa | 2.7V | 07:34:58 | 02:27:47 | 00:00:00 | |
| DL1XH1-15 | 2026-09-02 09:02:39 | 52.51415 | 8.84574 | 61° | 44km/h | 1683m | -5.4m/s | 5.3°C | 88.8% | 837.2hPa | 2.6V | 07:34:18 | 02:27:43 | 00:00:00 | |
| DL1XH1-15 | 2026-09-02 09:02:39 | 52.51405 | 8.84542 | 61° | 44km/h | 1694m | -5.4m/s | 5.2°C | 89.2% | 836.3hPa | 2.7V | 07:34:20 | 02:27:41 | 00:00:00 | |
| DL1XH-west | 2026-09-02 09:02:39 | 52.51429 | 8.84620 | 66° | 38km/h | 1667m | -5.3m/s | 5.4°C | 94% | 839.1hPa | 2.7V | 07:34:58 | 02:27:46 | 00:00:00 | |
| BIOWL1-15 | 2026-09-02 09:02:38 | 52.51425 | 8.84605 | 65° | 40km/h | 1672m | -5.3m/s | 5.4°C | 93.9% | 838.5hPa | 2.7V | 07:34:58 | 02:27:45 | 00:00:00 | |
| DL1XH-west | 2026-09-02 09:02:37 | 52.51420 | 8.84590 | 63° | 42km/h | 1677m | -5.3m/s | 5.4°C | 93.5% | 838hPa | 2.6V | 07:34:58 | 02:27:44 | 00:00:00 | |
| DL1XH-west | 2026-09-02 09:02:36 | 52.51415 | 8.84574 | 62° | 44km/h | 1683m | -5.4m/s | 5.3°C | 93.7% | 837.3hPa | 2.6V | 07:34:58 | 02:27:43 | 00:00:00 | |
| BIOWL1-15 | 2026-09-02 09:02:35 | 52.51410 | 8.84558 | 64° | 44km/h | 1688m | -5.5m/s | 5.3°C | 93.9% | 837hPa | 2.7V | 07:34:58 | 02:27:42 | 00:00:00 | |
| DL1XH-west | 2026-09-02 09:02:34 | 52.51405 | 8.84542 | 62° | 44km/h | 1694m | -5.4m/s | 5.2°C | 93.7% | 836.3hPa | 2.7V | 07:34:58 | 02:27:41 | 00:00:00 | |
| DL1XH-west | 2026-09-02 09:02:33 | 52.51400 | 8.84526 | 65° | 42km/h | 1699m | -5.3m/s | 5.2°C | 93.9% | 835.7hPa | 2.7V | 07:34:58 | 02:27:40 | 00:00:00 | |
| DM0DOS-11 | 2026-09-02 09:02:32 | 52.51392 | 8.84496 | 64° | 40km/h | 1710m | -5.4m/s | 5.1°C | 88.9% | 834.5hPa | 2.7V | 07:34:23 | 02:27:38 | 00:00:00 | |
| DO2JMG | 2026-09-02 09:02:31 | 52.51392 | 8.84496 | 64° | 40km/h | 1710m | -5.4m/s | 5.1°C | 93.8% | 834.5hPa | 2.7V | 07:35:49 | 02:27:38 | 00:00:00 | |
| DL1XH-west | 2026-09-02 09:02:30 | 52.51387 | 8.84481 | 65° | 38km/h | 1716m | -5.6m/s | 5.1°C | 92.9% | 834.1hPa | 2.7V | 07:34:58 | 02:27:37 | 00:00:00 | |
| DL1XH-west | 2026-09-02 09:02:29 | 52.51383 | 8.84467 | 65° | 38km/h | 1722m | -5.8m/s | 5.1°C | 92.9% | 833.6hPa | 2.7V | 07:34:58 | 02:27:36 | 00:00:00 | |
| DL1XH-west | 2026-09-02 09:02:28 | 52.51379 | 8.84452 | 67° | 38km/h | 1727m | -5.7m/s | 5°C | 93.6% | 832.9hPa | 2.7V | 07:34:58 | 02:27:35 | 00:00:00 | |
| DL1XH-west | 2026-09-02 09:02:27 | 52.51376 | 8.84437 | 72° | 38km/h | 1733m | -5.3m/s | 5°C | 94.5% | 832.4hPa | 2.6V | 07:34:58 | 02:27:34 | 00:00:00 | |
| BIOWL1-15 | 2026-09-02 09:02:25 | 52.51365 | 8.84393 | 64° | 38km/h | 1750m | -5.8m/s | 4.9°C | 94.9% | 830.5hPa | 2.7V | 07:34:58 | 02:27:31 | 00:00:00 | |
| DB0DAN | 2026-09-02 09:02:25 | 52.51369 | 8.84408 | 68° | 37km/h | 1744m | -5.8m/s | 4.9°C | 89.6% | 831.08hPa | 2.7V | 00:00:00 | 00:00:00 | 00:00:00 | |
| DL1XH-west | 2026-09-02 09:02:25 | 52.51369 | 8.84408 | 68° | 38km/h | 1744m | -5.8m/s | 4.9°C | 95.1% | 831.1hPa | 2.7V | 07:34:58 | 02:27:32 | 00:00:00 | |
| DL1XH-west | 2026-09-02 09:02:23 | 52.51361 | 8.84378 | 64° | 40km/h | 1755m | -5.4m/s | 4.8°C | 95.2% | 830hPa | 2.7V | 07:34:58 | 02:27:30 | 00:00:00 | |
| DL1XH-west | 2026-09-02 09:02:21 | 52.51352 | 8.84347 | 65° | 42km/h | 1766m | -5.8m/s | 4.7°C | 94.5% | 828.8hPa | 2.7V | 07:34:58 | 02:27:28 | 00:00:00 | |
| DL1XH-west | 2026-09-02 09:02:19 | 52.51343 | 8.84315 | 65° | 44km/h | 1778m | -5.7m/s | 4.7°C | 95% | 827.7hPa | 2.7V | 07:34:58 | 02:27:26 | 00:00:00 | |
| DL1XH-west | 2026-09-02 09:02:17 | 52.51333 | 8.84281 | 66° | 46km/h | 1789m | -6m/s | 4.6°C | 95.2% | 826.6hPa | 2.6V | 07:34:58 | 02:27:24 | 00:00:00 | |
| DL1XH-west | 2026-09-02 09:02:16 | 52.51328 | 8.84264 | 67° | 46km/h | 1795m | -5.5m/s | 4.5°C | 95.7% | 826hPa | 2.6V | 07:34:58 | 02:27:23 | 00:00:00 | |
| DL1XH1-15 | 2026-09-02 09:02:15 | 52.51320 | 8.84232 | 68° | 38km/h | 1806m | -5.5m/s | 4.5°C | 92% | 824.9hPa | 2.7V | 07:34:40 | 02:27:21 | 00:00:00 | |
| BIOWL1-15 | 2026-09-02 09:02:15 | 52.51316 | 8.84217 | 65° | 37km/h | 1811m | -5.4m/s | 4.4°C | 96.1% | 824.3hPa | 2.7V | 07:34:58 | 02:27:20 | 00:00:00 | |
| DJ2DS-15 | 2026-09-02 09:02:15 | 52.51324 | 8.84247 | 67° | 38km/h | 1800m | -5.4m/s | 4.4°C | 92.2% | 825.4hPa | 2.7V | 07:34:00 | 02:27:22 | 00:00:00 | |
| DM0DOS-11 | 2026-09-02 09:02:14 | 52.51308 | 8.84190 | 60° | 37km/h | 1822m | -5.5m/s | 4.4°C | 90.2% | 823.1hPa | 2.7V | 07:34:43 | 02:27:18 | 00:00:00 | |
| DL1XH-west | 2026-09-02 09:02:14 | 52.51320 | 8.84232 | 68° | 38km/h | 1806m | -5.5m/s | 4.5°C | 96.2% | 824.9hPa | 2.7V | 07:34:58 | 02:27:21 | 00:00:00 | |
| BIOWL1-15 | 2026-09-02 09:02:12 | 52.51312 | 8.84203 | 63° | 37km/h | 1817m | -5.8m/s | 4.4°C | 95.8% | 823.6hPa | 2.7V | 07:34:58 | 02:27:19 | 00:00:00 | |
| DL1XH-west | 2026-09-02 09:02:11 | 52.51308 | 8.84190 | 61° | 37km/h | 1822m | -5.5m/s | 4.4°C | 94.9% | 823.1hPa | 2.7V | 07:34:58 | 02:27:18 | 00:00:00 | |
| DB0DAN | 2026-09-02 09:02:10 | 52.51303 | 8.84177 | 59° | 37km/h | 1828m | -5.4m/s | 4.4°C | 88.7% | 822.6hPa | 2.6V | 00:00:00 | 00:00:00 | 00:00:00 | |
| BIOWL1-15 | 2026-09-02 09:02:10 | 52.51303 | 8.84177 | 59° | 38km/h | 1828m | -5.4m/s | 4.4°C | 94.3% | 822.6hPa | 2.6V | 07:34:58 | 02:27:17 | 00:00:00 | |
| DJ2DS-15 | 2026-09-02 09:02:10 | 52.51303 | 8.84177 | 60° | 42km/h | 1828m | -5.4m/s | 4.4°C | 89.5% | 822.5hPa | 2.7V | 00:00:00 | 02:27:17 | 00:00:00 | |
| DL4XJ-10 | 2026-09-02 09:02:10 | 52.51303 | 8.84177 | 60° | 42km/h | 1828m | -5.4m/s | 3.7°C | 0% | 0hPa | 2.7V | 00:00:00 | 00:00:00 | 00:00:00 | |
| DL1XH1-15 | 2026-09-02 09:02:09 | 52.51281 | 8.84115 | 63° | 46km/h | 1849m | -5.5m/s | 4.2°C | 89.6% | 820.4hPa | 2.7V | 07:34:48 | 02:27:13 | 00:00:00 | |
| DL1XH-west | 2026-09-02 09:02:09 | 52.51298 | 8.84162 | 58° | 42km/h | 1833m | -5.4m/s | 4.4°C | 93.6% | 822hPa | 2.7V | 07:34:58 | 02:27:16 | 00:00:00 | |
| BIOWL1-15 | 2026-09-02 09:02:08 | 52.51292 | 8.84147 | 58° | 44km/h | 1839m | -5.6m/s | 4.3°C | 93.7% | 821.4hPa | 2.7V | 07:34:58 | 02:27:15 | 00:00:00 | |
| DL1XH-west | 2026-09-02 09:02:07 | 52.51286 | 8.84131 | 60° | 46km/h | 1844m | -5.3m/s | 4.3°C | 94% | 820.8hPa | 2.7V | 07:34:58 | 02:27:14 | 00:00:00 | |
| DL1XH-west | 2026-09-02 09:02:06 | 52.51281 | 8.84115 | 64° | 46km/h | 1850m | -5.5m/s | 4.2°C | 94.3% | 820.4hPa | 2.7V | 07:34:58 | 02:27:13 | 00:00:00 | |
| BIOWL1-15 | 2026-09-02 09:02:05 | 52.51276 | 8.84098 | 65° | 44km/h | 1855m | -5.6m/s | 4.2°C | 94.4% | 819.8hPa | 2.6V | 07:34:58 | 02:27:12 | 00:00:00 | |
| DL1XH-west | 2026-09-02 09:02:04 | 52.51271 | 8.84082 | 66° | 42km/h | 1860m | -5.7m/s | 4.1°C | 94.4% | 819.3hPa | 2.7V | 07:34:58 | 02:27:11 | 00:00:00 | |
| BIOWL1-15 | 2026-09-02 09:02:03 | 52.51267 | 8.84066 | 67° | 40km/h | 1866m | -5.9m/s | 4.1°C | 94.7% | 818.8hPa | 2.7V | 07:34:58 | 02:27:10 | 00:00:00 | |
| DL1XH-west | 2026-09-02 09:02:02 | 52.51263 | 8.84050 | 64° | 40km/h | 1872m | -5.7m/s | 4.1°C | 95.1% | 818hPa | 2.7V | 07:34:58 | 02:27:09 | 00:00:00 | |
| DL1XH-west | 2026-09-02 09:02:01 | 52.51258 | 8.84035 | 62° | 40km/h | 1878m | -5.9m/s | 4°C | 95.4% | 817.6hPa | 2.7V | 07:34:58 | 02:27:08 | 00:00:00 | |
| BIOWL1-15 | 2026-09-02 09:02:00 | 52.51254 | 8.84021 | 62° | 38km/h | 1884m | -5.8m/s | 3.9°C | 95.8% | 817hPa | 2.6V | 07:34:58 | 02:27:07 | 00:00:00 | |
| BIOWL1-15 | 2026-09-02 09:01:59 | 52.51249 | 8.84007 | 59° | 38km/h | 1889m | -5.5m/s | 3.9°C | 96.2% | 816.5hPa | 2.7V | 07:34:58 | 02:27:06 | 00:00:00 | |
| DD8BA-10 | 2026-09-02 09:01:58 | 52.51243 | 8.83993 | 57° | 42km/h | 1895m | -5.7m/s | 3.8°C | 92.5% | 815.8hPa | 2.7V | 00:00:00 | 00:00:00 | 00:00:00 | |
| DL1LOL-11 | 2026-09-02 09:01:57 | 52.51243 | 8.83993 | 58° | 38km/h | 1895m | -5.7m/s | 3.8°C | 91.7% | 815.8hPa | 2.7V | 00:00:00 | 00:00:00 | 00:00:00 | |
| DL1XH1-15 | 2026-09-02 09:01:57 | 52.51221 | 8.83937 | 55° | 42km/h | 1917m | -5.8m/s | 3.7°C | 92.1% | 813.6hPa | 2.7V | 07:35:00 | 02:27:01 | 00:00:00 | |
| BIOWL1-15 | 2026-09-02 09:01:57 | 52.51238 | 8.83980 | 58° | 38km/h | 1900m | -5.5m/s | 3.8°C | 96.6% | 815.3hPa | 2.7V | 07:34:58 | 02:27:04 | 00:00:00 | |
| DM0DOS-11 | 2026-09-02 09:01:56 | 52.51227 | 8.83951 | 58° | 42km/h | 1912m | -5.6m/s | 3.7°C | 92.4% | 814.1hPa | 2.7V | 07:34:59 | 02:27:02 | 00:00:00 | |
| DM0DOS-11 | 2026-09-02 09:01:56 | 52.51215 | 8.83922 | 54° | 42km/h | 1923m | -5.9m/s | 3.6°C | 92.6% | 812.9hPa | 2.7V | 07:35:01 | 02:27:00 | 00:00:00 | |
| DL1XH-west | 2026-09-02 09:01:56 | 52.51233 | 8.83966 | 57° | 42km/h | 1906m | -5.9m/s | 3.8°C | 96.8% | 814.7hPa | 2.7V | 07:34:58 | 02:27:03 | 00:00:00 | |
| DB0DAN | 2026-09-02 09:01:55 | 52.51227 | 8.83951 | 58° | 40km/h | 1912m | -5.6m/s | 3.7°C | 91.6% | 814.14hPa | 2.7V | 00:00:00 | 00:00:00 | 00:00:00 | |
| DL1XH-west | 2026-09-02 09:01:54 | 52.51221 | 8.83937 | 56° | 42km/h | 1917m | -5.8m/s | 3.7°C | 97% | 813.6hPa | 2.7V | 07:35:49 | 02:27:01 | 00:00:00 | |
| DL1XH-west | 2026-09-02 09:01:53 | 52.51216 | 8.83923 | 55° | 42km/h | 1923m | -5.9m/s | 3.6°C | 97.6% | 812.9hPa | 2.7V | 07:35:49 | 02:27:00 | 00:00:00 | |
| DL1XH-west | 2026-09-02 09:01:52 | 52.51209 | 8.83908 | 53° | 44km/h | 1929m | -5.7m/s | 3.6°C | 98.7% | 812.3hPa | 2.6V | 07:35:49 | 02:26:59 | 00:00:00 | |
| DL1XH1-15 | 2026-09-02 09:01:51 | 52.51196 | 8.83878 | 55° | 44km/h | 1941m | -6m/s | 3.5°C | 94.7% | 811.3hPa | 2.7V | 07:35:04 | 02:26:57 | 00:00:00 | |
| DL1XH1-15 | 2026-09-02 09:01:51 | 52.51182 | 8.83849 | 51° | 44km/h | 1952m | -5.6m/s | 3.4°C | 95.3% | 810.1hPa | 2.7V | 07:35:06 | 02:26:55 | 00:00:00 | |
| DL1XH1-15 | 2026-09-02 09:01:51 | 52.51168 | 8.83820 | 52° | 42km/h | 1964m | -5.7m/s | 3.4°C | 95.7% | 808.9hPa | 2.7V | 07:35:08 | 02:26:53 | 00:00:00 | |
| DL1XH-west | 2026-09-02 09:01:51 | 52.51202 | 8.83893 | 53° | 46km/h | 1935m | -6.1m/s | 3.5°C | 99.2% | 811.9hPa | 2.6V | 07:35:49 | 02:26:58 | 00:00:00 | |
| DM0DOS-11 | 2026-09-02 09:01:50 | 52.51189 | 8.83863 | 52° | 46km/h | 1947m | -5.6m/s | 3.5°C | 95.1% | 810.6hPa | 2.7V | 07:35:05 | 02:26:56 | 00:00:00 | |
| DM0DOS-11 | 2026-09-02 09:01:50 | 52.51162 | 8.83806 | 53° | 42km/h | 1969m | -5.7m/s | 3.3°C | 96% | 808.5hPa | 2.7V | 07:35:09 | 02:26:52 | 00:00:00 | |
| BIOWL1-15 | 2026-09-02 09:01:49 | 52.51189 | 8.83863 | 53° | 46km/h | 1947m | -5.6m/s | 3.5°C | 99.4% | 810.6hPa | 2.7V | 07:35:49 | 02:26:56 | 00:00:00 | |
| DL1XH-west | 2026-09-02 09:01:48 | 52.51182 | 8.83849 | 51° | 44km/h | 1953m | -5.6m/s | 3.4°C | 99.5% | 810.1hPa | 2.7V | 07:35:49 | 02:26:55 | 00:00:00 | |
| DL1XH-west | 2026-09-02 09:01:47 | 52.51175 | 8.83834 | 52° | 42km/h | 1958m | -5.5m/s | 3.4°C | 99.8% | 809.5hPa | 2.7V | 07:35:49 | 02:26:54 | 00:00:00 | |
| BIOWL1-15 | 2026-09-02 09:01:46 | 52.51169 | 8.83820 | 52° | 42km/h | 1964m | -5.7m/s | 3.4°C | 99.4% | 808.9hPa | 2.7V | 07:35:49 | 02:26:53 | 00:00:00 | |
| DL1XH1-15 | 2026-09-02 09:01:45 | 52.51156 | 8.83792 | 55° | 42km/h | 1975m | -5.5m/s | 3.3°C | 95.9% | 807.8hPa | 2.7V | 07:35:10 | 02:26:51 | 00:00:00 | |
| DL1XH1-15 | 2026-09-02 09:01:45 | 52.51136 | 8.83731 | 66° | 38km/h | 1996m | -5.5m/s | 3.1°C | 96.1% | 805.8hPa | 2.7V | 07:35:14 | 02:26:47 | 00:00:00 | |
| DL1XH-west | 2026-09-02 09:01:45 | 52.51162 | 8.83806 | 54° | 42km/h | 1969m | -5.7m/s | 3.3°C | 99.5% | 808.5hPa | 2.7V | 07:35:49 | 02:26:52 | 00:00:00 | |
| DJ2DS-15 | 2026-09-02 09:01:45 | 52.51162 | 8.83806 | 54° | 42km/h | 1969m | -5.6m/s | 3.3°C | 96.0% | 808.4hPa | 2.7V | 00:00:00 | 02:26:52 | 00:00:00 | |
| DM0DOS-11 | 2026-09-02 09:01:44 | 52.51150 | 8.83777 | 59° | 42km/h | 1980m | -5.2m/s | 3.2°C | 96.1% | 807.4hPa | 2.7V | 07:35:11 | 02:26:50 | 00:00:00 | |
| DM0DOS-11 | 2026-09-02 09:01:44 | 52.51132 | 8.83717 | 63° | 37km/h | 2002m | -6.1m/s | 3.1°C | 96.2% | 805hPa | 2.7V | 07:35:15 | 02:26:46 | 00:00:00 | |
| DO2JMG | 2026-09-02 09:01:44 | 52.51156 | 8.83792 | 56° | 42km/h | 1975m | -5.5m/s | 3.3°C | 99.3% | 807.8hPa | 2.7V | 07:35:49 | 02:26:51 | 00:00:00 | |
| DL1XH-west | 2026-09-02 09:01:43 | 52.51150 | 8.83777 | 59° | 42km/h | 1980m | -5.2m/s | 3.2°C | 99.5% | 807.4hPa | 2.7V | 07:35:49 | 02:26:50 | 00:00:00 | |
| DL1XH-west | 2026-09-02 09:01:42 | 52.51145 | 8.83762 | 65° | 42km/h | 1985m | -5.4m/s | 3.2°C | 99.9% | 806.7hPa | 2.6V | 07:35:49 | 02:26:49 | 00:00:00 | |
| DL1XH-west | 2026-09-02 09:01:41 | 52.51140 | 8.83746 | 64° | 42km/h | 1991m | -5.7m/s | 3.1°C | 100% | 806.4hPa | 2.6V | 07:35:49 | 02:26:48 | 00:00:00 | |
| DB0DAN | 2026-09-02 09:01:40 | 52.51136 | 8.83731 | 67° | 37km/h | 1996m | -5.5m/s | 3.1°C | 95.2% | 805.75hPa | 2.7V | 00:00:00 | 00:00:00 | 00:00:00 | |
| DL1XH-west | 2026-09-02 09:01:40 | 52.51136 | 8.83731 | 67° | 38km/h | 1996m | -5.5m/s | 3.1°C | 100% | 805.8hPa | 2.7V | 07:35:49 | 02:26:47 | 00:00:00 | |
| DO9LL-15 | 2026-09-02 09:01:40 | 52.51136 | 8.83731 | 67° | 42km/h | 1996m | -5.5m/s | 3.1°C | 96.1% | 805.7hPa | 2.7V | 00:00:00 | 02:26:47 | 00:00:00 | |
| DJ2DS-15 | 2026-09-02 09:01:40 | 52.51136 | 8.83731 | 67° | 40km/h | 1996m | -5.5m/s | 3.1°C | 96.1% | 805.7hPa | 2.7V | 00:00:00 | 02:26:47 | 00:00:00 | |
| DL4XJ-10 | 2026-09-02 09:01:40 | 52.51136 | 8.83731 | 67° | 40km/h | 1997m | -5.5m/s | 2.4°C | 0% | 0hPa | 2.7V | 00:00:00 | 00:00:00 | 00:00:00 | |
| DM0DOS-11 | 2026-09-02 09:01:39 | 52.51108 | 8.83645 | 60° | 44km/h | 2030m | -5.6m/s | 2.9°C | 95.4% | 802.3hPa | 2.7V | 07:35:20 | 02:26:41 | 00:00:00 | |
| DO2JMG | 2026-09-02 09:01:36 | 52.51119 | 8.83675 | 62° | 40km/h | 2019m | -5.5m/s | 3°C | 98.4% | 803.4hPa | 2.6V | 07:35:49 | 02:26:43 | 00:00:00 | |
| DL1XH1-15 | 2026-09-02 09:01:35 | 52.51114 | 8.83661 | 59° | 42km/h | 2025m | -5.3m/s | 3°C | 95.2% | 802.9hPa | 2.7V | 07:35:19 | 02:26:42 | 00:00:00 | |
| BIOWL1-15 | 2026-09-02 09:01:35 | 52.51114 | 8.83661 | 60° | 42km/h | 2025m | -5.3m/s | 3°C | 98.1% | 802.9hPa | 2.7V | 07:35:49 | 02:26:42 | 00:00:00 | |
| DM0DOS-11 | 2026-09-02 09:01:33 | 52.51083 | 8.83565 | 64° | 42km/h | 2060m | -5.6m/s | 2.7°C | 96.2% | 799.5hPa | 2.7V | 07:35:25 | 02:26:36 | 00:00:00 | |
| DL1XH-west | 2026-09-02 09:01:31 | 52.51093 | 8.83598 | 63° | 44km/h | 2048m | -5.8m/s | 2.7°C | 98.7% | 800.6hPa | 2.7V | 07:35:49 | 02:26:38 | 00:00:00 | |
| DL1XH1-15 | 2026-09-02 09:01:30 | 52.51064 | 8.83505 | 63° | 40km/h | 2082m | -6m/s | 2.5°C | 95.3% | 797.2hPa | 2.7V | 07:35:29 | 02:26:32 | 00:00:00 | |
| DL1LOL-11 | 2026-09-02 09:01:30 | 52.51088 | 8.83582 | 66° | 44km/h | 2054m | -5.8m/s | 2.7°C | 95.3% | 800.1hPa | 2.7V | 07:35:00 | 00:00:00 | 00:00:00 | |
| DL4XJ-10 | 2026-09-02 09:01:29 | 52.51083 | 8.83565 | 65° | 40km/h | 2061m | -5.5m/s | 2.0°C | 0% | 0hPa | 2.7V | 00:00:00 | 00:00:00 | 00:00:00 | |
| DD8BA-10 | 2026-09-02 09:01:28 | 52.51079 | 8.83550 | 66° | 40km/h | 2066m | -5.5m/s | 2.6°C | 96.4% | 798.8hPa | 2.7V | 00:00:00 | 00:00:00 | 00:00:00 | |
| DM0DOS-11 | 2026-09-02 09:01:27 | 52.51059 | 8.83490 | 62° | 42km/h | 2088m | -5.4m/s | 2.5°C | 93.9% | 796.7hPa | 2.7V | 07:35:30 | 02:26:31 | 00:00:00 | |
| DO2JMG | 2026-09-02 09:01:26 | 52.51069 | 8.83520 | 60° | 40km/h | 2077m | -5.6m/s | 2.5°C | 98.3% | 797.8hPa | 2.7V | 07:35:49 | 02:26:33 | 00:00:00 | |
| DB0DAN | 2026-09-02 09:01:25 | 52.51064 | 8.83505 | 63° | 38km/h | 2082m | -6m/s | 2.5°C | 94.4% | 797.25hPa | 2.7V | 00:00:00 | 00:00:00 | 00:00:00 | |
| BIOWL1-15 | 2026-09-02 09:01:25 | 52.51064 | 8.83505 | 63° | 40km/h | 2082m | -6m/s | 2.5°C | 97.7% | 797.2hPa | 2.7V | 07:35:49 | 02:26:32 | 00:00:00 | |
| DJ2DS-15 | 2026-09-02 09:01:24 | 52.51059 | 8.83490 | 63° | 38km/h | 2088m | -5.4m/s | 2.5°C | 93.9% | 796.6hPa | 2.7V | 07:35:00 | 02:26:31 | 00:00:00 | |
| DK9SH | 2026-09-02 09:01:23 | 52.51059 | 8.83490 | 63° | 42km/h | 2088m | -5.4m/s | 2.5°C | 93.0% | 796.7hPa | 2.7V | 07:35:00 | 00:00:00 | 00:00:00 | |
| DL1XH1-15 | 2026-09-02 09:01:20 | 52.51018 | 8.83360 | 66° | 40km/h | 2138m | -5.6m/s | 2.2°C | 88.8% | 791.9hPa | 2.7V | 07:35:39 | 02:26:22 | 00:00:00 | |
| DL1XH-west | 2026-09-02 09:01:20 | 52.51042 | 8.83433 | 62° | 37km/h | 2111m | -5.8m/s | 2.4°C | 95.3% | 794.5hPa | 2.7V | 07:35:49 | 02:26:27 | 00:00:00 | |
| BIOWL1-15 | 2026-09-02 09:01:16 | 52.51014 | 8.83346 | 68° | 38km/h | 2144m | -5.6m/s | 2.3°C | 88.6% | 791.2hPa | 2.7V | 07:35:49 | 02:26:21 | 00:00:00 | |
| DM0DOS-11 | 2026-09-02 09:01:15 | 52.51014 | 8.83346 | 67° | 38km/h | 2144m | -5.6m/s | 2.3°C | 85.8% | 791.2hPa | 2.7V | 07:35:40 | 02:26:21 | 00:00:00 | |
| DO2JMG | 2026-09-02 09:01:15 | 52.51018 | 8.83360 | 66° | 40km/h | 2138m | -5.6m/s | 2.2°C | 91.4% | 791.9hPa | 2.7V | 07:35:49 | 02:26:22 | 00:00:00 | |
| DL3AQ-11 | 2026-09-02 09:01:13 | 52.51010 | 8.83331 | 66° | 37km/h | 2149m | -5.8m/s | 2.3°C | 82.6% | 790.7hPa | 2.6V | 00:00:00 | 00:00:00 | 00:00:00 | |
| DL1CLM-18 | 2026-09-02 09:01:12 | 52.51010 | 8.83331 | 67° | 38km/h | 2149m | -5.8m/s | 2.3°C | 82.6% | 790.7hPa | 2.6V | 07:35:00 | 00:00:00 | 00:00:00 | |
| DB0DAN | 2026-09-02 09:01:10 | 52.50999 | 8.83288 | 66° | 37km/h | 2167m | -6m/s | 2.5°C | 75.2% | 789.05hPa | 2.6V | 00:00:00 | 00:00:00 | 00:00:00 | |
| DL1XH-west | 2026-09-02 09:01:10 | 52.50999 | 8.83288 | 66° | 38km/h | 2167m | -6m/s | 2.5°C | 80% | 789hPa | 2.6V | 07:35:49 | 02:26:17 | 00:00:00 | |
| DM0DOS-11 | 2026-09-02 09:01:09 | 52.50976 | 8.83205 | 63° | 33km/h | 2201m | -5.3m/s | 2.4°C | 70.8% | 785.7hPa | 2.7V | 07:35:50 | 02:26:11 | 00:00:00 | |
| BIOWL1-15 | 2026-09-02 09:01:07 | 52.50972 | 8.83193 | 62° | 35km/h | 2206m | -5.6m/s | 2.3°C | 73.8% | 785.1hPa | 2.7V | 07:36:40 | 02:26:10 | 00:00:00 | |
| DL4BBY-15 | 2026-09-02 09:01:06 | 52.50983 | 8.83231 | 67° | 29km/h | 2189m | -5.4m/s | 1.8°C | 0% | 0hPa | 2.7V | 00:00:00 | 00:00:00 | 00:00:00 | |
| DM0DOS-11 | 2026-09-02 09:01:04 | 52.50957 | 8.83141 | 71° | 33km/h | 2228m | -5.7m/s | 2.2°C | 69.7% | 783.2hPa | 2.7V | 07:35:55 | 02:26:06 | 00:00:00 | |
| DO2JMG | 2026-09-02 09:01:04 | 52.50976 | 8.83205 | 63° | 33km/h | 2201m | -5.3m/s | 2.4°C | 74.1% | 785.7hPa | 2.7V | 07:36:40 | 02:26:11 | 00:00:00 | |
| DL1XH-west | 2026-09-02 09:01:00 | 52.50960 | 8.83154 | 67° | 35km/h | 2222m | -5.8m/s | 2.2°C | 73.5% | 783.5hPa | 2.6V | 07:36:40 | 02:26:07 | 00:00:00 | |
| DM0DOS-11 | 2026-09-02 09:00:59 | 52.50942 | 8.83083 | 63° | 29km/h | 2257m | -5.8m/s | 2°C | 65.7% | 780.1hPa | 2.7V | 07:36:00 | 02:26:01 | 00:00:00 | |
| BUE01 | 2026-09-02 09:00:59 | 52.50957 | 8.83141 | 71° | 31km/h | 2228m | -5.7m/s | 2.2°C | 69.0% | 783.2hPa | 2.7V | 00:00:00 | 00:00:00 | 00:00:00 | |
| DL3AQ-11 | 2026-09-02 09:00:57 | 52.50951 | 8.83116 | 68° | 29km/h | 2239m | -5.9m/s | 2.1°C | 69.3% | 782.0hPa | 2.7V | 00:00:00 | 00:00:00 | 00:00:00 | |
| DL1CLM-18 | 2026-09-02 09:00:56 | 52.50951 | 8.83116 | 69° | 29km/h | 2239m | -5.9m/s | 2.1°C | 69.2% | 782.0hPa | 2.7V | 07:36:00 | 00:00:00 | 00:00:00 | |
| DB0DAN | 2026-09-02 09:00:55 | 52.50945 | 8.83094 | 68° | 27km/h | 2251m | -6m/s | 2°C | 67.8% | 780.88hPa | 2.7V | 00:00:00 | 00:00:00 | 00:00:00 | |
| DM0DOS-11 | 2026-09-02 09:00:54 | 52.50924 | 8.83031 | 54° | 29km/h | 2286m | -6.1m/s | 2°C | 58.1% | 777.4hPa | 2.7V | 07:36:05 | 02:25:56 | 00:00:00 | |
| DO2JMG | 2026-09-02 09:00:54 | 52.50942 | 8.83083 | 63° | 29km/h | 2257m | -5.8m/s | 2°C | 67.2% | 780.1hPa | 2.7V | 07:36:40 | 02:26:01 | 00:00:00 | |
| BIOWL1-15 | 2026-09-02 09:00:53 | 52.50939 | 8.83072 | 64° | 27km/h | 2263m | -6.1m/s | 2°C | 66.1% | 779.8hPa | 2.7V | 07:36:40 | 02:26:00 | 00:00:00 | |
| DL1XH-west | 2026-09-02 09:00:49 | 52.50924 | 8.83031 | 54° | 29km/h | 2286m | -6.1m/s | 2°C | 60.6% | 777.4hPa | 2.7V | 07:36:40 | 02:25:56 | 00:00:00 | |
| DL4XJ-10 | 2026-09-02 09:00:49 | 52.50924 | 8.83031 | 55° | 24km/h | 2286m | -6.1m/s | 1.3°C | 0% | 0hPa | 2.7V | 00:00:00 | 00:00:00 | 00:00:00 | |
| DD8BA-10 | 2026-09-02 09:00:48 | 52.50920 | 8.83021 | 57° | 24km/h | 2292m | -6.2m/s | 2.0°C | 55.7% | 776.8hPa | 2.7V | 00:00:00 | 00:00:00 | 00:00:00 | |
| DL1XH1-15 | 2026-09-02 09:00:45 | 52.50910 | 8.82994 | 61° | 22km/h | 2309m | -5.9m/s | 2.6°C | 43.7% | 775.3hPa | 2.7V | 07:36:09 | 02:25:52 | 00:00:00 | |
| DL3AQ-11 | 2026-09-02 09:00:45 | 52.50907 | 8.82986 | 63° | 20km/h | 2315m | -6.0m/s | 2.7°C | 38.5% | 774.7hPa | 2.7V | 00:00:00 | 00:00:00 | 00:00:00 | |
| DM0DOS-11 | 2026-09-02 09:00:44 | 52.50896 | 8.82931 | 78° | 24km/h | 2348m | -5.6m/s | 3.2°C | 19.2% | 771.5hPa | 2.7V | 07:36:16 | 02:25:45 | 00:00:00 | |
| DO2JMG | 2026-09-02 09:00:44 | 52.50907 | 8.82986 | 64° | 22km/h | 2315m | -6m/s | 2.7°C | 42.4% | 774.7hPa | 2.7V | 07:36:40 | 02:25:51 | 00:00:00 | |
| DJ2DS-15 | 2026-09-02 09:00:44 | 52.50907 | 8.82986 | 64° | 22km/h | 2315m | -5.9m/s | 2.6°C | 38.9% | 774.7hPa | 2.7V | 00:00:00 | 02:25:51 | 00:00:00 | |
| DK9SH | 2026-09-02 09:00:41 | 52.50903 | 8.82969 | 72° | 22km/h | 2327m | -5.4m/s | 2.9°C | 30.9% | 773.7hPa | 2.7V | 07:36:00 | 00:00:00 | 00:00:00 | |
| DB0DAN | 2026-09-02 09:00:40 | 52.50899 | 8.82951 | 71° | 24km/h | 2338m | -5.3m/s | 3.2°C | 21.6% | 772.66hPa | 2.7V | 00:00:00 | 00:00:00 | 00:00:00 | |
| DL1XH-west | 2026-09-02 09:00:39 | 52.50897 | 8.82941 | 72° | 26km/h | 2343m | -5.4m/s | 3.2°C | 22.5% | 772hPa | 2.7V | 07:36:40 | 02:25:46 | 00:00:00 | |
| DM0DOS-11 | 2026-09-02 09:00:38 | 52.50889 | 8.82880 | 81° | 26km/h | 2377m | -5.8m/s | 3.3°C | 17.4% | 768.9hPa | 2.7V | 07:36:21 | 02:25:40 | 00:00:00 | |
| DD8BA-10 | 2026-09-02 09:00:38 | 52.50895 | 8.82931 | 79° | 24km/h | 2348m | -5.5m/s | 3.2°C | 19.2% | 771.5hPa | 2.6V | 00:00:00 | 00:00:00 | 00:00:00 | |
| DL1XH1-15 | 2026-09-02 09:00:35 | 52.50891 | 8.82901 | 76° | 26km/h | 2366m | -5.8m/s | 3.2°C | 18.1% | 769.8hPa | 2.6V | 07:36:19 | 02:25:42 | 00:00:00 | |
| DL1XH1-15 | 2026-09-02 09:00:35 | 52.50885 | 8.82852 | 66° | 20km/h | 2394m | -5.4m/s | 3.3°C | 18.4% | 767.2hPa | 2.7V | 07:36:24 | 02:25:37 | 00:00:00 | |
| DO2JMG | 2026-09-02 09:00:34 | 52.50890 | 8.82891 | 79° | 27km/h | 2371m | -5.8m/s | 3.2°C | 19.3% | 769.3hPa | 2.6V | 07:36:40 | 02:25:41 | 00:00:00 | |
| DL3AQ-11 | 2026-09-02 09:00:34 | 52.50889 | 8.82880 | 81° | 26km/h | 2377m | -5.8m/s | 3.3°C | 17.3% | 768.9hPa | 2.7V | 00:00:00 | 00:00:00 | 00:00:00 | |
| DM0DOS-11 | 2026-09-02 09:00:33 | 52.50882 | 8.82838 | 64° | 16km/h | 2405m | -6m/s | 3.4°C | 18.8% | 766.1hPa | 2.7V | 07:36:26 | 02:25:35 | 00:00:00 | |
| BIOWL1-15 | 2026-09-02 09:00:32 | 52.50888 | 8.82870 | 79° | 24km/h | 2383m | -5.7m/s | 3.3°C | 20% | 768.2hPa | 2.7V | 07:36:40 | 02:25:39 | 00:00:00 | |
| DL1XH-west | 2026-09-02 09:00:28 | 52.50882 | 8.82838 | 65° | 16km/h | 2405m | -6m/s | 3.4°C | 21.5% | 766.1hPa | 2.7V | 07:36:40 | 02:25:35 | 00:00:00 | |
| BUE01 | 2026-09-02 09:00:28 | 52.50880 | 8.82832 | 66° | 15km/h | 2412m | -6.2m/s | 3.6°C | 19.3% | 765.6hPa | 2.6V | 00:00:00 | 00:00:00 | 00:00:00 | |
| DL1XH1-15 | 2026-09-02 09:00:25 | 52.50878 | 8.82820 | 72° | 15km/h | 2423m | -5.5m/s | 3.6°C | 19.8% | 764.4hPa | 2.6V | 07:36:29 | 02:25:32 | 00:00:00 | |
| DL1XH1-15 | 2026-09-02 09:00:25 | 52.50872 | 8.82786 | 80° | 22km/h | 2451m | -5.3m/s | 3.5°C | 22% | 761.8hPa | 2.7V | 07:36:34 | 02:25:27 | 00:00:00 | |
| DO2JMG | 2026-09-02 09:00:24 | 52.50877 | 8.82814 | 80° | 15km/h | 2429m | -5.8m/s | 3.6°C | 23.3% | 764hPa | 2.7V | 07:36:40 | 02:25:31 | 00:00:00 | |
| BIOWL1-15 | 2026-09-02 09:00:23 | 52.50873 | 8.82794 | 72° | 20km/h | 2445m | -5.1m/s | 3.5°C | 25.1% | 762.4hPa | 2.7V | 07:36:40 | 02:25:28 | 00:00:00 | |
| DL1XH-west | 2026-09-02 09:00:18 | 52.50870 | 8.82766 | 81° | 24km/h | 2462m | -6m/s | 3.4°C | 25.7% | 760.8hPa | 2.6V | 07:36:40 | 02:25:25 | 00:00:00 | |
| DD8BA-10 | 2026-09-02 09:00:18 | 52.50870 | 8.82766 | 82° | 20km/h | 2462m | -6.0m/s | 3.4°C | 22.3% | 760.7hPa | 2.6V | 00:00:00 | 00:00:00 | 00:00:00 | |
| DL3AQ-11 | 2026-09-02 09:00:17 | 52.50869 | 8.82757 | 82° | 20km/h | 2468m | -5.7m/s | 3.4°C | 23.1% | 760.2hPa | 2.7V | 00:00:00 | 00:00:00 | 00:00:00 | |
| DL1XH1-15 | 2026-09-02 09:00:15 | 52.50867 | 8.82740 | 75° | 18km/h | 2480m | -5.7m/s | 3.3°C | 24.8% | 759.1hPa | 2.7V | 07:36:39 | 02:25:22 | 00:00:00 | |
| DL1XH1-15 | 2026-09-02 09:00:15 | 52.50863 | 8.82702 | 78° | 16km/h | 2508m | -5.5m/s | 3.1°C | 31.5% | 756.6hPa | 2.7V | 07:36:44 | 02:25:17 | 00:00:00 | |
| DO2JMG | 2026-09-02 09:00:13 | 52.50865 | 8.82725 | 72° | 20km/h | 2491m | -5.5m/s | 3.3°C | 31.5% | 758.1hPa | 2.7V | 07:37:31 | 02:25:20 | 00:00:00 | |
| BIOWL1-15 | 2026-09-02 09:00:11 | 52.50864 | 8.82709 | 83° | 18km/h | 2502m | -5.7m/s | 3.2°C | 36% | 757.1hPa | 2.7V | 07:37:31 | 02:25:18 | 00:00:00 | |
| DL1XH1-15 | 2026-09-02 09:00:10 | 52.50859 | 8.82663 | 80° | 18km/h | 2536m | -6.1m/s | 2.9°C | 33.9% | 753.9hPa | 2.7V | 07:36:49 | 02:25:12 | 00:00:00 | |
| DB0DAN | 2026-09-02 09:00:10 | 52.50863 | 8.82702 | 79° | 16km/h | 2508m | -5.5m/s | 3.2°C | 31.2% | 756.57hPa | 2.7V | 00:00:00 | 00:00:00 | 00:00:00 | |
| DL4XJ-10 | 2026-09-02 09:00:09 | 52.50862 | 8.82695 | 80° | 20km/h | 2514m | -5.5m/s | 2.4°C | 0% | 0hPa | 2.7V | 00:00:00 | 00:00:00 | 00:00:00 | |
| DM0DOS-11 | 2026-09-02 09:00:08 | 52.50857 | 8.82648 | 69° | 18km/h | 2548m | -6m/s | 2.9°C | 36.3% | 752.8hPa | 2.7V | 07:36:51 | 02:25:10 | 00:00:00 | |
| DL1XH-west | 2026-09-02 09:00:07 | 52.50860 | 8.82679 | 80° | 20km/h | 2525m | -5.3m/s | 3°C | 37.2% | 755hPa | 2.7V | 07:37:31 | 02:25:14 | 00:00:00 | |
| DL4BBY-15 | 2026-09-02 09:00:06 | 52.50860 | 8.82671 | 87° | 22km/h | 2531m | -5.6m/s | 2.3°C | 0% | 0hPa | 2.6V | 00:00:00 | 00:00:00 | 00:00:00 | |
| DL1XH1-15 | 2026-09-02 09:00:05 | 52.50853 | 8.82624 | 80° | 20km/h | 2566m | -5.8m/s | 2.9°C | 41.8% | 751.2hPa | 2.6V | 07:36:54 | 02:25:07 | 00:00:00 | |
| DL3AQ-11 | 2026-09-02 09:00:05 | 52.50858 | 8.82656 | 74° | 18km/h | 2542m | -5.7m/s | 2.9°C | 34.4% | 753.2hPa | 2.7V | 00:00:00 | 00:00:00 | 00:00:00 | |
| DJ2DS-15 | 2026-09-02 09:00:04 | 52.50858 | 8.82656 | 75° | 20km/h | 2542m | -5.7m/s | 2.8°C | 34.7% | 753.2hPa | 2.7V | 00:00:00 | 02:25:11 | 00:00:00 | |
| DM0DOS-11 | 2026-09-02 09:00:02 | 52.50851 | 8.82608 | 81° | 18km/h | 2577m | -6m/s | 2.8°C | 42.6% | 750hPa | 2.7V | 07:36:56 | 02:25:05 | 00:00:00 | |
| DO2JMG | 2026-09-02 09:00:02 | 52.50855 | 8.82640 | 71° | 22km/h | 2554m | -5.8m/s | 2.9°C | 43.4% | 752.2hPa | 2.7V | 07:37:31 | 02:25:09 | 00:00:00 | |
| GOEST3-10 | 2026-09-02 09:00:02 | 52.50855 | 8.82640 | 72° | 22km/h | 2554m | -5.7m/s | 2.8°C | 38.4% | 752.2hPa | 2.7V | 00:00:00 | 02:25:09 | 00:00:00 | |
| DL1XH1-15 | 2026-09-02 09:00:00 | 52.50848 | 8.82583 | 87° | 22km/h | 2595m | -5.8m/s | 2.8°C | 42.1% | 748.4hPa | 2.7V | 07:36:59 | 02:25:02 | 00:00:00 | |
| BIOWL1-15 | 2026-09-02 09:00:00 | 52.50852 | 8.82624 | 81° | 20km/h | 2566m | -5.8m/s | 2.9°C | 47% | 751.3hPa | 2.6V | 07:37:31 | 02:25:07 | 00:00:00 | |
| DL1XH-west | 2026-09-02 08:59:57 | 52.50850 | 8.82600 | 79° | 20km/h | 2583m | -5.9m/s | 2.8°C | 48.2% | 749.5hPa | 2.7V | 07:37:31 | 02:25:04 | 00:00:00 | |
| BUE01 | 2026-09-02 08:59:57 | 52.50849 | 8.82592 | 78° | 20km/h | 2589m | -6.1m/s | 2.9°C | 42.3% | 749.0hPa | 2.7V | 00:00:00 | 00:00:00 | 00:00:00 | |
| DB0DAN | 2026-09-02 08:59:55 | 52.50848 | 8.82583 | 87° | 20km/h | 2595m | -5.9m/s | 2.8°C | 41.7% | 748.39hPa | 2.7V | 00:00:00 | 00:00:00 | 00:00:00 | |
| DM0DOS-11 | 2026-09-02 08:59:54 | 52.50847 | 8.82566 | 86° | 20km/h | 2607m | -5.9m/s | 2.8°C | 42% | 747.3hPa | 2.6V | 07:37:01 | 02:25:00 | 00:00:00 | |
| DO2JMG | 2026-09-02 08:59:52 | 52.50846 | 8.82558 | 79° | 22km/h | 2613m | -5.6m/s | 2.8°C | 47.3% | 746.7hPa | 2.6V | 07:37:31 | 02:24:59 | 00:00:00 | |
| DL1XH1-15 | 2026-09-02 08:59:50 | 52.50845 | 8.82540 | 85° | 22km/h | 2625m | -6m/s | 2.7°C | 42.7% | 745.6hPa | 2.7V | 07:37:04 | 02:24:57 | 00:00:00 | |
| BIOWL1-15 | 2026-09-02 08:59:50 | 52.50845 | 8.82540 | 86° | 22km/h | 2625m | -6m/s | 2.7°C | 48.1% | 745.6hPa | 2.7V | 07:37:31 | 02:24:57 | 00:00:00 | |
| DM0DOS-11 | 2026-09-02 08:59:48 | 52.50843 | 8.82522 | 81° | 20km/h | 2637m | -5.7m/s | 2.7°C | 42.2% | 744.5hPa | 2.7V | 07:37:06 | 02:24:55 | 00:00:00 | |
| DM0DOS-11 | 2026-09-02 08:59:48 | 52.50838 | 8.82476 | 72° | 22km/h | 2666m | -6m/s | 2.6°C | 42.8% | 741.8hPa | 2.7V | 07:37:11 | 02:24:50 | 00:00:00 | |
| DL1XH-west | 2026-09-02 08:59:46 | 52.50842 | 8.82503 | 83° | 24km/h | 2648m | -6.2m/s | 2.6°C | 46.4% | 743.5hPa | 2.7V | 07:37:31 | 02:24:53 | 00:00:00 | |
| DJ2DS-15 | 2026-09-02 08:59:44 | 52.50840 | 8.82484 | 76° | 26km/h | 2660m | -5.9m/s | 2.5°C | 42.8% | 742.4hPa | 2.7V | 00:00:00 | 02:24:51 | 00:00:00 | |
| DM0DOS-11 | 2026-09-02 08:59:43 | 52.50830 | 8.82427 | 71° | 24km/h | 2697m | -5.9m/s | 2.5°C | 43.4% | 739hPa | 2.7V | 07:37:16 | 02:24:45 | 00:00:00 | |
| BIOWL1-15 | 2026-09-02 08:59:42 | 52.50834 | 8.82447 | 74° | 24km/h | 2685m | -5.8m/s | 2.5°C | 48.9% | 740.1hPa | 2.7V | 07:37:31 | 02:24:47 | 00:00:00 | |
| DO2JMG | 2026-09-02 08:59:41 | 52.50835 | 8.82457 | 75° | 26km/h | 2679m | -5.9m/s | 2.5°C | 48.5% | 740.7hPa | 2.7V | 07:37:31 | 02:24:48 | 00:00:00 | |
| DL1XH1-15 | 2026-09-02 08:59:40 | 52.50834 | 8.82447 | 73° | 24km/h | 2685m | -5.8m/s | 2.5°C | 43.1% | 740.1hPa | 2.7V | 07:37:14 | 02:24:47 | 00:00:00 | |
| DL1XH1-15 | 2026-09-02 08:59:40 | 52.50826 | 8.82398 | 75° | 24km/h | 2715m | -5.9m/s | 2.3°C | 43.5% | 737.3hPa | 2.7V | 07:37:19 | 02:24:42 | 00:00:00 | |
| DB0DAN | 2026-09-02 08:59:40 | 52.50834 | 8.82447 | 73° | 24km/h | 2685m | -5.8m/s | 2.5°C | 42.7% | 740.12hPa | 2.7V | 00:00:00 | 00:00:00 | 00:00:00 | |
| DK9SH | 2026-09-02 08:59:39 | 52.50834 | 8.82447 | 74° | 24km/h | 2685m | -5.8m/s | 2.5°C | 42.7% | 740.1hPa | 2.7V | 07:37:00 | 00:00:00 | 00:00:00 | |
| DM0DOS-11 | 2026-09-02 08:59:38 | 52.50822 | 8.82378 | 70° | 26km/h | 2727m | -5.6m/s | 2.3°C | 43.5% | 736.3hPa | 2.7V | 07:37:21 | 02:24:40 | 00:00:00 | |
| DL1XH-west | 2026-09-02 08:59:36 | 52.50827 | 8.82408 | 76° | 24km/h | 2709m | -6m/s | 2.4°C | 49.2% | 738hPa | 2.6V | 07:37:31 | 02:24:43 | 00:00:00 | |
| DL4BBY-15 | 2026-09-02 08:59:36 | 52.50827 | 8.82408 | 76° | 27km/h | 2709m | -5.9m/s | 1.7°C | 0% | 0hPa | 2.7V | 00:00:00 | 00:00:00 | 00:00:00 | |
| DL1XH1-15 | 2026-09-02 08:59:35 | 52.50816 | 8.82345 | 70° | 27km/h | 2745m | -5.9m/s | 2.2°C | 43% | 734.6hPa | 2.7V | 07:37:24 | 02:24:37 | 00:00:00 | |
| DM0DOS-11 | 2026-09-02 08:59:33 | 52.50811 | 8.82322 | 70° | 29km/h | 2757m | -6m/s | 2.2°C | 44.5% | 733.6hPa | 2.6V | 07:37:26 | 02:24:35 | 00:00:00 | |
| DO2JMG | 2026-09-02 08:59:31 | 52.50818 | 8.82356 | 73° | 27km/h | 2739m | -5.9m/s | 2.2°C | 48.1% | 735.2hPa | 2.7V | 07:37:31 | 02:24:38 | 00:00:00 | |
| BIOWL1-15 | 2026-09-02 08:59:31 | 52.50813 | 8.82334 | 69° | 29km/h | 2751m | -5.8m/s | 2.2°C | 50.3% | 734.1hPa | 2.6V | 07:37:31 | 02:24:36 | 00:00:00 | |
| DL1XH1-15 | 2026-09-02 08:59:30 | 52.50806 | 8.82287 | 79° | 27km/h | 2774m | -5.8m/s | 2°C | 44.9% | 732hPa | 2.7V | 07:37:29 | 02:24:32 | 00:00:00 | |
| DL4XJ-10 | 2026-09-02 08:59:29 | 52.50813 | 8.82334 | 70° | 29km/h | 2751m | -5.8m/s | 1.5°C | 0% | 0hPa | 2.7V | 00:00:00 | 00:00:00 | 00:00:00 | |
| DL1XH-15 | 2026-09-02 08:59:27 | 52.50809 | 8.82310 | 79° | 29km/h | 2763m | -6m/s | 2.1°C | 44.7% | 733hPa | 2.7V | 07:37:27 | 02:24:34 | 00:00:00 | |
| DL1XH-15 | 2026-09-02 08:59:27 | 52.50800 | 8.82254 | 74° | 27km/h | 2793m | -6m/s | 1.9°C | 45.5% | 730.2hPa | 2.7V | 07:37:32 | 02:24:29 | 00:00:00 | |
| DB0DAN | 2026-09-02 08:59:25 | 52.50806 | 8.82287 | 80° | 26km/h | 2775m | -5.8m/s | 2°C | 44.4% | 731.96hPa | 2.7V | 00:00:00 | 00:00:00 | 00:00:00 | |
| DL1XH-west | 2026-09-02 08:59:25 | 52.50806 | 8.82287 | 80° | 27km/h | 2775m | -5.8m/s | 2°C | 50.9% | 732hPa | 2.7V | 07:37:31 | 02:24:32 | 00:00:00 | |
| DJ2DS-15 | 2026-09-02 08:59:24 | 52.50804 | 8.82276 | 74° | 29km/h | 2780m | -6.1m/s | 1.9°C | 45.1% | 731.3hPa | 2.7V | 00:00:00 | 02:24:31 | 00:00:00 | |
| DM0DOS-11 | 2026-09-02 08:59:23 | 52.50794 | 8.82210 | 77° | 29km/h | 2817m | -5.8m/s | 1.7°C | 45.4% | 728hPa | 2.7V | 07:37:36 | 02:24:25 | 00:00:00 | |
| DL1XH-15 | 2026-09-02 08:59:22 | 52.50792 | 8.82198 | 81° | 29km/h | 2822m | -5.9m/s | 1.7°C | 45% | 727.5hPa | 2.7V | 07:37:37 | 02:24:24 | 00:00:00 | |
| DO2JMG | 2026-09-02 08:59:21 | 52.50799 | 8.82243 | 75° | 27km/h | 2799m | -6m/s | 1.8°C | 51.8% | 729.7hPa | 2.6V | 07:38:22 | 02:24:28 | 00:00:00 | |
| DL1XH1-15 | 2026-09-02 08:59:20 | 52.50791 | 8.82174 | 84° | 27km/h | 2835m | -6.7m/s | 1.6°C | 44.9% | 726.4hPa | 2.7V | 07:37:39 | 02:24:22 | 00:00:00 | |
| BIOWL1-15 | 2026-09-02 08:59:20 | 52.50794 | 8.82210 | 77° | 29km/h | 2817m | -5.8m/s | 1.7°C | 51.4% | 728hPa | 2.7V | 07:38:22 | 02:24:25 | 00:00:00 | |
| DL1XH-west | 2026-09-02 08:59:15 | 52.50791 | 8.82174 | 84° | 27km/h | 2835m | -6.7m/s | 1.6°C | 50.8% | 726.4hPa | 2.7V | 07:38:22 | 02:24:22 | 00:00:00 | |
| DL1LOL-11 | 2026-09-02 08:59:14 | 52.50791 | 8.82174 | 85° | 27km/h | 2835m | -6.7m/s | 1.6°C | 44.4% | 726.4hPa | 2.6V | 07:38:00 | 00:00:00 | 00:00:00 | |
| DM0DOS-11 | 2026-09-02 08:59:13 | 52.50786 | 8.82092 | 81° | 29km/h | 2876m | -5.6m/s | 1.3°C | 41.1% | 722.7hPa | 2.6V | 07:37:46 | 02:24:15 | 00:00:00 | |
| DB0DAN | 2026-09-02 08:59:10 | 52.50788 | 8.82115 | 86° | 27km/h | 2865m | -6m/s | 1.4°C | 41.9% | 723.8hPa | 2.7V | 00:00:00 | 00:00:00 | 00:00:00 | |
| DO2JMG | 2026-09-02 08:59:10 | 52.50788 | 8.82115 | 86° | 29km/h | 2865m | -6m/s | 1.4°C | 48.3% | 723.8hPa | 2.7V | 07:38:22 | 02:24:17 | 00:00:00 | |
| BIOWL1-15 | 2026-09-02 08:59:09 | 52.50785 | 8.82080 | 82° | 29km/h | 2882m | -5.7m/s | 1.3°C | 46.5% | 722.2hPa | 2.7V | 07:38:22 | 02:24:14 | 00:00:00 | |
| DO9LL-15 | 2026-09-02 08:59:09 | 52.50787 | 8.82104 | 83° | 31km/h | 2870m | -5.6m/s | 1.3°C | 41.9% | 723.2hPa | 2.7V | 00:00:00 | 02:24:16 | 00:00:00 | |
| DD8BA-10 | 2026-09-02 08:59:08 | 52.50786 | 8.82092 | 82° | 31km/h | 2876m | -5.6m/s | 1.3°C | 41.1% | 722.7hPa | 2.7V | 00:00:00 | 00:00:00 | 00:00:00 | |
| DL4BBY-15 | 2026-09-02 08:59:06 | 52.50784 | 8.82067 | 85° | 33km/h | 2888m | -5.9m/s | 0.6°C | 0% | 0hPa | 2.7V | 00:00:00 | 00:00:00 | 00:00:00 | |
| DL1XH1-15 | 2026-09-02 08:59:05 | 52.50778 | 8.81991 | 83° | 31km/h | 2923m | -5.9m/s | 0.9°C | 41.5% | 718.4hPa | 2.7V | 07:37:54 | 02:24:07 | 00:00:00 | |
| DL1XH-west | 2026-09-02 08:59:04 | 52.50782 | 8.82042 | 83° | 31km/h | 2900m | -5.6m/s | 1.1°C | 45.6% | 720.6hPa | 2.7V | 07:38:22 | 02:24:11 | 00:00:00 | |
| DJ2DS-15 | 2026-09-02 08:59:04 | 52.50782 | 8.82042 | 84° | 31km/h | 2900m | -5.6m/s | 1.1°C | 39.9% | 720.5hPa | 2.7V | 00:00:00 | 02:24:11 | 00:00:00 | |
| DM0DOS-11 | 2026-09-02 08:59:03 | 52.50775 | 8.81965 | 80° | 33km/h | 2936m | -5.9m/s | 0.8°C | 44.9% | 717.4hPa | 2.7V | 07:37:56 | 02:24:05 | 00:00:00 | |
| DO2JMG | 2026-09-02 08:59:00 | 52.50778 | 8.81991 | 84° | 31km/h | 2923m | -5.9m/s | 0.9°C | 47.5% | 718.4hPa | 2.7V | 07:38:22 | 02:24:07 | 00:00:00 | |
| BIOWL1-15 | 2026-09-02 08:58:57 | 52.50774 | 8.81952 | 80° | 33km/h | 2941m | -5.9m/s | 0.8°C | 51.6% | 716.8hPa | 2.7V | 07:38:22 | 02:24:04 | 00:00:00 | |
| BIOWL9-15 | 2026-09-02 08:58:57 | 52.50773 | 8.81939 | 83° | 31km/h | 2947m | -5.9m/s | 0.7°C | 46.9% | 716.4hPa | 2.7V | 00:00:00 | 00:00:00 | 00:00:00 | |
| DB0DAN | 2026-09-02 08:58:55 | 52.50772 | 8.81926 | 85° | 29km/h | 2953m | -5.6m/s | 0.7°C | 48.1% | 715.86hPa | 2.7V | 00:00:00 | 00:00:00 | 00:00:00 | |
| DL1XH1-15 | 2026-09-02 08:58:55 | 52.50766 | 8.81861 | 82° | 31km/h | 2983m | -6.2m/s | 0.5°C | 50.1% | 713.1hPa | 2.7V | 07:38:04 | 02:23:57 | 00:00:00 | |
| DL1XH-west | 2026-09-02 08:58:54 | 52.50771 | 8.81914 | 78° | 31km/h | 2959m | -6m/s | 0.7°C | 56.2% | 715.2hPa | 2.6V | 07:38:22 | 02:24:01 | 00:00:00 | |
| DM0DOS-11 | 2026-09-02 08:58:53 | 52.50769 | 8.81901 | 79° | 33km/h | 2965m | -6.1m/s | 0.6°C | 50.7% | 714.6hPa | 2.6V | 07:38:01 | 02:24:00 | 00:00:00 | |
| DM0DOS-11 | 2026-09-02 08:58:53 | 52.50764 | 8.81836 | 79° | 31km/h | 2995m | -5.7m/s | 0.4°C | 49.8% | 711.9hPa | 2.7V | 07:38:06 | 02:23:55 | 00:00:00 | |
| DO2JMG | 2026-09-02 08:58:49 | 52.50765 | 8.81848 | 81° | 31km/h | 2989m | -6.1m/s | 0.4°C | 56.4% | 712.6hPa | 2.7V | 07:38:22 | 02:23:56 | 00:00:00 | |
| DL4XJ-10 | 2026-09-02 08:58:49 | 52.50765 | 8.81849 | 81° | 33km/h | 2989m | -6.1m/s | -0.1°C | 0% | 0hPa | 2.7V | 00:00:00 | 00:00:00 | 00:00:00 | |
| DM0DOS-11 | 2026-09-02 08:58:48 | 52.50759 | 8.81767 | 87° | 37km/h | 3025m | -5.7m/s | 0.2°C | 45.5% | 709.3hPa | 2.7V | 07:38:11 | 02:23:50 | 00:00:00 | |
| BIOWL1-15 | 2026-09-02 08:58:47 | 52.50763 | 8.81822 | 84° | 33km/h | 3001m | -6.1m/s | 0.4°C | 53.7% | 711.5hPa | 2.6V | 07:38:22 | 02:23:54 | 00:00:00 | |
| DL3AQ-11 | 2026-09-02 08:58:45 | 52.50760 | 8.81781 | 82° | 33km/h | 3019m | -5.9m/s | 0.2°C | 45.8% | 709.8hPa | 2.7V | 00:00:00 | 00:00:00 | 00:00:00 | |
| DL1XH-west | 2026-09-02 08:58:43 | 52.50759 | 8.81767 | 88° | 37km/h | 3025m | -5.7m/s | 0.2°C | 51.4% | 709.4hPa | 2.7V | 07:38:22 | 02:23:50 | 00:00:00 | |
| DB0DAN | 2026-09-02 08:58:40 | 52.50758 | 8.81723 | 86° | 33km/h | 3043m | -5.8m/s | 0.1°C | 44.7% | 707.79hPa | 2.7V | 00:00:00 | 00:00:00 | 00:00:00 | |
| DL1XH1-15 | 2026-09-02 08:58:40 | 52.50758 | 8.81723 | 85° | 35km/h | 3043m | -5.8m/s | 0.1°C | 45.3% | 707.8hPa | 2.7V | 07:38:14 | 02:23:47 | 00:00:00 | |
| DL1XH1-15 | 2026-09-02 08:58:40 | 52.50755 | 8.81655 | 87° | 31km/h | 3071m | -6.1m/s | -0.2°C | 45.9% | 705.2hPa | 2.7V | 07:38:19 | 02:23:42 | 00:00:00 | |
| BIOWL1-15 | 2026-09-02 08:58:40 | 52.50755 | 8.81668 | 89° | 33km/h | 3066m | -5.6m/s | -0.2°C | 51.8% | 705.7hPa | 2.7V | 07:38:22 | 02:23:43 | 00:00:00 | |
| DO2JMG | 2026-09-02 08:58:39 | 52.50757 | 8.81710 | 83° | 33km/h | 3049m | -5.6m/s | 0°C | 51.5% | 707.3hPa | 2.6V | 07:38:22 | 02:23:46 | 00:00:00 | |
| DM0DOS-11 | 2026-09-02 08:58:38 | 52.50754 | 8.81629 | 84° | 35km/h | 3083m | -5.8m/s | -0.3°C | 46.2% | 704.1hPa | 2.7V | 07:38:21 | 02:23:40 | 00:00:00 | |
| DL1XH-west | 2026-09-02 08:58:33 | 52.50754 | 8.81628 | 84° | 35km/h | 3083m | -5.8m/s | -0.3°C | 52.2% | 704.1hPa | 2.7V | 07:38:22 | 02:23:40 | 00:00:00 | |
| DL1XH-15 | 2026-09-02 08:58:30 | 52.50753 | 8.81585 | 87° | 33km/h | 3101m | -5.7m/s | -0.5°C | 47% | 702.6hPa | 2.7V | 07:38:24 | 02:23:37 | 00:00:00 | |
| DO2JMG | 2026-09-02 08:58:29 | 52.50753 | 8.81571 | 88° | 35km/h | 3106m | -5.5m/s | -0.5°C | 53.5% | 702.1hPa | 2.7V | 07:39:13 | 02:23:36 | 00:00:00 | |
| BIOWL1-15 | 2026-09-02 08:58:25 | 52.50754 | 8.81463 | 91° | 33km/h | 3153m | -5.6m/s | -1°C | 55.8% | 698.1hPa | 2.7V | 07:39:13 | 02:23:28 | 00:00:00 | |
| DB0DAN | 2026-09-02 08:58:25 | 52.50754 | 8.81516 | 91° | 29km/h | 3130m | -5.5m/s | -0.7°C | 47.7% | 700.16hPa | 2.6V | 00:00:00 | 00:00:00 | 00:00:00 | |
| DL1XH1-15 | 2026-09-02 08:58:25 | 52.50754 | 8.81516 | 90° | 31km/h | 3130m | -5.5m/s | -0.7°C | 48.3% | 700.1hPa | 2.6V | 07:38:29 | 02:23:32 | 00:00:00 | |
| BUE01 | 2026-09-02 08:58:24 | 52.50754 | 8.81490 | 87° | 31km/h | 3141m | -5.8m/s | -0.9°C | 48.0% | 699.1hPa | 2.7V | 00:00:00 | 00:00:00 | 00:00:00 | |
| DM0DOS-11 | 2026-09-02 08:58:23 | 52.50754 | 8.81424 | 89° | 31km/h | 3170m | -6.4m/s | -1.1°C | 50.7% | 696.4hPa | 2.7V | 07:38:36 | 02:23:25 | 00:00:00 | |
| DL1XH-west | 2026-09-02 08:58:22 | 52.50754 | 8.81476 | 88° | 33km/h | 3147m | -5.8m/s | -0.9°C | 54.7% | 698.6hPa | 2.7V | 07:39:13 | 02:23:29 | 00:00:00 | |
| DL1XH-15 | 2026-09-02 08:58:20 | 52.50754 | 8.81449 | 91° | 31km/h | 3158m | -6m/s | -1°C | 50.1% | 697.6hPa | 2.7V | 07:38:34 | 02:23:27 | 00:00:00 | |
| DO2JMG | 2026-09-02 08:58:18 | 52.50754 | 8.81424 | 90° | 31km/h | 3170m | -6.4m/s | -1.1°C | 56.8% | 696.4hPa | 2.7V | 07:39:13 | 02:23:25 | 00:00:00 | |
| DL3AQ-11 | 2026-09-02 08:58:18 | 52.50754 | 8.81410 | 91° | 31km/h | 3177m | -6.1m/s | -1.2°C | 50.3% | 696.0hPa | 2.7V | 00:00:00 | 00:00:00 | 00:00:00 | |
| DJ2DS-15 | 2026-09-02 08:58:17 | 52.50754 | 8.81410 | 91° | 31km/h | 3177m | -6.1m/s | -1.2°C | 50.3% | 696.0hPa | 2.7V | 00:00:00 | 00:00:00 | 00:00:00 | |
| DL1XH1-15 | 2026-09-02 08:58:15 | 52.50755 | 8.81384 | 93° | 33km/h | 3189m | -6.2m/s | -1.3°C | 52.2% | 694.9hPa | 2.7V | 07:38:39 | 02:23:22 | 00:00:00 | |
| DL1XH1-15 | 2026-09-02 08:58:15 | 52.50757 | 8.81314 | 93° | 33km/h | 3221m | -6.3m/s | -1.5°C | 55.1% | 692.2hPa | 2.6V | 07:38:44 | 02:23:17 | 00:00:00 | |
| BIOWL1-15 | 2026-09-02 08:58:15 | 52.50757 | 8.81314 | 93° | 33km/h | 3221m | -6.3m/s | -1.5°C | 60.8% | 692.2hPa | 2.6V | 07:39:13 | 02:23:17 | 00:00:00 | |
| DL1XH-15 | 2026-09-02 08:58:14 | 52.50758 | 8.81300 | 90° | 31km/h | 3227m | -6.1m/s | -1.6°C | 55% | 691.7hPa | 2.6V | 07:38:45 | 02:23:16 | 00:00:00 | |
| DL1XH-west | 2026-09-02 08:58:12 | 52.50756 | 8.81342 | 92° | 33km/h | 3208m | -6.2m/s | -1.4°C | 60.3% | 693.3hPa | 2.7V | 07:39:13 | 02:23:19 | 00:00:00 | |
| DB0DAN | 2026-09-02 08:58:10 | 52.50757 | 8.81314 | 93° | 31km/h | 3221m | -6.3m/s | -1.5°C | 54.3% | 692.17hPa | 2.6V | 00:00:00 | 00:00:00 | 00:00:00 | |
| DL1XH1-15 | 2026-09-02 08:58:10 | 52.50759 | 8.81248 | 91° | 31km/h | 3252m | -6.2m/s | -1.6°C | 56.8% | 689.5hPa | 2.7V | 07:38:49 | 02:23:12 | 00:00:00 | |
| DL1XH-15 | 2026-09-02 08:58:09 | 52.50759 | 8.81235 | 91° | 31km/h | 3258m | -6.3m/s | -1.7°C | 56.8% | 689hPa | 2.7V | 07:38:50 | 02:23:11 | 00:00:00 | |
| DO2JMG | 2026-09-02 08:58:07 | 52.50758 | 8.81274 | 91° | 31km/h | 3239m | -6.3m/s | -1.7°C | 61.2% | 690.5hPa | 2.7V | 07:39:13 | 02:23:14 | 00:00:00 | |
| DL4BBY-15 | 2026-09-02 08:58:06 | 52.50758 | 8.81261 | 94° | 33km/h | 3245m | -6.2m/s | -2.2°C | 0% | 0hPa | 2.7V | 00:00:00 | 00:00:00 | 00:00:00 | |
| DL1XH1-15 | 2026-09-02 08:58:05 | 52.50760 | 8.81183 | 89° | 31km/h | 3282m | -6.1m/s | -1.9°C | 57.4% | 686.9hPa | 2.7V | 07:38:54 | 02:23:07 | 00:00:00 | |
| DL3AQ-11 | 2026-09-02 08:58:05 | 52.50759 | 8.81235 | 91° | 29km/h | 3258m | -6.3m/s | -1.7°C | 56.1% | 689.0hPa | 2.7V | 00:00:00 | 00:00:00 | 00:00:00 | |
| DL1XH-15 | 2026-09-02 08:58:04 | 52.50760 | 8.81170 | 90° | 33km/h | 3289m | -6.3m/s | -1.9°C | 57.5% | 686.4hPa | 2.7V | 07:38:55 | 02:23:06 | 00:00:00 | |
| DJ2DS-15 | 2026-09-02 08:58:04 | 52.50759 | 8.81235 | 92° | 31km/h | 3258m | -6.3m/s | -1.6°C | 56.8% | 688.9hPa | 2.7V | 00:00:00 | 02:23:11 | 00:00:00 | |
| DM0DOS-11 | 2026-09-02 08:58:03 | 52.50760 | 8.81156 | 92° | 33km/h | 3295m | -6.2m/s | -2°C | 57.7% | 685.8hPa | 2.7V | 07:38:56 | 02:23:05 | 00:00:00 | |
| BIOWL1-15 | 2026-09-02 08:58:03 | 52.50759 | 8.81222 | 91° | 31km/h | 3264m | -6.2m/s | -1.7°C | 62.9% | 688.4hPa | 2.6V | 07:39:13 | 02:23:10 | 00:00:00 | |
| DL1XH-west | 2026-09-02 08:58:01 | 52.50760 | 8.81196 | 95° | 31km/h | 3276m | -6m/s | -1.8°C | 63.3% | 687.4hPa | 2.7V | 07:39:13 | 02:23:08 | 00:00:00 | |
| DL1XH1-15 | 2026-09-02 08:58:00 | 52.50761 | 8.81115 | 91° | 31km/h | 3314m | -6.2m/s | -2.2°C | 58.1% | 684.2hPa | 2.6V | 07:38:59 | 02:23:02 | 00:00:00 | |
| DO2JMG | 2026-09-02 08:57:57 | 52.50761 | 8.81142 | 91° | 33km/h | 3301m | -6.1m/s | -2.1°C | 64% | 685.2hPa | 2.7V | 07:39:13 | 02:23:04 | 00:00:00 | |
| GOEST3-10 | 2026-09-02 08:57:57 | 52.50760 | 8.81142 | 92° | 33km/h | 3301m | -6.1m/s | -2.0°C | 58.1% | 685.2hPa | 2.6V | 00:00:00 | 00:00:00 | 00:00:00 | |
| BIOWL7-15 | 2026-09-02 08:57:56 | 52.50760 | 8.81142 | 92° | 33km/h | 3301m | -6.1m/s | -2.1°C | 57.3% | 685.2hPa | 2.6V | 00:00:00 | 00:00:00 | 00:00:00 | |
| DB0DAN | 2026-09-02 08:57:55 | 52.50761 | 8.81115 | 92° | 31km/h | 3314m | -6.2m/s | -2.2°C | 57.3% | 684.26hPa | 2.6V | 00:00:00 | 00:00:00 | 00:00:00 | |
| DL1XH1-15 | 2026-09-02 08:57:55 | 52.50763 | 8.81050 | 94° | 31km/h | 3345m | -6.2m/s | -2.5°C | 59% | 681.5hPa | 2.7V | 07:39:04 | 02:22:57 | 00:00:00 | |
| BIOWL1-15 | 2026-09-02 08:57:54 | 52.50762 | 8.81076 | 93° | 33km/h | 3333m | -6.3m/s | -2.3°C | 64.4% | 682.5hPa | 2.7V | 07:39:13 | 02:22:59 | 00:00:00 | |
| DL3AQ-11 | 2026-09-02 08:57:54 | 52.50762 | 8.81089 | 90° | 31km/h | 3326m | -6.4m/s | -2.3°C | 57.7% | 683.2hPa | 2.6V | 00:00:00 | 00:00:00 | 00:00:00 | |
| DM0DOS-11 | 2026-09-02 08:57:53 | 52.50764 | 8.81025 | 94° | 31km/h | 3358m | -6.3m/s | -2.5°C | 59.2% | 680.4hPa | 2.6V | 07:39:06 | 02:22:55 | 00:00:00 | |
| DL1XH-west | 2026-09-02 08:57:50 | 52.50763 | 8.81050 | 95° | 31km/h | 3345m | -6.2m/s | -2.5°C | 64.7% | 681.5hPa | 2.7V | 07:39:13 | 02:22:57 | 00:00:00 | |
| DO2JMG | 2026-09-02 08:57:47 | 52.50765 | 8.81012 | 95° | 31km/h | 3364m | -6.4m/s | -2.6°C | 65% | 679.9hPa | 2.7V | 07:39:13 | 02:22:54 | 00:00:00 | |
| DL1CLM-18 | 2026-09-02 08:57:46 | 52.50765 | 8.81012 | 96° | 31km/h | 3364m | -6.4m/s | -2.6°C | 58.6% | 679.9hPa | 2.7V | 07:39:00 | 00:00:00 | 00:00:00 | |
| DM0DOS-11 | 2026-09-02 08:57:45 | 52.50769 | 8.80959 | 95° | 33km/h | 3389m | -6m/s | -2.8°C | 59.9% | 677.6hPa | 2.7V | 07:39:11 | 02:22:50 | 00:00:00 | |
| DL1XH1-15 | 2026-09-02 08:57:45 | 52.50767 | 8.80986 | 95° | 33km/h | 3377m | -6.1m/s | -2.7°C | 59.8% | 678.9hPa | 2.7V | 07:39:09 | 02:22:52 | 00:00:00 | |
| DL1XH1-15 | 2026-09-02 08:57:45 | 52.50771 | 8.80917 | 95° | 33km/h | 3408m | -6m/s | -3°C | 59.9% | 676.1hPa | 2.7V | 07:39:14 | 02:22:47 | 00:00:00 | |
| DJ2DS-15 | 2026-09-02 08:57:44 | 52.50768 | 8.80972 | 96° | 35km/h | 3383m | -6.3m/s | -2.7°C | 59.8% | 678.3hPa | 2.7V | 00:00:00 | 02:22:51 | 00:00:00 | |
| DL1XH-15 | 2026-09-02 08:57:42 | 52.50774 | 8.80876 | 97° | 31km/h | 3427m | -6m/s | -3.1°C | 60.2% | 674.5hPa | 2.7V | 07:39:17 | 02:22:44 | 00:00:00 | |
| BIOWL1-15 | 2026-09-02 08:57:41 | 52.50774 | 8.80876 | 98° | 31km/h | 3427m | -6m/s | -3.2°C | 65.4% | 674.5hPa | 2.7V | 07:40:04 | 02:22:44 | 00:00:00 | |
| DB0DAN | 2026-09-02 08:57:40 | 52.50771 | 8.80917 | 95° | 31km/h | 3408m | -6m/s | -3°C | 59.1% | 676.09hPa | 2.7V | 00:00:00 | 00:00:00 | 00:00:00 | |
| DL1XH-west | 2026-09-02 08:57:40 | 52.50771 | 8.80917 | 95° | 33km/h | 3408m | -6m/s | -3°C | 65.2% | 676.1hPa | 2.7V | 07:40:04 | 02:22:47 | 00:00:00 | |
| DM0DOS-11 | 2026-09-02 08:57:39 | 52.50773 | 8.80890 | 96° | 33km/h | 3420m | -6.5m/s | -3.1°C | 60% | 675hPa | 2.7V | 07:39:16 | 02:22:45 | 00:00:00 | |
| DL3AQ-11 | 2026-09-02 08:57:38 | 52.50774 | 8.80876 | 97° | 31km/h | 3426m | -6.0m/s | -3.2°C | 59.4% | 674.5hPa | 2.7V | 00:00:00 | 00:00:00 | 00:00:00 | |
| DL1XH-15 | 2026-09-02 08:57:37 | 52.50778 | 8.80809 | 95° | 35km/h | 3458m | -6.3m/s | -3.4°C | 59.1% | 671.9hPa | 2.7V | 07:39:22 | 02:22:39 | 00:00:00 | |
| DO2JMG | 2026-09-02 08:57:36 | 52.50775 | 8.80863 | 94° | 31km/h | 3432m | -6.2m/s | -3.2°C | 65.2% | 674hPa | 2.7V | 07:40:04 | 02:22:43 | 00:00:00 | |
| DL4BBY-15 | 2026-09-02 08:57:36 | 52.50775 | 8.80863 | 95° | 35km/h | 3432m | -6.2m/s | -3.8°C | 0% | 0hPa | 2.7V | 00:00:00 | 00:00:00 | 00:00:00 | |
| DL1XH1-15 | 2026-09-02 08:57:35 | 52.50780 | 8.80780 | 97° | 37km/h | 3470m | -6.2m/s | -3.5°C | 58.8% | 670.8hPa | 2.7V | 07:39:24 | 02:22:37 | 00:00:00 | |
| DM0DOS-11 | 2026-09-02 08:57:34 | 52.50777 | 8.80823 | 98° | 33km/h | 3452m | -6.5m/s | -3.3°C | 59.1% | 672.4hPa | 2.7V | 07:39:21 | 02:22:40 | 00:00:00 | |
| DM0DOS-11 | 2026-09-02 08:57:34 | 52.50783 | 8.80750 | 98° | 38km/h | 3483m | -6.5m/s | -3.6°C | 58.6% | 669.8hPa | 2.6V | 07:39:26 | 02:22:35 | 00:00:00 | |
| DL1XH-15 | 2026-09-02 08:57:32 | 52.50784 | 8.80734 | 99° | 37km/h | 3490m | -6.4m/s | -3.6°C | 58.7% | 669.2hPa | 2.6V | 07:39:27 | 02:22:34 | 00:00:00 | |
| BIOWL1-15 | 2026-09-02 08:57:31 | 52.50779 | 8.80794 | 99° | 37km/h | 3464m | -6.2m/s | -3.5°C | 64.5% | 671.3hPa | 2.7V | 07:40:04 | 02:22:38 | 00:00:00 | |
| DL1XH1-15 | 2026-09-02 08:57:30 | 52.50788 | 8.80704 | 101° | 37km/h | 3502m | -6.4m/s | -3.7°C | 57.6% | 668.1hPa | 2.7V | 07:39:29 | 02:22:32 | 00:00:00 | |
| DL1XH-west | 2026-09-02 08:57:30 | 52.50780 | 8.80780 | 97° | 37km/h | 3470m | -6.2m/s | -3.5°C | 63.9% | 670.8hPa | 2.7V | 07:40:04 | 02:22:37 | 00:00:00 | |
| DL4XJ-10 | 2026-09-02 08:57:29 | 52.50781 | 8.80764 | 100° | 37km/h | 3477m | -6.4m/s | -4.1°C | 0% | 0hPa | 2.7V | 00:00:00 | 00:00:00 | 00:00:00 | |
| DM0DOS-11 | 2026-09-02 08:57:28 | 52.50792 | 8.80675 | 102° | 37km/h | 3515m | -6.1m/s | -3.8°C | 56.6% | 667.1hPa | 2.7V | 07:39:31 | 02:22:30 | 00:00:00 | |
| DO2JMG | 2026-09-02 08:57:26 | 52.50786 | 8.80720 | 103° | 37km/h | 3496m | -6m/s | -3.7°C | 63.1% | 668.6hPa | 2.7V | 07:40:04 | 02:22:33 | 00:00:00 | |
| DB0DAN | 2026-09-02 08:57:25 | 52.50788 | 8.80705 | 101° | 35km/h | 3502m | -6.4m/s | -3.7°C | 56.8% | 668.14hPa | 2.7V | 00:00:00 | 00:00:00 | 00:00:00 | |
| DJ2DS-15 | 2026-09-02 08:57:24 | 52.50790 | 8.80690 | 101° | 35km/h | 3509m | -5.9m/s | -3.7°C | 57.2% | 667.6hPa | 2.7V | 00:00:00 | 02:22:31 | 00:00:00 | |
| DM0DOS-11 | 2026-09-02 08:57:23 | 52.50802 | 8.80604 | 102° | 35km/h | 3546m | -6.1m/s | -3.9°C | 63.6% | 664.4hPa | 2.7V | 07:39:36 | 02:22:25 | 00:00:00 | |
| DL1XH-15 | 2026-09-02 08:57:22 | 52.50804 | 8.80589 | 102° | 37km/h | 3552m | -6.1m/s | -3.8°C | 64.7% | 663.9hPa | 2.7V | 07:39:37 | 02:22:24 | 00:00:00 | |
| BUE01 | 2026-09-02 08:57:21 | 52.50795 | 8.80646 | 104° | 35km/h | 3527m | -6.0m/s | -3.8°C | 58.1% | 666.1hPa | 2.7V | 00:00:00 | 00:00:00 | 00:00:00 | |
| DL1XH1-15 | 2026-09-02 08:57:20 | 52.50808 | 8.80561 | 101° | 35km/h | 3564m | -6.2m/s | -3.8°C | 65.6% | 662.9hPa | 2.7V | 07:39:39 | 02:22:22 | 00:00:00 | |
| BIOWL1-15 | 2026-09-02 08:57:20 | 52.50797 | 8.80632 | 102° | 37km/h | 3533m | -6.4m/s | -3.8°C | 66.8% | 665.4hPa | 2.6V | 07:40:04 | 02:22:27 | 00:00:00 | |
| DL1XH-west | 2026-09-02 08:57:19 | 52.50800 | 8.80618 | 105° | 35km/h | 3540m | -6.1m/s | -3.9°C | 67.1% | 665hPa | 2.7V | 07:40:04 | 02:22:26 | 00:00:00 | |
| DB0UT-7 | 2026-09-02 08:57:19 | 52.50799 | 8.80618 | 106° | 33km/h | 3540m | -6.1m/s | -3.8°C | 61.8% | 664.9hPa | 2.7V | 00:00:00 | 00:00:00 | 00:00:00 | |
| DD8BA-10 | 2026-09-02 08:57:18 | 52.50802 | 8.80603 | 103° | 35km/h | 3546m | -6.1m/s | -3.8°C | 63.6% | 664.4hPa | 2.7V | 07:39:00 | 00:00:00 | 00:00:00 | |
| DL1XH-15 | 2026-09-02 08:57:17 | 52.50814 | 8.80518 | 106° | 37km/h | 3584m | -6.3m/s | -3.9°C | 67.8% | 661.3hPa | 2.7V | 07:39:42 | 02:22:19 | 00:00:00 | |
| DL1XH1-15 | 2026-09-02 08:57:15 | 52.50819 | 8.80490 | 107° | 35km/h | 3596m | -6.5m/s | -4°C | 66.8% | 660.2hPa | 2.7V | 07:39:44 | 02:22:17 | 00:00:00 | |
| DO2JMG | 2026-09-02 08:57:15 | 52.50808 | 8.80561 | 102° | 35km/h | 3564m | -6.2m/s | -3.8°C | 71.3% | 662.9hPa | 2.7V | 07:40:04 | 02:22:22 | 00:00:00 | |
| GOEST3-10 | 2026-09-02 08:57:15 | 52.50808 | 8.80561 | 102° | 35km/h | 3565m | -6.2m/s | -3.8°C | 65.6% | 662.8hPa | 2.7V | 00:00:00 | 00:00:00 | 00:00:00 | |
| DM0DOS-11 | 2026-09-02 08:57:13 | 52.50827 | 8.80451 | 110° | 33km/h | 3616m | -6.2m/s | -4.1°C | 66.5% | 658.6hPa | 2.6V | 07:39:47 | 02:22:14 | 00:00:00 | |
| DL1XH-15 | 2026-09-02 08:57:12 | 52.50827 | 8.80451 | 110° | 33km/h | 3616m | -6.2m/s | -4.1°C | 66.5% | 658.6hPa | 2.6V | 07:39:47 | 02:22:14 | 00:00:00 | |
| DB0DAN | 2026-09-02 08:57:10 | 52.50819 | 8.80490 | 108° | 33km/h | 3596m | -6.5m/s | -4°C | 65.8% | 660.17hPa | 2.7V | 00:00:00 | 00:00:00 | 00:00:00 | |
| BIOWL1-15 | 2026-09-02 08:57:09 | 52.50829 | 8.80438 | 107° | 31km/h | 3622m | -6.3m/s | -4.2°C | 71.6% | 658.1hPa | 2.6V | 07:40:04 | 02:22:13 | 00:00:00 | |
| DL1XH-west | 2026-09-02 08:57:08 | 52.50824 | 8.80464 | 106° | 33km/h | 3609m | -6.4m/s | -4.1°C | 71.7% | 659.1hPa | 2.7V | 07:40:04 | 02:22:15 | 00:00:00 | |
| DM0DOS-11 | 2026-09-02 08:57:08 | 52.50839 | 8.80387 | 113° | 33km/h | 3647m | -6.2m/s | -4.4°C | 67.5% | 656hPa | 2.7V | 07:39:52 | 02:22:09 | 00:00:00 | |
| DL1LOL-11 | 2026-09-02 08:57:06 | 52.50827 | 8.80451 | 111° | 33km/h | 3616m | -6.2m/s | -4.1°C | 65.5% | 658.6hPa | 2.7V | 07:40:00 | 00:00:00 | 00:00:00 | |
| DL1XH1-15 | 2026-09-02 08:57:05 | 52.50832 | 8.80426 | 105° | 31km/h | 3628m | -6.3m/s | -4.2°C | 66.8% | 657.5hPa | 2.7V | 07:39:49 | 02:22:12 | 00:00:00 | |
| DL1XH1-15 | 2026-09-02 08:57:05 | 52.50845 | 8.80363 | 111° | 33km/h | 3660m | -6.4m/s | -4.6°C | 68.1% | 654.8hPa | 2.6V | 07:39:54 | 02:22:07 | 00:00:00 | |
| DO2JMG | 2026-09-02 08:57:04 | 52.50834 | 8.80413 | 105° | 31km/h | 3634m | -6m/s | -4.3°C | 71.8% | 656.9hPa | 2.7V | 07:40:04 | 02:22:11 | 00:00:00 | |
| DJ2DS-15 | 2026-09-02 08:57:04 | 52.50834 | 8.80413 | 106° | 31km/h | 3634m | -6.0m/s | -4.3°C | 67.0% | 656.9hPa | 2.7V | 00:00:00 | 02:22:11 | 00:00:00 | |
| DL1XH-15 | 2026-09-02 08:57:02 | 52.50855 | 8.80325 | 112° | 33km/h | 3679m | -6.2m/s | -4.7°C | 68.5% | 653.2hPa | 2.7V | 07:39:57 | 02:22:04 | 00:00:00 | |
| DL1XH-west | 2026-09-02 08:56:57 | 52.50855 | 8.80325 | 113° | 33km/h | 3679m | -6.2m/s | -4.7°C | 73.2% | 653.2hPa | 2.7V | 07:40:04 | 02:22:04 | 00:00:00 | |
| DL1XH1-15 | 2026-09-02 08:56:55 | 52.50862 | 8.80300 | 114° | 31km/h | 3691m | -6.4m/s | -4.9°C | 69.1% | 652.2hPa | 2.7V | 07:39:59 | 02:22:02 | 00:00:00 | |
| DL1XH1-15 | 2026-09-02 08:56:55 | 52.50879 | 8.80241 | 112° | 29km/h | 3723m | -6.6m/s | -5.1°C | 71.1% | 649.5hPa | 2.7V | 07:40:04 | 02:21:57 | 00:00:00 | |
| DB0DAN | 2026-09-02 08:56:55 | 52.50862 | 8.80300 | 115° | 31km/h | 3691m | -6.4m/s | -4.9°C | 68% | 652.21hPa | 2.7V | 00:00:00 | 00:00:00 | 00:00:00 | |
| DO2JMG | 2026-09-02 08:56:53 | 52.50869 | 8.80276 | 114° | 31km/h | 3704m | -6.5m/s | -5°C | 73.8% | 651.1hPa | 2.6V | 07:40:04 | 02:22:00 | 00:00:00 | |
| DM0DOS-11 | 2026-09-02 08:56:52 | 52.50888 | 8.80208 | 116° | 29km/h | 3742m | -6.5m/s | -5.2°C | 75.6% | 647.9hPa | 2.6V | 07:40:07 | 02:21:54 | 00:00:00 | |
| BIOWL7-15 | 2026-09-02 08:56:51 | 52.50872 | 8.80264 | 113° | 31km/h | 3711m | -6.5m/s | -5.0°C | 69.2% | 650.7hPa | 2.7V | 00:00:00 | 00:00:00 | 00:00:00 | |
| DL1XH1-15 | 2026-09-02 08:56:50 | 52.50895 | 8.80186 | 114° | 29km/h | 3755m | -6.4m/s | -5.2°C | 75.4% | 646.9hPa | 2.7V | 07:40:09 | 02:21:52 | 00:00:00 | |
| DL1XH-west | 2026-09-02 08:56:47 | 52.50889 | 8.80208 | 117° | 29km/h | 3742m | -6.5m/s | -5.2°C | 79.4% | 647.9hPa | 2.6V | 07:40:55 | 02:21:54 | 00:00:00 | |
| DL3AQ-11 | 2026-09-02 08:56:45 | 52.50898 | 8.80175 | 117° | 29km/h | 3762m | -6.3m/s | -5.2°C | 74.4% | 646.4hPa | 2.7V | 00:00:00 | 00:00:00 | 00:00:00 | |
| DO2JMG | 2026-09-02 08:56:43 | 52.50901 | 8.80164 | 114° | 27km/h | 3768m | -6.3m/s | -5.2°C | 80% | 645.8hPa | 2.7V | 07:40:55 | 02:21:50 | 00:00:00 | |
| GOEST3-10 | 2026-09-02 08:56:43 | 52.50901 | 8.80164 | 115° | 29km/h | 3768m | -6.3m/s | -5.2°C | 75.6% | 645.7hPa | 2.7V | 00:00:00 | 00:00:00 | 00:00:00 | |
| DL8OAI-8 | 2026-09-02 08:56:41 | 52.50904 | 8.80153 | 115° | 29km/h | 3775m | -6.5m/s | -5.2°C | 75.3% | 645.3hPa | 2.6V | 00:00:00 | 00:00:00 | 00:00:00 | |
| DB0DAN | 2026-09-02 08:56:40 | 52.50911 | 8.80131 | 118° | 27km/h | 3788m | -6.1m/s | -5.2°C | 76.3% | 644.25hPa | 2.6V | 00:00:00 | 00:00:00 | 00:00:00 | |
| DL1XH1-15 | 2026-09-02 08:56:40 | 52.50911 | 8.80131 | 117° | 29km/h | 3788m | -6.1m/s | -5.2°C | 77.5% | 644.2hPa | 2.6V | 07:40:14 | 02:21:47 | 00:00:00 | |
| DL1XH1-15 | 2026-09-02 08:56:40 | 52.50924 | 8.80076 | 109° | 29km/h | 3819m | -6.6m/s | -5.3°C | 76.6% | 641.6hPa | 2.7V | 07:40:19 | 02:21:42 | 00:00:00 | |
| DL1LOL-11 | 2026-09-02 08:56:39 | 52.50911 | 8.80131 | 119° | 29km/h | 3788m | -6.1m/s | -5.2°C | 76.3% | 644.3hPa | 2.7V | 00:00:00 | 00:00:00 | 00:00:00 | |
| DD8BA-10 | 2026-09-02 08:56:38 | 52.50916 | 8.80109 | 110° | 29km/h | 3800m | -6.4m/s | -5.2°C | 77.2% | 643.1hPa | 2.7V | 00:00:00 | 00:00:00 | 00:00:00 | |
| DL1XH-15 | 2026-09-02 08:56:37 | 52.50930 | 8.80042 | 105° | 27km/h | 3838m | -6.1m/s | -5.5°C | 76.8% | 640.1hPa | 2.7V | 07:40:22 | 02:21:39 | 00:00:00 | |
| DL1XH-west | 2026-09-02 08:56:36 | 52.50921 | 8.80087 | 109° | 27km/h | 3813m | -6m/s | -5.3°C | 81.4% | 642.1hPa | 2.7V | 07:40:55 | 02:21:43 | 00:00:00 | |
| DL4BBY-15 | 2026-09-02 08:56:36 | 52.50921 | 8.80086 | 109° | 29km/h | 3813m | -5.9m/s | -5.8°C | 0% | 0hPa | 2.7V | 00:00:00 | 00:00:00 | 00:00:00 | |
| DL1XH1-15 | 2026-09-02 08:56:35 | 52.50934 | 8.80019 | 105° | 29km/h | 3851m | -6.2m/s | -5.5°C | 77.4% | 639hPa | 2.7V | 07:40:24 | 02:21:37 | 00:00:00 | |
| DO2JMG | 2026-09-02 08:56:32 | 52.50930 | 8.80042 | 106° | 27km/h | 3838m | -6.1m/s | -5.5°C | 81.7% | 640.1hPa | 2.7V | 07:40:55 | 02:21:39 | 00:00:00 | |
| BIOWL7-15 | 2026-09-02 08:56:31 | 52.50930 | 8.80042 | 107° | 27km/h | 3838m | -6.1m/s | -5.5°C | 75.6% | 640.1hPa | 2.7V | 00:00:00 | 00:00:00 | 00:00:00 | |
| DD1CC3-15 | 2026-09-02 08:56:30 | 52.50932 | 8.80031 | 107° | 29km/h | 3844m | -6.5m/s | -5.5°C | 75.8% | 639.6hPa | 2.7V | 07:40:00 | 00:00:00 | 00:00:00 | |
| DL4XJ-10 | 2026-09-02 08:56:29 | 52.50936 | 8.80008 | 110° | 29km/h | 3857m | -6.3m/s | -6.1°C | 0% | 0hPa | 2.7V | 00:00:00 | 00:00:00 | 00:00:00 | |
| DD8BA-10 | 2026-09-02 08:56:28 | 52.50939 | 8.79995 | 111° | 29km/h | 3863m | -6.4m/s | -5.6°C | 78.0% | 637.9hPa | 2.7V | 00:00:00 | 00:00:00 | 00:00:00 | |
| DL1XH-15 | 2026-09-02 08:56:27 | 52.50951 | 8.79925 | 103° | 29km/h | 3902m | -6.5m/s | -5.9°C | 77.2% | 635hPa | 2.7V | 07:40:32 | 02:21:29 | 00:00:00 | |
| BIOWL1-15 | 2026-09-02 08:56:26 | 52.50943 | 8.79972 | 105° | 29km/h | 3876m | -6.5m/s | -5.7°C | 82.5% | 637hPa | 2.7V | 07:40:55 | 02:21:33 | 00:00:00 | |
| DB0DAN | 2026-09-02 08:56:25 | 52.50945 | 8.79960 | 109° | 29km/h | 3883m | -6.4m/s | -5.8°C | 76.7% | 636.4hPa | 2.7V | 00:00:00 | 00:00:00 | 00:00:00 | |
| DL1XH1-15 | 2026-09-02 08:56:25 | 52.50945 | 8.79960 | 109° | 29km/h | 3883m | -6.4m/s | -5.8°C | 78% | 636.4hPa | 2.7V | 07:40:29 | 02:21:32 | 00:00:00 | |
| DJ2DS-15 | 2026-09-02 08:56:24 | 52.50947 | 8.79949 | 105° | 29km/h | 3889m | -6.2m/s | -5.7°C | 77.5% | 635.9hPa | 2.7V | 00:00:00 | 02:21:31 | 00:00:00 | |
| DD1CC8 | 2026-09-02 08:56:23 | 52.50949 | 8.79937 | 102° | 27km/h | 3895m | -6.5m/s | -5.8°C | 76.0% | 635.5hPa | 2.7V | 00:00:00 | 00:00:00 | 00:00:00 | |
| DM0DOS-11 | 2026-09-02 08:56:21 | 52.50959 | 8.79868 | 102° | 29km/h | 3934m | -6.5m/s | -6.1°C | 76.9% | 632.3hPa | 2.7V | 07:40:37 | 02:21:24 | 00:00:00 | |
| DO2JMG | 2026-09-02 08:56:21 | 52.50953 | 8.79914 | 106° | 29km/h | 3908m | -6.2m/s | -5.9°C | 81.5% | 634.4hPa | 2.6V | 07:40:55 | 02:21:28 | 00:00:00 | |
| DL8OAI-8 | 2026-09-02 08:56:20 | 52.50953 | 8.79914 | 107° | 29km/h | 3908m | -6.2m/s | -5.9°C | 75.8% | 634.4hPa | 2.7V | 00:00:00 | 00:00:00 | 00:00:00 | |
| DB0UT-7 | 2026-09-02 08:56:19 | 52.50956 | 8.79891 | 104° | 29km/h | 3921m | -6.5m/s | -5.9°C | 76.8% | 633.3hPa | 2.7V | 00:00:00 | 00:00:00 | 00:00:00 | |
| DD8BA-10 | 2026-09-02 08:56:18 | 52.50958 | 8.79880 | 102° | 29km/h | 3927m | -6.3m/s | -6.0°C | 76.8% | 632.8hPa | 2.7V | 00:00:00 | 00:00:00 | 00:00:00 | |
| DL3AQ-11 | 2026-09-02 08:56:17 | 52.50960 | 8.79868 | 102° | 29km/h | 3934m | -6.5m/s | -6.1°C | 75.6% | 632.3hPa | 2.6V | 00:00:00 | 00:00:00 | 00:00:00 | |
| DL1XH1-15 | 2026-09-02 08:56:15 | 52.50962 | 8.79844 | 102° | 31km/h | 3947m | -6.5m/s | -6.2°C | 77.2% | 631.2hPa | 2.6V | 07:40:39 | 02:21:22 | 00:00:00 | |
| DM0DOS-11 | 2026-09-02 08:56:15 | 52.50967 | 8.79807 | 99° | 29km/h | 3965m | -6.2m/s | -6.3°C | 76.5% | 629.8hPa | 2.7V | 07:40:42 | 02:21:19 | 00:00:00 | |
| DL1XH-west | 2026-09-02 08:56:15 | 52.50962 | 8.79844 | 102° | 31km/h | 3947m | -6.5m/s | -6.2°C | 81.6% | 631.3hPa | 2.6V | 07:40:55 | 02:21:22 | 00:00:00 | |
| DO2JMG | 2026-09-02 08:56:11 | 52.50969 | 8.79795 | 100° | 29km/h | 3972m | -6.6m/s | -6.3°C | 81.2% | 629.3hPa | 2.7V | 07:40:55 | 02:21:18 | 00:00:00 | |
| DB0DAN | 2026-09-02 08:56:10 | 52.50970 | 8.79783 | 100° | 29km/h | 3979m | -6.5m/s | -6.4°C | 75.8% | 628.83hPa | 2.7V | 00:00:00 | 00:00:00 | 00:00:00 | |
| DL1XH1-15 | 2026-09-02 08:56:10 | 52.50976 | 8.79722 | 96° | 29km/h | 4010m | -6.3m/s | -6.7°C | 78.7% | 626.1hPa | 2.7V | 07:40:49 | 02:21:12 | 00:00:00 | |
| DL4XJ-10 | 2026-09-02 08:56:09 | 52.50971 | 8.79770 | 100° | 31km/h | 3985m | -6.4m/s | -6.9°C | 0% | 0hPa | 2.7V | 00:00:00 | 00:00:00 | 00:00:00 | |
| DM0DOS-11 | 2026-09-02 08:56:07 | 52.50974 | 8.79746 | 102° | 31km/h | 3997m | -6.2m/s | -6.5°C | 78.3% | 627.2hPa | 2.7V | 07:40:47 | 02:21:14 | 00:00:00 | |
| DM0DOS-11 | 2026-09-02 08:56:07 | 52.50979 | 8.79684 | 100° | 31km/h | 4029m | -6.1m/s | -6.8°C | 79.6% | 624.7hPa | 2.6V | 07:40:52 | 02:21:09 | 00:00:00 | |
| DL1XH-15 | 2026-09-02 08:56:06 | 52.50980 | 8.79672 | 102° | 29km/h | 4035m | -6.3m/s | -6.8°C | 79.6% | 624.1hPa | 2.6V | 07:40:53 | 02:21:08 | 00:00:00 | |
| DL1XH-west | 2026-09-02 08:56:04 | 52.50977 | 8.79710 | 96° | 31km/h | 4016m | -6.4m/s | -6.7°C | 82.7% | 625.7hPa | 2.7V | 07:40:55 | 02:21:11 | 00:00:00 | |
| DO2JMG | 2026-09-02 08:56:00 | 52.50982 | 8.79660 | 99° | 29km/h | 4042m | -6.4m/s | -6.9°C | 83.5% | 623.7hPa | 2.7V | 07:40:55 | 02:21:07 | 00:00:00 | |
| DM0DOS-11 | 2026-09-02 08:56:00 | 52.50987 | 8.79623 | 105° | 29km/h | 4061m | -6.4m/s | -7°C | 80.3% | 622.2hPa | 2.7V | 07:40:57 | 02:21:04 | 00:00:00 | |
| BIOWL1-15 | 2026-09-02 08:55:56 | 52.50993 | 8.79586 | 107° | 31km/h | 4080m | -6.4m/s | -7.2°C | 84% | 620.7hPa | 2.7V | 07:41:46 | 02:21:01 | 00:00:00 | |
| DB0DAN | 2026-09-02 08:55:55 | 52.50991 | 8.79599 | 104° | 29km/h | 4074m | -6.2m/s | -7.1°C | 79% | 621.11hPa | 2.6V | 00:00:00 | 00:00:00 | 00:00:00 | |
| DL1XH1-15 | 2026-09-02 08:55:55 | 52.51000 | 8.79538 | 97° | 31km/h | 4106m | -6.2m/s | -7.3°C | 80.6% | 618.5hPa | 2.6V | 07:41:04 | 02:20:57 | 00:00:00 | |
| DL1XH-west | 2026-09-02 08:55:53 | 52.50995 | 8.79574 | 103° | 29km/h | 4087m | -6.3m/s | -7.2°C | 83.9% | 620.1hPa | 2.7V | 07:41:46 | 02:21:00 | 00:00:00 | |
| DM0DOS-11 | 2026-09-02 08:55:52 | 52.50997 | 8.79562 | 102° | 29km/h | 4093m | -6.5m/s | -7.2°C | 80.5% | 619.6hPa | 2.7V | 07:41:02 | 02:20:59 | 00:00:00 | |
| DO2JMG | 2026-09-02 08:55:50 | 52.51000 | 8.79538 | 98° | 31km/h | 4106m | -6.2m/s | -7.4°C | 83.7% | 618.5hPa | 2.6V | 07:41:46 | 02:20:57 | 00:00:00 | |
| DL4XJ-10 | 2026-09-02 08:55:49 | 52.51001 | 8.79525 | 102° | 35km/h | 4112m | -6.5m/s | -7.9°C | 0% | 0hPa | 2.7V | 00:00:00 | 00:00:00 | 00:00:00 | |
| DD8BA-10 | 2026-09-02 08:55:48 | 52.51002 | 8.79512 | 100° | 33km/h | 4119m | -6.2m/s | -7.4°C | 80.2% | 617.5hPa | 2.7V | 00:00:00 | 00:00:00 | 00:00:00 | |
| DM0DOS-11 | 2026-09-02 08:55:47 | 52.51012 | 8.79433 | 101° | 35km/h | 4157m | -6.5m/s | -7.7°C | 79.5% | 614.5hPa | 2.6V | 07:41:12 | 02:20:49 | 00:00:00 | |
| BIOWL1-15 | 2026-09-02 08:55:46 | 52.51009 | 8.79460 | 102° | 33km/h | 4145m | -6.3m/s | -7.6°C | 83% | 615.5hPa | 2.7V | 07:41:46 | 02:20:51 | 00:00:00 | |
| DL1XH1-15 | 2026-09-02 08:55:45 | 52.51007 | 8.79474 | 102° | 31km/h | 4138m | -6.7m/s | -7.5°C | 80.2% | 616hPa | 2.7V | 07:41:09 | 02:20:52 | 00:00:00 | |
| DJ2DS-15 | 2026-09-02 08:55:44 | 52.51008 | 8.79460 | 102° | 37km/h | 4145m | -6.2m/s | -7.5°C | 79.8% | 615.5hPa | 2.6V | 00:00:00 | 02:20:51 | 00:00:00 | |
| DM0DOS-11 | 2026-09-02 08:55:42 | 52.51020 | 8.79362 | 103° | 37km/h | 4189m | -6.2m/s | -7.9°C | 81% | 612hPa | 2.6V | 07:41:17 | 02:20:44 | 00:00:00 | |
| GOEST3-10 | 2026-09-02 08:55:42 | 52.51012 | 8.79433 | 102° | 35km/h | 4157m | -6.4m/s | -7.6°C | 79.5% | 614.5hPa | 2.7V | 00:00:00 | 00:00:00 | 00:00:00 | |
| DL1XH-west | 2026-09-02 08:55:42 | 52.51012 | 8.79433 | 102° | 35km/h | 4157m | -6.5m/s | -7.7°C | 82.7% | 614.5hPa | 2.6V | 07:41:46 | 02:20:49 | 00:00:00 | |
| DB0DAN | 2026-09-02 08:55:40 | 52.51015 | 8.79406 | 100° | 33km/h | 4170m | -6.4m/s | -7.8°C | 78.8% | 613.52hPa | 2.7V | 00:00:00 | 00:00:00 | 00:00:00 | |
| DL1XH-15 | 2026-09-02 08:55:40 | 52.51015 | 8.79406 | 100° | 35km/h | 4170m | -6.4m/s | -7.8°C | 80.1% | 613.5hPa | 2.7V | 07:41:14 | 02:20:47 | 00:00:00 | |
| DO2JMG | 2026-09-02 08:55:39 | 52.51017 | 8.79392 | 100° | 37km/h | 4176m | -6.1m/s | -7.8°C | 83.5% | 613hPa | 2.7V | 07:41:46 | 02:20:46 | 00:00:00 | |
| DL3AQ-11 | 2026-09-02 08:55:38 | 52.51020 | 8.79362 | 103° | 35km/h | 4189m | -6.3m/s | -7.9°C | 79.6% | 612.0hPa | 2.7V | 00:00:00 | 00:00:00 | 00:00:00 | |
| DM0DOS-11 | 2026-09-02 08:55:37 | 52.51028 | 8.79288 | 99° | 37km/h | 4221m | -6.5m/s | -8.1°C | 80.7% | 609.5hPa | 2.7V | 07:41:22 | 02:20:39 | 00:00:00 | |
| DL1XH1-15 | 2026-09-02 08:55:35 | 52.51023 | 8.79333 | 101° | 35km/h | 4202m | -6.5m/s | -8°C | 81% | 611hPa | 2.7V | 07:41:19 | 02:20:42 | 00:00:00 | |
| DL1XH-15 | 2026-09-02 08:55:35 | 52.51031 | 8.79258 | 98° | 37km/h | 4234m | -6.4m/s | -8°C | 78.4% | 608.4hPa | 2.6V | 07:41:24 | 02:20:37 | 00:00:00 | |
| BIOWL1-15 | 2026-09-02 08:55:33 | 52.51026 | 8.79303 | 101° | 37km/h | 4215m | -6.6m/s | -8.1°C | 83.6% | 610hPa | 2.7V | 07:41:46 | 02:20:40 | 00:00:00 | |
| DM0DOS-11 | 2026-09-02 08:55:32 | 52.51035 | 8.79211 | 99° | 40km/h | 4253m | -6.5m/s | -8.1°C | 77.9% | 607hPa | 2.7V | 07:41:27 | 02:20:34 | 00:00:00 | |
| DL1XH-west | 2026-09-02 08:55:31 | 52.51029 | 8.79273 | 101° | 37km/h | 4228m | -6.1m/s | -8.1°C | 83.3% | 608.9hPa | 2.6V | 07:41:46 | 02:20:38 | 00:00:00 | |
| DO2JMG | 2026-09-02 08:55:28 | 52.51034 | 8.79227 | 99° | 38km/h | 4247m | -6.5m/s | -8.1°C | 81.8% | 607.4hPa | 2.7V | 07:41:46 | 02:20:35 | 00:00:00 | |
| DD8BA-10 | 2026-09-02 08:55:28 | 52.51034 | 8.79227 | 99° | 42km/h | 4247m | -6.5m/s | -8.1°C | 78.4% | 607.4hPa | 2.6V | 00:00:00 | 00:00:00 | 00:00:00 | |
| DB0DAN | 2026-09-02 08:55:25 | 52.51038 | 8.79177 | 97° | 40km/h | 4267m | -6.4m/s | -8.1°C | 75.2% | 605.94hPa | 2.6V | 00:00:00 | 00:00:00 | 00:00:00 | |
| BIOWL1-15 | 2026-09-02 08:55:25 | 52.51041 | 8.79142 | 97° | 44km/h | 4279m | -6.4m/s | -8.2°C | 80.4% | 604.9hPa | 2.7V | 07:41:46 | 02:20:30 | 00:00:00 | |
| DJ2DS-15 | 2026-09-02 08:55:24 | 52.51039 | 8.79160 | 97° | 44km/h | 4273m | -6.5m/s | -8.1°C | 76.5% | 605.4hPa | 2.7V | 00:00:00 | 02:20:31 | 00:00:00 | |
| DM0DOS-11 | 2026-09-02 08:55:22 | 52.51047 | 8.79035 | 98° | 44km/h | 4318m | -6.2m/s | -8.3°C | 75.4% | 602hPa | 2.7V | 07:41:37 | 02:20:24 | 00:00:00 | |
| GOEST3-10 | 2026-09-02 08:55:22 | 52.51042 | 8.79125 | 95° | 44km/h | 4286m | -6.4m/s | -8.1°C | 76.2% | 604.4hPa | 2.7V | 00:00:00 | 02:20:29 | 00:00:00 | |
| DL1XH1-15 | 2026-09-02 08:55:20 | 52.51043 | 8.79089 | 92° | 42km/h | 4299m | -6.4m/s | -8.2°C | 75.6% | 603.5hPa | 2.7V | 07:41:34 | 02:20:27 | 00:00:00 | |
| DL1XH1-15 | 2026-09-02 08:55:20 | 52.51050 | 8.79000 | 96° | 42km/h | 4330m | -6.1m/s | -8.3°C | 73.7% | 601hPa | 2.7V | 07:41:39 | 02:20:22 | 00:00:00 | |
| DL1XH-west | 2026-09-02 08:55:20 | 52.51043 | 8.79089 | 93° | 44km/h | 4299m | -6.4m/s | -8.3°C | 80.3% | 603.5hPa | 2.7V | 07:41:46 | 02:20:27 | 00:00:00 | |
| BIOWL9-15 | 2026-09-02 08:55:19 | 52.51044 | 8.79071 | 95° | 44km/h | 4305m | -6.5m/s | -8.3°C | 74.2% | 603.0hPa | 2.6V | 00:00:00 | 00:00:00 | 00:00:00 | |
| HTAHTA | 2026-09-02 08:55:18 | 52.51049 | 8.79017 | 99° | 42km/h | 4324m | -6.2m/s | -8.3°C | 73.4% | 601.4hPa | 2.6V | 00:00:00 | 00:00:00 | 00:00:00 | |
| DM0DOS-11 | 2026-09-02 08:55:17 | 52.51054 | 8.78945 | 94° | 46km/h | 4348m | -6m/s | -8.5°C | 74.8% | 599.5hPa | 2.6V | 07:41:42 | 02:20:19 | 00:00:00 | |
| DO2JMG | 2026-09-02 08:55:17 | 52.51047 | 8.79035 | 99° | 44km/h | 4318m | -6.2m/s | -8.3°C | 79.4% | 602hPa | 2.7V | 07:41:46 | 02:20:24 | 00:00:00 | |
| BIOWL1-15 | 2026-09-02 08:55:14 | 52.51054 | 8.78945 | 95° | 46km/h | 4349m | -6m/s | -8.5°C | 79.2% | 599.5hPa | 2.6V | 07:41:46 | 02:20:19 | 00:00:00 | |
| SMARD9-10 | 2026-09-02 08:55:13 | 52.51051 | 8.78982 | 97° | 44km/h | 4336m | -5.9m/s | -8.3°C | 72.7% | 600.6hPa | 2.7V | 00:00:00 | 00:00:00 | 00:00:00 | |
| DK9SH | 2026-09-02 08:55:12 | 52.51052 | 8.78964 | 98° | 46km/h | 4342m | -6.3m/s | -8.4°C | 73.2% | 599.9hPa | 2.7V | 07:41:00 | 00:00:00 | 00:00:00 | |
| DL1XH1-15 | 2026-09-02 08:55:10 | 52.51056 | 8.78908 | 96° | 44km/h | 4361m | -6.1m/s | -8.6°C | 75.2% | 598.6hPa | 2.7V | 07:41:44 | 02:20:17 | 00:00:00 | |
| DB0DAN | 2026-09-02 08:55:10 | 52.51056 | 8.78908 | 96° | 42km/h | 4361m | -6.1m/s | -8.6°C | 73.8% | 598.65hPa | 2.7V | 00:00:00 | 00:00:00 | 00:00:00 | |
| DL1XH-west | 2026-09-02 08:55:09 | 52.51057 | 8.78889 | 92° | 46km/h | 4367m | -6m/s | -8.6°C | 80.1% | 598.1hPa | 2.7V | 07:41:46 | 02:20:16 | 00:00:00 | |
| DL4XJ-10 | 2026-09-02 08:55:09 | 52.51057 | 8.78889 | 93° | 47km/h | 4367m | -6.0m/s | -9.2°C | 0% | 0hPa | 2.7V | 00:00:00 | 00:00:00 | 00:00:00 | |
| DD8BA-10 | 2026-09-02 08:55:08 | 52.51057 | 8.78870 | 94° | 47km/h | 4373m | -6.7m/s | -8.6°C | 75.7% | 597.6hPa | 2.7V | 00:00:00 | 00:00:00 | 00:00:00 | |
| DM0DOS-11 | 2026-09-02 08:55:07 | 52.51063 | 8.78754 | 93° | 47km/h | 4411m | -6.1m/s | -9°C | 77.7% | 594.8hPa | 2.7V | 07:41:52 | 02:20:09 | 00:00:00 | |
| DO2JMG | 2026-09-02 08:55:06 | 52.51060 | 8.78832 | 95° | 46km/h | 4386m | -6.1m/s | -8.8°C | 80.9% | 596.6hPa | 2.6V | 07:42:37 | 02:20:13 | 00:00:00 | |
| DL1XH-15 | 2026-09-02 08:55:05 | 52.51060 | 8.78813 | 94° | 47km/h | 4392m | -6.4m/s | -8.8°C | 76.7% | 596.2hPa | 2.7V | 07:41:49 | 02:20:12 | 00:00:00 | |
| BIOWL1-15 | 2026-09-02 08:55:02 | 52.51063 | 8.78754 | 94° | 47km/h | 4411m | -6.1m/s | -9°C | 82.1% | 594.8hPa | 2.7V | 07:42:37 | 02:20:09 | 00:00:00 | |
| DL1XH-west | 2026-09-02 08:54:58 | 52.51066 | 8.78677 | 95° | 47km/h | 4436m | -6.4m/s | -9.3°C | 83.5% | 592.9hPa | 2.7V | 07:42:37 | 02:20:05 | 00:00:00 | |
| DL3AQ-11 | 2026-09-02 08:54:57 | 52.51067 | 8.78658 | 94° | 46km/h | 4442m | -6.4m/s | -9.3°C | 78.4% | 592.2hPa | 2.6V | 00:00:00 | 00:00:00 | 00:00:00 | |
| DL1CLM-18 | 2026-09-02 08:54:56 | 52.51067 | 8.78658 | 96° | 46km/h | 4443m | -6.4m/s | -9.3°C | 78.4% | 592.2hPa | 2.6V | 07:42:00 | 00:00:00 | 00:00:00 | |
| DL1XH-15 | 2026-09-02 08:54:55 | 52.51069 | 8.78620 | 95° | 46km/h | 4455m | -6.2m/s | -9.4°C | 80.4% | 591.4hPa | 2.6V | 07:41:59 | 02:20:02 | 00:00:00 | |
| DM0DOS-11 | 2026-09-02 08:54:55 | 52.51071 | 8.78561 | 95° | 49km/h | 4474m | -6.3m/s | -9.5°C | 81% | 589.9hPa | 2.7V | 07:42:02 | 02:19:59 | 00:00:00 | |
| DO2JMG | 2026-09-02 08:54:55 | 52.51069 | 8.78620 | 95° | 46km/h | 4455m | -6.2m/s | -9.4°C | 84.2% | 591.4hPa | 2.6V | 07:42:37 | 02:20:02 | 00:00:00 | |
| DB0DAN | 2026-09-02 08:54:55 | 52.51069 | 8.78620 | 95° | 44km/h | 4455m | -6.2m/s | -9.4°C | 78.9% | 591.4hPa | 2.6V | 00:00:00 | 00:00:00 | 00:00:00 | |
| BIOWL1-15 | 2026-09-02 08:54:53 | 52.51073 | 8.78540 | 95° | 49km/h | 4480m | -6.1m/s | -9.6°C | 84.8% | 589.5hPa | 2.7V | 07:42:37 | 02:19:58 | 00:00:00 | |
| DD1CC8 | 2026-09-02 08:54:50 | 52.51073 | 8.78520 | 93° | 47km/h | 4486m | -6.1m/s | -9.6°C | 79.9% | 588.9hPa | 2.7V | 00:00:00 | 00:00:00 | 00:00:00 | |
| DM0DOS-11 | 2026-09-02 08:54:49 | 52.51076 | 8.78459 | 93° | 49km/h | 4505m | -6.3m/s | -9.8°C | 82.4% | 587.6hPa | 2.7V | 07:42:07 | 02:19:54 | 00:00:00 | |
| DL1XH-west | 2026-09-02 08:54:48 | 52.51075 | 8.78480 | 94° | 49km/h | 4499m | -6.6m/s | -9.8°C | 85.8% | 588.1hPa | 2.6V | 07:42:37 | 02:19:55 | 00:00:00 | |
| HTAHTA | 2026-09-02 08:54:47 | 52.51076 | 8.78439 | 94° | 49km/h | 4511m | -6.2m/s | -9.9°C | 80.8% | 587.1hPa | 2.7V | 00:00:00 | 00:00:00 | 00:00:00 | |
| BUE01 | 2026-09-02 08:54:46 | 52.51076 | 8.78439 | 94° | 49km/h | 4511m | -6.2m/s | -9.9°C | 80.8% | 587.1hPa | 2.7V | 00:00:00 | 00:00:00 | 00:00:00 | |
| DL1XH1-15 | 2026-09-02 08:54:45 | 52.51078 | 8.78418 | 95° | 49km/h | 4517m | -6.2m/s | -9.9°C | 82.5% | 586.6hPa | 2.7V | 07:42:09 | 02:19:52 | 00:00:00 | |
| DL1XH1-15 | 2026-09-02 08:54:45 | 52.51086 | 8.78314 | 98° | 51km/h | 4548m | -6.5m/s | -10.1°C | 83.9% | 584.3hPa | 2.7V | 07:42:14 | 02:19:47 | 00:00:00 | |
| DO2JMG | 2026-09-02 08:54:44 | 52.51079 | 8.78397 | 96° | 51km/h | 4524m | -6.3m/s | -9.9°C | 85.8% | 586.1hPa | 2.7V | 07:42:37 | 02:19:51 | 00:00:00 | |
| DJ2DS-15 | 2026-09-02 08:54:44 | 52.51079 | 8.78397 | 97° | 51km/h | 4524m | -6.2m/s | -9.9°C | 82.7% | 586.1hPa | 2.6V | 00:00:00 | 02:19:51 | 00:00:00 | |
| BIOWL7-15 | 2026-09-02 08:54:43 | 52.51079 | 8.78397 | 97° | 51km/h | 4524m | -6.3m/s | -9.9°C | 81.1% | 586.1hPa | 2.6V | 07:42:00 | 00:00:00 | 00:00:00 | |
| DM0DOS-11 | 2026-09-02 08:54:42 | 52.51091 | 8.78251 | 97° | 51km/h | 4567m | -6.3m/s | -10.3°C | 84.9% | 582.9hPa | 2.6V | 07:42:17 | 02:19:44 | 00:00:00 | |
| BIOWL1-15 | 2026-09-02 08:54:41 | 52.51084 | 8.78335 | 98° | 51km/h | 4542m | -5.6m/s | -10.1°C | 86.6% | 584.7hPa | 2.7V | 07:42:37 | 02:19:48 | 00:00:00 | |
| DB0DAN | 2026-09-02 08:54:40 | 52.51086 | 8.78314 | 99° | 49km/h | 4548m | -6.5m/s | -10.1°C | 82.3% | 584.27hPa | 2.7V | 00:00:00 | 00:00:00 | 00:00:00 | |
| GOEST3-10 | 2026-09-02 08:54:40 | 52.51086 | 8.78314 | 99° | 51km/h | 4548m | -6.4m/s | -10.1°C | 83.9% | 584.2hPa | 2.7V | 00:00:00 | 02:19:47 | 00:00:00 | |
| DL1XH-15 | 2026-09-02 08:54:39 | 52.51096 | 8.78188 | 94° | 49km/h | 4586m | -6.1m/s | -10.4°C | 85.8% | 581.5hPa | 2.7V | 07:42:20 | 02:19:41 | 00:00:00 | |
| DL1XH-west | 2026-09-02 08:54:38 | 52.51090 | 8.78272 | 100° | 51km/h | 4561m | -6.4m/s | -10.2°C | 87.7% | 583.4hPa | 2.7V | 07:42:37 | 02:19:45 | 00:00:00 | |
| DD8BA-10 | 2026-09-02 08:54:38 | 52.51090 | 8.78271 | 101° | 49km/h | 4561m | -6.4m/s | -10.2°C | 84.7% | 583.3hPa | 2.7V | 07:42:00 | 00:00:00 | 00:00:00 | |
| DM0DOS-11 | 2026-09-02 08:54:37 | 52.51099 | 8.78147 | 95° | 49km/h | 4599m | -5.8m/s | -10.6°C | 86.5% | 580.5hPa | 2.7V | 07:42:22 | 02:19:39 | 00:00:00 | |
| DO2JMG | 2026-09-02 08:54:34 | 52.51096 | 8.78188 | 94° | 49km/h | 4587m | -6.1m/s | -10.5°C | 88.1% | 581.5hPa | 2.7V | 07:42:37 | 02:19:41 | 00:00:00 | |
| BIOWL1-15 | 2026-09-02 08:54:32 | 52.51109 | 8.78026 | 100° | 51km/h | 4632m | -6.2m/s | -10.9°C | 90.2% | 577.9hPa | 2.7V | 07:42:37 | 02:19:33 | 00:00:00 | |
| DM0DOS-11 | 2026-09-02 08:54:32 | 52.51109 | 8.78026 | 100° | 51km/h | 4632m | -6.2m/s | -10.8°C | 88.2% | 577.9hPa | 2.7V | 07:42:28 | 02:19:33 | 00:00:00 | |
| DK9SH | 2026-09-02 08:54:31 | 52.51099 | 8.78147 | 96° | 49km/h | 4599m | -5.9m/s | -10.6°C | 84.8% | 580.6hPa | 2.6V | 07:42:00 | 00:00:00 | 00:00:00 | |
| DL1XH1-15 | 2026-09-02 08:54:30 | 52.51102 | 8.78107 | 99° | 47km/h | 4610m | -5.1m/s | -10.7°C | 87.1% | 579.6hPa | 2.6V | 07:42:24 | 02:19:37 | 00:00:00 | |
| DL1XH1-15 | 2026-09-02 08:54:30 | 52.51111 | 8.78004 | 99° | 55km/h | 4638m | -6.3m/s | -10.9°C | 88.4% | 577.6hPa | 2.6V | 07:42:29 | 02:19:32 | 00:00:00 | |
| DL1XH-west | 2026-09-02 08:54:27 | 52.51107 | 8.78047 | 98° | 51km/h | 4626m | -5.9m/s | -10.8°C | 89.9% | 578.4hPa | 2.7V | 07:42:37 | 02:19:34 | 00:00:00 | |
| DM0DOS-11 | 2026-09-02 08:54:26 | 52.51122 | 8.77915 | 99° | 55km/h | 4663m | -5.8m/s | -11.1°C | 89.3% | 575.7hPa | 2.7V | 07:42:33 | 02:19:28 | 00:00:00 | |
| DD1CC3-15 | 2026-09-02 08:54:26 | 52.51107 | 8.78047 | 99° | 51km/h | 4626m | -5.9m/s | -10.8°C | 86.2% | 578.4hPa | 2.6V | 00:00:00 | 00:00:00 | 00:00:00 | |
| DB0DAN | 2026-09-02 08:54:25 | 52.51111 | 8.78004 | 99° | 51km/h | 4638m | -6.3m/s | -10.9°C | 86.7% | 577.58hPa | 2.6V | 00:00:00 | 00:00:00 | 00:00:00 | |
| DO2JMG | 2026-09-02 08:54:23 | 52.51116 | 8.77960 | 102° | 55km/h | 4651m | -5.7m/s | -11°C | 90.6% | 576.6hPa | 2.7V | 07:42:37 | 02:19:30 | 00:00:00 | |
| BIOWL7-15 | 2026-09-02 08:54:23 | 52.51116 | 8.77960 | 103° | 55km/h | 4651m | -5.7m/s | -11.0°C | 87.6% | 576.6hPa | 2.7V | 07:42:00 | 00:00:00 | 00:00:00 | |
| DL1LOL-11 | 2026-09-02 08:54:22 | 52.51116 | 8.77960 | 103° | 55km/h | 4651m | -5.7m/s | -11.0°C | 87.6% | 576.6hPa | 2.7V | 00:00:00 | 00:00:00 | 00:00:00 | |
| DM0DOS-11 | 2026-09-02 08:54:21 | 52.51130 | 8.77805 | 94° | 49km/h | 4691m | -6m/s | -11.1°C | 85.6% | 573.5hPa | 2.7V | 07:42:38 | 02:19:23 | 00:00:00 | |
| DL1XH1-15 | 2026-09-02 08:54:20 | 52.51124 | 8.77892 | 100° | 57km/h | 4668m | -5.8m/s | -11°C | 86.6% | 575.2hPa | 2.6V | 07:42:34 | 02:19:27 | 00:00:00 | |
| DL1XH1-15 | 2026-09-02 08:54:20 | 52.51132 | 8.77784 | 96° | 49km/h | 4696m | -5.4m/s | -11.1°C | 85.4% | 573hPa | 2.7V | 07:42:39 | 02:19:22 | 00:00:00 | |
| BIOWL1-15 | 2026-09-02 08:54:19 | 52.51126 | 8.77869 | 99° | 57km/h | 4674m | -5.6m/s | -11°C | 87.2% | 574.8hPa | 2.6V | 07:42:37 | 02:19:26 | 00:00:00 | |
| DL1XH-west | 2026-09-02 08:54:17 | 52.51129 | 8.77826 | 95° | 51km/h | 4685m | -5.2m/s | -11.1°C | 87.6% | 573.9hPa | 2.7V | 07:42:37 | 02:19:24 | 00:00:00 | |
| GOEST3-10 | 2026-09-02 08:54:17 | 52.51129 | 8.77825 | 96° | 51km/h | 4685m | -5.1m/s | -11.0°C | 86.1% | 573.9hPa | 2.7V | 00:00:00 | 02:19:24 | 00:00:00 | |
| DM0DOS-11 | 2026-09-02 08:54:16 | 52.51138 | 8.77698 | 97° | 55km/h | 4720m | -6.1m/s | -11.3°C | 85.4% | 571.3hPa | 2.7V | 07:42:43 | 02:19:18 | 00:00:00 | |
| HTAHTA | 2026-09-02 08:54:16 | 52.51132 | 8.77784 | 96° | 49km/h | 4696m | -5.4m/s | -11.1°C | 83.8% | 573.0hPa | 2.7V | 00:00:00 | 00:00:00 | 00:00:00 | |
| DL1XH1-15 | 2026-09-02 08:54:15 | 52.51139 | 8.77675 | 94° | 57km/h | 4727m | -6.4m/s | -11.3°C | 85% | 570.9hPa | 2.7V | 07:42:44 | 02:19:17 | 00:00:00 | |
| DL1XH-15 | 2026-09-02 08:54:14 | 52.51140 | 8.77652 | 96° | 58km/h | 4733m | -6.2m/s | -11.3°C | 84.5% | 570.4hPa | 2.7V | 07:42:45 | 02:19:16 | 00:00:00 | |
| DO2JMG | 2026-09-02 08:54:13 | 52.51134 | 8.77742 | 99° | 51km/h | 4708m | -6m/s | -11.2°C | 87.2% | 572.2hPa | 2.6V | 07:43:28 | 02:19:20 | 00:00:00 | |
| GOEST3-10 | 2026-09-02 08:54:12 | 52.51136 | 8.77721 | 96° | 57km/h | 4714m | -6.3m/s | -11.2°C | 85.4% | 571.7hPa | 2.7V | 00:00:00 | 00:00:00 | 00:00:00 | |
| DM0DOS-11 | 2026-09-02 08:54:11 | 52.51144 | 8.77581 | 94° | 55km/h | 4752m | -6.3m/s | -11.3°C | 81.4% | 569hPa | 2.7V | 07:42:48 | 02:19:13 | 00:00:00 | |
| DB0DAN | 2026-09-02 08:54:10 | 52.51139 | 8.77675 | 95° | 55km/h | 4727m | -6.4m/s | -11.3°C | 83.3% | 570.85hPa | 2.7V | 00:00:00 | 00:00:00 | 00:00:00 | |
| DL1XH1-15 | 2026-09-02 08:54:10 | 52.51146 | 8.77559 | 94° | 55km/h | 4758m | -6m/s | -11.4°C | 81.3% | 568.5hPa | 2.7V | 07:42:49 | 02:19:12 | 00:00:00 | |
| BIOWL1-15 | 2026-09-02 08:54:09 | 52.51142 | 8.77628 | 94° | 58km/h | 4739m | -6.3m/s | -11.3°C | 85.1% | 569.9hPa | 2.6V | 07:43:28 | 02:19:15 | 00:00:00 | |
| DL1XH-west | 2026-09-02 08:54:06 | 52.51144 | 8.77581 | 94° | 55km/h | 4752m | -6.3m/s | -11.3°C | 83.9% | 569hPa | 2.7V | 07:43:28 | 02:19:13 | 00:00:00 | |
| DL4BBY-15 | 2026-09-02 08:54:06 | 52.51144 | 8.77581 | 95° | 58km/h | 4752m | -6.3m/s | -11.9°C | 0% | 0hPa | 2.7V | 00:00:00 | 00:00:00 | 00:00:00 | |
| DL1XH-15 | 2026-09-02 08:54:04 | 52.51147 | 8.77537 | 96° | 53km/h | 4764m | -6.2m/s | -11.4°C | 81% | 568.1hPa | 2.7V | 07:42:50 | 02:19:11 | 00:00:00 | |
| DL1XH-15 | 2026-09-02 08:54:04 | 52.51154 | 8.77425 | 95° | 57km/h | 4795m | -5.7m/s | -11.7°C | 81% | 565.8hPa | 2.7V | 07:42:55 | 02:19:06 | 00:00:00 | |
| DO2JMG | 2026-09-02 08:54:03 | 52.51148 | 8.77515 | 95° | 53km/h | 4770m | -6.4m/s | -11.5°C | 83.6% | 567.6hPa | 2.7V | 07:43:28 | 02:19:10 | 00:00:00 | |
| DN9WHV | 2026-09-02 08:54:02 | 52.51149 | 8.77493 | 97° | 55km/h | 4777m | -6.1m/s | -11.5°C | 79.0% | 567.2hPa | 2.7V | 00:00:00 | 00:00:00 | 00:00:00 | |
| DL1XH1-15 | 2026-09-02 08:54:01 | 52.51152 | 8.77448 | 96° | 57km/h | 4789m | -6.2m/s | -11.6°C | 80.8% | 566.3hPa | 2.7V | 07:42:54 | 02:19:07 | 00:00:00 | |
| DL1XH1-15 | 2026-09-02 08:54:01 | 52.51160 | 8.77328 | 95° | 58km/h | 4819m | -6.1m/s | -11.8°C | 80.8% | 564hPa | 2.7V | 07:42:59 | 02:19:02 | 00:00:00 | |
| BIOWL1-15 | 2026-09-02 08:54:00 | 52.51155 | 8.77401 | 96° | 58km/h | 4801m | -6m/s | -11.7°C | 83.5% | 565.4hPa | 2.7V | 07:43:28 | 02:19:05 | 00:00:00 | |
| DO9LL-15 | 2026-09-02 08:53:59 | 52.51154 | 8.77425 | 96° | 58km/h | 4795m | -5.6m/s | -11.6°C | 81.0% | 565.8hPa | 2.6V | 00:00:00 | 02:19:06 | 00:00:00 | |
| DM0DOS-11 | 2026-09-02 08:53:58 | 52.51159 | 8.77352 | 96° | 58km/h | 4813m | -6.1m/s | -11.8°C | 81% | 564.5hPa | 2.6V | 07:42:58 | 02:19:03 | 00:00:00 | |
| DL1XH-west | 2026-09-02 08:53:56 | 52.51158 | 8.77352 | 97° | 58km/h | 4813m | -6.1m/s | -11.8°C | 83.6% | 564.5hPa | 2.6V | 07:43:28 | 02:19:03 | 00:00:00 | |
| DB0DAN | 2026-09-02 08:53:55 | 52.51160 | 8.77328 | 95° | 57km/h | 4819m | -6.1m/s | -11.8°C | 79.1% | 564.01hPa | 2.7V | 00:00:00 | 00:00:00 | 00:00:00 | |
| DL1XH-15 | 2026-09-02 08:53:54 | 52.51161 | 8.77304 | 93° | 57km/h | 4825m | -5.7m/s | -11.8°C | 81% | 563.5hPa | 2.7V | 07:43:00 | 02:19:01 | 00:00:00 | |
| DL1XH-15 | 2026-09-02 08:53:54 | 52.51165 | 8.77185 | 95° | 58km/h | 4855m | -5.8m/s | -12.1°C | 82.5% | 561.4hPa | 2.7V | 07:43:05 | 02:18:56 | 00:00:00 | |
| SONCRA | 2026-09-02 08:53:53 | 52.51162 | 8.77257 | 92° | 57km/h | 4837m | -5.6m/s | -11.9°C | 79.8% | 562.8hPa | 2.6V | 00:00:00 | 00:00:00 | 00:00:00 | |
| DM0DOS-11 | 2026-09-02 08:53:52 | 52.51163 | 8.77233 | 93° | 57km/h | 4842m | -6.1m/s | -12°C | 82% | 562.2hPa | 2.6V | 07:43:03 | 02:18:58 | 00:00:00 | |
| DO2JMG | 2026-09-02 08:53:52 | 52.51162 | 8.77257 | 92° | 57km/h | 4837m | -5.6m/s | -11.9°C | 84.1% | 562.8hPa | 2.7V | 07:43:28 | 02:18:59 | 00:00:00 | |
| BIOWL1-15 | 2026-09-02 08:53:51 | 52.51168 | 8.77135 | 95° | 60km/h | 4867m | -6.2m/s | -12.2°C | 85.6% | 560.6hPa | 2.7V | 07:43:28 | 02:18:54 | 00:00:00 | |
| GOEST3-10 | 2026-09-02 08:53:51 | 52.51163 | 8.77233 | 94° | 58km/h | 4843m | -6.1m/s | -11.9°C | 82.0% | 562.2hPa | 2.6V | 00:00:00 | 00:00:00 | 00:00:00 | |
| DL1XH1-15 | 2026-09-02 08:53:50 | 52.51170 | 8.77085 | 94° | 60km/h | 4879m | -6.1m/s | -12.3°C | 83.4% | 559.6hPa | 2.6V | 07:43:09 | 02:18:52 | 00:00:00 | |
| DL4XJ-10 | 2026-09-02 08:53:49 | 52.51165 | 8.77184 | 96° | 60km/h | 4855m | -5.8m/s | -12.6°C | 0% | 0hPa | 2.7V | 00:00:00 | 00:00:00 | 00:00:00 | |
| DN9WHV | 2026-09-02 08:53:48 | 52.51167 | 8.77160 | 95° | 60km/h | 4861m | -6.2m/s | -12.1°C | 81.0% | 560.9hPa | 2.7V | 00:00:00 | 00:00:00 | 00:00:00 | |
| DM0DOS-11 | 2026-09-02 08:53:47 | 52.51169 | 8.77110 | 95° | 60km/h | 4873m | -6m/s | -12.2°C | 83.1% | 560.1hPa | 2.7V | 07:43:08 | 02:18:53 | 00:00:00 | |
| DM0DOS-11 | 2026-09-02 08:53:47 | 52.51174 | 8.76984 | 91° | 62km/h | 4904m | -6.2m/s | -12.5°C | 84.6% | 557.9hPa | 2.7V | 07:43:13 | 02:18:48 | 00:00:00 | |
| DL1XH-west | 2026-09-02 08:53:45 | 52.51170 | 8.77085 | 94° | 60km/h | 4879m | -6.1m/s | -12.3°C | 85.9% | 559.6hPa | 2.6V | 07:43:28 | 02:18:52 | 00:00:00 | |
| DL1XH-15 | 2026-09-02 08:53:44 | 52.51171 | 8.77060 | 94° | 60km/h | 4885m | -6.5m/s | -12.3°C | 83.8% | 559.1hPa | 2.6V | 07:43:10 | 02:18:51 | 00:00:00 | |
| DL1XH-15 | 2026-09-02 08:53:44 | 52.51175 | 8.76934 | 91° | 60km/h | 4916m | -6m/s | -12.5°C | 84.6% | 556.9hPa | 2.6V | 07:43:15 | 02:18:46 | 00:00:00 | |
| BUE01 | 2026-09-02 08:53:44 | 52.51171 | 8.77060 | 94° | 60km/h | 4885m | -6.5m/s | -12.4°C | 82.1% | 559.2hPa | 2.7V | 00:00:00 | 00:00:00 | 00:00:00 | |
| DO2JMG | 2026-09-02 08:53:42 | 52.51173 | 8.77010 | 94° | 62km/h | 4898m | -6.1m/s | -12.5°C | 86.6% | 558.3hPa | 2.7V | 07:43:28 | 02:18:49 | 00:00:00 | |
| DB0UT-7 | 2026-09-02 08:53:42 | 52.51173 | 8.77010 | 94° | 60km/h | 4898m | -6.1m/s | -12.4°C | 84.5% | 558.3hPa | 2.7V | 07:43:00 | 02:18:49 | 00:00:00 | |
| DM0DOS-11 | 2026-09-02 08:53:41 | 52.51175 | 8.76862 | 91° | 58km/h | 4933m | -5.9m/s | -12.7°C | 85.4% | 555.6hPa | 2.7V | 07:43:18 | 02:18:43 | 00:00:00 | |
| GOEST3-10 | 2026-09-02 08:53:41 | 52.51174 | 8.76984 | 92° | 60km/h | 4904m | -6.2m/s | -12.4°C | 84.6% | 557.8hPa | 2.7V | 00:00:00 | 00:00:00 | 00:00:00 | |
| DL1XH1-15 | 2026-09-02 08:53:40 | 52.51175 | 8.76838 | 90° | 58km/h | 4939m | -5.6m/s | -12.7°C | 85.7% | 555.2hPa | 2.7V | 07:43:19 | 02:18:42 | 00:00:00 | |
| DB0DAN | 2026-09-02 08:53:40 | 52.51174 | 8.76959 | 91° | 57km/h | 4910m | -6.1m/s | -12.5°C | 82.7% | 557.52hPa | 2.6V | 00:00:00 | 00:00:00 | 00:00:00 | |
| DL1XH-15 | 2026-09-02 08:53:39 | 52.51176 | 8.76814 | 92° | 58km/h | 4945m | -6.3m/s | -12.8°C | 85.9% | 554.8hPa | 2.6V | 07:43:20 | 02:18:41 | 00:00:00 | |
| BIOWL1-15 | 2026-09-02 08:53:37 | 52.51175 | 8.76886 | 90° | 57km/h | 4927m | -5.9m/s | -12.6°C | 87.4% | 556.1hPa | 2.7V | 07:43:28 | 02:18:44 | 00:00:00 | |
| DM0DOS-11 | 2026-09-02 08:53:36 | 52.51179 | 8.76742 | 96° | 60km/h | 4963m | -6.1m/s | -12.9°C | 86.3% | 553.5hPa | 2.7V | 07:43:23 | 02:18:38 | 00:00:00 | |
| DL1XH-west | 2026-09-02 08:53:34 | 52.51176 | 8.76814 | 92° | 58km/h | 4945m | -6.3m/s | -12.8°C | 88.5% | 554.8hPa | 2.6V | 07:43:28 | 02:18:41 | 00:00:00 | |
| DO2JMG | 2026-09-02 08:53:31 | 52.51179 | 8.76742 | 97° | 60km/h | 4964m | -6.1m/s | -12.9°C | 89.2% | 553.5hPa | 2.7V | 07:43:28 | 02:18:38 | 00:00:00 | |
| DL1XH1-15 | 2026-09-02 08:53:30 | 52.51181 | 8.76717 | 97° | 60km/h | 4970m | -5.9m/s | -12.9°C | 85.9% | 553.1hPa | 2.7V | 07:43:24 | 02:18:37 | 00:00:00 | |
| DL1XH1-15 | 2026-09-02 08:53:30 | 52.51186 | 8.76586 | 89° | 64km/h | 4998m | -5.5m/s | -13.2°C | 85.7% | 550.9hPa | 2.7V | 07:43:29 | 02:18:32 | 00:00:00 | |
| DL1XH-15 | 2026-09-02 08:53:29 | 52.51186 | 8.76559 | 91° | 66km/h | 5004m | -5.7m/s | -13.2°C | 85.9% | 550.6hPa | 2.7V | 07:43:30 | 02:18:31 | 00:00:00 | |
| BIOWL1-15 | 2026-09-02 08:53:28 | 52.51186 | 8.76613 | 91° | 64km/h | 4993m | -5.2m/s | -13.1°C | 87.7% | 551.4hPa | 2.7V | 07:43:28 | 02:18:33 | 00:00:00 | |
| DD8BA-10 | 2026-09-02 08:53:28 | 52.51184 | 8.76665 | 95° | 64km/h | 4982m | -6.0m/s | -13.0°C | 85.3% | 552.1hPa | 2.7V | 00:00:00 | 00:00:00 | 00:00:00 | |
| GOEST3-10 | 2026-09-02 08:53:26 | 52.51186 | 8.76613 | 91° | 64km/h | 4993m | -5.2m/s | -13.1°C | 85.6% | 551.3hPa | 2.7V | 00:00:00 | 02:18:33 | 00:00:00 | |
| DM0DOS-11 | 2026-09-02 08:53:25 | 52.51187 | 8.76480 | 92° | 62km/h | 5021m | -5.5m/s | -13.3°C | 86.2% | 549.3hPa | 2.7V | 07:43:33 | 02:18:28 | 00:00:00 | |
| DB0DAN | 2026-09-02 08:53:25 | 52.51186 | 8.76586 | 90° | 62km/h | 4999m | -5.5m/s | -13.2°C | 83.9% | 550.94hPa | 2.7V | 00:00:00 | 00:00:00 | 00:00:00 | |
| DL1XH-west | 2026-09-02 08:53:24 | 52.51186 | 8.76559 | 91° | 66km/h | 5004m | -5.7m/s | -13.2°C | 88.1% | 550.6hPa | 2.7V | 07:44:19 | 02:18:31 | 00:00:00 | |
| DO2JMG | 2026-09-02 08:53:21 | 52.51187 | 8.76480 | 92° | 62km/h | 5022m | -5.5m/s | -13.4°C | 88.2% | 549.3hPa | 2.7V | 07:44:19 | 02:18:28 | 00:00:00 | |
| GOEST3-10 | 2026-09-02 08:53:21 | 52.51187 | 8.76480 | 93° | 62km/h | 5022m | -5.5m/s | -13.3°C | 86.2% | 549.3hPa | 2.7V | 07:43:00 | 00:00:00 | 00:00:00 | |
| DL1XH-15 | 2026-09-02 08:53:19 | 52.51190 | 8.76301 | 92° | 60km/h | 5062m | -5.9m/s | -13.7°C | 87.3% | 546.4hPa | 2.7V | 07:43:40 | 02:18:21 | 00:00:00 | |
| BIOWL1-15 | 2026-09-02 08:53:18 | 52.51189 | 8.76352 | 91° | 62km/h | 5051m | -6m/s | -13.6°C | 88.3% | 547.2hPa | 2.7V | 07:44:19 | 02:18:23 | 00:00:00 | |
| DD8BA-10 | 2026-09-02 08:53:18 | 52.51188 | 8.76403 | 92° | 60km/h | 5039m | -5.6m/s | -13.4°C | 86.3% | 547.9hPa | 2.6V | 07:43:00 | 00:00:00 | 00:00:00 | |
| DD1CC8 | 2026-09-02 08:53:17 | 52.51189 | 8.76377 | 92° | 60km/h | 5045m | -6.1m/s | -13.5°C | 84.5% | 547.6hPa | 2.7V | 00:00:00 | 00:00:00 | 00:00:00 | |
| GOEST3-10 | 2026-09-02 08:53:16 | 52.51189 | 8.76352 | 92° | 62km/h | 5051m | -6.0m/s | -13.5°C | 86.6% | 547.2hPa | 2.7V | 00:00:00 | 02:18:23 | 00:00:00 | |
| BIOWL9-15 | 2026-09-02 08:53:15 | 52.51190 | 8.76326 | 92° | 60km/h | 5057m | -5.6m/s | -13.6°C | 85.2% | 546.8hPa | 2.7V | 00:00:00 | 00:00:00 | 00:00:00 | |
| DL1XH1-15 | 2026-09-02 08:53:14 | 52.51192 | 8.76176 | 88° | 58km/h | 5092m | -5.3m/s | -13.9°C | 88.7% | 544.2hPa | 2.7V | 07:43:45 | 02:18:16 | 00:00:00 | |
| DL1XH-west | 2026-09-02 08:53:13 | 52.51191 | 8.76276 | 92° | 62km/h | 5068m | -5.5m/s | -13.7°C | 88% | 545.9hPa | 2.7V | 07:44:19 | 02:18:20 | 00:00:00 | |
| DB0UT-7 | 2026-09-02 08:53:12 | 52.51191 | 8.76251 | 92° | 58km/h | 5074m | -6.2m/s | -13.7°C | 87.9% | 545.4hPa | 2.7V | 00:00:00 | 00:00:00 | 00:00:00 | |
| DB0DAN | 2026-09-02 08:53:10 | 52.51193 | 8.76200 | 91° | 57km/h | 5086m | -5.7m/s | -13.9°C | 86.5% | 544.69hPa | 2.7V | 00:00:00 | 00:00:00 | 00:00:00 | |
| DO2JMG | 2026-09-02 08:53:10 | 52.51193 | 8.76200 | 92° | 60km/h | 5086m | -5.7m/s | -13.9°C | 88.6% | 544.7hPa | 2.7V | 07:44:19 | 02:18:17 | 00:00:00 | |
| BIOWL1-15 | 2026-09-02 08:53:10 | 52.51192 | 8.76102 | 91° | 58km/h | 5109m | -5.8m/s | -14.1°C | 89.4% | 543hPa | 2.6V | 07:44:19 | 02:18:13 | 00:00:00 | |
| DL1XH-15 | 2026-09-02 08:53:09 | 52.51191 | 8.76052 | 91° | 60km/h | 5121m | -6.1m/s | -14.2°C | 89.8% | 542.1hPa | 2.7V | 07:43:50 | 02:18:11 | 00:00:00 | |
| DL4XJ-10 | 2026-09-02 08:53:09 | 52.51192 | 8.76176 | 89° | 58km/h | 5092m | -5.3m/s | -14.5°C | 0% | 0hPa | 2.7V | 00:00:00 | 00:00:00 | 00:00:00 | |
| DD8BA-10 | 2026-09-02 08:53:08 | 52.51192 | 8.76151 | 89° | 60km/h | 5097m | -5.6m/s | -13.9°C | 88.8% | 543.8hPa | 2.7V | 00:00:00 | 00:00:00 | 00:00:00 | |
| DF5WG-10 | 2026-09-02 08:53:07 | 52.51192 | 8.76126 | 89° | 60km/h | 5103m | -6.1m/s | -14.0°C | 89.1% | 543.4hPa | 2.7V | 00:00:00 | 02:18:14 | 00:00:00 | |
| DL4BBY-15 | 2026-09-02 08:53:06 | 52.51192 | 8.76101 | 91° | 57km/h | 5109m | -5.7m/s | -14.6°C | 0% | 0hPa | 2.7V | 00:00:00 | 00:00:00 | 00:00:00 | |
| DD1CC3-15 | 2026-09-02 08:53:05 | 52.51192 | 8.76101 | 92° | 58km/h | 5109m | -5.8m/s | -14.1°C | 87.7% | 543.0hPa | 2.7V | 00:00:00 | 00:00:00 | 00:00:00 | |
| DL1XH1-15 | 2026-09-02 08:53:04 | 52.51197 | 8.75930 | 97° | 60km/h | 5151m | -5.9m/s | -14.4°C | 88.9% | 540hPa | 2.7V | 07:43:55 | 02:18:06 | 00:00:00 | |
| DL1XH-west | 2026-09-02 08:53:03 | 52.51192 | 8.76027 | 94° | 60km/h | 5127m | -6m/s | -14.2°C | 89.2% | 541.7hPa | 2.7V | 07:44:19 | 02:18:10 | 00:00:00 | |
| DM0DOS-11 | 2026-09-02 08:53:02 | 52.51194 | 8.75979 | 94° | 58km/h | 5138m | -6.2m/s | -14.3°C | 89% | 541hPa | 2.6V | 07:43:53 | 02:18:08 | 00:00:00 | |
| DO2JMG | 2026-09-02 08:53:00 | 52.51196 | 8.75954 | 95° | 60km/h | 5145m | -6.2m/s | -14.4°C | 89% | 540.4hPa | 2.6V | 07:44:19 | 02:18:07 | 00:00:00 | |
| BIOWL1-15 | 2026-09-02 08:52:57 | 52.51202 | 8.75831 | 91° | 57km/h | 5175m | -5.7m/s | -14.5°C | 87.5% | 538.2hPa | 2.6V | 07:44:19 | 02:18:02 | 00:00:00 | |
| DF5WG-10 | 2026-09-02 08:52:57 | 52.51200 | 8.75880 | 94° | 58km/h | 5163m | -5.7m/s | -14.4°C | 88.3% | 539.0hPa | 2.7V | 00:00:00 | 02:18:04 | 00:00:00 | |
| DM0DOS-11 | 2026-09-02 08:52:56 | 52.51200 | 8.75739 | 87° | 57km/h | 5199m | -6.4m/s | -14.4°C | 83.8% | 536.6hPa | 2.7V | 07:44:03 | 02:17:58 | 00:00:00 | |
| D01LWL | 2026-09-02 08:52:56 | 52.51201 | 8.75762 | 89° | 55km/h | 5193m | -6.0m/s | -14.4°C | 83.4% | 537.0hPa | 2.6V | 00:00:00 | 00:00:00 | 00:00:00 | |
| DB0DAN | 2026-09-02 08:52:55 | 52.51202 | 8.75831 | 91° | 53km/h | 5175m | -5.7m/s | -14.5°C | 85.9% | 538.24hPa | 2.6V | 00:00:00 | 00:00:00 | 00:00:00 | |
| DL1XH1-15 | 2026-09-02 08:52:54 | 52.51200 | 8.75691 | 91° | 60km/h | 5211m | -5.4m/s | -14.5°C | 83.2% | 535.7hPa | 2.6V | 07:44:05 | 02:17:56 | 00:00:00 | |
| DL1XH-west | 2026-09-02 08:52:52 | 52.51201 | 8.75762 | 89° | 55km/h | 5193m | -6m/s | -14.4°C | 86.2% | 537hPa | 2.7V | 07:44:19 | 02:17:59 | 00:00:00 | |
| DO2JMG | 2026-09-02 08:52:49 | 52.51200 | 8.75691 | 92° | 60km/h | 5211m | -5.4m/s | -14.5°C | 84.5% | 535.7hPa | 2.6V | 07:44:19 | 02:17:56 | 00:00:00 | |
| DL4XJ-10 | 2026-09-02 08:52:49 | 52.51200 | 8.75690 | 92° | 55km/h | 5212m | -5.4m/s | -15.0°C | 0% | 0hPa | 2.7V | 00:00:00 | 00:00:00 | 00:00:00 | |
| DD8BA-10 | 2026-09-02 08:52:48 | 52.51201 | 8.75666 | 93° | 55km/h | 5217m | -5.8m/s | -14.5°C | 82.5% | 535.3hPa | 2.7V | 00:00:00 | 00:00:00 | 00:00:00 | |
| DF5WG-10 | 2026-09-02 08:52:47 | 52.51201 | 8.75642 | 93° | 55km/h | 5223m | -5.2m/s | -14.5°C | 82.0% | 534.9hPa | 2.7V | 00:00:00 | 02:17:54 | 00:00:00 | |
| DM0DOS-11 | 2026-09-02 08:52:46 | 52.51205 | 8.75506 | 92° | 55km/h | 5257m | -5.7m/s | -14.7°C | 78.8% | 532.5hPa | 2.7V | 07:44:13 | 02:17:48 | 00:00:00 | |
| DL3AQ-11 | 2026-09-02 08:52:45 | 52.51203 | 8.75573 | 92° | 53km/h | 5239m | -5.8m/s | -14.7°C | 78.5% | 533.8hPa | 2.6V | 00:00:00 | 00:00:00 | 00:00:00 | |
| DL1XH1-15 | 2026-09-02 08:52:44 | 52.51207 | 8.75462 | 92° | 53km/h | 5268m | -5.4m/s | -14.8°C | 77.7% | 531.7hPa | 2.6V | 07:44:15 | 02:17:46 | 00:00:00 | |
| BIOWL1-15 | 2026-09-02 08:52:44 | 52.51203 | 8.75573 | 93° | 55km/h | 5239m | -5.8m/s | -14.7°C | 81.9% | 533.8hPa | 2.6V | 07:44:19 | 02:17:51 | 00:00:00 | |
| DL1XH-west | 2026-09-02 08:52:41 | 52.51205 | 8.75506 | 93° | 55km/h | 5257m | -5.7m/s | -14.7°C | 80.7% | 532.5hPa | 2.7V | 07:44:19 | 02:17:48 | 00:00:00 | |
| DB0DAN | 2026-09-02 08:52:40 | 52.51206 | 8.75484 | 93° | 51km/h | 5262m | -5.6m/s | -14.8°C | 76.4% | 532.1hPa | 2.7V | 00:00:00 | 00:00:00 | 00:00:00 | |
| DL1XH-15 | 2026-09-02 08:52:39 | 52.51211 | 8.75352 | 92° | 53km/h | 5295m | -5.5m/s | -14.8°C | 72.6% | 529.8hPa | 2.6V | 07:44:20 | 02:17:41 | 00:00:00 | |
| DO2JMG | 2026-09-02 08:52:38 | 52.51208 | 8.75440 | 93° | 53km/h | 5273m | -5.2m/s | -14.8°C | 78.6% | 531.4hPa | 2.6V | 07:44:19 | 02:17:45 | 00:00:00 | |
| AA1-15 | 2026-09-02 08:52:37 | 52.51208 | 8.75418 | 93° | 53km/h | 5279m | -5.6m/s | -14.9°C | 78.1% | 531hPa | 2.7V | 07:44:19 | 02:17:44 | 00:00:00 | |
| DF5WG-10 | 2026-09-02 08:52:37 | 52.51208 | 8.75418 | 93° | 53km/h | 5279m | -5.5m/s | -14.8°C | 76.4% | 530.9hPa | 2.7V | 00:00:00 | 02:17:44 | 00:00:00 | |
| DL4BBY-15 | 2026-09-02 08:52:36 | 52.51209 | 8.75396 | 94° | 55km/h | 5284m | -5.2m/s | -15.4°C | 0% | 0hPa | 2.7V | 00:00:00 | 00:00:00 | 00:00:00 | |
| DB0NH | 2026-09-02 08:52:35 | 52.51210 | 8.75374 | 94° | 55km/h | 5289m | -5.8m/s | -14.8°C | 73.8% | 530.1hPa | 2.7V | 00:00:00 | 02:17:42 | 00:00:00 | |
| DM0DOS-11 | 2026-09-02 08:52:34 | 52.51214 | 8.75285 | 95° | 55km/h | 5313m | -5.5m/s | -14.9°C | 72.9% | 528.6hPa | 2.7V | 07:44:23 | 02:17:38 | 00:00:00 | |
| BIOWL1-15 | 2026-09-02 08:52:34 | 52.51211 | 8.75352 | 93° | 53km/h | 5295m | -5.5m/s | -14.8°C | 75.5% | 529.8hPa | 2.6V | 07:45:10 | 02:17:41 | 00:00:00 | |
| DL1XH-west | 2026-09-02 08:52:31 | 52.51214 | 8.75285 | 95° | 55km/h | 5313m | -5.5m/s | -14.9°C | 75.8% | 528.6hPa | 2.7V | 07:45:10 | 02:17:38 | 00:00:00 | |
| GOEST3-10 | 2026-09-02 08:52:31 | 52.51214 | 8.75285 | 96° | 53km/h | 5313m | -5.4m/s | -14.9°C | 72.9% | 528.6hPa | 2.7V | 00:00:00 | 00:00:00 | 00:00:00 | |
| DL1XH-15 | 2026-09-02 08:52:29 | 52.51223 | 8.75129 | 94° | 55km/h | 5351m | -5.7m/s | -15.3°C | 73.8% | 525.9hPa | 2.7V | 07:44:30 | 02:17:31 | 00:00:00 | |
| DO2JMG | 2026-09-02 08:52:28 | 52.51217 | 8.75219 | 96° | 53km/h | 5329m | -5.9m/s | -15.1°C | 76.4% | 527.4hPa | 2.6V | 07:45:10 | 02:17:35 | 00:00:00 | |
| AA1-15 | 2026-09-02 08:52:27 | 52.51218 | 8.75196 | 97° | 55km/h | 5335m | -5.4m/s | -15.1°C | 76.6% | 527hPa | 2.7V | 07:45:10 | 02:17:34 | 00:00:00 | |
| DF5WG-10 | 2026-09-02 08:52:27 | 52.51218 | 8.75196 | 98° | 55km/h | 5335m | -5.3m/s | -15.1°C | 73.9% | 526.9hPa | 2.7V | 00:00:00 | 02:17:34 | 00:00:00 | |
| DD1CC2-15 | 2026-09-02 08:52:26 | 52.51218 | 8.75196 | 98° | 55km/h | 5335m | -5.4m/s | -15.1°C | 72.1% | 527.0hPa | 2.7V | 07:45:00 | 00:00:00 | 00:00:00 | |
| DB0DAN | 2026-09-02 08:52:25 | 52.51221 | 8.75152 | 95° | 51km/h | 5346m | -5.2m/s | -15.2°C | 72% | 526.2hPa | 2.7V | 00:00:00 | 00:00:00 | 00:00:00 | |
| BIOWL1-15 | 2026-09-02 08:52:24 | 52.51222 | 8.75129 | 95° | 55km/h | 5351m | -5.7m/s | -15.3°C | 76.5% | 525.9hPa | 2.7V | 07:45:10 | 02:17:31 | 00:00:00 | |
| DJ2DS-15 | 2026-09-02 08:52:24 | 52.51222 | 8.75129 | 95° | 55km/h | 5351m | -5.7m/s | -15.2°C | 73.8% | 525.8hPa | 2.7V | 00:00:00 | 02:17:31 | 00:00:00 | |
| DM0DOS-11 | 2026-09-02 08:52:22 | 52.51227 | 8.75062 | 95° | 55km/h | 5367m | -5.4m/s | -15.4°C | 74.4% | 524.8hPa | 2.7V | 07:44:33 | 02:17:28 | 00:00:00 | |
| DL1XH-west | 2026-09-02 08:52:20 | 52.51228 | 8.75039 | 98° | 55km/h | 5372m | -5.6m/s | -15.5°C | 77.5% | 524.4hPa | 2.7V | 07:45:10 | 02:17:27 | 00:00:00 | |
| DL1XH-15 | 2026-09-02 08:52:19 | 52.51236 | 8.74906 | 96° | 53km/h | 5406m | -5.3m/s | -15.7°C | 75.6% | 522.1hPa | 2.7V | 07:44:40 | 02:17:21 | 00:00:00 | |
| DO2JMG | 2026-09-02 08:52:17 | 52.51232 | 8.74972 | 95° | 53km/h | 5389m | -5.8m/s | -15.6°C | 77.5% | 523.3hPa | 2.6V | 07:45:10 | 02:17:24 | 00:00:00 | |
| DF5WG-10 | 2026-09-02 08:52:17 | 52.51232 | 8.74972 | 96° | 55km/h | 5389m | -5.7m/s | -15.5°C | 74.9% | 523.2hPa | 2.6V | 07:44:00 | 02:17:24 | 00:00:00 | |
| DM0DOS-11 | 2026-09-02 08:52:16 | 52.51240 | 8.74838 | 95° | 55km/h | 5422m | -5.5m/s | -15.8°C | 76.2% | 521hPa | 2.7V | 07:44:43 | 02:17:18 | 00:00:00 | |
| GOEST3-10 | 2026-09-02 08:52:16 | 52.51234 | 8.74950 | 96° | 55km/h | 5395m | -5.4m/s | -15.6°C | 75.4% | 522.8hPa | 2.6V | 00:00:00 | 02:17:23 | 00:00:00 | |
| DD1CC8 | 2026-09-02 08:52:15 | 52.51238 | 8.74861 | 94° | 53km/h | 5417m | -5.5m/s | -15.8°C | 73.9% | 521.4hPa | 2.6V | 00:00:00 | 00:00:00 | 00:00:00 | |
| DL1XH1-15 | 2026-09-02 08:52:14 | 52.51242 | 8.74793 | 95° | 57km/h | 5433m | -5.1m/s | -15.9°C | 76.6% | 520.2hPa | 2.6V | 07:44:45 | 02:17:16 | 00:00:00 | |
| BIOWL1-15 | 2026-09-02 08:52:13 | 52.51237 | 8.74883 | 94° | 55km/h | 5411m | -5.3m/s | -15.8°C | 77.5% | 521.8hPa | 2.7V | 07:45:10 | 02:17:20 | 00:00:00 | |
| DL1XH-west | 2026-09-02 08:52:10 | 52.51241 | 8.74816 | 94° | 55km/h | 5428m | -4.8m/s | -15.9°C | 78.2% | 520.6hPa | 2.6V | 07:45:10 | 02:17:17 | 00:00:00 | |
| DB0DAN | 2026-09-02 08:52:10 | 52.51241 | 8.74816 | 94° | 51km/h | 5428m | -4.8m/s | -15.9°C | 74.5% | 520.63hPa | 2.6V | 00:00:00 | 00:00:00 | 00:00:00 | |
| DO2JMG | 2026-09-02 08:52:06 | 52.51246 | 8.74723 | 96° | 57km/h | 5449m | -5.6m/s | -16.1°C | 79.6% | 519.2hPa | 2.7V | 07:45:10 | 02:17:13 | 00:00:00 | |
| BIOWL1-15 | 2026-09-02 08:52:05 | 52.51250 | 8.74654 | 94° | 57km/h | 5466m | -5.7m/s | -16.2°C | 80.4% | 518hPa | 2.6V | 07:45:10 | 02:17:10 | 00:00:00 | |
| DM0DOS-11 | 2026-09-02 08:52:04 | 52.51252 | 8.74607 | 93° | 57km/h | 5477m | -5.3m/s | -16.3°C | 78.5% | 517.3hPa | 2.7V | 07:44:53 | 02:17:08 | 00:00:00 | |
| DJ2DS-15 | 2026-09-02 08:52:04 | 52.51249 | 8.74677 | 95° | 57km/h | 5460m | -5.5m/s | -16.1°C | 78.2% | 518.4hPa | 2.6V | 00:00:00 | 02:17:11 | 00:00:00 | |
| DO3DL | 2026-09-02 08:52:03 | 52.51249 | 8.74677 | 95° | 57km/h | 5460m | -5.6m/s | -16.2°C | 76.3% | 518.5hPa | 2.7V | 00:00:00 | 00:00:00 | 00:00:00 | |
| DB0NH | 2026-09-02 08:52:02 | 52.51251 | 8.74630 | 94° | 57km/h | 5471m | -5.1m/s | -16.2°C | 78.4% | 517.7hPa | 2.7V | 00:00:00 | 02:17:09 | 00:00:00 | |
| GOEST3-10 | 2026-09-02 08:52:01 | 52.51251 | 8.74607 | 94° | 55km/h | 5477m | -5.3m/s | -16.3°C | 78.5% | 517.3hPa | 2.7V | 07:44:00 | 00:00:00 | 00:00:00 | |
| DL1XH-15 | 2026-09-02 08:51:59 | 52.51259 | 8.74448 | 93° | 55km/h | 5515m | -5.6m/s | -16.6°C | 79.7% | 514.7hPa | 2.7V | 07:45:00 | 02:17:01 | 00:00:00 | |
| DL1XH-west | 2026-09-02 08:51:59 | 52.51253 | 8.74561 | 94° | 57km/h | 5488m | -6m/s | -16.4°C | 80.5% | 516.6hPa | 2.7V | 07:45:10 | 02:17:06 | 00:00:00 | |
| DO2JMG | 2026-09-02 08:51:56 | 52.51257 | 8.74493 | 94° | 55km/h | 5504m | -5.5m/s | -16.6°C | 80.7% | 515.4hPa | 2.6V | 07:45:10 | 02:17:03 | 00:00:00 | |
| DB0DAN | 2026-09-02 08:51:55 | 52.51258 | 8.74470 | 94° | 51km/h | 5510m | -5m/s | -16.6°C | 77.5% | 515.01hPa | 2.7V | 00:00:00 | 00:00:00 | 00:00:00 | |
| DL1XH1-15 | 2026-09-02 08:51:54 | 52.51263 | 8.74332 | 91° | 57km/h | 5542m | -5m/s | -16.9°C | 81.4% | 512.7hPa | 2.7V | 07:45:05 | 02:16:56 | 00:00:00 | |
| AA1-15 | 2026-09-02 08:51:54 | 52.51259 | 8.74448 | 94° | 55km/h | 5515m | -5.6m/s | -16.6°C | 81% | 514.7hPa | 2.7V | 07:45:10 | 02:17:01 | 00:00:00 | |
| BIOWL1-15 | 2026-09-02 08:51:54 | 52.51261 | 8.74402 | 93° | 57km/h | 5526m | -5.3m/s | -16.7°C | 81% | 513.9hPa | 2.6V | 07:45:10 | 02:16:59 | 00:00:00 | |
| DL3OBA | 2026-09-02 08:51:53 | 52.51259 | 8.74447 | 95° | 55km/h | 5515m | -5.6m/s | -16.6°C | 77.7% | 514.7hPa | 2.6V | 07:45:00 | 00:00:00 | 00:00:00 | |
| GOEST3-10 | 2026-09-02 08:51:51 | 52.51261 | 8.74379 | 93° | 57km/h | 5532m | -5.5m/s | -16.7°C | 80.6% | 513.5hPa | 2.6V | 00:00:00 | 00:00:00 | 00:00:00 | |
| DD1CC3-15 | 2026-09-02 08:51:50 | 52.51262 | 8.74379 | 94° | 55km/h | 5532m | -5.6m/s | -16.8°C | 78.6% | 513.6hPa | 2.6V | 07:45:00 | 00:00:00 | 00:00:00 | |
| DL1XH-15 | 2026-09-02 08:51:49 | 52.51263 | 8.74213 | 92° | 58km/h | 5570m | -5.6m/s | -17.2°C | 83.3% | 510.9hPa | 2.6V | 07:45:10 | 02:16:51 | 00:00:00 | |
| DL1XH-west | 2026-09-02 08:51:48 | 52.51263 | 8.74309 | 90° | 57km/h | 5548m | -5.6m/s | -17°C | 82.2% | 512.5hPa | 2.6V | 07:45:10 | 02:16:55 | 00:00:00 | |
| DD8BA-10 | 2026-09-02 08:51:48 | 52.51263 | 8.74309 | 90° | 57km/h | 5548m | -5.5m/s | -16.9°C | 81.8% | 512.4hPa | 2.6V | 00:00:00 | 00:00:00 | 00:00:00 | |
| DF5WG-10 | 2026-09-02 08:51:47 | 52.51263 | 8.74285 | 90° | 57km/h | 5554m | -5.8m/s | -17.0°C | 82.7% | 511.9hPa | 2.6V | 00:00:00 | 02:16:54 | 00:00:00 | |
| DM0DOS-11 | 2026-09-02 08:51:46 | 52.51267 | 8.74121 | 93° | 55km/h | 5592m | -5.6m/s | -17.3°C | 83% | 509.4hPa | 2.6V | 07:45:14 | 02:16:47 | 00:00:00 | |
| DO2JMG | 2026-09-02 08:51:46 | 52.51263 | 8.74261 | 89° | 58km/h | 5559m | -4.7m/s | -17.1°C | 83.1% | 511.6hPa | 2.6V | 07:45:10 | 02:16:53 | 00:00:00 | |
| DD1CC8 | 2026-09-02 08:51:44 | 52.51264 | 8.74213 | 92° | 57km/h | 5570m | -5.6m/s | -17.2°C | 81.2% | 510.9hPa | 2.7V | 00:00:00 | 00:00:00 | 00:00:00 | |
| DL1XH1-15 | 2026-09-02 08:51:44 | 52.51268 | 8.74098 | 93° | 55km/h | 5597m | -5.5m/s | -17.4°C | 82.8% | 509hPa | 2.6V | 07:45:15 | 02:16:46 | 00:00:00 | |
| AA1-15 | 2026-09-02 08:51:43 | 52.51264 | 8.74189 | 93° | 57km/h | 5576m | -5.2m/s | -17.2°C | 83.1% | 510.5hPa | 2.7V | 07:46:01 | 02:16:50 | 00:00:00 | |
| BIOWL1-15 | 2026-09-02 08:51:42 | 52.51265 | 8.74166 | 95° | 55km/h | 5581m | -5.6m/s | -17.3°C | 83.1% | 510.2hPa | 2.7V | 07:46:01 | 02:16:49 | 00:00:00 | |
| HSKMA3-T | 2026-09-02 08:51:40 | 52.51267 | 8.74121 | 94° | 55km/h | 5592m | -5.6m/s | -17.3°C | 82.8% | 509.4hPa | 2.6V | 07:46:01 | 02:16:47 | 00:00:00 | |
| DB0DAN | 2026-09-02 08:51:40 | 52.51267 | 8.74121 | 94° | 53km/h | 5592m | -5.6m/s | -17.3°C | 80.9% | 509.43hPa | 2.6V | 00:00:00 | 00:00:00 | 00:00:00 | |
| DL1XH-west | 2026-09-02 08:51:37 | 52.51271 | 8.74050 | 96° | 60km/h | 5608m | -5m/s | -17.5°C | 82.9% | 508.3hPa | 2.7V | 07:46:01 | 02:16:44 | 00:00:00 | |
| DO2JMG | 2026-09-02 08:51:35 | 52.51275 | 8.74001 | 97° | 60km/h | 5619m | -5.7m/s | -17.5°C | 82.3% | 507.6hPa | 2.6V | 07:46:01 | 02:16:42 | 00:00:00 | |
| DM0DOS-11 | 2026-09-02 08:51:34 | 52.51283 | 8.73901 | 98° | 60km/h | 5641m | -5.6m/s | -17.7°C | 82.3% | 506hPa | 2.6V | 07:45:23 | 02:16:38 | 00:00:00 | |
| DL1XH1-15 | 2026-09-02 08:51:34 | 52.51287 | 8.73854 | 97° | 57km/h | 5652m | -5.1m/s | -17.8°C | 82.9% | 505.3hPa | 2.6V | 07:45:25 | 02:16:36 | 00:00:00 | |
| AA1-15 | 2026-09-02 08:51:32 | 52.51280 | 8.73926 | 98° | 60km/h | 5635m | -5.8m/s | -17.7°C | 82.2% | 506.4hPa | 2.7V | 07:46:01 | 02:16:39 | 00:00:00 | |
| BIOWL1-15 | 2026-09-02 08:51:31 | 52.51283 | 8.73901 | 99° | 60km/h | 5641m | -5.6m/s | -17.7°C | 82% | 506hPa | 2.6V | 07:46:01 | 02:16:38 | 00:00:00 | |
| HSKMA3-T | 2026-09-02 08:51:30 | 52.51285 | 8.73877 | 99° | 57km/h | 5647m | -5.4m/s | -17.8°C | 82.1% | 505.7hPa | 2.6V | 07:46:01 | 02:16:37 | 00:00:00 | |
| DL1XH-15 | 2026-09-02 08:51:29 | 52.51294 | 8.73739 | 94° | 55km/h | 5679m | -5.2m/s | -18°C | 83.2% | 503.5hPa | 2.6V | 07:45:30 | 02:16:31 | 00:00:00 | |
| DL1XH-west | 2026-09-02 08:51:27 | 52.51290 | 8.73808 | 96° | 57km/h | 5663m | -5.6m/s | -17.9°C | 82.4% | 504.6hPa | 2.7V | 07:46:01 | 02:16:34 | 00:00:00 | |
| DF5WG-10 | 2026-09-02 08:51:27 | 52.51290 | 8.73808 | 96° | 57km/h | 5663m | -5.5m/s | -17.8°C | 83.0% | 504.6hPa | 2.6V | 00:00:00 | 02:16:34 | 00:00:00 | |
| DN9WHV | 2026-09-02 08:51:26 | 52.51290 | 8.73808 | 97° | 57km/h | 5663m | -5.6m/s | -17.9°C | 80.9% | 504.6hPa | 2.6V | 07:46:00 | 00:00:00 | 00:00:00 | |
| DB0DAN | 2026-09-02 08:51:25 | 52.51293 | 8.73762 | 96° | 53km/h | 5674m | -5.3m/s | -18°C | 81.2% | 503.82hPa | 2.6V | 00:00:00 | 00:00:00 | 00:00:00 | |
| DL1XH1-15 | 2026-09-02 08:51:24 | 52.51303 | 8.73622 | 96° | 57km/h | 5706m | -4.8m/s | -18.2°C | 84% | 501.7hPa | 2.6V | 07:45:35 | 02:16:26 | 00:00:00 | |
| DO2JMG | 2026-09-02 08:51:24 | 52.51294 | 8.73739 | 95° | 55km/h | 5679m | -5.2m/s | -18°C | 82.4% | 503.5hPa | 2.6V | 07:46:01 | 02:16:31 | 00:00:00 | |
| DJ2DS-15 | 2026-09-02 08:51:24 | 52.51294 | 8.73738 | 95° | 58km/h | 5679m | -5.2m/s | -17.9°C | 83.2% | 503.5hPa | 2.7V | 00:00:00 | 02:16:31 | 00:00:00 | |
| DM0DOS-11 | 2026-09-02 08:51:22 | 52.51299 | 8.73669 | 97° | 57km/h | 5695m | -5.2m/s | -18.1°C | 83.2% | 502.4hPa | 2.7V | 07:45:33 | 02:16:28 | 00:00:00 | |
| AA1-15 | 2026-09-02 08:51:21 | 52.51299 | 8.73669 | 97° | 57km/h | 5695m | -5.2m/s | -18.1°C | 82.2% | 502.5hPa | 2.7V | 07:46:01 | 02:16:28 | 00:00:00 | |
| BIOWL1-15 | 2026-09-02 08:51:20 | 52.51301 | 8.73645 | 97° | 58km/h | 5700m | -5.3m/s | -18.2°C | 82.4% | 502.1hPa | 2.6V | 07:46:01 | 02:16:27 | 00:00:00 | |
| DL1XH-15 | 2026-09-02 08:51:19 | 52.51312 | 8.73503 | 98° | 58km/h | 5731m | -5.2m/s | -18.3°C | 82.5% | 499.9hPa | 2.6V | 07:45:40 | 02:16:21 | 00:00:00 | |
| HSKMA3-T | 2026-09-02 08:51:18 | 52.51304 | 8.73598 | 98° | 58km/h | 5711m | -5.3m/s | -18.3°C | 82.9% | 501.4hPa | 2.6V | 07:46:01 | 02:16:25 | 00:00:00 | |
| DD8BA-10 | 2026-09-02 08:51:18 | 52.51304 | 8.73598 | 98° | 58km/h | 5711m | -5.3m/s | -18.2°C | 84.2% | 501.4hPa | 2.6V | 00:00:00 | 00:00:00 | 00:00:00 | |
| DF5WG-10 | 2026-09-02 08:51:17 | 52.51306 | 8.73574 | 98° | 58km/h | 5716m | -4.7m/s | -18.2°C | 84.4% | 501.0hPa | 2.7V | 00:00:00 | 02:16:24 | 00:00:00 | |
| DM0DOS-11 | 2026-09-02 08:51:16 | 52.51321 | 8.73408 | 98° | 58km/h | 5752m | -5m/s | -18.2°C | 82.2% | 498.6hPa | 2.6V | 07:45:44 | 02:16:17 | 00:00:00 | |
| DL1XH-west | 2026-09-02 08:51:16 | 52.51308 | 8.73550 | 97° | 57km/h | 5721m | -5.4m/s | -18.3°C | 83.3% | 500.7hPa | 2.7V | 07:46:01 | 02:16:23 | 00:00:00 | |
| DO2JMG | 2026-09-02 08:51:14 | 52.51312 | 8.73503 | 99° | 58km/h | 5731m | -5.2m/s | -18.3°C | 82.3% | 499.9hPa | 2.6V | 07:46:01 | 02:16:21 | 00:00:00 | |
| BIOWL1-15 | 2026-09-02 08:51:11 | 52.51323 | 8.73384 | 99° | 58km/h | 5757m | -4.8m/s | -18.2°C | 83.2% | 498.2hPa | 2.6V | 07:46:01 | 02:16:16 | 00:00:00 | |
| AA1-15 | 2026-09-02 08:51:10 | 52.51321 | 8.73408 | 99° | 58km/h | 5752m | -5m/s | -18.2°C | 83.1% | 498.6hPa | 2.6V | 07:46:01 | 02:16:17 | 00:00:00 | |
| DB0DAN | 2026-09-02 08:51:10 | 52.51321 | 8.73408 | 99° | 57km/h | 5752m | -5m/s | -18.2°C | 80.1% | 498.56hPa | 2.6V | 00:00:00 | 00:00:00 | 00:00:00 | |
| DL1XH-west | 2026-09-02 08:51:06 | 52.51331 | 8.73311 | 100° | 60km/h | 5773m | -4.6m/s | -18.3°C | 83.5% | 497.2hPa | 2.7V | 07:46:01 | 02:16:13 | 00:00:00 | |
| DO2JMG | 2026-09-02 08:51:04 | 52.51336 | 8.73261 | 101° | 60km/h | 5782m | -4.6m/s | -18.4°C | 83.8% | 496.6hPa | 2.6V | 07:46:01 | 02:16:11 | 00:00:00 | |
| DJ2DS-15 | 2026-09-02 08:51:04 | 52.51336 | 8.73261 | 101° | 58km/h | 5782m | -4.6m/s | -18.4°C | 84.0% | 496.5hPa | 2.6V | 00:00:00 | 02:16:11 | 00:00:00 | |
| DM0DOS-11 | 2026-09-02 08:51:03 | 52.51346 | 8.73164 | 100° | 58km/h | 5802m | -5m/s | -18.6°C | 84.7% | 495.2hPa | 2.7V | 07:45:54 | 02:16:07 | 00:00:00 | |
| BIOWL1-15 | 2026-09-02 08:50:59 | 52.51349 | 8.73140 | 101° | 58km/h | 5807m | -5.3m/s | -18.6°C | 84.3% | 494.9hPa | 2.6V | 07:46:01 | 02:16:06 | 00:00:00 | |
| DL1XH-west | 2026-09-02 08:50:56 | 52.51357 | 8.73068 | 100° | 58km/h | 5822m | -5m/s | -18.8°C | 84.5% | 493.8hPa | 2.6V | 07:46:01 | 02:16:03 | 00:00:00 | |
| DB0DAN | 2026-09-02 08:50:55 | 52.51359 | 8.73044 | 100° | 57km/h | 5827m | -4.7m/s | -18.8°C | 83.7% | 493.54hPa | 2.6V | 00:00:00 | 00:00:00 | 00:00:00 | |
| DL1XH1-15 | 2026-09-02 08:50:54 | 52.51375 | 8.72898 | 98° | 58km/h | 5856m | -4.9m/s | -19°C | 86.9% | 491.5hPa | 2.6V | 07:46:05 | 02:15:56 | 00:00:00 | |
| DO2JMG | 2026-09-02 08:50:53 | 52.51365 | 8.72995 | 100° | 60km/h | 5836m | -5.2m/s | -18.9°C | 85.3% | 492.9hPa | 2.6V | 07:46:01 | 02:16:00 | 00:00:00 | |
| BIOWL1-15 | 2026-09-02 08:50:52 | 52.51378 | 8.72874 | 101° | 58km/h | 5861m | -5.4m/s | -19.1°C | 85.5% | 491.2hPa | 2.6V | 07:46:52 | 02:15:55 | 00:00:00 | |
| AA1-15 | 2026-09-02 08:50:49 | 52.51375 | 8.72898 | 99° | 58km/h | 5856m | -4.9m/s | -19°C | 85.7% | 491.5hPa | 2.6V | 07:46:52 | 02:15:56 | 00:00:00 | |
| DL4XJ-10 | 2026-09-02 08:50:49 | 52.51375 | 8.72898 | 99° | 57km/h | 5856m | -4.9m/s | -19.5°C | 0% | 0hPa | 2.6V | 00:00:00 | 00:00:00 | 00:00:00 | |
| DD8BA-10 | 2026-09-02 08:50:48 | 52.51378 | 8.72874 | 102° | 58km/h | 5861m | -5.3m/s | -19.0°C | 86.9% | 491.2hPa | 2.6V | 00:00:00 | 00:00:00 | 00:00:00 | |
| DN9WHV | 2026-09-02 08:50:47 | 52.51378 | 8.72874 | 102° | 58km/h | 5861m | -5.4m/s | -19.1°C | 84.6% | 491.2hPa | 2.6V | 07:46:00 | 00:00:00 | 00:00:00 | |
| DF5WG-10 | 2026-09-02 08:50:46 | 52.51383 | 8.72827 | 101° | 57km/h | 5872m | -5.3m/s | -19.1°C | 87.6% | 490.5hPa | 2.6V | 00:00:00 | 02:15:53 | 00:00:00 | |
| DM0DOS-11 | 2026-09-02 08:50:45 | 52.51400 | 8.72687 | 100° | 58km/h | 5902m | -5m/s | -19.4°C | 89.5% | 488.6hPa | 2.6V | 07:46:14 | 02:15:47 | 00:00:00 | |
| DL1XH-west | 2026-09-02 08:50:45 | 52.51386 | 8.72804 | 100° | 58km/h | 5877m | -5.2m/s | -19.2°C | 86.3% | 490.2hPa | 2.6V | 07:46:52 | 02:15:52 | 00:00:00 | |
| DL3AQ-11 | 2026-09-02 08:50:45 | 52.51388 | 8.72780 | 101° | 57km/h | 5882m | -4.8m/s | -19.2°C | -1.0% | -1.0hPa | 2.6V | 00:00:00 | 00:00:00 | 00:00:00 | |
| DO2JMG | 2026-09-02 08:50:43 | 52.51391 | 8.72757 | 100° | 57km/h | 5887m | -4.8m/s | -19.2°C | 86.7% | 489.6hPa | 2.6V | 07:46:52 | 02:15:50 | 00:00:00 | |
| DB0UT-7 | 2026-09-02 08:50:42 | 52.51394 | 8.72733 | 103° | 57km/h | 5892m | -4.9m/s | -19.2°C | 88.8% | 489.2hPa | 2.6V | 00:00:00 | 02:15:49 | 00:00:00 | |
| HSKMA3-T | 2026-09-02 08:50:42 | 52.51394 | 8.72733 | 103° | 58km/h | 5892m | -5m/s | -19.3°C | 86.7% | 489.2hPa | 2.7V | 07:46:52 | 02:15:49 | 00:00:00 | |
| DN9WHV | 2026-09-02 08:50:41 | 52.51394 | 8.72733 | 104° | 58km/h | 5892m | -5.0m/s | -19.3°C | 86.4% | 489.2hPa | 2.6V | 07:46:00 | 00:00:00 | 00:00:00 | |
| DB0DAN | 2026-09-02 08:50:40 | 52.51400 | 8.72687 | 101° | 55km/h | 5902m | -5m/s | -19.4°C | 87.1% | 488.55hPa | 2.6V | 00:00:00 | 00:00:00 | 00:00:00 | |
| DB0NH | 2026-09-02 08:50:40 | 52.51400 | 8.72687 | 101° | 57km/h | 5902m | -5.0m/s | -19.3°C | 89.5% | 488.5hPa | 2.6V | 00:00:00 | 02:15:47 | 00:00:00 | |
| DL1XH-15 | 2026-09-02 08:50:39 | 52.51416 | 8.72548 | 99° | 55km/h | 5933m | -5.2m/s | -19.6°C | 90.9% | 486.6hPa | 2.6V | 07:46:20 | 02:15:41 | 00:00:00 | |
| AA1-15 | 2026-09-02 08:50:38 | 52.51405 | 8.72640 | 101° | 58km/h | 5913m | -5.4m/s | -19.5°C | 86.9% | 487.8hPa | 2.6V | 07:46:52 | 02:15:45 | 00:00:00 | |
| BIOWL1-15 | 2026-09-02 08:50:37 | 52.51408 | 8.72617 | 102° | 57km/h | 5918m | -5.1m/s | -19.5°C | 87% | 487.6hPa | 2.6V | 07:46:52 | 02:15:44 | 00:00:00 | |
| DL1XH-west | 2026-09-02 08:50:34 | 52.51416 | 8.72548 | 100° | 55km/h | 5933m | -5.3m/s | -19.7°C | 87.3% | 486.6hPa | 2.6V | 07:46:52 | 02:15:41 | 00:00:00 | |
| DL3AQ-11 | 2026-09-02 08:50:34 | 52.51419 | 8.72525 | 98° | 55km/h | 5938m | -5.1m/s | -19.7°C | -1.0% | -1.0hPa | 2.6V | 00:00:00 | 00:00:00 | 00:00:00 | |
| DM0DOS-11 | 2026-09-02 08:50:33 | 52.51425 | 8.72456 | 98° | 57km/h | 5953m | -5.1m/s | -19.8°C | 91.2% | 485.2hPa | 2.6V | 07:46:24 | 02:15:37 | 00:00:00 | |
| DO2JMG | 2026-09-02 08:50:32 | 52.51421 | 8.72502 | 99° | 55km/h | 5943m | -5m/s | -19.7°C | 87.3% | 485.9hPa | 2.7V | 07:46:52 | 02:15:39 | 00:00:00 | |
| BIOWL1-15 | 2026-09-02 08:50:31 | 52.51431 | 8.72386 | 98° | 58km/h | 5969m | -5.3m/s | -19.9°C | 87.1% | 484.2hPa | 2.7V | 07:46:52 | 02:15:34 | 00:00:00 | |
| DL3OBA | 2026-09-02 08:50:31 | 52.51423 | 8.72479 | 99° | 57km/h | 5948m | -4.9m/s | -19.8°C | 88.8% | 485.6hPa | 2.6V | 00:00:00 | 00:00:00 | 00:00:00 | |
| DL1XH-15 | 2026-09-02 08:50:29 | 52.51437 | 8.72315 | 98° | 57km/h | 5984m | -5.4m/s | -19.9°C | 87.4% | 483.2hPa | 2.6V | 07:46:30 | 02:15:31 | 00:00:00 | |
| AA1-15 | 2026-09-02 08:50:28 | 52.51429 | 8.72409 | 98° | 57km/h | 5964m | -5.1m/s | -19.9°C | 87.5% | 484.6hPa | 2.6V | 07:46:52 | 02:15:35 | 00:00:00 | |
| DD8BA-10 | 2026-09-02 08:50:28 | 52.51429 | 8.72409 | 98° | 57km/h | 5964m | -5.1m/s | -19.8°C | 91.5% | 484.5hPa | 2.6V | 00:00:00 | 00:00:00 | 00:00:00 | |
| DN9WHV | 2026-09-02 08:50:26 | 52.51431 | 8.72386 | 99° | 58km/h | 5969m | -5.3m/s | -19.9°C | 88.3% | 484.2hPa | 2.6V | 07:46:00 | 00:00:00 | 00:00:00 | |
| DB0DAN | 2026-09-02 08:50:25 | 52.51435 | 8.72338 | 98° | 53km/h | 5979m | -5.1m/s | -19.9°C | 86.2% | 483.54hPa | 2.6V | 00:00:00 | 00:00:00 | 00:00:00 | |
| DF5WG-10 | 2026-09-02 08:50:25 | 52.51435 | 8.72338 | 98° | 57km/h | 5979m | -5.1m/s | -19.9°C | 88.6% | 483.5hPa | 2.6V | 00:00:00 | 02:15:32 | 00:00:00 | |
| DL1XH1-15 | 2026-09-02 08:50:24 | 52.51448 | 8.72200 | 99° | 55km/h | 6012m | -5.5m/s | -19.7°C | 77.1% | 481.4hPa | 2.6V | 07:46:35 | 02:15:26 | 00:00:00 | |
| DL1XH-west | 2026-09-02 08:50:23 | 52.51439 | 8.72292 | 98° | 57km/h | 5990m | -5.4m/s | -19.9°C | 83% | 482.9hPa | 2.6V | 07:46:52 | 02:15:30 | 00:00:00 | |
| HSKMA3-T | 2026-09-02 08:50:22 | 52.51441 | 8.72269 | 100° | 55km/h | 5995m | -5.3m/s | -19.8°C | 80.8% | 482.5hPa | 2.7V | 07:46:52 | 02:15:29 | 00:00:00 | |
| DM0DOS-11 | 2026-09-02 08:50:22 | 52.51445 | 8.72223 | 98° | 57km/h | 6006m | -5.5m/s | -19.7°C | 78.2% | 481.9hPa | 2.6V | 07:46:34 | 02:15:27 | 00:00:00 | |
| DO2JMG | 2026-09-02 08:50:21 | 52.51443 | 8.72246 | 99° | 55km/h | 6001m | -5.3m/s | -19.7°C | 78.5% | 482.2hPa | 2.6V | 07:46:52 | 02:15:28 | 00:00:00 | |
| GOEST3-10 | 2026-09-02 08:50:21 | 52.51443 | 8.72246 | 99° | 57km/h | 6001m | -5.3m/s | -19.7°C | 79.1% | 482.2hPa | 2.6V | 00:00:00 | 00:00:00 | 00:00:00 | |
| DL1XH-15 | 2026-09-02 08:50:19 | 52.51458 | 8.72086 | 98° | 55km/h | 6038m | -5.1m/s | -19.8°C | 81.3% | 479.8hPa | 2.6V | 07:46:40 | 02:15:21 | 00:00:00 | |
| AA1-15 | 2026-09-02 08:50:17 | 52.51452 | 8.72155 | 98° | 57km/h | 6023m | -5.4m/s | -19.7°C | 77.6% | 480.8hPa | 2.6V | 07:46:52 | 02:15:24 | 00:00:00 | |
| BIOWL1-15 | 2026-09-02 08:50:16 | 52.51454 | 8.72132 | 98° | 55km/h | 6028m | -5m/s | -19.7°C | 79.7% | 480.5hPa | 2.6V | 07:46:52 | 02:15:23 | 00:00:00 | |
| GOEST3-10 | 2026-09-02 08:50:16 | 52.51454 | 8.72132 | 98° | 55km/h | 6028m | -5.0m/s | -19.7°C | 80.3% | 480.4hPa | 2.7V | 00:00:00 | 02:15:23 | 00:00:00 | |
| DM0DOS-11 | 2026-09-02 08:50:15 | 52.51468 | 8.71995 | 102° | 55km/h | 6058m | -4.7m/s | -19.8°C | 66% | 478.5hPa | 2.7V | 07:46:44 | 02:15:17 | 00:00:00 | |
| DF5WG-10 | 2026-09-02 08:50:15 | 52.51456 | 8.72109 | 100° | 55km/h | 6033m | -5.2m/s | -19.7°C | 82.1% | 480.1hPa | 2.7V | 00:00:00 | 02:15:22 | 00:00:00 | |
| DL1XH1-15 | 2026-09-02 08:50:14 | 52.51471 | 8.71973 | 99° | 55km/h | 6063m | -5m/s | -19.8°C | 64.6% | 478.2hPa | 2.6V | 07:46:45 | 02:15:16 | 00:00:00 | |
| DL1XH-west | 2026-09-02 08:50:13 | 52.51460 | 8.72063 | 101° | 57km/h | 6043m | -5m/s | -19.8°C | 78.2% | 479.4hPa | 2.6V | 07:46:52 | 02:15:20 | 00:00:00 | |
| HSKMA3-T | 2026-09-02 08:50:11 | 52.51466 | 8.72018 | 101° | 57km/h | 6053m | -5.1m/s | -19.8°C | 70.4% | 478.9hPa | 2.6V | 07:46:52 | 02:15:18 | 00:00:00 | |
| DO2JMG | 2026-09-02 08:50:10 | 52.51468 | 8.71995 | 102° | 55km/h | 6059m | -4.7m/s | -19.8°C | 66.8% | 478.5hPa | 2.7V | 07:46:52 | 02:15:17 | 00:00:00 | |
| DB0DAN | 2026-09-02 08:50:10 | 52.51468 | 8.71995 | 102° | 53km/h | 6059m | -4.7m/s | -19.8°C | 64% | 478.49hPa | 2.7V | 00:00:00 | 00:00:00 | 00:00:00 | |
| DB0ND-19 | 2026-09-02 08:50:10 | 52.51471 | 8.71973 | 99° | 53km/h | 6063m | -5.0m/s | -19.8°C | -1.0% | 478.2hPa | 2.6V | 00:00:00 | 00:00:00 | 00:00:00 | |
| DL1XH-15 | 2026-09-02 08:50:09 | 52.51482 | 8.71861 | 100° | 55km/h | 6088m | -4.7m/s | -20.1°C | 66.8% | 476.5hPa | 2.6V | 07:46:50 | 02:15:11 | 00:00:00 | |
| AA1-15 | 2026-09-02 08:50:06 | 52.51478 | 8.71906 | 98° | 53km/h | 6079m | -4.9m/s | -20°C | 66% | 477.2hPa | 2.6V | 07:46:52 | 02:15:13 | 00:00:00 | |
| DL4BBY-15 | 2026-09-02 08:50:06 | 52.51478 | 8.71906 | 98° | 53km/h | 6079m | -4.9m/s | -20.5°C | 0% | 0hPa | 2.6V | 00:00:00 | 00:00:00 | 00:00:00 | |
| DL3AQ-11 | 2026-09-02 08:50:05 | 52.51487 | 8.71817 | 100° | 53km/h | 6098m | -5.1m/s | -20.2°C | -1.0% | -1.0hPa | 2.6V | 00:00:00 | 00:00:00 | 00:00:00 | |
| DL1XH1-15 | 2026-09-02 08:50:04 | 52.51495 | 8.71753 | 101° | 53km/h | 6114m | -5.4m/s | -20.3°C | 70.6% | 474.9hPa | 2.6V | 07:46:55 | 02:15:06 | 00:00:00 | |
| DL1XH-west | 2026-09-02 08:50:02 | 52.51487 | 8.71817 | 101° | 55km/h | 6098m | -5.1m/s | -20.2°C | 68.5% | 475.9hPa | 2.6V | 07:46:52 | 02:15:09 | 00:00:00 | |
| HSKMA3-T | 2026-09-02 08:50:00 | 52.51493 | 8.71774 | 102° | 53km/h | 6108m | -5.4m/s | -20.2°C | 69.9% | 475.2hPa | 2.6V | 07:47:43 | 02:15:07 | 00:00:00 | |
| DO2JMG | 2026-09-02 08:49:59 | 52.51496 | 8.71753 | 102° | 53km/h | 6114m | -5.4m/s | -20.3°C | 71.3% | 474.9hPa | 2.6V | 07:47:43 | 02:15:06 | 00:00:00 | |
| AA1-15 | 2026-09-02 08:49:55 | 52.51506 | 8.71666 | 98° | 55km/h | 6135m | -5.8m/s | -20.5°C | 74.2% | 473.6hPa | 2.6V | 07:47:43 | 02:15:02 | 00:00:00 | |
| DB0DAN | 2026-09-02 08:49:55 | 52.51506 | 8.71666 | 98° | 51km/h | 6135m | -5.8m/s | -20.5°C | 71.2% | 473.55hPa | 2.6V | 00:00:00 | 00:00:00 | 00:00:00 | |
| DL1XH-west | 2026-09-02 08:49:51 | 52.51514 | 8.71575 | 100° | 57km/h | 6158m | -5.3m/s | -20.7°C | 75.8% | 472.1hPa | 2.6V | 07:47:43 | 02:14:58 | 00:00:00 | |
| DO2JMG | 2026-09-02 08:49:49 | 52.51519 | 8.71530 | 100° | 53km/h | 6168m | -4.8m/s | -20.8°C | 77% | 471.3hPa | 2.6V | 07:47:43 | 02:14:56 | 00:00:00 | |
| DL4XJ-10 | 2026-09-02 08:49:49 | 52.51519 | 8.71530 | 100° | 53km/h | 6169m | -4.7m/s | -21.3°C | 0% | 0hPa | 2.6V | 00:00:00 | 00:00:00 | 00:00:00 | |
| DD8BA-10 | 2026-09-02 08:49:48 | 52.51521 | 8.71508 | 100° | 51km/h | 6173m | -5.1m/s | -20.8°C | 77.2% | 471.0hPa | 2.6V | 00:00:00 | 00:00:00 | 00:00:00 | |
| DN9WHV | 2026-09-02 08:49:47 | 52.51521 | 8.71508 | 101° | 53km/h | 6173m | -5.1m/s | -20.8°C | 74.9% | 471.1hPa | 2.7V | 07:47:00 | 00:00:00 | 00:00:00 | |
| GOEST3-10 | 2026-09-02 08:49:46 | 52.51526 | 8.71466 | 100° | 51km/h | 6183m | -5.2m/s | -20.9°C | 77.7% | 470.3hPa | 2.7V | 00:00:00 | 02:14:53 | 00:00:00 | |
| DL1XH1-15 | 2026-09-02 08:49:45 | 52.51540 | 8.71318 | 96° | 51km/h | 6219m | -4.6m/s | -21.2°C | 79.6% | 468hPa | 2.7V | 07:47:15 | 02:14:46 | 00:00:00 | |
| SONCRA | 2026-09-02 08:49:45 | 52.51530 | 8.71423 | 99° | 51km/h | 6194m | -5.1m/s | -21.0°C | 76.0% | 469.6hPa | 2.6V | 00:00:00 | 00:00:00 | 00:00:00 | |
| BIOWL1-15 | 2026-09-02 08:49:45 | 52.51530 | 8.71423 | 100° | 51km/h | 6194m | -5.1m/s | -21°C | 78.1% | 469.6hPa | 2.6V | 07:47:43 | 02:14:51 | 00:00:00 | |
| DL1XH-west | 2026-09-02 08:49:41 | 52.51536 | 8.71360 | 98° | 53km/h | 6209m | -5.4m/s | -21.1°C | 78.3% | 468.7hPa | 2.6V | 07:47:43 | 02:14:48 | 00:00:00 | |
| DB0DAN | 2026-09-02 08:49:40 | 52.51538 | 8.71339 | 97° | 49km/h | 6214m | -4.9m/s | -21.2°C | 76.5% | 468.4hPa | 2.6V | 00:00:00 | 00:00:00 | 00:00:00 | |
| DO2JMG | 2026-09-02 08:49:38 | 52.51541 | 8.71296 | 95° | 53km/h | 6223m | -4.7m/s | -21.3°C | 79.7% | 467.7hPa | 2.6V | 07:47:43 | 02:14:45 | 00:00:00 | |
| DD8BA-10 | 2026-09-02 08:49:38 | 52.51541 | 8.71296 | 95° | 53km/h | 6223m | -4.7m/s | -21.2°C | 79.5% | 467.7hPa | 2.6V | 00:00:00 | 00:00:00 | 00:00:00 | |
| DL8OAI-8 | 2026-09-02 08:49:37 | 52.51541 | 8.71296 | 95° | 53km/h | 6223m | -4.7m/s | -21.3°C | 77.2% | 467.7hPa | 2.6V | 07:47:00 | 00:00:00 | 00:00:00 | |
| DL4BBY-15 | 2026-09-02 08:49:36 | 52.51543 | 8.71253 | 95° | 57km/h | 6234m | -5.3m/s | -21.9°C | 0% | 0hPa | 2.6V | 00:00:00 | 00:00:00 | 00:00:00 | |
| DN9WHV | 2026-09-02 08:49:35 | 52.51543 | 8.71253 | 96° | 53km/h | 6234m | -5.3m/s | -21.4°C | 77.8% | 467.1hPa | 2.6V | 07:47:00 | 00:00:00 | 00:00:00 | |
| DL1XH1-15 | 2026-09-02 08:49:34 | 52.51550 | 8.71098 | 95° | 53km/h | 6270m | -5.7m/s | -21.7°C | 77.6% | 464.7hPa | 2.6V | 07:47:25 | 02:14:36 | 00:00:00 | |
| BIOWL1-15 | 2026-09-02 08:49:34 | 52.51545 | 8.71209 | 94° | 53km/h | 6244m | -5.3m/s | -21.5°C | 81.3% | 466.4hPa | 2.6V | 07:47:43 | 02:14:41 | 00:00:00 | |
| AA1-15 | 2026-09-02 08:49:33 | 52.51546 | 8.71187 | 94° | 53km/h | 6249m | -5.4m/s | -21.5°C | 81.3% | 466.1hPa | 2.6V | 07:47:43 | 02:14:40 | 00:00:00 | |
| DL1XH-west | 2026-09-02 08:49:31 | 52.51548 | 8.71143 | 94° | 53km/h | 6259m | -4.8m/s | -21.6°C | 80.8% | 465.4hPa | 2.6V | 07:47:43 | 02:14:38 | 00:00:00 | |
| GOEST3-10 | 2026-09-02 08:49:31 | 52.51548 | 8.71143 | 94° | 55km/h | 6259m | -4.8m/s | -21.6°C | 80.3% | 465.4hPa | 2.6V | 00:00:00 | 00:00:00 | 00:00:00 | |
| DN9WHV | 2026-09-02 08:49:30 | 52.51548 | 8.71143 | 95° | 53km/h | 6259m | -4.8m/s | -21.6°C | 77.9% | 465.4hPa | 2.6V | 07:47:00 | 00:00:00 | 00:00:00 | |
| DL1XH-15 | 2026-09-02 08:49:29 | 52.51556 | 8.70986 | 94° | 57km/h | 6297m | -5.5m/s | -21.8°C | 72% | 463.1hPa | 2.6V | 07:47:30 | 02:14:31 | 00:00:00 | |
| DO2JMG | 2026-09-02 08:49:28 | 52.51552 | 8.71076 | 94° | 55km/h | 6276m | -5.7m/s | -21.7°C | 76.3% | 464.4hPa | 2.6V | 07:47:43 | 02:14:35 | 00:00:00 | |
| DD8BA-10 | 2026-09-02 08:49:28 | 52.51551 | 8.71076 | 95° | 55km/h | 6276m | -5.6m/s | -21.6°C | 75.5% | 464.4hPa | 2.6V | 00:00:00 | 00:00:00 | 00:00:00 | |
| DD1CC3-15 | 2026-09-02 08:49:27 | 52.51551 | 8.71076 | 95° | 55km/h | 6276m | -5.7m/s | -21.7°C | 73.2% | 464.4hPa | 2.6V | 07:47:00 | 00:00:00 | 00:00:00 | |
| DN9WHV | 2026-09-02 08:49:26 | 52.51553 | 8.71053 | 96° | 55km/h | 6281m | -5.5m/s | -21.7°C | 71.1% | 464.1hPa | 2.6V | 07:47:00 | 00:00:00 | 00:00:00 | |
| DB0DAN | 2026-09-02 08:49:25 | 52.51555 | 8.71008 | 95° | 53km/h | 6292m | -5.4m/s | -21.7°C | 68.8% | 463.32hPa | 2.6V | 00:00:00 | 00:00:00 | 00:00:00 | |
| BIOWL1-15 | 2026-09-02 08:49:24 | 52.51556 | 8.70986 | 95° | 57km/h | 6297m | -5.5m/s | -21.8°C | 73.5% | 463.1hPa | 2.6V | 07:47:43 | 02:14:31 | 00:00:00 | |
| AA1-15 | 2026-09-02 08:49:22 | 52.51559 | 8.70940 | 94° | 55km/h | 6308m | -5.3m/s | -21.9°C | 74.6% | 462.3hPa | 2.6V | 07:47:43 | 02:14:29 | 00:00:00 | |
| DM0DOS-11 | 2026-09-02 08:49:21 | 52.51561 | 8.70893 | 95° | 57km/h | 6319m | -5.6m/s | -21.9°C | 71.7% | 461.7hPa | 2.6V | 07:47:34 | 02:14:27 | 00:00:00 | |
| DL1XH-west | 2026-09-02 08:49:21 | 52.51560 | 8.70917 | 94° | 57km/h | 6313m | -5.6m/s | -21.9°C | 73.5% | 462.1hPa | 2.6V | 07:47:43 | 02:14:28 | 00:00:00 | |
| GOEST3-10 | 2026-09-02 08:49:21 | 52.51560 | 8.70917 | 95° | 57km/h | 6313m | -5.6m/s | 0°C | 0% | 0hPa | 2.6V | 07:47:00 | 00:00:00 | 00:00:00 | |
| DL1LOL-11 | 2026-09-02 08:49:20 | 52.51559 | 8.70917 | 95° | 57km/h | 6313m | -5.6m/s | -21.9°C | 69.8% | 462.1hPa | 2.6V | 00:00:00 | 00:00:00 | 00:00:00 | |
| DL1XH-15 | 2026-09-02 08:49:19 | 52.51568 | 8.70755 | 93° | 57km/h | 6351m | -5.5m/s | -22.2°C | 73.1% | 459.7hPa | 2.6V | 07:47:40 | 02:14:21 | 00:00:00 | |
| DO2JMG | 2026-09-02 08:49:18 | 52.51563 | 8.70847 | 96° | 57km/h | 6330m | -5.5m/s | -22.1°C | 73.4% | 461hPa | 2.6V | 07:47:43 | 02:14:25 | 00:00:00 | |
| HSKMA3-T | 2026-09-02 08:49:17 | 52.51565 | 8.70824 | 96° | 57km/h | 6335m | -5.5m/s | -22.1°C | 73.4% | 460.8hPa | 2.6V | 07:47:43 | 02:14:24 | 00:00:00 | |
| DJ2DS-15 | 2026-09-02 08:49:17 | 52.51566 | 8.70801 | 93° | 55km/h | 6340m | -5.4m/s | -22.2°C | 70.2% | 460.4hPa | 2.6V | 00:00:00 | 00:00:00 | 00:00:00 | |
| GOEST3-10 | 2026-09-02 08:49:16 | 52.51566 | 8.70801 | 94° | 57km/h | 6340m | -5.4m/s | -22.1°C | 72.5% | 460.4hPa | 2.6V | 00:00:00 | 02:14:23 | 00:00:00 | |
| DM0DOS-11 | 2026-09-02 08:49:15 | 52.51572 | 8.70660 | 94° | 58km/h | 6373m | -5.9m/s | -22.5°C | 75.1% | 458.3hPa | 2.6V | 07:47:44 | 02:14:17 | 00:00:00 | |
| DL1XH1-15 | 2026-09-02 08:49:14 | 52.51573 | 8.70635 | 94° | 58km/h | 6379m | -6.1m/s | -22.5°C | 75.1% | 458hPa | 2.6V | 07:47:45 | 02:14:16 | 00:00:00 | |
| BIOWL1-15 | 2026-09-02 08:49:14 | 52.51568 | 8.70755 | 93° | 57km/h | 6351m | -5.5m/s | -22.3°C | 74.1% | 459.7hPa | 2.6V | 07:47:43 | 02:14:21 | 00:00:00 | |
| AA1-15 | 2026-09-02 08:49:11 | 52.51571 | 8.70684 | 94° | 58km/h | 6368m | -5.9m/s | -22.4°C | 76% | 458.7hPa | 2.6V | 07:47:43 | 02:14:18 | 00:00:00 | |
| DL1XH-west | 2026-09-02 08:49:10 | 52.51572 | 8.70660 | 95° | 58km/h | 6374m | -5.9m/s | -22.5°C | 76.3% | 458.3hPa | 2.6V | 07:48:34 | 02:14:17 | 00:00:00 | |
| DB0DAN | 2026-09-02 08:49:10 | 52.51572 | 8.70660 | 95° | 57km/h | 6373m | -5.9m/s | -22.5°C | 72.7% | 458.28hPa | 2.6V | 00:00:00 | 00:00:00 | 00:00:00 | |
| DO2JMG | 2026-09-02 08:49:07 | 52.51575 | 8.70587 | 94° | 58km/h | 6391m | -5.7m/s | -22.7°C | 76.9% | 457.3hPa | 2.6V | 07:48:34 | 02:14:14 | 00:00:00 | |
| HSKMA3-T | 2026-09-02 08:49:06 | 52.51576 | 8.70563 | 94° | 58km/h | 6397m | -5.9m/s | -22.7°C | 77.3% | 456.9hPa | 2.6V | 07:48:34 | 02:14:13 | 00:00:00 | |
| DL4BBY-15 | 2026-09-02 08:49:06 | 52.51576 | 8.70564 | 94° | 57km/h | 6396m | -5.8m/s | -23.2°C | 0% | 0hPa | 2.6V | 00:00:00 | 00:00:00 | 00:00:00 | |
| HTAHTA | 2026-09-02 08:49:05 | 52.51577 | 8.70540 | 93° | 57km/h | 6402m | -6.0m/s | -22.8°C | 73.8% | 456.6hPa | 2.6V | 00:00:00 | 00:00:00 | 00:00:00 | |
| DL1XH1-15 | 2026-09-02 08:49:04 | 52.51581 | 8.70397 | 90° | 57km/h | 6436m | -5.3m/s | -23.1°C | 77.9% | 454.5hPa | 2.6V | 07:47:55 | 02:14:06 | 00:00:00 | |
| BIOWL1-15 | 2026-09-02 08:49:03 | 52.51579 | 8.70492 | 93° | 58km/h | 6414m | -5.7m/s | -22.9°C | 77.7% | 455.9hPa | 2.6V | 07:48:34 | 02:14:10 | 00:00:00 | |
| AA1-15 | 2026-09-02 08:49:00 | 52.51581 | 8.70420 | 91° | 57km/h | 6431m | -5.5m/s | -23°C | 79.2% | 454.8hPa | 2.6V | 07:48:34 | 02:14:07 | 00:00:00 | |
| DL1XH-west | 2026-09-02 08:48:59 | 52.51581 | 8.70397 | 91° | 57km/h | 6436m | -5.3m/s | -23.1°C | 79.6% | 454.5hPa | 2.6V | 07:48:34 | 02:14:06 | 00:00:00 | |
| DO2JMG | 2026-09-02 08:48:57 | 52.51582 | 8.70350 | 92° | 57km/h | 6448m | -6m/s | -23.2°C | 79.7% | 453.7hPa | 2.6V | 07:48:34 | 02:14:04 | 00:00:00 | |
| HSKMA3-T | 2026-09-02 08:48:55 | 52.51582 | 8.70303 | 92° | 57km/h | 6460m | -6.1m/s | -23.3°C | 78.4% | 453hPa | 2.6V | 07:48:34 | 02:14:02 | 00:00:00 | |
| DB0DAN | 2026-09-02 08:48:55 | 52.51582 | 8.70303 | 92° | 53km/h | 6460m | -6.1m/s | -23.3°C | 74.2% | 453.02hPa | 2.6V | 00:00:00 | 00:00:00 | 00:00:00 | |
| DL1XH1-15 | 2026-09-02 08:48:54 | 52.51587 | 8.70166 | 93° | 55km/h | 6494m | -5.8m/s | -23.6°C | 77.3% | 450.9hPa | 2.6V | 07:48:05 | 02:13:56 | 00:00:00 | |
| BIOWL1-15 | 2026-09-02 08:48:54 | 52.51584 | 8.70234 | 93° | 57km/h | 6477m | -6m/s | -23.5°C | 78.7% | 452hPa | 2.6V | 07:48:34 | 02:13:59 | 00:00:00 | |
| DF5WG-10 | 2026-09-02 08:48:54 | 52.51583 | 8.70280 | 93° | 57km/h | 6466m | -5.9m/s | -23.3°C | 77.0% | 452.6hPa | 2.6V | 00:00:00 | 02:14:01 | 00:00:00 | |
| DL1LOL-11 | 2026-09-02 08:48:53 | 52.51583 | 8.70280 | 93° | 57km/h | 6466m | -5.9m/s | -23.4°C | 74.5% | 452.7hPa | 2.6V | 00:00:00 | 00:00:00 | 00:00:00 | |
| DN9WHV | 2026-09-02 08:48:52 | 52.51583 | 8.70257 | 94° | 57km/h | 6472m | -5.8m/s | -23.4°C | 74.7% | 452.3hPa | 2.6V | 07:48:00 | 00:00:00 | 00:00:00 | |
| DM0DOS-11 | 2026-09-02 08:48:51 | 52.51586 | 8.70188 | 92° | 55km/h | 6489m | -5.4m/s | -23.6°C | 77.2% | 451.2hPa | 2.6V | 07:48:04 | 02:13:57 | 00:00:00 | |
| AA1-15 | 2026-09-02 08:48:49 | 52.51587 | 8.70165 | 93° | 55km/h | 6494m | -5.8m/s | -23.6°C | 78.6% | 450.9hPa | 2.6V | 07:48:34 | 02:13:56 | 00:00:00 | |
| DL1XH-west | 2026-09-02 08:48:48 | 52.51588 | 8.70143 | 92° | 57km/h | 6500m | -5.9m/s | -23.7°C | 78.7% | 450.6hPa | 2.6V | 07:48:34 | 02:13:55 | 00:00:00 | |
| DO2JMG | 2026-09-02 08:48:46 | 52.51589 | 8.70096 | 92° | 57km/h | 6512m | -5.7m/s | -23.8°C | 79% | 449.9hPa | 2.6V | 07:48:34 | 02:13:53 | 00:00:00 | |
| GOEST3-10 | 2026-09-02 08:48:46 | 52.51589 | 8.70096 | 93° | 55km/h | 6512m | -5.7m/s | -23.7°C | 78.1% | 449.8hPa | 2.6V | 00:00:00 | 02:13:53 | 00:00:00 | |
| DM0DOS-11 | 2026-09-02 08:48:45 | 52.51592 | 8.69959 | 96° | 53km/h | 6546m | -5.3m/s | -24°C | 78.2% | 447.8hPa | 2.6V | 07:48:14 | 02:13:47 | 00:00:00 | |
| DL1XH1-15 | 2026-09-02 08:48:44 | 52.51594 | 8.69937 | 95° | 53km/h | 6551m | -5.4m/s | -24.1°C | 78.3% | 447.4hPa | 2.6V | 07:48:15 | 02:13:46 | 00:00:00 | |
| HSKMA3-T | 2026-09-02 08:48:44 | 52.51590 | 8.70050 | 93° | 55km/h | 6523m | -5.7m/s | -23.9°C | 79.5% | 449.1hPa | 2.6V | 07:48:34 | 02:13:51 | 00:00:00 | |
| BIOWL1-15 | 2026-09-02 08:48:41 | 52.51591 | 8.69981 | 94° | 55km/h | 6540m | -5.8m/s | -24°C | 79.8% | 448.1hPa | 2.6V | 07:48:34 | 02:13:48 | 00:00:00 | |
| DB0DAN | 2026-09-02 08:48:40 | 52.51592 | 8.69959 | 96° | 51km/h | 6546m | -5.3m/s | -24°C | 75.7% | 447.79hPa | 2.6V | 00:00:00 | 00:00:00 | 00:00:00 | |
| DB0NH | 2026-09-02 08:48:40 | 52.51592 | 8.69959 | 97° | 57km/h | 6546m | -5.3m/s | -24.0°C | 78.2% | 447.7hPa | 2.6V | 00:00:00 | 02:13:47 | 00:00:00 | |
| DL1XH-15 | 2026-09-02 08:48:39 | 52.51602 | 8.69827 | 96° | 53km/h | 6579m | -5.8m/s | -24.4°C | 79.5% | 445.7hPa | 2.6V | 07:48:20 | 02:13:41 | 00:00:00 | |
| AA1-15 | 2026-09-02 08:48:38 | 52.51595 | 8.69915 | 97° | 55km/h | 6557m | -5.8m/s | -24.1°C | 80.2% | 447hPa | 2.6V | 07:48:34 | 02:13:45 | 00:00:00 | |
| DL1XH-west | 2026-09-02 08:48:37 | 52.51597 | 8.69893 | 99° | 53km/h | 6562m | -5.3m/s | -24.2°C | 80.5% | 446.8hPa | 2.6V | 07:48:34 | 02:13:44 | 00:00:00 | |
| DO2JMG | 2026-09-02 08:48:36 | 52.51599 | 8.69871 | 97° | 53km/h | 6568m | -5.6m/s | -24.3°C | 80.6% | 446.4hPa | 2.6V | 07:48:34 | 02:13:43 | 00:00:00 | |
| DL4BBY-15 | 2026-09-02 08:48:36 | 52.51599 | 8.69871 | 98° | 53km/h | 6568m | -5.6m/s | -24.8°C | 0% | 0hPa | 2.6V | 00:00:00 | 00:00:00 | 00:00:00 | |
| DL8OAI-8 | 2026-09-02 08:48:35 | 52.51599 | 8.69871 | 98° | 53km/h | 6568m | -5.6m/s | -24.3°C | 76.2% | 446.4hPa | 2.6V | 00:00:00 | 00:00:00 | 00:00:00 | |
| DL1XH1-15 | 2026-09-02 08:48:34 | 52.51607 | 8.69719 | 93° | 51km/h | 6607m | -5.3m/s | -24.6°C | 81.4% | 444hPa | 2.6V | 07:48:25 | 02:13:36 | 00:00:00 | |
| HSKMA3-T | 2026-09-02 08:48:32 | 52.51605 | 8.69784 | 93° | 53km/h | 6591m | -5.6m/s | -24.5°C | 81.3% | 445hPa | 2.6V | 07:48:34 | 02:13:39 | 00:00:00 | |
| BIOWL1-15 | 2026-09-02 08:48:30 | 52.51606 | 8.69740 | 94° | 53km/h | 6602m | -5.6m/s | -24.6°C | 81.9% | 444.3hPa | 2.6V | 07:48:34 | 02:13:37 | 00:00:00 | |
| DL1XH-15 | 2026-09-02 08:48:29 | 52.51611 | 8.69608 | 95° | 55km/h | 6635m | -5.4m/s | -24.8°C | 81.2% | 442.3hPa | 2.6V | 07:48:30 | 02:13:31 | 00:00:00 | |
| AA1-15 | 2026-09-02 08:48:28 | 52.51608 | 8.69697 | 94° | 51km/h | 6613m | -5.6m/s | -24.6°C | 82.5% | 443.7hPa | 2.6V | 07:48:34 | 02:13:35 | 00:00:00 | |
| DL1XH-west | 2026-09-02 08:48:26 | 52.51609 | 8.69654 | 92° | 55km/h | 6624m | -5.5m/s | -24.7°C | 82.7% | 442.9hPa | 2.6V | 07:48:34 | 02:13:33 | 00:00:00 | |
| DO2JMG | 2026-09-02 08:48:25 | 52.51610 | 8.69631 | 92° | 55km/h | 6629m | -5.4m/s | -24.8°C | 82.8% | 442.7hPa | 2.6V | 07:48:34 | 02:13:32 | 00:00:00 | |
| DB0DAN | 2026-09-02 08:48:25 | 52.51610 | 8.69631 | 92° | 53km/h | 6629m | -5.4m/s | -24.8°C | 79% | 442.66hPa | 2.6V | 00:00:00 | 00:00:00 | 00:00:00 | |
| DL1XH1-15 | 2026-09-02 08:48:24 | 52.51617 | 8.69494 | 96° | 53km/h | 6663m | -6m/s | -25°C | 77.9% | 440.5hPa | 2.6V | 07:48:35 | 02:13:26 | 00:00:00 | |
| HSKMA3-T | 2026-09-02 08:48:20 | 52.51616 | 8.69516 | 96° | 55km/h | 6657m | -5.6m/s | -25°C | 81% | 440.9hPa | 2.6V | 07:48:34 | 02:13:27 | 00:00:00 | |
| DL1XH-west | 2026-09-02 08:48:16 | 52.51622 | 8.69432 | 94° | 49km/h | 6681m | -5.6m/s | -25.2°C | 77.1% | 439.5hPa | 2.5V | 07:49:25 | 02:13:23 | 00:00:00 | |
| DO2JMG | 2026-09-02 08:48:15 | 52.51623 | 8.69412 | 92° | 49km/h | 6686m | -5.6m/s | -25.2°C | 77% | 439.2hPa | 2.6V | 07:49:25 | 02:13:22 | 00:00:00 | |
| AA1-15 | 2026-09-02 08:48:14 | 52.51623 | 8.69391 | 89° | 51km/h | 6692m | -5.4m/s | -25.3°C | 76.9% | 438.8hPa | 2.6V | 07:49:25 | 02:13:21 | 00:00:00 | |
| DN9WHV | 2026-09-02 08:48:13 | 52.51623 | 8.69391 | 89° | 51km/h | 6692m | -5.4m/s | -25.3°C | 72.2% | 438.8hPa | 2.6V | 07:49:00 | 00:00:00 | 00:00:00 | |
| DB0DAN | 2026-09-02 08:48:10 | 52.51624 | 8.69298 | 95° | 55km/h | 6714m | -5.6m/s | -25.5°C | 70.7% | 437.44hPa | 2.6V | 00:00:00 | 00:00:00 | 00:00:00 | |
| HSKMA3-T | 2026-09-02 08:48:10 | 52.51624 | 8.69298 | 95° | 57km/h | 6714m | -5.6m/s | -25.5°C | 75.5% | 437.4hPa | 2.6V | 07:49:25 | 02:13:17 | 00:00:00 | |
| BIOWL1-15 | 2026-09-02 08:48:09 | 52.51626 | 8.69274 | 95° | 58km/h | 6720m | -6m/s | -25.5°C | 75.1% | 437.2hPa | 2.6V | 07:49:25 | 02:13:16 | 00:00:00 | |
| DL1XH-west | 2026-09-02 08:48:05 | 52.51631 | 8.69182 | 93° | 53km/h | 6744m | -5.6m/s | -25.8°C | 76% | 435.7hPa | 2.6V | 07:49:25 | 02:13:12 | 00:00:00 | |
| AA1-15 | 2026-09-02 08:48:04 | 52.51632 | 8.69160 | 92° | 53km/h | 6749m | -5.5m/s | -25.8°C | 76.3% | 435.4hPa | 2.6V | 07:49:25 | 02:13:11 | 00:00:00 | |
| DJ2DS-15 | 2026-09-02 08:48:04 | 52.51632 | 8.69160 | 92° | 53km/h | 6749m | -5.4m/s | -25.8°C | 74.1% | 435.3hPa | 2.6V | 07:48:00 | 02:13:11 | 00:00:00 | |
| HTAHTA | 2026-09-02 08:48:03 | 52.51632 | 8.69139 | 92° | 51km/h | 6755m | -5.8m/s | -25.9°C | 71.9% | 435.1hPa | 2.6V | 00:00:00 | 00:00:00 | 00:00:00 | |
| BUE01 | 2026-09-02 08:48:02 | 52.51633 | 8.69117 | 92° | 51km/h | 6760m | -5.7m/s | -25.9°C | 72.0% | 434.7hPa | 2.6V | 00:00:00 | 00:00:00 | 00:00:00 | |
| DM0DOS-11 | 2026-09-02 08:48:01 | 52.51633 | 8.69075 | 88° | 53km/h | 6772m | -6m/s | -26°C | 74.3% | 434hPa | 2.6V | 07:48:54 | 02:13:07 | 00:00:00 | |
| BIOWL1-15 | 2026-09-02 08:48:00 | 52.51632 | 8.69031 | 90° | 53km/h | 6784m | -5.3m/s | -26.1°C | 76.6% | 433.3hPa | 2.5V | 07:49:25 | 02:13:05 | 00:00:00 | |
| HSKMA3-T | 2026-09-02 08:48:00 | 52.51633 | 8.69075 | 88° | 53km/h | 6772m | -6m/s | -26°C | 76.6% | 434hPa | 2.6V | 07:49:25 | 02:13:07 | 00:00:00 | |
| DK9SH | 2026-09-02 08:47:59 | 52.51633 | 8.69075 | 89° | 53km/h | 6773m | -6.0m/s | -26.0°C | 71.6% | 434.0hPa | 2.6V | 07:49:00 | 00:00:00 | 00:00:00 | |
| DD8BA-10 | 2026-09-02 08:47:58 | 52.51632 | 8.69030 | 91° | 53km/h | 6784m | -5.2m/s | -26.1°C | 74.3% | 433.2hPa | 2.6V | 07:48:00 | 00:00:00 | 00:00:00 | |
| DO2LYB-13 | 2026-09-02 08:47:57 | 52.51632 | 8.69030 | 91° | 53km/h | 6784m | -5.3m/s | -26.1°C | 71.6% | 433.3hPa | 2.6V | 00:00:00 | 00:00:00 | 00:00:00 | |
| DM0DOS-11 | 2026-09-02 08:47:56 | 52.51629 | 8.68861 | 91° | 57km/h | 6830m | -6.2m/s | -26.5°C | 74.5% | 430.6hPa | 2.6V | 07:49:04 | 02:12:57 | 00:00:00 | |
| DB0DAN | 2026-09-02 08:47:55 | 52.51632 | 8.68969 | 88° | 46km/h | 6801m | -6.2m/s | -26.3°C | 71.3% | 432.3hPa | 2.6V | 00:00:00 | 00:00:00 | 00:00:00 | |
| DO2JMG | 2026-09-02 08:47:54 | 52.51632 | 8.68949 | 87° | 49km/h | 6807m | -6.3m/s | -26.3°C | 76.2% | 431.9hPa | 2.6V | 07:49:25 | 02:13:01 | 00:00:00 | |
| AA1-15 | 2026-09-02 08:47:53 | 52.51631 | 8.68928 | 85° | 51km/h | 6813m | -5.8m/s | -26.4°C | 76.1% | 431.5hPa | 2.6V | 07:49:25 | 02:13:00 | 00:00:00 | |
| HSKMA3-T | 2026-09-02 08:47:49 | 52.51630 | 8.68837 | 94° | 57km/h | 6836m | -6m/s | -26.6°C | 76% | 430.2hPa | 2.6V | 07:49:25 | 02:12:56 | 00:00:00 | |
| BIOWL1-15 | 2026-09-02 08:47:48 | 52.51631 | 8.68814 | 94° | 55km/h | 6842m | -5.8m/s | -26.6°C | 75.9% | 429.9hPa | 2.6V | 07:49:25 | 02:12:55 | 00:00:00 | |
| DD8BA-10 | 2026-09-02 08:47:48 | 52.51631 | 8.68814 | 94° | 55km/h | 6842m | -5.7m/s | -26.6°C | 74.6% | 429.8hPa | 2.6V | 00:00:00 | 00:00:00 | 00:00:00 | |
| DN9WHV | 2026-09-02 08:47:46 | 52.51632 | 8.68792 | 94° | 51km/h | 6848m | -5.5m/s | -26.6°C | 71.4% | 429.5hPa | 2.5V | 07:49:00 | 00:00:00 | 00:00:00 | |
| DM0DOS-11 | 2026-09-02 08:47:45 | 52.51625 | 8.68634 | 88° | 53km/h | 6887m | -5.6m/s | -26.9°C | 76.3% | 427.1hPa | 2.5V | 07:49:14 | 02:12:47 | 00:00:00 | |
| DL1XH1-15 | 2026-09-02 08:47:44 | 52.51624 | 8.68613 | 87° | 51km/h | 6893m | -5.5m/s | -26.9°C | 77.1% | 426.8hPa | 2.6V | 07:49:15 | 02:12:46 | 00:00:00 | |
| DL1XH-west | 2026-09-02 08:47:43 | 52.51628 | 8.68705 | 83° | 58km/h | 6870m | -5.8m/s | -26.7°C | 76.7% | 428.2hPa | 2.6V | 07:49:25 | 02:12:50 | 00:00:00 | |
| AA1-15 | 2026-09-02 08:47:42 | 52.51626 | 8.68681 | 86° | 58km/h | 6876m | -5.5m/s | -26.8°C | 77% | 427.8hPa | 2.6V | 07:49:25 | 02:12:49 | 00:00:00 | |
| DB0UT-7 | 2026-09-02 08:47:42 | 52.51626 | 8.68681 | 87° | 53km/h | 6876m | -5.5m/s | -26.7°C | 75.1% | 427.7hPa | 2.5V | 00:00:00 | 02:12:49 | 00:00:00 | |
| DB0DAN | 2026-09-02 08:47:40 | 52.51625 | 8.68634 | 88° | 51km/h | 6887m | -5.6m/s | -26.9°C | 73.6% | 427.15hPa | 2.5V | 00:00:00 | 00:00:00 | 00:00:00 | |
| HSKMA3-T | 2026-09-02 08:47:38 | 52.51624 | 8.68592 | 86° | 47km/h | 6898m | -5.6m/s | -27°C | 80.1% | 426.5hPa | 2.6V | 07:49:25 | 02:12:45 | 00:00:00 | |
| DD8BA-10 | 2026-09-02 08:47:38 | 52.51623 | 8.68592 | 86° | 51km/h | 6898m | -5.6m/s | -26.9°C | 77.8% | 426.4hPa | 2.5V | 00:00:00 | 00:00:00 | 00:00:00 | |
| DO2LYB-13 | 2026-09-02 08:47:37 | 52.51623 | 8.68592 | 87° | 47km/h | 6898m | -5.6m/s | -27.0°C | 75.0% | 426.5hPa | 2.5V | 00:00:00 | 00:00:00 | 00:00:00 | |
| DL4BBY-15 | 2026-09-02 08:47:36 | 52.51621 | 8.68553 | 85° | 51km/h | 6910m | -6.4m/s | -27.6°C | 0% | 0hPa | 2.5V | 00:00:00 | 00:00:00 | 00:00:00 | |
| DD1CC2-15 | 2026-09-02 08:47:35 | 52.51621 | 8.68553 | 85° | 47km/h | 6910m | -6.5m/s | -27.1°C | 75.8% | 425.9hPa | 2.5V | 07:49:00 | 00:00:00 | 00:00:00 | |
| DL1XH1-15 | 2026-09-02 08:47:34 | 52.51616 | 8.68402 | 80° | 55km/h | 6950m | -5.9m/s | -27.4°C | 83.7% | 423.5hPa | 2.5V | 07:49:25 | 02:12:36 | 00:00:00 | |
| DL1XH-west | 2026-09-02 08:47:33 | 52.51619 | 8.68493 | 91° | 51km/h | 6927m | -5.5m/s | -27.2°C | 82% | 424.8hPa | 2.6V | 07:49:25 | 02:12:40 | 00:00:00 | |
| DM0DOS-11 | 2026-09-02 08:47:32 | 52.51617 | 8.68425 | 83° | 57km/h | 6944m | -5.9m/s | -27.4°C | 82.7% | 423.8hPa | 2.6V | 07:49:24 | 02:12:37 | 00:00:00 | |
| DO2JMG | 2026-09-02 08:47:32 | 52.51619 | 8.68471 | 90° | 53km/h | 6933m | -5.4m/s | -27.3°C | 82.5% | 424.5hPa | 2.6V | 07:49:25 | 02:12:39 | 00:00:00 | |
| HSKMA3-T | 2026-09-02 08:47:28 | 52.51613 | 8.68380 | 80° | 53km/h | 6956m | -6.2m/s | -27.5°C | 86.4% | 423.1hPa | 2.6V | 07:50:16 | 02:12:35 | 00:00:00 | |
| DF8AY | 2026-09-02 08:47:27 | 52.51611 | 8.68359 | 79° | 47km/h | 6962m | -6.1m/s | -27.5°C | 87.3% | 422.7hPa | 2.6V | 07:51:07 | 02:12:34 | 00:00:00 | |
| DF5WG-10 | 2026-09-02 08:47:27 | 52.51611 | 8.68359 | 79° | 55km/h | 6962m | -6.1m/s | -27.5°C | 85.7% | 422.6hPa | 2.6V | 00:00:00 | 02:12:34 | 00:00:00 | |
| DN9WHV | 2026-09-02 08:47:26 | 52.51611 | 8.68359 | 80° | 47km/h | 6962m | -6.1m/s | -27.5°C | 82.6% | 422.7hPa | 2.6V | 07:50:00 | 00:00:00 | 00:00:00 | |
| DB0DAN | 2026-09-02 08:47:25 | 52.51607 | 8.68323 | 87° | 40km/h | 6974m | -5.9m/s | -27.6°C | 84.2% | 422.1hPa | 2.6V | 00:00:00 | 00:00:00 | 00:00:00 | |
| DM0DOS-11 | 2026-09-02 08:47:25 | 52.51611 | 8.68220 | 91° | 58km/h | 7003m | -6.1m/s | -27.9°C | 90.4% | 420.3hPa | 2.6V | 07:49:34 | 02:12:27 | 00:00:00 | |
| DL1XH1-15 | 2026-09-02 08:47:24 | 52.51610 | 8.68195 | 86° | 60km/h | 7009m | -6m/s | -28°C | 91.7% | 420hPa | 2.6V | 07:49:35 | 02:12:26 | 00:00:00 | |
| DL1XH-west | 2026-09-02 08:47:22 | 52.51609 | 8.68266 | 95° | 51km/h | 6991m | -5.6m/s | -27.8°C | 89.9% | 421hPa | 2.6V | 07:50:16 | 02:12:29 | 00:00:00 | |
| DO2JMG | 2026-09-02 08:47:21 | 52.51610 | 8.68244 | 93° | 55km/h | 6997m | -6m/s | -27.9°C | 90.2% | 420.7hPa | 2.6V | 07:50:16 | 02:12:28 | 00:00:00 | |
| DN9WHV | 2026-09-02 08:47:21 | 52.51610 | 8.68243 | 94° | 55km/h | 6997m | -6.0m/s | -27.9°C | 86.4% | 420.7hPa | 2.6V | 07:50:00 | 00:00:00 | 00:00:00 | |
| DL1XH-15 | 2026-09-02 08:47:19 | 52.51602 | 8.68079 | 80° | 53km/h | 7038m | -6.1m/s | -28.3°C | 97.9% | 418.2hPa | 2.6V | 07:49:40 | 02:12:21 | 00:00:00 | |
| HSKMA3-T | 2026-09-02 08:47:18 | 52.51609 | 8.68171 | 85° | 58km/h | 7015m | -5.9m/s | -28.1°C | 93.4% | 419.6hPa | 2.5V | 07:50:16 | 02:12:25 | 00:00:00 | |
| DF8AY | 2026-09-02 08:47:17 | 52.51608 | 8.68147 | 85° | 58km/h | 7021m | -6m/s | -28.1°C | 94.6% | 419.3hPa | 2.6V | 07:51:07 | 02:12:24 | 00:00:00 | |
| BIOWL1-15 | 2026-09-02 08:47:16 | 52.51606 | 8.68124 | 82° | 57km/h | 7027m | -6m/s | -28.2°C | 95.9% | 418.9hPa | 2.6V | 07:50:16 | 02:12:23 | 00:00:00 | |
| GOEST3-10 | 2026-09-02 08:47:16 | 52.51606 | 8.68123 | 83° | 53km/h | 7027m | -5.9m/s | -28.1°C | 96.2% | 418.9hPa | 2.6V | 00:00:00 | 02:12:23 | 00:00:00 | |
| DM0DOS-11 | 2026-09-02 08:47:15 | 52.51594 | 8.67999 | 85° | 46km/h | 7062m | -5.6m/s | -28.5°C | 99.6% | 416.9hPa | 2.6V | 07:49:44 | 02:12:17 | 00:00:00 | |
| DL1XH1-15 | 2026-09-02 08:47:14 | 52.51593 | 8.67980 | 86° | 46km/h | 7068m | -6.1m/s | -28.5°C | 0% | 416.5hPa | 2.6V | 07:49:45 | 02:12:16 | 00:00:00 | |
| DO2JMG | 2026-09-02 08:47:11 | 52.51595 | 8.68018 | 81° | 46km/h | 7056m | -5.7m/s | -28.4°C | 98.7% | 417.2hPa | 2.6V | 07:50:16 | 02:12:18 | 00:00:00 | |
| DB0DAN | 2026-09-02 08:47:10 | 52.51594 | 8.67999 | 85° | 44km/h | 7062m | -5.6m/s | -28.5°C | 96.1% | 416.86hPa | 2.6V | 00:00:00 | 00:00:00 | 00:00:00 | |
| AA1-15 | 2026-09-02 08:47:10 | 52.51594 | 8.67999 | 85° | 46km/h | 7062m | -5.6m/s | -28.5°C | 99.1% | 416.9hPa | 2.6V | 07:50:16 | 02:12:17 | 00:00:00 | |
| HSKMA3-T | 2026-09-02 08:47:08 | 52.51592 | 8.67961 | 85° | 49km/h | 7073m | -5.7m/s | -28.6°C | 100% | 416.2hPa | 2.6V | 07:50:16 | 02:12:15 | 00:00:00 | |
| BIOWL1-15 | 2026-09-02 08:47:08 | 52.51590 | 8.67919 | 86° | 53km/h | 7085m | -6.1m/s | -28.7°C | 93.3% | 415.5hPa | 2.6V | 07:50:16 | 02:12:13 | 00:00:00 | |
| DF8AY | 2026-09-02 08:47:07 | 52.51591 | 8.67940 | 85° | 51km/h | 7079m | -5.5m/s | -28.6°C | 99% | 415.9hPa | 2.5V | 07:51:07 | 02:12:14 | 00:00:00 | |
| DL4BBY-15 | 2026-09-02 08:47:06 | 52.51590 | 8.67919 | 86° | 49km/h | 7085m | -6.0m/s | -29.2°C | 0% | 0hPa | 2.5V | 00:00:00 | 00:00:00 | 00:00:00 | |
| DM0DOS-11 | 2026-09-02 08:47:05 | 52.51589 | 8.67784 | 91° | 53km/h | 7122m | -6m/s | -28.8°C | 82% | 413.4hPa | 2.5V | 07:49:54 | 02:12:07 | 00:00:00 | |
| DD1CC8 | 2026-09-02 08:47:05 | 52.51588 | 8.67874 | 88° | 55km/h | 7097m | -6.6m/s | -28.7°C | 81.6% | 414.8hPa | 2.6V | 00:00:00 | 00:00:00 | 00:00:00 | |
| DL1XH1-15 | 2026-09-02 08:47:04 | 52.51589 | 8.67762 | 91° | 51km/h | 7128m | -5.7m/s | -28.9°C | 82.2% | 413hPa | 2.6V | 07:49:55 | 02:12:06 | 00:00:00 | |
| DL1XH-west | 2026-09-02 08:47:00 | 52.51589 | 8.67784 | 91° | 53km/h | 7123m | -6m/s | -28.8°C | 83.6% | 413.4hPa | 2.5V | 07:50:16 | 02:12:07 | 00:00:00 | |
| DL1XH-15 | 2026-09-02 08:46:59 | 52.51588 | 8.67658 | 85° | 49km/h | 7158m | -6.2m/s | -29.1°C | 82.7% | 411.3hPa | 2.5V | 07:50:00 | 02:12:01 | 00:00:00 | |
| AA1-15 | 2026-09-02 08:46:59 | 52.51589 | 8.67762 | 92° | 51km/h | 7128m | -5.7m/s | -28.9°C | 83.7% | 413hPa | 2.6V | 07:50:16 | 02:12:06 | 00:00:00 | |
| HSKMA3-T | 2026-09-02 08:46:57 | 52.51589 | 8.67721 | 90° | 49km/h | 7140m | -5.9m/s | -29°C | 84.6% | 412.3hPa | 2.6V | 07:50:16 | 02:12:04 | 00:00:00 | |
| BIOWL1-15 | 2026-09-02 08:46:57 | 52.51589 | 8.67679 | 87° | 51km/h | 7152m | -6.3m/s | -29°C | 84.9% | 411.7hPa | 2.6V | 07:50:16 | 02:12:02 | 00:00:00 | |
| DF8AY | 2026-09-02 08:46:56 | 52.51589 | 8.67700 | 89° | 51km/h | 7146m | -6.3m/s | -29°C | 85% | 412hPa | 2.6V | 07:51:07 | 02:12:03 | 00:00:00 | |
| GOEST3-10 | 2026-09-02 08:46:56 | 52.51589 | 8.67699 | 89° | 49km/h | 7146m | -6.3m/s | -28.9°C | 83.4% | 412.0hPa | 2.6V | 00:00:00 | 02:12:03 | 00:00:00 | |
| DN9WHV | 2026-09-02 08:46:55 | 52.51589 | 8.67699 | 90° | 51km/h | 7146m | -6.3m/s | -29.0°C | 80.3% | 412.0hPa | 2.6V | 07:50:00 | 00:00:00 | 00:00:00 | |
| DB0DAN | 2026-09-02 08:46:55 | 52.51589 | 8.67679 | 87° | 47km/h | 7152m | -6.3m/s | -29°C | 80% | 411.68hPa | 2.6V | 00:00:00 | 00:00:00 | 00:00:00 | |
| DL1XH1-15 | 2026-09-02 08:46:54 | 52.51581 | 8.67561 | 84° | 47km/h | 7187m | -6.8m/s | -29.3°C | 79.3% | 409.6hPa | 2.6V | 07:50:05 | 02:11:56 | 00:00:00 | |
| DO2JMG | 2026-09-02 08:46:50 | 52.51582 | 8.67580 | 82° | 47km/h | 7181m | -6.3m/s | -29.3°C | 82.6% | 409.9hPa | 2.6V | 07:50:16 | 02:11:57 | 00:00:00 | |
| DL1XH-15 | 2026-09-02 08:46:49 | 52.51576 | 8.67463 | 85° | 47km/h | 7216m | -4.6m/s | -29.6°C | 80.9% | 408hPa | 2.6V | 07:50:10 | 02:11:51 | 00:00:00 | |
| AA1-15 | 2026-09-02 08:46:48 | 52.51580 | 8.67541 | 86° | 47km/h | 7194m | -6.3m/s | -29.4°C | 81.9% | 409.2hPa | 2.6V | 07:50:16 | 02:11:55 | 00:00:00 | |
| HSKMA3-T | 2026-09-02 08:46:47 | 52.51579 | 8.67522 | 85° | 49km/h | 7201m | -6.2m/s | -29.4°C | 81.6% | 408.9hPa | 2.6V | 07:50:16 | 02:11:54 | 00:00:00 | |
| BIOWL1-15 | 2026-09-02 08:46:47 | 52.51577 | 8.67482 | 85° | 47km/h | 7211m | -4.9m/s | -29.5°C | 81.7% | 408.2hPa | 2.5V | 07:50:16 | 02:11:52 | 00:00:00 | |
| DF8AY | 2026-09-02 08:46:46 | 52.51578 | 8.67502 | 85° | 47km/h | 7206m | -5.2m/s | -29.5°C | 81.5% | 408.5hPa | 2.6V | 07:51:07 | 02:11:53 | 00:00:00 | |
| GOEST3-10 | 2026-09-02 08:46:46 | 52.51578 | 8.67502 | 85° | 47km/h | 7206m | -5.2m/s | -29.4°C | 80.0% | 408.5hPa | 2.6V | 00:00:00 | 02:11:53 | 00:00:00 | |
| DM0DOS-11 | 2026-09-02 08:46:45 | 52.51572 | 8.67383 | 85° | 47km/h | 7234m | -4.3m/s | -29.7°C | 81.4% | 406.9hPa | 2.6V | 07:50:14 | 02:11:47 | 00:00:00 | |
| DJ2DS-15 | 2026-09-02 08:46:44 | 52.51576 | 8.67462 | 86° | 51km/h | 7216m | -4.6m/s | -29.5°C | 80.9% | 407.9hPa | 2.6V | 00:00:00 | 02:11:51 | 00:00:00 | |
| DO9LL-15 | 2026-09-02 08:46:43 | 52.51575 | 8.67443 | 85° | 51km/h | 7220m | -4.5m/s | -29.5°C | 81.2% | 407.6hPa | 2.6V | 00:00:00 | 02:11:50 | 00:00:00 | |
| DB0UT-7 | 2026-09-02 08:46:42 | 52.51574 | 8.67423 | 87° | 51km/h | 7225m | -4.6m/s | -29.6°C | 81.3% | 407.3hPa | 2.6V | 00:00:00 | 02:11:49 | 00:00:00 | |
| DB0DAN | 2026-09-02 08:46:40 | 52.51572 | 8.67383 | 85° | 46km/h | 7234m | -4.3m/s | -29.7°C | 78.2% | 406.95hPa | 2.6V | 00:00:00 | 00:00:00 | 00:00:00 | |
| DL1XH-west | 2026-09-02 08:46:40 | 52.51572 | 8.67383 | 85° | 49km/h | 7234m | -4.3m/s | -29.7°C | 82.4% | 406.9hPa | 2.6V | 07:50:16 | 02:11:47 | 00:00:00 | |
| DO2JMG | 2026-09-02 08:46:39 | 52.51571 | 8.67363 | 86° | 49km/h | 7238m | -4.4m/s | -29.7°C | 82.5% | 406.7hPa | 2.5V | 07:50:16 | 02:11:46 | 00:00:00 | |
| AA1-15 | 2026-09-02 08:46:37 | 52.51569 | 8.67323 | 86° | 49km/h | 7247m | -4.6m/s | -29.8°C | 82.5% | 406.2hPa | 2.6V | 07:51:07 | 02:11:44 | 00:00:00 | |
| HSKMA3-T | 2026-09-02 08:46:36 | 52.51569 | 8.67302 | 88° | 49km/h | 7252m | -4.5m/s | -29.9°C | 82.5% | 406hPa | 2.6V | 07:51:07 | 02:11:43 | 00:00:00 | |
| DD8BA-10 | 2026-09-02 08:46:36 | 52.51569 | 8.67302 | 88° | 51km/h | 7252m | -4.5m/s | -29.8°C | 81.4% | 406.0hPa | 2.6V | 07:50:00 | 00:00:00 | 00:00:00 | |
| DM0DOS-11 | 2026-09-02 08:46:35 | 52.51566 | 8.67175 | 89° | 51km/h | 7278m | -4.3m/s | -30.1°C | 82.4% | 404.4hPa | 2.6V | 07:50:24 | 02:11:37 | 00:00:00 | |
| BIOWL1-15 | 2026-09-02 08:46:34 | 52.51568 | 8.67260 | 87° | 51km/h | 7261m | -4.2m/s | -29.9°C | 82.6% | 405.4hPa | 2.6V | 07:51:07 | 02:11:41 | 00:00:00 | |
| DF8AY | 2026-09-02 08:46:32 | 52.51566 | 8.67218 | 88° | 53km/h | 7269m | -4.5m/s | -30°C | 82.9% | 404.9hPa | 2.6V | 07:51:07 | 02:11:39 | 00:00:00 | |
| DL1XH-west | 2026-09-02 08:46:29 | 52.51565 | 8.67153 | 90° | 53km/h | 7282m | -4.2m/s | -30.1°C | 82.9% | 404.2hPa | 2.6V | 07:51:07 | 02:11:36 | 00:00:00 | |
| HSKMA3-T | 2026-09-02 08:46:26 | 52.51564 | 8.67088 | 89° | 53km/h | 7295m | -4.5m/s | -30.2°C | 82.5% | 403.4hPa | 2.6V | 07:51:07 | 02:11:33 | 00:00:00 | |
| BIOWL1-15 | 2026-09-02 08:46:25 | 52.51563 | 8.67025 | 86° | 51km/h | 7308m | -4m/s | -30.3°C | 81% | 402.8hPa | 2.5V | 07:51:07 | 02:11:30 | 00:00:00 | |
| DB0DAN | 2026-09-02 08:46:25 | 52.51564 | 8.67067 | 87° | 49km/h | 7300m | -4.2m/s | -30.3°C | 79.5% | 403.15hPa | 2.6V | 00:00:00 | 00:00:00 | 00:00:00 | |
| DL1XH1-15 | 2026-09-02 08:46:24 | 52.51560 | 8.66941 | 88° | 51km/h | 7325m | -4.7m/s | -30.4°C | 79.4% | 401.8hPa | 2.6V | 07:50:35 | 02:11:26 | 00:00:00 | |
| DF8AY | 2026-09-02 08:46:21 | 52.51561 | 8.66983 | 89° | 51km/h | 7317m | -4.3m/s | -30.4°C | 80.5% | 402.2hPa | 2.6V | 07:51:07 | 02:11:28 | 00:00:00 | |
| GOEST3-10 | 2026-09-02 08:46:21 | 52.51561 | 8.66983 | 90° | 51km/h | 7317m | -4.2m/s | -30.3°C | 80.7% | 402.2hPa | 2.6V | 00:00:00 | 00:00:00 | 00:00:00 | |
| DN9WHV | 2026-09-02 08:46:20 | 52.51561 | 8.66983 | 90° | 51km/h | 7317m | -4.3m/s | -30.4°C | 77.5% | 402.2hPa | 2.6V | 07:51:00 | 00:00:00 | 00:00:00 | |
| DL1XH-15 | 2026-09-02 08:46:19 | 52.51560 | 8.66831 | 90° | 55km/h | 7347m | -3.8m/s | -30.5°C | 79.3% | 400.5hPa | 2.6V | 07:50:40 | 02:11:21 | 00:00:00 | |
| DL1XH-west | 2026-09-02 08:46:18 | 52.51560 | 8.66919 | 90° | 51km/h | 7330m | -4.2m/s | -30.4°C | 79.8% | 401.5hPa | 2.6V | 07:51:07 | 02:11:25 | 00:00:00 | |
| HSKMA3-T | 2026-09-02 08:46:15 | 52.51560 | 8.66854 | 92° | 55km/h | 7343m | -4.4m/s | -30.5°C | 80.2% | 400.8hPa | 2.6V | 07:51:07 | 02:11:22 | 00:00:00 | |
| BIOWL1-15 | 2026-09-02 08:46:15 | 52.51561 | 8.66809 | 92° | 55km/h | 7351m | -4.6m/s | -30.6°C | 80% | 400.3hPa | 2.5V | 07:51:07 | 02:11:20 | 00:00:00 | |
| DL1XH1-15 | 2026-09-02 08:46:14 | 52.51563 | 8.66717 | 93° | 55km/h | 7369m | -4.4m/s | -30.6°C | 78.1% | 399.3hPa | 2.6V | 07:50:45 | 02:11:16 | 00:00:00 | |
| DF8AY | 2026-09-02 08:46:11 | 52.51562 | 8.66763 | 93° | 55km/h | 7361m | -4.4m/s | -30.6°C | 79.6% | 399.7hPa | 2.6V | 07:51:07 | 02:11:18 | 00:00:00 | |
| DB0DAN | 2026-09-02 08:46:10 | 52.51563 | 8.66740 | 93° | 53km/h | 7365m | -4.3m/s | -30.6°C | 75.1% | 399.5hPa | 2.6V | 00:00:00 | 00:00:00 | 00:00:00 | |
| DL1XH-15 | 2026-09-02 08:46:09 | 52.51568 | 8.66605 | 94° | 55km/h | 7393m | -4.8m/s | -30.8°C | 75.8% | 398hPa | 2.6V | 07:50:50 | 02:11:11 | 00:00:00 | |
| DO2JMG | 2026-09-02 08:46:08 | 52.51564 | 8.66695 | 93° | 55km/h | 7374m | -4.7m/s | -30.7°C | 79% | 399hPa | 2.5V | 07:51:07 | 02:11:15 | 00:00:00 | |
| DL1XH-west | 2026-09-02 08:46:07 | 52.51565 | 8.66672 | 95° | 55km/h | 7379m | -4.8m/s | -30.7°C | 78.7% | 398.7hPa | 2.5V | 07:51:07 | 02:11:14 | 00:00:00 | |
| BIOWL1-15 | 2026-09-02 08:46:05 | 52.51570 | 8.66559 | 93° | 57km/h | 7402m | -4.6m/s | -30.8°C | 73.3% | 397.5hPa | 2.5V | 07:51:07 | 02:11:09 | 00:00:00 | |
| DM0DOS-11 | 2026-09-02 08:46:05 | 52.51571 | 8.66513 | 94° | 55km/h | 7411m | -4m/s | -30.8°C | 71% | 396.9hPa | 2.6V | 07:50:54 | 02:11:07 | 00:00:00 | |
| HSKMA3-T | 2026-09-02 08:46:04 | 52.51568 | 8.66605 | 94° | 55km/h | 7393m | -4.8m/s | -30.8°C | 76.4% | 398hPa | 2.6V | 07:51:07 | 02:11:11 | 00:00:00 | |
| DF8AY | 2026-09-02 08:46:00 | 52.51571 | 8.66513 | 95° | 55km/h | 7411m | -4m/s | -30.8°C | 71.8% | 396.9hPa | 2.6V | 07:51:07 | 02:11:07 | 00:00:00 | |
| DL1XH-15 | 2026-09-02 08:45:59 | 52.51579 | 8.66373 | 96° | 58km/h | 7437m | -4.3m/s | -30.9°C | 68.8% | 395.5hPa | 2.6V | 07:51:00 | 02:11:01 | 00:00:00 | |
| DO2JMG | 2026-09-02 08:45:57 | 52.51574 | 8.66444 | 95° | 57km/h | 7423m | -4.5m/s | -30.9°C | 71.5% | 396.2hPa | 2.6V | 07:51:07 | 02:11:04 | 00:00:00 | |
| DB0DAN | 2026-09-02 08:45:55 | 52.51577 | 8.66397 | 96° | 55km/h | 7432m | -4.3m/s | -30.9°C | 66.8% | 395.74hPa | 2.6V | 00:00:00 | 00:00:00 | 00:00:00 | |
| DM0DOS-11 | 2026-09-02 08:45:55 | 52.51587 | 8.66278 | 98° | 58km/h | 7454m | -4.5m/s | -31°C | 67.3% | 394.6hPa | 2.6V | 07:51:04 | 02:10:57 | 00:00:00 | |
| DL1XH1-15 | 2026-09-02 08:45:54 | 52.51589 | 8.66254 | 98° | 58km/h | 7458m | -4.5m/s | -31.1°C | 67.1% | 394.3hPa | 2.6V | 07:51:05 | 02:10:56 | 00:00:00 | |
| HSKMA3-T | 2026-09-02 08:45:54 | 52.51578 | 8.66373 | 97° | 58km/h | 7437m | -4.3m/s | -30.9°C | 70% | 395.5hPa | 2.6V | 07:51:07 | 02:11:01 | 00:00:00 | |
| BIOWL1-15 | 2026-09-02 08:45:52 | 52.51582 | 8.66326 | 99° | 57km/h | 7445m | -4.1m/s | -31°C | 69.1% | 395hPa | 2.6V | 07:51:07 | 02:10:59 | 00:00:00 | |
| DF8AY | 2026-09-02 08:45:50 | 52.51587 | 8.66278 | 98° | 58km/h | 7454m | -4.5m/s | -31°C | 69.2% | 394.6hPa | 2.6V | 07:51:07 | 02:10:57 | 00:00:00 | |
| DL1XH-west | 2026-09-02 08:45:47 | 52.51593 | 8.66206 | 99° | 58km/h | 7467m | -4.6m/s | -31.1°C | 68.5% | 393.8hPa | 2.5V | 07:51:07 | 02:10:54 | 00:00:00 | |
| DD8BA-10 | 2026-09-02 08:45:46 | 52.51595 | 8.66182 | 99° | 58km/h | 7471m | -4.3m/s | -31.1°C | 66.6% | 393.5hPa | 2.6V | 00:00:00 | 00:00:00 | 00:00:00 | |
| DO2JMG | 2026-09-02 08:45:46 | 52.51595 | 8.66182 | 98° | 58km/h | 7471m | -4.3m/s | -31.2°C | 68.4% | 393.6hPa | 2.6V | 07:51:58 | 02:10:53 | 00:00:00 | |
| DM0DOS-11 | 2026-09-02 08:45:45 | 52.51607 | 8.66038 | 96° | 57km/h | 7498m | -4.5m/s | -31.3°C | 62.2% | 392.1hPa | 2.6V | 07:51:14 | 02:10:47 | 00:00:00 | |
| DL1XH1-15 | 2026-09-02 08:45:44 | 52.51609 | 8.66015 | 98° | 57km/h | 7502m | -4.5m/s | -31.3°C | 60.8% | 391.9hPa | 2.6V | 07:51:15 | 02:10:46 | 00:00:00 | |
| HSKMA3-T | 2026-09-02 08:45:43 | 52.51601 | 8.66109 | 98° | 58km/h | 7484m | -4.6m/s | -31.3°C | 67.1% | 392.9hPa | 2.6V | 07:51:58 | 02:10:50 | 00:00:00 | |
| DB0UT-7 | 2026-09-02 08:45:42 | 52.51603 | 8.66085 | 98° | 58km/h | 7489m | -4.3m/s | -31.3°C | 65.1% | 392.5hPa | 2.6V | 07:51:00 | 02:10:49 | 00:00:00 | |
| DN9WHV | 2026-09-02 08:45:41 | 52.51603 | 8.66086 | 98° | 58km/h | 7489m | -4.4m/s | -31.3°C | 62.2% | 392.6hPa | 2.6V | 07:51:00 | 00:00:00 | 00:00:00 | |
| AA1-15 | 2026-09-02 08:45:41 | 52.51605 | 8.66062 | 97° | 58km/h | 7494m | -4.6m/s | -31.3°C | 65.1% | 392.3hPa | 2.6V | 07:51:58 | 02:10:48 | 00:00:00 | |
| DB0DAN | 2026-09-02 08:45:40 | 52.51607 | 8.66038 | 97° | 55km/h | 7498m | -4.5m/s | -31.3°C | 59.3% | 392.1hPa | 2.6V | 00:00:00 | 00:00:00 | 00:00:00 | |
| DF5WG-10 | 2026-09-02 08:45:40 | 52.51607 | 8.66038 | 97° | 57km/h | 7498m | -4.4m/s | -31.3°C | 62.2% | 392.0hPa | 2.6V | 00:00:00 | 02:10:47 | 00:00:00 | |
| DL1XH-15 | 2026-09-02 08:45:39 | 52.51620 | 8.65898 | 100° | 57km/h | 7524m | -4.5m/s | -31.3°C | 57.4% | 390.6hPa | 2.6V | 07:51:20 | 02:10:41 | 00:00:00 | |
| DF8AY | 2026-09-02 08:45:39 | 52.51609 | 8.66015 | 98° | 57km/h | 7502m | -4.5m/s | -31.3°C | 62.7% | 391.9hPa | 2.6V | 07:51:58 | 02:10:46 | 00:00:00 | |
| DL1XH-west | 2026-09-02 08:45:37 | 52.51613 | 8.65968 | 99° | 57km/h | 7511m | -4.4m/s | -31.3°C | 61% | 391.4hPa | 2.5V | 07:51:58 | 02:10:44 | 00:00:00 | |
| DO2JMG | 2026-09-02 08:45:36 | 52.51615 | 8.65945 | 101° | 57km/h | 7515m | -4.5m/s | -31.3°C | 60.5% | 391.1hPa | 2.6V | 07:51:58 | 02:10:43 | 00:00:00 | |
| SONCRA | 2026-09-02 08:45:36 | 52.51618 | 8.65921 | 99° | 57km/h | 7520m | -4.5m/s | -31.3°C | 54.8% | 390.9hPa | 2.6V | 00:00:00 | 00:00:00 | 00:00:00 | |
| DM0DOS-11 | 2026-09-02 08:45:35 | 52.51632 | 8.65804 | 101° | 58km/h | 7542m | -4.2m/s | -31.5°C | 57.5% | 389.7hPa | 2.6V | 07:51:24 | 02:10:37 | 00:00:00 | |
| DL1XH1-15 | 2026-09-02 08:45:34 | 52.51634 | 8.65781 | 100° | 58km/h | 7546m | -4.5m/s | -31.5°C | 57.1% | 389.6hPa | 2.6V | 07:51:25 | 02:10:36 | 00:00:00 | |
| HSKMA3-T | 2026-09-02 08:45:32 | 52.51626 | 8.65851 | 101° | 58km/h | 7533m | -4.4m/s | -31.4°C | 59.6% | 390.2hPa | 2.5V | 07:51:58 | 02:10:39 | 00:00:00 | |
| BIOWL1-15 | 2026-09-02 08:45:30 | 52.51632 | 8.65804 | 101° | 58km/h | 7542m | -4.2m/s | -31.5°C | 59.2% | 389.7hPa | 2.6V | 07:51:58 | 02:10:37 | 00:00:00 | |
| DF8AY | 2026-09-02 08:45:28 | 52.51637 | 8.65757 | 100° | 57km/h | 7551m | -4.5m/s | -31.5°C | 58.2% | 389.3hPa | 2.5V | 07:51:58 | 02:10:35 | 00:00:00 | |
| DL1XH-west | 2026-09-02 08:45:27 | 52.51639 | 8.65734 | 100° | 58km/h | 7555m | -4.3m/s | -31.5°C | 57.6% | 389hPa | 2.5V | 07:51:58 | 02:10:34 | 00:00:00 | |
| DO2JMG | 2026-09-02 08:45:26 | 52.51642 | 8.65710 | 100° | 58km/h | 7560m | -4.5m/s | -31.5°C | 56.8% | 388.7hPa | 2.6V | 07:51:58 | 02:10:33 | 00:00:00 | |
| DB0DAN | 2026-09-02 08:45:25 | 52.51645 | 8.65686 | 101° | 55km/h | 7564m | -4.2m/s | -31.5°C | 51.2% | 388.59hPa | 2.6V | 00:00:00 | 00:00:00 | 00:00:00 | |
| DL3AQ-11 | 2026-09-02 08:45:25 | 52.51647 | 8.65662 | 99° | 58km/h | 7568m | -4.0m/s | -31.5°C | 49.7% | 388.3hPa | 2.6V | 00:00:00 | 00:00:00 | 00:00:00 | |
| DL1XH1-15 | 2026-09-02 08:45:24 | 52.51660 | 8.65539 | 100° | 62km/h | 7589m | -4.4m/s | -31.5°C | 47.4% | 387.1hPa | 2.6V | 07:51:35 | 02:10:26 | 00:00:00 | |
| HSKMA3-T | 2026-09-02 08:45:22 | 52.51652 | 8.65613 | 100° | 60km/h | 7576m | -4.3m/s | -31.5°C | 53% | 387.8hPa | 2.5V | 07:51:58 | 02:10:29 | 00:00:00 | |
| BIOWL1-15 | 2026-09-02 08:45:20 | 52.51658 | 8.65564 | 100° | 62km/h | 7585m | -4.4m/s | -31.5°C | 51.1% | 387.4hPa | 2.6V | 07:51:58 | 02:10:27 | 00:00:00 | |
| AA1-15 | 2026-09-02 08:45:19 | 52.51660 | 8.65539 | 100° | 62km/h | 7589m | -4.4m/s | -31.5°C | 50.2% | 387.1hPa | 2.6V | 07:51:58 | 02:10:26 | 00:00:00 | |
| DL1XH-west | 2026-09-02 08:45:17 | 52.51666 | 8.65488 | 99° | 62km/h | 7598m | -4.2m/s | -31.5°C | 48.7% | 386.6hPa | 2.5V | 07:51:58 | 02:10:24 | 00:00:00 | |
| DO2JMG | 2026-09-02 08:45:15 | 52.51671 | 8.65437 | 100° | 62km/h | 7606m | -4.2m/s | -31.6°C | 47.2% | 386.2hPa | 2.6V | 07:51:58 | 02:10:22 | 00:00:00 | |
| DL3OBA | 2026-09-02 08:45:15 | 52.51671 | 8.65436 | 101° | 62km/h | 7607m | -4.2m/s | -31.6°C | 42.1% | 386.2hPa | 2.6V | 07:51:00 | 00:00:00 | 00:00:00 | |
| DL1XH1-15 | 2026-09-02 08:45:14 | 52.51688 | 8.65286 | 101° | 62km/h | 7632m | -4.4m/s | -31.7°C | 41.3% | 384.8hPa | 2.6V | 07:51:45 | 02:10:16 | 00:00:00 | |
| HSKMA3-T | 2026-09-02 08:45:11 | 52.51682 | 8.65336 | 100° | 60km/h | 7623m | -4m/s | -31.7°C | 45.2% | 385.3hPa | 2.5V | 07:51:58 | 02:10:18 | 00:00:00 | |
| DB0DAN | 2026-09-02 08:45:10 | 52.51685 | 8.65311 | 101° | 58km/h | 7627m | -4.2m/s | -31.7°C | 39.4% | 385.07hPa | 2.5V | 00:00:00 | 00:00:00 | 00:00:00 | |
| DF5WG-10 | 2026-09-02 08:45:10 | 52.51685 | 8.65311 | 101° | 62km/h | 7627m | -4.1m/s | -31.7°C | 41.8% | 385.0hPa | 2.5V | 00:00:00 | 02:10:17 | 00:00:00 | |
| DL1XH-15 | 2026-09-02 08:45:09 | 52.51704 | 8.65160 | 103° | 62km/h | 7653m | -4.3m/s | -31.9°C | 38.3% | 383.7hPa | 2.6V | 07:51:50 | 02:10:11 | 00:00:00 | |
| BIOWL1-15 | 2026-09-02 08:45:09 | 52.51688 | 8.65286 | 101° | 62km/h | 7632m | -4.4m/s | -31.7°C | 44.3% | 384.8hPa | 2.6V | 07:51:58 | 02:10:16 | 00:00:00 | |
| AA1-15 | 2026-09-02 08:45:08 | 52.51691 | 8.65261 | 102° | 62km/h | 7636m | -4.1m/s | -31.8°C | 43.7% | 384.6hPa | 2.6V | 07:51:58 | 02:10:15 | 00:00:00 | |
| DF8AY | 2026-09-02 08:45:07 | 52.51694 | 8.65236 | 102° | 62km/h | 7640m | -4.3m/s | -31.8°C | 43.1% | 384.3hPa | 2.5V | 07:51:58 | 02:10:14 | 00:00:00 | |
| DL1XH-west | 2026-09-02 08:45:06 | 52.51697 | 8.65211 | 101° | 62km/h | 7644m | -4.5m/s | -31.8°C | 42.5% | 384.1hPa | 2.5V | 07:51:58 | 02:10:13 | 00:00:00 | |
| DL4BBY-15 | 2026-09-02 08:45:06 | 52.51697 | 8.65211 | 102° | 62km/h | 7644m | -4.5m/s | -32.3°C | 0% | 0hPa | 2.5V | 00:00:00 | 00:00:00 | 00:00:00 | |
| DM0DOS-11 | 2026-09-02 08:45:05 | 52.51718 | 8.65060 | 103° | 62km/h | 7670m | -4.3m/s | -31.9°C | 36.3% | 382.7hPa | 2.5V | 07:51:54 | 02:10:07 | 00:00:00 | |
| DO2JMG | 2026-09-02 08:45:04 | 52.51704 | 8.65160 | 103° | 62km/h | 7653m | -4.3m/s | -31.9°C | 41.3% | 383.7hPa | 2.6V | 07:51:58 | 02:10:11 | 00:00:00 | |
| HSKMA3-T | 2026-09-02 08:45:01 | 52.51714 | 8.65085 | 103° | 62km/h | 7666m | -4.4m/s | -31.9°C | 39.6% | 382.9hPa | 2.5V | 07:51:58 | 02:10:08 | 00:00:00 | |
| BIOWL1-15 | 2026-09-02 08:45:00 | 52.51725 | 8.65010 | 103° | 62km/h | 7679m | -4.2m/s | -31.9°C | 39.2% | 382.2hPa | 2.6V | 07:51:58 | 02:10:05 | 00:00:00 | |
| DF5WG-10 | 2026-09-02 08:45:00 | 52.51718 | 8.65060 | 104° | 62km/h | 7670m | -4.3m/s | -31.9°C | 36.3% | 382.7hPa | 2.6V | 00:00:00 | 02:10:07 | 00:00:00 | |
| DL1XH-15 | 2026-09-02 08:44:59 | 52.51739 | 8.64911 | 103° | 62km/h | 7696m | -4.2m/s | -32°C | 35.4% | 381.3hPa | 2.6V | 07:52:00 | 02:10:01 | 00:00:00 | |
| DF8AY | 2026-09-02 08:44:57 | 52.51728 | 8.64986 | 103° | 62km/h | 7682m | -4.2m/s | -31.9°C | 38.9% | 382hPa | 2.6V | 07:51:58 | 02:10:04 | 00:00:00 | |
| DL1XH-west | 2026-09-02 08:44:56 | 52.51732 | 8.64961 | 103° | 62km/h | 7687m | -4.5m/s | -32°C | 38.8% | 381.8hPa | 2.5V | 07:51:58 | 02:10:03 | 00:00:00 | |
| DD8BA-10 | 2026-09-02 08:44:56 | 52.51732 | 8.64960 | 103° | 62km/h | 7687m | -4.4m/s | -31.9°C | 35.7% | 381.8hPa | 2.5V | 00:00:00 | 00:00:00 | 00:00:00 | |
| DM0DOS-11 | 2026-09-02 08:44:55 | 52.51754 | 8.64811 | 104° | 62km/h | 7712m | -4.1m/s | -32.1°C | 34.6% | 380.4hPa | 2.5V | 07:52:04 | 02:09:57 | 00:00:00 | |
| DB0DAN | 2026-09-02 08:44:55 | 52.51735 | 8.64936 | 104° | 58km/h | 7691m | -4.3m/s | -32°C | 33.3% | 381.58hPa | 2.5V | 00:00:00 | 00:00:00 | 00:00:00 | |
| DL1XH1-15 | 2026-09-02 08:44:54 | 52.51759 | 8.64786 | 105° | 62km/h | 7716m | -4.1m/s | -32.1°C | 34.5% | 380.2hPa | 2.5V | 07:52:05 | 02:09:56 | 00:00:00 | |
| DO2JMG | 2026-09-02 08:44:54 | 52.51739 | 8.64911 | 104° | 62km/h | 7696m | -4.2m/s | -32°C | 38.5% | 381.3hPa | 2.6V | 07:52:49 | 02:10:01 | 00:00:00 | |
| HSKMA3-T | 2026-09-02 08:44:50 | 52.51755 | 8.64811 | 105° | 62km/h | 7712m | -4.1m/s | -32.1°C | 37.7% | 380.4hPa | 2.5V | 07:52:49 | 02:09:57 | 00:00:00 | |
| DF5WG-10 | 2026-09-02 08:44:50 | 52.51755 | 8.64811 | 105° | 64km/h | 7712m | -4.1m/s | -32.0°C | 34.6% | 380.3hPa | 2.6V | 00:00:00 | 02:09:57 | 00:00:00 | |
| DL1XH-15 | 2026-09-02 08:44:49 | 52.51780 | 8.64659 | 105° | 64km/h | 7738m | -4.1m/s | -32.2°C | 34.2% | 379hPa | 2.6V | 07:52:10 | 02:09:51 | 00:00:00 | |
| BIOWL1-15 | 2026-09-02 08:44:47 | 52.51767 | 8.64735 | 105° | 64km/h | 7725m | -4.2m/s | -32.1°C | 37.4% | 379.7hPa | 2.6V | 07:52:49 | 02:09:54 | 00:00:00 | |
| DL1XH-west | 2026-09-02 08:44:46 | 52.51771 | 8.64710 | 105° | 64km/h | 7729m | -4.2m/s | -32.2°C | 37.4% | 379.5hPa | 2.5V | 07:52:49 | 02:09:53 | 00:00:00 | |
| DD8BA-10 | 2026-09-02 08:44:46 | 52.51771 | 8.64710 | 106° | 64km/h | 7729m | -4.2m/s | -32.1°C | 34.2% | 379.5hPa | 2.5V | 00:00:00 | 00:00:00 | 00:00:00 | |
| DN9WHV | 2026-09-02 08:44:45 | 52.51771 | 8.64710 | 106° | 64km/h | 7729m | -4.2m/s | -32.2°C | 32.1% | 379.5hPa | 2.6V | 07:52:00 | 00:00:00 | 00:00:00 | |
| DL1XH1-15 | 2026-09-02 08:44:44 | 52.51803 | 8.64534 | 107° | 64km/h | 7758m | -4.2m/s | -32.4°C | 34.2% | 377.9hPa | 2.6V | 07:52:15 | 02:09:46 | 00:00:00 | |
| DO2JMG | 2026-09-02 08:44:43 | 52.51784 | 8.64634 | 106° | 64km/h | 7742m | -4.1m/s | -32.3°C | 37.5% | 378.9hPa | 2.6V | 07:52:49 | 02:09:50 | 00:00:00 | |
| DO9LL-15 | 2026-09-02 08:44:43 | 52.51784 | 8.64634 | 107° | 64km/h | 7742m | -4.1m/s | -32.2°C | 34.3% | 378.8hPa | 2.6V | 00:00:00 | 02:09:50 | 00:00:00 | |
| DB0UT-7 | 2026-09-02 08:44:42 | 52.51788 | 8.64608 | 108° | 64km/h | 7746m | -4.3m/s | -32.3°C | 34.2% | 378.5hPa | 2.6V | 00:00:00 | 02:09:49 | 00:00:00 | |
| DN9WHV | 2026-09-02 08:44:41 | 52.51788 | 8.64608 | 108° | 62km/h | 7746m | -4.3m/s | -32.3°C | 32.0% | 378.6hPa | 2.6V | 07:52:00 | 00:00:00 | 00:00:00 | |
| DB0DAN | 2026-09-02 08:44:40 | 52.51798 | 8.64558 | 108° | 60km/h | 7754m | -4.1m/s | -32.3°C | 31.9% | 378.12hPa | 2.6V | 00:00:00 | 00:00:00 | 00:00:00 | |
| HSKMA3-T | 2026-09-02 08:44:39 | 52.51803 | 8.64534 | 108° | 64km/h | 7758m | -4.2m/s | -32.4°C | 37.5% | 377.9hPa | 2.6V | 07:52:49 | 02:09:46 | 00:00:00 | |
| BIOWL1-15 | 2026-09-02 08:44:36 | 52.51818 | 8.64459 | 110° | 62km/h | 7771m | -4.3m/s | -32.5°C | 37.5% | 377.2hPa | 2.5V | 07:52:49 | 02:09:43 | 00:00:00 | |
| DL1XH-west | 2026-09-02 08:44:35 | 52.51823 | 8.64435 | 109° | 62km/h | 7776m | -4.5m/s | -32.5°C | 37.5% | 377hPa | 2.5V | 07:52:49 | 02:09:42 | 00:00:00 | |
| DO2JMG | 2026-09-02 08:44:32 | 52.51839 | 8.64363 | 110° | 62km/h | 7789m | -4.4m/s | -32.6°C | 37.3% | 376.3hPa | 2.6V | 07:52:49 | 02:09:39 | 00:00:00 | |
| GOEST3-10 | 2026-09-02 08:44:31 | 52.51844 | 8.64338 | 111° | 62km/h | 7793m | -4.1m/s | -32.5°C | 34.1% | 376.1hPa | 2.5V | 00:00:00 | 00:00:00 | 00:00:00 | |
| DD1CC2-15 | 2026-09-02 08:44:30 | 52.51844 | 8.64338 | 112° | 62km/h | 7793m | -4.2m/s | -32.6°C | 31.9% | 376.1hPa | 2.5V | 07:52:00 | 00:00:00 | 00:00:00 | |
| DL1XH-15 | 2026-09-02 08:44:29 | 52.51878 | 8.64165 | 106° | 62km/h | 7825m | -4.1m/s | -32.9°C | 33.9% | 374.4hPa | 2.5V | 07:52:30 | 02:09:31 | 00:00:00 | |
| HSKMA3-T | 2026-09-02 08:44:29 | 52.51855 | 8.64290 | 109° | 62km/h | 7802m | -4.8m/s | -32.7°C | 37.3% | 375.6hPa | 2.5V | 07:52:49 | 02:09:36 | 00:00:00 | |
| DL4XJ-10 | 2026-09-02 08:44:29 | 52.51855 | 8.64290 | 109° | 64km/h | 7802m | -4.8m/s | -33.2°C | 0% | 0hPa | 2.6V | 00:00:00 | 00:00:00 | 00:00:00 | |
| DN9WHV | 2026-09-02 08:44:28 | 52.51855 | 8.64290 | 110° | 62km/h | 7802m | -4.8m/s | -32.7°C | 31.7% | 375.6hPa | 2.6V | 07:52:00 | 00:00:00 | 00:00:00 | |
| BIOWL9-15 | 2026-09-02 08:44:27 | 52.51864 | 8.64240 | 106° | 62km/h | 7811m | -4.8m/s | -32.7°C | 31.8% | 375.1hPa | 2.6V | 00:00:00 | 00:00:00 | 00:00:00 | |
| HTAHTA | 2026-09-02 08:44:26 | 52.51873 | 8.64190 | 106° | 62km/h | 7821m | -4.6m/s | -32.8°C | 31.8% | 374.6hPa | 2.6V | 00:00:00 | 00:00:00 | 00:00:00 | |
| DM0DOS-11 | 2026-09-02 08:44:25 | 52.51896 | 8.64064 | 107° | 64km/h | 7843m | -4.5m/s | -33°C | 33% | 373.4hPa | 2.6V | 07:52:34 | 02:09:27 | 00:00:00 | |
| DB0DAN | 2026-09-02 08:44:25 | 52.51873 | 8.64190 | 107° | 60km/h | 7821m | -4.6m/s | -32.8°C | 31.8% | 374.65hPa | 2.5V | 00:00:00 | 00:00:00 | 00:00:00 | |
| AA1-15 | 2026-09-02 08:44:25 | 52.51873 | 8.64190 | 107° | 62km/h | 7821m | -4.6m/s | -32.8°C | 37.2% | 374.6hPa | 2.5V | 07:52:49 | 02:09:32 | 00:00:00 | |
| DL1XH-west | 2026-09-02 08:44:24 | 52.51878 | 8.64165 | 106° | 62km/h | 7825m | -4.1m/s | -32.9°C | 37.2% | 374.4hPa | 2.5V | 07:52:49 | 02:09:31 | 00:00:00 | |
| DO2JMG | 2026-09-02 08:44:21 | 52.51891 | 8.64089 | 107° | 64km/h | 7839m | -4.7m/s | -32.9°C | 36.5% | 373.7hPa | 2.6V | 07:52:49 | 02:09:28 | 00:00:00 | |
| GOEST3-10 | 2026-09-02 08:44:21 | 52.51891 | 8.64089 | 107° | 64km/h | 7839m | -4.7m/s | -32.9°C | 33.3% | 373.6hPa | 2.6V | 00:00:00 | 00:00:00 | 00:00:00 | |
| DD1CC3-15 | 2026-09-02 08:44:20 | 52.51891 | 8.64089 | 108° | 64km/h | 7839m | -4.7m/s | -32.9°C | 31.1% | 373.7hPa | 2.6V | 07:52:00 | 00:00:00 | 00:00:00 | |
| DL1XH-15 | 2026-09-02 08:44:19 | 52.51925 | 8.63912 | 106° | 66km/h | 7871m | -4.6m/s | -33°C | 30.9% | 371.9hPa | 2.6V | 07:52:40 | 02:09:21 | 00:00:00 | |
| HSKMA3-T | 2026-09-02 08:44:18 | 52.51906 | 8.64014 | 107° | 64km/h | 7853m | -4.5m/s | -32.9°C | 34.9% | 372.9hPa | 2.5V | 07:52:49 | 02:09:25 | 00:00:00 | |
| BIOWL1-15 | 2026-09-02 08:44:17 | 52.51920 | 8.63937 | 108° | 64km/h | 7866m | -4.5m/s | -33°C | 34.4% | 372.2hPa | 2.5V | 07:52:49 | 02:09:22 | 00:00:00 | |
| DD8BA-10 | 2026-09-02 08:44:16 | 52.51916 | 8.63963 | 107° | 66km/h | 7862m | -4.8m/s | -32.9°C | 31.0% | 372.4hPa | 2.6V | 00:00:00 | 00:00:00 | 00:00:00 | |
| DM0DOS-11 | 2026-09-02 08:44:15 | 52.51945 | 8.63808 | 108° | 66km/h | 7889m | -4.5m/s | -33.1°C | 29.6% | 371hPa | 2.6V | 07:52:44 | 02:09:17 | 00:00:00 | |
| DL1XH1-15 | 2026-09-02 08:44:14 | 52.51950 | 8.63782 | 108° | 68km/h | 7894m | -4.7m/s | -33.1°C | 29.2% | 370.7hPa | 2.6V | 07:52:45 | 02:09:16 | 00:00:00 | |
| AA1-15 | 2026-09-02 08:44:14 | 52.51925 | 8.63912 | 107° | 66km/h | 7871m | -4.6m/s | -33°C | 34.3% | 371.9hPa | 2.6V | 07:52:49 | 02:09:21 | 00:00:00 | |
| DL1XH-west | 2026-09-02 08:44:13 | 52.51930 | 8.63886 | 108° | 66km/h | 7875m | -4.4m/s | -33°C | 34.1% | 371.7hPa | 2.6V | 07:52:49 | 02:09:20 | 00:00:00 | |
| DO2JMG | 2026-09-02 08:44:10 | 52.51945 | 8.63808 | 108° | 66km/h | 7889m | -4.5m/s | -33.1°C | 33.1% | 371hPa | 2.6V | 07:52:49 | 02:09:17 | 00:00:00 | |
| DB0DAN | 2026-09-02 08:44:10 | 52.51945 | 8.63808 | 108° | 62km/h | 7889m | -4.5m/s | -33.1°C | 27.5% | 370.99hPa | 2.6V | 00:00:00 | 00:00:00 | 00:00:00 | |
| HSKMA3-T | 2026-09-02 08:44:07 | 52.51961 | 8.63730 | 109° | 66km/h | 7903m | -4.6m/s | -33.1°C | 32.5% | 370.3hPa | 2.5V | 07:52:49 | 02:09:14 | 00:00:00 | |
| BIOWL1-15 | 2026-09-02 08:44:05 | 52.51972 | 8.63678 | 110° | 66km/h | 7912m | -4.9m/s | -33.2°C | 32.4% | 369.8hPa | 2.6V | 07:52:49 | 02:09:12 | 00:00:00 | |
| DL1XH1-15 | 2026-09-02 08:44:04 | 52.52005 | 8.63524 | 108° | 66km/h | 7940m | -4.6m/s | -33.4°C | 29% | 368.4hPa | 2.6V | 07:52:55 | 02:09:06 | 00:00:00 | |
| DF8AY | 2026-09-02 08:44:03 | 52.51983 | 8.63627 | 109° | 66km/h | 7921m | -4.7m/s | -33.3°C | 32.4% | 369.3hPa | 2.6V | 07:53:40 | 02:09:10 | 00:00:00 | |
| DL1XH-west | 2026-09-02 08:44:02 | 52.51989 | 8.63601 | 109° | 66km/h | 7926m | -4.8m/s | -33.3°C | 32.4% | 369hPa | 2.5V | 07:53:40 | 02:09:09 | 00:00:00 | |
| DO2JMG | 2026-09-02 08:43:59 | 52.52005 | 8.63524 | 109° | 66km/h | 7940m | -4.6m/s | -33.4°C | 32.4% | 368.4hPa | 2.6V | 07:53:40 | 02:09:06 | 00:00:00 | |
| BIOWL1-15 | 2026-09-02 08:43:57 | 52.52025 | 8.63422 | 108° | 66km/h | 7958m | -4.8m/s | -33.5°C | 32.3% | 367.3hPa | 2.5V | 07:53:40 | 02:09:02 | 00:00:00 | |
| HSKMA3-T | 2026-09-02 08:43:57 | 52.52015 | 8.63473 | 108° | 64km/h | 7949m | -4.5m/s | -33.5°C | 32.4% | 367.8hPa | 2.6V | 07:53:40 | 02:09:04 | 00:00:00 | |
| DD8BA-10 | 2026-09-02 08:43:56 | 52.52020 | 8.63447 | 109° | 68km/h | 7953m | -5.0m/s | -33.5°C | 28.8% | 367.5hPa | 2.5V | 07:52:00 | 00:00:00 | 00:00:00 | |
| DM0DOS-11 | 2026-09-02 08:43:55 | 52.52053 | 8.63290 | 109° | 68km/h | 7981m | -4.4m/s | -33.7°C | 28.5% | 366.1hPa | 2.5V | 07:53:04 | 02:08:57 | 00:00:00 | |
| DB0DAN | 2026-09-02 08:43:55 | 52.52025 | 8.63422 | 108° | 62km/h | 7958m | -4.8m/s | -33.5°C | 26.7% | 367.29hPa | 2.5V | 00:00:00 | 00:00:00 | 00:00:00 | |
| DL1XH-west | 2026-09-02 08:43:52 | 52.52042 | 8.63342 | 110° | 68km/h | 7972m | -4.2m/s | -33.6°C | 32.1% | 366.6hPa | 2.6V | 07:53:40 | 02:08:59 | 00:00:00 | |
| DO2JMG | 2026-09-02 08:43:48 | 52.52064 | 8.63237 | 109° | 68km/h | 7991m | -4.7m/s | -33.7°C | 31.6% | 365.7hPa | 2.6V | 07:53:40 | 02:08:55 | 00:00:00 | |
| HSKMA3-T | 2026-09-02 08:43:46 | 52.52075 | 8.63184 | 109° | 68km/h | 8000m | -4.6m/s | -33.8°C | 31.3% | 365.1hPa | 2.6V | 07:53:40 | 02:08:53 | 00:00:00 | |
| DD8BA-10 | 2026-09-02 08:43:46 | 52.52075 | 8.63184 | 110° | 68km/h | 8000m | -4.5m/s | -33.7°C | 28.0% | 365.1hPa | 2.6V | 00:00:00 | 00:00:00 | 00:00:00 | |
| DM0DOS-11 | 2026-09-02 08:43:45 | 52.52110 | 8.63028 | 109° | 68km/h | 8028m | -4.7m/s | -33.9°C | 27% | 363.7hPa | 2.6V | 07:53:14 | 02:08:47 | 00:00:00 | |
| DF5WG-10 | 2026-09-02 08:43:45 | 52.52081 | 8.63158 | 110° | 68km/h | 8005m | -4.5m/s | -33.8°C | 27.8% | 364.8hPa | 2.6V | 00:00:00 | 02:08:52 | 00:00:00 | |
| DL1XH1-15 | 2026-09-02 08:43:44 | 52.52115 | 8.63002 | 111° | 68km/h | 8033m | -4.5m/s | -34°C | 27% | 363.4hPa | 2.6V | 07:53:15 | 02:08:46 | 00:00:00 | |
| BIOWL1-15 | 2026-09-02 08:43:44 | 52.52087 | 8.63132 | 109° | 66km/h | 8009m | -4.5m/s | -33.8°C | 30.9% | 364.6hPa | 2.5V | 07:53:40 | 02:08:51 | 00:00:00 | |
| DL1XH-west | 2026-09-02 08:43:42 | 52.52098 | 8.63080 | 109° | 66km/h | 8019m | -4.7m/s | -33.9°C | 30.6% | 364.1hPa | 2.5V | 07:53:40 | 02:08:49 | 00:00:00 | |
| DB0UT-7 | 2026-09-02 08:43:42 | 52.52098 | 8.63080 | 110° | 68km/h | 8019m | -4.7m/s | -33.8°C | 27.1% | 364.1hPa | 2.5V | 00:00:00 | 02:08:49 | 00:00:00 | |
| DN9WHV | 2026-09-02 08:43:41 | 52.52098 | 8.63080 | 110° | 66km/h | 8019m | -4.7m/s | -33.9°C | 25.1% | 364.1hPa | 2.6V | 07:53:00 | 00:00:00 | 00:00:00 | |
| DB0DAN | 2026-09-02 08:43:40 | 52.52109 | 8.63028 | 110° | 64km/h | 8028m | -4.7m/s | -33.9°C | 25% | 363.72hPa | 2.6V | 00:00:00 | 00:00:00 | 00:00:00 | |
| DL1XH-15 | 2026-09-02 08:43:39 | 52.52145 | 8.62869 | 111° | 69km/h | 8056m | -4.8m/s | -34.2°C | 27% | 362.2hPa | 2.6V | 07:53:20 | 02:08:41 | 00:00:00 | |
| DF8AY | 2026-09-02 08:43:39 | 52.52115 | 8.63002 | 111° | 68km/h | 8033m | -4.5m/s | -34°C | 30.4% | 363.4hPa | 2.6V | 07:53:40 | 02:08:46 | 00:00:00 | |
| DO2JMG | 2026-09-02 08:43:38 | 52.52121 | 8.62975 | 110° | 68km/h | 8037m | -4.8m/s | -34°C | 30.4% | 363.2hPa | 2.5V | 07:53:40 | 02:08:45 | 00:00:00 | |
| BIOWL1-15 | 2026-09-02 08:43:37 | 52.52152 | 8.62843 | 110° | 68km/h | 8061m | -4.6m/s | -34.2°C | 30.4% | 362.1hPa | 2.6V | 07:53:40 | 02:08:40 | 00:00:00 | |
| HSKMA3-T | 2026-09-02 08:43:36 | 52.52133 | 8.62923 | 111° | 69km/h | 8047m | -5.1m/s | -34.1°C | 30.5% | 362.7hPa | 2.5V | 07:53:40 | 02:08:43 | 00:00:00 | |
| DD8BA-10 | 2026-09-02 08:43:36 | 52.52133 | 8.62923 | 111° | 68km/h | 8047m | -5.0m/s | -34.0°C | 27.0% | 362.6hPa | 2.6V | 00:00:00 | 00:00:00 | 00:00:00 | |
| DF5WG-10 | 2026-09-02 08:43:35 | 52.52139 | 8.62896 | 111° | 68km/h | 8052m | -4.5m/s | -34.1°C | 27.0% | 362.4hPa | 2.6V | 00:00:00 | 02:08:42 | 00:00:00 | |
| DL1XH1-15 | 2026-09-02 08:43:34 | 52.52177 | 8.62739 | 111° | 68km/h | 8079m | -4.7m/s | -34.4°C | 26.9% | 361hPa | 2.6V | 07:53:25 | 02:08:36 | 00:00:00 | |
| DL1XH-west | 2026-09-02 08:43:31 | 52.52164 | 8.62790 | 112° | 68km/h | 8070m | -4.4m/s | -34.3°C | 30.4% | 361.5hPa | 2.5V | 07:53:40 | 02:08:38 | 00:00:00 | |
| GOEST3-10 | 2026-09-02 08:43:31 | 52.52164 | 8.62790 | 113° | 68km/h | 8070m | -4.3m/s | -34.2°C | 26.9% | 361.5hPa | 2.5V | 00:00:00 | 00:00:00 | 00:00:00 | |
| DN9WHV | 2026-09-02 08:43:30 | 52.52171 | 8.62764 | 113° | 68km/h | 8075m | -4.8m/s | -34.3°C | 24.8% | 361.2hPa | 2.5V | 07:53:00 | 00:00:00 | 00:00:00 | |
| DL1XH-15 | 2026-09-02 08:43:29 | 52.52208 | 8.62610 | 111° | 68km/h | 8102m | -5m/s | -34.6°C | 26.3% | 359.8hPa | 2.5V | 07:53:30 | 02:08:31 | 00:00:00 | |
| DF8AY | 2026-09-02 08:43:28 | 52.52183 | 8.62713 | 111° | 68km/h | 8084m | -4.5m/s | -34.4°C | 30.2% | 360.8hPa | 2.6V | 07:53:40 | 02:08:35 | 00:00:00 | |
| DO2JMG | 2026-09-02 08:43:27 | 52.52189 | 8.62687 | 112° | 66km/h | 8088m | -4.4m/s | -34.5°C | 30.2% | 360.6hPa | 2.6V | 07:53:40 | 02:08:34 | 00:00:00 | |
| DD1CC8 | 2026-09-02 08:43:27 | 52.52189 | 8.62687 | 111° | 66km/h | 8088m | -4.4m/s | -34.5°C | 24.7% | 360.6hPa | 2.5V | 00:00:00 | 00:00:00 | 00:00:00 | |
| DD8BA-10 | 2026-09-02 08:43:26 | 52.52195 | 8.62662 | 112° | 68km/h | 8093m | -4.8m/s | -34.4°C | 26.6% | 360.2hPa | 2.5V | 00:00:00 | 00:00:00 | 00:00:00 | |
| DM0DOS-11 | 2026-09-02 08:43:25 | 52.52232 | 8.62505 | 110° | 68km/h | 8121m | -4.9m/s | -34.7°C | 25.9% | 358.9hPa | 2.5V | 07:53:34 | 02:08:27 | 00:00:00 | |
| HSKMA3-T | 2026-09-02 08:43:25 | 52.52202 | 8.62636 | 112° | 68km/h | 8098m | -4.8m/s | -34.5°C | 29.9% | 360hPa | 2.5V | 07:53:40 | 02:08:32 | 00:00:00 | |
| DB0DAN | 2026-09-02 08:43:25 | 52.52202 | 8.62636 | 111° | 64km/h | 8098m | -4.8m/s | -34.5°C | 24.4% | 360.04hPa | 2.5V | 00:00:00 | 00:00:00 | 00:00:00 | |
| BIOWL1-15 | 2026-09-02 08:43:22 | 52.52220 | 8.62558 | 111° | 68km/h | 8112m | -4.8m/s | -34.6°C | 29.4% | 359.4hPa | 2.6V | 07:53:40 | 02:08:29 | 00:00:00 | |
| DL1XH-west | 2026-09-02 08:43:20 | 52.52232 | 8.62505 | 111° | 69km/h | 8122m | -4.9m/s | -34.7°C | 29.3% | 358.9hPa | 2.5V | 07:53:40 | 02:08:27 | 00:00:00 | |
| DL1XH-15 | 2026-09-02 08:43:19 | 52.52270 | 8.62348 | 112° | 68km/h | 8150m | -4.7m/s | -34.9°C | 25.8% | 357.4hPa | 2.5V | 07:53:40 | 02:08:21 | 00:00:00 | |
| DO2JMG | 2026-09-02 08:43:16 | 52.52257 | 8.62399 | 113° | 68km/h | 8141m | -4.5m/s | -34.8°C | 29.2% | 357.9hPa | 2.6V | 07:53:40 | 02:08:23 | 00:00:00 | |
| DD8BA-10 | 2026-09-02 08:43:16 | 52.52257 | 8.62399 | 113° | 68km/h | 8141m | -4.4m/s | -34.8°C | 25.9% | 357.9hPa | 2.6V | 00:00:00 | 00:00:00 | 00:00:00 | |
| DM0DOS-11 | 2026-09-02 08:43:15 | 52.52294 | 8.62244 | 109° | 68km/h | 8169m | -4.6m/s | -35.1°C | 25.6% | 356.4hPa | 2.6V | 07:53:44 | 02:08:17 | 00:00:00 | |
| HSKMA3-T | 2026-09-02 08:43:14 | 52.52270 | 8.62348 | 112° | 68km/h | 8150m | -4.7m/s | -34.9°C | 29.2% | 357.4hPa | 2.5V | 07:53:40 | 02:08:21 | 00:00:00 | |
| BIOWL1-15 | 2026-09-02 08:43:12 | 52.52282 | 8.62296 | 111° | 66km/h | 8159m | -4.7m/s | -35°C | 29.1% | 356.9hPa | 2.5V | 07:54:31 | 02:08:19 | 00:00:00 | |
| DL1XH-west | 2026-09-02 08:43:10 | 52.52294 | 8.62244 | 109° | 68km/h | 8169m | -4.6m/s | -35.1°C | 29% | 356.4hPa | 2.6V | 07:54:31 | 02:08:17 | 00:00:00 | |
| DB0DAN | 2026-09-02 08:43:10 | 52.52294 | 8.62244 | 109° | 64km/h | 8169m | -4.6m/s | -35.1°C | 23.5% | 356.43hPa | 2.6V | 00:00:00 | 00:00:00 | 00:00:00 | |
| DF8AY | 2026-09-02 08:43:06 | 52.52316 | 8.62138 | 109° | 68km/h | 8188m | -5m/s | -35.3°C | 28.8% | 355.4hPa | 2.5V | 07:54:31 | 02:08:13 | 00:00:00 | |
| BIOWL1-15 | 2026-09-02 08:43:03 | 52.52340 | 8.62032 | 110° | 69km/h | 8207m | -4.7m/s | -35.4°C | 28.5% | 354.4hPa | 2.5V | 07:54:31 | 02:08:09 | 00:00:00 | |
| HSKMA3-T | 2026-09-02 08:43:03 | 52.52334 | 8.62059 | 110° | 68km/h | 8202m | -4.9m/s | -35.3°C | 28.5% | 354.7hPa | 2.6V | 07:54:31 | 02:08:10 | 00:00:00 | |
| BIOWL1-15 | 2026-09-02 08:43:00 | 52.52401 | 8.61734 | 107° | 69km/h | 8259m | -4.8m/s | -35.8°C | 28.4% | 351.7hPa | 2.6V | 07:54:31 | 02:07:58 | 00:00:00 | |
| DL1XH-west | 2026-09-02 08:42:59 | 52.52357 | 8.61952 | 109° | 69km/h | 8221m | -4.9m/s | -35.5°C | 28.2% | 353.7hPa | 2.6V | 07:54:31 | 02:08:06 | 00:00:00 | |
| DL3AQ-11 | 2026-09-02 08:42:58 | 52.52369 | 8.61898 | 109° | 69km/h | 8231m | -4.6m/s | -35.5°C | 22.7% | 353.2hPa | 2.5V | 00:00:00 | 00:00:00 | 00:00:00 | |
| DD1CC8 | 2026-09-02 08:42:56 | 52.52375 | 8.61871 | 108° | 69km/h | 8235m | -4.8m/s | -35.6°C | 22.7% | 353.0hPa | 2.5V | 00:00:00 | 00:00:00 | 00:00:00 | |
| DB0DAN | 2026-09-02 08:42:55 | 52.52380 | 8.61844 | 108° | 66km/h | 8240m | -4.9m/s | -35.6°C | 22.8% | 352.77hPa | 2.5V | 00:00:00 | 00:00:00 | 00:00:00 | |
| DO2JMG | 2026-09-02 08:42:55 | 52.52380 | 8.61844 | 108° | 69km/h | 8240m | -4.9m/s | -35.6°C | 28.2% | 352.8hPa | 2.5V | 07:54:31 | 02:08:02 | 00:00:00 | |
| DF8AY | 2026-09-02 08:42:53 | 52.52391 | 8.61789 | 107° | 69km/h | 8250m | -4.8m/s | -35.7°C | 28.3% | 0hPa | 2.6V | 07:54:31 | 02:08:00 | 00:00:00 | |
| HSKMA3-T | 2026-09-02 08:42:52 | 52.52396 | 8.61762 | 108° | 69km/h | 8255m | -4.7m/s | -35.8°C | 28.3% | 352hPa | 2.6V | 07:54:31 | 02:07:59 | 00:00:00 | |
| DL1XH-west | 2026-09-02 08:42:48 | 52.52416 | 8.61653 | 107° | 69km/h | 8273m | -5m/s | -35.9°C | 28.3% | 351.1hPa | 2.5V | 07:54:31 | 02:07:55 | 00:00:00 | |
| DD1CC2-15 | 2026-09-02 08:42:47 | 52.52417 | 8.61653 | 108° | 69km/h | 8273m | -5.0m/s | -35.9°C | 22.9% | 351.1hPa | 2.6V | 07:54:00 | 00:00:00 | 00:00:00 | |
| DD8BA-10 | 2026-09-02 08:42:46 | 52.52427 | 8.61599 | 108° | 69km/h | 8283m | -4.5m/s | -36.0°C | 24.9% | 350.6hPa | 2.6V | 00:00:00 | 00:00:00 | 00:00:00 | |
| DM0DOS-11 | 2026-09-02 08:42:45 | 52.52459 | 8.61433 | 107° | 69km/h | 8312m | -4.8m/s | -36.2°C | 24.1% | 349.2hPa | 2.6V | 07:54:14 | 02:07:47 | 00:00:00 | |
| BIOWL1-15 | 2026-09-02 08:42:44 | 52.52459 | 8.61433 | 108° | 69km/h | 8312m | -4.8m/s | -36.2°C | 27.2% | 349.2hPa | 2.6V | 07:54:31 | 02:07:47 | 00:00:00 | |
| DO2JMG | 2026-09-02 08:42:44 | 52.52438 | 8.61544 | 108° | 69km/h | 8292m | -4.8m/s | -36.1°C | 27.8% | 350.1hPa | 2.5V | 07:54:31 | 02:07:51 | 00:00:00 | |
| DF8AY | 2026-09-02 08:42:43 | 52.52443 | 8.61517 | 107° | 69km/h | 8297m | -4.9m/s | -36.1°C | 27.7% | 0hPa | 2.5V | 07:54:31 | 02:07:50 | 00:00:00 | |
| HSKMA3-T | 2026-09-02 08:42:41 | 52.52454 | 8.61461 | 108° | 71km/h | 8307m | -4.7m/s | -36.2°C | 27.3% | 349.4hPa | 2.6V | 07:54:31 | 02:07:48 | 00:00:00 | |
| DB0DAN | 2026-09-02 08:42:40 | 52.52459 | 8.61433 | 108° | 68km/h | 8312m | -4.8m/s | -36.2°C | 22% | 349.18hPa | 2.6V | 00:00:00 | 00:00:00 | 00:00:00 | |
| DL1XH-15 | 2026-09-02 08:42:39 | 52.52491 | 8.61268 | 107° | 69km/h | 8340m | -4.6m/s | -36.5°C | 23.1% | 347.7hPa | 2.6V | 07:54:20 | 02:07:41 | 00:00:00 | |
| DL1XH-west | 2026-09-02 08:42:38 | 52.52470 | 8.61378 | 107° | 69km/h | 8321m | -4.9m/s | -36.3°C | 26.9% | 348.6hPa | 2.5V | 07:54:31 | 02:07:45 | 00:00:00 | |
| AA1-15 | 2026-09-02 08:42:37 | 52.52475 | 8.61351 | 108° | 69km/h | 8326m | -4.8m/s | -36.3°C | 26.7% | 348.4hPa | 2.5V | 07:54:31 | 02:07:44 | 00:00:00 | |
| DD8BA-10 | 2026-09-02 08:42:36 | 52.52480 | 8.61323 | 107° | 69km/h | 8330m | -4.7m/s | -36.3°C | 23.4% | 348.1hPa | 2.5V | 07:54:00 | 00:00:00 | 00:00:00 | |
| DM0DOS-11 | 2026-09-02 08:42:35 | 52.52513 | 8.61159 | 109° | 69km/h | 8359m | -4.7m/s | -36.6°C | 22% | 346.8hPa | 2.5V | 07:54:24 | 02:07:37 | 00:00:00 | |
| D01LWL | 2026-09-02 08:42:35 | 52.52491 | 8.61268 | 107° | 68km/h | 8340m | -4.6m/s | -36.5°C | 21.0% | 347.7hPa | 2.6V | 00:00:00 | 00:00:00 | 00:00:00 | |
| DL1XH1-15 | 2026-09-02 08:42:34 | 52.52519 | 8.61131 | 109° | 71km/h | 8363m | -4.8m/s | -36.6°C | 21.8% | 346.5hPa | 2.6V | 07:54:25 | 02:07:36 | 00:00:00 | |
| DO2JMG | 2026-09-02 08:42:34 | 52.52491 | 8.61268 | 108° | 69km/h | 8340m | -4.6m/s | -36.5°C | 26.1% | 347.7hPa | 2.6V | 07:54:31 | 02:07:41 | 00:00:00 | |
| DF8AY | 2026-09-02 08:42:33 | 52.52496 | 8.61241 | 108° | 69km/h | 8345m | -4.8m/s | -36.5°C | 25.8% | 0hPa | 2.6V | 07:54:31 | 02:07:40 | 00:00:00 | |
| HSKMA3-T | 2026-09-02 08:42:31 | 52.52507 | 8.61186 | 109° | 69km/h | 8354m | -4.6m/s | -36.5°C | 25.2% | 347hPa | 2.5V | 07:54:31 | 02:07:38 | 00:00:00 | |
| BIOWL1-15 | 2026-09-02 08:42:30 | 52.52513 | 8.61159 | 110° | 69km/h | 8359m | -4.7m/s | -36.6°C | 24.9% | 346.8hPa | 2.5V | 07:54:31 | 02:07:37 | 00:00:00 | |
| DL1XH-west | 2026-09-02 08:42:28 | 52.52525 | 8.61104 | 110° | 71km/h | 8368m | -4.8m/s | -36.7°C | 24.7% | 346.3hPa | 2.6V | 07:54:31 | 02:07:35 | 00:00:00 | |
| AA1-15 | 2026-09-02 08:42:26 | 52.52537 | 8.61048 | 110° | 71km/h | 8378m | -4.5m/s | -36.7°C | 24.5% | 345.8hPa | 2.5V | 07:54:31 | 02:07:33 | 00:00:00 | |
| DD8BA-10 | 2026-09-02 08:42:26 | 52.52537 | 8.61048 | 110° | 71km/h | 8378m | -4.5m/s | -36.7°C | 21.6% | 345.8hPa | 2.5V | 00:00:00 | 00:00:00 | 00:00:00 | |
| DF5WG-10 | 2026-09-02 08:42:25 | 52.52543 | 8.61020 | 109° | 69km/h | 8383m | -4.8m/s | -36.7°C | 21.6% | 345.5hPa | 2.5V | 00:00:00 | 02:07:32 | 00:00:00 | |
| DB0DAN | 2026-09-02 08:42:25 | 52.52543 | 8.61020 | 108° | 68km/h | 8382m | -4.9m/s | -36.8°C | 19.5% | 345.55hPa | 2.5V | 00:00:00 | 00:00:00 | 00:00:00 | |
| DL1XH1-15 | 2026-09-02 08:42:24 | 52.52575 | 8.60852 | 106° | 69km/h | 8411m | -4.6m/s | -37°C | 21.1% | 344.2hPa | 2.5V | 07:54:35 | 02:07:26 | 00:00:00 | |
| DO2JMG | 2026-09-02 08:42:23 | 52.52554 | 8.60964 | 107° | 71km/h | 8392m | -4.8m/s | -36.9°C | 24.1% | 345.1hPa | 2.6V | 07:54:31 | 02:07:30 | 00:00:00 | |
| BIOWL1-15 | 2026-09-02 08:42:21 | 52.52575 | 8.60852 | 107° | 69km/h | 8411m | -4.6m/s | -37°C | 23.9% | 344.2hPa | 2.5V | 07:55:22 | 02:07:26 | 00:00:00 | |
| HSKMA3-T | 2026-09-02 08:42:20 | 52.52570 | 8.60880 | 107° | 69km/h | 8406m | -4.6m/s | -37°C | 23.9% | 344.5hPa | 2.5V | 07:55:22 | 02:07:27 | 00:00:00 | |
| DL1XH-west | 2026-09-02 08:42:17 | 52.52585 | 8.60797 | 107° | 69km/h | 8420m | -4.6m/s | -37.1°C | 23.8% | 343.7hPa | 2.6V | 07:55:22 | 02:07:24 | 00:00:00 | |
| DD8BA-10 | 2026-09-02 08:42:16 | 52.52590 | 8.60770 | 108° | 69km/h | 8425m | -4.5m/s | -37.1°C | 20.9% | 343.5hPa | 2.6V | 00:00:00 | 00:00:00 | 00:00:00 | |
| DM0DOS-11 | 2026-09-02 08:42:15 | 52.52623 | 8.60605 | 108° | 69km/h | 8453m | -4.9m/s | -37.4°C | 21% | 342.1hPa | 2.6V | 07:54:44 | 02:07:17 | 00:00:00 | |
| AA1-15 | 2026-09-02 08:42:15 | 52.52595 | 8.60742 | 107° | 69km/h | 8429m | -4.8m/s | -37.2°C | 23.7% | 343.3hPa | 2.6V | 07:55:22 | 02:07:22 | 00:00:00 | |
| DF5WG-10 | 2026-09-02 08:42:14 | 52.52601 | 8.60715 | 108° | 69km/h | 8434m | -4.6m/s | -37.2°C | 20.8% | 343.0hPa | 2.5V | 00:00:00 | 02:07:21 | 00:00:00 | |
| DO9LL-15 | 2026-09-02 08:42:13 | 52.52606 | 8.60687 | 108° | 69km/h | 8439m | -4.6m/s | -37.2°C | 20.9% | 342.8hPa | 2.5V | 00:00:00 | 02:07:20 | 00:00:00 | |
| DL1NUX | 2026-09-02 08:42:12 | 52.52639 | 8.60523 | 108° | 69km/h | 8467m | -5.1m/s | -37.5°C | 21% | 341.4hPa | 2.5V | 07:54:47 | 02:07:14 | 00:00:00 | |
| DO2JMG | 2026-09-02 08:42:12 | 52.52611 | 8.60660 | 109° | 69km/h | 8443m | -4.6m/s | -37.3°C | 23.8% | 342.6hPa | 2.5V | 07:55:22 | 02:07:19 | 00:00:00 | |
| DB0UT-7 | 2026-09-02 08:42:12 | 52.52611 | 8.60660 | 110° | 69km/h | 8444m | -4.6m/s | -37.2°C | 20.9% | 342.5hPa | 2.5V | 00:00:00 | 00:00:00 | 00:00:00 | |
| DN9WHV | 2026-09-02 08:42:11 | 52.52612 | 8.60660 | 110° | 69km/h | 8444m | -4.6m/s | -37.3°C | 18.9% | 342.6hPa | 2.6V | 07:55:00 | 00:00:00 | 00:00:00 | |
| DB0DAN | 2026-09-02 08:42:10 | 52.52623 | 8.60605 | 108° | 66km/h | 8453m | -4.9m/s | -37.4°C | 18.9% | 342.13hPa | 2.6V | 00:00:00 | 00:00:00 | 00:00:00 | |
| DL1XH-15 | 2026-09-02 08:42:09 | 52.52655 | 8.60441 | 107° | 69km/h | 8482m | -5.1m/s | -37.6°C | 21% | 340.6hPa | 2.6V | 07:54:50 | 02:07:11 | 00:00:00 | |
| HSKMA3-T | 2026-09-02 08:42:09 | 52.52628 | 8.60578 | 108° | 69km/h | 8458m | -4.6m/s | -37.4°C | 23.9% | 341.9hPa | 2.6V | 07:55:22 | 02:07:16 | 00:00:00 | |
| BIOWL1-15 | 2026-09-02 08:42:08 | 52.52634 | 8.60550 | 108° | 69km/h | 8462m | -4.5m/s | -37.5°C | 23.9% | 341.6hPa | 2.5V | 07:55:22 | 02:07:15 | 00:00:00 | |
| DL1XH-west | 2026-09-02 08:42:07 | 52.52639 | 8.60523 | 109° | 69km/h | 8467m | -5.1m/s | -37.5°C | 23.9% | 341.4hPa | 2.5V | 07:55:22 | 02:07:14 | 00:00:00 | |
| DD8BA-10 | 2026-09-02 08:42:06 | 52.52644 | 8.60495 | 108° | 69km/h | 8472m | -5.1m/s | -37.5°C | 21.0% | 341.2hPa | 2.6V | 00:00:00 | 00:00:00 | 00:00:00 | |
| DM0DOS-11 | 2026-09-02 08:42:05 | 52.52675 | 8.60332 | 107° | 68km/h | 8501m | -5.1m/s | -37.8°C | 20.9% | 339.7hPa | 2.6V | 07:54:54 | 02:07:07 | 00:00:00 | |
| DL3AQ-11 | 2026-09-02 08:42:05 | 52.52655 | 8.60441 | 107° | 69km/h | 8482m | -5.1m/s | -37.6°C | 19.0% | 340.7hPa | 2.6V | 00:00:00 | 00:00:00 | 00:00:00 | |
| DL1XH1-15 | 2026-09-02 08:42:04 | 52.52681 | 8.60305 | 107° | 69km/h | 8507m | -4.8m/s | -37.8°C | 20.7% | 339.5hPa | 2.6V | 07:54:55 | 02:07:06 | 00:00:00 | |
| AA1-15 | 2026-09-02 08:42:04 | 52.52655 | 8.60441 | 107° | 69km/h | 8482m | -5.1m/s | -37.6°C | 24% | 340.7hPa | 2.6V | 07:55:22 | 02:07:11 | 00:00:00 | |
| D01LWL | 2026-09-02 08:42:04 | 52.52660 | 8.60413 | 106° | 68km/h | 8487m | -4.7m/s | -37.7°C | 18.9% | 340.4hPa | 2.6V | 00:00:00 | 00:00:00 | 00:00:00 | |
| DL1NUX | 2026-09-02 08:42:02 | 52.52691 | 8.60250 | 108° | 69km/h | 8516m | -4.5m/s | -37.9°C | 20.8% | 339.1hPa | 2.6V | 07:54:57 | 02:07:04 | 00:00:00 | |
| DO2JMG | 2026-09-02 08:42:01 | 52.52670 | 8.60359 | 107° | 68km/h | 8497m | -4.9m/s | -37.8°C | 23.8% | 339.9hPa | 2.5V | 07:55:22 | 02:07:08 | 00:00:00 | |
| HSKMA3-T | 2026-09-02 08:41:58 | 52.52686 | 8.60277 | 108° | 69km/h | 8512m | -4.9m/s | -37.8°C | 23.6% | 339.3hPa | 2.6V | 07:55:22 | 02:07:05 | 00:00:00 | |
| DF8AY | 2026-09-02 08:41:57 | 52.52691 | 8.60250 | 109° | 69km/h | 8516m | -4.5m/s | -37.9°C | 23.6% | 0hPa | 2.6V | 07:56:13 | 02:07:04 | 00:00:00 | |
| DL1XH-west | 2026-09-02 08:41:56 | 52.52697 | 8.60223 | 108° | 69km/h | 8521m | -4.4m/s | -37.9°C | 23.6% | 338.8hPa | 2.5V | 07:55:22 | 02:07:03 | 00:00:00 | |
| DB0DAN | 2026-09-02 08:41:55 | 52.52702 | 8.60195 | 109° | 66km/h | 8525m | -4.8m/s | -38°C | 18.7% | 338.53hPa | 2.5V | 00:00:00 | 00:00:00 | 00:00:00 | |
| DL1XH1-15 | 2026-09-02 08:41:54 | 52.52736 | 8.60031 | 108° | 69km/h | 8555m | -4.9m/s | -38.2°C | 20.9% | 337.1hPa | 2.5V | 07:55:05 | 02:06:56 | 00:00:00 | |
| AA1-15 | 2026-09-02 08:41:53 | 52.52714 | 8.60140 | 109° | 69km/h | 8535m | -4.5m/s | -38°C | 23.7% | 338.1hPa | 2.6V | 07:55:22 | 02:07:00 | 00:00:00 | |
| DO2JMG | 2026-09-02 08:41:50 | 52.52730 | 8.60058 | 108° | 69km/h | 8550m | -5.2m/s | -38.2°C | 23.7% | 337.3hPa | 2.5V | 07:55:22 | 02:06:57 | 00:00:00 | |
| BUE01 | 2026-09-02 08:41:50 | 52.52736 | 8.60031 | 108° | 68km/h | 8555m | -4.9m/s | -38.2°C | 18.8% | 337.1hPa | 2.5V | 00:00:00 | 00:00:00 | 00:00:00 | |
| DL1XH-15 | 2026-09-02 08:41:49 | 52.52763 | 8.59897 | 109° | 69km/h | 8579m | -4.9m/s | -38.5°C | 21% | 335.9hPa | 2.5V | 07:55:10 | 02:06:51 | 00:00:00 | |
| BIOWL1-15 | 2026-09-02 08:41:47 | 52.52747 | 8.59977 | 109° | 68km/h | 8565m | -4.6m/s | -38.4°C | 23.9% | 336.7hPa | 2.6V | 07:55:22 | 02:06:54 | 00:00:00 | |
| DD8BA-10 | 2026-09-02 08:41:46 | 52.52752 | 8.59951 | 109° | 69km/h | 8569m | -4.9m/s | -38.3°C | 21.0% | 336.4hPa | 2.6V | 00:00:00 | 00:00:00 | 00:00:00 | |
| DM0DOS-11 | 2026-09-02 08:41:45 | 52.52785 | 8.59789 | 108° | 69km/h | 8599m | -4.8m/s | -38.7°C | 21.3% | 334.9hPa | 2.5V | 07:55:14 | 02:06:47 | 00:00:00 | |
| DL1XH-west | 2026-09-02 08:41:45 | 52.52758 | 8.59924 | 109° | 68km/h | 8574m | -4.9m/s | -38.4°C | 23.9% | 336.2hPa | 2.5V | 07:55:22 | 02:06:52 | 00:00:00 | |
| AA1-15 | 2026-09-02 08:41:42 | 52.52775 | 8.59843 | 109° | 69km/h | 8589m | -4.8m/s | -38.5°C | 24% | 335.4hPa | 2.6V | 07:55:22 | 02:06:49 | 00:00:00 | |
| DL1NUX | 2026-09-02 08:41:42 | 52.52802 | 8.59705 | 107° | 69km/h | 8613m | -4.7m/s | -38.8°C | 21.5% | 334.2hPa | 2.5V | 07:55:17 | 02:06:44 | 00:00:00 | |
| DB0UT-7 | 2026-09-02 08:41:42 | 52.52775 | 8.59843 | 109° | 71km/h | 8589m | -4.8m/s | -38.5°C | 21.2% | 335.4hPa | 2.5V | 07:55:00 | 02:06:49 | 00:00:00 | |
| DB0DAN | 2026-09-02 08:41:40 | 52.52786 | 8.59789 | 108° | 66km/h | 8599m | -4.8m/s | -38.7°C | 19.1% | 334.93hPa | 2.5V | 00:00:00 | 00:00:00 | 00:00:00 | |
| DL1XH-15 | 2026-09-02 08:41:39 | 52.52818 | 8.59623 | 108° | 69km/h | 8627m | -4.7m/s | -38.9°C | 21.7% | 333.6hPa | 2.6V | 07:55:20 | 02:06:41 | 00:00:00 | |
| DO2JMG | 2026-09-02 08:41:39 | 52.52791 | 8.59761 | 107° | 71km/h | 8604m | -4.9m/s | -38.7°C | 24.1% | 334.7hPa | 2.6V | 07:55:22 | 02:06:46 | 00:00:00 | |
| DF8AY | 2026-09-02 08:41:38 | 52.52796 | 8.59733 | 107° | 69km/h | 8609m | -4.5m/s | -38.8°C | 24.2% | 0hPa | 2.6V | 07:56:13 | 02:06:45 | 00:00:00 | |
| BIOWL1-15 | 2026-09-02 08:41:36 | 52.52807 | 8.59678 | 108° | 69km/h | 8618m | -4.8m/s | -38.8°C | 24.3% | 334hPa | 2.5V | 07:55:22 | 02:06:43 | 00:00:00 | |
| DD8BA-10 | 2026-09-02 08:41:36 | 52.52807 | 8.59677 | 108° | 69km/h | 8618m | -4.7m/s | -38.8°C | 21.6% | 333.9hPa | 2.6V | 00:00:00 | 00:00:00 | 00:00:00 | |
| DM0DOS-11 | 2026-09-02 08:41:35 | 52.52841 | 8.59514 | 110° | 69km/h | 8645m | -4.4m/s | -39.1°C | 22% | 332.7hPa | 2.6V | 07:55:24 | 02:06:37 | 00:00:00 | |
| DL1XH-west | 2026-09-02 08:41:34 | 52.52817 | 8.59623 | 109° | 69km/h | 8627m | -4.7m/s | -38.9°C | 24.4% | 333.6hPa | 2.6V | 07:55:22 | 02:06:41 | 00:00:00 | |
| DF5WG-10 | 2026-09-02 08:41:34 | 52.52817 | 8.59623 | 109° | 69km/h | 8627m | -4.6m/s | -38.8°C | 21.7% | 333.5hPa | 2.5V | 00:00:00 | 02:06:41 | 00:00:00 | |
| D01LWL | 2026-09-02 08:41:33 | 52.52829 | 8.59568 | 110° | 69km/h | 8636m | -4.6m/s | -39.0°C | 19.6% | 333.0hPa | 2.5V | 00:00:00 | 00:00:00 | 00:00:00 | |
| DL1NUX | 2026-09-02 08:41:32 | 52.52859 | 8.59433 | 110° | 69km/h | 8659m | -4.8m/s | -39.2°C | 22.1% | 332.1hPa | 2.5V | 07:55:27 | 02:06:34 | 00:00:00 | |
| AA1-15 | 2026-09-02 08:41:31 | 52.52835 | 8.59541 | 110° | 69km/h | 8641m | -4.4m/s | -39°C | 24.6% | 332.9hPa | 2.5V | 07:56:13 | 02:06:38 | 00:00:00 | |
| DL8OAI-8 | 2026-09-02 08:41:31 | 52.52835 | 8.59541 | 111° | 69km/h | 8641m | -4.4m/s | -39.0°C | 19.7% | 332.9hPa | 2.6V | 00:00:00 | 00:00:00 | 00:00:00 | |
| DN9WHV | 2026-09-02 08:41:30 | 52.52835 | 8.59541 | 111° | 69km/h | 8641m | -4.4m/s | -39.0°C | 19.7% | 332.9hPa | 2.6V | 07:56:00 | 00:00:00 | 00:00:00 | |
| DL1XH-15 | 2026-09-02 08:41:29 | 52.52876 | 8.59350 | 107° | 71km/h | 8673m | -5m/s | -39.4°C | 22.3% | 331.3hPa | 2.6V | 07:55:30 | 02:06:31 | 00:00:00 | |
| DO2JMG | 2026-09-02 08:41:29 | 52.52847 | 8.59487 | 111° | 69km/h | 8650m | -4.5m/s | -39.1°C | 24.8% | 332.4hPa | 2.6V | 07:56:13 | 02:06:36 | 00:00:00 | |
| BIOWL1-15 | 2026-09-02 08:41:28 | 52.52865 | 8.59406 | 109° | 69km/h | 8664m | -4.7m/s | -39.3°C | 25% | 331.8hPa | 2.5V | 07:56:13 | 02:06:33 | 00:00:00 | |
| SONCRA | 2026-09-02 08:41:27 | 52.52859 | 8.59433 | 110° | 69km/h | 8659m | -4.9m/s | -39.2°C | 19.8% | 332.1hPa | 2.5V | 00:00:00 | 00:00:00 | 00:00:00 | |
| DD1CC2-15 | 2026-09-02 08:41:26 | 52.52859 | 8.59433 | 111° | 69km/h | 8659m | -4.9m/s | -39.2°C | 19.8% | 332.1hPa | 2.5V | 07:56:00 | 00:00:00 | 00:00:00 | |
| DB0DAN | 2026-09-02 08:41:25 | 52.52871 | 8.59378 | 109° | 68km/h | 8668m | -5m/s | -39.3°C | 19.8% | 331.59hPa | 2.5V | 00:00:00 | 00:00:00 | 00:00:00 | |
| HSKMA3-T | 2026-09-02 08:41:25 | 52.52871 | 8.59378 | 109° | 69km/h | 8668m | -5m/s | -39.3°C | 25% | 331.6hPa | 2.5V | 07:56:13 | 02:06:32 | 00:00:00 | |
| DL1XH-west | 2026-09-02 08:41:23 | 52.52882 | 8.59322 | 108° | 71km/h | 8678m | -4.5m/s | -39.4°C | 25.3% | 331.1hPa | 2.6V | 07:56:13 | 02:06:30 | 00:00:00 | |
| DL1NUX | 2026-09-02 08:41:22 | 52.52917 | 8.59154 | 109° | 71km/h | 8707m | -5m/s | -39.7°C | 22.8% | 329.7hPa | 2.6V | 07:55:37 | 02:06:24 | 00:00:00 | |
| AA1-15 | 2026-09-02 08:41:20 | 52.52899 | 8.59238 | 109° | 71km/h | 8692m | -4.9m/s | -39.5°C | 25.4% | 330.4hPa | 2.5V | 07:56:13 | 02:06:27 | 00:00:00 | |
| DO2JMG | 2026-09-02 08:41:19 | 52.52905 | 8.59210 | 108° | 71km/h | 8697m | -5.1m/s | -39.6°C | 25.5% | 330.2hPa | 2.5V | 07:56:13 | 02:06:26 | 00:00:00 | |
| HSKMA3-T | 2026-09-02 08:41:15 | 52.52929 | 8.59098 | 110° | 71km/h | 8716m | -4.8m/s | -39.8°C | 25.9% | 329.2hPa | 2.5V | 07:56:13 | 02:06:22 | 00:00:00 | |
| DL1XH-west | 2026-09-02 08:41:13 | 52.52941 | 8.59042 | 109° | 71km/h | 8726m | -4.7m/s | -39.9°C | 26% | 328.8hPa | 2.5V | 07:56:13 | 02:06:20 | 00:00:00 | |
| DL1NUX | 2026-09-02 08:41:12 | 52.52977 | 8.58874 | 109° | 73km/h | 8756m | -4.9m/s | -40.1°C | 23.6% | 327.4hPa | 2.6V | 07:55:47 | 02:06:14 | 00:00:00 | |
| DB0UT-7 | 2026-09-02 08:41:12 | 52.52947 | 8.59014 | 110° | 73km/h | 8731m | -4.6m/s | -39.9°C | 23.2% | 328.5hPa | 2.5V | 00:00:00 | 00:00:00 | 00:00:00 | |
| DN9WHV | 2026-09-02 08:41:11 | 52.52946 | 8.59014 | 110° | 71km/h | 8731m | -4.6m/s | -39.9°C | 20.8% | 328.6hPa | 2.5V | 07:56:00 | 00:00:00 | 00:00:00 | |
| DB0DAN | 2026-09-02 08:41:10 | 52.52958 | 8.58959 | 109° | 68km/h | 8741m | -5.2m/s | -40°C | 20.9% | 328.06hPa | 2.5V | 00:00:00 | 00:00:00 | 00:00:00 | |
| DO2JMG | 2026-09-02 08:41:09 | 52.52964 | 8.58931 | 109° | 73km/h | 8746m | -4.9m/s | -40.1°C | 26.4% | 327.8hPa | 2.5V | 07:56:13 | 02:06:16 | 00:00:00 | |
| DF8AY | 2026-09-02 08:41:05 | 52.52989 | 8.58816 | 109° | 73km/h | 8766m | -5.4m/s | -40.3°C | 26.7% | 0hPa | 2.5V | 07:56:13 | 02:06:12 | 00:00:00 | |
| BIOWL1-15 | 2026-09-02 08:41:04 | 52.52994 | 8.58787 | 109° | 73km/h | 8771m | -4.9m/s | -40.3°C | 26.9% | 326.6hPa | 2.6V | 07:56:13 | 02:06:11 | 00:00:00 | |
| DL1XH-west | 2026-09-02 08:41:03 | 52.53001 | 8.58758 | 109° | 75km/h | 8776m | -5.1m/s | -40.4°C | 27% | 326.4hPa | 2.6V | 07:56:13 | 02:06:10 | 00:00:00 | |
| DF5WG-10 | 2026-09-02 08:41:02 | 52.53006 | 8.58729 | 109° | 73km/h | 8781m | -4.8m/s | -40.4°C | 24.2% | 326.1hPa | 2.5V | 00:00:00 | 02:06:09 | 00:00:00 | |
| SO1NDE-10 | 2026-09-02 08:41:01 | 52.53012 | 8.58700 | 109° | 73km/h | 8786m | -5.0m/s | -40.4°C | 24.2% | 325.8hPa | 2.5V | 07:55:00 | 02:06:08 | 00:00:00 | |
| DO3DL | 2026-09-02 08:41:00 | 52.53012 | 8.58700 | 110° | 73km/h | 8786m | -5.1m/s | -40.5°C | 21.7% | 325.9hPa | 2.5V | 00:00:00 | 00:00:00 | 00:00:00 | |
| DL1XH-15 | 2026-09-02 08:40:59 | 52.53054 | 8.58502 | 109° | 71km/h | 8821m | -5.2m/s | -40.8°C | 25.1% | 324.2hPa | 2.5V | 07:56:00 | 02:06:01 | 00:00:00 | |
| AA1-15 | 2026-09-02 08:40:59 | 52.53024 | 8.58643 | 109° | 73km/h | 8796m | -4.8m/s | -40.5°C | 27.5% | 325.4hPa | 2.6V | 07:56:13 | 02:06:06 | 00:00:00 | |
| DO2JMG | 2026-09-02 08:40:58 | 52.53030 | 8.58614 | 109° | 73km/h | 8801m | -5m/s | -40.6°C | 27.6% | 325.1hPa | 2.6V | 07:56:13 | 02:06:05 | 00:00:00 | |
| BIOWL1-15 | 2026-09-02 08:40:56 | 52.53054 | 8.58502 | 109° | 71km/h | 8821m | -5.2m/s | -40.8°C | 28% | 324.2hPa | 2.5V | 07:56:13 | 02:06:01 | 00:00:00 | |
| DB0DAN | 2026-09-02 08:40:55 | 52.53048 | 8.58530 | 109° | 68km/h | 8816m | -5m/s | -40.7°C | 22.4% | 324.44hPa | 2.5V | 00:00:00 | 00:00:00 | 00:00:00 | |
| DM0DOS-11 | 2026-09-02 08:40:55 | 52.53078 | 8.58388 | 108° | 73km/h | 8841m | -4.8m/s | -41°C | 25.6% | 323.2hPa | 2.5V | 07:56:04 | 02:05:57 | 00:00:00 | |
| HSKMA3-T | 2026-09-02 08:40:53 | 52.53060 | 8.58474 | 109° | 71km/h | 8826m | -5.1m/s | -40.9°C | 28.2% | 323.9hPa | 2.6V | 07:56:13 | 02:06:00 | 00:00:00 | |
| DL1XH-west | 2026-09-02 08:40:52 | 52.53066 | 8.58446 | 109° | 73km/h | 8831m | -5.1m/s | -40.9°C | 28.2% | 323.7hPa | 2.6V | 07:56:13 | 02:05:59 | 00:00:00 | |
| DF5WG-10 | 2026-09-02 08:40:52 | 52.53066 | 8.58445 | 109° | 75km/h | 8831m | -5.0m/s | -40.8°C | 25.4% | 323.7hPa | 2.6V | 00:00:00 | 02:05:59 | 00:00:00 | |
| GOEST3-10 | 2026-09-02 08:40:51 | 52.53072 | 8.58417 | 110° | 75km/h | 8836m | -4.8m/s | -40.9°C | 25.5% | 323.4hPa | 2.5V | 00:00:00 | 00:00:00 | 00:00:00 | |
| BIOWL7-15 | 2026-09-02 08:40:50 | 52.53071 | 8.58417 | 110° | 73km/h | 8836m | -4.9m/s | -41.0°C | 22.9% | 323.5hPa | 2.5V | 00:00:00 | 00:00:00 | 00:00:00 | |
| DL1XH-15 | 2026-09-02 08:40:49 | 52.53114 | 8.58210 | 108° | 75km/h | 8870m | -4.8m/s | -41.3°C | 26% | 321.9hPa | 2.5V | 07:56:10 | 02:05:51 | 00:00:00 | |
| DF8AY | 2026-09-02 08:40:48 | 52.53090 | 8.58330 | 109° | 77km/h | 8850m | -4.8m/s | -41.1°C | 28.6% | 0hPa | 2.5V | 07:56:13 | 02:05:55 | 00:00:00 | |
| DO2JMG | 2026-09-02 08:40:47 | 52.53096 | 8.58300 | 108° | 75km/h | 8855m | -5.2m/s | -41.1°C | 28.7% | 322.6hPa | 2.6V | 07:56:13 | 02:05:54 | 00:00:00 | |
| DD8BA-10 | 2026-09-02 08:40:46 | 52.53102 | 8.58270 | 109° | 73km/h | 8860m | -4.9m/s | -41.1°C | 25.8% | 322.3hPa | 2.6V | 00:00:00 | 00:00:00 | 00:00:00 | |
| DM0DOS-11 | 2026-09-02 08:40:45 | 52.53138 | 8.58095 | 109° | 73km/h | 8889m | -4.9m/s | -41.5°C | 26.4% | 320.9hPa | 2.6V | 07:56:14 | 02:05:47 | 00:00:00 | |
| BIOWL1-15 | 2026-09-02 08:40:44 | 52.53114 | 8.58210 | 109° | 75km/h | 8870m | -4.8m/s | -41.3°C | 28.9% | 321.9hPa | 2.5V | 07:56:13 | 02:05:51 | 00:00:00 | |
| HSKMA3-T | 2026-09-02 08:40:43 | 52.53120 | 8.58181 | 109° | 75km/h | 8875m | -4.7m/s | -41.3°C | 29% | 321.6hPa | 2.5V | 07:56:13 | 02:05:50 | 00:00:00 | |
| DL1NUX | 2026-09-02 08:40:42 | 52.53156 | 8.58009 | 108° | 73km/h | 8904m | -4.8m/s | -41.6°C | 26.8% | 320.2hPa | 2.6V | 07:56:17 | 02:05:44 | 00:00:00 | |
| DL1XH-west | 2026-09-02 08:40:41 | 52.53132 | 8.58123 | 109° | 73km/h | 8885m | -5m/s | -41.4°C | 29.1% | 321.1hPa | 2.6V | 07:56:13 | 02:05:48 | 00:00:00 | |
| DB0DAN | 2026-09-02 08:40:40 | 52.53138 | 8.58095 | 109° | 69km/h | 8890m | -4.9m/s | -41.5°C | 23.8% | 320.91hPa | 2.6V | 00:00:00 | 00:00:00 | 00:00:00 | |
| DL1XH-15 | 2026-09-02 08:40:39 | 52.53175 | 8.57922 | 109° | 77km/h | 8919m | -5m/s | -41.8°C | 27% | 319.6hPa | 2.5V | 07:56:20 | 02:05:41 | 00:00:00 | |
| DO2JMG | 2026-09-02 08:40:37 | 52.53156 | 8.58009 | 109° | 73km/h | 8904m | -4.8m/s | -41.6°C | 29.3% | 320.2hPa | 2.6V | 07:57:04 | 02:05:44 | 00:00:00 | |
| HSKMA3-T | 2026-09-02 08:40:33 | 52.53181 | 8.57892 | 109° | 77km/h | 8924m | -5.1m/s | -41.8°C | 29.6% | 319.3hPa | 2.6V | 07:57:04 | 02:05:40 | 00:00:00 | |
| DL1NUX | 2026-09-02 08:40:32 | 52.53218 | 8.57702 | 107° | 82km/h | 8954m | -5.2m/s | -42.1°C | 26.6% | 317.9hPa | 2.6V | 07:56:27 | 02:05:34 | 00:00:00 | |
| DL1XH-west | 2026-09-02 08:40:31 | 52.53193 | 8.57830 | 108° | 80km/h | 8934m | -4.9m/s | -41.9°C | 29.6% | 318.8hPa | 2.5V | 07:57:04 | 02:05:38 | 00:00:00 | |
| SO1NDE-10 | 2026-09-02 08:40:31 | 52.53193 | 8.57830 | 109° | 84km/h | 8934m | -4.8m/s | -41.9°C | 26.9% | 318.8hPa | 2.5V | 00:00:00 | 02:05:38 | 00:00:00 | |
| BIOWL7-15 | 2026-09-02 08:40:30 | 52.53193 | 8.57830 | 109° | 80km/h | 8934m | -4.9m/s | -41.9°C | 24.1% | 318.8hPa | 2.5V | 07:57:00 | 00:00:00 | 00:00:00 | |
| DL1XH-15 | 2026-09-02 08:40:29 | 52.53236 | 8.57605 | 106° | 80km/h | 8969m | -4.5m/s | -42.2°C | 26% | 317.2hPa | 2.5V | 07:56:30 | 02:05:31 | 00:00:00 | |
| DO2JMG | 2026-09-02 08:40:26 | 52.53224 | 8.57669 | 108° | 82km/h | 8959m | -4.5m/s | -42.1°C | 29.1% | 317.7hPa | 2.6V | 07:57:04 | 02:05:33 | 00:00:00 | |
| DB0DAN | 2026-09-02 08:40:25 | 52.53230 | 8.57637 | 107° | 77km/h | 8964m | -5.1m/s | -42.2°C | 23.5% | 317.44hPa | 2.5V | 00:00:00 | 00:00:00 | 00:00:00 | |
| DF8AY | 2026-09-02 08:40:25 | 52.53230 | 8.57637 | 107° | 82km/h | 8964m | -5.1m/s | -42.2°C | 28.9% | 0hPa | 2.5V | 07:57:04 | 02:05:32 | 00:00:00 | |
| BIOWL1-15 | 2026-09-02 08:40:23 | 52.53242 | 8.57573 | 107° | 82km/h | 8974m | -5.1m/s | -42.2°C | 28.5% | 317hPa | 2.5V | 07:57:04 | 02:05:30 | 00:00:00 | |
| DL1NUX | 2026-09-02 08:40:22 | 52.53281 | 8.57377 | 108° | 84km/h | 9003m | -5m/s | -42.3°C | 23.1% | 315.7hPa | 2.5V | 07:56:37 | 02:05:24 | 00:00:00 | |
| DL1XH-west | 2026-09-02 08:40:20 | 52.53261 | 8.57476 | 108° | 82km/h | 8989m | -5.1m/s | -42.3°C | 27% | 316.3hPa | 2.6V | 07:57:04 | 02:05:27 | 00:00:00 | |
| DO2JMG | 2026-09-02 08:40:16 | 52.53288 | 8.57344 | 109° | 86km/h | 9009m | -5.1m/s | -42.3°C | 25% | 315.4hPa | 2.6V | 07:57:04 | 02:05:23 | 00:00:00 | |
| DD8BA-10 | 2026-09-02 08:40:16 | 52.53288 | 8.57344 | 110° | 86km/h | 9009m | -5.1m/s | -42.2°C | 22.4% | 315.3hPa | 2.6V | 00:00:00 | 00:00:00 | 00:00:00 | |
| DM0DOS-11 | 2026-09-02 08:40:15 | 52.53329 | 8.57143 | 107° | 84km/h | 9039m | -5.1m/s | -42.5°C | 21.6% | 313.9hPa | 2.5V | 07:56:44 | 02:05:17 | 00:00:00 | |
| AA1-15 | 2026-09-02 08:40:15 | 52.53295 | 8.57310 | 109° | 86km/h | 9014m | -4.9m/s | -42.3°C | 25% | 315.2hPa | 2.6V | 07:57:04 | 02:05:22 | 00:00:00 | |
| DF8AY | 2026-09-02 08:40:14 | 52.53302 | 8.57277 | 110° | 86km/h | 9019m | -5.1m/s | -42.3°C | 24.8% | 0hPa | 2.5V | 07:57:04 | 02:05:21 | 00:00:00 | |
| BIOWL1-15 | 2026-09-02 08:40:13 | 52.53309 | 8.57244 | 109° | 86km/h | 9024m | -5m/s | -42.4°C | 24.6% | 314.6hPa | 2.5V | 07:57:04 | 02:05:20 | 00:00:00 | |
| DO9LL-15 | 2026-09-02 08:40:13 | 52.53309 | 8.57244 | 109° | 86km/h | 9024m | -5.0m/s | -42.3°C | 22.1% | 314.6hPa | 2.5V | 00:00:00 | 02:05:20 | 00:00:00 | |
| DB0UT-7 | 2026-09-02 08:40:12 | 52.53316 | 8.57210 | 109° | 84km/h | 9029m | -5.0m/s | -42.3°C | 21.9% | 314.4hPa | 2.5V | 00:00:00 | 00:00:00 | 00:00:00 | |
| DN9WHV | 2026-09-02 08:40:11 | 52.53316 | 8.57210 | 109° | 86km/h | 9029m | -5.1m/s | -42.4°C | 19.4% | 314.5hPa | 2.5V | 07:57:00 | 00:00:00 | 00:00:00 | |
| DB0DAN | 2026-09-02 08:40:10 | 52.53329 | 8.57143 | 107° | 80km/h | 9039m | -5.1m/s | -42.5°C | 19.1% | 313.95hPa | 2.5V | 00:00:00 | 00:00:00 | 00:00:00 | |
| DL1XH-15 | 2026-09-02 08:40:09 | 52.53368 | 8.56942 | 108° | 86km/h | 9069m | -5m/s | -42.7°C | 20.6% | 312.5hPa | 2.5V | 07:56:50 | 02:05:11 | 00:00:00 | |
| DL1XH-west | 2026-09-02 08:40:09 | 52.53336 | 8.57110 | 107° | 86km/h | 9044m | -5m/s | -42.5°C | 24% | 313.8hPa | 2.5V | 07:57:04 | 02:05:16 | 00:00:00 | |
| DO2JMG | 2026-09-02 08:40:06 | 52.53355 | 8.57009 | 107° | 86km/h | 9059m | -5m/s | -42.7°C | 23.3% | 313hPa | 2.6V | 07:57:04 | 02:05:13 | 00:00:00 | |
| DD8BA-10 | 2026-09-02 08:40:06 | 52.53355 | 8.57009 | 108° | 86km/h | 9059m | -4.9m/s | -42.6°C | 20.9% | 313.0hPa | 2.6V | 00:00:00 | 00:00:00 | 00:00:00 | |
| DL3AQ-11 | 2026-09-02 08:40:05 | 52.53368 | 8.56942 | 108° | 84km/h | 9069m | -5.0m/s | -42.7°C | 18.1% | 312.5hPa | 2.6V | 00:00:00 | 00:00:00 | 00:00:00 | |
| DL1XH1-15 | 2026-09-02 08:40:04 | 52.53403 | 8.56774 | 108° | 86km/h | 9094m | -5m/s | -42.9°C | 19.7% | 311.4hPa | 2.6V | 07:56:55 | 02:05:06 | 00:00:00 | |
| AA1-15 | 2026-09-02 08:40:04 | 52.53368 | 8.56942 | 109° | 86km/h | 9069m | -5m/s | -42.7°C | 22.9% | 312.5hPa | 2.5V | 07:57:04 | 02:05:11 | 00:00:00 | |
| BIOWL1-15 | 2026-09-02 08:40:03 | 52.53375 | 8.56908 | 109° | 86km/h | 9074m | -4.9m/s | -42.7°C | 22.6% | 312.3hPa | 2.5V | 07:57:04 | 02:05:10 | 00:00:00 | |
| HSKMA3-T | 2026-09-02 08:40:02 | 52.53382 | 8.56875 | 109° | 86km/h | 9078m | -5m/s | -42.8°C | 22.3% | 312.1hPa | 2.5V | 07:57:04 | 02:05:09 | 00:00:00 | |
| DL1NUX | 2026-09-02 08:40:02 | 52.53417 | 8.56707 | 108° | 86km/h | 9104m | -5m/s | -42.9°C | 19.5% | 311hPa | 2.5V | 07:56:57 | 02:05:04 | 00:00:00 | |
| SO1NDE-10 | 2026-09-02 08:40:01 | 52.53389 | 8.56841 | 110° | 84km/h | 9084m | -5.1m/s | -42.8°C | 20.0% | 311.8hPa | 2.6V | 00:00:00 | 02:05:08 | 00:00:00 | |
| DL1XH-15 | 2026-09-02 08:39:59 | 52.53437 | 8.56606 | 107° | 86km/h | 9119m | -4.9m/s | -43°C | 19.4% | 310.2hPa | 2.6V | 07:57:00 | 02:05:01 | 00:00:00 | |
| DL1XH-west | 2026-09-02 08:39:58 | 52.53410 | 8.56741 | 108° | 86km/h | 9099m | -5m/s | -42.9°C | 21.8% | 311.2hPa | 2.5V | 07:57:04 | 02:05:05 | 00:00:00 | |
| DF8AY | 2026-09-02 08:39:56 | 52.53423 | 8.56673 | 108° | 86km/h | 9109m | -5m/s | 0°C | 0% | 0hPa | 2.5V | 07:57:04 | 02:05:03 | 00:00:00 | |
| DB0DAN | 2026-09-02 08:39:55 | 52.53430 | 8.56640 | 108° | 80km/h | 9114m | -4.9m/s | -42.9°C | 17.1% | 310.48hPa | 2.6V | 00:00:00 | 00:00:00 | 00:00:00 | |
| DO2JMG | 2026-09-02 08:39:55 | 52.53430 | 8.56640 | 108° | 84km/h | 9114m | -4.9m/s | -42.9°C | 21.7% | 310.5hPa | 2.6V | 07:57:04 | 02:05:02 | 00:00:00 | |
| DL1XH1-15 | 2026-09-02 08:39:54 | 52.53470 | 8.56440 | 108° | 84km/h | 9143m | -4.9m/s | -43.1°C | 19.5% | 309.1hPa | 2.5V | 07:57:05 | 02:04:56 | 00:00:00 | |
| BIOWL1-15 | 2026-09-02 08:39:54 | 52.53450 | 8.56540 | 108° | 84km/h | 9128m | -4.8m/s | -42.9°C | 21.6% | 309.8hPa | 2.5V | 07:57:04 | 02:04:59 | 00:00:00 | |
| AA1-15 | 2026-09-02 08:39:53 | 52.53443 | 8.56573 | 108° | 84km/h | 9124m | -4.8m/s | -43°C | 21.6% | 310hPa | 2.5V | 07:57:04 | 02:05:00 | 00:00:00 | |
| HSKMA3-T | 2026-09-02 08:39:51 | 52.53456 | 8.56506 | 108° | 84km/h | 9133m | -5.1m/s | -43°C | 21.7% | 309.6hPa | 2.6V | 07:57:04 | 02:04:58 | 00:00:00 | |
| DD1CC8 | 2026-09-02 08:39:50 | 52.53470 | 8.56440 | 108° | 84km/h | 9143m | -4.9m/s | -43.1°C | 17.0% | 309.1hPa | 2.6V | 00:00:00 | 00:00:00 | 00:00:00 | |
| DL1XH-15 | 2026-09-02 08:39:49 | 52.53504 | 8.56275 | 108° | 84km/h | 9168m | -5m/s | -43.2°C | 19.7% | 308hPa | 2.6V | 07:57:10 | 02:04:51 | 00:00:00 | |
| DL1XH-west | 2026-09-02 08:39:47 | 52.53484 | 8.56374 | 109° | 84km/h | 9153m | -5.1m/s | -43.1°C | 21.9% | 308.7hPa | 2.6V | 07:57:55 | 02:04:54 | 00:00:00 | |
| DO2JMG | 2026-09-02 08:39:45 | 52.53497 | 8.56308 | 109° | 84km/h | 9163m | -4.9m/s | -43.2°C | 22% | 308.2hPa | 2.6V | 07:57:55 | 02:04:52 | 00:00:00 | |
| DF8AY | 2026-09-02 08:39:44 | 52.53504 | 8.56275 | 109° | 84km/h | 9168m | -5m/s | 0°C | 0% | 0hPa | 2.6V | 18:12:15 | 02:04:51 | 00:00:00 | |
| AA1-15 | 2026-09-02 08:39:42 | 52.53518 | 8.56210 | 109° | 84km/h | 9178m | -4.9m/s | -43.3°C | 22.1% | 307.5hPa | 2.5V | 07:57:55 | 02:04:49 | 00:00:00 | |
| DB0UT-7 | 2026-09-02 08:39:42 | 52.53518 | 8.56210 | 109° | 86km/h | 9178m | -4.8m/s | -43.2°C | 19.7% | 307.5hPa | 2.6V | 00:00:00 | 02:04:49 | 00:00:00 | |
| DN9WHV | 2026-09-02 08:39:41 | 52.53518 | 8.56210 | 110° | 84km/h | 9178m | -4.9m/s | -43.3°C | 17.2% | 307.5hPa | 2.6V | 00:00:00 | 00:00:00 | 00:00:00 | |
| DB0DAN | 2026-09-02 08:39:40 | 52.53532 | 8.56144 | 109° | 80km/h | 9188m | -4.9m/s | -43.3°C | 17.1% | 307.11hPa | 2.6V | 00:00:00 | 00:00:00 | 00:00:00 | |
| HSKMA3-T | 2026-09-02 08:39:40 | 52.53532 | 8.56144 | 109° | 84km/h | 9188m | -4.9m/s | -43.3°C | 22.2% | 307.1hPa | 2.6V | 07:57:55 | 02:04:47 | 00:00:00 | |
| DL1XH-west | 2026-09-02 08:39:37 | 52.53554 | 8.56044 | 110° | 86km/h | 9202m | -4.9m/s | -43.4°C | 22.5% | 306.4hPa | 2.5V | 07:57:55 | 02:04:44 | 00:00:00 | |
| DD8BA-10 | 2026-09-02 08:39:36 | 52.53561 | 8.56011 | 111° | 86km/h | 9207m | -4.8m/s | -43.4°C | 19.9% | 306.2hPa | 2.6V | 00:00:00 | 00:00:00 | 00:00:00 | |
| DM0DOS-11 | 2026-09-02 08:39:35 | 52.53607 | 8.55812 | 110° | 86km/h | 9237m | -4.9m/s | -43.6°C | 20.2% | 304.8hPa | 2.6V | 07:57:24 | 02:04:37 | 00:00:00 | |
| DO2JMG | 2026-09-02 08:39:34 | 52.53576 | 8.55945 | 111° | 86km/h | 9217m | -5m/s | -43.5°C | 22.6% | 305.7hPa | 2.6V | 07:57:55 | 02:04:41 | 00:00:00 | |
| BIOWL1-15 | 2026-09-02 08:39:34 | 52.53592 | 8.55878 | 111° | 86km/h | 9227m | -5m/s | -43.5°C | 22.7% | 305.2hPa | 2.5V | 07:57:55 | 02:04:39 | 00:00:00 | |
| DN9WHV | 2026-09-02 08:39:33 | 52.53576 | 8.55945 | 112° | 86km/h | 9217m | -5.0m/s | -43.5°C | 17.5% | 305.7hPa | 2.5V | 00:00:00 | 00:00:00 | 00:00:00 | |
| DL1NUX | 2026-09-02 08:39:32 | 52.53629 | 8.55712 | 109° | 86km/h | 9252m | -5m/s | -43.7°C | 20.2% | 304.2hPa | 2.5V | 07:57:27 | 02:04:34 | 00:00:00 | |
| AA1-15 | 2026-09-02 08:39:31 | 52.53599 | 8.55845 | 110° | 86km/h | 9232m | -5.1m/s | -43.6°C | 22.7% | 305hPa | 2.5V | 07:57:55 | 02:04:38 | 00:00:00 | |
| HSKMA3-T | 2026-09-02 08:39:29 | 52.53614 | 8.55778 | 110° | 86km/h | 9242m | -5m/s | -43.7°C | 22.8% | 304.6hPa | 2.6V | 07:57:55 | 02:04:36 | 00:00:00 | |
| DL1XH-west | 2026-09-02 08:39:26 | 52.53636 | 8.55678 | 109° | 86km/h | 9257m | -4.8m/s | -43.8°C | 22.8% | 303.9hPa | 2.6V | 07:57:55 | 02:04:33 | 00:00:00 | |
| DD8BA-10 | 2026-09-02 08:39:26 | 52.53636 | 8.55678 | 110° | 86km/h | 9257m | -4.8m/s | -43.7°C | 20.3% | 303.8hPa | 2.5V | 00:00:00 | 00:00:00 | 00:00:00 | |
| DM0DOS-11 | 2026-09-02 08:39:25 | 52.53680 | 8.55476 | 110° | 88km/h | 9286m | -5.1m/s | -44°C | 19.9% | 302.6hPa | 2.5V | 07:57:34 | 02:04:27 | 00:00:00 | |
| DO2JMG | 2026-09-02 08:39:24 | 52.53650 | 8.55611 | 109° | 86km/h | 9267m | -4.9m/s | -43.9°C | 22.7% | 303.5hPa | 2.6V | 07:57:55 | 02:04:31 | 00:00:00 | |
| DF8AY | 2026-09-02 08:39:23 | 52.53658 | 8.55578 | 110° | 86km/h | 9272m | -4.8m/s | 0°C | 0% | 0hPa | 2.6V | 18:12:15 | 02:04:30 | 00:00:00 | |
| SONCRA | 2026-09-02 08:39:23 | 52.53658 | 8.55578 | 109° | 86km/h | 9271m | -4.8m/s | -43.9°C | 17.6% | 303.3hPa | 2.6V | 00:00:00 | 00:00:00 | 00:00:00 | |
| DL1NUX | 2026-09-02 08:39:22 | 52.53703 | 8.55374 | 110° | 88km/h | 9301m | -4.8m/s | -44°C | 20% | 301.9hPa | 2.6V | 07:57:37 | 02:04:24 | 00:00:00 | |
| BIOWL1-15 | 2026-09-02 08:39:21 | 52.53673 | 8.55510 | 110° | 88km/h | 9281m | -4.8m/s | -43.9°C | 22.5% | 302.8hPa | 2.5V | 07:57:55 | 02:04:28 | 00:00:00 | |
| AA1-15 | 2026-09-02 08:39:20 | 52.53680 | 8.55476 | 110° | 88km/h | 9286m | -5.1m/s | -44°C | 22.5% | 302.6hPa | 2.5V | 07:57:55 | 02:04:27 | 00:00:00 | |
| HSKMA3-T | 2026-09-02 08:39:18 | 52.53696 | 8.55408 | 110° | 88km/h | 9296m | -5.1m/s | -44°C | 22.5% | 302.2hPa | 2.6V | 07:57:55 | 02:04:25 | 00:00:00 | |
| DL1XH-west | 2026-09-02 08:39:15 | 52.53719 | 8.55306 | 111° | 88km/h | 9311m | -4.9m/s | -44.2°C | 22.6% | 301.5hPa | 2.5V | 07:57:55 | 02:04:22 | 00:00:00 | |
| DL1XH1-15 | 2026-09-02 08:39:14 | 52.53766 | 8.55101 | 109° | 89km/h | 9342m | -5m/s | -44.3°C | 20.2% | 300.1hPa | 2.6V | 07:57:45 | 02:04:16 | 00:00:00 | |
| DO2JMG | 2026-09-02 08:39:13 | 52.53735 | 8.55238 | 111° | 88km/h | 9321m | -5.2m/s | -44.2°C | 22.7% | 301.1hPa | 2.6V | 07:57:55 | 02:04:20 | 00:00:00 | |
| DF8AY | 2026-09-02 08:39:12 | 52.53743 | 8.55204 | 111° | 88km/h | 9327m | -5.1m/s | 0°C | 0% | 0hPa | 2.6V | 18:12:15 | 02:04:19 | 00:00:00 | |
| DL1NUX | 2026-09-02 08:39:12 | 52.53781 | 8.55032 | 109° | 89km/h | 9352m | -5m/s | -44.4°C | 20.4% | 299.7hPa | 2.6V | 07:57:47 | 02:04:14 | 00:00:00 | |
| BIOWL1-15 | 2026-09-02 08:39:10 | 52.53758 | 8.55135 | 110° | 88km/h | 9337m | -4.9m/s | -44.3°C | 22.9% | 300.4hPa | 2.5V | 07:57:55 | 02:04:17 | 00:00:00 | |
| AA1-15 | 2026-09-02 08:39:09 | 52.53766 | 8.55101 | 110° | 89km/h | 9342m | -5m/s | -44.3°C | 23% | 300.1hPa | 2.6V | 07:57:55 | 02:04:16 | 00:00:00 | |
| HSKMA3-T | 2026-09-02 08:39:08 | 52.53773 | 8.55066 | 110° | 88km/h | 9347m | -5.1m/s | -44.4°C | 23.1% | 299.9hPa | 2.6V | 07:57:55 | 02:04:15 | 00:00:00 | |
| DN9WHV | 2026-09-02 08:39:07 | 52.53773 | 8.55066 | 111° | 88km/h | 9347m | -5.1m/s | -44.4°C | 17.8% | 299.9hPa | 2.6V | 00:00:00 | 00:00:00 | 00:00:00 | |
| DD8BA-10 | 2026-09-02 08:39:06 | 52.53788 | 8.54997 | 110° | 88km/h | 9357m | -5.0m/s | -44.5°C | 20.6% | 299.5hPa | 2.6V | 00:00:00 | 00:00:00 | 00:00:00 | |
| DM0DOS-11 | 2026-09-02 08:39:05 | 52.53835 | 8.54792 | 110° | 88km/h | 9387m | -5m/s | -44.7°C | 21.1% | 298.1hPa | 2.6V | 07:57:54 | 02:04:07 | 00:00:00 | |
| DL1XH-west | 2026-09-02 08:39:05 | 52.53796 | 8.54963 | 110° | 88km/h | 9362m | -5.1m/s | -44.5°C | 23.4% | 299.3hPa | 2.5V | 07:57:55 | 02:04:12 | 00:00:00 | |
| DF8AY | 2026-09-02 08:39:03 | 52.53819 | 8.54860 | 110° | 88km/h | 9377m | -5.1m/s | 0°C | 0% | 0hPa | 2.6V | 18:12:15 | 02:04:09 | 00:00:00 | |
| DO2JMG | 2026-09-02 08:39:03 | 52.53811 | 8.54894 | 110° | 88km/h | 9372m | -5m/s | -44.6°C | 23.6% | 298.8hPa | 2.6V | 07:57:55 | 02:04:10 | 00:00:00 | |
| AA1-15 | 2026-09-02 08:38:59 | 52.53842 | 8.54758 | 110° | 88km/h | 9392m | -4.8m/s | -44.8°C | 24% | 297.9hPa | 2.5V | 07:57:55 | 02:04:06 | 00:00:00 | |
| HSKMA3-T | 2026-09-02 08:38:58 | 52.53850 | 8.54725 | 111° | 88km/h | 9397m | -4.9m/s | -44.8°C | 24.1% | 297.7hPa | 2.5V | 07:58:46 | 02:04:05 | 00:00:00 | |
| D01LWL | 2026-09-02 08:38:57 | 52.53857 | 8.54691 | 110° | 86km/h | 9402m | -4.8m/s | -44.9°C | 18.6% | 297.5hPa | 2.6V | 00:00:00 | 00:00:00 | 00:00:00 | |
| DN9WHV | 2026-09-02 08:38:56 | 52.53857 | 8.54691 | 111° | 88km/h | 9402m | -4.8m/s | -44.9°C | 18.6% | 297.5hPa | 2.6V | 07:58:00 | 00:00:00 | 00:00:00 | |
| DB0DAN | 2026-09-02 08:38:55 | 52.53873 | 8.54623 | 111° | 84km/h | 9412m | -5m/s | -44.9°C | 18.8% | 296.98hPa | 2.6V | 00:00:00 | 00:00:00 | 00:00:00 | |
| DM0DOS-11 | 2026-09-02 08:38:55 | 52.53912 | 8.54452 | 110° | 88km/h | 9437m | -5m/s | -45.1°C | 22.2% | 295.9hPa | 2.5V | 07:58:04 | 02:03:57 | 00:00:00 | |
| DL1XH-west | 2026-09-02 08:38:54 | 52.53881 | 8.54589 | 110° | 88km/h | 9417m | -5m/s | -45°C | 24.5% | 296.8hPa | 2.5V | 07:58:46 | 02:04:01 | 00:00:00 | |
| DN9WHV | 2026-09-02 08:38:53 | 52.53881 | 8.54589 | 111° | 88km/h | 9417m | -5.0m/s | -45.0°C | 19.0% | 296.8hPa | 2.6V | 07:58:00 | 00:00:00 | 00:00:00 | |
| DL1NUX | 2026-09-02 08:38:52 | 52.53935 | 8.54350 | 110° | 88km/h | 9451m | -5m/s | -45.3°C | 22.6% | 295.3hPa | 2.6V | 07:58:07 | 02:03:54 | 00:00:00 | |
| DO2JMG | 2026-09-02 08:38:52 | 52.53896 | 8.54520 | 111° | 88km/h | 9427m | -5m/s | -45.1°C | 24.8% | 296.4hPa | 2.6V | 07:58:46 | 02:03:59 | 00:00:00 | |
| SONCRA | 2026-09-02 08:38:52 | 52.53904 | 8.54486 | 110° | 88km/h | 9431m | -4.9m/s | -45.1°C | 19.4% | 296.1hPa | 2.5V | 00:00:00 | 00:00:00 | 00:00:00 | |
| GOEST3-10 | 2026-09-02 08:38:51 | 52.53904 | 8.54486 | 111° | 88km/h | 9432m | -4.9m/s | -45.0°C | 22.2% | 296.0hPa | 2.5V | 00:00:00 | 00:00:00 | 00:00:00 | |
| DO3DL | 2026-09-02 08:38:50 | 52.53904 | 8.54486 | 112° | 88km/h | 9432m | -4.9m/s | -45.1°C | 19.4% | 296.1hPa | 2.5V | 07:58:00 | 00:00:00 | 00:00:00 | |
| DL1XH-15 | 2026-09-02 08:38:49 | 52.53959 | 8.54249 | 110° | 86km/h | 9466m | -4.7m/s | -45.4°C | 23% | 294.5hPa | 2.5V | 07:58:10 | 02:03:51 | 00:00:00 | |
| AA1-15 | 2026-09-02 08:38:48 | 52.53928 | 8.54384 | 111° | 88km/h | 9446m | -5.2m/s | -45.2°C | 25.3% | 295.4hPa | 2.6V | 07:58:46 | 02:03:55 | 00:00:00 | |
| HSKMA3-T | 2026-09-02 08:38:47 | 52.53935 | 8.54350 | 110° | 88km/h | 9451m | -5m/s | -45.3°C | 25.5% | 295.3hPa | 2.6V | 07:58:46 | 02:03:54 | 00:00:00 | |
| S3001 | 2026-09-02 08:38:47 | 52.53943 | 8.54316 | 110° | 86km/h | 9456m | -4.9m/s | 0°C | -1.0% | -1.0hPa | 2.6V | 00:00:00 | 00:00:00 | 00:00:00 | |
| DD8BA-10 | 2026-09-02 08:38:46 | 52.53943 | 8.54316 | 111° | 88km/h | 9456m | -4.8m/s | -45.3°C | 22.7% | 295.0hPa | 2.6V | 00:00:00 | 00:00:00 | 00:00:00 | |
| DM0DOS-11 | 2026-09-02 08:38:45 | 52.53990 | 8.54114 | 110° | 88km/h | 9485m | -4.9m/s | -45.6°C | 23.5% | 293.7hPa | 2.6V | 07:58:14 | 02:03:47 | 00:00:00 | |
| DL3AQ-11 | 2026-09-02 08:38:45 | 52.53959 | 8.54249 | 110° | 86km/h | 9466m | -4.7m/s | -45.4°C | 20.1% | 294.6hPa | 2.6V | 00:00:00 | 00:00:00 | 00:00:00 | |
| DL1XH1-15 | 2026-09-02 08:38:44 | 52.53998 | 8.54081 | 111° | 88km/h | 9490m | -5m/s | -45.6°C | 23.5% | 293.5hPa | 2.6V | 07:58:15 | 02:03:46 | 00:00:00 | |
| DL1XH-west | 2026-09-02 08:38:43 | 52.53966 | 8.54215 | 111° | 86km/h | 9471m | -4.9m/s | -45.5°C | 26% | 294.3hPa | 2.5V | 07:58:46 | 02:03:50 | 00:00:00 | |
| DL1NUX | 2026-09-02 08:38:42 | 52.54013 | 8.54013 | 111° | 88km/h | 9501m | -5.1m/s | -45.7°C | 23.8% | 293.1hPa | 2.5V | 07:58:17 | 02:03:44 | 00:00:00 | |
| DO2JMG | 2026-09-02 08:38:41 | 52.53982 | 8.54148 | 111° | 88km/h | 9480m | -4.9m/s | -45.6°C | 26.2% | 294hPa | 2.6V | 07:58:46 | 02:03:48 | 00:00:00 | |
| DB0DAN | 2026-09-02 08:38:40 | 52.53990 | 8.54114 | 111° | 82km/h | 9486m | -4.9m/s | -45.6°C | 20.5% | 293.73hPa | 2.6V | 00:00:00 | 00:00:00 | 00:00:00 | |
| DB0NH | 2026-09-02 08:38:40 | 52.53990 | 8.54114 | 111° | 88km/h | 9486m | -4.8m/s | -45.6°C | 23.5% | 293.7hPa | 2.6V | 00:00:00 | 02:03:47 | 00:00:00 | |
| DL1XH-15 | 2026-09-02 08:38:39 | 52.54038 | 8.53912 | 111° | 88km/h | 9515m | -4.8m/s | -45.9°C | 24.1% | 292.4hPa | 2.6V | 07:58:20 | 02:03:41 | 00:00:00 | |
| BIOWL1-15 | 2026-09-02 08:38:38 | 52.54006 | 8.54047 | 111° | 88km/h | 9495m | -5.1m/s | -45.7°C | 26.6% | 293.2hPa | 2.5V | 07:58:46 | 02:03:45 | 00:00:00 | |
| HSKMA3-T | 2026-09-02 08:38:37 | 52.54014 | 8.54013 | 111° | 88km/h | 9501m | -5.1m/s | -45.7°C | 26.8% | 293.1hPa | 2.5V | 07:58:46 | 02:03:44 | 00:00:00 | |
| DD8BA-10 | 2026-09-02 08:38:36 | 52.54022 | 8.53980 | 112° | 88km/h | 9506m | -5.0m/s | -45.8°C | 23.8% | 292.8hPa | 2.5V | 07:58:00 | 00:00:00 | 00:00:00 | |
| DM0DOS-11 | 2026-09-02 08:38:35 | 52.54070 | 8.53776 | 110° | 88km/h | 9535m | -4.8m/s | -46.1°C | 24.6% | 291.5hPa | 2.5V | 07:58:24 | 02:03:37 | 00:00:00 | |
| DO9LL-15 | 2026-09-02 08:38:35 | 52.54030 | 8.53946 | 112° | 86km/h | 9511m | -4.8m/s | -45.8°C | 24.0% | 292.6hPa | 2.6V | 00:00:00 | 02:03:42 | 00:00:00 | |
| DL1XH1-15 | 2026-09-02 08:38:34 | 52.54078 | 8.53742 | 110° | 88km/h | 9540m | -4.9m/s | -46.1°C | 24.6% | 291.3hPa | 2.6V | 07:58:25 | 02:03:36 | 00:00:00 | |
| DL1XH-west | 2026-09-02 08:38:33 | 52.54046 | 8.53878 | 111° | 88km/h | 9520m | -5.2m/s | -45.9°C | 27.1% | 292.2hPa | 2.6V | 07:58:46 | 02:03:40 | 00:00:00 | |
| DO2JMG | 2026-09-02 08:38:30 | 52.54070 | 8.53776 | 111° | 88km/h | 9535m | -4.8m/s | -46.1°C | 27.5% | 291.5hPa | 2.5V | 07:58:46 | 02:03:37 | 00:00:00 | |
| DL1XH-15 | 2026-09-02 08:38:29 | 52.54117 | 8.53572 | 111° | 88km/h | 9565m | -5.1m/s | -46.4°C | 25.3% | 290.2hPa | 2.5V | 07:58:30 | 02:03:31 | 00:00:00 | |
| BIOWL1-15 | 2026-09-02 08:38:29 | 52.54094 | 8.53674 | 111° | 88km/h | 9550m | -4.9m/s | -46.2°C | 27.8% | 290.9hPa | 2.6V | 07:58:46 | 02:03:34 | 00:00:00 | |
| HSKMA3-T | 2026-09-02 08:38:26 | 52.54102 | 8.53640 | 111° | 88km/h | 9555m | -5m/s | -46.3°C | 28% | 290.6hPa | 2.6V | 07:58:46 | 02:03:33 | 00:00:00 | |
| DB0DAN | 2026-09-02 08:38:25 | 52.54109 | 8.53606 | 111° | 84km/h | 9560m | -5.2m/s | -46.3°C | 22.1% | 290.4hPa | 2.5V | 00:00:00 | 00:00:00 | 00:00:00 | |
| DL1XH1-15 | 2026-09-02 08:38:24 | 52.54158 | 8.53403 | 111° | 88km/h | 9591m | -5m/s | -46.6°C | 25.9% | 289.1hPa | 2.5V | 07:58:35 | 02:03:26 | 00:00:00 | |
| DL1XH-west | 2026-09-02 08:38:22 | 52.54133 | 8.53504 | 111° | 88km/h | 9576m | -5.1m/s | -46.5°C | 28.5% | 289.8hPa | 2.6V | 07:58:46 | 02:03:29 | 00:00:00 | |
| DO2JMG | 2026-09-02 08:38:19 | 52.54158 | 8.53403 | 112° | 88km/h | 9591m | -5m/s | -46.6°C | 28.9% | 289.1hPa | 2.5V | 07:58:46 | 02:03:26 | 00:00:00 | |
| BIOWL1-15 | 2026-09-02 08:38:16 | 52.54182 | 8.53302 | 112° | 88km/h | 9605m | -5.1m/s | -46.7°C | 29.2% | 288.5hPa | 2.5V | 07:58:46 | 02:03:23 | 00:00:00 | |
| AA1-15 | 2026-09-02 08:38:15 | 52.54190 | 8.53269 | 112° | 86km/h | 9611m | -5.1m/s | -46.7°C | 29.2% | 288.2hPa | 2.5V | 07:58:46 | 02:03:22 | 00:00:00 | |
| DL1XH1-15 | 2026-09-02 08:38:15 | 52.54239 | 8.53070 | 112° | 86km/h | 9641m | -5.2m/s | -47°C | 26.8% | 286.9hPa | 2.5V | 07:58:45 | 02:03:16 | 00:00:00 | |
| DL1XH-west | 2026-09-02 08:38:11 | 52.54223 | 8.53136 | 112° | 86km/h | 9631m | -5.3m/s | -46.9°C | 29.7% | 287.3hPa | 2.6V | 07:58:46 | 02:03:18 | 00:00:00 | |
| DB0DAN | 2026-09-02 08:38:10 | 52.54231 | 8.53103 | 112° | 82km/h | 9637m | -5.2m/s | -47°C | 23.4% | 287.08hPa | 2.5V | 00:00:00 | 00:00:00 | 00:00:00 | |
| DO2JMG | 2026-09-02 08:38:09 | 52.54239 | 8.53070 | 112° | 86km/h | 9641m | -5.2m/s | -47°C | 29.9% | 286.9hPa | 2.5V | 07:58:46 | 02:03:16 | 00:00:00 | |
| BIOWL1-15 | 2026-09-02 08:38:08 | 52.54263 | 8.52971 | 112° | 86km/h | 9657m | -5.3m/s | -47.1°C | 30.2% | 286.2hPa | 2.6V | 07:59:37 | 02:03:13 | 00:00:00 | |
| HSKMA3-T | 2026-09-02 08:38:05 | 52.54271 | 8.52938 | 112° | 86km/h | 9662m | -5.2m/s | -47.2°C | 30.4% | 286hPa | 2.6V | 07:59:37 | 02:03:12 | 00:00:00 | |
| AA1-15 | 2026-09-02 08:38:04 | 52.54279 | 8.52905 | 112° | 86km/h | 9668m | -5.1m/s | -47.2°C | 30.4% | 285.8hPa | 2.5V | 07:59:37 | 02:03:11 | 00:00:00 | |
| BIOWL1-15 | 2026-09-02 08:38:01 | 52.54351 | 8.52612 | 112° | 84km/h | 9715m | -5m/s | -47.7°C | 31.2% | 283.8hPa | 2.5V | 07:59:37 | 02:03:02 | 00:00:00 | |
| DL1XH-west | 2026-09-02 08:38:00 | 52.54311 | 8.52773 | 112° | 84km/h | 9689m | -5.2m/s | -47.4°C | 30.7% | 284.9hPa | 2.6V | 07:59:37 | 02:03:07 | 00:00:00 | |
| DO2JMG | 2026-09-02 08:37:58 | 52.54327 | 8.52709 | 112° | 84km/h | 9699m | -5.3m/s | -47.5°C | 31% | 284.4hPa | 2.6V | 07:59:37 | 02:03:05 | 00:00:00 | |
| DJ2DS-15 | 2026-09-02 08:37:57 | 52.54335 | 8.52676 | 112° | 82km/h | 9705m | -5.1m/s | -47.5°C | 24.4% | 284.2hPa | 2.5V | 00:00:00 | 00:00:00 | 00:00:00 | |
| DB0DAN | 2026-09-02 08:37:55 | 52.54351 | 8.52612 | 112° | 80km/h | 9715m | -5m/s | -47.7°C | 24.6% | 283.77hPa | 2.5V | 00:00:00 | 00:00:00 | 00:00:00 | |
| AA1-15 | 2026-09-02 08:37:54 | 52.54359 | 8.52580 | 112° | 84km/h | 9720m | -5.2m/s | -47.7°C | 31.3% | 283.5hPa | 2.6V | 07:59:37 | 02:03:01 | 00:00:00 | |
| DL1XH-west | 2026-09-02 08:37:50 | 52.54389 | 8.52451 | 110° | 82km/h | 9741m | -5.1m/s | -47.9°C | 31.5% | 282.6hPa | 2.5V | 07:59:37 | 02:02:57 | 00:00:00 | |
| GOEST3-10 | 2026-09-02 08:37:50 | 52.54389 | 8.52451 | 111° | 82km/h | 9741m | -5.1m/s | -47.8°C | 28.4% | 282.5hPa | 2.6V | 00:00:00 | 00:00:00 | 00:00:00 | |
| DL1XH-15 | 2026-09-02 08:37:49 | 52.54432 | 8.52260 | 110° | 82km/h | 9772m | -5.1m/s | -48.1°C | 28.6% | 281.3hPa | 2.6V | 07:59:10 | 02:02:51 | 00:00:00 | |
| DO2JMG | 2026-09-02 08:37:48 | 52.54403 | 8.52387 | 110° | 82km/h | 9751m | -5.1m/s | -48°C | 31.6% | 282.1hPa | 2.6V | 07:59:37 | 02:02:55 | 00:00:00 | |
| DD1CC8 | 2026-09-02 08:37:46 | 52.54425 | 8.52291 | 110° | 80km/h | 9767m | -5.3m/s | -48.0°C | 25.1% | 281.5hPa | 2.6V | 00:00:00 | 00:00:00 | 00:00:00 | |
| DB0ND-19 | 2026-09-02 08:37:45 | 52.54432 | 8.52260 | 110° | 80km/h | 9772m | -5.1m/s | -48.1°C | 25.1% | 281.3hPa | 2.6V | 00:00:00 | 00:00:00 | 00:00:00 | |
| BIOWL9-15 | 2026-09-02 08:37:44 | 52.54432 | 8.52260 | 110° | 80km/h | 9772m | -5.1m/s | -48.1°C | 25.1% | 281.3hPa | 2.6V | 00:00:00 | 00:00:00 | 00:00:00 | |
| HSKMA3-T | 2026-09-02 08:37:44 | 52.54432 | 8.52260 | 111° | 82km/h | 9772m | -5.1m/s | -48.1°C | 31.7% | 281.3hPa | 2.6V | 07:59:37 | 02:02:51 | 00:00:00 | |
| AA1-15 | 2026-09-02 08:37:43 | 52.54439 | 8.52228 | 111° | 82km/h | 9777m | -5m/s | -48.2°C | 31.6% | 281.1hPa | 2.6V | 07:59:37 | 02:02:50 | 00:00:00 | |
| EDDB2-11 | 2026-09-02 08:37:43 | 52.54447 | 8.52196 | 111° | 80km/h | 9782m | -5.2m/s | -48.2°C | 25.3% | 280.9hPa | 2.5V | 00:00:00 | 00:00:00 | 00:00:00 | |
| DB0UT-7 | 2026-09-02 08:37:42 | 52.54447 | 8.52196 | 112° | 78km/h | 9782m | -5.1m/s | -48.1°C | 28.9% | 280.8hPa | 2.5V | 07:59:00 | 02:02:49 | 00:00:00 | |
| SMARD9-10 | 2026-09-02 08:37:41 | 52.54447 | 8.52196 | 112° | 82km/h | 9782m | -5.2m/s | -48.2°C | 25.3% | 280.9hPa | 2.6V | 07:59:00 | 00:00:00 | 00:00:00 | |
| DB0DAN | 2026-09-02 08:37:40 | 52.54462 | 8.52133 | 111° | 77km/h | 9792m | -5m/s | -48.2°C | 25.4% | 280.41hPa | 2.6V | 00:00:00 | 00:00:00 | 00:00:00 | |
| DL1XH-west | 2026-09-02 08:37:40 | 52.54462 | 8.52133 | 111° | 80km/h | 9793m | -5m/s | -48.2°C | 31.7% | 280.4hPa | 2.6V | 07:59:37 | 02:02:47 | 00:00:00 | |
| DL1XH-15 | 2026-09-02 08:37:39 | 52.54506 | 8.51947 | 111° | 80km/h | 9823m | -5.1m/s | -48.5°C | 29.5% | 279.1hPa | 2.6V | 07:59:20 | 02:02:41 | 00:00:00 | |
| DO2JMG | 2026-09-02 08:37:38 | 52.54476 | 8.52071 | 111° | 80km/h | 9803m | -5m/s | -48.3°C | 31.9% | 280hPa | 2.6V | 07:59:37 | 02:02:45 | 00:00:00 | |
| DL3AQ-11 | 2026-09-02 08:37:38 | 52.54484 | 8.52040 | 111° | 78km/h | 9808m | -5.1m/s | -48.4°C | 25.7% | 279.7hPa | 2.5V | 00:00:00 | 00:00:00 | 00:00:00 | |
| DF5WG-10 | 2026-09-02 08:37:37 | 52.54484 | 8.52040 | 112° | 78km/h | 9808m | -5.1m/s | -48.3°C | 29.3% | 279.7hPa | 2.5V | 00:00:00 | 02:02:44 | 00:00:00 | |
| DD8BA-10 | 2026-09-02 08:37:36 | 52.54491 | 8.52009 | 112° | 78km/h | 9813m | -5.0m/s | -48.4°C | 29.4% | 279.5hPa | 2.5V | 00:00:00 | 00:00:00 | 00:00:00 | |
| DM0DOS-11 | 2026-09-02 08:37:35 | 52.54535 | 8.51825 | 111° | 78km/h | 9843m | -5.1m/s | -48.6°C | 30.1% | 278.3hPa | 2.5V | 07:59:24 | 02:02:37 | 00:00:00 | |
| HSKMA3-T | 2026-09-02 08:37:34 | 52.54506 | 8.51947 | 112° | 80km/h | 9823m | -5.1m/s | -48.5°C | 32.5% | 279.1hPa | 2.6V | 07:59:37 | 02:02:41 | 00:00:00 | |
| AA1-15 | 2026-09-02 08:37:33 | 52.54514 | 8.51917 | 112° | 78km/h | 9828m | -5m/s | -48.5°C | 32.6% | 278.9hPa | 2.6V | 07:59:37 | 02:02:40 | 00:00:00 | |
| DL1XH-west | 2026-09-02 08:37:30 | 52.54535 | 8.51825 | 111° | 78km/h | 9843m | -5.1m/s | -48.6°C | 33.1% | 278.3hPa | 2.5V | 07:59:37 | 02:02:37 | 00:00:00 | |
| GOEST3-10 | 2026-09-02 08:37:30 | 52.54535 | 8.51825 | 112° | 78km/h | 9843m | -5.1m/s | -48.6°C | 30.1% | 278.2hPa | 2.6V | 00:00:00 | 00:00:00 | 00:00:00 | |
| DL4XJ-10 | 2026-09-02 08:37:29 | 52.54542 | 8.51795 | 111° | 77km/h | 9848m | -5.0m/s | -49.2°C | 0% | 0hPa | 2.6V | 00:00:00 | 00:00:00 | 00:00:00 | |
| DO2KSM | 2026-09-02 08:37:28 | 52.54542 | 8.51795 | 111° | 78km/h | 9848m | -5.0m/s | -48.7°C | 26.6% | 278.0hPa | 2.6V | 00:00:00 | 00:00:00 | 00:00:00 | |
| DF5WG-10 | 2026-09-02 08:37:27 | 52.54556 | 8.51734 | 111° | 77km/h | 9858m | -5.2m/s | -48.7°C | 30.5% | 277.6hPa | 2.6V | 00:00:00 | 02:02:34 | 00:00:00 | |
| DO2JMG | 2026-09-02 08:37:27 | 52.54556 | 8.51734 | 110° | 78km/h | 9858m | -5.2m/s | -48.8°C | 33.5% | 277.6hPa | 2.5V | 07:59:37 | 02:02:34 | 00:00:00 | |
| DL1CLM-18 | 2026-09-02 08:37:26 | 52.54556 | 8.51734 | 111° | 78km/h | 9858m | -5.2m/s | -48.8°C | 26.7% | 277.6hPa | 2.6V | 07:59:00 | 00:00:00 | 00:00:00 | |
| DB0DAN | 2026-09-02 08:37:25 | 52.54569 | 8.51673 | 110° | 73km/h | 9868m | -4.9m/s | -48.8°C | 27% | 277.19hPa | 2.6V | 00:00:00 | 00:00:00 | 00:00:00 | |
| DM0DOS-11 | 2026-09-02 08:37:25 | 52.54601 | 8.51523 | 108° | 77km/h | 9893m | -5m/s | -49°C | 30.7% | 276.1hPa | 2.5V | 07:59:34 | 02:02:27 | 00:00:00 | |
| HSKMA3-T | 2026-09-02 08:37:24 | 52.54576 | 8.51643 | 109° | 77km/h | 9873m | -4.9m/s | -48.9°C | 33.9% | 277hPa | 2.6V | 07:59:37 | 02:02:31 | 00:00:00 | |
| BIOWL1-15 | 2026-09-02 08:37:23 | 52.54582 | 8.51614 | 109° | 77km/h | 9878m | -5m/s | -48.9°C | 33.9% | 276.8hPa | 2.6V | 07:59:37 | 02:02:30 | 00:00:00 | |
| AA1-15 | 2026-09-02 08:37:22 | 52.54588 | 8.51584 | 108° | 77km/h | 9883m | -5m/s | -48.9°C | 33.8% | 276.6hPa | 2.6V | 07:59:37 | 02:02:29 | 00:00:00 | |
| DL1XH-west | 2026-09-02 08:37:19 | 52.54607 | 8.51493 | 109° | 77km/h | 9898m | -4.9m/s | -49°C | 33.8% | 275.9hPa | 2.6V | 07:59:37 | 02:02:26 | 00:00:00 | |
| DO2JMG | 2026-09-02 08:37:17 | 52.54619 | 8.51432 | 108° | 78km/h | 9908m | -5.3m/s | -49°C | 33.7% | 275.5hPa | 2.6V | 07:59:37 | 02:02:24 | 00:00:00 | |
| DF5WG-10 | 2026-09-02 08:37:17 | 52.54619 | 8.51432 | 108° | 78km/h | 9908m | -5.2m/s | -48.9°C | 30.6% | 275.5hPa | 2.6V | 00:00:00 | 02:02:24 | 00:00:00 | |
| DD8BA-10 | 2026-09-02 08:37:16 | 52.54625 | 8.51401 | 108° | 78km/h | 9913m | -5.0m/s | -49.0°C | 30.6% | 275.3hPa | 2.6V | 07:59:00 | 00:00:00 | 00:00:00 | |
| DM0DOS-11 | 2026-09-02 08:37:15 | 52.54659 | 8.51215 | 106° | 77km/h | 9943m | -4.9m/s | -49.2°C | 31.7% | 274hPa | 2.6V | 07:59:44 | 02:02:17 | 00:00:00 | |
| DD1CC8 | 2026-09-02 08:37:15 | 52.54637 | 8.51339 | 107° | 77km/h | 9923m | -4.9m/s | -49.1°C | 27.3% | 274.9hPa | 2.6V | 00:00:00 | 00:00:00 | 00:00:00 | |
| DL1XH1-15 | 2026-09-02 08:37:14 | 52.54664 | 8.51185 | 105° | 77km/h | 9948m | -4.9m/s | -49.2°C | 31.5% | 273.8hPa | 2.6V | 07:59:45 | 02:02:16 | 00:00:00 | |
| HSKMA3-T | 2026-09-02 08:37:13 | 52.54642 | 8.51308 | 107° | 78km/h | 9928m | -5.1m/s | -49.2°C | 34.4% | 274.7hPa | 2.5V | 08:00:28 | 02:02:20 | 00:00:00 | |
| AA1-15 | 2026-09-02 08:37:11 | 52.54654 | 8.51246 | 106° | 78km/h | 9938m | -4.9m/s | -49.2°C | 34.6% | 274.2hPa | 2.6V | 08:00:28 | 02:02:18 | 00:00:00 | |
| DB0DAN | 2026-09-02 08:37:10 | 52.54659 | 8.51216 | 106° | 73km/h | 9943m | -4.9m/s | -49.2°C | 27.8% | 273.99hPa | 2.6V | 00:00:00 | 00:00:00 | 00:00:00 | |
| DL1XH-west | 2026-09-02 08:37:08 | 52.54670 | 8.51154 | 105° | 78km/h | 9953m | -5.2m/s | -49.3°C | 35% | 273.6hPa | 2.5V | 08:00:28 | 02:02:15 | 00:00:00 | |
| DF5WG-10 | 2026-09-02 08:37:07 | 52.54675 | 8.51122 | 106° | 80km/h | 9958m | -5.0m/s | -49.3°C | 31.9% | 273.4hPa | 2.5V | 00:00:00 | 02:02:14 | 00:00:00 | |
| DL4BBY-15 | 2026-09-02 08:37:06 | 52.54680 | 8.51091 | 105° | 80km/h | 9964m | -5.0m/s | -49.8°C | 0% | 0hPa | 2.5V | 00:00:00 | 00:00:00 | 00:00:00 | |
| DO2JMG | 2026-09-02 08:37:06 | 52.54680 | 8.51091 | 105° | 78km/h | 9963m | -5m/s | -49.3°C | 35.5% | 273.2hPa | 2.6V | 08:00:28 | 02:02:13 | 00:00:00 | |
| DM0DOS-11 | 2026-09-02 08:37:05 | 52.54709 | 8.50898 | 103° | 80km/h | 9993m | -4.9m/s | -49.5°C | 32.6% | 272hPa | 2.5V | 07:59:54 | 02:02:07 | 00:00:00 | |
| DL1XH1-15 | 2026-09-02 08:37:04 | 52.54714 | 8.50866 | 103° | 80km/h | 9998m | -5m/s | -49.6°C | 33.2% | 271.7hPa | 2.6V | 07:59:55 | 02:02:06 | 00:00:00 | |
| BIOWL1-15 | 2026-09-02 08:37:04 | 52.54700 | 8.50963 | 104° | 80km/h | 9983m | -5m/s | -49.5°C | 35.8% | 272.4hPa | 2.5V | 08:00:28 | 02:02:09 | 00:00:00 | |
| HSKMA3-T | 2026-09-02 08:37:03 | 52.54695 | 8.50996 | 104° | 80km/h | 9979m | -5m/s | -49.4°C | 35.7% | 272.6hPa | 2.6V | 08:00:28 | 02:02:10 | 00:00:00 | |
| AA1-15 | 2026-09-02 08:37:00 | 52.54709 | 8.50898 | 103° | 80km/h | 9993m | -4.9m/s | -49.5°C | 35.9% | 272hPa | 2.5V | 08:00:28 | 02:02:07 | 00:00:00 | |
| GOEST3-10 | 2026-09-02 08:37:00 | 52.54709 | 8.50898 | 104° | 80km/h | 9993m | -4.9m/s | -49.5°C | 32.6% | 271.9hPa | 2.6V | 00:00:00 | 00:00:00 | 00:00:00 | |
| DL1XH-15 | 2026-09-02 08:36:59 | 52.54736 | 8.50705 | 102° | 78km/h | 10023m | -5m/s | -49.7°C | 33.8% | 270.7hPa | 2.6V | 08:00:00 | 02:02:01 | 00:00:00 | |
| DL1XH-west | 2026-09-02 08:36:58 | 52.54718 | 8.50833 | 103° | 80km/h | 10004m | -5m/s | -49.6°C | 36.4% | 271.5hPa | 2.6V | 08:00:28 | 02:02:05 | 00:00:00 | |
| DO2JMG | 2026-09-02 08:36:56 | 52.54727 | 8.50769 | 103° | 80km/h | 10013m | -4.9m/s | -49.7°C | 36.7% | 271.1hPa | 2.5V | 08:00:28 | 02:02:03 | 00:00:00 | |
| DB0DAN | 2026-09-02 08:36:55 | 52.54732 | 8.50737 | 103° | 75km/h | 10018m | -5m/s | -49.7°C | 29.8% | 270.89hPa | 2.6V | 00:00:00 | 00:00:00 | 00:00:00 | |
| DM0DOS-11 | 2026-09-02 08:36:55 | 52.54754 | 8.50577 | 102° | 80km/h | 10043m | -5.2m/s | -49.8°C | 34.7% | 269.9hPa | 2.6V | 08:00:04 | 02:01:57 | 00:00:00 | |
| DO9LL-15 | 2026-09-02 08:36:55 | 52.54732 | 8.50737 | 103° | 82km/h | 10018m | -4.9m/s | -49.7°C | 33.8% | 270.8hPa | 2.6V | 00:00:00 | 02:02:02 | 00:00:00 | |
| DL1XH1-15 | 2026-09-02 08:36:54 | 52.54758 | 8.50544 | 102° | 82km/h | 10048m | -5m/s | -49.8°C | 35.1% | 269.6hPa | 2.6V | 08:00:05 | 02:01:56 | 00:00:00 | |
| BIOWL1-15 | 2026-09-02 08:36:52 | 52.54745 | 8.50641 | 103° | 78km/h | 10033m | -5.1m/s | -49.8°C | 37.2% | 270.3hPa | 2.5V | 08:00:28 | 02:01:59 | 00:00:00 | |
| AA1-15 | 2026-09-02 08:36:50 | 52.54754 | 8.50577 | 103° | 80km/h | 10043m | -5.2m/s | -49.8°C | 37.6% | 269.9hPa | 2.6V | 08:00:28 | 02:01:57 | 00:00:00 | |
| DL1XH-west | 2026-09-02 08:36:48 | 52.54763 | 8.50511 | 103° | 82km/h | 10053m | -5.1m/s | -49.9°C | 38.2% | 269.4hPa | 2.6V | 08:00:28 | 02:01:55 | 00:00:00 | |
| DO2JMG | 2026-09-02 08:36:45 | 52.54778 | 8.50410 | 104° | 84km/h | 10068m | -5m/s | -50°C | 38.8% | 268.9hPa | 2.6V | 08:00:28 | 02:01:52 | 00:00:00 | |
| DL3AQ-11 | 2026-09-02 08:36:45 | 52.54783 | 8.50376 | 103° | 82km/h | 10073m | -4.9m/s | -50.1°C | 32.0% | 268.6hPa | 2.6V | 00:00:00 | 00:00:00 | 00:00:00 | |
| DL1XH1-15 | 2026-09-02 08:36:44 | 52.54810 | 8.50211 | 105° | 82km/h | 10098m | -5.4m/s | -50.3°C | 37% | 267.6hPa | 2.6V | 08:00:15 | 02:01:46 | 00:00:00 | |
| BIOWL1-15 | 2026-09-02 08:36:44 | 52.54793 | 8.50310 | 105° | 82km/h | 10083m | -5m/s | -50.2°C | 39.5% | 268.2hPa | 2.5V | 08:00:28 | 02:01:49 | 00:00:00 | |
| HSKMA3-T | 2026-09-02 08:36:41 | 52.54799 | 8.50276 | 105° | 82km/h | 10088m | -5m/s | -50.2°C | 39.5% | 268hPa | 2.5V | 08:00:28 | 02:01:48 | 00:00:00 | |
| DB0DAN | 2026-09-02 08:36:40 | 52.54804 | 8.50244 | 105° | 78km/h | 10093m | -5.1m/s | -50.3°C | 32.6% | 267.84hPa | 2.6V | 00:00:00 | 00:00:00 | 00:00:00 | |
| DB0NH | 2026-09-02 08:36:40 | 52.54804 | 8.50243 | 106° | 84km/h | 10093m | -5.1m/s | -50.2°C | 36.9% | 267.8hPa | 2.6V | 00:00:00 | 02:01:47 | 00:00:00 | |
| DL1XH-15 | 2026-09-02 08:36:39 | 52.54839 | 8.50043 | 107° | 86km/h | 10124m | -5.2m/s | -50.5°C | 37.5% | 266.6hPa | 2.6V | 08:00:20 | 02:01:41 | 00:00:00 | |
| AA1-15 | 2026-09-02 08:36:39 | 52.54810 | 8.50211 | 106° | 82km/h | 10099m | -5.4m/s | -50.3°C | 39.8% | 267.6hPa | 2.6V | 08:00:28 | 02:01:46 | 00:00:00 | |
| DL1XH-west | 2026-09-02 08:36:37 | 52.54821 | 8.50144 | 106° | 84km/h | 10109m | -5.1m/s | -50.4°C | 39.9% | 267.2hPa | 2.5V | 08:00:28 | 02:01:44 | 00:00:00 | |
| DO2JMG | 2026-09-02 08:36:35 | 52.54833 | 8.50077 | 107° | 86km/h | 10119m | -5m/s | -50.4°C | 40.1% | 266.8hPa | 2.6V | 08:00:28 | 02:01:42 | 00:00:00 | |
| GOEST3-10 | 2026-09-02 08:36:35 | 52.54833 | 8.50077 | 107° | 88km/h | 10119m | -5.0m/s | -50.4°C | 37.2% | 266.8hPa | 2.6V | 00:00:00 | 02:01:42 | 00:00:00 | |
| DL1XH1-15 | 2026-09-02 08:36:34 | 52.54874 | 8.49871 | 109° | 88km/h | 10150m | -5.1m/s | -50.6°C | 36.6% | 265.6hPa | 2.6V | 08:00:25 | 02:01:36 | 00:00:00 | |
| BIOWL1-15 | 2026-09-02 08:36:31 | 52.54860 | 8.49940 | 109° | 88km/h | 10139m | -5m/s | -50.6°C | 39.6% | 265.9hPa | 2.5V | 08:00:28 | 02:01:38 | 00:00:00 | |
| HSKMA3-T | 2026-09-02 08:36:30 | 52.54867 | 8.49905 | 109° | 88km/h | 10144m | -5.2m/s | -50.6°C | 39.4% | 265.7hPa | 2.6V | 08:00:28 | 02:01:37 | 00:00:00 | |
| GOEST3-10 | 2026-09-02 08:36:30 | 52.54867 | 8.49905 | 109° | 86km/h | 10144m | -5.1m/s | -50.5°C | 36.8% | 265.7hPa | 2.6V | 00:00:00 | 00:00:00 | 00:00:00 | |
| DL1XH-15 | 2026-09-02 08:36:29 | 52.54911 | 8.49704 | 109° | 84km/h | 10175m | -5m/s | -50.7°C | 34.9% | 264.5hPa | 2.6V | 08:00:30 | 02:01:31 | 00:00:00 | |
| AA1-15 | 2026-09-02 08:36:28 | 52.54881 | 8.49837 | 109° | 86km/h | 10155m | -5.2m/s | -50.7°C | 38.8% | 265.3hPa | 2.6V | 08:00:28 | 02:01:35 | 00:00:00 | |
| DL1XH-west | 2026-09-02 08:36:27 | 52.54889 | 8.49803 | 110° | 86km/h | 10160m | -5m/s | -50.6°C | 38.4% | 265.1hPa | 2.5V | 08:00:28 | 02:01:34 | 00:00:00 | |
| DF5WG-10 | 2026-09-02 08:36:27 | 52.54888 | 8.49803 | 110° | 84km/h | 10160m | -4.9m/s | -50.6°C | 36.0% | 265.1hPa | 2.6V | 00:00:00 | 02:01:34 | 00:00:00 | |
| DB0DAN | 2026-09-02 08:36:25 | 52.54903 | 8.49737 | 110° | 80km/h | 10170m | -5.1m/s | -50.7°C | 30.9% | 264.72hPa | 2.6V | 00:00:00 | 00:00:00 | 00:00:00 | |
| DM0DOS-11 | 2026-09-02 08:36:25 | 52.54940 | 8.49573 | 110° | 84km/h | 10195m | -5.2m/s | -50.8°C | 33.2% | 263.7hPa | 2.6V | 08:00:34 | 02:01:27 | 00:00:00 | |
| DO2JMG | 2026-09-02 08:36:24 | 52.54911 | 8.49704 | 110° | 84km/h | 10175m | -5m/s | -50.7°C | 37.1% | 264.5hPa | 2.6V | 08:01:19 | 02:01:31 | 00:00:00 | |
| BIOWL1-15 | 2026-09-02 08:36:20 | 52.54940 | 8.49573 | 111° | 84km/h | 10196m | -5.2m/s | -50.8°C | 35.1% | 263.7hPa | 2.6V | 08:01:19 | 02:01:27 | 00:00:00 | |
| DL1XH-west | 2026-09-02 08:36:17 | 52.54962 | 8.49475 | 111° | 84km/h | 10211m | -5.1m/s | -50.7°C | 33.9% | 263.1hPa | 2.5V | 08:01:19 | 02:01:24 | 00:00:00 | |
| DF5WG-10 | 2026-09-02 08:36:17 | 52.54962 | 8.49475 | 111° | 82km/h | 10211m | -5.1m/s | -50.7°C | 32.1% | 263.0hPa | 2.5V | 00:00:00 | 02:01:24 | 00:00:00 | |
| DD8BA-10 | 2026-09-02 08:36:16 | 52.54970 | 8.49442 | 112° | 82km/h | 10216m | -5.0m/s | -50.6°C | 32.1% | 262.8hPa | 2.5V | 00:00:00 | 00:00:00 | 00:00:00 | |
| DM0DOS-11 | 2026-09-02 08:36:15 | 52.55015 | 8.49251 | 110° | 80km/h | 10247m | -5.4m/s | -50.7°C | 30.1% | 261.6hPa | 2.5V | 08:00:44 | 02:01:17 | 00:00:00 | |
| GOEST3-10 | 2026-09-02 08:36:15 | 52.54978 | 8.49410 | 112° | 82km/h | 10221m | -4.9m/s | -50.7°C | 31.9% | 262.6hPa | 2.5V | 00:00:00 | 02:01:22 | 00:00:00 | |
| DL1XH1-15 | 2026-09-02 08:36:14 | 52.55022 | 8.49220 | 110° | 78km/h | 10253m | -5.4m/s | -50.7°C | 29.7% | 261.4hPa | 2.5V | 08:00:45 | 02:01:16 | 00:00:00 | |
| DO2JMG | 2026-09-02 08:36:14 | 52.54985 | 8.49378 | 111° | 84km/h | 10226m | -5.2m/s | -50.7°C | 33.1% | 262.4hPa | 2.6V | 08:01:19 | 02:01:21 | 00:00:00 | |
| DD1CC8 | 2026-09-02 08:36:13 | 52.55001 | 8.49313 | 110° | 80km/h | 10237m | -5.2m/s | -50.6°C | 26.7% | 262.0hPa | 2.6V | 00:00:00 | 00:00:00 | 00:00:00 | |
| DB0UT-7 | 2026-09-02 08:36:12 | 52.55001 | 8.49313 | 111° | 77km/h | 10237m | -5.1m/s | -50.6°C | 30.7% | 262.0hPa | 2.6V | 08:00:00 | 00:00:00 | 00:00:00 | |
| DB0DAN | 2026-09-02 08:36:10 | 52.55015 | 8.49250 | 111° | 77km/h | 10247m | -5.4m/s | -50.7°C | 26.1% | 261.57hPa | 2.5V | 00:00:00 | 00:00:00 | 00:00:00 | |
| HSKMA3-T | 2026-09-02 08:36:10 | 52.55015 | 8.49250 | 111° | 80km/h | 10247m | -5.4m/s | -50.7°C | 32.2% | 261.6hPa | 2.5V | 08:01:19 | 02:01:17 | 00:00:00 | |
| BIOWL1-15 | 2026-09-02 08:36:09 | 52.55022 | 8.49220 | 111° | 78km/h | 10253m | -5.4m/s | -50.7°C | 31.9% | 261.4hPa | 2.5V | 08:01:19 | 02:01:16 | 00:00:00 | |
| AA1-15 | 2026-09-02 08:36:07 | 52.55036 | 8.49159 | 111° | 77km/h | 10263m | -5.4m/s | -50.7°C | 31.4% | 261hPa | 2.6V | 08:01:19 | 02:01:14 | 00:00:00 | |
| DL1XH-west | 2026-09-02 08:36:06 | 52.55043 | 8.49129 | 111° | 77km/h | 10269m | -5.1m/s | -50.7°C | 31.3% | 260.8hPa | 2.6V | 08:01:19 | 02:01:13 | 00:00:00 | |
| DL4BBY-15 | 2026-09-02 08:36:06 | 52.55043 | 8.49129 | 111° | 77km/h | 10269m | -5.1m/s | -51.2°C | 0% | 0hPa | 2.6V | 00:00:00 | 00:00:00 | 00:00:00 | |
| DM0DOS-11 | 2026-09-02 08:36:05 | 52.55082 | 8.48952 | 108° | 77km/h | 10300m | -5.3m/s | -50.7°C | 27.5% | 259.5hPa | 2.6V | 08:00:54 | 02:01:07 | 00:00:00 | |
| DL3AQ-11 | 2026-09-02 08:36:05 | 52.55057 | 8.49070 | 110° | 75km/h | 10279m | -5.1m/s | -50.7°C | 24.7% | 260.3hPa | 2.6V | 00:00:00 | 00:00:00 | 00:00:00 | |
| DL1XH1-15 | 2026-09-02 08:36:04 | 52.55088 | 8.48921 | 108° | 77km/h | 10305m | -5.1m/s | -50.7°C | 27.4% | 259.2hPa | 2.6V | 08:00:55 | 02:01:06 | 00:00:00 | |
| DJ2DS-15 | 2026-09-02 08:36:04 | 52.55056 | 8.49070 | 111° | 77km/h | 10279m | -5.0m/s | -50.7°C | 28.6% | 260.3hPa | 2.5V | 08:00:00 | 02:01:11 | 00:00:00 | |
| DL1NUX | 2026-09-02 08:36:03 | 52.55095 | 8.48891 | 108° | 77km/h | 10310m | -5.5m/s | -50.7°C | 27.1% | 259hPa | 2.5V | 08:00:56 | 02:01:05 | 00:00:00 | |
| DO2JMG | 2026-09-02 08:36:03 | 52.55063 | 8.49041 | 110° | 75km/h | 10284m | -5.4m/s | -50.8°C | 30.6% | 260.1hPa | 2.5V | 08:01:19 | 02:01:10 | 00:00:00 | |
| HSKMA3-T | 2026-09-02 08:35:59 | 52.55088 | 8.48921 | 109° | 77km/h | 10305m | -5.1m/s | -50.7°C | 29.6% | 259.3hPa | 2.6V | 08:01:19 | 02:01:06 | 00:00:00 | |
| BIOWL1-15 | 2026-09-02 08:35:58 | 52.55094 | 8.48891 | 108° | 77km/h | 10311m | -5.5m/s | -50.7°C | 29.4% | 259hPa | 2.5V | 08:01:19 | 02:01:05 | 00:00:00 | |
| AA1-15 | 2026-09-02 08:35:56 | 52.55107 | 8.48830 | 109° | 77km/h | 10321m | -5.4m/s | -50.7°C | 29% | 258.6hPa | 2.6V | 08:01:19 | 02:01:03 | 00:00:00 | |
| DL1XH-west | 2026-09-02 08:35:55 | 52.55113 | 8.48800 | 109° | 78km/h | 10327m | -5.4m/s | -50.7°C | 28.8% | 258.4hPa | 2.6V | 08:01:19 | 02:01:02 | 00:00:00 | |
| DB0DAN | 2026-09-02 08:35:55 | 52.55113 | 8.48800 | 109° | 75km/h | 10327m | -5.4m/s | -50.7°C | 22.7% | 258.36hPa | 2.6V | 00:00:00 | 00:00:00 | 00:00:00 | |
| DL1XH1-15 | 2026-09-02 08:35:54 | 52.55152 | 8.48621 | 110° | 75km/h | 10360m | -5.5m/s | -50.8°C | 25.8% | 257.1hPa | 2.5V | 08:01:05 | 02:00:56 | 00:00:00 | |
| DL3AQ-11 | 2026-09-02 08:35:54 | 52.55126 | 8.48739 | 109° | 77km/h | 10338m | -5.7m/s | -50.7°C | 22.3% | 258.0hPa | 2.6V | 00:00:00 | 00:00:00 | 00:00:00 | |
| DL1NUX | 2026-09-02 08:35:53 | 52.55159 | 8.48592 | 110° | 75km/h | 10365m | -5.5m/s | -50.8°C | 25.7% | 256.9hPa | 2.6V | 08:01:06 | 02:00:55 | 00:00:00 | |
| DO2JMG | 2026-09-02 08:35:52 | 52.55132 | 8.48709 | 110° | 77km/h | 10343m | -5.4m/s | -50.7°C | 28.3% | 257.8hPa | 2.6V | 08:01:19 | 02:00:59 | 00:00:00 | |
| D01LWL | 2026-09-02 08:35:51 | 52.55139 | 8.48680 | 110° | 75km/h | 10349m | -5.5m/s | -50.7°C | 22.2% | 257.5hPa | 2.6V | 00:00:00 | 00:00:00 | 00:00:00 | |
| GOEST3-10 | 2026-09-02 08:35:50 | 52.55145 | 8.48650 | 111° | 75km/h | 10354m | -5.4m/s | -50.7°C | 25.9% | 257.3hPa | 2.6V | 00:00:00 | 00:00:00 | 00:00:00 | |
| DL1XH-15 | 2026-09-02 08:35:49 | 52.55186 | 8.48475 | 110° | 77km/h | 10387m | -5.2m/s | -50.6°C | 24.7% | 256hPa | 2.6V | 08:01:10 | 02:00:51 | 00:00:00 | |
| HSKMA3-T | 2026-09-02 08:35:48 | 52.55159 | 8.48592 | 110° | 75km/h | 10365m | -5.5m/s | -50.8°C | 27.9% | 256.9hPa | 2.6V | 08:01:19 | 02:00:55 | 00:00:00 | |
| DN9WHV | 2026-09-02 08:35:48 | 52.55152 | 8.48621 | 112° | 75km/h | 10360m | -5.5m/s | -50.8°C | 22.0% | 257.1hPa | 2.6V | 08:01:00 | 00:00:00 | 00:00:00 | |
| DF5WG-10 | 2026-09-02 08:35:47 | 52.55166 | 8.48563 | 111° | 77km/h | 10371m | -5.5m/s | -50.8°C | 25.5% | 256.6hPa | 2.6V | 00:00:00 | 02:00:54 | 00:00:00 | |
| SO1NDE-10 | 2026-09-02 08:35:46 | 52.55172 | 8.48534 | 111° | 78km/h | 10376m | -5.3m/s | -50.7°C | 25.2% | 256.4hPa | 2.6V | 00:00:00 | 02:00:53 | 00:00:00 | |
| DM0DOS-11 | 2026-09-02 08:35:45 | 52.55213 | 8.48356 | 111° | 77km/h | 10408m | -5.4m/s | -50.8°C | 24.6% | 255.2hPa | 2.6V | 08:01:14 | 02:00:47 | 00:00:00 | |
| DL1XH-west | 2026-09-02 08:35:45 | 52.55179 | 8.48504 | 111° | 75km/h | 10381m | -5.4m/s | -50.7°C | 27.4% | 256.2hPa | 2.6V | 08:01:19 | 02:00:52 | 00:00:00 | |
| GOEST3-10 | 2026-09-02 08:35:45 | 52.55179 | 8.48504 | 111° | 77km/h | 10382m | -5.4m/s | -50.7°C | 24.8% | 256.2hPa | 2.6V | 00:00:00 | 02:00:52 | 00:00:00 | |
| DJ2DS-15 | 2026-09-02 08:35:44 | 52.55186 | 8.48475 | 111° | 78km/h | 10387m | -5.2m/s | -50.6°C | 24.7% | 255.9hPa | 2.6V | 00:00:00 | 02:00:51 | 00:00:00 | |
| DL1NUX | 2026-09-02 08:35:43 | 52.55227 | 8.48296 | 111° | 77km/h | 10419m | -5.3m/s | -50.8°C | 24.7% | 254.8hPa | 2.6V | 08:01:16 | 02:00:45 | 00:00:00 | |
| DO2JMG | 2026-09-02 08:35:41 | 52.55206 | 8.48386 | 111° | 77km/h | 10403m | -5.2m/s | -50.7°C | 27.3% | 255.4hPa | 2.6V | 08:01:19 | 02:00:48 | 00:00:00 | |
| DB0DAN | 2026-09-02 08:35:40 | 52.55213 | 8.48356 | 111° | 73km/h | 10408m | -5.4m/s | -50.8°C | 20.9% | 255.17hPa | 2.6V | 00:00:00 | 00:00:00 | 00:00:00 | |
| BIOWL9-15 | 2026-09-02 08:35:40 | 52.55220 | 8.48326 | 110° | 77km/h | 10414m | -5.4m/s | -50.8°C | 21.0% | 255.0hPa | 2.5V | 00:00:00 | 00:00:00 | 00:00:00 | |
| DL1XH-15 | 2026-09-02 08:35:39 | 52.55256 | 8.48177 | 111° | 77km/h | 10440m | -5.4m/s | -51°C | 24.8% | 253.9hPa | 2.5V | 08:01:20 | 02:00:41 | 00:00:00 | |
| BIOWL1-15 | 2026-09-02 08:35:39 | 52.55234 | 8.48266 | 111° | 78km/h | 10424m | -5.3m/s | -50.8°C | 27.4% | 254.5hPa | 2.6V | 08:01:19 | 02:00:44 | 00:00:00 | |
| HSKMA3-T | 2026-09-02 08:35:38 | 52.55227 | 8.48296 | 111° | 77km/h | 10419m | -5.3m/s | -50.8°C | 27.4% | 254.8hPa | 2.6V | 08:01:19 | 02:00:45 | 00:00:00 | |
| DL3AQ-11 | 2026-09-02 08:35:38 | 52.55234 | 8.48266 | 111° | 77km/h | 10424m | -5.3m/s | -50.8°C | 21.0% | 254.5hPa | 2.6V | 00:00:00 | 00:00:00 | 00:00:00 | |
| DF5WG-10 | 2026-09-02 08:35:37 | 52.55234 | 8.48266 | 112° | 78km/h | 10424m | -5.3m/s | -50.8°C | 24.7% | 254.5hPa | 2.6V | 00:00:00 | 02:00:44 | 00:00:00 | |
| DD8BA-10 | 2026-09-02 08:35:36 | 52.55241 | 8.48236 | 112° | 78km/h | 10430m | -5.2m/s | -50.9°C | 24.7% | 254.3hPa | 2.6V | 00:00:00 | 00:00:00 | 00:00:00 | |
| DM0DOS-11 | 2026-09-02 08:35:35 | 52.55285 | 8.48059 | 112° | 78km/h | 10462m | -5.3m/s | -51.1°C | 24.6% | 253.1hPa | 2.6V | 08:01:24 | 02:00:37 | 00:00:00 | |
| DL1XH-west | 2026-09-02 08:35:34 | 52.55256 | 8.48177 | 112° | 77km/h | 10441m | -5.4m/s | -51°C | 27.4% | 253.9hPa | 2.5V | 08:02:10 | 02:00:41 | 00:00:00 | |
| DO2JMG | 2026-09-02 08:35:31 | 52.55278 | 8.48088 | 112° | 77km/h | 10456m | -5.2m/s | -51.1°C | 27.3% | 253.3hPa | 2.6V | 08:02:10 | 02:00:38 | 00:00:00 | |
| GOEST3-10 | 2026-09-02 08:35:30 | 52.55285 | 8.48058 | 113° | 78km/h | 10462m | -5.2m/s | -51.0°C | 24.6% | 253.0hPa | 2.6V | 00:00:00 | 00:00:00 | 00:00:00 | |
| DL1XH-15 | 2026-09-02 08:35:29 | 52.55331 | 8.47875 | 111° | 80km/h | 10494m | -5.3m/s | -51.3°C | 24.8% | 251.8hPa | 2.6V | 08:01:30 | 02:00:31 | 00:00:00 | |
| HSKMA3-T | 2026-09-02 08:35:27 | 52.55308 | 8.47967 | 113° | 80km/h | 10478m | -5.5m/s | -51.2°C | 27.3% | 252.4hPa | 2.6V | 08:02:10 | 02:00:34 | 00:00:00 | |
| DN9WHV | 2026-09-02 08:35:27 | 52.55308 | 8.47967 | 114° | 80km/h | 10478m | -5.5m/s | -51.2°C | 21.0% | 252.4hPa | 2.6V | 08:02:00 | 00:00:00 | 00:00:00 | |
| DL1LOL-11 | 2026-09-02 08:35:26 | 52.55308 | 8.47967 | 114° | 80km/h | 10478m | -5.5m/s | -51.2°C | 21.0% | 252.4hPa | 2.6V | 00:00:00 | 00:00:00 | 00:00:00 | |
| DB0DAN | 2026-09-02 08:35:25 | 52.55323 | 8.47906 | 112° | 77km/h | 10488m | -5.5m/s | -51.3°C | 20.9% | 252.04hPa | 2.6V | 00:00:00 | 00:00:00 | 00:00:00 | |
| DM0DOS-11 | 2026-09-02 08:35:25 | 52.55362 | 8.47749 | 113° | 82km/h | 10515m | -5.4m/s | -51.4°C | 25.1% | 251hPa | 2.6V | 08:01:34 | 02:00:27 | 00:00:00 | |
| GOEST3-10 | 2026-09-02 08:35:25 | 52.55323 | 8.47906 | 113° | 82km/h | 10489m | -5.5m/s | -51.2°C | 24.7% | 252.0hPa | 2.6V | 08:01:00 | 02:00:32 | 00:00:00 | |
| DL1XH1-15 | 2026-09-02 08:35:24 | 52.55370 | 8.47718 | 112° | 80km/h | 10520m | -5.2m/s | -51.5°C | 25.3% | 250.8hPa | 2.6V | 08:01:35 | 02:00:26 | 00:00:00 | |
| AA1-15 | 2026-09-02 08:35:23 | 52.55338 | 8.47843 | 112° | 82km/h | 10499m | -5.5m/s | -51.3°C | 27.3% | 251.6hPa | 2.6V | 08:02:10 | 02:00:30 | 00:00:00 | |
| DO2JMG | 2026-09-02 08:35:21 | 52.55354 | 8.47781 | 112° | 82km/h | 10510m | -5.2m/s | -51.4°C | 27.3% | 251.2hPa | 2.5V | 08:02:10 | 02:00:28 | 00:00:00 | |
| GOEST3-10 | 2026-09-02 08:35:20 | 52.55362 | 8.47749 | 114° | 82km/h | 10516m | -5.3m/s | -51.4°C | 25.1% | 250.9hPa | 2.6V | 00:00:00 | 00:00:00 | 00:00:00 | |
| DL1XH-15 | 2026-09-02 08:35:19 | 52.55411 | 8.47564 | 113° | 82km/h | 10547m | -5.2m/s | -51.6°C | 25.3% | 249.8hPa | 2.6V | 08:01:40 | 02:00:21 | 00:00:00 | |
| HSKMA3-T | 2026-09-02 08:35:17 | 52.55387 | 8.47656 | 113° | 82km/h | 10531m | -5.3m/s | -51.5°C | 27.4% | 250.4hPa | 2.6V | 08:02:10 | 02:00:24 | 00:00:00 | |
| SO1NDE-10 | 2026-09-02 08:35:16 | 52.55395 | 8.47625 | 115° | 89km/h | 10537m | -5.5m/s | -51.5°C | 25.3% | 250.1hPa | 2.6V | 00:00:00 | 02:00:23 | 00:00:00 | |
| DM0DOS-11 | 2026-09-02 08:35:15 | 52.55445 | 8.47436 | 113° | 86km/h | 10569m | -5.4m/s | -51.8°C | 25% | 248.9hPa | 2.6V | 08:01:44 | 02:00:17 | 00:00:00 | |
| GOEST3-10 | 2026-09-02 08:35:15 | 52.55403 | 8.47595 | 114° | 82km/h | 10542m | -5.3m/s | -51.5°C | 25.2% | 249.9hPa | 2.6V | 00:00:00 | 02:00:22 | 00:00:00 | |
| DL1XH1-15 | 2026-09-02 08:35:14 | 52.55454 | 8.47403 | 113° | 88km/h | 10574m | -5m/s | -51.8°C | 24.9% | 248.7hPa | 2.6V | 08:01:45 | 02:00:16 | 00:00:00 | |
| DL1XH-west | 2026-09-02 08:35:13 | 52.55420 | 8.47532 | 114° | 82km/h | 10553m | -5.5m/s | -51.7°C | 27.5% | 249.6hPa | 2.6V | 08:02:10 | 02:00:20 | 00:00:00 | |
| DL1NUX | 2026-09-02 08:35:13 | 52.55463 | 8.47369 | 112° | 89km/h | 10580m | -5.5m/s | -51.9°C | 24.9% | 248.5hPa | 2.6V | 08:01:46 | 02:00:15 | 00:00:00 | |
| AA1-15 | 2026-09-02 08:35:12 | 52.55428 | 8.47501 | 114° | 84km/h | 10558m | -5.6m/s | -51.7°C | 27.5% | 249.3hPa | 2.6V | 08:02:10 | 02:00:19 | 00:00:00 | |
| DO2JMG | 2026-09-02 08:35:10 | 52.55445 | 8.47436 | 113° | 86km/h | 10569m | -5.4m/s | -51.8°C | 27.4% | 248.9hPa | 2.6V | 08:02:10 | 02:00:17 | 00:00:00 | |
| DB0ND-19 | 2026-09-02 08:35:10 | 52.55454 | 8.47403 | 113° | 88km/h | 10574m | -5.0m/s | -51.8°C | 21.1% | 248.7hPa | 2.5V | 00:00:00 | 00:00:00 | 00:00:00 | |
| DL1XH-15 | 2026-09-02 08:35:09 | 52.55499 | 8.47230 | 113° | 91km/h | 10601m | -5.6m/s | -52°C | 25% | 247.7hPa | 2.5V | 08:01:50 | 02:00:11 | 00:00:00 | |
| HSKMA3-T | 2026-09-02 08:35:06 | 52.55481 | 8.47300 | 112° | 91km/h | 10591m | -5.4m/s | -51.9°C | 27.2% | 248.1hPa | 2.6V | 08:02:10 | 02:00:13 | 00:00:00 | |
| SONDE2-11 | 2026-09-02 08:35:06 | 52.55489 | 8.47265 | 112° | 91km/h | 10596m | -5.3m/s | -52.0°C | 20.9% | 247.9hPa | 2.5V | 00:00:00 | 00:00:00 | 00:00:00 | |
| DM0DOS-11 | 2026-09-02 08:35:05 | 52.55536 | 8.47092 | 114° | 89km/h | 10623m | -5.5m/s | -52.2°C | 25.1% | 246.9hPa | 2.5V | 08:01:54 | 02:00:07 | 00:00:00 | |
| GOEST3-10 | 2026-09-02 08:35:05 | 52.55489 | 8.47265 | 113° | 91km/h | 10596m | -5.3m/s | -51.9°C | 24.8% | 247.9hPa | 2.6V | 00:00:00 | 02:00:12 | 00:00:00 | |
| DL1XH1-15 | 2026-09-02 08:35:04 | 52.55545 | 8.47058 | 114° | 89km/h | 10628m | -5.4m/s | -52.2°C | 25% | 246.7hPa | 2.6V | 08:01:55 | 02:00:06 | 00:00:00 | |
| DJ2DS-15 | 2026-09-02 08:35:04 | 52.55498 | 8.47230 | 114° | 91km/h | 10602m | -5.5m/s | -52.0°C | 25.0% | 247.6hPa | 2.5V | 00:00:00 | 02:00:11 | 00:00:00 | |
| DL1NUX | 2026-09-02 08:35:03 | 52.55554 | 8.47024 | 114° | 89km/h | 10634m | -5.7m/s | -52.3°C | 25.1% | 246.4hPa | 2.6V | 08:01:56 | 02:00:05 | 00:00:00 | |
| DL1XH-west | 2026-09-02 08:35:02 | 52.55517 | 8.47160 | 114° | 91km/h | 10612m | -5.5m/s | -52.1°C | 27% | 247.3hPa | 2.6V | 08:02:10 | 02:00:09 | 00:00:00 | |
| AA1-15 | 2026-09-02 08:35:01 | 52.55526 | 8.47126 | 114° | 89km/h | 10618m | -5.3m/s | -52.2°C | 26.9% | 247hPa | 2.6V | 08:02:10 | 02:00:08 | 00:00:00 | |
| DO2JMG | 2026-09-02 08:34:59 | 52.55545 | 8.47058 | 115° | 89km/h | 10628m | -5.4m/s | -52.2°C | 26.8% | 246.7hPa | 2.6V | 08:02:10 | 02:00:06 | 00:00:00 | |
| BIOWL1-15 | 2026-09-02 08:34:56 | 52.55573 | 8.46956 | 114° | 91km/h | 10645m | -5.5m/s | -52.2°C | 26.6% | 246hPa | 2.6V | 08:02:10 | 02:00:03 | 00:00:00 | |
| DD8BA-10 | 2026-09-02 08:34:56 | 52.55573 | 8.46956 | 114° | 91km/h | 10645m | -5.4m/s | -52.2°C | 24.8% | 246.0hPa | 2.6V | 00:00:00 | 00:00:00 | 00:00:00 | |
| GOEST3-10 | 2026-09-02 08:34:55 | 52.55582 | 8.46922 | 114° | 91km/h | 10651m | -5.5m/s | -52.1°C | 24.9% | 245.8hPa | 2.6V | 00:00:00 | 02:00:02 | 00:00:00 | |
| DL1XH1-15 | 2026-09-02 08:34:54 | 52.55638 | 8.46713 | 113° | 91km/h | 10683m | -5.4m/s | -52.1°C | 24.6% | 244.6hPa | 2.6V | 08:02:05 | 01:59:56 | 00:00:00 | |
| DL1NUX | 2026-09-02 08:34:53 | 52.55647 | 8.46678 | 114° | 91km/h | 10689m | -5.5m/s | -52.1°C | 24.6% | 244.4hPa | 2.5V | 08:02:06 | 01:59:55 | 00:00:00 | |
| DL1XH-west | 2026-09-02 08:34:51 | 52.55619 | 8.46783 | 113° | 91km/h | 10673m | -5.5m/s | -52.1°C | 26.5% | 245hPa | 2.6V | 08:02:10 | 01:59:58 | 00:00:00 | |
| AA1-15 | 2026-09-02 08:34:50 | 52.55628 | 8.46748 | 114° | 91km/h | 10678m | -5.4m/s | -52.1°C | 26.4% | 244.7hPa | 2.6V | 08:02:10 | 01:59:57 | 00:00:00 | |
| DO2JMG | 2026-09-02 08:34:49 | 52.55638 | 8.46713 | 114° | 91km/h | 10683m | -5.4m/s | -52.2°C | 26.4% | 244.6hPa | 2.6V | 08:02:10 | 01:59:56 | 00:00:00 | |
| BIOWL1-15 | 2026-09-02 08:34:46 | 52.55667 | 8.46609 | 115° | 91km/h | 10700m | -5.5m/s | -52.1°C | 26.3% | 243.9hPa | 2.6V | 08:02:10 | 01:59:53 | 00:00:00 | |
| SO1NDE-10 | 2026-09-02 08:34:46 | 52.55667 | 8.46609 | 116° | 89km/h | 10700m | -5.4m/s | -52.1°C | 24.4% | 243.9hPa | 2.6V | 00:00:00 | 01:59:53 | 00:00:00 | |
| DM0DOS-11 | 2026-09-02 08:34:45 | 52.55726 | 8.46405 | 116° | 91km/h | 10733m | -5.4m/s | -51.9°C | 23.8% | 242.7hPa | 2.6V | 08:02:14 | 01:59:47 | 00:00:00 | |
| HSKMA3-T | 2026-09-02 08:34:45 | 52.55676 | 8.46575 | 115° | 91km/h | 10705m | -5.4m/s | -52.2°C | 26.3% | 243.8hPa | 2.6V | 08:02:10 | 01:59:52 | 00:00:00 | |
| DL3AQ-11 | 2026-09-02 08:34:45 | 52.55686 | 8.46541 | 115° | 89km/h | 10711m | -5.5m/s | -52.1°C | 20.4% | 243.6hPa | 2.6V | 00:00:00 | 00:00:00 | 00:00:00 | |
| DJ2DS-15 | 2026-09-02 08:34:44 | 52.55686 | 8.46541 | 116° | 89km/h | 10711m | -5.4m/s | -52.1°C | 24.3% | 243.5hPa | 2.6V | 00:00:00 | 01:59:51 | 00:00:00 | |
| DL1NUX | 2026-09-02 08:34:43 | 52.55746 | 8.46336 | 116° | 91km/h | 10743m | -5.5m/s | -51.9°C | 23.7% | 242.3hPa | 2.6V | 08:02:16 | 01:59:45 | 00:00:00 | |
| DB0UT-7 | 2026-09-02 08:34:42 | 52.55706 | 8.46473 | 116° | 88km/h | 10722m | -5.5m/s | -52.1°C | 24.3% | 243.1hPa | 2.6V | 00:00:00 | 01:59:49 | 00:00:00 | |
| DL3OBA | 2026-09-02 08:34:41 | 52.55706 | 8.46473 | 117° | 91km/h | 10722m | -5.5m/s | -52.1°C | 20.4% | 243.1hPa | 2.6V | 08:03:00 | 00:00:00 | 00:00:00 | |
| DB0DAN | 2026-09-02 08:34:40 | 52.55726 | 8.46405 | 116° | 88km/h | 10733m | -5.4m/s | -51.9°C | 20% | 242.71hPa | 2.6V | 00:00:00 | 00:00:00 | 00:00:00 | |
| DL1XH-west | 2026-09-02 08:34:40 | 52.55726 | 8.46405 | 116° | 91km/h | 10733m | -5.4m/s | -51.9°C | 26.1% | 242.7hPa | 2.6V | 08:03:01 | 01:59:47 | 00:00:00 | |
| AA1-15 | 2026-09-02 08:34:39 | 52.55736 | 8.46371 | 116° | 91km/h | 10738m | -5.5m/s | -51.9°C | 26.1% | 242.5hPa | 2.6V | 08:03:01 | 01:59:46 | 00:00:00 | |
| DO2JMG | 2026-09-02 08:34:38 | 52.55746 | 8.46336 | 116° | 91km/h | 10744m | -5.5m/s | -51.9°C | 26.1% | 242.3hPa | 2.6V | 08:03:01 | 01:59:45 | 00:00:00 | |
| BIOWL1-15 | 2026-09-02 08:34:35 | 52.55776 | 8.46235 | 115° | 89km/h | 10760m | -5.5m/s | -52°C | 26.2% | 241.7hPa | 2.6V | 08:03:01 | 01:59:42 | 00:00:00 | |
| SONDE2-11 | 2026-09-02 08:34:35 | 52.55785 | 8.46201 | 114° | 89km/h | 10765m | -5.5m/s | -52.0°C | 19.8% | 241.5hPa | 2.6V | 00:00:00 | 00:00:00 | 00:00:00 | |
| DL1XH1-15 | 2026-09-02 08:34:34 | 52.55832 | 8.46033 | 115° | 89km/h | 10793m | -5.4m/s | -52.2°C | 23.7% | 240.4hPa | 2.6V | 08:02:25 | 01:59:36 | 00:00:00 | |
| HSKMA3-T | 2026-09-02 08:34:34 | 52.55785 | 8.46201 | 115° | 89km/h | 10765m | -5.5m/s | -52°C | 26.2% | 241.5hPa | 2.6V | 08:03:01 | 01:59:41 | 00:00:00 | |
| DL1XH-west | 2026-09-02 08:34:29 | 52.55832 | 8.46033 | 115° | 89km/h | 10793m | -5.4m/s | -52.2°C | 26.3% | 240.5hPa | 2.6V | 08:03:01 | 01:59:36 | 00:00:00 | |
| DO2JMG | 2026-09-02 08:34:28 | 52.55842 | 8.46000 | 115° | 88km/h | 10798m | -5.3m/s | -52.3°C | 26.4% | 240.3hPa | 2.6V | 08:03:01 | 01:59:35 | 00:00:00 | |
| DN9WHV | 2026-09-02 08:34:27 | 52.55842 | 8.46000 | 116° | 88km/h | 10798m | -5.3m/s | -52.3°C | 20.0% | 240.3hPa | 2.6V | 08:03:00 | 00:00:00 | 00:00:00 | |
| DB0DAN | 2026-09-02 08:34:25 | 52.55871 | 8.45901 | 116° | 84km/h | 10814m | -5.5m/s | -52.4°C | 20.1% | 239.66hPa | 2.6V | 00:00:00 | 00:00:00 | 00:00:00 | |
| DM0DOS-11 | 2026-09-02 08:34:25 | 52.55919 | 8.45738 | 115° | 86km/h | 10842m | -5.7m/s | -52.6°C | 23.9% | 238.7hPa | 2.6V | 08:02:34 | 01:59:27 | 00:00:00 | |
| BIOWL1-15 | 2026-09-02 08:34:25 | 52.55871 | 8.45901 | 116° | 88km/h | 10814m | -5.5m/s | -52.4°C | 26.4% | 239.7hPa | 2.6V | 08:03:01 | 01:59:32 | 00:00:00 | |
| HSKMA3-T | 2026-09-02 08:34:23 | 52.55890 | 8.45836 | 116° | 88km/h | 10825m | -5.4m/s | -52.4°C | 26.4% | 239.3hPa | 2.6V | 08:03:01 | 01:59:30 | 00:00:00 | |
| DL1NUX | 2026-09-02 08:34:23 | 52.55938 | 8.45674 | 115° | 86km/h | 10853m | -5.3m/s | -52.7°C | 24% | 238.3hPa | 2.6V | 08:02:36 | 01:59:25 | 00:00:00 | |
| DJ2KF-10 | 2026-09-02 08:34:23 | 52.55890 | 8.45836 | 117° | 84km/h | 10825m | -5.3m/s | -52.4°C | 23.9% | 239.2hPa | 2.6V | 08:02:00 | 01:59:30 | 00:00:00 | |
| DN9WHV | 2026-09-02 08:34:22 | 52.55890 | 8.45835 | 117° | 88km/h | 10825m | -5.4m/s | -52.4°C | 20.0% | 239.3hPa | 2.6V | 08:03:00 | 00:00:00 | 00:00:00 | |
| DL3OBA | 2026-09-02 08:34:21 | 52.55900 | 8.45803 | 117° | 86km/h | 10831m | -5.6m/s | -52.5°C | 20.0% | 239.1hPa | 2.6V | 08:03:00 | 00:00:00 | 00:00:00 | |
| GOEST3-10 | 2026-09-02 08:34:20 | 52.55919 | 8.45738 | 116° | 86km/h | 10842m | -5.6m/s | -52.5°C | 23.9% | 238.6hPa | 2.6V | 00:00:00 | 00:00:00 | 00:00:00 | |
| DL1XH-15 | 2026-09-02 08:34:19 | 52.55977 | 8.45546 | 117° | 86km/h | 10875m | -5.4m/s | -52.8°C | 23.9% | 237.5hPa | 2.6V | 08:02:40 | 01:59:21 | 00:00:00 | |
| DL1XH-west | 2026-09-02 08:34:18 | 52.55938 | 8.45674 | 116° | 86km/h | 10853m | -5.3m/s | -52.7°C | 26.3% | 238.3hPa | 2.6V | 08:03:01 | 01:59:25 | 00:00:00 | |
| DO2JMG | 2026-09-02 08:34:17 | 52.55948 | 8.45642 | 117° | 86km/h | 10858m | -5.6m/s | -52.7°C | 26.4% | 238.1hPa | 2.6V | 08:03:01 | 01:59:24 | 00:00:00 | |
| DD8BA-10 | 2026-09-02 08:34:16 | 52.55957 | 8.45610 | 117° | 86km/h | 10864m | -5.5m/s | -52.7°C | 24.0% | 237.8hPa | 2.5V | 08:02:00 | 00:00:00 | 00:00:00 | |
| DM0DOS-11 | 2026-09-02 08:34:15 | 52.56018 | 8.45420 | 117° | 86km/h | 10897m | -5.3m/s | -52.9°C | 24.4% | 236.6hPa | 2.5V | 08:02:44 | 01:59:17 | 00:00:00 | |
| BIOWL1-15 | 2026-09-02 08:34:14 | 52.55977 | 8.45546 | 117° | 86km/h | 10875m | -5.4m/s | -52.8°C | 26.2% | 237.5hPa | 2.6V | 08:03:01 | 01:59:21 | 00:00:00 | |
| DL1NUX | 2026-09-02 08:34:13 | 52.56038 | 8.45357 | 117° | 86km/h | 10908m | -5.4m/s | -53°C | 24.5% | 236.3hPa | 2.6V | 08:02:46 | 01:59:15 | 00:00:00 | |
| HSKMA3-T | 2026-09-02 08:34:12 | 52.55998 | 8.45483 | 118° | 86km/h | 10886m | -5.4m/s | -52.8°C | 26.1% | 237.1hPa | 2.6V | 08:03:01 | 01:59:19 | 00:00:00 | |
| DB0UT-7 | 2026-09-02 08:34:12 | 52.55997 | 8.45483 | 118° | 80km/h | 10886m | -5.4m/s | -52.8°C | 24.1% | 237.0hPa | 2.5V | 00:00:00 | 00:00:00 | 00:00:00 | |
| DO3DL | 2026-09-02 08:34:11 | 52.55997 | 8.45483 | 119° | 86km/h | 10886m | -5.4m/s | -52.8°C | 20.1% | 237.1hPa | 2.5V | 08:03:00 | 00:00:00 | 00:00:00 | |
| DB0DAN | 2026-09-02 08:34:10 | 52.56018 | 8.45420 | 118° | 82km/h | 10897m | -5.3m/s | -52.9°C | 20.4% | 236.63hPa | 2.5V | 00:00:00 | 00:00:00 | 00:00:00 | |
| DB0NH | 2026-09-02 08:34:10 | 52.56018 | 8.45420 | 118° | 80km/h | 10897m | -5.3m/s | -52.9°C | 24.4% | 236.6hPa | 2.6V | 00:00:00 | 01:59:17 | 00:00:00 | |
| DL1XH-15 | 2026-09-02 08:34:09 | 52.56076 | 8.45233 | 116° | 82km/h | 10929m | -5.4m/s | -53.2°C | 24.3% | 235.4hPa | 2.6V | 08:02:50 | 01:59:11 | 00:00:00 | |
| DL1XH-west | 2026-09-02 08:34:08 | 52.56038 | 8.45357 | 118° | 86km/h | 10908m | -5.4m/s | -53°C | 26.2% | 236.3hPa | 2.6V | 08:03:01 | 01:59:15 | 00:00:00 | |
| AA1-15 | 2026-09-02 08:34:07 | 52.56048 | 8.45326 | 117° | 84km/h | 10913m | -5.5m/s | -53.1°C | 26.2% | 236.1hPa | 2.6V | 08:03:01 | 01:59:14 | 00:00:00 | |
| DO2JMG | 2026-09-02 08:34:06 | 52.56058 | 8.45295 | 117° | 84km/h | 10919m | -5.4m/s | -53.1°C | 26.1% | 235.8hPa | 2.6V | 08:03:01 | 01:59:13 | 00:00:00 | |
| DD8BA-10 | 2026-09-02 08:34:06 | 52.56058 | 8.45295 | 117° | 82km/h | 10919m | -5.4m/s | -53.0°C | 24.5% | 235.8hPa | 2.6V | 00:00:00 | 00:00:00 | 00:00:00 | |
| BIOWL1-15 | 2026-09-02 08:34:06 | 52.56086 | 8.45203 | 117° | 82km/h | 10935m | -5.5m/s | -53.2°C | 25.9% | 235.2hPa | 2.6V | 08:03:01 | 01:59:10 | 00:00:00 | |
| DL3AQ-11 | 2026-09-02 08:34:05 | 52.56077 | 8.45233 | 116° | 82km/h | 10929m | -5.4m/s | -53.2°C | 20.2% | 235.4hPa | 2.6V | 00:00:00 | 00:00:00 | 00:00:00 | |
| DL1XH1-15 | 2026-09-02 08:34:04 | 52.56125 | 8.45085 | 119° | 80km/h | 10957m | -5.4m/s | -53.4°C | 23.3% | 234.5hPa | 2.6V | 08:02:55 | 01:59:06 | 00:00:00 | |
| HSKMA3-T | 2026-09-02 08:34:01 | 52.56105 | 8.45143 | 119° | 80km/h | 10946m | -5.4m/s | -53.3°C | 25.6% | 234.8hPa | 2.5V | 08:03:01 | 01:59:08 | 00:00:00 | |
| GOEST3-10 | 2026-09-02 08:34:00 | 52.56115 | 8.45114 | 120° | 80km/h | 10951m | -5.3m/s | -53.3°C | 23.4% | 234.6hPa | 2.6V | 00:00:00 | 00:00:00 | 00:00:00 | |
| DL1XH-15 | 2026-09-02 08:33:59 | 52.56173 | 8.44941 | 116° | 78km/h | 10984m | -5.3m/s | -53.4°C | 22.9% | 233.4hPa | 2.6V | 08:03:00 | 01:59:01 | 00:00:00 | |
| DL1XH-west | 2026-09-02 08:33:57 | 52.56145 | 8.45028 | 119° | 78km/h | 10968m | -5.4m/s | -53.5°C | 25.1% | 234.1hPa | 2.6V | 08:03:01 | 01:59:04 | 00:00:00 | |
| AA1-15 | 2026-09-02 08:33:56 | 52.56155 | 8.44999 | 119° | 78km/h | 10973m | -5.4m/s | -53.4°C | 24.9% | 233.8hPa | 2.6V | 08:03:01 | 01:59:03 | 00:00:00 | |
| DO2JMG | 2026-09-02 08:33:55 | 52.56164 | 8.44970 | 118° | 78km/h | 10978m | -5.4m/s | -53.4°C | 24.7% | 233.7hPa | 2.5V | 08:03:01 | 01:59:02 | 00:00:00 | |
| BIOWL1-15 | 2026-09-02 08:33:55 | 52.56182 | 8.44912 | 115° | 77km/h | 10989m | -5.3m/s | -53.4°C | 24.3% | 233.3hPa | 2.6V | 08:03:01 | 01:59:00 | 00:00:00 | |
| DF5WG-10 | 2026-09-02 08:33:55 | 52.56164 | 8.44970 | 118° | 77km/h | 10979m | -5.3m/s | -53.4°C | 23.2% | 233.6hPa | 2.6V | 00:00:00 | 01:59:02 | 00:00:00 | |
| DL1XH1-15 | 2026-09-02 08:33:54 | 52.56215 | 8.44796 | 114° | 77km/h | 11011m | -5.6m/s | -53.5°C | 22.7% | 232.5hPa | 2.6V | 08:03:05 | 01:58:56 | 00:00:00 | |
| HSKMA3-T | 2026-09-02 08:33:51 | 52.56198 | 8.44854 | 114° | 77km/h | 11000m | -5.4m/s | -53.5°C | 24.1% | 232.9hPa | 2.6V | 08:03:52 | 01:58:58 | 00:00:00 | |
| GOEST3-10 | 2026-09-02 08:33:50 | 52.56206 | 8.44825 | 115° | 77km/h | 11005m | -5.3m/s | -53.4°C | 22.8% | 232.6hPa | 2.6V | 00:00:00 | 00:00:00 | 00:00:00 | |
| DL1XH-15 | 2026-09-02 08:33:49 | 52.56258 | 8.44650 | 117° | 80km/h | 11038m | -5.5m/s | -53.5°C | 22.8% | 231.5hPa | 2.6V | 08:03:10 | 01:58:51 | 00:00:00 | |
| DL1XH-west | 2026-09-02 08:33:47 | 52.56231 | 8.44738 | 115° | 77km/h | 11022m | -5.3m/s | -53.5°C | 23.6% | 232.1hPa | 2.6V | 08:03:52 | 01:58:54 | 00:00:00 | |
| AA1-15 | 2026-09-02 08:33:45 | 52.56249 | 8.44679 | 117° | 78km/h | 11033m | -5.6m/s | -53.5°C | 23.4% | 231.7hPa | 2.6V | 08:03:52 | 01:58:52 | 00:00:00 | |
| BIOWL1-15 | 2026-09-02 08:33:44 | 52.56276 | 8.44591 | 118° | 80km/h | 11050m | -5.7m/s | -53.5°C | 22.9% | 231.1hPa | 2.6V | 08:03:52 | 01:58:49 | 00:00:00 | |
| DO2JMG | 2026-09-02 08:33:44 | 52.56258 | 8.44650 | 118° | 80km/h | 11038m | -5.5m/s | -53.5°C | 23.3% | 231.5hPa | 2.6V | 08:03:52 | 01:58:51 | 00:00:00 | |
| DJ2DS-15 | 2026-09-02 08:33:44 | 52.56258 | 8.44650 | 118° | 82km/h | 11039m | -5.5m/s | -53.4°C | 22.8% | 231.4hPa | 2.6V | 00:00:00 | 01:58:51 | 00:00:00 | |
| DN9WHV | 2026-09-02 08:33:43 | 52.56267 | 8.44620 | 118° | 80km/h | 11044m | -5.5m/s | -53.5°C | 18.5% | 231.3hPa | 2.6V | 08:03:00 | 00:00:00 | 00:00:00 | |
| DL1NUX | 2026-09-02 08:33:42 | 52.56324 | 8.44441 | 117° | 82km/h | 11078m | -5.6m/s | -53.3°C | 20.6% | 230.1hPa | 2.6V | 08:03:17 | 01:58:44 | 00:00:00 | |
| HSKMA3-T | 2026-09-02 08:33:40 | 52.56296 | 8.44531 | 118° | 80km/h | 11061m | -5.6m/s | -53.4°C | 22.7% | 230.7hPa | 2.5V | 08:03:52 | 01:58:47 | 00:00:00 | |
| DB0NH | 2026-09-02 08:33:40 | 52.56295 | 8.44531 | 119° | 80km/h | 11061m | -5.5m/s | -53.4°C | 21.7% | 230.7hPa | 2.6V | 00:00:00 | 01:58:47 | 00:00:00 | |
| DL1XH-15 | 2026-09-02 08:33:39 | 52.56353 | 8.44350 | 116° | 82km/h | 11095m | -5.5m/s | -53.4°C | 20.2% | 229.4hPa | 2.6V | 08:03:20 | 01:58:41 | 00:00:00 | |
| DL1XH-west | 2026-09-02 08:33:36 | 52.56334 | 8.44411 | 117° | 82km/h | 11083m | -5.4m/s | -53.3°C | 22% | 229.9hPa | 2.6V | 08:03:52 | 01:58:43 | 00:00:00 | |
| BIOWL9-15 | 2026-09-02 08:33:36 | 52.56343 | 8.44381 | 116° | 82km/h | 11089m | -5.7m/s | -53.3°C | 16.4% | 229.7hPa | 2.6V | 00:00:00 | 00:00:00 | 00:00:00 | |
| DM0DOS-11 | 2026-09-02 08:33:35 | 52.56389 | 8.44227 | 115° | 82km/h | 11117m | -5.5m/s | -53.4°C | 20.1% | 228.7hPa | 2.6V | 08:03:24 | 01:58:37 | 00:00:00 | |
| DO2JMG | 2026-09-02 08:33:34 | 52.56353 | 8.44350 | 117° | 82km/h | 11095m | -5.5m/s | -53.4°C | 21.7% | 229.4hPa | 2.6V | 08:03:52 | 01:58:41 | 00:00:00 | |
| BIOWL1-15 | 2026-09-02 08:33:32 | 52.56371 | 8.44289 | 116° | 82km/h | 11106m | -5.5m/s | -53.4°C | 21.4% | 229.1hPa | 2.6V | 08:03:52 | 01:58:39 | 00:00:00 | |
| HSKMA3-T | 2026-09-02 08:33:30 | 52.56389 | 8.44227 | 116° | 82km/h | 11117m | -5.5m/s | -53.4°C | 21.2% | 228.7hPa | 2.6V | 08:03:52 | 01:58:37 | 00:00:00 | |
| GOEST3-10 | 2026-09-02 08:33:30 | 52.56389 | 8.44227 | 116° | 82km/h | 11117m | -5.5m/s | -53.3°C | 20.1% | 228.6hPa | 2.6V | 00:00:00 | 00:00:00 | 00:00:00 | |
| DL1XH-15 | 2026-09-02 08:33:29 | 52.56443 | 8.44044 | 115° | 80km/h | 11150m | -5.6m/s | -53.2°C | 19% | 227.5hPa | 2.6V | 08:03:30 | 01:58:31 | 00:00:00 | |
| DL1XH-west | 2026-09-02 08:33:26 | 52.56425 | 8.44105 | 116° | 80km/h | 11139m | -5.5m/s | -53.2°C | 20.5% | 227.9hPa | 2.6V | 08:03:52 | 01:58:33 | 00:00:00 | |
| DB0DAN | 2026-09-02 08:33:25 | 52.56434 | 8.44075 | 116° | 78km/h | 11145m | -5.5m/s | -53.2°C | 15.6% | 227.68hPa | 2.6V | 00:00:00 | 00:00:00 | 00:00:00 | |
| GOEST3-10 | 2026-09-02 08:33:25 | 52.56434 | 8.44075 | 117° | 80km/h | 11145m | -5.5m/s | -53.1°C | 19.3% | 227.6hPa | 2.6V | 00:00:00 | 01:58:32 | 00:00:00 | |
| DL1XH1-15 | 2026-09-02 08:33:24 | 52.56487 | 8.43893 | 114° | 80km/h | 11178m | -5.6m/s | -53.2°C | 18.7% | 226.5hPa | 2.6V | 08:03:35 | 01:58:26 | 00:00:00 | |
| BIOWL1-15 | 2026-09-02 08:33:24 | 52.56461 | 8.43984 | 115° | 80km/h | 11161m | -5.5m/s | -53.2°C | 20.1% | 227.1hPa | 2.6V | 08:03:52 | 01:58:29 | 00:00:00 | |
| DO2JMG | 2026-09-02 08:33:24 | 52.56443 | 8.44044 | 116° | 80km/h | 11150m | -5.6m/s | -53.2°C | 20.3% | 227.5hPa | 2.6V | 08:03:52 | 01:58:31 | 00:00:00 | |
| AA1-15 | 2026-09-02 08:33:23 | 52.56452 | 8.44014 | 116° | 80km/h | 11156m | -5.4m/s | -53.2°C | 20.2% | 227.3hPa | 2.6V | 08:03:52 | 01:58:30 | 00:00:00 | |
| HSKMA3-T | 2026-09-02 08:33:20 | 52.56478 | 8.43923 | 115° | 80km/h | 11172m | -5.5m/s | -53.2°C | 19.9% | 226.7hPa | 2.6V | 08:03:52 | 01:58:27 | 00:00:00 | |
| DL1XH-west | 2026-09-02 08:33:15 | 52.56520 | 8.43772 | 114° | 78km/h | 11200m | -5.5m/s | -53.4°C | 19.3% | 225.7hPa | 2.6V | 08:03:52 | 01:58:22 | 00:00:00 | |
| DF5WG-10 | 2026-09-02 08:33:15 | 52.56519 | 8.43772 | 114° | 78km/h | 11200m | -5.5m/s | -53.3°C | 18.2% | 225.7hPa | 2.6V | 00:00:00 | 01:58:22 | 00:00:00 | |
| DL1XH1-15 | 2026-09-02 08:33:14 | 52.56566 | 8.43596 | 113° | 78km/h | 11234m | -5.5m/s | -53.4°C | 17.6% | 224.5hPa | 2.6V | 08:03:45 | 01:58:16 | 00:00:00 | |
| DO2JMG | 2026-09-02 08:33:13 | 52.56535 | 8.43714 | 114° | 77km/h | 11211m | -5.7m/s | -53.4°C | 19% | 225.3hPa | 2.5V | 08:03:52 | 01:58:20 | 00:00:00 | |
| BIOWL1-15 | 2026-09-02 08:33:13 | 52.56551 | 8.43655 | 114° | 77km/h | 11223m | -5.6m/s | -53.4°C | 18.7% | 224.9hPa | 2.6V | 08:03:52 | 01:58:18 | 00:00:00 | |
| AA1-15 | 2026-09-02 08:33:12 | 52.56543 | 8.43684 | 113° | 77km/h | 11217m | -5.7m/s | -53.4°C | 18.8% | 225.1hPa | 2.6V | 08:03:52 | 01:58:19 | 00:00:00 | |
| DB0UT-7 | 2026-09-02 08:33:12 | 52.56543 | 8.43684 | 114° | 80km/h | 11217m | -5.6m/s | -53.3°C | 17.8% | 225.1hPa | 2.6V | 00:00:00 | 00:00:00 | 00:00:00 | |
| DB0DAN | 2026-09-02 08:33:10 | 52.56558 | 8.43625 | 113° | 73km/h | 11228m | -5.5m/s | -53.4°C | 14% | 224.75hPa | 2.6V | 00:00:00 | 00:00:00 | 00:00:00 | |
| HSKMA3-T | 2026-09-02 08:33:09 | 52.56566 | 8.43596 | 113° | 78km/h | 11234m | -5.5m/s | -53.4°C | 18.4% | 224.5hPa | 2.6V | 08:03:52 | 01:58:16 | 00:00:00 | |
| DL4XJ-10 | 2026-09-02 08:33:09 | 52.56566 | 8.43595 | 114° | 80km/h | 11234m | -5.4m/s | -53.9°C | 0% | 0hPa | 2.6V | 00:00:00 | 00:00:00 | 00:00:00 | |
| DL1CLM-18 | 2026-09-02 08:33:08 | 52.56574 | 8.43566 | 114° | 80km/h | 11240m | -5.6m/s | -53.5°C | 13.9% | 224.3hPa | 2.6V | 00:00:00 | 00:00:00 | 00:00:00 | |
| DN9WHV | 2026-09-02 08:33:07 | 52.56574 | 8.43566 | 114° | 80km/h | 11240m | -5.6m/s | -53.5°C | 13.9% | 224.3hPa | 2.6V | 08:03:00 | 00:00:00 | 00:00:00 | |
| DD8BA-10 | 2026-09-02 08:33:06 | 52.56590 | 8.43504 | 113° | 80km/h | 11251m | -5.5m/s | -53.4°C | 17.3% | 223.9hPa | 2.6V | 00:00:00 | 00:00:00 | 00:00:00 | |
| DF5WG-10 | 2026-09-02 08:33:05 | 52.56598 | 8.43473 | 114° | 80km/h | 11257m | -5.7m/s | -53.5°C | 17.1% | 223.7hPa | 2.6V | 00:00:00 | 01:58:12 | 00:00:00 | |
| DL1XH1-15 | 2026-09-02 08:33:04 | 52.56650 | 8.43292 | 118° | 78km/h | 11290m | -5.6m/s | -53.7°C | 16% | 222.6hPa | 2.6V | 08:03:55 | 01:58:06 | 00:00:00 | |
| DL1XH-west | 2026-09-02 08:33:04 | 52.56606 | 8.43442 | 113° | 82km/h | 11262m | -5.6m/s | -53.6°C | 17.6% | 223.6hPa | 2.6V | 08:03:52 | 01:58:11 | 00:00:00 | |
| DO2JMG | 2026-09-02 08:33:02 | 52.56623 | 8.43380 | 115° | 80km/h | 11273m | -5.8m/s | -53.6°C | 17.1% | 223.1hPa | 2.6V | 08:03:52 | 01:58:09 | 00:00:00 | |
| AA1-15 | 2026-09-02 08:33:01 | 52.56632 | 8.43350 | 117° | 80km/h | 11279m | -5.4m/s | -53.6°C | 16.9% | 222.9hPa | 2.6V | 08:04:43 | 01:58:08 | 00:00:00 | |
| DL1NUX | 2026-09-02 08:33:01 | 52.56679 | 8.43206 | 118° | 78km/h | 11307m | -5.9m/s | -53.7°C | 15.7% | 222hPa | 2.6V | 08:03:58 | 01:58:03 | 00:00:00 | |
| BIOWL1-15 | 2026-09-02 08:33:00 | 52.56641 | 8.43321 | 117° | 78km/h | 11285m | -5.7m/s | -53.7°C | 16.7% | 222.8hPa | 2.6V | 08:04:43 | 01:58:07 | 00:00:00 | |
| HSKMA3-T | 2026-09-02 08:32:58 | 52.56660 | 8.43263 | 119° | 78km/h | 11296m | -5.8m/s | -53.7°C | 16.3% | 222.4hPa | 2.6V | 08:04:43 | 01:58:05 | 00:00:00 | |
| DL3AQ-11 | 2026-09-02 08:32:57 | 52.56669 | 8.43235 | 118° | 77km/h | 11301m | -5.9m/s | -53.7°C | 12.3% | 222.2hPa | 2.6V | 00:00:00 | 00:00:00 | 00:00:00 | |
| DD8BA-10 | 2026-09-02 08:32:56 | 52.56679 | 8.43206 | 119° | 80km/h | 11307m | -5.8m/s | -53.6°C | 15.7% | 221.9hPa | 2.6V | 00:00:00 | 00:00:00 | 00:00:00 | |
| DM0DOS-11 | 2026-09-02 08:32:55 | 52.56731 | 8.43028 | 113° | 82km/h | 11342m | -5.5m/s | -53.5°C | 14.4% | 220.8hPa | 2.6V | 08:04:04 | 01:57:57 | 00:00:00 | |
| DL1XH-west | 2026-09-02 08:32:54 | 52.56697 | 8.43148 | 117° | 78km/h | 11319m | -5.6m/s | -53.7°C | 15.4% | 221.6hPa | 2.6V | 08:04:43 | 01:58:01 | 00:00:00 | |
| DO2JMG | 2026-09-02 08:32:51 | 52.56723 | 8.43058 | 114° | 80km/h | 11336m | -5.6m/s | -53.5°C | 14.6% | 221hPa | 2.6V | 08:04:43 | 01:57:58 | 00:00:00 | |
| AA1-15 | 2026-09-02 08:32:50 | 52.56731 | 8.43028 | 114° | 82km/h | 11342m | -5.6m/s | -53.5°C | 14.3% | 220.8hPa | 2.6V | 08:04:43 | 01:57:57 | 00:00:00 | |
| BIOWL1-15 | 2026-09-02 08:32:49 | 52.56739 | 8.42997 | 114° | 80km/h | 11347m | -5.8m/s | -53.5°C | 14% | 220.6hPa | 2.6V | 08:04:43 | 01:57:56 | 00:00:00 | |
| HSKMA3-T | 2026-09-02 08:32:48 | 52.56748 | 8.42966 | 115° | 82km/h | 11353m | -5.6m/s | -53.4°C | 13.8% | 220.4hPa | 2.6V | 08:04:43 | 01:57:55 | 00:00:00 | |
| EDDB2-12 | 2026-09-02 08:32:47 | 52.56757 | 8.42935 | 115° | 82km/h | 11358m | -5.7m/s | -53.4°C | 10.5% | 220.2hPa | 2.6V | 00:00:00 | 00:00:00 | 00:00:00 | |
| SO1NDE-10 | 2026-09-02 08:32:46 | 52.56766 | 8.42904 | 117° | 84km/h | 11364m | -5.5m/s | -53.3°C | 13.6% | 220.0hPa | 2.6V | 00:00:00 | 01:57:53 | 00:00:00 | |
| DM0DOS-11 | 2026-09-02 08:32:45 | 52.56823 | 8.42715 | 115° | 88km/h | 11398m | -5.7m/s | -53.3°C | 12.5% | 218.9hPa | 2.6V | 08:04:14 | 01:57:47 | 00:00:00 | |
| DL3AQ-11 | 2026-09-02 08:32:45 | 52.56785 | 8.42842 | 116° | 84km/h | 11375m | -5.6m/s | -53.4°C | 9.9% | 219.7hPa | 2.6V | 00:00:00 | 00:00:00 | 00:00:00 | |
| DL1XH1-15 | 2026-09-02 08:32:44 | 52.56832 | 8.42682 | 113° | 86km/h | 11404m | -5.6m/s | -53.2°C | 12.3% | 218.7hPa | 2.6V | 08:04:15 | 01:57:46 | 00:00:00 | |
| DL1XH-west | 2026-09-02 08:32:44 | 52.56785 | 8.42842 | 117° | 84km/h | 11375m | -5.6m/s | -53.4°C | 12.8% | 219.7hPa | 2.6V | 08:04:43 | 01:57:51 | 00:00:00 | |
| DO2JMG | 2026-09-02 08:32:41 | 52.56814 | 8.42747 | 115° | 86km/h | 11393m | -5.6m/s | -53.3°C | 12% | 219.1hPa | 2.6V | 08:04:43 | 01:57:48 | 00:00:00 | |
| BIOWL1-15 | 2026-09-02 08:32:40 | 52.56841 | 8.42649 | 114° | 86km/h | 11410m | -5.6m/s | -53.2°C | 11.3% | 218.4hPa | 2.6V | 08:04:43 | 01:57:45 | 00:00:00 | |
| DB0NH | 2026-09-02 08:32:40 | 52.56823 | 8.42714 | 116° | 82km/h | 11398m | -5.7m/s | -53.2°C | 12.5% | 218.8hPa | 2.6V | 00:00:00 | 01:57:47 | 00:00:00 | |
| DL1XH-15 | 2026-09-02 08:32:39 | 52.56875 | 8.42521 | 114° | 82km/h | 11432m | -5.5m/s | -52.8°C | 11% | 217.7hPa | 2.6V | 08:04:20 | 01:57:41 | 00:00:00 | |
| AA1-15 | 2026-09-02 08:32:39 | 52.56832 | 8.42682 | 114° | 86km/h | 11404m | -5.6m/s | -53.2°C | 11.5% | 218.7hPa | 2.6V | 08:04:43 | 01:57:46 | 00:00:00 | |
| HSKMA3-T | 2026-09-02 08:32:37 | 52.56849 | 8.42617 | 113° | 86km/h | 11415m | -5.7m/s | -53°C | 10.9% | 218.3hPa | 2.5V | 08:04:43 | 01:57:44 | 00:00:00 | |
| DD8BA-10 | 2026-09-02 08:32:36 | 52.56858 | 8.42584 | 114° | 82km/h | 11421m | -5.6m/s | -52.9°C | 11.5% | 218.0hPa | 2.6V | 00:00:00 | 00:00:00 | 00:00:00 | |
| DM0DOS-11 | 2026-09-02 08:32:35 | 52.56912 | 8.42400 | 118° | 82km/h | 11455m | -5.7m/s | -52.8°C | 10.2% | 216.9hPa | 2.6V | 08:04:24 | 01:57:37 | 00:00:00 | |
| GOEST3-10 | 2026-09-02 08:32:35 | 52.56866 | 8.42553 | 114° | 82km/h | 11427m | -5.8m/s | -52.8°C | 11.2% | 217.9hPa | 2.6V | 00:00:00 | 01:57:42 | 00:00:00 | |
| DL1XH1-15 | 2026-09-02 08:32:34 | 52.56922 | 8.42370 | 119° | 82km/h | 11461m | -5.7m/s | -52.8°C | 10.1% | 216.8hPa | 2.6V | 08:04:25 | 01:57:36 | 00:00:00 | |
| DL1XH-west | 2026-09-02 08:32:33 | 52.56884 | 8.42490 | 116° | 82km/h | 11438m | -5.7m/s | -52.9°C | 10.1% | 217.6hPa | 2.6V | 08:04:43 | 01:57:40 | 00:00:00 | |
| DF5WG-10 | 2026-09-02 08:32:33 | 52.56884 | 8.42490 | 116° | 82km/h | 11438m | -5.7m/s | -52.8°C | 10.9% | 217.5hPa | 2.6V | 00:00:00 | 01:57:40 | 00:00:00 | |
| HTAHTA | 2026-09-02 08:32:32 | 52.56902 | 8.42430 | 117° | 80km/h | 11450m | -5.8m/s | -52.8°C | 7.5% | 217.2hPa | 2.6V | 00:00:00 | 00:00:00 | 00:00:00 | |
| DL1NUX | 2026-09-02 08:32:30 | 52.56963 | 8.42250 | 118° | 84km/h | 11484m | -5.6m/s | -52.5°C | 9.5% | 216hPa | 2.6V | 08:04:29 | 01:57:32 | 00:00:00 | |
| DO2JMG | 2026-09-02 08:32:30 | 52.56912 | 8.42400 | 119° | 82km/h | 11455m | -5.7m/s | -52.8°C | 9.4% | 216.9hPa | 2.6V | 08:04:43 | 01:57:37 | 00:00:00 | |
| AA1-15 | 2026-09-02 08:32:28 | 52.56932 | 8.42341 | 119° | 82km/h | 11467m | -5.8m/s | -52.7°C | 9% | 216.5hPa | 2.6V | 08:04:43 | 01:57:35 | 00:00:00 | |
| HSKMA3-T | 2026-09-02 08:32:27 | 52.56943 | 8.42311 | 119° | 84km/h | 11473m | -5.6m/s | -52.5°C | 8.8% | 216.4hPa | 2.6V | 08:04:43 | 01:57:34 | 00:00:00 | |
| DD8BA-10 | 2026-09-02 08:32:26 | 52.56953 | 8.42281 | 120° | 82km/h | 11478m | -5.8m/s | -52.5°C | 9.6% | 216.2hPa | 2.6V | 00:00:00 | 00:00:00 | 00:00:00 | |
| DM0DOS-11 | 2026-09-02 08:32:25 | 52.57011 | 8.42096 | 116° | 82km/h | 11513m | -5.8m/s | -52.4°C | 8.9% | 215hPa | 2.6V | 08:04:34 | 01:57:27 | 00:00:00 | |
| DB0DAN | 2026-09-02 08:32:25 | 52.56963 | 8.42250 | 118° | 80km/h | 11484m | -5.6m/s | -52.5°C | 6.6% | 215.97hPa | 2.6V | 00:00:00 | 00:00:00 | 00:00:00 | |
| GOEST3-10 | 2026-09-02 08:32:25 | 52.56963 | 8.42250 | 119° | 84km/h | 11484m | -5.6m/s | -52.5°C | 9.5% | 215.9hPa | 2.6V | 08:04:00 | 01:57:32 | 00:00:00 | |
| DL1XH1-15 | 2026-09-02 08:32:24 | 52.57020 | 8.42065 | 116° | 82km/h | 11518m | -5.9m/s | -52.4°C | 8.8% | 214.8hPa | 2.5V | 08:04:35 | 01:57:26 | 00:00:00 | |
| DL1XH-west | 2026-09-02 08:32:22 | 52.56992 | 8.42158 | 116° | 84km/h | 11501m | -5.7m/s | -52.5°C | 7.9% | 215.5hPa | 2.6V | 08:04:43 | 01:57:29 | 00:00:00 | |
| DN9WHV | 2026-09-02 08:32:22 | 52.56992 | 8.42158 | 117° | 84km/h | 11501m | -5.7m/s | -52.5°C | 6.2% | 215.5hPa | 2.6V | 08:04:00 | 00:00:00 | 00:00:00 | |
| DJ2KF-10 | 2026-09-02 08:32:21 | 52.57001 | 8.42127 | 116° | 77km/h | 11507m | -5.7m/s | -52.4°C | 9.0% | 215.2hPa | 2.6V | 00:00:00 | 01:57:28 | 00:00:00 | |
| DL1NUX | 2026-09-02 08:32:20 | 52.57059 | 8.41946 | 118° | 82km/h | 11542m | -5.7m/s | -52.1°C | 8.1% | 214.1hPa | 2.6V | 08:04:39 | 01:57:22 | 00:00:00 | |
| GOEST3-10 | 2026-09-02 08:32:20 | 52.57010 | 8.42096 | 117° | 82km/h | 11513m | -5.8m/s | -52.4°C | 8.9% | 215.0hPa | 2.6V | 00:00:00 | 00:00:00 | 00:00:00 | |
| DL1XH-15 | 2026-09-02 08:32:19 | 52.57069 | 8.41916 | 118° | 80km/h | 11547m | -5.8m/s | -52.1°C | 8% | 213.9hPa | 2.6V | 08:04:40 | 01:57:21 | 00:00:00 | |
| DO2JMG | 2026-09-02 08:32:19 | 52.57020 | 8.42065 | 117° | 82km/h | 11518m | -5.9m/s | -52.4°C | 7.5% | 214.8hPa | 2.5V | 08:04:43 | 01:57:26 | 00:00:00 | |
| BIOWL1-15 | 2026-09-02 08:32:16 | 52.57049 | 8.41976 | 119° | 80km/h | 11536m | -5.9m/s | -52.2°C | 6.9% | 214.3hPa | 2.6V | 08:04:43 | 01:57:23 | 00:00:00 | |
| DD8BA-10 | 2026-09-02 08:32:16 | 52.57049 | 8.41976 | 119° | 80km/h | 11536m | -5.9m/s | -52.1°C | 8.3% | 214.2hPa | 2.6V | 00:00:00 | 00:00:00 | 00:00:00 | |
| SO1NDE-10 | 2026-09-02 08:32:15 | 52.57058 | 8.41946 | 119° | 77km/h | 11542m | -5.6m/s | -52.0°C | 8.1% | 214.0hPa | 2.6V | 08:04:00 | 01:57:22 | 00:00:00 | |
| DL1XH1-15 | 2026-09-02 08:32:14 | 52.57113 | 8.41766 | 113° | 80km/h | 11576m | -5.7m/s | -51.9°C | 7.3% | 212.9hPa | 2.6V | 08:04:45 | 01:57:16 | 00:00:00 | |
| DL1XH-west | 2026-09-02 08:32:12 | 52.57087 | 8.41857 | 116° | 80km/h | 11559m | -5.6m/s | -52°C | 6.1% | 213.5hPa | 2.6V | 08:04:43 | 01:57:19 | 00:00:00 | |
| DB0UT-7 | 2026-09-02 08:32:12 | 52.57087 | 8.41856 | 117° | 73km/h | 11559m | -5.6m/s | -52.0°C | 7.7% | 213.5hPa | 2.6V | 00:00:00 | 00:00:00 | 00:00:00 | |
| DN9WHV | 2026-09-02 08:32:11 | 52.57087 | 8.41856 | 117° | 80km/h | 11559m | -5.6m/s | -52.0°C | 5.1% | 213.5hPa | 2.6V | 08:04:00 | 00:00:00 | 00:00:00 | |
| DB0DAN | 2026-09-02 08:32:10 | 52.57105 | 8.41796 | 114° | 77km/h | 11570m | -5.8m/s | -52°C | 4.8% | 213.12hPa | 2.6V | 00:00:00 | 00:00:00 | 00:00:00 | |
| DL1NUX | 2026-09-02 08:32:10 | 52.57145 | 8.41649 | 114° | 77km/h | 11599m | -5.8m/s | -51.6°C | 6.8% | 212.1hPa | 2.6V | 08:04:49 | 01:57:12 | 00:00:00 | |
| DB0NH | 2026-09-02 08:32:10 | 52.57105 | 8.41796 | 114° | 75km/h | 11571m | -5.7m/s | -51.9°C | 7.5% | 213.1hPa | 2.6V | 00:00:00 | 01:57:17 | 00:00:00 | |
| DL1XH-15 | 2026-09-02 08:32:09 | 52.57153 | 8.41621 | 115° | 75km/h | 11605m | -5.8m/s | -51.6°C | 6.6% | 211.9hPa | 2.6V | 08:04:50 | 01:57:11 | 00:00:00 | |
| DO2JMG | 2026-09-02 08:32:08 | 52.57121 | 8.41736 | 114° | 78km/h | 11582m | -5.7m/s | -51.7°C | 5.4% | 212.8hPa | 2.6V | 08:05:34 | 01:57:15 | 00:00:00 | |
| HSKMA3-T | 2026-09-02 08:32:06 | 52.57137 | 8.41678 | 114° | 77km/h | 11593m | -6m/s | -51.7°C | 5.1% | 212.4hPa | 2.6V | 08:05:34 | 01:57:13 | 00:00:00 | |
| DD8BA-10 | 2026-09-02 08:32:06 | 52.57136 | 8.41678 | 114° | 73km/h | 11593m | -6.0m/s | -51.6°C | 6.8% | 212.3hPa | 2.6V | 00:00:00 | 00:00:00 | 00:00:00 | |
| DM0DOS-11 | 2026-09-02 08:32:05 | 52.57185 | 8.41513 | 116° | 71km/h | 11628m | -5.8m/s | -51.6°C | 6.1% | 211.2hPa | 2.6V | 08:04:54 | 01:57:07 | 00:00:00 | |
| BIOWL1-15 | 2026-09-02 08:32:05 | 52.57145 | 8.41649 | 115° | 77km/h | 11599m | -5.8m/s | -51.6°C | 5% | 212.1hPa | 2.6V | 08:05:34 | 01:57:12 | 00:00:00 | |
| DL1XH-west | 2026-09-02 08:32:02 | 52.57169 | 8.41566 | 117° | 73km/h | 11617m | -5.9m/s | -51.6°C | 4.5% | 211.6hPa | 2.6V | 08:05:34 | 01:57:09 | 00:00:00 | |
| DN9WHV | 2026-09-02 08:32:02 | 52.57169 | 8.41566 | 118° | 73km/h | 11617m | -5.9m/s | -51.6°C | 3.9% | 211.6hPa | 2.6V | 00:00:00 | 00:00:00 | 00:00:00 | |
| HTAHTA | 2026-09-02 08:32:01 | 52.57194 | 8.41487 | 117° | 71km/h | 11634m | -5.7m/s | -51.6°C | 3.6% | 211.0hPa | 2.6V | 00:00:00 | 00:00:00 | 00:00:00 | |
| GOEST3-10 | 2026-09-02 08:32:00 | 52.57185 | 8.41513 | 117° | 71km/h | 11628m | -5.7m/s | -51.5°C | 6.1% | 211.2hPa | 2.6V | 00:00:00 | 00:00:00 | 00:00:00 | |
| DL1NUX | 2026-09-02 08:31:59 | 52.57236 | 8.41356 | 118° | 73km/h | 11663m | -5.7m/s | -51.6°C | 5.8% | 210.1hPa | 2.6V | 08:05:00 | 01:57:01 | 00:00:00 | |
| DO2JMG | 2026-09-02 08:31:57 | 52.57210 | 8.41434 | 118° | 71km/h | 11646m | -6m/s | -51.6°C | 3.8% | 210.6hPa | 2.6V | 08:05:34 | 01:57:04 | 00:00:00 | |
| HSKMA3-T | 2026-09-02 08:31:56 | 52.57219 | 8.41408 | 118° | 71km/h | 11652m | -5.7m/s | -51.6°C | 3.7% | 210.4hPa | 2.6V | 08:05:34 | 01:57:03 | 00:00:00 | |
| DD8BA-10 | 2026-09-02 08:31:56 | 52.57219 | 8.41408 | 118° | 73km/h | 11652m | -5.7m/s | -51.6°C | 5.8% | 210.4hPa | 2.6V | 00:00:00 | 00:00:00 | 00:00:00 | |
| DM0DOS-11 | 2026-09-02 08:31:55 | 52.57270 | 8.41249 | 116° | 73km/h | 11687m | -5.9m/s | -51.3°C | 5.6% | 209.3hPa | 2.6V | 08:05:04 | 01:56:57 | 00:00:00 | |
| DB0DAN | 2026-09-02 08:31:55 | 52.57227 | 8.41382 | 119° | 69km/h | 11657m | -6m/s | -51.7°C | 3.4% | 210.28hPa | 2.6V | 00:00:00 | 00:00:00 | 00:00:00 | |
| GOEST3-10 | 2026-09-02 08:31:55 | 52.57227 | 8.41382 | 119° | 73km/h | 11658m | -6.0m/s | -51.6°C | 5.8% | 210.2hPa | 2.6V | 00:00:00 | 01:57:02 | 00:00:00 | |
| DL1XH1-15 | 2026-09-02 08:31:54 | 52.57279 | 8.41221 | 116° | 73km/h | 11692m | -6m/s | -51.3°C | 5.5% | 209.1hPa | 2.6V | 08:05:05 | 01:56:56 | 00:00:00 | |
| BIOWL1-15 | 2026-09-02 08:31:54 | 52.57236 | 8.41356 | 118° | 73km/h | 11663m | -5.7m/s | -51.6°C | 3.6% | 210.1hPa | 2.6V | 08:05:34 | 01:57:01 | 00:00:00 | |
| DL1XH-west | 2026-09-02 08:31:51 | 52.57262 | 8.41276 | 117° | 73km/h | 11681m | -5.9m/s | -51.4°C | 3.3% | 209.5hPa | 2.6V | 08:05:34 | 01:56:58 | 00:00:00 | |
| DJ2KF-10 | 2026-09-02 08:31:51 | 52.57262 | 8.41276 | 118° | 71km/h | 11681m | -5.8m/s | -51.3°C | 5.6% | 209.5hPa | 2.6V | 00:00:00 | 01:56:58 | 00:00:00 | |
| GOEST3-10 | 2026-09-02 08:31:50 | 52.57271 | 8.41249 | 117° | 75km/h | 11687m | -5.8m/s | -51.3°C | 5.6% | 209.2hPa | 2.6V | 00:00:00 | 00:00:00 | 00:00:00 | |
| DL1XH-15 | 2026-09-02 08:31:49 | 52.57319 | 8.41081 | 114° | 75km/h | 11722m | -5.6m/s | -51.2°C | 5.4% | 208.2hPa | 2.6V | 08:05:10 | 01:56:51 | 00:00:00 | |
| DO2JMG | 2026-09-02 08:31:47 | 52.57295 | 8.41166 | 116° | 75km/h | 11704m | -5.8m/s | -51.3°C | 3.2% | 208.8hPa | 2.6V | 08:05:34 | 01:56:54 | 00:00:00 | |
| HSKMA3-T | 2026-09-02 08:31:45 | 52.57311 | 8.41109 | 115° | 75km/h | 11716m | -5.7m/s | -51.2°C | 3.1% | 208.4hPa | 2.6V | 08:05:34 | 01:56:52 | 00:00:00 | |
| EDDB2-12 | 2026-09-02 08:31:45 | 52.57319 | 8.41081 | 114° | 75km/h | 11722m | -5.6m/s | -51.2°C | 3.0% | 208.2hPa | 2.5V | 00:00:00 | 00:00:00 | 00:00:00 | |
| DL1XH1-15 | 2026-09-02 08:31:44 | 52.57359 | 8.40939 | 114° | 73km/h | 11751m | -5.9m/s | -51.2°C | 5.3% | 207.2hPa | 2.5V | 08:05:15 | 01:56:46 | 00:00:00 | |
| AA1-15 | 2026-09-02 08:31:43 | 52.57327 | 8.41053 | 115° | 75km/h | 11727m | -5.7m/s | -51.2°C | 3% | 208hPa | 2.6V | 08:05:34 | 01:56:50 | 00:00:00 | |
| DL1XH-west | 2026-09-02 08:31:41 | 52.57343 | 8.40996 | 114° | 75km/h | 11739m | -6m/s | -51.2°C | 2.9% | 207.6hPa | 2.6V | 08:05:34 | 01:56:48 | 00:00:00 | |
| DB0DAN | 2026-09-02 08:31:40 | 52.57351 | 8.40968 | 114° | 71km/h | 11745m | -5.9m/s | -51.2°C | 3% | 207.47hPa | 2.6V | 00:00:00 | 00:00:00 | 00:00:00 | |
| DB0NH | 2026-09-02 08:31:40 | 52.57351 | 8.40968 | 115° | 71km/h | 11745m | -5.8m/s | -51.1°C | 5.3% | 207.4hPa | 2.6V | 00:00:00 | 01:56:47 | 00:00:00 | |
| DL1XH-15 | 2026-09-02 08:31:39 | 52.57400 | 8.40799 | 116° | 75km/h | 11780m | -5.8m/s | -51.2°C | 5.1% | 206.3hPa | 2.6V | 08:05:20 | 01:56:41 | 00:00:00 | |
| DO2JMG | 2026-09-02 08:31:37 | 52.57374 | 8.40883 | 116° | 75km/h | 11763m | -5.5m/s | -51.2°C | 2.7% | 206.9hPa | 2.6V | 08:05:34 | 01:56:44 | 00:00:00 | |
| SONCRA | 2026-09-02 08:31:37 | 52.57383 | 8.40855 | 115° | 75km/h | 11768m | -5.7m/s | -51.3°C | 2.9% | 206.7hPa | 2.6V | 00:00:00 | 00:00:00 | 00:00:00 | |
| DD8BA-10 | 2026-09-02 08:31:36 | 52.57383 | 8.40855 | 116° | 73km/h | 11768m | -5.6m/s | -51.2°C | 5.2% | 206.6hPa | 2.6V | 00:00:00 | 00:00:00 | 00:00:00 | |
| DM0DOS-11 | 2026-09-02 08:31:35 | 52.57433 | 8.40689 | 114° | 73km/h | 11803m | -5.8m/s | -50.7°C | 4.8% | 205.6hPa | 2.6V | 08:05:24 | 01:56:37 | 00:00:00 | |
| HSKMA3-T | 2026-09-02 08:31:35 | 52.57391 | 8.40827 | 116° | 75km/h | 11774m | -5.8m/s | -51.3°C | 2.7% | 206.5hPa | 2.6V | 08:05:34 | 01:56:42 | 00:00:00 | |
| BIOWL1-15 | 2026-09-02 08:31:32 | 52.57416 | 8.40744 | 117° | 75km/h | 11791m | -5.8m/s | -51°C | 2.5% | 206hPa | 2.6V | 08:05:34 | 01:56:39 | 00:00:00 | |
| DL1XH-west | 2026-09-02 08:31:31 | 52.57425 | 8.40716 | 115° | 73km/h | 11797m | -5.8m/s | -50.9°C | 2.4% | 205.8hPa | 2.6V | 08:05:34 | 01:56:38 | 00:00:00 | |
| HTAHTA | 2026-09-02 08:31:30 | 52.57440 | 8.40661 | 113° | 69km/h | 11809m | -6.0m/s | -50.7°C | 2.5% | 205.4hPa | 2.6V | 00:00:00 | 00:00:00 | 00:00:00 | |
| DL1XH-15 | 2026-09-02 08:31:29 | 52.57473 | 8.40529 | 111° | 68km/h | 11838m | -5.9m/s | -50.7°C | 4.6% | 204.5hPa | 2.6V | 08:05:30 | 01:56:31 | 00:00:00 | |
| DO2JMG | 2026-09-02 08:31:27 | 52.57454 | 8.40608 | 112° | 69km/h | 11820m | -5.9m/s | -50.7°C | 2.2% | 205hPa | 2.6V | 08:05:34 | 01:56:34 | 00:00:00 | |
| DD8BA-10 | 2026-09-02 08:31:26 | 52.57460 | 8.40581 | 113° | 71km/h | 11827m | -5.7m/s | -50.7°C | 4.6% | 204.8hPa | 2.6V | 00:00:00 | 00:00:00 | 00:00:00 | |
| DM0DOS-11 | 2026-09-02 08:31:25 | 52.57500 | 8.40421 | 112° | 73km/h | 11862m | -6.1m/s | -50.8°C | 4.6% | 203.7hPa | 2.6V | 08:05:34 | 01:56:27 | 00:00:00 | |
| HSKMA3-T | 2026-09-02 08:31:24 | 52.57473 | 8.40529 | 112° | 68km/h | 11838m | -5.9m/s | -50.7°C | 2.1% | 204.5hPa | 2.6V | 08:05:34 | 01:56:31 | 00:00:00 | |
| BIOWL1-15 | 2026-09-02 08:31:24 | 52.57486 | 8.40476 | 112° | 69km/h | 11850m | -5.9m/s | -50.8°C | 2% | 204.1hPa | 2.6V | 08:05:34 | 01:56:29 | 00:00:00 | |
| AA1-15 | 2026-09-02 08:31:21 | 52.57493 | 8.40449 | 112° | 71km/h | 11856m | -6m/s | -50.8°C | 2% | 203.9hPa | 2.6V | 08:05:34 | 01:56:28 | 00:00:00 | |
| DL1XH-west | 2026-09-02 08:31:20 | 52.57500 | 8.40421 | 112° | 73km/h | 11862m | -6.1m/s | -50.8°C | 2% | 203.7hPa | 2.6V | 08:05:34 | 01:56:27 | 00:00:00 | |
| DO2JMG | 2026-09-02 08:31:16 | 52.57528 | 8.40309 | 114° | 73km/h | 11886m | -5.8m/s | -50.7°C | 1.8% | 202.9hPa | 2.6V | 08:06:25 | 01:56:23 | 00:00:00 | |
| DD8BA-10 | 2026-09-02 08:31:16 | 52.57528 | 8.40309 | 114° | 71km/h | 11886m | -5.8m/s | -50.7°C | 4.5% | 202.9hPa | 2.6V | 08:05:00 | 00:00:00 | 00:00:00 | |
| DL1NUX | 2026-09-02 08:31:15 | 52.57571 | 8.40150 | 113° | 69km/h | 11921m | -5.9m/s | -50.4°C | 4.3% | 201.9hPa | 2.6V | 08:05:44 | 01:56:17 | 00:00:00 | |
| BIOWL1-15 | 2026-09-02 08:31:14 | 52.57557 | 8.40202 | 115° | 69km/h | 11909m | -5.9m/s | -50.5°C | 1.7% | 202.3hPa | 2.6V | 08:06:25 | 01:56:19 | 00:00:00 | |
| HSKMA3-T | 2026-09-02 08:31:13 | 52.57550 | 8.40229 | 115° | 69km/h | 11903m | -6m/s | -50.6°C | 1.7% | 202.4hPa | 2.6V | 08:06:25 | 01:56:20 | 00:00:00 | |
| AA1-15 | 2026-09-02 08:31:11 | 52.57564 | 8.40176 | 114° | 69km/h | 11915m | -5.8m/s | -50.5°C | 1.6% | 202.1hPa | 2.6V | 08:06:25 | 01:56:18 | 00:00:00 | |
| DL1XH-west | 2026-09-02 08:31:09 | 52.57578 | 8.40123 | 112° | 69km/h | 11927m | -5.9m/s | -50.4°C | 1.6% | 201.7hPa | 2.6V | 08:06:25 | 01:56:16 | 00:00:00 | |
| DO2JMG | 2026-09-02 08:31:06 | 52.57598 | 8.40040 | 111° | 73km/h | 11945m | -5.7m/s | -50.4°C | 1.5% | 201.2hPa | 2.6V | 08:06:25 | 01:56:13 | 00:00:00 | |
| SONCRA | 2026-09-02 08:31:06 | 52.57604 | 8.40012 | 110° | 73km/h | 11950m | -6.0m/s | -50.4°C | 2.1% | 201.0hPa | 2.6V | 00:00:00 | 00:00:00 | 00:00:00 | |
| GOEST3-10 | 2026-09-02 08:31:05 | 52.57604 | 8.40012 | 111° | 75km/h | 11951m | -5.9m/s | -50.4°C | 4.2% | 201.0hPa | 2.6V | 00:00:00 | 01:56:12 | 00:00:00 | |
| DL1XH1-15 | 2026-09-02 08:31:04 | 52.57643 | 8.39836 | 110° | 75km/h | 11985m | -6m/s | -50.4°C | 4.1% | 199.9hPa | 2.6V | 08:05:55 | 01:56:06 | 00:00:00 | |
| HSKMA3-T | 2026-09-02 08:31:03 | 52.57617 | 8.39953 | 110° | 75km/h | 11962m | -6m/s | -50.4°C | 1.4% | 200.6hPa | 2.6V | 08:06:25 | 01:56:10 | 00:00:00 | |
| BIOWL1-15 | 2026-09-02 08:31:02 | 52.57623 | 8.39924 | 110° | 75km/h | 11968m | -5.7m/s | -50.4°C | 1.4% | 200.5hPa | 2.6V | 08:06:25 | 01:56:09 | 00:00:00 | |
| AA1-15 | 2026-09-02 08:31:00 | 52.57637 | 8.39865 | 111° | 75km/h | 11980m | -5.7m/s | -50.4°C | 1.4% | 200.1hPa | 2.6V | 08:06:25 | 01:56:07 | 00:00:00 | |
| DL1XH-west | 2026-09-02 08:30:58 | 52.57650 | 8.39807 | 111° | 75km/h | 11991m | -5.8m/s | -50.5°C | 1.4% | 199.7hPa | 2.6V | 08:06:25 | 01:56:05 | 00:00:00 | |
| SONDE2-11 | 2026-09-02 08:30:57 | 52.57657 | 8.39778 | 111° | 75km/h | 11997m | -5.8m/s | -50.5°C | 2.0% | 199.6hPa | 2.6V | 00:00:00 | 00:00:00 | 00:00:00 | |
| DD8BA-10 | 2026-09-02 08:30:56 | 52.57664 | 8.39749 | 112° | 80km/h | 12003m | -5.8m/s | -50.4°C | 4.2% | 199.3hPa | 2.6V | 00:00:00 | 00:00:00 | 00:00:00 | |
| DL1NUX | 2026-09-02 08:30:55 | 52.57705 | 8.39566 | 108° | 82km/h | 12037m | -5.7m/s | -50.4°C | 4.1% | 198.3hPa | 2.6V | 08:06:04 | 01:55:57 | 00:00:00 | |
| DO2JMG | 2026-09-02 08:30:55 | 52.57671 | 8.39720 | 111° | 77km/h | 12009m | -5.7m/s | -50.4°C | 1.3% | 199.2hPa | 2.6V | 08:06:25 | 01:56:02 | 00:00:00 | |
| BIOWL1-15 | 2026-09-02 08:30:53 | 52.57699 | 8.39598 | 110° | 80km/h | 12032m | -5.7m/s | -50.4°C | 1.3% | 198.5hPa | 2.6V | 08:06:25 | 01:55:58 | 00:00:00 | |
| HSKMA3-T | 2026-09-02 08:30:53 | 52.57685 | 8.39660 | 111° | 78km/h | 12020m | -5.7m/s | -50.4°C | 1.3% | 198.9hPa | 2.6V | 08:06:25 | 01:56:00 | 00:00:00 | |
| DL1ZP-14 | 2026-09-02 08:30:51 | 52.57699 | 8.39598 | 109° | 80km/h | 12032m | -5.7m/s | -50.4°C | 2.0% | 198.5hPa | 2.6V | 00:00:00 | 00:00:00 | 00:00:00 | |
| GOEST3-10 | 2026-09-02 08:30:50 | 52.57705 | 8.39566 | 109° | 82km/h | 12037m | -5.7m/s | -50.3°C | 4.1% | 198.3hPa | 2.6V | 00:00:00 | 00:00:00 | 00:00:00 | |
| DL1XH-15 | 2026-09-02 08:30:49 | 52.57744 | 8.39369 | 108° | 84km/h | 12072m | -5.6m/s | -50.1°C | 3.9% | 197.3hPa | 2.6V | 08:06:10 | 01:55:51 | 00:00:00 | |
| AA1-15 | 2026-09-02 08:30:49 | 52.57712 | 8.39534 | 108° | 82km/h | 12043m | -5.7m/s | -50.3°C | 1.2% | 198.2hPa | 2.6V | 08:06:25 | 01:55:56 | 00:00:00 | |
| DL1XH-west | 2026-09-02 08:30:48 | 52.57718 | 8.39501 | 108° | 82km/h | 12049m | -5.8m/s | -50.3°C | 1.3% | 198hPa | 2.6V | 08:06:25 | 01:55:55 | 00:00:00 | |
| DN9WHV | 2026-09-02 08:30:47 | 52.57719 | 8.39501 | 109° | 82km/h | 12049m | -5.8m/s | -50.3°C | 1.9% | 198.0hPa | 2.7V | 08:06:00 | 00:00:00 | 00:00:00 | |
| DD8BA-10 | 2026-09-02 08:30:46 | 52.57731 | 8.39435 | 108° | 82km/h | 12060m | -5.6m/s | -50.1°C | 3.9% | 197.6hPa | 2.7V | 00:00:00 | 00:00:00 | 00:00:00 | |
| DM0DOS-11 | 2026-09-02 08:30:45 | 52.57770 | 8.39239 | 108° | 82km/h | 12094m | -5.7m/s | -50.1°C | 3.9% | 196.6hPa | 2.6V | 08:06:14 | 01:55:47 | 00:00:00 | |
| DO2JMG | 2026-09-02 08:30:44 | 52.57744 | 8.39369 | 108° | 84km/h | 12072m | -5.6m/s | -50.1°C | 1.2% | 197.3hPa | 2.6V | 08:06:25 | 01:55:51 | 00:00:00 | |
| DJ2DS-15 | 2026-09-02 08:30:44 | 52.57744 | 8.39369 | 109° | 82km/h | 12072m | -5.5m/s | -50.0°C | 3.9% | 197.3hPa | 2.6V | 00:00:00 | 01:55:51 | 00:00:00 | |
| DL1NUX | 2026-09-02 08:30:43 | 52.57783 | 8.39174 | 107° | 84km/h | 12106m | -5.6m/s | -50.1°C | 4% | 196.3hPa | 2.6V | 08:06:16 | 01:55:45 | 00:00:00 | |
| HSKMA3-T | 2026-09-02 08:30:42 | 52.57757 | 8.39304 | 109° | 82km/h | 12083m | -5.6m/s | -50.1°C | 1.2% | 196.9hPa | 2.6V | 08:06:25 | 01:55:49 | 00:00:00 | |
| BIOWL1-15 | 2026-09-02 08:30:42 | 52.57770 | 8.39239 | 109° | 82km/h | 12094m | -5.7m/s | -50.1°C | 1.2% | 196.6hPa | 2.6V | 08:06:25 | 01:55:47 | 00:00:00 | |
| BIOWL7-15 | 2026-09-02 08:30:41 | 52.57757 | 8.39304 | 110° | 82km/h | 12083m | -5.6m/s | -50.1°C | 1.9% | 197.0hPa | 2.6V | 08:06:00 | 00:00:00 | 00:00:00 | |
| DB0DAN | 2026-09-02 08:30:40 | 52.57770 | 8.39239 | 108° | 78km/h | 12094m | -5.7m/s | -50.1°C | 1.9% | 196.63hPa | 2.6V | 00:00:00 | 00:00:00 | 00:00:00 | |
| AA1-15 | 2026-09-02 08:30:38 | 52.57783 | 8.39174 | 107° | 84km/h | 12106m | -5.6m/s | -50.1°C | 1.2% | 196.3hPa | 2.6V | 08:06:25 | 01:55:45 | 00:00:00 | |
| DL1XH-west | 2026-09-02 08:30:37 | 52.57789 | 8.39141 | 106° | 84km/h | 12112m | -5.9m/s | -50.2°C | 1.2% | 196.1hPa | 2.6V | 08:06:25 | 01:55:44 | 00:00:00 | |
| SO1NDE-10 | 2026-09-02 08:30:37 | 52.57789 | 8.39141 | 107° | 77km/h | 12112m | -5.8m/s | -50.1°C | 4.0% | 196.0hPa | 2.6V | 00:00:00 | 01:55:44 | 00:00:00 | |
| DD1CC3-15 | 2026-09-02 08:30:36 | 52.57795 | 8.39108 | 107° | 84km/h | 12118m | -5.9m/s | -50.2°C | 1.9% | 195.9hPa | 2.6V | 08:06:00 | 00:00:00 | 00:00:00 | |
| DM0DOS-11 | 2026-09-02 08:30:35 | 52.57832 | 8.38909 | 108° | 82km/h | 12152m | -5.8m/s | -50.1°C | 4% | 194.9hPa | 2.6V | 08:06:24 | 01:55:37 | 00:00:00 | |
| SONCRA | 2026-09-02 08:30:35 | 52.57807 | 8.39041 | 106° | 84km/h | 12129m | -5.9m/s | -50.2°C | 1.9% | 195.6hPa | 2.6V | 00:00:00 | 00:00:00 | 00:00:00 | |
| DL1XH1-15 | 2026-09-02 08:30:34 | 52.57838 | 8.38877 | 108° | 80km/h | 12158m | -5.8m/s | -50.1°C | 4% | 194.7hPa | 2.6V | 08:06:25 | 01:55:36 | 00:00:00 | |
| DO2JMG | 2026-09-02 08:30:33 | 52.57813 | 8.39007 | 106° | 84km/h | 12135m | -5.8m/s | -50.1°C | 1.3% | 195.4hPa | 2.6V | 08:06:25 | 01:55:40 | 00:00:00 | |
| HSKMA3-T | 2026-09-02 08:30:31 | 52.57825 | 8.38942 | 108° | 82km/h | 12146m | -5.9m/s | -50.2°C | 1.3% | 195hPa | 2.6V | 08:06:25 | 01:55:38 | 00:00:00 | |
| BIOWL1-15 | 2026-09-02 08:30:29 | 52.57838 | 8.38877 | 109° | 80km/h | 12158m | -5.8m/s | -50.1°C | 1.2% | 194.7hPa | 2.6V | 08:06:25 | 01:55:36 | 00:00:00 | |
| AA1-15 | 2026-09-02 08:30:27 | 52.57851 | 8.38815 | 109° | 78km/h | 12170m | -5.8m/s | -50.1°C | 1.2% | 194.3hPa | 2.6V | 08:07:16 | 01:55:34 | 00:00:00 | |
| DL1XH-west | 2026-09-02 08:30:26 | 52.57858 | 8.38785 | 109° | 78km/h | 12176m | -6.1m/s | -50.1°C | 1.2% | 194.2hPa | 2.6V | 08:07:16 | 01:55:33 | 00:00:00 | |
| DD8BA-10 | 2026-09-02 08:30:26 | 52.57858 | 8.38784 | 109° | 75km/h | 12176m | -6.0m/s | -50.1°C | 4.0% | 194.1hPa | 2.6V | 00:00:00 | 00:00:00 | 00:00:00 | |
| DM0DOS-11 | 2026-09-02 08:30:25 | 52.57893 | 8.38606 | 106° | 73km/h | 12211m | -5.8m/s | -50°C | 4% | 193.1hPa | 2.6V | 08:06:34 | 01:55:27 | 00:00:00 | |
| DB0DAN | 2026-09-02 08:30:25 | 52.57864 | 8.38754 | 108° | 73km/h | 12182m | -6m/s | -50.1°C | 1.9% | 194.01hPa | 2.6V | 00:00:00 | 00:00:00 | 00:00:00 | |
| GOEST3-10 | 2026-09-02 08:30:25 | 52.57864 | 8.38754 | 109° | 75km/h | 12182m | -5.9m/s | -50.1°C | 4.0% | 194.0hPa | 2.6V | 00:00:00 | 01:55:32 | 00:00:00 | |
| DL1XH1-15 | 2026-09-02 08:30:24 | 52.57898 | 8.38578 | 106° | 71km/h | 12217m | -6.2m/s | -50°C | 3.9% | 192.9hPa | 2.6V | 08:06:35 | 01:55:26 | 00:00:00 | |
| SMARD9-15 | 2026-09-02 08:30:24 | 52.57876 | 8.38694 | 107° | 75km/h | 12194m | -5.9m/s | -50.1°C | 1.9% | 193.6hPa | 2.6V | 00:00:00 | 00:00:00 | 00:00:00 | |
| DL1NUX | 2026-09-02 08:30:23 | 52.57903 | 8.38549 | 105° | 71km/h | 12223m | -5.9m/s | -50°C | 3.9% | 192.7hPa | 2.6V | 08:06:36 | 01:55:25 | 00:00:00 | |
| DO2JMG | 2026-09-02 08:30:23 | 52.57876 | 8.38694 | 107° | 75km/h | 12194m | -5.9m/s | -50.1°C | 1.2% | 193.6hPa | 2.6V | 08:07:16 | 01:55:30 | 00:00:00 | |
| BIOWL1-15 | 2026-09-02 08:30:20 | 52.57903 | 8.38549 | 106° | 71km/h | 12223m | -5.9m/s | -50°C | 1.2% | 192.8hPa | 2.6V | 08:07:16 | 01:55:25 | 00:00:00 | |
| HSKMA3-T | 2026-09-02 08:30:20 | 52.57893 | 8.38606 | 106° | 73km/h | 12211m | -5.8m/s | -50°C | 1.3% | 193.1hPa | 2.6V | 08:07:16 | 01:55:27 | 00:00:00 | |
| GOEST3-10 | 2026-09-02 08:30:20 | 52.57893 | 8.38606 | 107° | 71km/h | 12211m | -5.8m/s | -50.0°C | 4.0% | 193.0hPa | 2.6V | 00:00:00 | 00:00:00 | 00:00:00 | |
| DL1XH-15 | 2026-09-02 08:30:19 | 52.57922 | 8.38435 | 105° | 73km/h | 12247m | -5.7m/s | -50°C | 4% | 192hPa | 2.6V | 08:06:40 | 01:55:21 | 00:00:00 | |
| DL1XH-west | 2026-09-02 08:30:16 | 52.57912 | 8.38492 | 105° | 71km/h | 12235m | -6m/s | -50°C | 1.2% | 192.4hPa | 2.6V | 08:07:16 | 01:55:23 | 00:00:00 | |
| DD8BA-10 | 2026-09-02 08:30:16 | 52.57912 | 8.38492 | 105° | 73km/h | 12235m | -5.9m/s | -50.0°C | 3.9% | 192.4hPa | 2.6V | 00:00:00 | 00:00:00 | 00:00:00 | |
| DM0DOS-11 | 2026-09-02 08:30:15 | 52.57941 | 8.38317 | 105° | 75km/h | 12271m | -6.2m/s | -50°C | 3.9% | 191.3hPa | 2.6V | 08:06:44 | 01:55:17 | 00:00:00 | |
| GOEST3-10 | 2026-09-02 08:30:15 | 52.57917 | 8.38464 | 106° | 73km/h | 12241m | -6.2m/s | -50.0°C | 4.0% | 192.2hPa | 2.6V | 00:00:00 | 01:55:22 | 00:00:00 | |
| DL1XH1-15 | 2026-09-02 08:30:14 | 52.57946 | 8.38287 | 104° | 75km/h | 12277m | -5.9m/s | -50.1°C | 4% | 191.2hPa | 2.6V | 08:06:45 | 01:55:16 | 00:00:00 | |
| DL1NUX | 2026-09-02 08:30:13 | 52.57951 | 8.38257 | 104° | 75km/h | 12283m | -6m/s | -50.1°C | 4% | 191hPa | 2.6V | 08:06:46 | 01:55:15 | 00:00:00 | |
| DO2JMG | 2026-09-02 08:30:12 | 52.57932 | 8.38376 | 106° | 75km/h | 12259m | -5.9m/s | -50°C | 1.2% | 191.7hPa | 2.6V | 08:07:16 | 01:55:19 | 00:00:00 | |
| BIOWL1-15 | 2026-09-02 08:30:10 | 52.57951 | 8.38257 | 105° | 75km/h | 12283m | -6m/s | -50.1°C | 1.3% | 191hPa | 2.6V | 08:07:16 | 01:55:15 | 00:00:00 | |
| DB0DAN | 2026-09-02 08:30:10 | 52.57942 | 8.38317 | 105° | 71km/h | 12271m | -6.2m/s | -50°C | 1.9% | 191.35hPa | 2.6V | 00:00:00 | 00:00:00 | 00:00:00 | |
| HSKMA3-T | 2026-09-02 08:30:09 | 52.57947 | 8.38287 | 105° | 75km/h | 12277m | -5.9m/s | -50.1°C | 1.3% | 191.2hPa | 2.6V | 08:07:16 | 01:55:16 | 00:00:00 | |
| AA1-15 | 2026-09-02 08:30:06 | 52.57960 | 8.38197 | 103° | 75km/h | 12295m | -6.1m/s | -50.1°C | 1.3% | 190.6hPa | 2.7V | 08:07:16 | 01:55:13 | 00:00:00 | |
| DD8BA-10 | 2026-09-02 08:30:06 | 52.57960 | 8.38197 | 103° | 73km/h | 12296m | -6.0m/s | -50.0°C | 4.0% | 190.6hPa | 2.7V | 00:00:00 | 00:00:00 | 00:00:00 | |
| DM0DOS-11 | 2026-09-02 08:30:05 | 52.57986 | 8.38021 | 105° | 73km/h | 12331m | -5.8m/s | -49.9°C | 3.9% | 189.6hPa | 2.7V | 08:06:54 | 01:55:07 | 00:00:00 | |
| DL1XH-west | 2026-09-02 08:30:05 | 52.57964 | 8.38167 | 103° | 73km/h | 12301m | -6.1m/s | -50.2°C | 1.3% | 190.4hPa | 2.6V | 08:07:16 | 01:55:12 | 00:00:00 | |
| GOEST3-10 | 2026-09-02 08:30:05 | 52.57964 | 8.38167 | 104° | 73km/h | 12302m | -6.0m/s | -50.1°C | 4.0% | 190.4hPa | 2.6V | 00:00:00 | 01:55:12 | 00:00:00 | |
| DL1XH1-15 | 2026-09-02 08:30:04 | 52.57991 | 8.37991 | 106° | 73km/h | 12337m | -5.9m/s | -49.8°C | 3.8% | 189.4hPa | 2.6V | 08:06:55 | 01:55:06 | 00:00:00 | |
| SONCRA | 2026-09-02 08:30:04 | 52.57973 | 8.38108 | 103° | 71km/h | 12314m | -5.8m/s | -50.2°C | 1.9% | 190.1hPa | 2.6V | 00:00:00 | 00:00:00 | 00:00:00 | |
| DL1NUX | 2026-09-02 08:30:03 | 52.57996 | 8.37962 | 106° | 73km/h | 12343m | -6m/s | -49.7°C | 3.8% | 189.2hPa | 2.6V | 08:06:56 | 01:55:05 | 00:00:00 | |
| BIOWL1-15 | 2026-09-02 08:30:01 | 52.58002 | 8.37933 | 107° | 75km/h | 12349m | -6.1m/s | -49.7°C | 1.1% | 189.1hPa | 2.6V | 08:07:16 | 01:55:04 | 00:00:00 | |
| DO2JMG | 2026-09-02 08:30:01 | 52.57981 | 8.38050 | 104° | 73km/h | 12325m | -5.9m/s | -50.1°C | 1.2% | 189.8hPa | 2.6V | 08:07:16 | 01:55:08 | 00:00:00 | |
| GOEST3-10 | 2026-09-02 08:30:00 | 52.57986 | 8.38020 | 106° | 73km/h | 12331m | -5.8m/s | -49.9°C | 3.9% | 189.6hPa | 2.7V | 00:00:00 | 00:00:00 | 00:00:00 | |
| DL1XH-15 | 2026-09-02 08:29:59 | 52.58019 | 8.37844 | 107° | 75km/h | 12367m | -6.2m/s | -49.8°C | 3.9% | 188.6hPa | 2.7V | 08:07:00 | 01:55:01 | 00:00:00 | |
| HSKMA3-T | 2026-09-02 08:29:59 | 52.57991 | 8.37991 | 106° | 73km/h | 12337m | -5.9m/s | -49.8°C | 1.1% | 189.5hPa | 2.6V | 08:07:16 | 01:55:06 | 00:00:00 | |
| DL1XH-west | 2026-09-02 08:29:55 | 52.58013 | 8.37874 | 108° | 75km/h | 12361m | -6m/s | -49.8°C | 1.1% | 188.8hPa | 2.6V | 08:07:16 | 01:55:02 | 00:00:00 | |
| GOEST3-10 | 2026-09-02 08:29:55 | 52.58013 | 8.37874 | 108° | 75km/h | 12361m | -6.0m/s | -49.7°C | 3.8% | 188.7hPa | 2.6V | 00:00:00 | 01:55:02 | 00:00:00 | |
| DL1XH1-15 | 2026-09-02 08:29:54 | 52.58048 | 8.37694 | 108° | 75km/h | 12397m | -6.2m/s | -49.9°C | 3.8% | 187.7hPa | 2.6V | 08:07:05 | 01:54:56 | 00:00:00 | |
| DL1NUX | 2026-09-02 08:29:53 | 52.58054 | 8.37665 | 109° | 75km/h | 12404m | -6m/s | -49.9°C | 3.8% | 187.5hPa | 2.6V | 08:07:06 | 01:54:55 | 00:00:00 | |
| DO2JMG | 2026-09-02 08:29:51 | 52.58036 | 8.37754 | 108° | 75km/h | 12386m | -6.1m/s | -49.8°C | 1.1% | 188hPa | 2.6V | 08:07:16 | 01:54:58 | 00:00:00 | |
| BIOWL1-15 | 2026-09-02 08:29:50 | 52.58068 | 8.37606 | 111° | 77km/h | 12416m | -6.4m/s | -49.9°C | 1% | 187.1hPa | 2.6V | 08:07:16 | 01:54:53 | 00:00:00 | |
| DL1XH-15 | 2026-09-02 08:29:49 | 52.58083 | 8.37547 | 113° | 78km/h | 12429m | -6.4m/s | -50°C | 3.8% | 186.8hPa | 2.6V | 08:07:10 | 01:54:51 | 00:00:00 | |
| HSKMA3-T | 2026-09-02 08:29:48 | 52.58054 | 8.37665 | 109° | 75km/h | 12404m | -6m/s | -49.9°C | 1.1% | 187.5hPa | 2.6V | 08:07:16 | 01:54:55 | 00:00:00 | |
| DL1XH-west | 2026-09-02 08:29:45 | 52.58075 | 8.37577 | 113° | 77km/h | 12422m | -6.3m/s | -50°C | 1% | 187hPa | 2.6V | 08:07:16 | 01:54:52 | 00:00:00 | |
| DJ2DS-15 | 2026-09-02 08:29:44 | 52.58083 | 8.37547 | 114° | 80km/h | 12429m | -6.4m/s | -49.9°C | 3.8% | 186.7hPa | 2.6V | 00:00:00 | 01:54:51 | 00:00:00 | |
| DL1NUX | 2026-09-02 08:29:43 | 52.58136 | 8.37367 | 116° | 82km/h | 12465m | -5.9m/s | -50.1°C | 3.8% | 185.8hPa | 2.6V | 08:07:16 | 01:54:45 | 00:00:00 | |
| DO2JMG | 2026-09-02 08:29:40 | 52.58118 | 8.37428 | 116° | 80km/h | 12453m | -6.2m/s | -50.1°C | 1% | 186.1hPa | 2.6V | 08:07:16 | 01:54:47 | 00:00:00 | |
| DB0DAN | 2026-09-02 08:29:40 | 52.58118 | 8.37428 | 116° | 77km/h | 12453m | -6.2m/s | -50.1°C | 1.7% | 186.06hPa | 2.6V | 00:00:00 | 00:00:00 | 00:00:00 | |
| DB0NH | 2026-09-02 08:29:40 | 52.58118 | 8.37428 | 116° | 82km/h | 12453m | -6.1m/s | -50.0°C | 3.8% | 186.0hPa | 2.6V | 00:00:00 | 01:54:47 | 00:00:00 | |
| DL1XH-15 | 2026-09-02 08:29:39 | 52.58170 | 8.37245 | 112° | 80km/h | 12490m | -6.2m/s | -50.2°C | 3.8% | 185.1hPa | 2.6V | 08:07:20 | 01:54:41 | 00:00:00 | |
| HSKMA3-T | 2026-09-02 08:29:37 | 52.58145 | 8.37337 | 116° | 82km/h | 12472m | -6.2m/s | -50.1°C | 1% | 185.6hPa | 2.6V | 08:08:07 | 01:54:44 | 00:00:00 | |
| BIOWL1-15 | 2026-09-02 08:29:36 | 52.58153 | 8.37306 | 114° | 82km/h | 12478m | -6.1m/s | -50.1°C | 1% | 185.4hPa | 2.6V | 08:08:07 | 01:54:43 | 00:00:00 | |
| DL1XH-west | 2026-09-02 08:29:35 | 52.58162 | 8.37275 | 114° | 80km/h | 12484m | -6.3m/s | -50.2°C | 0.9% | 185.2hPa | 2.6V | 08:08:07 | 01:54:42 | 00:00:00 | |
| GOEST3-10 | 2026-09-02 08:29:35 | 52.58162 | 8.37275 | 114° | 80km/h | 12484m | -6.2m/s | -50.1°C | 3.8% | 185.2hPa | 2.6V | 00:00:00 | 01:54:42 | 00:00:00 | |
| DL1XH1-15 | 2026-09-02 08:29:34 | 52.58210 | 8.37089 | 113° | 82km/h | 12521m | -6m/s | -50.2°C | 3.8% | 184.2hPa | 2.6V | 08:07:25 | 01:54:36 | 00:00:00 | |
| AA1-15 | 2026-09-02 08:29:34 | 52.58170 | 8.37245 | 113° | 80km/h | 12490m | -6.2m/s | -50.2°C | 1% | 185.1hPa | 2.6V | 08:08:07 | 01:54:41 | 00:00:00 | |
| DF5WG-10 | 2026-09-02 08:29:33 | 52.58177 | 8.37214 | 113° | 82km/h | 12496m | -6.0m/s | -50.2°C | 3.8% | 184.8hPa | 2.6V | 00:00:00 | 01:54:40 | 00:00:00 | |
| DJ2DS-15 | 2026-09-02 08:29:32 | 52.58185 | 8.37183 | 112° | 80km/h | 12503m | -6.4m/s | -50.3°C | 1.7% | 184.7hPa | 2.6V | 00:00:00 | 00:00:00 | 00:00:00 | |
| DN9WHV | 2026-09-02 08:29:31 | 52.58186 | 8.37182 | 114° | 80km/h | 12503m | -6.4m/s | -50.3°C | 1.7% | 184.7hPa | 2.6V | 08:08:00 | 00:00:00 | 00:00:00 | |
| GOEST3-10 | 2026-09-02 08:29:30 | 52.58201 | 8.37120 | 113° | 82km/h | 12515m | -6.0m/s | -50.2°C | 3.8% | 184.3hPa | 2.6V | 00:00:00 | 00:00:00 | 00:00:00 | |
| DL1XH-15 | 2026-09-02 08:29:29 | 52.58248 | 8.36932 | 110° | 80km/h | 12551m | -6.1m/s | -49.9°C | 3.7% | 183.3hPa | 2.6V | 08:07:30 | 01:54:31 | 00:00:00 | |
| DO2JMG | 2026-09-02 08:29:29 | 52.58209 | 8.37089 | 114° | 82km/h | 12521m | -6m/s | -50.2°C | 0.9% | 184.2hPa | 2.6V | 08:08:07 | 01:54:36 | 00:00:00 | |
| HSKMA3-T | 2026-09-02 08:29:26 | 52.58233 | 8.36995 | 112° | 82km/h | 12539m | -6m/s | -49.8°C | 0.8% | 183.7hPa | 2.6V | 08:08:07 | 01:54:33 | 00:00:00 | |
| DB0DAN | 2026-09-02 08:29:25 | 52.58241 | 8.36964 | 112° | 78km/h | 12545m | -5.8m/s | -49.8°C | 1.7% | 183.49hPa | 2.6V | 00:00:00 | 00:00:00 | 00:00:00 | |
| BIOWL1-15 | 2026-09-02 08:29:25 | 52.58241 | 8.36964 | 112° | 82km/h | 12545m | -5.8m/s | -49.8°C | 0.9% | 183.5hPa | 2.6V | 08:08:07 | 01:54:32 | 00:00:00 | |
| DL1XH-west | 2026-09-02 08:29:24 | 52.58248 | 8.36932 | 111° | 80km/h | 12551m | -6.1m/s | -49.9°C | 0.9% | 183.3hPa | 2.6V | 08:08:07 | 01:54:31 | 00:00:00 | |
| AA1-15 | 2026-09-02 08:29:23 | 52.58255 | 8.36901 | 111° | 80km/h | 12557m | -6.2m/s | -49.9°C | 0.9% | 183.1hPa | 2.6V | 08:08:07 | 01:54:30 | 00:00:00 | |
| DL1NUX | 2026-09-02 08:29:23 | 52.58286 | 8.36743 | 105° | 78km/h | 12588m | -6.2m/s | -50.1°C | 3.7% | 182.3hPa | 2.6V | 08:07:36 | 01:54:25 | 00:00:00 | |
| DO2JMG | 2026-09-02 08:29:19 | 52.58281 | 8.36775 | 106° | 80km/h | 12582m | -6m/s | -50.1°C | 0.8% | 182.4hPa | 2.6V | 08:08:07 | 01:54:26 | 00:00:00 | |
| DF8AY | 2026-09-02 08:29:16 | 52.58323 | 8.36514 | 106° | 86km/h | 12631m | -6.2m/s | 0°C | 0% | 0hPa | 2.6V | 08:08:58 | 01:54:18 | 00:00:00 | |
| HSKMA3-T | 2026-09-02 08:29:15 | 52.58301 | 8.36647 | 104° | 82km/h | 12607m | -6.1m/s | -50.2°C | 0.8% | 181.8hPa | 2.6V | 08:08:07 | 01:54:22 | 00:00:00 | |
| DL1XH-west | 2026-09-02 08:29:14 | 52.58306 | 8.36614 | 105° | 82km/h | 12613m | -6.1m/s | -50.3°C | 0.8% | 181.6hPa | 2.6V | 08:08:07 | 01:54:21 | 00:00:00 | |
| DL3AQ-11 | 2026-09-02 08:29:14 | 52.58312 | 8.36581 | 105° | 82km/h | 12618m | -5.8m/s | -50.3°C | 1.6% | 181.4hPa | 2.6V | 00:00:00 | 00:00:00 | 00:00:00 | |
| DL1NUX | 2026-09-02 08:29:13 | 52.58341 | 8.36411 | 106° | 86km/h | 12649m | -6.3m/s | -50.5°C | 3.8% | 180.6hPa | 2.6V | 08:07:46 | 01:54:15 | 00:00:00 | |
| AA1-15 | 2026-09-02 08:29:12 | 52.58317 | 8.36547 | 105° | 84km/h | 12625m | -6.1m/s | -50.4°C | 0.8% | 181.2hPa | 2.7V | 08:08:07 | 01:54:19 | 00:00:00 | |
| DO2JMG | 2026-09-02 08:29:09 | 52.58335 | 8.36445 | 106° | 86km/h | 12643m | -6.2m/s | -50.4°C | 0.8% | 180.8hPa | 2.6V | 08:08:07 | 01:54:16 | 00:00:00 | |
| DL4XJ-10 | 2026-09-02 08:29:09 | 52.58335 | 8.36445 | 107° | 86km/h | 12643m | -6.2m/s | -50.9°C | 0% | 0hPa | 2.6V | 00:00:00 | 00:00:00 | 00:00:00 | |
| DD1CC2-15 | 2026-09-02 08:29:08 | 52.58335 | 8.36445 | 107° | 86km/h | 12643m | -6.2m/s | -50.4°C | 1.7% | 180.8hPa | 2.6V | 08:08:00 | 00:00:00 | 00:00:00 | |
| SO1NDE-10 | 2026-09-02 08:29:07 | 52.58347 | 8.36376 | 106° | 86km/h | 12656m | -6.0m/s | -50.4°C | 3.8% | 180.4hPa | 2.6V | 00:00:00 | 01:54:14 | 00:00:00 | |
| DL4BBY-15 | 2026-09-02 08:29:06 | 52.58353 | 8.36342 | 106° | 86km/h | 12661m | -6.0m/s | -50.9°C | 0% | 0hPa | 2.7V | 00:00:00 | 00:00:00 | 00:00:00 | |
| DM0DOS-11 | 2026-09-02 08:29:05 | 52.58393 | 8.36137 | 110° | 84km/h | 12698m | -6.2m/s | -50°C | 3.6% | 179.2hPa | 2.7V | 08:07:54 | 01:54:07 | 00:00:00 | |
| HSKMA3-T | 2026-09-02 08:29:04 | 52.58365 | 8.36272 | 107° | 86km/h | 12674m | -6.3m/s | -50.1°C | 0.7% | 179.9hPa | 2.6V | 08:08:07 | 01:54:11 | 00:00:00 | |
| DL1XH-west | 2026-09-02 08:29:03 | 52.58372 | 8.36238 | 108° | 88km/h | 12680m | -6.1m/s | -50°C | 0.7% | 179.7hPa | 2.6V | 08:08:07 | 01:54:10 | 00:00:00 | |
| AA1-15 | 2026-09-02 08:29:01 | 52.58386 | 8.36170 | 110° | 86km/h | 12692m | -6.1m/s | -49.9°C | 0.7% | 179.4hPa | 2.6V | 08:08:07 | 01:54:08 | 00:00:00 | |
| DF8AY | 2026-09-02 08:28:59 | 52.58400 | 8.36104 | 110° | 86km/h | 12704m | -6m/s | 0°C | 0% | 0hPa | 2.6V | 08:08:58 | 01:54:06 | 00:00:00 | |
| DO2JMG | 2026-09-02 08:28:58 | 52.58408 | 8.36071 | 111° | 86km/h | 12710m | -6.1m/s | -49.9°C | 0.7% | 178.9hPa | 2.6V | 08:08:07 | 01:54:05 | 00:00:00 | |
| DD1CC8 | 2026-09-02 08:28:58 | 52.58408 | 8.36071 | 110° | 84km/h | 12710m | -6.1m/s | -49.9°C | 1.5% | 178.9hPa | 2.7V | 00:00:00 | 00:00:00 | 00:00:00 | |
| DB0ND-19 | 2026-09-02 08:28:57 | 52.58416 | 8.36037 | 111° | 84km/h | 12717m | -6.4m/s | -50.0°C | 1.6% | 178.8hPa | 2.7V | 00:00:00 | 00:00:00 | 00:00:00 | |
| DD8BA-10 | 2026-09-02 08:28:56 | 52.58423 | 8.36004 | 111° | 86km/h | 12723m | -6.1m/s | -49.9°C | 3.6% | 178.5hPa | 2.7V | 00:00:00 | 00:00:00 | 00:00:00 | |
| DM0DOS-11 | 2026-09-02 08:28:55 | 52.58465 | 8.35802 | 106° | 86km/h | 12760m | -5.9m/s | -50°C | 3.7% | 177.6hPa | 2.7V | 08:08:04 | 01:53:57 | 00:00:00 | |
| GOEST3-10 | 2026-09-02 08:28:55 | 52.58431 | 8.35971 | 111° | 86km/h | 12729m | -6.2m/s | -49.9°C | 3.7% | 178.3hPa | 2.6V | 00:00:00 | 01:54:02 | 00:00:00 | |
| DL1XH1-15 | 2026-09-02 08:28:54 | 52.58471 | 8.35767 | 107° | 88km/h | 12766m | -6m/s | -50°C | 3.7% | 177.4hPa | 2.6V | 08:08:05 | 01:53:56 | 00:00:00 | |
| BIOWL1-15 | 2026-09-02 08:28:54 | 52.58438 | 8.35938 | 109° | 86km/h | 12735m | -6.2m/s | -50°C | 0.6% | 178.2hPa | 2.6V | 08:08:07 | 01:54:01 | 00:00:00 | |
| DL1XH-west | 2026-09-02 08:28:53 | 52.58445 | 8.35904 | 108° | 86km/h | 12742m | -6.2m/s | -50°C | 0.7% | 178hPa | 2.6V | 08:08:07 | 01:54:00 | 00:00:00 | |
| AA1-15 | 2026-09-02 08:28:50 | 52.58465 | 8.35802 | 107° | 86km/h | 12760m | -5.9m/s | -50.1°C | 0.7% | 177.6hPa | 2.7V | 08:08:07 | 01:53:57 | 00:00:00 | |
| DO2JMG | 2026-09-02 08:28:48 | 52.58478 | 8.35733 | 108° | 86km/h | 12772m | -5.9m/s | -50°C | 0.7% | 177.2hPa | 2.6V | 08:08:07 | 01:53:55 | 00:00:00 | |
| DL3AQ-11 | 2026-09-02 08:28:45 | 52.58507 | 8.35598 | 111° | 84km/h | 12796m | -6.3m/s | -49.5°C | 1.5% | 176.6hPa | 2.7V | 00:00:00 | 00:00:00 | 00:00:00 | |
| DL1XH1-15 | 2026-09-02 08:28:44 | 52.58545 | 8.35433 | 110° | 86km/h | 12827m | -6m/s | -49.5°C | 3.5% | 175.7hPa | 2.7V | 08:08:15 | 01:53:46 | 00:00:00 | |
| AU51GT2 | 2026-09-02 08:28:44 | 52.58507 | 8.35598 | 111° | 84km/h | 12796m | -6.3m/s | -49.5°C | 1.5% | 176.6hPa | 2.6V | 00:00:00 | 00:00:00 | 00:00:00 | |
| DL1XH-west | 2026-09-02 08:28:43 | 52.58514 | 8.35565 | 111° | 86km/h | 12803m | -6.2m/s | -49.5°C | 0.6% | 176.4hPa | 2.6V | 08:08:58 | 01:53:50 | 00:00:00 | |
| HSKMA3-T | 2026-09-02 08:28:42 | 52.58522 | 8.35532 | 111° | 84km/h | 12809m | -6.2m/s | -49.5°C | 0.6% | 176.2hPa | 2.6V | 08:08:58 | 01:53:49 | 00:00:00 | |
| DN9WHV | 2026-09-02 08:28:41 | 52.58522 | 8.35532 | 112° | 84km/h | 12809m | -6.2m/s | -49.5°C | 1.5% | 176.2hPa | 2.6V | 08:08:00 | 00:00:00 | 00:00:00 | |
| DB0DAN | 2026-09-02 08:28:40 | 52.58537 | 8.35467 | 111° | 80km/h | 12821m | -5.9m/s | -49.5°C | 1.5% | 175.9hPa | 2.6V | 00:00:00 | 00:00:00 | 00:00:00 | |
| AA1-15 | 2026-09-02 08:28:39 | 52.58545 | 8.35433 | 111° | 86km/h | 12827m | -6m/s | -49.5°C | 0.6% | 175.7hPa | 2.7V | 08:08:58 | 01:53:46 | 00:00:00 | |
| DF8AY | 2026-09-02 08:28:38 | 52.58553 | 8.35400 | 111° | 88km/h | 12833m | -6.2m/s | 0°C | 0% | 0hPa | 2.7V | 08:08:58 | 01:53:45 | 00:00:00 | |
| DO2JMG | 2026-09-02 08:28:37 | 52.58560 | 8.35366 | 110° | 88km/h | 12839m | -6m/s | -49.4°C | 0.6% | 175.4hPa | 2.6V | 08:08:58 | 01:53:44 | 00:00:00 | |
| SO1NDE-10 | 2026-09-02 08:28:37 | 52.58560 | 8.35366 | 111° | 86km/h | 12839m | -5.9m/s | -49.4°C | 3.5% | 175.4hPa | 2.6V | 00:00:00 | 01:53:44 | 00:00:00 | |
| DL4BBY-15 | 2026-09-02 08:28:36 | 52.58568 | 8.35331 | 112° | 86km/h | 12845m | -5.8m/s | -49.8°C | 0% | 0hPa | 2.6V | 00:00:00 | 00:00:00 | 00:00:00 | |
| DM0DOS-11 | 2026-09-02 08:28:35 | 52.58622 | 8.35128 | 116° | 88km/h | 12881m | -6m/s | -49.3°C | 3.5% | 174.3hPa | 2.6V | 08:08:24 | 01:53:37 | 00:00:00 | |
| GOEST3-10 | 2026-09-02 08:28:35 | 52.58576 | 8.35297 | 111° | 89km/h | 12851m | -6.1m/s | -49.2°C | 3.4% | 175.0hPa | 2.6V | 00:00:00 | 01:53:42 | 00:00:00 | |
| DL1XH1-15 | 2026-09-02 08:28:34 | 52.58632 | 8.35096 | 117° | 88km/h | 12887m | -5.8m/s | -49.3°C | 3.5% | 174.1hPa | 2.6V | 08:08:25 | 01:53:36 | 00:00:00 | |
| DL1XH-west | 2026-09-02 08:28:32 | 52.58602 | 8.35194 | 115° | 89km/h | 12869m | -6m/s | -49.3°C | 0.5% | 174.6hPa | 2.6V | 08:08:58 | 01:53:39 | 00:00:00 | |
| DL1CLM-18 | 2026-09-02 08:28:31 | 52.58603 | 8.35194 | 116° | 89km/h | 12869m | -6.0m/s | -49.3°C | 1.5% | 174.6hPa | 2.6V | 00:00:00 | 00:00:00 | 00:00:00 | |
| GOEST3-10 | 2026-09-02 08:28:30 | 52.58621 | 8.35128 | 117° | 88km/h | 12881m | -6.0m/s | -49.2°C | 3.5% | 174.3hPa | 2.6V | 00:00:00 | 00:00:00 | 00:00:00 | |
| DL1XH-15 | 2026-09-02 08:28:29 | 52.58682 | 8.34938 | 116° | 84km/h | 12917m | -6m/s | -49.4°C | 3.5% | 173.3hPa | 2.6V | 08:08:30 | 01:53:31 | 00:00:00 | |
| AA1-15 | 2026-09-02 08:28:28 | 52.58642 | 8.35064 | 118° | 88km/h | 12893m | -6m/s | -49.3°C | 0.6% | 174hPa | 2.6V | 08:08:58 | 01:53:35 | 00:00:00 | |
| DO2JMG | 2026-09-02 08:28:27 | 52.58652 | 8.35032 | 118° | 86km/h | 12899m | -5.8m/s | -49.4°C | 0.6% | 173.8hPa | 2.6V | 08:08:58 | 01:53:34 | 00:00:00 | |
| DD8BA-10 | 2026-09-02 08:28:26 | 52.58662 | 8.35001 | 118° | 84km/h | 12905m | -6.0m/s | -49.3°C | 3.4% | 173.6hPa | 2.6V | 00:00:00 | 00:00:00 | 00:00:00 | |
| DM0DOS-11 | 2026-09-02 08:28:25 | 52.58719 | 8.34812 | 114° | 84km/h | 12940m | -6m/s | -49.5°C | 3.5% | 172.7hPa | 2.6V | 08:08:34 | 01:53:27 | 00:00:00 | |
| DB0DAN | 2026-09-02 08:28:25 | 52.58673 | 8.34969 | 118° | 80km/h | 12911m | -5.7m/s | -49.4°C | 1.5% | 173.48hPa | 2.6V | 00:00:00 | 00:00:00 | 00:00:00 | |
| DL1XH1-15 | 2026-09-02 08:28:25 | 52.58728 | 8.34780 | 115° | 84km/h | 12946m | -6m/s | -49.4°C | 3.5% | 172.6hPa | 2.6V | 08:08:35 | 01:53:26 | 00:00:00 | |
| DF8AY | 2026-09-02 08:28:25 | 52.58682 | 8.34938 | 117° | 84km/h | 12917m | -6m/s | 0°C | 0% | 0hPa | 2.6V | 08:08:58 | 01:53:31 | 00:00:00 | |
| EDDB2-11 | 2026-09-02 08:28:24 | 52.58692 | 8.34907 | 115° | 84km/h | 12922m | -5.8m/s | -49.4°C | 1.5% | 173.2hPa | 2.7V | 00:00:00 | 00:00:00 | 00:00:00 | |
| DL1NUX | 2026-09-02 08:28:23 | 52.58737 | 8.34748 | 115° | 84km/h | 12952m | -6m/s | -49.4°C | 3.5% | 172.4hPa | 2.7V | 08:08:36 | 01:53:25 | 00:00:00 | |
| DL1XH-west | 2026-09-02 08:28:22 | 52.58701 | 8.34875 | 115° | 84km/h | 12928m | -6.1m/s | -49.5°C | 0.6% | 173hPa | 2.6V | 08:08:58 | 01:53:29 | 00:00:00 | |
| DF5WG-10 | 2026-09-02 08:28:22 | 52.58701 | 8.34875 | 116° | 84km/h | 12928m | -6.0m/s | -49.4°C | 3.5% | 173.0hPa | 2.6V | 00:00:00 | 01:53:29 | 00:00:00 | |
| GOEST3-10 | 2026-09-02 08:28:20 | 52.58719 | 8.34812 | 115° | 84km/h | 12941m | -6.0m/s | -49.4°C | 3.5% | 172.7hPa | 2.6V | 00:00:00 | 00:00:00 | 00:00:00 | |
| DL1XH-15 | 2026-09-02 08:28:19 | 52.58776 | 8.34625 | 118° | 84km/h | 12977m | -6.1m/s | -49.5°C | 3.5% | 171.7hPa | 2.6V | 08:08:40 | 01:53:21 | 00:00:00 | |
| AA1-15 | 2026-09-02 08:28:18 | 52.58737 | 8.34748 | 116° | 84km/h | 12952m | -6.1m/s | -49.5°C | 0.5% | 172.4hPa | 2.7V | 08:08:58 | 01:53:25 | 00:00:00 | |
| DO2JMG | 2026-09-02 08:28:16 | 52.58756 | 8.34686 | 117° | 84km/h | 12965m | -6.2m/s | -49.5°C | 0.6% | 172.1hPa | 2.6V | 08:08:58 | 01:53:23 | 00:00:00 | |
| DD8BA-10 | 2026-09-02 08:28:16 | 52.58756 | 8.34686 | 118° | 84km/h | 12965m | -6.1m/s | -49.5°C | 3.6% | 172.0hPa | 2.6V | 08:08:00 | 00:00:00 | 00:00:00 | |
| GOEST3-10 | 2026-09-02 08:28:15 | 52.58766 | 8.34655 | 119° | 84km/h | 12971m | -5.8m/s | -49.4°C | 3.6% | 171.8hPa | 2.6V | 00:00:00 | 01:53:22 | 00:00:00 | |
| DL1XH1-15 | 2026-09-02 08:28:14 | 52.58825 | 8.34468 | 115° | 86km/h | 13006m | -6m/s | -49.4°C | 3.5% | 171hPa | 2.6V | 08:08:45 | 01:53:16 | 00:00:00 | |
| DL1NUX | 2026-09-02 08:28:13 | 52.58834 | 8.34436 | 114° | 86km/h | 13013m | -6.1m/s | -49.4°C | 3.5% | 170.8hPa | 2.6V | 08:08:46 | 01:53:15 | 00:00:00 | |
| BIOWL1-15 | 2026-09-02 08:28:12 | 52.58796 | 8.34563 | 117° | 84km/h | 12989m | -6.1m/s | -49.4°C | 0.6% | 171.4hPa | 2.7V | 08:08:58 | 01:53:19 | 00:00:00 | |
| DL1XH-west | 2026-09-02 08:28:11 | 52.58805 | 8.34531 | 117° | 86km/h | 12995m | -6m/s | -49.4°C | 0.5% | 171.3hPa | 2.7V | 08:08:58 | 01:53:18 | 00:00:00 | |
| DB0DAN | 2026-09-02 08:28:10 | 52.58815 | 8.34500 | 116° | 82km/h | 13001m | -5.9m/s | -49.4°C | 1.5% | 171.12hPa | 2.6V | 00:00:00 | 00:00:00 | 00:00:00 | |
| DB0NH | 2026-09-02 08:28:10 | 52.58815 | 8.34499 | 117° | 80km/h | 13001m | -5.8m/s | -49.4°C | 3.5% | 171.1hPa | 2.6V | 00:00:00 | 01:53:17 | 00:00:00 | |
| DL1XH-15 | 2026-09-02 08:28:09 | 52.58869 | 8.34308 | 114° | 82km/h | 13037m | -6.1m/s | -49.2°C | 3.4% | 170.2hPa | 2.6V | 08:08:50 | 01:53:11 | 00:00:00 | |
| AA1-15 | 2026-09-02 08:28:07 | 52.58843 | 8.34404 | 115° | 86km/h | 13019m | -5.9m/s | -49.4°C | 0.6% | 170.7hPa | 2.6V | 08:08:58 | 01:53:14 | 00:00:00 | |
| DO2JMG | 2026-09-02 08:28:05 | 52.58860 | 8.34340 | 115° | 84km/h | 13031m | -6.2m/s | -49.2°C | 0.6% | 170.3hPa | 2.7V | 08:08:58 | 01:53:12 | 00:00:00 | |
| GOEST3-10 | 2026-09-02 08:28:05 | 52.58860 | 8.34340 | 115° | 82km/h | 13031m | -6.2m/s | -49.2°C | 3.4% | 170.3hPa | 2.6V | 00:00:00 | 01:53:12 | 00:00:00 | |
| DL1XH1-15 | 2026-09-02 08:28:04 | 52.58913 | 8.34157 | 116° | 80km/h | 13068m | -6m/s | -49.3°C | 3.4% | 169.4hPa | 2.6V | 08:08:55 | 01:53:06 | 00:00:00 | |
| DJ2DS-15 | 2026-09-02 08:28:04 | 52.58869 | 8.34308 | 115° | 80km/h | 13037m | -6.0m/s | -49.1°C | 3.4% | 170.1hPa | 2.6V | 00:00:00 | 01:53:11 | 00:00:00 | |
| DL1NUX | 2026-09-02 08:28:03 | 52.58922 | 8.34127 | 115° | 78km/h | 13074m | -5.9m/s | -49.3°C | 3.4% | 169.2hPa | 2.6V | 08:08:56 | 01:53:05 | 00:00:00 | |
| DL1XH-west | 2026-09-02 08:28:01 | 52.58895 | 8.34217 | 116° | 80km/h | 13055m | -6.1m/s | -49.2°C | 0.5% | 169.7hPa | 2.6V | 08:08:58 | 01:53:08 | 00:00:00 | |
| HSKMA3-T | 2026-09-02 08:28:00 | 52.58904 | 8.34187 | 116° | 80km/h | 13062m | -6.3m/s | -49.3°C | 0.5% | 169.5hPa | 2.7V | 08:08:58 | 01:53:07 | 00:00:00 | |
| DJ2KF-10 | 2026-09-02 08:28:00 | 52.58904 | 8.34187 | 116° | 80km/h | 13062m | -6.2m/s | -49.2°C | 3.4% | 169.5hPa | 2.7V | 00:00:00 | 01:53:07 | 00:00:00 | |
| DL1XH-15 | 2026-09-02 08:27:59 | 52.58955 | 8.34007 | 113° | 78km/h | 13098m | -6.1m/s | -49.2°C | 3.4% | 168.6hPa | 2.6V | 08:09:00 | 01:53:01 | 00:00:00 | |
| AA1-15 | 2026-09-02 08:27:57 | 52.58930 | 8.34097 | 115° | 80km/h | 13080m | -5.9m/s | -49.3°C | 0.5% | 169.1hPa | 2.6V | 08:08:58 | 01:53:04 | 00:00:00 | |
| DD1CC8 | 2026-09-02 08:27:56 | 52.58947 | 8.34037 | 114° | 78km/h | 13092m | -6.0m/s | -49.2°C | 1.4% | 168.8hPa | 2.6V | 00:00:00 | 00:00:00 | 00:00:00 | |
| DB0ND-19 | 2026-09-02 08:27:55 | 52.58947 | 8.34037 | 114° | 78km/h | 13092m | -6.0m/s | -49.2°C | 1.4% | 168.8hPa | 2.6V | 00:00:00 | 00:00:00 | 00:00:00 | |
| DL1XH1-15 | 2026-09-02 08:27:54 | 52.58993 | 8.33856 | 112° | 78km/h | 13128m | -6.2m/s | -49.3°C | 3.5% | 167.8hPa | 2.6V | 08:09:05 | 01:52:56 | 00:00:00 | |
| DO2JMG | 2026-09-02 08:27:54 | 52.58955 | 8.34007 | 113° | 78km/h | 13098m | -6.1m/s | -49.2°C | 0.5% | 168.6hPa | 2.6V | 08:09:49 | 01:53:01 | 00:00:00 | |
| DL3AQ-11 | 2026-09-02 08:27:54 | 52.58963 | 8.33977 | 112° | 78km/h | 13104m | -6.2m/s | -49.2°C | 1.4% | 168.5hPa | 2.6V | 00:00:00 | 00:00:00 | 00:00:00 | |
| DL1NUX | 2026-09-02 08:27:53 | 52.59001 | 8.33825 | 112° | 78km/h | 13134m | -6.1m/s | -49.4°C | 3.4% | 167.7hPa | 2.6V | 08:09:06 | 01:52:55 | 00:00:00 | |
| DL1XH-west | 2026-09-02 08:27:51 | 52.58978 | 8.33916 | 113° | 78km/h | 13116m | -6m/s | -49.3°C | 0.6% | 168.1hPa | 2.7V | 08:09:49 | 01:52:58 | 00:00:00 | |
| HSKMA3-T | 2026-09-02 08:27:50 | 52.58986 | 8.33886 | 112° | 78km/h | 13122m | -6m/s | -49.3°C | 0.6% | 168hPa | 2.7V | 08:09:49 | 01:52:57 | 00:00:00 | |
| DL1XH-15 | 2026-09-02 08:27:49 | 52.59033 | 8.33705 | 113° | 78km/h | 13159m | -6.1m/s | -49.6°C | 3.5% | 167hPa | 2.7V | 08:09:10 | 01:52:51 | 00:00:00 | |
| AA1-15 | 2026-09-02 08:27:46 | 52.59017 | 8.33765 | 114° | 78km/h | 13147m | -6.2m/s | -49.5°C | 0.6% | 167.4hPa | 2.6V | 08:09:49 | 01:52:53 | 00:00:00 | |
| DM0DOS-11 | 2026-09-02 08:27:45 | 52.59063 | 8.33585 | 110° | 77km/h | 13184m | -6.2m/s | -49.8°C | 3.5% | 166.4hPa | 2.6V | 08:09:14 | 01:52:47 | 00:00:00 | |
| DO2JMG | 2026-09-02 08:27:44 | 52.59033 | 8.33705 | 114° | 78km/h | 13159m | -6.1m/s | -49.6°C | 0.6% | 167hPa | 2.7V | 08:09:49 | 01:52:51 | 00:00:00 | |
| DL1NUX | 2026-09-02 08:27:43 | 52.59077 | 8.33525 | 109° | 77km/h | 13197m | -6.4m/s | -49.9°C | 3.5% | 166.1hPa | 2.7V | 08:09:16 | 01:52:45 | 00:00:00 | |
| HSKMA3-T | 2026-09-02 08:27:40 | 52.59063 | 8.33585 | 111° | 77km/h | 13184m | -6.2m/s | -49.8°C | 0.6% | 166.4hPa | 2.6V | 08:09:49 | 01:52:47 | 00:00:00 | |
| DB0DAN | 2026-09-02 08:27:40 | 52.59063 | 8.33585 | 111° | 73km/h | 13184m | -6.2m/s | -49.8°C | 1.4% | 166.4hPa | 2.6V | 00:00:00 | 00:00:00 | 00:00:00 | |
| DB0NH | 2026-09-02 08:27:40 | 52.59063 | 8.33585 | 111° | 80km/h | 13184m | -6.2m/s | -49.8°C | 3.5% | 166.3hPa | 2.6V | 00:00:00 | 01:52:47 | 00:00:00 | |
| DL1XH-15 | 2026-09-02 08:27:39 | 52.59104 | 8.33402 | 110° | 80km/h | 13222m | -6.3m/s | -50.2°C | 3.6% | 165.4hPa | 2.6V | 08:09:20 | 01:52:41 | 00:00:00 | |
| AA1-15 | 2026-09-02 08:27:35 | 52.59097 | 8.33433 | 110° | 80km/h | 13216m | -6.2m/s | -50.1°C | 0.6% | 165.6hPa | 2.6V | 08:09:49 | 01:52:42 | 00:00:00 | |
| DL1XH1-15 | 2026-09-02 08:27:34 | 52.59143 | 8.33245 | 112° | 82km/h | 13254m | -6.2m/s | -50.4°C | 3.6% | 164.7hPa | 2.7V | 08:09:25 | 01:52:36 | 00:00:00 | |
| DO2JMG | 2026-09-02 08:27:34 | 52.59104 | 8.33402 | 111° | 80km/h | 13222m | -6.3m/s | -50.2°C | 0.6% | 165.4hPa | 2.6V | 08:09:49 | 01:52:41 | 00:00:00 | |
| BIOWL1-15 | 2026-09-02 08:27:30 | 52.59135 | 8.33277 | 113° | 82km/h | 13247m | -6.2m/s | -50.3°C | 0.7% | 164.8hPa | 2.6V | 08:09:49 | 01:52:37 | 00:00:00 | |
| AA1-15 | 2026-09-02 08:27:25 | 52.59175 | 8.33118 | 112° | 84km/h | 13279m | -6.2m/s | -50.2°C | 0.7% | 164hPa | 2.7V | 08:09:49 | 01:52:32 | 00:00:00 | |
| DB0DAN | 2026-09-02 08:27:25 | 52.59175 | 8.33118 | 112° | 80km/h | 13279m | -6.2m/s | -50.2°C | 1.5% | 164.02hPa | 2.7V | 00:00:00 | 00:00:00 | 00:00:00 | |
| DL3AQ-11 | 2026-09-02 08:27:25 | 52.59183 | 8.33086 | 111° | 82km/h | 13285m | -6.2m/s | -50.2°C | 1.5% | 163.8hPa | 2.7V | 00:00:00 | 00:00:00 | 00:00:00 | |
| DL1XH1-15 | 2026-09-02 08:27:24 | 52.59221 | 8.32927 | 112° | 80km/h | 13316m | -6.5m/s | -50.3°C | 3.6% | 163.1hPa | 2.7V | 08:09:35 | 01:52:26 | 00:00:00 | |
| DO2JMG | 2026-09-02 08:27:23 | 52.59190 | 8.33054 | 112° | 84km/h | 13291m | -6.3m/s | -50.2°C | 0.7% | 163.7hPa | 2.6V | 08:09:49 | 01:52:30 | 00:00:00 | |
| DL1XH-west | 2026-09-02 08:27:19 | 52.59221 | 8.32927 | 112° | 80km/h | 13316m | -6.5m/s | -50.3°C | 0.7% | 163.1hPa | 2.7V | 08:09:49 | 01:52:26 | 00:00:00 | |
| DN9WHV | 2026-09-02 08:27:18 | 52.59221 | 8.32927 | 113° | 80km/h | 13316m | -6.5m/s | -50.3°C | 1.5% | 163.1hPa | 2.6V | 08:09:00 | 00:00:00 | 00:00:00 | |
| DO9LL-15 | 2026-09-02 08:27:17 | 52.59237 | 8.32866 | 113° | 77km/h | 13329m | -6.3m/s | -50.3°C | 3.6% | 162.7hPa | 2.6V | 00:00:00 | 01:52:24 | 00:00:00 | |
| DF7PN | 2026-09-02 08:27:16 | 52.59260 | 8.32777 | 113° | 77km/h | 13348m | -6.2m/s | 0°C | -1.0% | -1.0hPa | 2.6V | 00:00:00 | 00:00:00 | 00:00:00 | |
| DM0DOS-11 | 2026-09-02 08:27:15 | 52.59291 | 8.32659 | 113° | 77km/h | 13374m | -6.5m/s | -50.5°C | 3.7% | 161.7hPa | 2.6V | 08:09:44 | 01:52:17 | 00:00:00 | |
| AA1-15 | 2026-09-02 08:27:14 | 52.59260 | 8.32777 | 114° | 77km/h | 13348m | -6.2m/s | -50.4°C | 0.7% | 162.3hPa | 2.7V | 08:09:49 | 01:52:21 | 00:00:00 | |
| DL1ZP-14 | 2026-09-02 08:27:14 | 52.59260 | 8.32777 | 113° | 77km/h | 13348m | -6.2m/s | -50.4°C | 1.5% | 162.3hPa | 2.7V | 00:00:00 | 00:00:00 | 00:00:00 | |
| DN9WHV | 2026-09-02 08:27:13 | 52.59260 | 8.32777 | 115° | 77km/h | 13348m | -6.2m/s | -50.4°C | 1.5% | 162.3hPa | 2.6V | 08:09:00 | 00:00:00 | 00:00:00 | |
| GOEST3-10 | 2026-09-02 08:27:12 | 52.59275 | 8.32718 | 114° | 77km/h | 13361m | -6.2m/s | -50.4°C | 3.6% | 161.9hPa | 2.6V | 00:00:00 | 01:52:19 | 00:00:00 | |
| DO2JMG | 2026-09-02 08:27:12 | 52.59275 | 8.32718 | 113° | 77km/h | 13361m | -6.3m/s | -50.5°C | 0.7% | 162hPa | 2.6V | 08:09:49 | 01:52:19 | 00:00:00 | |
| DB0DAN | 2026-09-02 08:27:10 | 52.59291 | 8.32659 | 113° | 73km/h | 13374m | -6.5m/s | -50.5°C | 1.5% | 161.65hPa | 2.6V | 00:00:00 | 00:00:00 | 00:00:00 | |
| DF5WG-10 | 2026-09-02 08:27:10 | 52.59290 | 8.32659 | 114° | 77km/h | 13374m | -6.4m/s | -50.5°C | 3.7% | 161.6hPa | 2.6V | 00:00:00 | 01:52:17 | 00:00:00 | |
| DL1XH-15 | 2026-09-02 08:27:09 | 52.59336 | 8.32484 | 113° | 75km/h | 13413m | -6.5m/s | -50.5°C | 3.7% | 160.7hPa | 2.6V | 08:09:50 | 01:52:11 | 00:00:00 | |
| DL1XH-west | 2026-09-02 08:27:09 | 52.59298 | 8.32630 | 113° | 77km/h | 13380m | -6.5m/s | -50.5°C | 0.7% | 161.5hPa | 2.6V | 08:09:49 | 01:52:16 | 00:00:00 | |
| HSKMA3-T | 2026-09-02 08:27:08 | 52.59306 | 8.32601 | 113° | 77km/h | 13387m | -6.5m/s | -50.5°C | 0.7% | 161.3hPa | 2.7V | 08:09:49 | 01:52:15 | 00:00:00 | |
| SO1NDE-10 | 2026-09-02 08:27:07 | 52.59314 | 8.32571 | 114° | 75km/h | 13394m | -6.5m/s | -50.4°C | 3.7% | 161.1hPa | 2.6V | 00:00:00 | 01:52:14 | 00:00:00 | |
| DN9WHV | 2026-09-02 08:27:06 | 52.59321 | 8.32542 | 115° | 77km/h | 13400m | -6.5m/s | -50.5°C | 1.5% | 161.0hPa | 2.6V | 08:09:00 | 00:00:00 | 00:00:00 | |
| DM0DOS-11 | 2026-09-02 08:27:05 | 52.59365 | 8.32370 | 112° | 73km/h | 13439m | -6.5m/s | -50.6°C | 3.7% | 160hPa | 2.6V | 08:09:54 | 01:52:07 | 00:00:00 | |
| DL1XH1-15 | 2026-09-02 08:27:04 | 52.59373 | 8.32342 | 111° | 73km/h | 13445m | -6.5m/s | -50.6°C | 3.7% | 159.9hPa | 2.6V | 08:09:55 | 01:52:06 | 00:00:00 | |
| AA1-15 | 2026-09-02 08:27:04 | 52.59337 | 8.32484 | 114° | 75km/h | 13413m | -6.5m/s | -50.5°C | 0.7% | 160.7hPa | 2.6V | 08:10:40 | 01:52:11 | 00:00:00 | |
| DO2JMG | 2026-09-02 08:27:02 | 52.59351 | 8.32427 | 113° | 75km/h | 13426m | -6.3m/s | -50.6°C | 0.7% | 160.4hPa | 2.7V | 08:10:40 | 01:52:09 | 00:00:00 | |
| GOEST3-10 | 2026-09-02 08:27:02 | 52.59351 | 8.32427 | 114° | 73km/h | 13426m | -6.3m/s | -50.5°C | 3.7% | 160.3hPa | 2.6V | 00:00:00 | 01:52:09 | 00:00:00 | |
| DN9WHV | 2026-09-02 08:27:01 | 52.59351 | 8.32427 | 114° | 75km/h | 13426m | -6.3m/s | -50.6°C | 1.5% | 160.4hPa | 2.6V | 08:10:00 | 00:00:00 | 00:00:00 | |
| DL1NUX | 2026-09-02 08:27:00 | 52.59401 | 8.32228 | 112° | 75km/h | 13471m | -6.4m/s | -50.6°C | 3.8% | 159.2hPa | 2.6V | 08:09:59 | 01:52:02 | 00:00:00 | |
| DL1XH-west | 2026-09-02 08:26:59 | 52.59373 | 8.32342 | 112° | 73km/h | 13445m | -6.5m/s | -50.6°C | 0.8% | 159.9hPa | 2.6V | 08:10:40 | 01:52:06 | 00:00:00 | |
| BIOWL1-15 | 2026-09-02 08:26:58 | 52.59380 | 8.32314 | 113° | 75km/h | 13452m | -6.3m/s | -50.7°C | 0.8% | 159.7hPa | 2.7V | 08:10:40 | 01:52:05 | 00:00:00 | |
| HSKMA3-T | 2026-09-02 08:26:57 | 52.59387 | 8.32285 | 112° | 75km/h | 13458m | -6.4m/s | -50.6°C | 0.8% | 159.6hPa | 2.7V | 08:10:40 | 01:52:04 | 00:00:00 | |
| GOEST3-10 | 2026-09-02 08:26:57 | 52.59387 | 8.32285 | 112° | 75km/h | 13458m | -6.3m/s | -50.6°C | 3.8% | 159.5hPa | 2.6V | 00:00:00 | 00:00:00 | 00:00:00 | |
| DD8BA-10 | 2026-09-02 08:26:56 | 52.59394 | 8.32256 | 113° | 75km/h | 13465m | -6.6m/s | -50.6°C | 3.8% | 159.4hPa | 2.6V | 00:00:00 | 00:00:00 | 00:00:00 | |
| DM0DOS-11 | 2026-09-02 08:26:55 | 52.59436 | 8.32083 | 110° | 77km/h | 13503m | -6.5m/s | -50.6°C | 3.7% | 158.5hPa | 2.6V | 08:10:04 | 01:51:57 | 00:00:00 | |
| DB0DAN | 2026-09-02 08:26:55 | 52.59401 | 8.32228 | 112° | 71km/h | 13471m | -6.4m/s | -50.6°C | 1.6% | 159.24hPa | 2.6V | 00:00:00 | 00:00:00 | 00:00:00 | |
| DL1XH1-15 | 2026-09-02 08:26:54 | 52.59443 | 8.32053 | 109° | 75km/h | 13510m | -6.4m/s | -50.6°C | 3.7% | 158.3hPa | 2.6V | 08:10:05 | 01:51:56 | 00:00:00 | |
| AA1-15 | 2026-09-02 08:26:53 | 52.59416 | 8.32170 | 112° | 75km/h | 13484m | -6.5m/s | -50.6°C | 0.7% | 158.9hPa | 2.7V | 08:10:40 | 01:52:00 | 00:00:00 | |
| DO2JMG | 2026-09-02 08:26:51 | 52.59430 | 8.32112 | 111° | 75km/h | 13497m | -6.6m/s | -50.6°C | 0.8% | 158.6hPa | 2.6V | 08:10:40 | 01:51:58 | 00:00:00 | |
| BIOWL1-15 | 2026-09-02 08:26:49 | 52.59456 | 8.31994 | 109° | 75km/h | 13523m | -6.3m/s | -50.7°C | 0.8% | 158hPa | 2.7V | 08:10:40 | 01:51:54 | 00:00:00 | |
| DL1XH-west | 2026-09-02 08:26:49 | 52.59443 | 8.32053 | 110° | 75km/h | 13510m | -6.4m/s | -50.7°C | 0.8% | 158.3hPa | 2.6V | 08:10:40 | 01:51:56 | 00:00:00 | |
| HSKMA3-T | 2026-09-02 08:26:46 | 52.59462 | 8.31964 | 109° | 77km/h | 13529m | -6.6m/s | -50.7°C | 0.8% | 157.8hPa | 2.7V | 08:10:40 | 01:51:53 | 00:00:00 | |
| DL3AQ-11 | 2026-09-02 08:26:45 | 52.59475 | 8.31905 | 110° | 75km/h | 13542m | -6.4m/s | -50.8°C | 1.6% | 157.5hPa | 2.6V | 00:00:00 | 00:00:00 | 00:00:00 | |
| DL1XH1-15 | 2026-09-02 08:26:44 | 52.59510 | 8.31763 | 114° | 71km/h | 13575m | -6.6m/s | -50.7°C | 3.8% | 156.7hPa | 2.6V | 08:10:15 | 01:51:46 | 00:00:00 | |
| AA1-15 | 2026-09-02 08:26:42 | 52.59488 | 8.31847 | 112° | 75km/h | 13555m | -6.5m/s | -50.7°C | 0.8% | 157.2hPa | 2.6V | 08:10:40 | 01:51:49 | 00:00:00 | |
| DO2JMG | 2026-09-02 08:26:40 | 52.59502 | 8.31791 | 113° | 73km/h | 13568m | -6.7m/s | -50.7°C | 0.8% | 156.9hPa | 2.7V | 08:10:40 | 01:51:47 | 00:00:00 | |
| DB0DAN | 2026-09-02 08:26:40 | 52.59502 | 8.31791 | 113° | 69km/h | 13568m | -6.7m/s | -50.7°C | 1.6% | 156.9hPa | 2.7V | 00:00:00 | 00:00:00 | 00:00:00 | |
| DL1XH-west | 2026-09-02 08:26:38 | 52.59517 | 8.31736 | 115° | 71km/h | 13582m | -6.6m/s | -50.7°C | 0.9% | 156.6hPa | 2.6V | 08:10:40 | 01:51:45 | 00:00:00 | |
| BIOWL1-15 | 2026-09-02 08:26:37 | 52.59524 | 8.31710 | 115° | 69km/h | 13588m | -6.6m/s | -50.7°C | 0.8% | 156.4hPa | 2.6V | 08:10:40 | 01:51:44 | 00:00:00 | |
| GOEST3-10 | 2026-09-02 08:26:37 | 52.59524 | 8.31710 | 115° | 69km/h | 13588m | -6.5m/s | -50.6°C | 3.8% | 156.4hPa | 2.6V | 00:00:00 | 00:00:00 | 00:00:00 | |
| SO1NDE-10 | 2026-09-02 08:26:36 | 52.59532 | 8.31684 | 116° | 73km/h | 13595m | -6.5m/s | -50.6°C | 3.8% | 156.2hPa | 2.7V | 00:00:00 | 01:51:43 | 00:00:00 | |
| DM0DOS-11 | 2026-09-02 08:26:35 | 52.59575 | 8.31524 | 111° | 73km/h | 13634m | -6.5m/s | -50.6°C | 3.8% | 155.3hPa | 2.7V | 08:10:24 | 01:51:37 | 00:00:00 | |
| HSKMA3-T | 2026-09-02 08:26:35 | 52.59539 | 8.31658 | 115° | 69km/h | 13601m | -6.5m/s | -50.6°C | 0.8% | 156.1hPa | 2.7V | 08:10:40 | 01:51:42 | 00:00:00 | |
| DL3AQ-11 | 2026-09-02 08:26:34 | 52.59554 | 8.31605 | 113° | 68km/h | 13615m | -6.5m/s | -50.6°C | 1.6% | 155.8hPa | 2.6V | 00:00:00 | 00:00:00 | 00:00:00 | |
| DL1NUX | 2026-09-02 08:26:33 | 52.59589 | 8.31467 | 112° | 75km/h | 13647m | -6.5m/s | -50.6°C | 3.8% | 155hPa | 2.6V | 08:10:26 | 01:51:35 | 00:00:00 | |
| AA1-15 | 2026-09-02 08:26:31 | 52.59568 | 8.31551 | 113° | 71km/h | 13628m | -6.6m/s | -50.7°C | 0.9% | 155.5hPa | 2.7V | 08:10:40 | 01:51:38 | 00:00:00 | |
| BIOWL1-15 | 2026-09-02 08:26:30 | 52.59603 | 8.31409 | 113° | 77km/h | 13660m | -6.6m/s | -50.5°C | 0.9% | 154.7hPa | 2.6V | 08:10:40 | 01:51:33 | 00:00:00 | |
| DO2JMG | 2026-09-02 08:26:29 | 52.59582 | 8.31495 | 112° | 73km/h | 13641m | -6.4m/s | -50.7°C | 0.9% | 155.2hPa | 2.6V | 08:10:40 | 01:51:36 | 00:00:00 | |
| DL1XH-west | 2026-09-02 08:26:28 | 52.59589 | 8.31467 | 112° | 75km/h | 13647m | -6.5m/s | -50.6°C | 0.9% | 155hPa | 2.6V | 08:10:40 | 01:51:35 | 00:00:00 | |
| GOEST3-10 | 2026-09-02 08:26:27 | 52.59596 | 8.31438 | 113° | 75km/h | 13654m | -6.5m/s | -50.6°C | 3.9% | 154.8hPa | 2.7V | 00:00:00 | 00:00:00 | 00:00:00 | |
| DD8BA-10 | 2026-09-02 08:26:26 | 52.59603 | 8.31409 | 113° | 73km/h | 13661m | -6.5m/s | -50.5°C | 3.8% | 154.6hPa | 2.7V | 00:00:00 | 00:00:00 | 00:00:00 | |
| DM0DOS-11 | 2026-09-02 08:26:25 | 52.59652 | 8.31241 | 116° | 73km/h | 13700m | -6.8m/s | -50.5°C | 3.8% | 153.7hPa | 2.7V | 08:10:34 | 01:51:27 | 00:00:00 | |
| DB0DAN | 2026-09-02 08:26:25 | 52.59611 | 8.31380 | 114° | 73km/h | 13667m | -6.4m/s | -50.5°C | 1.6% | 154.54hPa | 2.6V | 00:00:00 | 00:00:00 | 00:00:00 | |
| DL1XH1-15 | 2026-09-02 08:26:24 | 52.59660 | 8.31214 | 116° | 71km/h | 13707m | -6.7m/s | -50.6°C | 3.8% | 153.6hPa | 2.6V | 08:10:35 | 01:51:26 | 00:00:00 | |
| HSKMA3-T | 2026-09-02 08:26:24 | 52.59619 | 8.31352 | 114° | 75km/h | 13673m | -6.5m/s | -50.5°C | 0.9% | 154.4hPa | 2.6V | 08:10:40 | 01:51:31 | 00:00:00 | |
| DJ2DS-15 | 2026-09-02 08:26:24 | 52.59619 | 8.31351 | 115° | 75km/h | 13673m | -6.5m/s | -50.4°C | 3.8% | 154.4hPa | 2.6V | 00:00:00 | 01:51:31 | 00:00:00 | |
| DD1CC8 | 2026-09-02 08:26:23 | 52.59635 | 8.31296 | 116° | 73km/h | 13686m | -6.6m/s | -50.5°C | 1.6% | 154.1hPa | 2.6V | 00:00:00 | 00:00:00 | 00:00:00 | |
| DL1NUX | 2026-09-02 08:26:22 | 52.59675 | 8.31160 | 115° | 71km/h | 13720m | -6.6m/s | -50.6°C | 3.8% | 153.3hPa | 2.6V | 08:10:37 | 01:51:24 | 00:00:00 | |
| AA1-15 | 2026-09-02 08:26:20 | 52.59651 | 8.31241 | 116° | 73km/h | 13700m | -6.8m/s | -50.6°C | 0.9% | 153.7hPa | 2.7V | 08:10:40 | 01:51:27 | 00:00:00 | |
| DL1XH-west | 2026-09-02 08:26:18 | 52.59668 | 8.31187 | 116° | 73km/h | 13714m | -6.8m/s | -50.6°C | 0.9% | 153.4hPa | 2.6V | 08:10:40 | 01:51:25 | 00:00:00 | |
| BIOWL1-15 | 2026-09-02 08:26:16 | 52.59683 | 8.31133 | 115° | 73km/h | 13727m | -6.8m/s | -50.7°C | 0.9% | 153.1hPa | 2.7V | 08:10:40 | 01:51:23 | 00:00:00 | |
| DD8BA-10 | 2026-09-02 08:26:16 | 52.59683 | 8.31133 | 115° | 75km/h | 13727m | -6.8m/s | -50.6°C | 3.8% | 153.1hPa | 2.7V | 00:00:00 | 00:00:00 | 00:00:00 | |
| SMARD9-15 | 2026-09-02 08:26:15 | 52.59691 | 8.31105 | 114° | 71km/h | 13734m | -6.7m/s | -50.7°C | 1.6% | 153.0hPa | 2.7V | 00:00:00 | 00:00:00 | 00:00:00 | |
| DL1XH1-15 | 2026-09-02 08:26:14 | 52.59735 | 8.30933 | 111° | 77km/h | 13774m | -6.9m/s | -50.7°C | 3.8% | 152hPa | 2.7V | 08:10:45 | 01:51:16 | 00:00:00 | |
| HSKMA3-T | 2026-09-02 08:26:13 | 52.59706 | 8.31049 | 113° | 73km/h | 13747m | -6.5m/s | -50.7°C | 0.9% | 152.6hPa | 2.6V | 08:11:31 | 01:51:20 | 00:00:00 | |
| GOEST3-10 | 2026-09-02 08:26:12 | 52.59713 | 8.31021 | 113° | 77km/h | 13754m | -6.7m/s | -50.6°C | 3.8% | 152.4hPa | 2.6V | 00:00:00 | 01:51:19 | 00:00:00 | |
| DL1NUX | 2026-09-02 08:26:11 | 52.59756 | 8.30843 | 111° | 77km/h | 13794m | -6.8m/s | -50.7°C | 3.9% | 151.6hPa | 2.6V | 08:10:48 | 01:51:13 | 00:00:00 | |
| AA1-15 | 2026-09-02 08:26:09 | 52.59735 | 8.30933 | 112° | 77km/h | 13774m | -6.9m/s | -50.7°C | 0.9% | 152hPa | 2.7V | 08:11:31 | 01:51:16 | 00:00:00 | |
| DO2JMG | 2026-09-02 08:26:08 | 52.59742 | 8.30903 | 111° | 78km/h | 13781m | -6.7m/s | -50.7°C | 0.9% | 151.8hPa | 2.7V | 08:11:31 | 01:51:15 | 00:00:00 | |
| BIOWL1-15 | 2026-09-02 08:26:07 | 52.59763 | 8.30814 | 112° | 77km/h | 13801m | -6.8m/s | -50.7°C | 0.9% | 151.4hPa | 2.6V | 08:11:31 | 01:51:12 | 00:00:00 | |
| DL1XH-west | 2026-09-02 08:26:07 | 52.59749 | 8.30873 | 112° | 77km/h | 13787m | -6.7m/s | -50.7°C | 0.9% | 151.7hPa | 2.6V | 08:11:31 | 01:51:14 | 00:00:00 | |
| GOEST3-10 | 2026-09-02 08:26:07 | 52.59749 | 8.30873 | 112° | 77km/h | 13788m | -6.7m/s | -50.6°C | 3.8% | 151.6hPa | 2.6V | 00:00:00 | 00:00:00 | 00:00:00 | |
| SO1NDE-10 | 2026-09-02 08:26:06 | 52.59756 | 8.30843 | 112° | 69km/h | 13794m | -6.7m/s | -50.6°C | 3.9% | 151.5hPa | 2.6V | 00:00:00 | 01:51:13 | 00:00:00 | |
| SMARD9-10 | 2026-09-02 08:26:05 | 52.59756 | 8.30843 | 112° | 77km/h | 13794m | -6.8m/s | -50.7°C | 1.6% | 151.6hPa | 2.6V | 00:00:00 | 00:00:00 | 00:00:00 | |
| DL1XH1-15 | 2026-09-02 08:26:04 | 52.59809 | 8.30640 | 114° | 75km/h | 13841m | -6.8m/s | -50.9°C | 3.9% | 150.4hPa | 2.6V | 08:10:55 | 01:51:06 | 00:00:00 | |
| HSKMA3-T | 2026-09-02 08:26:02 | 52.59786 | 8.30726 | 113° | 75km/h | 13821m | -6.6m/s | -50.8°C | 1% | 150.9hPa | 2.6V | 08:11:31 | 01:51:09 | 00:00:00 | |
| GOEST3-10 | 2026-09-02 08:26:02 | 52.59786 | 8.30725 | 113° | 75km/h | 13821m | -6.6m/s | -50.7°C | 3.9% | 150.9hPa | 2.7V | 00:00:00 | 01:51:09 | 00:00:00 | |
| DL1NUX | 2026-09-02 08:26:01 | 52.59833 | 8.30558 | 116° | 71km/h | 13861m | -6.9m/s | -50.8°C | 3.8% | 150hPa | 2.7V | 08:10:58 | 01:51:03 | 00:00:00 | |
| DL1XH-15 | 2026-09-02 08:25:59 | 52.59850 | 8.30506 | 117° | 69km/h | 13875m | -7m/s | -50.8°C | 3.8% | 149.6hPa | 2.6V | 08:11:00 | 01:51:01 | 00:00:00 | |
| DO2JMG | 2026-09-02 08:25:58 | 52.59817 | 8.30612 | 115° | 73km/h | 13848m | -6.8m/s | -50.9°C | 0.9% | 150.3hPa | 2.6V | 08:11:31 | 01:51:05 | 00:00:00 | |
| BIOWL1-15 | 2026-09-02 08:25:56 | 52.59850 | 8.30506 | 118° | 69km/h | 13875m | -7m/s | -50.8°C | 0.9% | 149.6hPa | 2.6V | 08:11:31 | 01:51:01 | 00:00:00 | |
| DL1XH-west | 2026-09-02 08:25:56 | 52.59833 | 8.30558 | 117° | 71km/h | 13861m | -6.9m/s | -50.8°C | 0.9% | 150hPa | 2.7V | 08:11:31 | 01:51:03 | 00:00:00 | |
| DJ2DS-15 | 2026-09-02 08:25:56 | 52.59841 | 8.30532 | 118° | 69km/h | 13868m | -6.9m/s | -50.8°C | 1.6% | 149.8hPa | 2.6V | 00:00:00 | 00:00:00 | 00:00:00 | |
| DB0DAN | 2026-09-02 08:25:55 | 52.59841 | 8.30532 | 118° | 68km/h | 13868m | -6.9m/s | -50.8°C | 1.6% | 149.8hPa | 2.6V | 00:00:00 | 00:00:00 | 00:00:00 | |
| DL1XH1-15 | 2026-09-02 08:25:55 | 52.59891 | 8.30381 | 118° | 68km/h | 13910m | -7m/s | -50.9°C | 3.9% | 148.9hPa | 2.7V | 08:11:05 | 01:50:56 | 00:00:00 | |
| HSKMA3-T | 2026-09-02 08:25:51 | 52.59875 | 8.30431 | 119° | 68km/h | 13896m | -7m/s | -50.8°C | 0.9% | 149.2hPa | 2.7V | 08:11:31 | 01:50:58 | 00:00:00 | |
| DL1NUX | 2026-09-02 08:25:51 | 52.59916 | 8.30309 | 119° | 66km/h | 13931m | -7.1m/s | -50.6°C | 3.9% | 148.4hPa | 2.6V | 08:11:08 | 01:50:53 | 00:00:00 | |
| BIOWL9-15 | 2026-09-02 08:25:50 | 52.59883 | 8.30406 | 118° | 66km/h | 13903m | -7.0m/s | -50.8°C | 1.6% | 149.1hPa | 2.7V | 00:00:00 | 00:00:00 | 00:00:00 | |
| DL1XH-15 | 2026-09-02 08:25:49 | 52.59932 | 8.30261 | 120° | 66km/h | 13945m | -6.9m/s | -50.5°C | 3.8% | 148.1hPa | 2.7V | 08:11:10 | 01:50:51 | 00:00:00 | |
| AA1-15 | 2026-09-02 08:25:48 | 52.59899 | 8.30357 | 120° | 68km/h | 13917m | -6.9m/s | -50.8°C | 1% | 148.7hPa | 2.6V | 08:11:31 | 01:50:55 | 00:00:00 | |
| DO2JMG | 2026-09-02 08:25:47 | 52.59908 | 8.30333 | 119° | 68km/h | 13924m | -7m/s | -50.7°C | 1% | 148.6hPa | 2.6V | 08:11:31 | 01:50:54 | 00:00:00 | |
| DL1XH-west | 2026-09-02 08:25:46 | 52.59916 | 8.30309 | 120° | 66km/h | 13931m | -7.1m/s | -50.7°C | 0.9% | 148.4hPa | 2.6V | 08:11:31 | 01:50:53 | 00:00:00 | |
| DD8BA-10 | 2026-09-02 08:25:46 | 52.59916 | 8.30309 | 120° | 64km/h | 13931m | -7.1m/s | -50.6°C | 3.9% | 148.3hPa | 2.6V | 00:00:00 | 00:00:00 | 00:00:00 | |
| DM0DOS-11 | 2026-09-02 08:25:45 | 52.59966 | 8.30168 | 120° | 64km/h | 13973m | -6.9m/s | -50.4°C | 3.7% | 147.4hPa | 2.6V | 08:11:14 | 01:50:47 | 00:00:00 | |
| BIOWL1-15 | 2026-09-02 08:25:44 | 52.59932 | 8.30261 | 120° | 66km/h | 13945m | -6.9m/s | -50.5°C | 0.9% | 148.1hPa | 2.7V | 08:11:31 | 01:50:51 | 00:00:00 | |
| DN9WHV | 2026-09-02 08:25:44 | 52.59932 | 8.30261 | 121° | 66km/h | 13945m | -6.9m/s | -50.5°C | 1.6% | 148.1hPa | 2.6V | 08:11:00 | 00:00:00 | 00:00:00 | |
| DO2LYB-13 | 2026-09-02 08:25:43 | 52.59932 | 8.30261 | 121° | 66km/h | 13945m | -6.9m/s | -50.5°C | 1.6% | 148.1hPa | 2.6V | 00:00:00 | 00:00:00 | 00:00:00 | |
| GOEST3-10 | 2026-09-02 08:25:42 | 52.59949 | 8.30214 | 122° | 64km/h | 13959m | -6.9m/s | -50.3°C | 3.8% | 147.7hPa | 2.6V | 00:00:00 | 01:50:49 | 00:00:00 | |
| DL1NUX | 2026-09-02 08:25:41 | 52.59997 | 8.30077 | 117° | 60km/h | 14001m | -6.9m/s | -50.6°C | 3.8% | 146.8hPa | 2.6V | 08:11:18 | 01:50:43 | 00:00:00 | |
| HSKMA3-T | 2026-09-02 08:25:41 | 52.59958 | 8.30191 | 121° | 66km/h | 13966m | -7.1m/s | -50.4°C | 0.8% | 147.6hPa | 2.6V | 08:11:31 | 01:50:48 | 00:00:00 | |
| DB0DAN | 2026-09-02 08:25:40 | 52.59966 | 8.30168 | 120° | 60km/h | 13973m | -6.9m/s | -50.4°C | 1.5% | 147.42hPa | 2.6V | 00:00:00 | 00:00:00 | 00:00:00 | |
| DL1XH-15 | 2026-09-02 08:25:39 | 52.60011 | 8.30032 | 115° | 60km/h | 14015m | -6.9m/s | -50.7°C | 3.8% | 146.5hPa | 2.6V | 08:11:20 | 01:50:41 | 00:00:00 | |
| AA1-15 | 2026-09-02 08:25:37 | 52.59990 | 8.30100 | 118° | 62km/h | 13994m | -7m/s | -50.5°C | 0.8% | 147hPa | 2.6V | 08:11:31 | 01:50:44 | 00:00:00 | |
| DO2JMG | 2026-09-02 08:25:36 | 52.59997 | 8.30077 | 117° | 60km/h | 14001m | -6.9m/s | -50.6°C | 0.9% | 146.8hPa | 2.6V | 08:11:31 | 01:50:43 | 00:00:00 | |
| BIOWL1-15 | 2026-09-02 08:25:36 | 52.60011 | 8.30032 | 116° | 60km/h | 14015m | -6.9m/s | -50.7°C | 0.9% | 146.5hPa | 2.6V | 08:11:31 | 01:50:41 | 00:00:00 | |
| HSKMA3-T | 2026-09-02 08:25:31 | 52.60030 | 8.29966 | 114° | 58km/h | 14036m | -7.1m/s | -50.8°C | 0.9% | 146hPa | 2.6V | 08:11:31 | 01:50:38 | 00:00:00 | |
| D01LWL | 2026-09-02 08:25:30 | 52.60036 | 8.29943 | 115° | 58km/h | 14043m | -7.2m/s | -50.8°C | 1.6% | 145.8hPa | 2.7V | 00:00:00 | 00:00:00 | 00:00:00 | |
| DL1XH-15 | 2026-09-02 08:25:29 | 52.60075 | 8.29807 | 115° | 62km/h | 14085m | -7m/s | -50.7°C | 3.9% | 144.9hPa | 2.7V | 08:11:30 | 01:50:31 | 00:00:00 | |
| AA1-15 | 2026-09-02 08:25:26 | 52.60062 | 8.29853 | 116° | 60km/h | 14071m | -6.9m/s | -50.7°C | 0.9% | 145.2hPa | 2.6V | 08:11:31 | 01:50:33 | 00:00:00 | |
| DB0DAN | 2026-09-02 08:25:25 | 52.60069 | 8.29830 | 115° | 60km/h | 14078m | -7m/s | -50.7°C | 1.5% | 145.09hPa | 2.6V | 00:00:00 | 00:00:00 | 00:00:00 | |
| DL1XH-west | 2026-09-02 08:25:25 | 52.60069 | 8.29830 | 115° | 62km/h | 14078m | -7m/s | -50.7°C | 0.8% | 145.1hPa | 2.6V | 08:11:31 | 01:50:32 | 00:00:00 | |
| BIOWL1-15 | 2026-09-02 08:25:23 | 52.60082 | 8.29783 | 115° | 64km/h | 14092m | -7.1m/s | -50.6°C | 0.8% | 144.8hPa | 2.7V | 08:11:31 | 01:50:30 | 00:00:00 | |
| HSKMA3-T | 2026-09-02 08:25:21 | 52.60096 | 8.29735 | 114° | 64km/h | 14106m | -7.1m/s | -50.5°C | 0.9% | 144.4hPa | 2.6V | 08:12:22 | 01:50:28 | 00:00:00 | |
| DJ2DS-15 | 2026-09-02 08:25:20 | 52.60108 | 8.29686 | 112° | 62km/h | 14120m | -7.0m/s | -50.3°C | 1.5% | 144.1hPa | 2.6V | 00:00:00 | 00:00:00 | 00:00:00 | |
| DL1XH-15 | 2026-09-02 08:25:19 | 52.60136 | 8.29567 | 109° | 60km/h | 14156m | -7.3m/s | -50.2°C | 3.6% | 143.3hPa | 2.6V | 08:11:40 | 01:50:21 | 00:00:00 | |
| DN9WHV | 2026-09-02 08:25:18 | 52.60108 | 8.29686 | 113° | 64km/h | 14120m | -7.0m/s | -50.3°C | 1.5% | 144.1hPa | 2.7V | 08:12:00 | 00:00:00 | 00:00:00 | |
| DO9LL-15 | 2026-09-02 08:25:17 | 52.60120 | 8.29638 | 112° | 62km/h | 14134m | -7.0m/s | -50.1°C | 3.7% | 143.8hPa | 2.7V | 00:00:00 | 01:50:24 | 00:00:00 | |
| BUE01 | 2026-09-02 08:25:16 | 52.60131 | 8.29591 | 109° | 60km/h | 14149m | -7.1m/s | -50.1°C | 1.5% | 143.5hPa | 2.7V | 00:00:00 | 00:00:00 | 00:00:00 | |
| DM0DOS-11 | 2026-09-02 08:25:15 | 52.60156 | 8.29470 | 109° | 62km/h | 14184m | -7.1m/s | -50°C | 3.6% | 142.7hPa | 2.7V | 08:11:44 | 01:50:17 | 00:00:00 | |
| AA1-15 | 2026-09-02 08:25:15 | 52.60131 | 8.29591 | 109° | 62km/h | 14149m | -7.1m/s | -50.1°C | 0.7% | 143.5hPa | 2.6V | 08:12:22 | 01:50:22 | 00:00:00 | |
| DO2JMG | 2026-09-02 08:25:14 | 52.60136 | 8.29567 | 109° | 60km/h | 14156m | -7.3m/s | -50.2°C | 0.6% | 143.3hPa | 2.6V | 08:12:22 | 01:50:21 | 00:00:00 | |
| BIOWL1-15 | 2026-09-02 08:25:13 | 52.60141 | 8.29543 | 109° | 62km/h | 14163m | -7.1m/s | -50.2°C | 0.7% | 143.2hPa | 2.6V | 08:12:22 | 01:50:20 | 00:00:00 | |
| HSKMA3-T | 2026-09-02 08:25:10 | 52.60156 | 8.29470 | 109° | 62km/h | 14184m | -7.1m/s | -50°C | 0.7% | 142.7hPa | 2.7V | 08:12:22 | 01:50:17 | 00:00:00 | |
| DL1XH-15 | 2026-09-02 08:25:09 | 52.60183 | 8.29325 | 103° | 60km/h | 14227m | -7m/s | -49.7°C | 3.5% | 141.8hPa | 2.6V | 08:11:50 | 01:50:11 | 00:00:00 | |
| DL4XJ-10 | 2026-09-02 08:25:09 | 52.60162 | 8.29446 | 109° | 62km/h | 14192m | -7.1m/s | -50.5°C | 0% | 0hPa | 2.6V | 00:00:00 | 00:00:00 | 00:00:00 | |
| DD1CC9-15 | 2026-09-02 08:25:08 | 52.60161 | 8.29446 | 110° | 62km/h | 14192m | -7.2m/s | -50.0°C | 1.5% | 142.6hPa | 2.6V | 00:00:00 | 00:00:00 | 00:00:00 | |
| GOEST3-10 | 2026-09-02 08:25:07 | 52.60171 | 8.29397 | 107° | 60km/h | 14206m | -7.0m/s | -49.8°C | 3.5% | 142.2hPa | 2.6V | 00:00:00 | 00:00:00 | 00:00:00 | |
| DL4BBY-15 | 2026-09-02 08:25:06 | 52.60175 | 8.29373 | 106° | 66km/h | 14213m | -6.9m/s | -50.3°C | 0% | 0hPa | 2.6V | 00:00:00 | 00:00:00 | 00:00:00 | |
| DM0DOS-11 | 2026-09-02 08:25:05 | 52.60196 | 8.29226 | 102° | 62km/h | 14255m | -7.1m/s | -49.8°C | 3.6% | 141.2hPa | 2.6V | 08:11:54 | 01:50:07 | 00:00:00 | |
| DL1XH-west | 2026-09-02 08:25:04 | 52.60182 | 8.29325 | 104° | 60km/h | 14227m | -7m/s | -49.7°C | 0.6% | 141.8hPa | 2.6V | 08:12:22 | 01:50:11 | 00:00:00 | |
| BIOWL1-15 | 2026-09-02 08:25:03 | 52.60186 | 8.29301 | 103° | 60km/h | 14234m | -7.4m/s | -49.7°C | 0.6% | 141.6hPa | 2.6V | 08:12:22 | 01:50:10 | 00:00:00 | |
| GOEST3-10 | 2026-09-02 08:25:02 | 52.60189 | 8.29276 | 103° | 62km/h | 14241m | -7.1m/s | -49.7°C | 3.5% | 141.5hPa | 2.6V | 00:00:00 | 01:50:09 | 00:00:00 | |
| DL1NUX | 2026-09-02 08:25:01 | 52.60210 | 8.29124 | 103° | 64km/h | 14284m | -6.9m/s | -49.9°C | 3.6% | 140.6hPa | 2.6V | 08:11:58 | 01:50:03 | 00:00:00 | |
| HSKMA3-T | 2026-09-02 08:25:00 | 52.60196 | 8.29226 | 103° | 62km/h | 14255m | -7.1m/s | -49.8°C | 0.6% | 141.2hPa | 2.6V | 08:12:22 | 01:50:07 | 00:00:00 | |
| DL1XH-15 | 2026-09-02 08:24:59 | 52.60218 | 8.29072 | 105° | 66km/h | 14298m | -7m/s | -50°C | 3.6% | 140.2hPa | 2.6V | 08:12:00 | 01:50:01 | 00:00:00 | |
| D01LWL | 2026-09-02 08:24:59 | 52.60199 | 8.29201 | 102° | 62km/h | 14263m | -7.3m/s | -49.8°C | 1.4% | 141.0hPa | 2.6V | 00:00:00 | 00:00:00 | 00:00:00 | |
| DL3AQ-11 | 2026-09-02 08:24:58 | 52.60203 | 8.29175 | 103° | 62km/h | 14270m | -7.1m/s | -49.9°C | 1.4% | 140.8hPa | 2.6V | 00:00:00 | 00:00:00 | 00:00:00 | |
| GOEST3-10 | 2026-09-02 08:24:57 | 52.60206 | 8.29150 | 104° | 64km/h | 14277m | -6.8m/s | -49.8°C | 3.6% | 140.7hPa | 2.6V | 00:00:00 | 00:00:00 | 00:00:00 | |
| DD8BA-10 | 2026-09-02 08:24:56 | 52.60210 | 8.29124 | 104° | 66km/h | 14284m | -6.9m/s | -49.9°C | 3.6% | 140.5hPa | 2.6V | 00:00:00 | 00:00:00 | 00:00:00 | |
| DM0DOS-11 | 2026-09-02 08:24:55 | 52.60238 | 8.28967 | 108° | 66km/h | 14326m | -7.1m/s | -49.8°C | 3.5% | 139.6hPa | 2.6V | 08:12:04 | 01:49:57 | 00:00:00 | |
| DB0DAN | 2026-09-02 08:24:55 | 52.60214 | 8.29098 | 104° | 62km/h | 14291m | -7.4m/s | -49.9°C | 1.4% | 140.41hPa | 2.6V | 00:00:00 | 00:00:00 | 00:00:00 | |
| DK5PH-5 | 2026-09-02 08:24:55 | 52.60214 | 8.29098 | 105° | 69km/h | 14291m | -7.3m/s | -49.9°C | 3.6% | 140.4hPa | 2.6V | 00:00:00 | 01:50:02 | 00:00:00 | |
| DL1XH1-15 | 2026-09-02 08:24:54 | 52.60244 | 8.28941 | 108° | 68km/h | 14334m | -7.2m/s | -49.8°C | 3.5% | 139.5hPa | 2.6V | 08:12:05 | 01:49:56 | 00:00:00 | |
| DL1XH-west | 2026-09-02 08:24:53 | 52.60223 | 8.29046 | 106° | 66km/h | 14305m | -7.1m/s | -50°C | 0.6% | 140.1hPa | 2.7V | 08:12:22 | 01:50:00 | 00:00:00 | |
| BIOWL1-15 | 2026-09-02 08:24:52 | 52.60228 | 8.29020 | 108° | 66km/h | 14312m | -7m/s | -50°C | 0.6% | 139.9hPa | 2.7V | 08:12:22 | 01:49:59 | 00:00:00 | |
| DN9WHV | 2026-09-02 08:24:52 | 52.60228 | 8.29019 | 108° | 66km/h | 14312m | -7.0m/s | -50.0°C | 1.4% | 140.0hPa | 2.7V | 08:12:00 | 00:00:00 | 00:00:00 | |
| DL1NUX | 2026-09-02 08:24:51 | 52.60262 | 8.28859 | 109° | 71km/h | 14355m | -7.3m/s | -49.8°C | 3.5% | 139hPa | 2.7V | 08:12:08 | 01:49:53 | 00:00:00 | |
| HSKMA3-T | 2026-09-02 08:24:50 | 52.60238 | 8.28967 | 108° | 68km/h | 14326m | -7.1m/s | -49.8°C | 0.5% | 139.6hPa | 2.6V | 08:12:22 | 01:49:57 | 00:00:00 | |
| DB0ND-19 | 2026-09-02 08:24:49 | 52.60244 | 8.28941 | 108° | 68km/h | 14334m | -7.2m/s | -49.8°C | 1.4% | 139.5hPa | 2.7V | 00:00:00 | 00:00:00 | 00:00:00 | |
| BIOWL9-15 | 2026-09-02 08:24:48 | 52.60249 | 8.28914 | 110° | 68km/h | 14341m | -6.9m/s | -49.8°C | 1.3% | 139.4hPa | 2.7V | 00:00:00 | 00:00:00 | 00:00:00 | |
| EDDB2-11 | 2026-09-02 08:24:47 | 52.60261 | 8.28859 | 109° | 69km/h | 14355m | -7.3m/s | -49.8°C | 1.4% | 139.0hPa | 2.7V | 00:00:00 | 00:00:00 | 00:00:00 | |
| DD8BA-10 | 2026-09-02 08:24:46 | 52.60261 | 8.28859 | 110° | 73km/h | 14355m | -7.3m/s | -49.8°C | 3.5% | 139.0hPa | 2.7V | 00:00:00 | 00:00:00 | 00:00:00 | |
| DM0DOS-11 | 2026-09-02 08:24:45 | 52.60300 | 8.28690 | 110° | 71km/h | 14398m | -7.1m/s | -49.6°C | 3.5% | 138.1hPa | 2.7V | 08:12:14 | 01:49:47 | 00:00:00 | |
| DL3AQ-11 | 2026-09-02 08:24:45 | 52.60274 | 8.28803 | 111° | 71km/h | 14369m | -6.9m/s | -49.8°C | 1.4% | 138.8hPa | 2.7V | 00:00:00 | 00:00:00 | 00:00:00 | |
| DL1XH1-15 | 2026-09-02 08:24:44 | 52.60307 | 8.28661 | 109° | 73km/h | 14405m | -6.9m/s | -49.6°C | 3.6% | 138hPa | 2.7V | 08:12:15 | 01:49:46 | 00:00:00 | |
| DL1XH-west | 2026-09-02 08:24:43 | 52.60281 | 8.28775 | 111° | 73km/h | 14376m | -7.4m/s | -49.8°C | 0.6% | 138.6hPa | 2.6V | 08:12:22 | 01:49:50 | 00:00:00 | |
| BIOWL1-15 | 2026-09-02 08:24:42 | 52.60287 | 8.28746 | 111° | 73km/h | 14383m | -7.1m/s | -49.8°C | 0.6% | 138.4hPa | 2.6V | 08:12:22 | 01:49:49 | 00:00:00 | |
| GOEST3-10 | 2026-09-02 08:24:42 | 52.60287 | 8.28746 | 112° | 73km/h | 14384m | -7.1m/s | -49.7°C | 3.6% | 138.4hPa | 2.7V | 00:00:00 | 01:49:49 | 00:00:00 | |
| DL8OAI-8 | 2026-09-02 08:24:41 | 52.60287 | 8.28746 | 112° | 73km/h | 14384m | -7.1m/s | -49.8°C | 1.4% | 138.4hPa | 2.7V | 08:12:00 | 00:00:00 | 00:00:00 | |
| DB0DAN | 2026-09-02 08:24:40 | 52.60301 | 8.28690 | 110° | 68km/h | 14398m | -7.1m/s | -49.7°C | 1.4% | 138.14hPa | 2.7V | 00:00:00 | 00:00:00 | 00:00:00 | |
| DL1XH-15 | 2026-09-02 08:24:39 | 52.60337 | 8.28523 | 110° | 69km/h | 14439m | -6.9m/s | -49.8°C | 3.6% | 137.3hPa | 2.7V | 08:12:20 | 01:49:41 | 00:00:00 | |
| HSKMA3-T | 2026-09-02 08:24:39 | 52.60307 | 8.28661 | 110° | 73km/h | 14405m | -6.9m/s | -49.7°C | 0.6% | 138hPa | 2.7V | 08:12:22 | 01:49:46 | 00:00:00 | |
| GOEST3-10 | 2026-09-02 08:24:37 | 52.60319 | 8.28606 | 110° | 69km/h | 14419m | -7.0m/s | -49.7°C | 3.6% | 137.6hPa | 2.6V | 00:00:00 | 00:00:00 | 00:00:00 | |
| SO1NDE-10 | 2026-09-02 08:24:36 | 52.60325 | 8.28578 | 110° | 60km/h | 14426m | -6.9m/s | -49.7°C | 3.5% | 137.5hPa | 2.6V | 00:00:00 | 01:49:43 | 00:00:00 | |
| DM0DOS-11 | 2026-09-02 08:24:35 | 52.60362 | 8.28419 | 112° | 64km/h | 14467m | -6.9m/s | -49.8°C | 3.5% | 136.7hPa | 2.7V | 08:12:24 | 01:49:37 | 00:00:00 | |
| DL1XH1-15 | 2026-09-02 08:24:34 | 52.60368 | 8.28395 | 112° | 64km/h | 14474m | -7m/s | -49.8°C | 3.5% | 136.5hPa | 2.6V | 08:12:25 | 01:49:36 | 00:00:00 | |
| DL1XH-west | 2026-09-02 08:24:32 | 52.60350 | 8.28470 | 112° | 68km/h | 14454m | -7m/s | -49.7°C | 0.6% | 136.9hPa | 2.6V | 08:12:22 | 01:49:39 | 00:00:00 | |
| AA1-15 | 2026-09-02 08:24:31 | 52.60356 | 8.28444 | 112° | 66km/h | 14460m | -6.6m/s | -49.7°C | 0.6% | 136.8hPa | 2.7V | 08:13:13 | 01:49:38 | 00:00:00 | |
| EDDB2-12 | 2026-09-02 08:24:30 | 52.60362 | 8.28420 | 112° | 64km/h | 14467m | -6.9m/s | -49.8°C | 1.3% | 136.7hPa | 2.6V | 00:00:00 | 00:00:00 | 00:00:00 | |
| DL1XH-15 | 2026-09-02 08:24:29 | 52.60398 | 8.28275 | 111° | 62km/h | 14510m | -7.1m/s | -49.5°C | 3.4% | 135.8hPa | 2.6V | 08:12:30 | 01:49:31 | 00:00:00 | |
| DL4XJ-10 | 2026-09-02 08:24:29 | 52.60369 | 8.28395 | 113° | 58km/h | 14475m | -6.9m/s | -50.3°C | 0% | 0hPa | 2.7V | 00:00:00 | 00:00:00 | 00:00:00 | |
| D01LWL | 2026-09-02 08:24:28 | 52.60381 | 8.28347 | 112° | 62km/h | 14488m | -7.0m/s | -49.8°C | 1.3% | 136.2hPa | 2.7V | 00:00:00 | 00:00:00 | 00:00:00 | |
| HSKMA3-T | 2026-09-02 08:24:28 | 52.60374 | 8.28371 | 113° | 64km/h | 14481m | -7m/s | -49.8°C | 0.5% | 136.3hPa | 2.6V | 08:13:13 | 01:49:35 | 00:00:00 | |
| GOEST3-10 | 2026-09-02 08:24:27 | 52.60380 | 8.28347 | 113° | 62km/h | 14488m | -7.0m/s | -49.7°C | 3.5% | 136.2hPa | 2.7V | 00:00:00 | 00:00:00 | 00:00:00 | |
| DD8BA-10 | 2026-09-02 08:24:26 | 52.60386 | 8.28323 | 113° | 60km/h | 14495m | -7.2m/s | -49.6°C | 3.5% | 136.0hPa | 2.7V | 00:00:00 | 00:00:00 | 00:00:00 | |
| DM0DOS-11 | 2026-09-02 08:24:25 | 52.60421 | 8.28181 | 111° | 60km/h | 14538m | -7.1m/s | -49.5°C | 3.5% | 135.2hPa | 2.7V | 08:12:34 | 01:49:27 | 00:00:00 | |
| DB0DAN | 2026-09-02 08:24:25 | 52.60393 | 8.28299 | 112° | 58km/h | 14502m | -7.1m/s | -49.6°C | 1.3% | 135.92hPa | 2.6V | 00:00:00 | 00:00:00 | 00:00:00 | |
| DL1XH1-15 | 2026-09-02 08:24:24 | 52.60426 | 8.28158 | 111° | 58km/h | 14545m | -7.1m/s | -49.5°C | 3.5% | 135hPa | 2.6V | 08:12:35 | 01:49:26 | 00:00:00 | |
| DL1XH-west | 2026-09-02 08:24:22 | 52.60410 | 8.28227 | 112° | 62km/h | 14524m | -7.1m/s | -49.5°C | 0.5% | 135.5hPa | 2.7V | 08:13:13 | 01:49:29 | 00:00:00 | |
| DO2JMG | 2026-09-02 08:24:21 | 52.60415 | 8.28204 | 111° | 60km/h | 14531m | -7.1m/s | -49.5°C | 0.5% | 135.4hPa | 2.7V | 08:13:13 | 01:49:28 | 00:00:00 | |
| AA1-15 | 2026-09-02 08:24:20 | 52.60421 | 8.28181 | 111° | 60km/h | 14538m | -7.1m/s | -49.5°C | 0.5% | 135.2hPa | 2.7V | 08:13:13 | 01:49:27 | 00:00:00 | |
| HSKMA3-T | 2026-09-02 08:24:17 | 52.60437 | 8.28113 | 113° | 58km/h | 14559m | -7.1m/s | -49.6°C | 0.5% | 134.8hPa | 2.6V | 08:13:13 | 01:49:24 | 00:00:00 | |
| DF8AY | 2026-09-02 08:24:15 | 52.60449 | 8.28069 | 114° | 57km/h | 14573m | -7.2m/s | -49.7°C | 0.6% | 134.5hPa | 2.7V | 08:13:13 | 01:49:22 | 00:00:00 | |
| DM0DOS-11 | 2026-09-02 08:24:15 | 52.60479 | 8.27965 | 117° | 53km/h | 14609m | -7.2m/s | -49.6°C | 3.4% | 133.7hPa | 2.7V | 08:12:44 | 01:49:17 | 00:00:00 | |
| HTAHTA | 2026-09-02 08:24:15 | 52.60449 | 8.28069 | 113° | 57km/h | 14574m | -7.2m/s | -49.7°C | 1.4% | 134.5hPa | 2.7V | 00:00:00 | 00:00:00 | 00:00:00 | |
| DL1XH1-15 | 2026-09-02 08:24:14 | 52.60484 | 8.27946 | 116° | 51km/h | 14616m | -7.2m/s | -49.6°C | 3.4% | 133.6hPa | 2.7V | 08:12:45 | 01:49:16 | 00:00:00 | |
| BIOWL1-15 | 2026-09-02 08:24:14 | 52.60478 | 8.27965 | 117° | 53km/h | 14609m | -7.2m/s | -49.6°C | 0.5% | 133.7hPa | 2.7V | 08:13:13 | 01:49:17 | 00:00:00 | |
| DL1XH-west | 2026-09-02 08:24:12 | 52.60467 | 8.28005 | 116° | 55km/h | 14595m | -7.3m/s | -49.7°C | 0.5% | 134hPa | 2.6V | 08:13:13 | 01:49:19 | 00:00:00 | |
| DL1NUX | 2026-09-02 08:24:12 | 52.60501 | 8.27892 | 115° | 47km/h | 14638m | -7.2m/s | -49.7°C | 3.4% | 133.1hPa | 2.6V | 08:12:48 | 01:49:13 | 00:00:00 | |
| DN9WHV | 2026-09-02 08:24:11 | 52.60466 | 8.28005 | 117° | 55km/h | 14595m | -7.3m/s | -49.7°C | 1.3% | 134.0hPa | 2.7V | 08:13:00 | 00:00:00 | 00:00:00 | |
| DO2JMG | 2026-09-02 08:24:11 | 52.60472 | 8.27985 | 116° | 53km/h | 14602m | -7.2m/s | -49.6°C | 0.5% | 133.9hPa | 2.6V | 08:13:13 | 01:49:18 | 00:00:00 | |
| DB0DAN | 2026-09-02 08:24:10 | 52.60478 | 8.27965 | 117° | 49km/h | 14609m | -7.2m/s | -49.6°C | 1.3% | 133.74hPa | 2.7V | 00:00:00 | 00:00:00 | 00:00:00 | |
| DL1XH-15 | 2026-09-02 08:24:09 | 52.60510 | 8.27857 | 114° | 46km/h | 14653m | -7m/s | -49.7°C | 3.5% | 132.8hPa | 2.7V | 08:12:50 | 01:49:11 | 00:00:00 | |
| AA1-15 | 2026-09-02 08:24:09 | 52.60484 | 8.27946 | 117° | 51km/h | 14617m | -7.2m/s | -49.7°C | 0.5% | 133.6hPa | 2.7V | 08:13:13 | 01:49:16 | 00:00:00 | |
| HSKMA3-T | 2026-09-02 08:24:06 | 52.60501 | 8.27892 | 115° | 47km/h | 14638m | -7.2m/s | -49.7°C | 0.5% | 133.1hPa | 2.6V | 08:13:13 | 01:49:13 | 00:00:00 | |
| SO1NDE-10 | 2026-09-02 08:24:06 | 52.60501 | 8.27892 | 116° | 42km/h | 14639m | -7.2m/s | -49.6°C | 3.4% | 133.1hPa | 2.7V | 00:00:00 | 01:49:13 | 00:00:00 | |
| DL3AQ-11 | 2026-09-02 08:24:05 | 52.60510 | 8.27857 | 114° | 44km/h | 14653m | -7.0m/s | -49.7°C | 1.3% | 132.8hPa | 2.7V | 00:00:00 | 00:00:00 | 00:00:00 | |
| DL1XH1-15 | 2026-09-02 08:24:04 | 52.60530 | 8.27775 | 111° | 40km/h | 14688m | -7.2m/s | -49.5°C | 3.4% | 132.1hPa | 2.7V | 08:12:55 | 01:49:06 | 00:00:00 | |
| BIOWL1-15 | 2026-09-02 08:24:01 | 52.60530 | 8.27775 | 111° | 40km/h | 14688m | -7.2m/s | -49.5°C | 0.5% | 132.1hPa | 2.7V | 08:13:13 | 01:49:06 | 00:00:00 | |
| DL1NUX | 2026-09-02 08:24:01 | 52.60543 | 8.27728 | 114° | 42km/h | 14710m | -7.2m/s | -49.7°C | 3.4% | 131.7hPa | 2.7V | 08:12:58 | 01:49:03 | 00:00:00 | |
| DL1XH-west | 2026-09-02 08:24:01 | 52.60523 | 8.27807 | 111° | 42km/h | 14674m | -7.2m/s | -49.6°C | 0.5% | 132.4hPa | 2.6V | 08:13:13 | 01:49:08 | 00:00:00 | |
| DO2JMG | 2026-09-02 08:24:00 | 52.60527 | 8.27791 | 111° | 42km/h | 14681m | -7.1m/s | -49.6°C | 0.5% | 132.3hPa | 2.7V | 08:13:13 | 01:49:07 | 00:00:00 | |
| DL1XH-15 | 2026-09-02 08:23:59 | 52.60552 | 8.27695 | 114° | 44km/h | 14724m | -7.1m/s | -49.7°C | 3.4% | 131.4hPa | 2.6V | 08:13:00 | 01:49:01 | 00:00:00 | |
| AA1-15 | 2026-09-02 08:23:58 | 52.60534 | 8.27759 | 112° | 42km/h | 14695m | -7.3m/s | -49.6°C | 0.5% | 132hPa | 2.6V | 08:13:13 | 01:49:05 | 00:00:00 | |
| D01LWL | 2026-09-02 08:23:57 | 52.60543 | 8.27728 | 114° | 42km/h | 14710m | -7.2m/s | -49.7°C | 1.3% | 131.7hPa | 2.7V | 00:00:00 | 00:00:00 | 00:00:00 | |
| DD8BA-10 | 2026-09-02 08:23:56 | 52.60542 | 8.27728 | 115° | 44km/h | 14710m | -7.1m/s | -49.6°C | 3.4% | 131.6hPa | 2.7V | 00:00:00 | 00:00:00 | 00:00:00 | |
| DM0DOS-11 | 2026-09-02 08:23:55 | 52.60570 | 8.27628 | 110° | 44km/h | 14753m | -7.3m/s | -49.8°C | 3.5% | 130.8hPa | 2.7V | 08:13:04 | 01:48:57 | 00:00:00 | |
| HSKMA3-T | 2026-09-02 08:23:55 | 52.60547 | 8.27712 | 116° | 44km/h | 14717m | -7.1m/s | -49.7°C | 0.5% | 131.5hPa | 2.7V | 08:13:13 | 01:49:02 | 00:00:00 | |
| DB0DAN | 2026-09-02 08:23:55 | 52.60547 | 8.27712 | 116° | 42km/h | 14717m | -7.1m/s | -49.7°C | 1.3% | 131.53hPa | 2.7V | 00:00:00 | 00:00:00 | 00:00:00 | |
| DL1XH-west | 2026-09-02 08:23:51 | 52.60566 | 8.27645 | 113° | 44km/h | 14746m | -7.2m/s | -49.8°C | 0.5% | 131hPa | 2.7V | 08:13:13 | 01:48:58 | 00:00:00 | |
| DO2JMG | 2026-09-02 08:23:49 | 52.60573 | 8.27611 | 109° | 44km/h | 14760m | -7.2m/s | -49.8°C | 0.5% | 130.7hPa | 2.7V | 08:13:13 | 01:48:56 | 00:00:00 | |
| AA1-15 | 2026-09-02 08:23:47 | 52.60580 | 8.27577 | 106° | 42km/h | 14775m | -7.2m/s | -49.7°C | 0.5% | 130.4hPa | 2.6V | 08:13:13 | 01:48:54 | 00:00:00 | |
| BIOWL9-15 | 2026-09-02 08:23:46 | 52.60585 | 8.27545 | 104° | 40km/h | 14789m | -7.0m/s | -49.8°C | 1.3% | 130.1hPa | 2.6V | 00:00:00 | 00:00:00 | 00:00:00 | |
| DM0DOS-11 | 2026-09-02 08:23:45 | 52.60598 | 8.27466 | 105° | 40km/h | 14825m | -7.2m/s | -49.7°C | 3.4% | 129.4hPa | 2.6V | 08:13:14 | 01:48:47 | 00:00:00 | |
| DL1XH1-15 | 2026-09-02 08:23:44 | 52.60600 | 8.27450 | 107° | 40km/h | 14832m | -7.1m/s | -49.7°C | 3.4% | 129.3hPa | 2.7V | 08:13:15 | 01:48:46 | 00:00:00 | |
| HSKMA3-T | 2026-09-02 08:23:44 | 52.60588 | 8.27529 | 103° | 40km/h | 14796m | -7.2m/s | -49.8°C | 0.4% | 130hPa | 2.7V | 08:13:13 | 01:48:51 | 00:00:00 | |
| DJ2DS-15 | 2026-09-02 08:23:44 | 52.60588 | 8.27529 | 104° | 40km/h | 14796m | -7.2m/s | -49.8°C | 3.4% | 129.9hPa | 2.6V | 00:00:00 | 01:48:51 | 00:00:00 | |
| BUE01 | 2026-09-02 08:23:43 | 52.60592 | 8.27497 | 104° | 38km/h | 14810m | -7.1m/s | -49.8°C | 1.3% | 129.7hPa | 2.6V | 00:00:00 | 00:00:00 | 00:00:00 | |
| GOEST3-10 | 2026-09-02 08:23:42 | 52.60592 | 8.27497 | 105° | 40km/h | 14811m | -7.0m/s | -49.8°C | 3.5% | 129.6hPa | 2.6V | 00:00:00 | 01:48:49 | 00:00:00 | |
| DL1NUX | 2026-09-02 08:23:41 | 52.60610 | 8.27400 | 106° | 42km/h | 14853m | -7m/s | -49.9°C | 3.5% | 128.9hPa | 2.6V | 08:13:18 | 01:48:43 | 00:00:00 | |
| DL1XH-west | 2026-09-02 08:23:41 | 52.60595 | 8.27481 | 106° | 40km/h | 14817m | -7m/s | -49.7°C | 0.5% | 129.6hPa | 2.6V | 08:13:13 | 01:48:48 | 00:00:00 | |
| DO2JMG | 2026-09-02 08:23:39 | 52.60600 | 8.27450 | 107° | 40km/h | 14832m | -7.1m/s | -49.7°C | 0.5% | 129.3hPa | 2.7V | 08:14:04 | 01:48:46 | 00:00:00 | |
| AA1-15 | 2026-09-02 08:23:37 | 52.60607 | 8.27417 | 108° | 42km/h | 14846m | -7.2m/s | -49.8°C | 0.5% | 129hPa | 2.7V | 08:14:04 | 01:48:44 | 00:00:00 | |
| GOEST3-10 | 2026-09-02 08:23:37 | 52.60607 | 8.27417 | 108° | 42km/h | 14846m | -7.1m/s | -49.8°C | 3.5% | 128.9hPa | 2.7V | 00:00:00 | 00:00:00 | 00:00:00 | |
| DD8BA-10 | 2026-09-02 08:23:36 | 52.60610 | 8.27400 | 107° | 40km/h | 14853m | -6.9m/s | -49.8°C | 3.5% | 128.8hPa | 2.6V | 00:00:00 | 00:00:00 | 00:00:00 | |
| DM0DOS-11 | 2026-09-02 08:23:35 | 52.60622 | 8.27300 | 95° | 38km/h | 14895m | -7m/s | -50.3°C | 3.5% | 128hPa | 2.6V | 08:13:24 | 01:48:37 | 00:00:00 | |
| DL1XH1-15 | 2026-09-02 08:23:34 | 52.60622 | 8.27284 | 96° | 38km/h | 14902m | -7m/s | -50.3°C | 3.5% | 127.9hPa | 2.7V | 08:13:25 | 01:48:36 | 00:00:00 | |
| HSKMA3-T | 2026-09-02 08:23:33 | 52.60617 | 8.27350 | 101° | 42km/h | 14874m | -7m/s | -50.1°C | 0.5% | 128.4hPa | 2.7V | 08:14:04 | 01:48:40 | 00:00:00 | |
| DJ2DS-15 | 2026-09-02 08:23:32 | 52.60620 | 8.27316 | 97° | 38km/h | 14888m | -6.9m/s | -50.2°C | 1.3% | 128.2hPa | 2.6V | 00:00:00 | 00:00:00 | 00:00:00 | |
| DL1NUX | 2026-09-02 08:23:31 | 52.60626 | 8.27238 | 97° | 38km/h | 14923m | -7m/s | -50.5°C | 3.5% | 127.5hPa | 2.6V | 08:13:28 | 01:48:33 | 00:00:00 | |
| DL1XH-west | 2026-09-02 08:23:30 | 52.60621 | 8.27300 | 95° | 38km/h | 14895m | -7m/s | -50.3°C | 0.5% | 128hPa | 2.6V | 08:14:04 | 01:48:37 | 00:00:00 | |
| BIOWL1-15 | 2026-09-02 08:23:28 | 52.60623 | 8.27269 | 96° | 37km/h | 14909m | -6.9m/s | -50.4°C | 0.6% | 127.7hPa | 2.7V | 08:14:04 | 01:48:35 | 00:00:00 | |
| DF8AY | 2026-09-02 08:23:27 | 52.60625 | 8.27253 | 97° | 38km/h | 14916m | -7m/s | -50.4°C | 0.5% | 127.6hPa | 2.6V | 08:15:46 | 01:48:34 | 00:00:00 | |
| AA1-15 | 2026-09-02 08:23:26 | 52.60626 | 8.27238 | 98° | 38km/h | 14923m | -7.1m/s | -50.5°C | 0.6% | 127.5hPa | 2.6V | 08:14:04 | 01:48:33 | 00:00:00 | |
| DB0DAN | 2026-09-02 08:23:25 | 52.60627 | 8.27222 | 98° | 37km/h | 14930m | -7m/s | -50.5°C | 1.4% | 127.35hPa | 2.7V | 00:00:00 | 00:00:00 | 00:00:00 | |
| DL1XH1-15 | 2026-09-02 08:23:24 | 52.60633 | 8.27121 | 92° | 44km/h | 14972m | -7m/s | -50.6°C | 3.6% | 126.5hPa | 2.7V | 08:13:35 | 01:48:26 | 00:00:00 | |
| HSKMA3-T | 2026-09-02 08:23:22 | 52.60631 | 8.27173 | 97° | 40km/h | 14951m | -7.1m/s | -50.6°C | 0.6% | 126.9hPa | 2.6V | 08:14:04 | 01:48:29 | 00:00:00 | |
| DJ2KF-10 | 2026-09-02 08:23:22 | 52.60631 | 8.27173 | 97° | 47km/h | 14951m | -7.0m/s | -50.6°C | 3.6% | 126.9hPa | 2.6V | 00:00:00 | 01:48:29 | 00:00:00 | |
| DL1NUX | 2026-09-02 08:23:21 | 52.60634 | 8.27066 | 90° | 44km/h | 14993m | -6.8m/s | -50.4°C | 3.6% | 126.1hPa | 2.6V | 08:13:38 | 01:48:23 | 00:00:00 | |
| SONCRA | 2026-09-02 08:23:20 | 52.60633 | 8.27121 | 92° | 44km/h | 14972m | -7.0m/s | -50.6°C | 1.4% | 126.5hPa | 2.7V | 00:00:00 | 00:00:00 | 00:00:00 | |
| DL1XH-15 | 2026-09-02 08:23:19 | 52.60634 | 8.27029 | 90° | 44km/h | 15007m | -7m/s | -50.5°C | 3.5% | 125.8hPa | 2.7V | 08:13:40 | 01:48:21 | 00:00:00 | |
| DL1XH-west | 2026-09-02 08:23:19 | 52.60633 | 8.27121 | 93° | 44km/h | 14972m | -7m/s | -50.6°C | 0.6% | 126.5hPa | 2.7V | 08:14:04 | 01:48:26 | 00:00:00 | |
| DO2JMG | 2026-09-02 08:23:18 | 52.60634 | 8.27103 | 92° | 44km/h | 14979m | -6.9m/s | -50.5°C | 0.6% | 126.4hPa | 2.7V | 08:14:04 | 01:48:25 | 00:00:00 | |
| DF8AY | 2026-09-02 08:23:17 | 52.60634 | 8.27084 | 91° | 44km/h | 14986m | -7.1m/s | -50.5°C | 0.6% | 126.2hPa | 2.6V | 08:15:46 | 01:48:24 | 00:00:00 | |
| DO9LL-15 | 2026-09-02 08:23:17 | 52.60634 | 8.27084 | 91° | 47km/h | 14986m | -7.0m/s | -50.4°C | 3.5% | 126.1hPa | 2.6V | 00:00:00 | 01:48:24 | 00:00:00 | |
| DD8BA-10 | 2026-09-02 08:23:16 | 52.60634 | 8.27066 | 91° | 46km/h | 14993m | -6.8m/s | -50.4°C | 3.6% | 126.1hPa | 2.6V | 00:00:00 | 00:00:00 | 00:00:00 | |
| DM0DOS-11 | 2026-09-02 08:23:15 | 52.60634 | 8.26955 | 91° | 46km/h | 15035m | -7m/s | -50.7°C | 3.6% | 125.3hPa | 2.6V | 08:13:44 | 01:48:17 | 00:00:00 | |
| AA1-15 | 2026-09-02 08:23:15 | 52.60634 | 8.27047 | 90° | 44km/h | 15000m | -7m/s | -50.5°C | 0.6% | 126hPa | 2.6V | 08:14:04 | 01:48:22 | 00:00:00 | |
| HSKMA3-T | 2026-09-02 08:23:12 | 52.60634 | 8.26992 | 90° | 44km/h | 15021m | -6.8m/s | -50.6°C | 0.6% | 125.6hPa | 2.7V | 08:14:04 | 01:48:19 | 00:00:00 | |
| BUE01 | 2026-09-02 08:23:12 | 52.60634 | 8.26974 | 90° | 44km/h | 15028m | -7.2m/s | -50.7°C | 1.4% | 125.4hPa | 2.7V | 00:00:00 | 00:00:00 | 00:00:00 | |
| DL1NUX | 2026-09-02 08:23:11 | 52.60636 | 8.26877 | 92° | 49km/h | 15063m | -7m/s | -50.8°C | 3.6% | 124.7hPa | 2.7V | 08:13:48 | 01:48:13 | 00:00:00 | |
| DB0DAN | 2026-09-02 08:23:10 | 52.60634 | 8.26955 | 92° | 44km/h | 15035m | -7m/s | -50.7°C | 1.3% | 125.33hPa | 2.6V | 00:00:00 | 00:00:00 | 00:00:00 | |
| DL1XH-15 | 2026-09-02 08:23:09 | 52.60637 | 8.26836 | 90° | 51km/h | 15077m | -7.2m/s | -50.9°C | 3.6% | 124.5hPa | 2.6V | 08:13:50 | 01:48:11 | 00:00:00 | |
| BIOWL1-15 | 2026-09-02 08:23:09 | 52.60636 | 8.26897 | 93° | 47km/h | 15056m | -7m/s | -50.8°C | 0.6% | 124.9hPa | 2.7V | 08:14:04 | 01:48:14 | 00:00:00 | |
| DO2JMG | 2026-09-02 08:23:08 | 52.60635 | 8.26917 | 93° | 47km/h | 15049m | -7.1m/s | -50.7°C | 0.6% | 125hPa | 2.7V | 08:14:04 | 01:48:15 | 00:00:00 | |
| GOEST3-10 | 2026-09-02 08:23:07 | 52.60636 | 8.26897 | 93° | 49km/h | 15056m | -7.0m/s | -50.7°C | 3.6% | 124.8hPa | 2.7V | 00:00:00 | 00:00:00 | 00:00:00 | |
| DD8BA-10 | 2026-09-02 08:23:06 | 52.60636 | 8.26877 | 93° | 49km/h | 15063m | -6.9m/s | -50.8°C | 3.6% | 124.7hPa | 2.6V | 00:00:00 | 00:00:00 | 00:00:00 | |
| DM0DOS-11 | 2026-09-02 08:23:05 | 52.60633 | 8.26752 | 84° | 51km/h | 15105m | -6.9m/s | -51.1°C | 3.6% | 124hPa | 2.6V | 08:13:54 | 01:48:07 | 00:00:00 | |
| DL1XH1-15 | 2026-09-02 08:23:04 | 52.60632 | 8.26731 | 83° | 49km/h | 15112m | -7m/s | -51.2°C | 3.7% | 123.8hPa | 2.6V | 08:13:55 | 01:48:06 | 00:00:00 | |
| AA1-15 | 2026-09-02 08:23:04 | 52.60637 | 8.26836 | 90° | 51km/h | 15077m | -7.2m/s | -50.9°C | 0.6% | 124.5hPa | 2.6V | 08:14:04 | 01:48:11 | 00:00:00 | |
| HSKMA3-T | 2026-09-02 08:23:01 | 52.60635 | 8.26772 | 85° | 51km/h | 15098m | -7.1m/s | -51.1°C | 0.6% | 124.1hPa | 2.7V | 08:14:04 | 01:48:08 | 00:00:00 | |
| DO3DL | 2026-09-02 08:23:00 | 52.60634 | 8.26772 | 86° | 51km/h | 15098m | -7.1m/s | -51.1°C | 1.4% | 124.1hPa | 2.7V | 08:14:00 | 00:00:00 | 00:00:00 | |
| DL1XH-15 | 2026-09-02 08:22:59 | 52.60626 | 8.26629 | 86° | 49km/h | 15147m | -7m/s | -51.4°C | 3.7% | 123.1hPa | 2.7V | 08:14:00 | 01:48:01 | 00:00:00 | |
| DL1XH-west | 2026-09-02 08:22:57 | 52.60629 | 8.26690 | 84° | 49km/h | 15126m | -6.9m/s | -51.3°C | 0.7% | 123.5hPa | 2.7V | 08:14:04 | 01:48:04 | 00:00:00 | |
| GOEST3-10 | 2026-09-02 08:22:57 | 52.60629 | 8.26690 | 84° | 49km/h | 15126m | -6.8m/s | -51.2°C | 3.7% | 123.5hPa | 2.6V | 00:00:00 | 00:00:00 | 00:00:00 | |
| DD8BA-10 | 2026-09-02 08:22:56 | 52.60628 | 8.26669 | 85° | 49km/h | 15133m | -6.9m/s | -51.3°C | 3.7% | 123.3hPa | 2.6V | 00:00:00 | 00:00:00 | 00:00:00 | |
| DM0DOS-11 | 2026-09-02 08:22:55 | 52.60623 | 8.26547 | 87° | 51km/h | 15175m | -7.1m/s | -51.2°C | 3.7% | 122.6hPa | 2.6V | 08:14:04 | 01:47:57 | 00:00:00 | |
| DB0DAN | 2026-09-02 08:22:55 | 52.60627 | 8.26649 | 86° | 47km/h | 15140m | -6.9m/s | -51.3°C | 1.4% | 123.25hPa | 2.6V | 00:00:00 | 00:00:00 | 00:00:00 | |
| D01LWL | 2026-09-02 08:22:55 | 52.60626 | 8.26629 | 86° | 47km/h | 15147m | -7.0m/s | -51.4°C | 1.4% | 123.1hPa | 2.7V | 00:00:00 | 00:00:00 | 00:00:00 | |
| DL1XH1-15 | 2026-09-02 08:22:54 | 52.60622 | 8.26527 | 87° | 49km/h | 15182m | -6.9m/s | -51.1°C | 3.7% | 122.5hPa | 2.7V | 08:14:05 | 01:47:56 | 00:00:00 | |
| AA1-15 | 2026-09-02 08:22:53 | 52.60625 | 8.26609 | 87° | 49km/h | 15154m | -7.1m/s | -51.3°C | 0.7% | 123hPa | 2.7V | 08:14:04 | 01:48:00 | 00:00:00 | |
| DF8AY | 2026-09-02 08:22:52 | 52.60624 | 8.26588 | 87° | 49km/h | 15161m | -7.2m/s | -51.3°C | 0.7% | 122.9hPa | 2.6V | 08:15:46 | 01:47:59 | 00:00:00 | |
| HSKMA3-T | 2026-09-02 08:22:51 | 52.60624 | 8.26568 | 87° | 49km/h | 15168m | -7.1m/s | -51.3°C | 0.7% | 122.7hPa | 2.6V | 08:14:04 | 01:47:58 | 00:00:00 | |
| DL1NUX | 2026-09-02 08:22:51 | 52.60621 | 8.26463 | 88° | 51km/h | 15203m | -7.1m/s | -51.2°C | 3.7% | 122.1hPa | 2.6V | 08:14:08 | 01:47:53 | 00:00:00 | |
| DL1CLM-18 | 2026-09-02 08:22:51 | 52.60623 | 8.26568 | 88° | 49km/h | 15168m | -7.1m/s | -51.3°C | 1.4% | 122.7hPa | 2.6V | 08:14:00 | 00:00:00 | 00:00:00 | |
| DN9WHV | 2026-09-02 08:22:50 | 52.60623 | 8.26568 | 88° | 49km/h | 15168m | -7.1m/s | -51.3°C | 1.4% | 122.7hPa | 2.6V | 08:14:00 | 00:00:00 | 00:00:00 | |
| DL1XH-15 | 2026-09-02 08:22:49 | 52.60620 | 8.26421 | 89° | 51km/h | 15217m | -7m/s | -51.2°C | 3.7% | 121.8hPa | 2.6V | 08:14:10 | 01:47:51 | 00:00:00 | |
| DO2JMG | 2026-09-02 08:22:46 | 52.60621 | 8.26463 | 89° | 51km/h | 15203m | -7.1m/s | -51.2°C | 0.6% | 122.1hPa | 2.6V | 08:14:55 | 01:47:53 | 00:00:00 | |
| DD8BA-10 | 2026-09-02 08:22:46 | 52.60621 | 8.26463 | 89° | 51km/h | 15203m | -7.0m/s | -51.1°C | 3.7% | 122.0hPa | 2.6V | 00:00:00 | 00:00:00 | 00:00:00 | |
| DM0DOS-11 | 2026-09-02 08:22:45 | 52.60620 | 8.26337 | 90° | 49km/h | 15246m | -7.1m/s | -51.3°C | 3.7% | 121.3hPa | 2.6V | 08:14:14 | 01:47:47 | 00:00:00 | |
| DL3AQ-11 | 2026-09-02 08:22:45 | 52.60621 | 8.26421 | 89° | 49km/h | 15217m | -7.1m/s | -51.2°C | 1.4% | 121.8hPa | 2.6V | 00:00:00 | 00:00:00 | 00:00:00 | |
| DL1XH1-15 | 2026-09-02 08:22:44 | 52.60620 | 8.26316 | 91° | 49km/h | 15253m | -7m/s | -51.3°C | 3.7% | 121.2hPa | 2.6V | 08:14:15 | 01:47:46 | 00:00:00 | |
| AA1-15 | 2026-09-02 08:22:42 | 52.60620 | 8.26378 | 90° | 51km/h | 15231m | -7m/s | -51.2°C | 0.7% | 121.5hPa | 2.7V | 08:14:55 | 01:47:49 | 00:00:00 | |
| HSKMA3-T | 2026-09-02 08:22:40 | 52.60620 | 8.26337 | 91° | 49km/h | 15246m | -7.1m/s | -51.3°C | 0.6% | 121.3hPa | 2.6V | 08:14:55 | 01:47:47 | 00:00:00 | |
| DL1XH-15 | 2026-09-02 08:22:39 | 52.60623 | 8.26212 | 93° | 51km/h | 15288m | -7.2m/s | -51.5°C | 3.8% | 120.5hPa | 2.6V | 08:14:20 | 01:47:41 | 00:00:00 | |
| DL1XH-west | 2026-09-02 08:22:36 | 52.60622 | 8.26254 | 92° | 51km/h | 15274m | -7.1m/s | -51.4°C | 0.7% | 120.8hPa | 2.7V | 08:14:55 | 01:47:43 | 00:00:00 | |
| SO1NDE-10 | 2026-09-02 08:22:36 | 52.60621 | 8.26254 | 93° | 53km/h | 15274m | -7.1m/s | -51.4°C | 3.8% | 120.7hPa | 2.7V | 00:00:00 | 01:47:43 | 00:00:00 | |
| DN9WHV | 2026-09-02 08:22:35 | 52.60621 | 8.26254 | 93° | 51km/h | 15274m | -7.1m/s | -51.4°C | 1.4% | 120.8hPa | 2.7V | 08:14:00 | 00:00:00 | 00:00:00 | |
| DL1XH1-15 | 2026-09-02 08:22:34 | 52.60628 | 8.26107 | 95° | 51km/h | 15324m | -7.2m/s | -51.6°C | 3.9% | 119.8hPa | 2.7V | 08:14:25 | 01:47:36 | 00:00:00 | |
| AA1-15 | 2026-09-02 08:22:31 | 52.60626 | 8.26149 | 96° | 51km/h | 15310m | -7.1m/s | -51.6°C | 0.8% | 120.1hPa | 2.7V | 08:14:55 | 01:47:38 | 00:00:00 | |
| DL1NUX | 2026-09-02 08:22:31 | 52.60631 | 8.26045 | 91° | 49km/h | 15346m | -7.2m/s | -51.4°C | 3.8% | 119.4hPa | 2.6V | 08:14:28 | 01:47:33 | 00:00:00 | |
| HSKMA3-T | 2026-09-02 08:22:29 | 52.60628 | 8.26107 | 96° | 51km/h | 15324m | -7.2m/s | -51.6°C | 0.7% | 119.8hPa | 2.7V | 08:14:55 | 01:47:36 | 00:00:00 | |
| DO2JMG | 2026-09-02 08:22:26 | 52.60631 | 8.26045 | 91° | 49km/h | 15346m | -7.2m/s | -51.4°C | 0.7% | 119.4hPa | 2.6V | 08:14:55 | 01:47:33 | 00:00:00 | |
| DL1XH-west | 2026-09-02 08:22:25 | 52.60631 | 8.26024 | 90° | 49km/h | 15353m | -7.2m/s | -51.3°C | 0.7% | 119.3hPa | 2.7V | 08:14:55 | 01:47:32 | 00:00:00 | |
| DB0DAN | 2026-09-02 08:22:25 | 52.60631 | 8.26024 | 90° | 47km/h | 15353m | -7.2m/s | -51.3°C | 1.4% | 119.26hPa | 2.7V | 00:00:00 | 00:00:00 | 00:00:00 | |
| DL1XH1-15 | 2026-09-02 08:22:24 | 52.60628 | 8.25895 | 88° | 53km/h | 15397m | -7.3m/s | -51.5°C | 3.8% | 118.5hPa | 2.6V | 08:14:35 | 01:47:26 | 00:00:00 | |
| DJ2DS-15 | 2026-09-02 08:22:24 | 52.60630 | 8.26003 | 88° | 57km/h | 15361m | -7.2m/s | -51.2°C | 3.7% | 119.1hPa | 2.7V | 00:00:00 | 01:47:31 | 00:00:00 | |
| DN9WHV | 2026-09-02 08:22:23 | 52.60630 | 8.26003 | 89° | 51km/h | 15361m | -7.2m/s | -51.3°C | 1.3% | 119.2hPa | 2.7V | 08:14:00 | 00:00:00 | 00:00:00 | |
| DJ2KF-10 | 2026-09-02 08:22:22 | 52.60629 | 8.25961 | 87° | 60km/h | 15375m | -7.4m/s | -51.4°C | 3.8% | 118.8hPa | 2.7V | 00:00:00 | 01:47:29 | 00:00:00 | |
| DL1NUX | 2026-09-02 08:22:21 | 52.60627 | 8.25829 | 89° | 53km/h | 15419m | -7.4m/s | -51.4°C | 3.8% | 118.1hPa | 2.7V | 08:14:38 | 01:47:23 | 00:00:00 | |
| AA1-15 | 2026-09-02 08:22:20 | 52.60628 | 8.25917 | 88° | 53km/h | 15390m | -7.2m/s | -51.5°C | 0.8% | 118.6hPa | 2.7V | 08:14:55 | 01:47:27 | 00:00:00 | |
| HSKMA3-T | 2026-09-02 08:22:19 | 52.60628 | 8.25895 | 89° | 53km/h | 15397m | -7.3m/s | -51.5°C | 0.7% | 118.5hPa | 2.6V | 08:14:55 | 01:47:26 | 00:00:00 | |
| DL3AQ-11 | 2026-09-02 08:22:18 | 52.60627 | 8.25851 | 90° | 51km/h | 15411m | -7.1m/s | -51.5°C | 1.4% | 118.2hPa | 2.7V | 00:00:00 | 00:00:00 | 00:00:00 | |
| DO9LL-15 | 2026-09-02 08:22:17 | 52.60627 | 8.25851 | 91° | 64km/h | 15412m | -7.0m/s | -51.5°C | 3.8% | 118.2hPa | 2.7V | 00:00:00 | 01:47:24 | 00:00:00 | |
| DD8BA-10 | 2026-09-02 08:22:16 | 52.60627 | 8.25829 | 90° | 58km/h | 15419m | -7.4m/s | -51.4°C | 3.8% | 118.0hPa | 2.7V | 08:14:00 | 00:00:00 | 00:00:00 | |
| DM0DOS-11 | 2026-09-02 08:22:15 | 52.60626 | 8.25689 | 87° | 60km/h | 15463m | -7.3m/s | -51.1°C | 3.7% | 117.3hPa | 2.7V | 08:14:44 | 01:47:17 | 00:00:00 | |
| BIOWL1-15 | 2026-09-02 08:22:15 | 52.60627 | 8.25807 | 90° | 55km/h | 15426m | -7.3m/s | -51.3°C | 0.7% | 118hPa | 2.6V | 08:14:55 | 01:47:22 | 00:00:00 | |
| DL1XH-west | 2026-09-02 08:22:14 | 52.60627 | 8.25784 | 89° | 55km/h | 15433m | -7.2m/s | -51.2°C | 0.6% | 117.8hPa | 2.6V | 08:14:55 | 01:47:21 | 00:00:00 | |
| DN9WHV | 2026-09-02 08:22:13 | 52.60627 | 8.25784 | 90° | 55km/h | 15433m | -7.2m/s | -51.2°C | 1.3% | 117.8hPa | 2.7V | 08:14:00 | 00:00:00 | 00:00:00 | |
| DB0NH | 2026-09-02 08:22:12 | 52.60627 | 8.25738 | 89° | 68km/h | 15448m | -7.3m/s | -51.1°C | 3.6% | 117.5hPa | 2.7V | 00:00:00 | 01:47:19 | 00:00:00 | |
| DL1NUX | 2026-09-02 08:22:11 | 52.60624 | 8.25586 | 88° | 64km/h | 15492m | -7.5m/s | -51.1°C | 3.7% | 116.8hPa | 2.7V | 08:14:48 | 01:47:13 | 00:00:00 | |
| DB0DAN | 2026-09-02 08:22:10 | 52.60626 | 8.25689 | 87° | 58km/h | 15463m | -7.3m/s | -51.1°C | 1.4% | 117.28hPa | 2.7V | 00:00:00 | 00:00:00 | 00:00:00 | |
| SONDE2-11 | 2026-09-02 08:22:10 | 52.60625 | 8.25664 | 88° | 60km/h | 15470m | -7.4m/s | -51.1°C | 1.4% | 117.2hPa | 2.7V | 00:00:00 | 00:00:00 | 00:00:00 | |
| DL1XH-15 | 2026-09-02 08:22:09 | 52.60624 | 8.25533 | 89° | 64km/h | 15507m | -7.4m/s | -51.1°C | 3.7% | 116.5hPa | 2.7V | 08:14:50 | 01:47:11 | 00:00:00 | |
| AA1-15 | 2026-09-02 08:22:09 | 52.60625 | 8.25664 | 88° | 62km/h | 15470m | -7.4m/s | -51.1°C | 0.6% | 117.2hPa | 2.6V | 08:14:55 | 01:47:16 | 00:00:00 | |
| HSKMA3-T | 2026-09-02 08:22:08 | 52.60625 | 8.25638 | 89° | 62km/h | 15477m | -7.5m/s | -51.1°C | 0.7% | 117hPa | 2.6V | 08:14:55 | 01:47:15 | 00:00:00 | |
| DO2JMG | 2026-09-02 08:22:05 | 52.60624 | 8.25559 | 90° | 64km/h | 15500m | -7.5m/s | -51.2°C | 0.7% | 116.6hPa | 2.7V | 08:14:55 | 01:47:12 | 00:00:00 | |
| DL1XH-west | 2026-09-02 08:22:04 | 52.60624 | 8.25533 | 90° | 64km/h | 15507m | -7.4m/s | -51.2°C | 0.7% | 116.5hPa | 2.7V | 08:14:55 | 01:47:11 | 00:00:00 | |
| DJ2DS-15 | 2026-09-02 08:22:04 | 52.60623 | 8.25533 | 90° | 68km/h | 15508m | -7.4m/s | -51.1°C | 3.7% | 116.4hPa | 2.7V | 00:00:00 | 01:47:11 | 00:00:00 | |
| DL1ZP-14 | 2026-09-02 08:22:03 | 52.60624 | 8.25506 | 90° | 62km/h | 15515m | -7.6m/s | -51.2°C | 1.3% | 116.3hPa | 2.6V | 00:00:00 | 00:00:00 | 00:00:00 | |
| GOEST3-10 | 2026-09-02 08:22:02 | 52.60624 | 8.25480 | 91° | 66km/h | 15523m | -7.5m/s | -51.2°C | 3.7% | 116.1hPa | 2.6V | 00:00:00 | 01:47:09 | 00:00:00 | |
| DL1NUX | 2026-09-02 08:22:01 | 52.60625 | 8.25315 | 91° | 69km/h | 15568m | -7.6m/s | -50.9°C | 3.7% | 115.4hPa | 2.6V | 08:14:58 | 01:47:03 | 00:00:00 | |
| DN9WHV | 2026-09-02 08:22:00 | 52.60624 | 8.25453 | 92° | 64km/h | 15530m | -7.4m/s | -51.3°C | 1.4% | 116.1hPa | 2.7V | 08:14:00 | 00:00:00 | 00:00:00 | |
| DL1XH-15 | 2026-09-02 08:21:59 | 52.60627 | 8.25256 | 92° | 69km/h | 15583m | -7.6m/s | -50.8°C | 3.6% | 115.1hPa | 2.7V | 08:15:00 | 01:47:01 | 00:00:00 | |
| AA1-15 | 2026-09-02 08:21:58 | 52.60625 | 8.25372 | 92° | 68km/h | 15552m | -7.6m/s | -51.2°C | 0.7% | 115.7hPa | 2.7V | 08:15:46 | 01:47:05 | 00:00:00 | |
| DF8AY | 2026-09-02 08:21:57 | 52.60625 | 8.25343 | 91° | 69km/h | 15560m | -7.7m/s | -51.1°C | 0.7% | 115.5hPa | 2.6V | 08:15:46 | 01:47:04 | 00:00:00 | |
| GOEST3-10 | 2026-09-02 08:21:57 | 52.60625 | 8.25343 | 92° | 69km/h | 15560m | -7.7m/s | -51.1°C | 3.8% | 115.5hPa | 2.6V | 00:00:00 | 00:00:00 | 00:00:00 | |
| DD8BA-10 | 2026-09-02 08:21:56 | 52.60625 | 8.25315 | 92° | 69km/h | 15568m | -7.6m/s | -50.9°C | 3.7% | 115.4hPa | 2.6V | 00:00:00 | 00:00:00 | 00:00:00 | |
| DM0DOS-11 | 2026-09-02 08:21:55 | 52.60632 | 8.25141 | 95° | 68km/h | 15613m | -7.8m/s | -51°C | 3.6% | 114.6hPa | 2.6V | 08:15:04 | 01:46:57 | 00:00:00 | |
| DO2JMG | 2026-09-02 08:21:55 | 52.60626 | 8.25286 | 92° | 71km/h | 15575m | -7.6m/s | -50.9°C | 0.6% | 115.3hPa | 2.6V | 08:15:46 | 01:47:02 | 00:00:00 | |
| DB0DAN | 2026-09-02 08:21:55 | 52.60626 | 8.25286 | 92° | 68km/h | 15575m | -7.6m/s | -50.9°C | 1.3% | 115.26hPa | 2.6V | 00:00:00 | 00:00:00 | 00:00:00 | |
| DL1XH-west | 2026-09-02 08:21:53 | 52.60628 | 8.25227 | 93° | 71km/h | 15591m | -7.6m/s | -50.8°C | 0.6% | 115hPa | 2.7V | 08:15:46 | 01:47:00 | 00:00:00 | |
| NBG1-10 | 2026-09-02 08:21:52 | 52.60629 | 8.25198 | 95° | 53km/h | 15598m | -7.5m/s | 0°C | 0% | 0hPa | 2.6V | 00:00:00 | 01:46:59 | 00:00:00 | |
| DL1NUX | 2026-09-02 08:21:51 | 52.60638 | 8.25032 | 96° | 66km/h | 15644m | -7.7m/s | -51.1°C | 3.7% | 114hPa | 2.6V | 08:15:08 | 01:46:53 | 00:00:00 | |
| DL8DAS-14 | 2026-09-02 08:21:50 | 52.60633 | 8.25113 | 95° | 66km/h | 15621m | -7.7m/s | -51.1°C | 1.3% | 114.5hPa | 2.7V | 00:00:00 | 00:00:00 | 00:00:00 | |
| DL1XH-15 | 2026-09-02 08:21:49 | 52.60643 | 8.24979 | 97° | 64km/h | 15660m | -7.6m/s | -51.1°C | 3.7% | 113.8hPa | 2.7V | 08:15:10 | 01:46:51 | 00:00:00 | |
| HSKMA3-T | 2026-09-02 08:21:47 | 52.60637 | 8.25059 | 96° | 66km/h | 15637m | -7.8m/s | -51.1°C | 0.6% | 114.2hPa | 2.7V | 08:15:46 | 01:46:54 | 00:00:00 | |
| SONCRA | 2026-09-02 08:21:47 | 52.60639 | 8.25032 | 96° | 64km/h | 15644m | -7.7m/s | -51.1°C | 1.3% | 114.0hPa | 2.6V | 00:00:00 | 00:00:00 | 00:00:00 | |
| DD8BA-10 | 2026-09-02 08:21:46 | 52.60638 | 8.25032 | 97° | 66km/h | 15644m | -7.6m/s | -51.1°C | 3.7% | 114.0hPa | 2.6V | 00:00:00 | 00:00:00 | 00:00:00 | |
| DM0DOS-11 | 2026-09-02 08:21:45 | 52.60652 | 8.24873 | 98° | 66km/h | 15690m | -7.8m/s | -50.9°C | 3.6% | 113.2hPa | 2.7V | 08:15:14 | 01:46:47 | 00:00:00 | |
| DO2JMG | 2026-09-02 08:21:44 | 52.60643 | 8.24979 | 98° | 64km/h | 15660m | -7.6m/s | -51.2°C | 0.6% | 113.8hPa | 2.7V | 08:15:46 | 01:46:51 | 00:00:00 | |
| DL1XH-west | 2026-09-02 08:21:43 | 52.60645 | 8.24953 | 98° | 64km/h | 15667m | -7.6m/s | -51°C | 0.7% | 113.6hPa | 2.7V | 08:15:46 | 01:46:50 | 00:00:00 | |
| BIOWL9-15 | 2026-09-02 08:21:42 | 52.60649 | 8.24900 | 98° | 64km/h | 15683m | -7.7m/s | -50.9°C | 1.3% | 113.4hPa | 2.6V | 00:00:00 | 00:00:00 | 00:00:00 | |
| DL1NUX | 2026-09-02 08:21:41 | 52.60662 | 8.24763 | 99° | 68km/h | 15722m | -7.8m/s | -51°C | 3.6% | 112.7hPa | 2.6V | 08:15:18 | 01:46:43 | 00:00:00 | |
| DB0UT-7 | 2026-09-02 08:21:41 | 52.60649 | 8.24900 | 99° | 69km/h | 15683m | -7.6m/s | -50.9°C | 3.7% | 113.3hPa | 2.7V | 00:00:00 | 01:46:48 | 00:00:00 | |
| HTAHTA | 2026-09-02 08:21:40 | 52.60657 | 8.24818 | 98° | 68km/h | 15706m | -8.0m/s | -51.0°C | 1.3% | 113.0hPa | 2.7V | 00:00:00 | 00:00:00 | 00:00:00 | |
| DB0DAN | 2026-09-02 08:21:40 | 52.60652 | 8.24873 | 98° | 64km/h | 15690m | -7.8m/s | -50.9°C | 1.3% | 113.25hPa | 2.7V | 00:00:00 | 00:00:00 | 00:00:00 | |
| DL1XH-15 | 2026-09-02 08:21:39 | 52.60668 | 8.24708 | 100° | 68km/h | 15738m | -7.8m/s | -51°C | 3.7% | 112.5hPa | 2.7V | 08:15:20 | 01:46:41 | 00:00:00 | |
| HSKMA3-T | 2026-09-02 08:21:37 | 52.60659 | 8.24790 | 99° | 68km/h | 15714m | -7.8m/s | -51°C | 0.6% | 112.8hPa | 2.6V | 08:15:46 | 01:46:44 | 00:00:00 | |
| AA1-15 | 2026-09-02 08:21:36 | 52.60662 | 8.24763 | 99° | 68km/h | 15722m | -7.8m/s | -51°C | 0.6% | 112.7hPa | 2.6V | 08:15:46 | 01:46:43 | 00:00:00 | |
| SO1NDE-10 | 2026-09-02 08:21:36 | 52.60662 | 8.24763 | 100° | 69km/h | 15722m | -7.8m/s | -51.0°C | 3.6% | 112.6hPa | 2.6V | 00:00:00 | 01:46:43 | 00:00:00 | |
| DM0DOS-11 | 2026-09-02 08:21:35 | 52.60682 | 8.24600 | 102° | 66km/h | 15769m | -7.9m/s | -51.2°C | 3.7% | 111.9hPa | 2.6V | 08:15:24 | 01:46:37 | 00:00:00 | |
| DL1XH1-15 | 2026-09-02 08:21:34 | 52.60685 | 8.24573 | 102° | 66km/h | 15777m | -7.9m/s | -51.3°C | 3.7% | 111.8hPa | 2.7V | 08:15:25 | 01:46:36 | 00:00:00 | |
| DO2JMG | 2026-09-02 08:21:33 | 52.60671 | 8.24680 | 102° | 66km/h | 15745m | -7.7m/s | -51.1°C | 0.6% | 112.3hPa | 2.7V | 08:15:46 | 01:46:40 | 00:00:00 | |
| DL1XH-west | 2026-09-02 08:21:32 | 52.60674 | 8.24653 | 102° | 66km/h | 15753m | -7.9m/s | -51.1°C | 0.6% | 112.2hPa | 2.6V | 08:15:46 | 01:46:39 | 00:00:00 | |
| DN9WHV | 2026-09-02 08:21:32 | 52.60674 | 8.24653 | 103° | 66km/h | 15754m | -7.9m/s | -51.1°C | 1.3% | 112.2hPa | 2.6V | 08:15:00 | 00:00:00 | 00:00:00 | |
| DO2KSM | 2026-09-02 08:21:31 | 52.60674 | 8.24653 | 103° | 66km/h | 15754m | -7.9m/s | -51.1°C | 1.3% | 112.2hPa | 2.6V | 08:15:00 | 00:00:00 | 00:00:00 | |
| DN9WHV | 2026-09-02 08:21:30 | 52.60678 | 8.24627 | 104° | 66km/h | 15762m | -8.0m/s | -51.2°C | 1.3% | 112.1hPa | 2.6V | 08:15:00 | 00:00:00 | 00:00:00 | |
| DL1XH-15 | 2026-09-02 08:21:29 | 52.60704 | 8.24435 | 103° | 69km/h | 15816m | -8m/s | -51.4°C | 3.7% | 111.1hPa | 2.6V | 08:15:30 | 01:46:31 | 00:00:00 | |
| HSKMA3-T | 2026-09-02 08:21:26 | 52.60696 | 8.24491 | 103° | 68km/h | 15801m | -7.8m/s | -51.4°C | 0.7% | 111.3hPa | 2.6V | 08:15:46 | 01:46:33 | 00:00:00 | |
| DB0DAN | 2026-09-02 08:21:25 | 52.60700 | 8.24463 | 103° | 66km/h | 15808m | -8m/s | -51.4°C | 1.3% | 111.19hPa | 2.6V | 00:00:00 | 00:00:00 | 00:00:00 | |
| DL3AQ-11 | 2026-09-02 08:21:25 | 52.60704 | 8.24435 | 103° | 69km/h | 15817m | -8.0m/s | -51.4°C | 1.3% | 111.1hPa | 2.6V | 00:00:00 | 00:00:00 | 00:00:00 | |
| DL1XH1-15 | 2026-09-02 08:21:24 | 52.60726 | 8.24291 | 105° | 71km/h | 15856m | -7.9m/s | -51.5°C | 3.7% | 110.4hPa | 2.6V | 08:15:35 | 01:46:26 | 00:00:00 | |
| DO2JMG | 2026-09-02 08:21:23 | 52.60708 | 8.24407 | 103° | 71km/h | 15825m | -8m/s | -51.4°C | 0.6% | 110.9hPa | 2.7V | 08:15:46 | 01:46:30 | 00:00:00 | |
| DL1XH-west | 2026-09-02 08:21:22 | 52.60712 | 8.24378 | 104° | 71km/h | 15833m | -7.8m/s | -51.4°C | 0.7% | 110.8hPa | 2.7V | 08:15:46 | 01:46:29 | 00:00:00 | |
| GOEST3-10 | 2026-09-02 08:21:22 | 52.60712 | 8.24378 | 104° | 71km/h | 15833m | -7.8m/s | -51.3°C | 3.7% | 110.8hPa | 2.7V | 00:00:00 | 01:46:29 | 00:00:00 | |
| DL1NUX | 2026-09-02 08:21:21 | 52.60741 | 8.24206 | 106° | 69km/h | 15880m | -8m/s | -51.6°C | 3.8% | 110hPa | 2.7V | 08:15:38 | 01:46:23 | 00:00:00 | |
| BIOWL1-15 | 2026-09-02 08:21:21 | 52.60717 | 8.24349 | 104° | 73km/h | 15840m | -8m/s | -51.4°C | 0.7% | 110.7hPa | 2.7V | 08:15:46 | 01:46:28 | 00:00:00 | |
| DF5WG-10 | 2026-09-02 08:21:21 | 52.60717 | 8.24349 | 105° | 71km/h | 15840m | -7.9m/s | -51.4°C | 3.8% | 110.6hPa | 2.6V | 00:00:00 | 01:46:28 | 00:00:00 | |
| DN9WHV | 2026-09-02 08:21:20 | 52.60717 | 8.24349 | 105° | 73km/h | 15840m | -8.0m/s | -51.4°C | 1.4% | 110.7hPa | 2.6V | 08:15:00 | 00:00:00 | 00:00:00 | |
| DL1XH-15 | 2026-09-02 08:21:19 | 52.60751 | 8.24150 | 106° | 71km/h | 15896m | -8m/s | -51.6°C | 3.8% | 109.7hPa | 2.6V | 08:15:40 | 01:46:21 | 00:00:00 | |
| WEDDY | 2026-09-02 08:21:19 | 52.60726 | 8.24291 | 106° | 73km/h | 15856m | -7.9m/s | -51.5°C | 1.4% | 110.4hPa | 2.7V | 08:15:00 | 00:00:00 | 00:00:00 | |
| DN9WHV | 2026-09-02 08:21:18 | 52.60726 | 8.24291 | 106° | 73km/h | 15856m | -7.9m/s | -51.5°C | 1.4% | 110.4hPa | 2.7V | 08:15:00 | 00:00:00 | 00:00:00 | |
| DO9LL-15 | 2026-09-02 08:21:17 | 52.60736 | 8.24234 | 107° | 62km/h | 15872m | -8.0m/s | -51.5°C | 3.8% | 110.1hPa | 2.7V | 00:00:00 | 01:46:24 | 00:00:00 | |
| SONCRA | 2026-09-02 08:21:16 | 52.60746 | 8.24178 | 106° | 69km/h | 15888m | -8.2m/s | -51.6°C | 1.4% | 109.9hPa | 2.7V | 00:00:00 | 00:00:00 | 00:00:00 | |
| DM0DOS-11 | 2026-09-02 08:21:15 | 52.60771 | 8.24039 | 106° | 68km/h | 15929m | -8.1m/s | -51.5°C | 3.8% | 109.1hPa | 2.7V | 08:15:44 | 01:46:17 | 00:00:00 | |
| HSKMA3-T | 2026-09-02 08:21:15 | 52.60746 | 8.24178 | 106° | 71km/h | 15888m | -8.2m/s | -51.6°C | 0.8% | 109.9hPa | 2.7V | 08:15:46 | 01:46:22 | 00:00:00 | |
| DO2JMG | 2026-09-02 08:21:12 | 52.60761 | 8.24094 | 107° | 69km/h | 15912m | -8m/s | -51.5°C | 0.7% | 109.5hPa | 2.6V | 08:15:46 | 01:46:19 | 00:00:00 | |
| DL1XH-west | 2026-09-02 08:21:11 | 52.60766 | 8.24066 | 106° | 69km/h | 15920m | -8.1m/s | -51.5°C | 0.7% | 109.3hPa | 2.7V | 08:15:46 | 01:46:18 | 00:00:00 | |
| BIOWL1-15 | 2026-09-02 08:21:10 | 52.60771 | 8.24039 | 106° | 68km/h | 15929m | -8.1m/s | -51.5°C | 0.7% | 109.1hPa | 2.7V | 08:15:46 | 01:46:17 | 00:00:00 | |
| HTAHTA | 2026-09-02 08:21:09 | 52.60785 | 8.23962 | 106° | 60km/h | 15953m | -7.9m/s | -51.3°C | 1.3% | 108.8hPa | 2.6V | 00:00:00 | 00:00:00 | 00:00:00 | |
| SONDE2-11 | 2026-09-02 08:21:08 | 52.60785 | 8.23962 | 106° | 60km/h | 15953m | -7.9m/s | -51.3°C | 1.3% | 108.8hPa | 2.6V | 00:00:00 | 00:00:00 | 00:00:00 | |
| DB0NH | 2026-09-02 08:21:07 | 52.60784 | 8.23962 | 107° | 58km/h | 15953m | -7.9m/s | -51.2°C | 3.7% | 108.7hPa | 2.6V | 00:00:00 | 01:46:14 | 00:00:00 | |
| DN9WHV | 2026-09-02 08:21:06 | 52.60784 | 8.23962 | 108° | 62km/h | 15953m | -7.9m/s | -51.3°C | 1.3% | 108.8hPa | 2.6V | 08:16:00 | 00:00:00 | 00:00:00 | |
| DM0DOS-11 | 2026-09-02 08:21:05 | 52.60817 | 8.23792 | 108° | 64km/h | 16008m | -8m/s | -51.6°C | 3.8% | 107.8hPa | 2.6V | 08:15:54 | 01:46:07 | 00:00:00 | |
| SMARD9-15 | 2026-09-02 08:21:05 | 52.60798 | 8.23890 | 107° | 60km/h | 15976m | -7.9m/s | -51.4°C | 1.3% | 108.4hPa | 2.7V | 00:00:00 | 00:00:00 | 00:00:00 | |
| DL1XH1-15 | 2026-09-02 08:21:04 | 52.60822 | 8.23766 | 107° | 64km/h | 16016m | -8.1m/s | -51.6°C | 3.8% | 107.7hPa | 2.7V | 08:15:55 | 01:46:06 | 00:00:00 | |
| HSKMA3-T | 2026-09-02 08:21:04 | 52.60798 | 8.23890 | 108° | 60km/h | 15976m | -7.9m/s | -51.4°C | 0.7% | 108.4hPa | 2.6V | 08:16:37 | 01:46:11 | 00:00:00 | |
| DO2JMG | 2026-09-02 08:21:02 | 52.60808 | 8.23841 | 108° | 62km/h | 15992m | -8m/s | -51.5°C | 0.7% | 108.1hPa | 2.7V | 08:16:37 | 01:46:09 | 00:00:00 | |
| DL1NUX | 2026-09-02 08:21:02 | 52.60836 | 8.23693 | 107° | 60km/h | 16040m | -7.8m/s | -51.7°C | 3.8% | 107.3hPa | 2.6V | 08:15:58 | 01:46:03 | 00:00:00 | |
| DL1XH-west | 2026-09-02 08:21:01 | 52.60812 | 8.23817 | 107° | 62km/h | 16000m | -8.2m/s | -51.6°C | 0.7% | 108hPa | 2.6V | 08:16:37 | 01:46:08 | 00:00:00 | |
| DF8AY | 2026-09-02 08:20:59 | 52.60822 | 8.23766 | 108° | 64km/h | 16016m | -8.1m/s | -51.6°C | 0.7% | 107.7hPa | 2.7V | 08:16:37 | 01:46:06 | 00:00:00 | |
| DF5WG-10 | 2026-09-02 08:20:59 | 52.60822 | 8.23766 | 108° | 55km/h | 16017m | -8.1m/s | -51.6°C | 3.8% | 107.6hPa | 2.7V | 08:15:00 | 01:46:06 | 00:00:00 | |
| DL3OBA | 2026-09-02 08:20:58 | 52.60822 | 8.23766 | 109° | 64km/h | 16017m | -8.1m/s | -51.6°C | 1.4% | 107.7hPa | 2.6V | 08:16:00 | 00:00:00 | 00:00:00 | |
| GOEST3-10 | 2026-09-02 08:20:57 | 52.60832 | 8.23717 | 109° | 58km/h | 16033m | -8.0m/s | -51.7°C | 3.8% | 107.4hPa | 2.6V | 00:00:00 | 00:00:00 | 00:00:00 | |
| DD8BA-10 | 2026-09-02 08:20:56 | 52.60836 | 8.23693 | 108° | 55km/h | 16041m | -7.8m/s | -51.7°C | 3.8% | 107.2hPa | 2.6V | 00:00:00 | 00:00:00 | 00:00:00 | |
| DM0DOS-11 | 2026-09-02 08:20:55 | 52.60863 | 8.23564 | 109° | 53km/h | 16089m | -7.8m/s | -51.9°C | 3.9% | 106.5hPa | 2.6V | 08:16:04 | 01:45:57 | 00:00:00 | |
| DB0DAN | 2026-09-02 08:20:55 | 52.60841 | 8.23670 | 108° | 55km/h | 16048m | -7.9m/s | -51.8°C | 1.4% | 107.16hPa | 2.6V | 00:00:00 | 00:00:00 | 00:00:00 | |
| DL1XH1-15 | 2026-09-02 08:20:54 | 52.60867 | 8.23544 | 110° | 53km/h | 16097m | -8.1m/s | -52°C | 3.9% | 106.4hPa | 2.6V | 08:16:05 | 01:45:56 | 00:00:00 | |
| HSKMA3-T | 2026-09-02 08:20:53 | 52.60850 | 8.23626 | 109° | 55km/h | 16064m | -8.2m/s | -51.8°C | 0.7% | 106.9hPa | 2.7V | 08:16:37 | 01:46:00 | 00:00:00 | |
| DO2JMG | 2026-09-02 08:20:52 | 52.60854 | 8.23605 | 109° | 53km/h | 16073m | -8.2m/s | -51.9°C | 0.8% | 106.8hPa | 2.7V | 08:16:37 | 01:45:59 | 00:00:00 | |
| GOEST3-10 | 2026-09-02 08:20:52 | 52.60854 | 8.23605 | 110° | 53km/h | 16073m | -8.2m/s | -51.8°C | 3.8% | 106.7hPa | 2.7V | 00:00:00 | 01:45:59 | 00:00:00 | |
| DL1NUX | 2026-09-02 08:20:51 | 52.60881 | 8.23481 | 109° | 53km/h | 16121m | -8m/s | -52.1°C | 4% | 106hPa | 2.7V | 08:16:08 | 01:45:53 | 00:00:00 | |
| DL1XH-west | 2026-09-02 08:20:50 | 52.60863 | 8.23564 | 110° | 53km/h | 16089m | -7.8m/s | -51.9°C | 0.8% | 106.5hPa | 2.6V | 08:16:37 | 01:45:57 | 00:00:00 | |
| DF8AY | 2026-09-02 08:20:48 | 52.60872 | 8.23523 | 110° | 53km/h | 16105m | -8m/s | -52°C | 0.8% | 106.2hPa | 2.7V | 08:16:37 | 01:45:55 | 00:00:00 | |
| DO9LL-15 | 2026-09-02 08:20:47 | 52.60877 | 8.23502 | 111° | 57km/h | 16113m | -8.0m/s | -52.1°C | 3.9% | 106.1hPa | 2.7V | 00:00:00 | 01:45:54 | 00:00:00 | |
| DD8BA-10 | 2026-09-02 08:20:46 | 52.60881 | 8.23481 | 110° | 57km/h | 16121m | -8.0m/s | -52.1°C | 4.0% | 106.0hPa | 2.7V | 08:16:00 | 00:00:00 | 00:00:00 | |
| DM0DOS-11 | 2026-09-02 08:20:45 | 52.60908 | 8.23350 | 106° | 58km/h | 16170m | -8.1m/s | -51.7°C | 3.9% | 105.2hPa | 2.7V | 08:16:14 | 01:45:47 | 00:00:00 | |
| DN9WHV | 2026-09-02 08:20:45 | 52.60886 | 8.23460 | 111° | 55km/h | 16129m | -8.3m/s | -52.1°C | 1.4% | 105.8hPa | 2.6V | 08:16:00 | 00:00:00 | 00:00:00 | |
| DL1XH1-15 | 2026-09-02 08:20:44 | 52.60912 | 8.23327 | 106° | 58km/h | 16178m | -8.2m/s | -51.6°C | 3.9% | 105hPa | 2.6V | 08:16:15 | 01:45:46 | 00:00:00 | |
| DJ2DS-15 | 2026-09-02 08:20:44 | 52.60890 | 8.23439 | 109° | 57km/h | 16138m | -8.1m/s | -52.1°C | 4.0% | 105.7hPa | 2.7V | 00:00:00 | 01:45:51 | 00:00:00 | |
| DL8OAI-8 | 2026-09-02 08:20:43 | 52.60890 | 8.23439 | 110° | 55km/h | 16138m | -8.2m/s | -52.2°C | 0% | 0hPa | 2.7V | 00:00:00 | 00:00:00 | 00:00:00 | |
| GOEST3-10 | 2026-09-02 08:20:42 | 52.60899 | 8.23395 | 109° | 58km/h | 16154m | -8.0m/s | -52.1°C | 4.0% | 105.4hPa | 2.7V | 00:00:00 | 01:45:49 | 00:00:00 | |
| DO2JMG | 2026-09-02 08:20:42 | 52.60899 | 8.23395 | 109° | 57km/h | 16153m | -8m/s | -52.1°C | 0.9% | 105.5hPa | 2.7V | 08:16:37 | 01:45:49 | 00:00:00 | |
| DN9WHV | 2026-09-02 08:20:41 | 52.60899 | 8.23395 | 110° | 57km/h | 16154m | -8.0m/s | -52.1°C | 1.4% | 105.5hPa | 2.7V | 08:16:00 | 00:00:00 | 00:00:00 | |
| DB0DAN | 2026-09-02 08:20:40 | 52.60908 | 8.23350 | 106° | 55km/h | 16170m | -8.1m/s | -51.7°C | 1.4% | 105.19hPa | 2.7V | 00:00:00 | 00:00:00 | 00:00:00 | |
| DL1XH-west | 2026-09-02 08:20:39 | 52.60912 | 8.23327 | 106° | 58km/h | 16178m | -8.2m/s | -51.6°C | 0.9% | 105hPa | 2.6V | 08:16:37 | 01:45:46 | 00:00:00 | |
| BIOWL1-15 | 2026-09-02 08:20:38 | 52.60916 | 8.23303 | 107° | 58km/h | 16186m | -8.2m/s | -51.7°C | 0.9% | 104.9hPa | 2.6V | 08:16:37 | 01:45:45 | 00:00:00 | |
| DF8AY | 2026-09-02 08:20:37 | 52.60921 | 8.23280 | 107° | 60km/h | 16194m | -8.2m/s | -51.7°C | 0.8% | 104.8hPa | 2.6V | 08:16:37 | 01:45:44 | 00:00:00 | |
| SONDE2-11 | 2026-09-02 08:20:37 | 52.60925 | 8.23256 | 108° | 58km/h | 16203m | -7.9m/s | -51.7°C | 1.4% | 104.6hPa | 2.7V | 00:00:00 | 00:00:00 | 00:00:00 | |
| SO1NDE-10 | 2026-09-02 08:20:36 | 52.60925 | 8.23256 | 109° | 55km/h | 16203m | -7.9m/s | -51.7°C | 3.9% | 104.6hPa | 2.7V | 00:00:00 | 01:45:43 | 00:00:00 | |
| DM0DOS-11 | 2026-09-02 08:20:35 | 52.60957 | 8.23124 | 114° | 57km/h | 16252m | -8.2m/s | -51.9°C | 3.9% | 103.8hPa | 2.7V | 08:16:24 | 01:45:37 | 00:00:00 | |
| DL1XH1-15 | 2026-09-02 08:20:34 | 52.60963 | 8.23103 | 114° | 55km/h | 16260m | -8.2m/s | -51.9°C | 3.9% | 103.7hPa | 2.7V | 08:16:25 | 01:45:36 | 00:00:00 | |
| HSKMA3-T | 2026-09-02 08:20:32 | 52.60946 | 8.23167 | 113° | 57km/h | 16235m | -8.4m/s | -51.9°C | 0.8% | 104.1hPa | 2.6V | 08:16:37 | 01:45:39 | 00:00:00 | |
| DO2JMG | 2026-09-02 08:20:31 | 52.60951 | 8.23146 | 113° | 57km/h | 16243m | -8m/s | -51.9°C | 0.8% | 104hPa | 2.6V | 08:16:37 | 01:45:38 | 00:00:00 | |
| DL1XH-west | 2026-09-02 08:20:28 | 52.60969 | 8.23083 | 114° | 55km/h | 16268m | -8.3m/s | -51.8°C | 0.9% | 103.6hPa | 2.7V | 08:16:37 | 01:45:35 | 00:00:00 | |
| BIOWL1-15 | 2026-09-02 08:20:27 | 52.60974 | 8.23062 | 115° | 55km/h | 16277m | -8.2m/s | -51.6°C | 0.8% | 103.5hPa | 2.6V | 08:16:37 | 01:45:34 | 00:00:00 | |
| DF8AY | 2026-09-02 08:20:26 | 52.60980 | 8.23041 | 114° | 55km/h | 16285m | -8.1m/s | -51.6°C | 0.8% | 103.3hPa | 2.6V | 08:16:37 | 01:45:33 | 00:00:00 | |
| DD8BA-10 | 2026-09-02 08:20:26 | 52.60980 | 8.23041 | 115° | 57km/h | 16285m | -8.0m/s | -51.5°C | 3.8% | 103.3hPa | 2.7V | 00:00:00 | 00:00:00 | 00:00:00 | |
| DM0DOS-11 | 2026-09-02 08:20:25 | 52.61016 | 8.22911 | 115° | 58km/h | 16335m | -8.2m/s | -51.5°C | 3.8% | 102.6hPa | 2.7V | 08:16:34 | 01:45:27 | 00:00:00 | |
| DB0DAN | 2026-09-02 08:20:25 | 52.60986 | 8.23020 | 114° | 53km/h | 16293m | -8.3m/s | -51.5°C | 1.4% | 103.18hPa | 2.6V | 00:00:00 | 00:00:00 | 00:00:00 | |
| DL1XH1-15 | 2026-09-02 08:20:24 | 52.61023 | 8.22889 | 116° | 58km/h | 16343m | -8.3m/s | -51.5°C | 3.8% | 102.4hPa | 2.7V | 08:16:35 | 01:45:26 | 00:00:00 | |
| HSKMA3-T | 2026-09-02 08:20:21 | 52.61010 | 8.22933 | 116° | 58km/h | 16326m | -8.1m/s | -51.5°C | 0.8% | 102.7hPa | 2.6V | 08:16:37 | 01:45:28 | 00:00:00 | |
| DO2JMG | 2026-09-02 08:20:20 | 52.61016 | 8.22911 | 115° | 60km/h | 16335m | -8.2m/s | -51.5°C | 0.7% | 102.6hPa | 2.7V | 08:16:37 | 01:45:27 | 00:00:00 | |
| BIOWL1-15 | 2026-09-02 08:20:19 | 52.61035 | 8.22846 | 116° | 57km/h | 16359m | -8.1m/s | -51.4°C | 0.8% | 102.1hPa | 2.6V | 08:16:37 | 01:45:24 | 00:00:00 | |
| DL1XH-west | 2026-09-02 08:20:18 | 52.61029 | 8.22867 | 115° | 58km/h | 16351m | -8.2m/s | -51.4°C | 0.8% | 102.3hPa | 2.6V | 08:16:37 | 01:45:25 | 00:00:00 | |
| DF8AY | 2026-09-02 08:20:16 | 52.61041 | 8.22825 | 115° | 55km/h | 16367m | -8.1m/s | -51.4°C | 0.8% | 102hPa | 2.7V | 08:17:28 | 01:45:23 | 00:00:00 | |
| DD8BA-10 | 2026-09-02 08:20:16 | 52.61041 | 8.22825 | 115° | 51km/h | 16367m | -8.0m/s | -51.4°C | 3.9% | 102.0hPa | 2.7V | 00:00:00 | 00:00:00 | 00:00:00 | |
| DN9WHV | 2026-09-02 08:20:15 | 52.61041 | 8.22825 | 116° | 55km/h | 16367m | -8.1m/s | -51.4°C | 1.4% | 102.0hPa | 2.6V | 08:17:00 | 00:00:00 | 00:00:00 | |
| DL1XH1-15 | 2026-09-02 08:20:14 | 52.61079 | 8.22692 | 113° | 49km/h | 16424m | -8.3m/s | -51.4°C | 3.7% | 101.1hPa | 2.6V | 08:16:45 | 01:45:16 | 00:00:00 | |
| DN9WHV | 2026-09-02 08:20:13 | 52.61053 | 8.22786 | 116° | 51km/h | 16384m | -8.2m/s | -51.5°C | 1.4% | 101.8hPa | 2.7V | 08:17:00 | 00:00:00 | 00:00:00 | |
| GOEST3-10 | 2026-09-02 08:20:12 | 52.61063 | 8.22748 | 115° | 49km/h | 16400m | -8.0m/s | -51.4°C | 3.8% | 101.5hPa | 2.7V | 00:00:00 | 01:45:19 | 00:00:00 | |
| DL1NUX | 2026-09-02 08:20:11 | 52.61093 | 8.22635 | 111° | 49km/h | 16449m | -8.3m/s | -51.4°C | 3.8% | 100.7hPa | 2.7V | 08:16:48 | 01:45:13 | 00:00:00 | |
| HSKMA3-T | 2026-09-02 08:20:11 | 52.61069 | 8.22730 | 115° | 49km/h | 16408m | -8.1m/s | -51.4°C | 0.8% | 101.4hPa | 2.7V | 08:17:28 | 01:45:18 | 00:00:00 | |
| DO2JMG | 2026-09-02 08:20:10 | 52.61074 | 8.22711 | 113° | 49km/h | 16416m | -8.2m/s | -51.4°C | 0.7% | 101.3hPa | 2.6V | 08:17:28 | 01:45:17 | 00:00:00 | |
| DB0ND-19 | 2026-09-02 08:20:10 | 52.61078 | 8.22692 | 113° | 49km/h | 16424m | -8.3m/s | -51.4°C | 1.3% | 101.1hPa | 2.6V | 00:00:00 | 00:00:00 | 00:00:00 | |
| DL1XH-15 | 2026-09-02 08:20:09 | 52.61102 | 8.22597 | 110° | 49km/h | 16466m | -8.1m/s | -51.5°C | 3.8% | 100.5hPa | 2.6V | 08:16:50 | 01:45:11 | 00:00:00 | |
| AA1-15 | 2026-09-02 08:20:09 | 52.61078 | 8.22692 | 114° | 49km/h | 16424m | -8.3m/s | -51.4°C | 0.7% | 101.1hPa | 2.6V | 08:17:28 | 01:45:16 | 00:00:00 | |
| DL1XH-west | 2026-09-02 08:20:08 | 52.61083 | 8.22674 | 113° | 49km/h | 16433m | -8.3m/s | -51.5°C | 0.7% | 101hPa | 2.6V | 08:17:28 | 01:45:15 | 00:00:00 | |
| BIOWL1-15 | 2026-09-02 08:20:06 | 52.61093 | 8.22635 | 111° | 49km/h | 16449m | -8.3m/s | -51.4°C | 0.7% | 100.7hPa | 2.7V | 08:17:28 | 01:45:13 | 00:00:00 | |
| SO1NDE-10 | 2026-09-02 08:20:06 | 52.61093 | 8.22635 | 112° | 40km/h | 16449m | -8.3m/s | -51.4°C | 3.8% | 100.7hPa | 2.7V | 00:00:00 | 01:45:13 | 00:00:00 | |
| DM0DOS-11 | 2026-09-02 08:20:05 | 52.61119 | 8.22524 | 113° | 44km/h | 16499m | -8.3m/s | -51.5°C | 3.8% | 100hPa | 2.7V | 08:16:54 | 01:45:07 | 00:00:00 | |
| BUE01 | 2026-09-02 08:20:05 | 52.61098 | 8.22616 | 110° | 49km/h | 16458m | -8.3m/s | -51.4°C | 1.4% | 100.6hPa | 2.6V | 00:00:00 | 00:00:00 | 00:00:00 | |
| DF8AY | 2026-09-02 08:20:05 | 52.61098 | 8.22616 | 111° | 49km/h | 16457m | -8.3m/s | -51.4°C | 0.8% | 100.6hPa | 2.7V | 08:17:28 | 01:45:12 | 00:00:00 | |
| DJ2DS-15 | 2026-09-02 08:20:04 | 52.61102 | 8.22597 | 111° | 40km/h | 16466m | -8.1m/s | -51.4°C | 3.8% | 100.4hPa | 2.6V | 00:00:00 | 01:45:11 | 00:00:00 | |
| GOEST3-10 | 2026-09-02 08:20:02 | 52.61110 | 8.22559 | 112° | 44km/h | 16482m | -8.3m/s | -51.4°C | 3.8% | 100.2hPa | 2.6V | 00:00:00 | 01:45:09 | 00:00:00 | |
| DL1NUX | 2026-09-02 08:20:01 | 52.61136 | 8.22461 | 111° | 40km/h | 16532m | -8.5m/s | -51.3°C | 3.7% | 99.5hPa | 2.6V | 08:16:58 | 01:45:03 | 00:00:00 | |
| DO2JMG | 2026-09-02 08:20:00 | 52.61119 | 8.22524 | 114° | 44km/h | 16499m | -8.3m/s | -51.6°C | 0.8% | 100hPa | 2.7V | 08:17:28 | 01:45:07 | 00:00:00 | |
| DL1XH-15 | 2026-09-02 08:19:59 | 52.61142 | 8.22430 | 107° | 38km/h | 16549m | -8.3m/s | -51.4°C | 3.7% | 99.2hPa | 2.7V | 08:17:00 | 01:45:01 | 00:00:00 | |
| AA1-15 | 2026-09-02 08:19:58 | 52.61128 | 8.22492 | 114° | 42km/h | 16516m | -8.1m/s | -51.4°C | 0.8% | 99.7hPa | 2.6V | 08:17:28 | 01:45:05 | 00:00:00 | |
| DL1XH-west | 2026-09-02 08:19:57 | 52.61132 | 8.22476 | 113° | 40km/h | 16524m | -8.3m/s | -51.4°C | 0.7% | 99.6hPa | 2.6V | 08:17:28 | 01:45:04 | 00:00:00 | |
| DD8BA-10 | 2026-09-02 08:19:56 | 52.61136 | 8.22461 | 112° | 37km/h | 16532m | -8.4m/s | -51.3°C | 3.7% | 99.4hPa | 2.6V | 00:00:00 | 00:00:00 | 00:00:00 | |
| DM0DOS-11 | 2026-09-02 08:19:55 | 52.61151 | 8.22370 | 101° | 37km/h | 16582m | -8.7m/s | -51.4°C | 3.6% | 98.7hPa | 2.6V | 08:17:04 | 01:44:57 | 00:00:00 | |
| BIOWL1-15 | 2026-09-02 08:19:55 | 52.61139 | 8.22445 | 110° | 38km/h | 16541m | -8.3m/s | -51.3°C | 0.6% | 99.3hPa | 2.7V | 08:17:28 | 01:45:02 | 00:00:00 | |
| DF8AY | 2026-09-02 08:19:54 | 52.61142 | 8.22430 | 108° | 38km/h | 16549m | -8.4m/s | -51.4°C | 0.7% | 99.2hPa | 2.7V | 08:17:28 | 01:45:01 | 00:00:00 | |
| DL3AQ-11 | 2026-09-02 08:19:53 | 52.61155 | 8.22341 | 104° | 35km/h | 16600m | -8.4m/s | -51.5°C | 1.3% | 98.5hPa | 2.6V | 00:00:00 | 00:00:00 | 00:00:00 | |
| GOEST3-10 | 2026-09-02 08:19:52 | 52.61147 | 8.22400 | 104° | 37km/h | 16566m | -8.3m/s | -51.3°C | 3.7% | 98.9hPa | 2.6V | 00:00:00 | 01:44:59 | 00:00:00 | |
| DL1NUX | 2026-09-02 08:19:51 | 52.61161 | 8.22314 | 110° | 35km/h | 16616m | -8.4m/s | -51.6°C | 3.7% | 98.2hPa | 2.6V | 08:17:08 | 01:44:53 | 00:00:00 | |
| HSKMA3-T | 2026-09-02 08:19:49 | 52.61153 | 8.22356 | 103° | 35km/h | 16591m | -8.6m/s | -51.4°C | 0.6% | 98.6hPa | 2.7V | 08:17:28 | 01:44:56 | 00:00:00 | |
| AA1-15 | 2026-09-02 08:19:47 | 52.61158 | 8.22328 | 109° | 35km/h | 16608m | -8.4m/s | -51.6°C | 0.7% | 98.3hPa | 2.7V | 08:17:28 | 01:44:54 | 00:00:00 | |
| DL1XH-west | 2026-09-02 08:19:46 | 52.61161 | 8.22314 | 111° | 35km/h | 16616m | -8.4m/s | -51.6°C | 0.7% | 98.2hPa | 2.6V | 08:17:28 | 01:44:53 | 00:00:00 | |
| BIOWL1-15 | 2026-09-02 08:19:45 | 52.61164 | 8.22301 | 114° | 35km/h | 16625m | -8.2m/s | -51.7°C | 0.6% | 98hPa | 2.6V | 08:17:28 | 01:44:52 | 00:00:00 | |
| DL1XH1-15 | 2026-09-02 08:19:44 | 52.61188 | 8.22224 | 112° | 37km/h | 16676m | -8.4m/s | -52°C | 3.7% | 97.3hPa | 2.6V | 08:17:15 | 01:44:46 | 00:00:00 | |
| DF8AY | 2026-09-02 08:19:43 | 52.61172 | 8.22276 | 119° | 35km/h | 16642m | -8.4m/s | -51.8°C | 0.6% | 97.8hPa | 2.7V | 08:17:28 | 01:44:50 | 00:00:00 | |
| DN9WHV | 2026-09-02 08:19:43 | 52.61172 | 8.22276 | 120° | 35km/h | 16642m | -8.4m/s | -51.8°C | 1.3% | 97.8hPa | 2.6V | 08:17:00 | 00:00:00 | 00:00:00 | |
| GOEST3-10 | 2026-09-02 08:19:42 | 52.61176 | 8.22263 | 118° | 35km/h | 16650m | -8.3m/s | -51.8°C | 3.7% | 97.6hPa | 2.6V | 00:00:00 | 01:44:49 | 00:00:00 | |
| DN9WHV | 2026-09-02 08:19:41 | 52.61176 | 8.22263 | 118° | 35km/h | 16650m | -8.3m/s | -51.9°C | 1.3% | 97.7hPa | 2.6V | 08:17:00 | 00:00:00 | 00:00:00 | |
| DL1NUX | 2026-09-02 08:19:41 | 52.61197 | 8.22181 | 105° | 35km/h | 16700m | -8.4m/s | -52.2°C | 3.8% | 96.9hPa | 2.7V | 08:17:18 | 01:44:43 | 00:00:00 | |
| DB0DAN | 2026-09-02 08:19:40 | 52.61184 | 8.22237 | 115° | 33km/h | 16667m | -8.6m/s | -51.9°C | 1.3% | 97.42hPa | 2.6V | 00:00:00 | 00:00:00 | 00:00:00 | |
| DL1XH-15 | 2026-09-02 08:19:39 | 52.61201 | 8.22153 | 106° | 35km/h | 16718m | -8.7m/s | -52.3°C | 3.9% | 96.7hPa | 2.6V | 08:17:20 | 01:44:41 | 00:00:00 | |
| DO2JMG | 2026-09-02 08:19:39 | 52.61188 | 8.22224 | 113° | 37km/h | 16676m | -8.4m/s | -52°C | 0.6% | 97.3hPa | 2.6V | 08:17:28 | 01:44:46 | 00:00:00 | |
| AA1-15 | 2026-09-02 08:19:36 | 52.61196 | 8.22181 | 105° | 35km/h | 16701m | -8.4m/s | -52.2°C | 0.7% | 96.9hPa | 2.7V | 08:17:28 | 01:44:43 | 00:00:00 | |
| DL1XH-west | 2026-09-02 08:19:35 | 52.61199 | 8.22167 | 106° | 37km/h | 16709m | -8.6m/s | -52.2°C | 0.8% | 96.8hPa | 2.7V | 08:17:28 | 01:44:42 | 00:00:00 | |
| DL1XH1-15 | 2026-09-02 08:19:34 | 52.61215 | 8.22088 | 111° | 31km/h | 16760m | -8.5m/s | -52.3°C | 3.8% | 96hPa | 2.6V | 08:17:25 | 01:44:36 | 00:00:00 | |
| DF8AY | 2026-09-02 08:19:33 | 52.61204 | 8.22139 | 107° | 35km/h | 16726m | -8.6m/s | -52.2°C | 0.7% | 96.5hPa | 2.6V | 08:17:28 | 01:44:40 | 00:00:00 | |
| GOEST3-10 | 2026-09-02 08:19:32 | 52.61206 | 8.22126 | 110° | 31km/h | 16735m | -8.5m/s | -52.2°C | 3.8% | 96.3hPa | 2.6V | 00:00:00 | 01:44:39 | 00:00:00 | |
| DD1CC2-15 | 2026-09-02 08:19:31 | 52.61206 | 8.22126 | 111° | 33km/h | 16735m | -8.6m/s | -52.2°C | 1.4% | 96.4hPa | 2.6V | 08:17:00 | 00:00:00 | 00:00:00 | |
| DF5WG-10 | 2026-09-02 08:19:30 | 52.61212 | 8.22100 | 112° | 33km/h | 16752m | -8.5m/s | -52.2°C | 3.8% | 96.1hPa | 2.6V | 00:00:00 | 01:44:37 | 00:00:00 | |
| DL1XH-15 | 2026-09-02 08:19:29 | 52.61227 | 8.22029 | 100° | 31km/h | 16803m | -8.7m/s | -52.5°C | 3.9% | 95.4hPa | 2.6V | 08:17:30 | 01:44:31 | 00:00:00 | |
| DO2JMG | 2026-09-02 08:19:28 | 52.61218 | 8.22077 | 113° | 31km/h | 16769m | -8.6m/s | -52.3°C | 0.8% | 95.9hPa | 2.6V | 08:17:28 | 01:44:35 | 00:00:00 | |
| DL1XH-west | 2026-09-02 08:19:25 | 52.61225 | 8.22041 | 103° | 29km/h | 16794m | -8.5m/s | -52.5°C | 0.8% | 95.5hPa | 2.6V | 08:18:19 | 01:44:32 | 00:00:00 | |
| BIOWL1-15 | 2026-09-02 08:19:24 | 52.61227 | 8.22029 | 101° | 31km/h | 16803m | -8.7m/s | -52.5°C | 0.8% | 95.4hPa | 2.6V | 08:18:19 | 01:44:31 | 00:00:00 | |
| DF8AY | 2026-09-02 08:19:21 | 52.61230 | 8.21987 | 94° | 37km/h | 16828m | -8.2m/s | -52.8°C | 0.9% | 95hPa | 2.6V | 08:18:19 | 01:44:28 | 00:00:00 | |
| EDDB2-12 | 2026-09-02 08:19:20 | 52.61230 | 8.21972 | 92° | 37km/h | 16837m | -8.4m/s | -52.8°C | 1.4% | 94.9hPa | 2.7V | 00:00:00 | 00:00:00 | 00:00:00 | |
| DL1XH-15 | 2026-09-02 08:19:19 | 52.61235 | 8.21869 | 99° | 44km/h | 16887m | -8.3m/s | -53°C | 4% | 94.1hPa | 2.7V | 08:17:40 | 01:44:21 | 00:00:00 | |
| DF5WG-10 | 2026-09-02 08:19:19 | 52.61230 | 8.21956 | 93° | 42km/h | 16845m | -8.6m/s | -52.8°C | 4.0% | 94.7hPa | 2.7V | 00:00:00 | 01:44:26 | 00:00:00 | |
| DJ2KF-10 | 2026-09-02 08:19:18 | 52.61231 | 8.21939 | 93° | 46km/h | 16854m | -8.5m/s | -52.9°C | 4.0% | 94.6hPa | 2.7V | 00:00:00 | 01:44:25 | 00:00:00 | |
| DO9LL-15 | 2026-09-02 08:19:17 | 52.61232 | 8.21922 | 95° | 46km/h | 16862m | -8.5m/s | -52.9°C | 4.0% | 94.5hPa | 2.7V | 00:00:00 | 01:44:24 | 00:00:00 | |
| DO2JMG | 2026-09-02 08:19:17 | 52.61232 | 8.21922 | 95° | 42km/h | 16862m | -8.6m/s | -53°C | 0.9% | 94.5hPa | 2.6V | 08:18:19 | 01:44:24 | 00:00:00 | |
| DN9WHV | 2026-09-02 08:19:16 | 52.61232 | 8.21922 | 96° | 42km/h | 16862m | -8.6m/s | -53.0°C | 1.4% | 94.5hPa | 2.7V | 08:18:00 | 00:00:00 | 00:00:00 | |
| DM0DOS-11 | 2026-09-02 08:19:15 | 52.61245 | 8.21799 | 104° | 44km/h | 16921m | -8.5m/s | -52.7°C | 3.9% | 93.7hPa | 2.7V | 08:17:44 | 01:44:17 | 00:00:00 | |
| AA1-15 | 2026-09-02 08:19:15 | 52.61234 | 8.21887 | 98° | 42km/h | 16879m | -8.3m/s | -53°C | 0.9% | 94.3hPa | 2.7V | 08:18:19 | 01:44:22 | 00:00:00 | |
| DL1XH-west | 2026-09-02 08:19:14 | 52.61236 | 8.21869 | 99° | 44km/h | 16887m | -8.3m/s | -53°C | 0.8% | 94.1hPa | 2.7V | 08:18:19 | 01:44:21 | 00:00:00 | |
| DN9WHV | 2026-09-02 08:19:13 | 52.61235 | 8.21869 | 100° | 44km/h | 16888m | -8.3m/s | -53.0°C | 1.4% | 94.1hPa | 2.7V | 08:18:00 | 00:00:00 | 00:00:00 | |
| GOEST3-10 | 2026-09-02 08:19:12 | 52.61240 | 8.21834 | 102° | 44km/h | 16905m | -8.4m/s | -52.8°C | 4.0% | 93.9hPa | 2.7V | 00:00:00 | 01:44:19 | 00:00:00 | |
| DL1NUX | 2026-09-02 08:19:11 | 52.61257 | 8.21729 | 107° | 44km/h | 16955m | -8.7m/s | -52.6°C | 3.9% | 93.2hPa | 2.7V | 08:17:48 | 01:44:13 | 00:00:00 | |
| DF8AY | 2026-09-02 08:19:10 | 52.61245 | 8.21799 | 105° | 44km/h | 16921m | -8.5m/s | -52.7°C | 0.8% | 93.7hPa | 2.7V | 08:18:19 | 01:44:17 | 00:00:00 | |
| DL1XH-15 | 2026-09-02 08:19:09 | 52.61264 | 8.21694 | 108° | 46km/h | 16973m | -8.8m/s | -52.7°C | 3.9% | 92.9hPa | 2.7V | 08:17:50 | 01:44:11 | 00:00:00 | |
| DO2JMG | 2026-09-02 08:19:07 | 52.61254 | 8.21747 | 107° | 44km/h | 16947m | -8.5m/s | -52.7°C | 0.8% | 93.3hPa | 2.6V | 08:18:19 | 01:44:14 | 00:00:00 | |
| DB0NH | 2026-09-02 08:19:07 | 52.61254 | 8.21747 | 107° | 42km/h | 16947m | -8.4m/s | -52.6°C | 3.9% | 93.2hPa | 2.6V | 08:17:00 | 01:44:14 | 00:00:00 | |
| DL4BBY-15 | 2026-09-02 08:19:06 | 52.61257 | 8.21729 | 108° | 42km/h | 16955m | -8.7m/s | -53.2°C | 0% | 0hPa | 2.7V | 00:00:00 | 00:00:00 | 00:00:00 | |
| DM0DOS-11 | 2026-09-02 08:19:05 | 52.61282 | 8.21617 | 111° | 51km/h | 17007m | -8.7m/s | -52.8°C | 4% | 92.4hPa | 2.7V | 08:17:54 | 01:44:07 | 00:00:00 | |
| EDDB2-11 | 2026-09-02 08:19:05 | 52.61261 | 8.21712 | 107° | 44km/h | 16964m | -8.7m/s | -52.7°C | 1.4% | 93.0hPa | 2.7V | 00:00:00 | 00:00:00 | 00:00:00 | |
| DL1XH1-15 | 2026-09-02 08:19:04 | 52.61286 | 8.21597 | 112° | 51km/h | 17015m | -8.5m/s | -52.8°C | 4.1% | 92.3hPa | 2.7V | 08:17:55 | 01:44:06 | 00:00:00 | |
| AA1-15 | 2026-09-02 08:19:04 | 52.61264 | 8.21694 | 109° | 46km/h | 16973m | -8.8m/s | -52.7°C | 0.8% | 92.9hPa | 2.7V | 08:18:19 | 01:44:11 | 00:00:00 | |
| DL1XH-west | 2026-09-02 08:19:03 | 52.61268 | 8.21675 | 109° | 47km/h | 16982m | -8.3m/s | -52.6°C | 0.8% | 92.8hPa | 2.6V | 08:18:19 | 01:44:10 | 00:00:00 | |
| DF8AY | 2026-09-02 08:19:00 | 52.61281 | 8.21617 | 112° | 51km/h | 17007m | -8.7m/s | -52.8°C | 0.8% | 92.4hPa | 2.7V | 08:18:19 | 01:44:07 | 00:00:00 | |
| DL3AQ-11 | 2026-09-02 08:18:58 | 52.61297 | 8.21560 | 116° | 47km/h | 17033m | -8.6m/s | -52.9°C | 1.4% | 92.0hPa | 2.6V | 00:00:00 | 00:00:00 | 00:00:00 | |
| NBG1-10 | 2026-09-02 08:18:57 | 52.61297 | 8.21560 | 117° | 33km/h | 17033m | -8.6m/s | 0°C | 0% | 0hPa | 2.6V | 00:00:00 | 01:44:04 | 00:00:00 | |
| DO2JMG | 2026-09-02 08:18:57 | 52.61297 | 8.21560 | 116° | 49km/h | 17033m | -8.6m/s | -52.9°C | 0.9% | 92hPa | 2.6V | 08:18:19 | 01:44:04 | 00:00:00 | |
| DD8BA-10 | 2026-09-02 08:18:56 | 52.61302 | 8.21542 | 118° | 42km/h | 17041m | -8.4m/s | -52.9°C | 4.1% | 91.9hPa | 2.6V | 00:00:00 | 00:00:00 | 00:00:00 | |
| DM0DOS-11 | 2026-09-02 08:18:55 | 52.61333 | 8.21444 | 114° | 40km/h | 17092m | -8.4m/s | -52.9°C | 4.1% | 91.2hPa | 2.6V | 08:18:04 | 01:43:57 | 00:00:00 | |
| DL1XH1-15 | 2026-09-02 08:18:54 | 52.61337 | 8.21429 | 115° | 40km/h | 17101m | -8.7m/s | -52.7°C | 4% | 91.1hPa | 2.6V | 08:18:05 | 01:43:56 | 00:00:00 | |
| BIOWL1-15 | 2026-09-02 08:18:53 | 52.61319 | 8.21492 | 117° | 44km/h | 17067m | -8.6m/s | -53°C | 0.9% | 91.6hPa | 2.7V | 08:18:19 | 01:44:00 | 00:00:00 | |
| DL1XH-west | 2026-09-02 08:18:52 | 52.61324 | 8.21476 | 118° | 44km/h | 17075m | -8.5m/s | -53°C | 0.9% | 91.4hPa | 2.7V | 08:18:19 | 01:43:59 | 00:00:00 | |
| GOEST3-10 | 2026-09-02 08:18:52 | 52.61323 | 8.21475 | 118° | 40km/h | 17076m | -8.4m/s | -53.0°C | 4.1% | 91.4hPa | 2.7V | 08:18:00 | 01:43:59 | 00:00:00 | |
| DN9WHV | 2026-09-02 08:18:51 | 52.61323 | 8.21475 | 119° | 44km/h | 17076m | -8.5m/s | -53.0°C | 1.4% | 91.4hPa | 2.6V | 08:18:00 | 00:00:00 | 00:00:00 | |
| DL1XH-15 | 2026-09-02 08:18:49 | 52.61355 | 8.21355 | 109° | 37km/h | 17144m | -8.8m/s | -52.2°C | 3.9% | 90.5hPa | 2.6V | 08:18:10 | 01:43:51 | 00:00:00 | |
| DF8AY | 2026-09-02 08:18:49 | 52.61337 | 8.21429 | 115° | 40km/h | 17101m | -8.7m/s | -52.7°C | 0.8% | 91.1hPa | 2.6V | 08:18:19 | 01:43:56 | 00:00:00 | |
| DO2JMG | 2026-09-02 08:18:46 | 52.61348 | 8.21384 | 111° | 38km/h | 17127m | -8.6m/s | -52.4°C | 0.8% | 90.7hPa | 2.7V | 08:18:19 | 01:43:53 | 00:00:00 | |
| DD8BA-10 | 2026-09-02 08:18:46 | 52.61348 | 8.21384 | 111° | 35km/h | 17127m | -8.6m/s | -52.4°C | 4.0% | 90.7hPa | 2.7V | 00:00:00 | 00:00:00 | 00:00:00 | |
| DN9WHV | 2026-09-02 08:18:45 | 52.61348 | 8.21384 | 112° | 38km/h | 17127m | -8.6m/s | -52.4°C | 1.4% | 90.7hPa | 2.6V | 08:18:00 | 00:00:00 | 00:00:00 | |
| DL1XH1-15 | 2026-09-02 08:18:44 | 52.61368 | 8.21284 | 103° | 33km/h | 17187m | -8.8m/s | -52.1°C | 3.9% | 89.9hPa | 2.6V | 08:18:15 | 01:43:46 | 00:00:00 | |
| DL1XH-west | 2026-09-02 08:18:42 | 52.61361 | 8.21326 | 107° | 37km/h | 17161m | -8.6m/s | -52.1°C | 0.7% | 90.2hPa | 2.7V | 08:18:19 | 01:43:49 | 00:00:00 | |
| GOEST3-10 | 2026-09-02 08:18:42 | 52.61360 | 8.21326 | 108° | 35km/h | 17161m | -8.6m/s | -52.1°C | 3.9% | 90.2hPa | 2.7V | 00:00:00 | 01:43:49 | 00:00:00 | |
| DB0DAN | 2026-09-02 08:18:40 | 52.61366 | 8.21298 | 106° | 33km/h | 17179m | -8.8m/s | -52.1°C | 1.3% | 89.95hPa | 2.7V | 00:00:00 | 00:00:00 | 00:00:00 | |
| DL1XH-15 | 2026-09-02 08:18:39 | 52.61379 | 8.21224 | 108° | 27km/h | 17231m | -8.9m/s | -52°C | 3.8% | 89.2hPa | 2.7V | 08:18:20 | 01:43:41 | 00:00:00 | |
| DF8AY | 2026-09-02 08:18:38 | 52.61370 | 8.21271 | 106° | 33km/h | 17196m | -8.7m/s | -52.1°C | 0.7% | 89.7hPa | 2.6V | 08:18:19 | 01:43:45 | 00:00:00 | |
| DL1NUX | 2026-09-02 08:18:38 | 52.61381 | 8.21213 | 109° | 26km/h | 17239m | -8.6m/s | -51.9°C | 3.8% | 89.1hPa | 2.6V | 08:18:21 | 01:43:40 | 00:00:00 | |
| DO2JMG | 2026-09-02 08:18:36 | 52.61375 | 8.21246 | 107° | 29km/h | 17213m | -8.6m/s | -52°C | 0.7% | 89.5hPa | 2.7V | 08:18:19 | 01:43:43 | 00:00:00 | |
| HSKMA3-T | 2026-09-02 08:18:35 | 52.61377 | 8.21235 | 108° | 29km/h | 17222m | -9m/s | -52°C | 0.8% | 89.4hPa | 2.7V | 08:18:19 | 01:43:42 | 00:00:00 | |
| DL1XH-west | 2026-09-02 08:18:32 | 52.61384 | 8.21203 | 113° | 26km/h | 17248m | -8.5m/s | -51.9°C | 0.7% | 89hPa | 2.6V | 08:19:10 | 01:43:39 | 00:00:00 | |
| AA1-15 | 2026-09-02 08:18:31 | 52.61386 | 8.21194 | 110° | 24km/h | 17257m | -8.7m/s | -51.8°C | 0.6% | 88.9hPa | 2.6V | 08:19:10 | 01:43:38 | 00:00:00 | |
| DO3DL | 2026-09-02 08:18:30 | 52.61386 | 8.21194 | 111° | 24km/h | 17257m | -8.7m/s | -51.8°C | 1.3% | 88.9hPa | 2.7V | 08:19:00 | 00:00:00 | 00:00:00 | |
| DL1XH-15 | 2026-09-02 08:18:29 | 52.61397 | 8.21130 | 100° | 22km/h | 17319m | -9.1m/s | -52°C | 3.8% | 88hPa | 2.7V | 08:18:30 | 01:43:31 | 00:00:00 | |
| DF8AY | 2026-09-02 08:18:27 | 52.61393 | 8.21157 | 105° | 22km/h | 17292m | -9.2m/s | -51.9°C | 0.7% | 88.4hPa | 2.6V | 08:19:10 | 01:43:34 | 00:00:00 | |
| DO2JMG | 2026-09-02 08:18:25 | 52.61396 | 8.21139 | 102° | 22km/h | 17310m | -8.8m/s | -51.9°C | 0.7% | 88.1hPa | 2.6V | 08:19:10 | 01:43:32 | 00:00:00 | |
| DB0DAN | 2026-09-02 08:18:25 | 52.61396 | 8.21139 | 102° | 20km/h | 17310m | -8.8m/s | -51.9°C | 1.3% | 88.14hPa | 2.6V | 00:00:00 | 00:00:00 | 00:00:00 | |
| HSKMA3-T | 2026-09-02 08:18:24 | 52.61397 | 8.21130 | 100° | 22km/h | 17319m | -9.1m/s | -52°C | 0.7% | 88hPa | 2.7V | 08:19:10 | 01:43:31 | 00:00:00 | |
| BIOWL1-15 | 2026-09-02 08:18:22 | 52.61399 | 8.21113 | 96° | 22km/h | 17337m | -8.8m/s | -52°C | 0.8% | 87.8hPa | 2.7V | 08:19:10 | 01:43:29 | 00:00:00 | |
| DL1XH-west | 2026-09-02 08:18:21 | 52.61399 | 8.21104 | 92° | 22km/h | 17346m | -8.8m/s | -52°C | 0.8% | 87.7hPa | 2.6V | 08:19:10 | 01:43:28 | 00:00:00 | |
| AA1-15 | 2026-09-02 08:18:20 | 52.61399 | 8.21094 | 90° | 24km/h | 17354m | -8.8m/s | -51.9°C | 0.7% | 87.6hPa | 2.6V | 08:19:10 | 01:43:27 | 00:00:00 | |
| DF5WG-10 | 2026-09-02 08:18:19 | 52.61399 | 8.21084 | 88° | 29km/h | 17363m | -8.9m/s | -51.8°C | 3.8% | 87.4hPa | 2.6V | 00:00:00 | 01:43:26 | 00:00:00 | |
| EDDB2-12 | 2026-09-02 08:18:18 | 52.61399 | 8.21074 | 85° | 26km/h | 17372m | -8.9m/s | -51.9°C | 1.3% | 87.3hPa | 2.7V | 00:00:00 | 00:00:00 | 00:00:00 | |
| DL1NUX | 2026-09-02 08:18:17 | 52.61395 | 8.21000 | 85° | 31km/h | 17425m | -8.9m/s | -52°C | 3.9% | 86.6hPa | 2.7V | 08:18:42 | 01:43:19 | 00:00:00 | |
| DF8AY | 2026-09-02 08:18:16 | 52.61397 | 8.21051 | 84° | 29km/h | 17390m | -8.8m/s | -51.8°C | 0.7% | 87.1hPa | 2.7V | 08:19:10 | 01:43:23 | 00:00:00 | |
| DD8BA-10 | 2026-09-02 08:18:16 | 52.61397 | 8.21051 | 84° | 29km/h | 17390m | -8.8m/s | -51.8°C | 3.9% | 87.0hPa | 2.7V | 00:00:00 | 00:00:00 | 00:00:00 | |
| D01LWL | 2026-09-02 08:18:15 | 52.61397 | 8.21039 | 84° | 29km/h | 17399m | -8.8m/s | -51.9°C | 1.3% | 87.0hPa | 2.6V | 00:00:00 | 00:00:00 | 00:00:00 | |
| DL1XH1-15 | 2026-09-02 08:18:14 | 52.61394 | 8.20963 | 89° | 29km/h | 17452m | -9m/s | -52°C | 3.9% | 86.3hPa | 2.6V | 08:18:45 | 01:43:16 | 00:00:00 | |
| DO2JMG | 2026-09-02 08:18:14 | 52.61396 | 8.21026 | 84° | 31km/h | 17407m | -8.7m/s | -51.9°C | 0.8% | 86.8hPa | 2.6V | 08:19:10 | 01:43:21 | 00:00:00 | |
| HSKMA3-T | 2026-09-02 08:18:13 | 52.61395 | 8.21013 | 86° | 31km/h | 17416m | -8.8m/s | -52°C | 0.8% | 86.7hPa | 2.6V | 08:19:10 | 01:43:20 | 00:00:00 | |
| BIOWL1-15 | 2026-09-02 08:18:13 | 52.61394 | 8.20987 | 87° | 31km/h | 17434m | -9m/s | -52°C | 0.8% | 86.5hPa | 2.7V | 08:19:10 | 01:43:18 | 00:00:00 | |
| DL1XH-west | 2026-09-02 08:18:10 | 52.61394 | 8.20975 | 88° | 29km/h | 17443m | -8.9m/s | -52°C | 0.8% | 86.4hPa | 2.7V | 08:19:10 | 01:43:17 | 00:00:00 | |
| DB0DAN | 2026-09-02 08:18:10 | 52.61394 | 8.20975 | 88° | 27km/h | 17443m | -8.9m/s | -52°C | 1.3% | 86.39hPa | 2.7V | 00:00:00 | 00:00:00 | 00:00:00 | |
| DL1XH-15 | 2026-09-02 08:18:09 | 52.61396 | 8.20906 | 98° | 27km/h | 17496m | -8.8m/s | -51.7°C | 3.8% | 85.7hPa | 2.7V | 08:18:50 | 01:43:11 | 00:00:00 | |
| AA1-15 | 2026-09-02 08:18:09 | 52.61394 | 8.20963 | 90° | 29km/h | 17452m | -9m/s | -52.1°C | 0.8% | 86.3hPa | 2.6V | 08:19:10 | 01:43:16 | 00:00:00 | |
| DF8AY | 2026-09-02 08:18:06 | 52.61395 | 8.20929 | 95° | 27km/h | 17478m | -8.8m/s | -51.9°C | 0.7% | 85.9hPa | 2.7V | 08:19:10 | 01:43:13 | 00:00:00 | |
| DB0ND-19 | 2026-09-02 08:18:06 | 52.61395 | 8.20917 | 97° | 27km/h | 17487m | -8.7m/s | -51.7°C | 1.3% | 85.8hPa | 2.7V | 00:00:00 | 00:00:00 | 00:00:00 | |
| DM0DOS-11 | 2026-09-02 08:18:05 | 52.61401 | 8.20857 | 101° | 31km/h | 17531m | -9m/s | -51.6°C | 3.8% | 85.2hPa | 2.7V | 08:18:54 | 01:43:07 | 00:00:00 | |
| DO2JMG | 2026-09-02 08:18:04 | 52.61396 | 8.20906 | 99° | 27km/h | 17496m | -8.8m/s | -51.7°C | 0.7% | 85.7hPa | 2.7V | 08:19:10 | 01:43:11 | 00:00:00 | |
| HSKMA3-T | 2026-09-02 08:18:03 | 52.61397 | 8.20894 | 99° | 29km/h | 17504m | -8.8m/s | -51.6°C | 0.7% | 85.5hPa | 2.6V | 08:19:10 | 01:43:10 | 00:00:00 | |
| BIOWL1-15 | 2026-09-02 08:18:01 | 52.61400 | 8.20870 | 100° | 31km/h | 17522m | -8.9m/s | -51.6°C | 0.7% | 85.3hPa | 2.6V | 08:19:10 | 01:43:08 | 00:00:00 | |
| DL1XH-west | 2026-09-02 08:18:00 | 52.61401 | 8.20857 | 101° | 31km/h | 17531m | -9m/s | -51.6°C | 0.7% | 85.2hPa | 2.7V | 08:19:10 | 01:43:07 | 00:00:00 | |
| DL1XH-15 | 2026-09-02 08:17:59 | 52.61408 | 8.20777 | 94° | 33km/h | 17585m | -9.2m/s | -51.4°C | 3.8% | 84.5hPa | 2.7V | 08:19:00 | 01:43:01 | 00:00:00 | |
| AA1-15 | 2026-09-02 08:17:58 | 52.61404 | 8.20831 | 98° | 33km/h | 17549m | -9.2m/s | -51.6°C | 0.7% | 85hPa | 2.7V | 08:19:10 | 01:43:05 | 00:00:00 | |
| GOEST3-10 | 2026-09-02 08:17:57 | 52.61405 | 8.20818 | 98° | 33km/h | 17558m | -9.1m/s | -51.5°C | 3.8% | 84.8hPa | 2.6V | 00:00:00 | 00:00:00 | 00:00:00 | |
| DD8BA-10 | 2026-09-02 08:17:56 | 52.61406 | 8.20804 | 98° | 33km/h | 17567m | -8.9m/s | -51.4°C | 3.8% | 84.7hPa | 2.6V | 00:00:00 | 00:00:00 | 00:00:00 | |
| DM0DOS-11 | 2026-09-02 08:17:55 | 52.61408 | 8.20722 | 87° | 33km/h | 17621m | -9.1m/s | -51.3°C | 3.7% | 84hPa | 2.6V | 08:19:04 | 01:42:57 | 00:00:00 | |
| DF8AY | 2026-09-02 08:17:55 | 52.61407 | 8.20791 | 95° | 33km/h | 17576m | -9.2m/s | -51.4°C | 0.6% | 84.6hPa | 2.6V | 08:19:10 | 01:43:02 | 00:00:00 | |
| DB0DAN | 2026-09-02 08:17:55 | 52.61407 | 8.20791 | 95° | 31km/h | 17576m | -9.2m/s | -51.4°C | 1.2% | 84.64hPa | 2.6V | 00:00:00 | 00:00:00 | 00:00:00 | |
| DL1XH1-15 | 2026-09-02 08:17:54 | 52.61408 | 8.20708 | 86° | 33km/h | 17630m | -8.8m/s | -51.4°C | 3.7% | 83.9hPa | 2.6V | 08:19:05 | 01:42:56 | 00:00:00 | |
| DO2JMG | 2026-09-02 08:17:54 | 52.61408 | 8.20777 | 95° | 33km/h | 17585m | -9.2m/s | -51.4°C | 0.7% | 84.5hPa | 2.7V | 08:19:10 | 01:43:01 | 00:00:00 | |
| HSKMA3-T | 2026-09-02 08:17:52 | 52.61409 | 8.20750 | 92° | 33km/h | 17603m | -8.9m/s | -51.3°C | 0.7% | 84.3hPa | 2.7V | 08:19:10 | 01:42:59 | 00:00:00 | |
| BIOWL1-15 | 2026-09-02 08:17:51 | 52.61409 | 8.20736 | 89° | 33km/h | 17612m | -8.8m/s | -51.3°C | 0.6% | 84.2hPa | 2.6V | 08:19:10 | 01:42:58 | 00:00:00 | |
| DL1XH-west | 2026-09-02 08:17:50 | 52.61408 | 8.20722 | 88° | 33km/h | 17621m | -9.1m/s | -51.3°C | 0.7% | 84hPa | 2.6V | 08:19:10 | 01:42:57 | 00:00:00 | |
| DL1XH-15 | 2026-09-02 08:17:49 | 52.61404 | 8.20639 | 83° | 37km/h | 17675m | -9.2m/s | -51.3°C | 3.7% | 83.3hPa | 2.6V | 08:19:10 | 01:42:51 | 00:00:00 | |
| AA1-15 | 2026-09-02 08:17:47 | 52.61407 | 8.20681 | 85° | 33km/h | 17648m | -9m/s | -51.5°C | 0.7% | 83.7hPa | 2.7V | 08:19:10 | 01:42:54 | 00:00:00 | |
| DF8AY | 2026-09-02 08:17:45 | 52.61405 | 8.20653 | 85° | 35km/h | 17666m | -9.1m/s | -51.4°C | 0.6% | 83.5hPa | 2.6V | 08:19:10 | 01:42:52 | 00:00:00 | |
| DL1XH1-15 | 2026-09-02 08:17:44 | 52.61396 | 8.20557 | 79° | 42km/h | 17720m | -9.3m/s | -51.2°C | 3.7% | 82.8hPa | 2.6V | 08:19:15 | 01:42:46 | 00:00:00 | |
| DO2JMG | 2026-09-02 08:17:43 | 52.61403 | 8.20623 | 83° | 38km/h | 17684m | -9.1m/s | -51.2°C | 0.6% | 83.2hPa | 2.6V | 08:20:01 | 01:42:50 | 00:00:00 | |
| HSKMA3-T | 2026-09-02 08:17:42 | 52.61402 | 8.20607 | 81° | 40km/h | 17693m | -9.2m/s | -51.2°C | 0.6% | 83.1hPa | 2.7V | 08:20:01 | 01:42:49 | 00:00:00 | |
| DL1XH-west | 2026-09-02 08:17:40 | 52.61399 | 8.20574 | 79° | 42km/h | 17711m | -9.3m/s | -51.2°C | 0.7% | 82.9hPa | 2.7V | 08:20:01 | 01:42:47 | 00:00:00 | |
| AA1-15 | 2026-09-02 08:17:36 | 52.61390 | 8.20508 | 77° | 38km/h | 17748m | -9m/s | -51.4°C | 0.7% | 82.4hPa | 2.7V | 08:20:01 | 01:42:43 | 00:00:00 | |
| DF8AY | 2026-09-02 08:17:35 | 52.61388 | 8.20493 | 78° | 37km/h | 17757m | -9.3m/s | -51.5°C | 0.7% | 82.3hPa | 2.7V | 08:20:01 | 01:42:42 | 00:00:00 | |
| DB0ND-19 | 2026-09-02 08:17:35 | 52.61386 | 8.20479 | 76° | 35km/h | 17766m | -9.2m/s | -51.5°C | 1.3% | 82.2hPa | 2.7V | 00:00:00 | 00:00:00 | 00:00:00 | |
| DL1XH1-15 | 2026-09-02 08:17:34 | 52.61375 | 8.20404 | 76° | 38km/h | 17812m | -9m/s | -51.3°C | 3.7% | 81.6hPa | 2.7V | 08:19:25 | 01:42:36 | 00:00:00 | |
| DO2JMG | 2026-09-02 08:17:32 | 52.61382 | 8.20450 | 77° | 35km/h | 17784m | -9.2m/s | -51.4°C | 0.6% | 82hPa | 2.6V | 08:20:01 | 01:42:39 | 00:00:00 | |
| BIOWL1-15 | 2026-09-02 08:17:32 | 52.61378 | 8.20420 | 76° | 38km/h | 17803m | -9.1m/s | -51.3°C | 0.7% | 81.7hPa | 2.7V | 08:20:01 | 01:42:37 | 00:00:00 | |
| HSKMA3-T | 2026-09-02 08:17:31 | 52.61380 | 8.20435 | 76° | 37km/h | 17794m | -9.2m/s | -51.4°C | 0.6% | 81.8hPa | 2.6V | 08:20:01 | 01:42:38 | 00:00:00 | |
| DL1XH-west | 2026-09-02 08:17:29 | 52.61376 | 8.20404 | 76° | 40km/h | 17812m | -9m/s | -51.3°C | 0.7% | 81.6hPa | 2.7V | 08:20:01 | 01:42:36 | 00:00:00 | |
| AA1-15 | 2026-09-02 08:17:25 | 52.61365 | 8.20337 | 78° | 44km/h | 17848m | -8.8m/s | -51.1°C | 0.6% | 81.1hPa | 2.6V | 08:20:01 | 01:42:32 | 00:00:00 | |
| DB0DAN | 2026-09-02 08:17:25 | 52.61365 | 8.20337 | 77° | 40km/h | 17848m | -8.8m/s | -51.1°C | 1.2% | 81.14hPa | 2.6V | 00:00:00 | 00:00:00 | 00:00:00 | |
| DF8AY | 2026-09-02 08:17:24 | 52.61363 | 8.20320 | 77° | 44km/h | 17857m | -9m/s | -51.1°C | 0.6% | 81hPa | 2.7V | 08:20:01 | 01:42:31 | 00:00:00 | |
| HSKMA3-T | 2026-09-02 08:17:21 | 52.61356 | 8.20266 | 79° | 44km/h | 17884m | -9m/s | -51.2°C | 0.7% | 80.7hPa | 2.6V | 08:20:01 | 01:42:28 | 00:00:00 | |
| DN9WHV | 2026-09-02 08:17:20 | 52.61356 | 8.20265 | 80° | 44km/h | 17884m | -9.0m/s | -51.2°C | 1.3% | 80.7hPa | 2.6V | 08:20:00 | 00:00:00 | 00:00:00 | |
| DL1XH-15 | 2026-09-02 08:17:19 | 52.61346 | 8.20149 | 87° | 38km/h | 17950m | -9.2m/s | -51.5°C | 3.8% | 79.9hPa | 2.6V | 08:19:40 | 01:42:21 | 00:00:00 | |
| BIOWL1-15 | 2026-09-02 08:17:19 | 52.61352 | 8.20230 | 80° | 42km/h | 17902m | -9.1m/s | -51.4°C | 0.6% | 80.5hPa | 2.6V | 08:20:01 | 01:42:26 | 00:00:00 | |
| DL1XH-west | 2026-09-02 08:17:18 | 52.61350 | 8.20214 | 81° | 40km/h | 17912m | -9.6m/s | -51.4°C | 0.7% | 80.4hPa | 2.7V | 08:20:01 | 01:42:25 | 00:00:00 | |
| DO9LL-15 | 2026-09-02 08:17:18 | 52.61349 | 8.20197 | 83° | 37km/h | 17921m | -9.6m/s | -51.4°C | 3.7% | 80.2hPa | 2.7V | 08:19:00 | 01:42:24 | 00:00:00 | |
| EDDB2-12 | 2026-09-02 08:17:16 | 52.61347 | 8.20165 | 85° | 38km/h | 17940m | -9.6m/s | -51.5°C | 1.3% | 80.0hPa | 2.7V | 00:00:00 | 00:00:00 | 00:00:00 | |
| DM0DOS-11 | 2026-09-02 08:17:15 | 52.61346 | 8.20083 | 94° | 40km/h | 17987m | -9.3m/s | -51.3°C | 3.8% | 79.4hPa | 2.7V | 08:19:44 | 01:42:17 | 00:00:00 | |
| DF8AY | 2026-09-02 08:17:14 | 52.61346 | 8.20149 | 88° | 38km/h | 17950m | -9.3m/s | -51.6°C | 0.7% | 79.9hPa | 2.6V | 08:20:01 | 01:42:21 | 00:00:00 | |
| HSKMA3-T | 2026-09-02 08:17:11 | 52.61346 | 8.20100 | 91° | 40km/h | 17978m | -9.7m/s | -51.5°C | 0.7% | 79.5hPa | 2.7V | 08:20:01 | 01:42:18 | 00:00:00 | |
| DO2JMG | 2026-09-02 08:17:10 | 52.61347 | 8.20083 | 95° | 40km/h | 17987m | -9.3m/s | -51.3°C | 0.7% | 79.4hPa | 2.7V | 08:20:01 | 01:42:17 | 00:00:00 | |
| DJ2KF-10 | 2026-09-02 08:17:10 | 52.61347 | 8.20083 | 95° | 33km/h | 17988m | -9.2m/s | -51.3°C | 3.8% | 79.4hPa | 2.7V | 00:00:00 | 01:42:17 | 00:00:00 | |
| DB0DAN | 2026-09-02 08:17:10 | 52.61347 | 8.20083 | 95° | 38km/h | 17987m | -9.3m/s | -51.3°C | 1.3% | 79.43hPa | 2.7V | 00:00:00 | 00:00:00 | 00:00:00 | |
| DL1XH-15 | 2026-09-02 08:17:09 | 52.61355 | 8.19994 | 106° | 33km/h | 18044m | -9.3m/s | -51.3°C | 3.8% | 78.8hPa | 2.7V | 08:19:50 | 01:42:11 | 00:00:00 | |
| BIOWL1-15 | 2026-09-02 08:17:08 | 52.61348 | 8.20051 | 97° | 38km/h | 18006m | -9.5m/s | -51.2°C | 0.7% | 79.2hPa | 2.6V | 08:20:01 | 01:42:15 | 00:00:00 | |
| DL1XH-west | 2026-09-02 08:17:07 | 52.61350 | 8.20036 | 99° | 37km/h | 18016m | -9.7m/s | -51.2°C | 0.7% | 79.1hPa | 2.6V | 08:20:01 | 01:42:14 | 00:00:00 | |
| GOEST3-10 | 2026-09-02 08:17:07 | 52.61350 | 8.20036 | 100° | 35km/h | 18016m | -9.7m/s | -51.2°C | 3.7% | 79.0hPa | 2.6V | 00:00:00 | 00:00:00 | 00:00:00 | |
| DN9WHV | 2026-09-02 08:17:06 | 52.61350 | 8.20036 | 100° | 37km/h | 18016m | -9.7m/s | -51.2°C | 1.3% | 79.1hPa | 2.7V | 08:20:00 | 00:00:00 | 00:00:00 | |
| DM0DOS-11 | 2026-09-02 08:17:05 | 52.61366 | 8.19941 | 107° | 35km/h | 18081m | -9.6m/s | -51.1°C | 3.7% | 78.3hPa | 2.7V | 08:19:54 | 01:42:07 | 00:00:00 | |
| DF5WG-10 | 2026-09-02 08:17:05 | 52.61353 | 8.20007 | 104° | 35km/h | 18035m | -9.2m/s | -51.2°C | 3.8% | 78.8hPa | 2.7V | 00:00:00 | 01:42:12 | 00:00:00 | |
| DL1XH1-15 | 2026-09-02 08:17:04 | 52.61368 | 8.19927 | 107° | 35km/h | 18091m | -9.8m/s | -51.1°C | 3.8% | 78.2hPa | 2.7V | 08:19:55 | 01:42:06 | 00:00:00 | |
| AA1-15 | 2026-09-02 08:17:04 | 52.61355 | 8.19994 | 107° | 33km/h | 18044m | -9.3m/s | -51.3°C | 0.7% | 78.8hPa | 2.7V | 08:20:01 | 01:42:11 | 00:00:00 | |
| DF8AY | 2026-09-02 08:17:03 | 52.61358 | 8.19981 | 107° | 33km/h | 18053m | -9.3m/s | -51.2°C | 0.7% | 78.6hPa | 2.6V | 08:20:01 | 01:42:10 | 00:00:00 | |
| DO2JMG | 2026-09-02 08:17:00 | 52.61365 | 8.19941 | 108° | 35km/h | 18081m | -9.6m/s | -51.1°C | 0.7% | 78.3hPa | 2.7V | 08:20:01 | 01:42:07 | 00:00:00 | |
| DL1XH-west | 2026-09-02 08:16:57 | 52.61373 | 8.19899 | 107° | 37km/h | 18110m | -9.5m/s | -51.1°C | 0.7% | 77.9hPa | 2.6V | 08:20:01 | 01:42:04 | 00:00:00 | |
| DD8BA-10 | 2026-09-02 08:16:56 | 52.61376 | 8.19884 | 107° | 37km/h | 18120m | -9.5m/s | -51.0°C | 3.8% | 77.8hPa | 2.6V | 00:00:00 | 00:00:00 | 00:00:00 | |
| DM0DOS-11 | 2026-09-02 08:16:55 | 52.61394 | 8.19795 | 112° | 37km/h | 18177m | -9.6m/s | -50.8°C | 3.7% | 77.1hPa | 2.6V | 08:20:04 | 01:41:57 | 00:00:00 | |
| DB0DAN | 2026-09-02 08:16:55 | 52.61379 | 8.19869 | 107° | 37km/h | 18129m | -9.7m/s | -51.1°C | 1.2% | 77.74hPa | 2.6V | 00:00:00 | 00:00:00 | 00:00:00 | |
| DF5WG-10 | 2026-09-02 08:16:55 | 52.61379 | 8.19869 | 108° | 35km/h | 18130m | -9.7m/s | -51.0°C | 3.7% | 77.7hPa | 2.6V | 00:00:00 | 01:42:02 | 00:00:00 | |
| DL1XH1-15 | 2026-09-02 08:16:54 | 52.61398 | 8.19781 | 113° | 35km/h | 18187m | -9.6m/s | -50.9°C | 3.7% | 77hPa | 2.6V | 08:20:05 | 01:41:56 | 00:00:00 | |
| DF8AY | 2026-09-02 08:16:53 | 52.61385 | 8.19838 | 108° | 38km/h | 18149m | -9.7m/s | -50.9°C | 0.6% | 77.5hPa | 2.7V | 08:20:01 | 01:42:00 | 00:00:00 | |
| HSKMA3-T | 2026-09-02 08:16:50 | 52.61394 | 8.19795 | 112° | 37km/h | 18177m | -9.6m/s | -50.8°C | 0.6% | 77.1hPa | 2.6V | 08:20:52 | 01:41:57 | 00:00:00 | |
| DL1XH-15 | 2026-09-02 08:16:49 | 52.61416 | 8.19723 | 121° | 27km/h | 18235m | -9.3m/s | -50.8°C | 3.6% | 76.5hPa | 2.6V | 08:20:10 | 01:41:51 | 00:00:00 | |
| DO2JMG | 2026-09-02 08:16:49 | 52.61398 | 8.19781 | 114° | 35km/h | 18187m | -9.6m/s | -50.9°C | 0.6% | 77hPa | 2.6V | 08:20:52 | 01:41:56 | 00:00:00 | |
| DL1XH-west | 2026-09-02 08:16:47 | 52.61405 | 8.19755 | 116° | 33km/h | 18206m | -9.8m/s | -50.9°C | 0.7% | 76.8hPa | 2.7V | 08:20:52 | 01:41:54 | 00:00:00 | |
| DO9LL-15 | 2026-09-02 08:16:47 | 52.61405 | 8.19755 | 116° | 26km/h | 18207m | -9.7m/s | -50.8°C | 3.7% | 76.8hPa | 2.7V | 00:00:00 | 01:41:54 | 00:00:00 | |
| DD8BA-10 | 2026-09-02 08:16:46 | 52.61409 | 8.19743 | 119° | 22km/h | 18216m | -9.7m/s | -50.8°C | 3.7% | 76.6hPa | 2.7V | 00:00:00 | 00:00:00 | 00:00:00 | |
| DM0DOS-11 | 2026-09-02 08:16:45 | 52.61427 | 8.19691 | 116° | 20km/h | 18273m | -9.4m/s | -50.7°C | 3.6% | 76hPa | 2.7V | 08:20:14 | 01:41:47 | 00:00:00 | |
| DL3AQ-11 | 2026-09-02 08:16:45 | 52.61416 | 8.19723 | 121° | 26km/h | 18236m | -9.4m/s | -50.8°C | 1.2% | 76.5hPa | 2.6V | 00:00:00 | 00:00:00 | 00:00:00 | |
| DL1XH1-15 | 2026-09-02 08:16:44 | 52.61429 | 8.19684 | 116° | 18km/h | 18283m | -9.4m/s | -50.8°C | 3.6% | 75.9hPa | 2.6V | 08:20:15 | 01:41:46 | 00:00:00 | |
| AA1-15 | 2026-09-02 08:16:42 | 52.61422 | 8.19706 | 120° | 22km/h | 18254m | -9.4m/s | -50.8°C | 0.6% | 76.2hPa | 2.7V | 08:20:52 | 01:41:49 | 00:00:00 | |
| GOEST3-10 | 2026-09-02 08:16:42 | 52.61422 | 8.19706 | 121° | 20km/h | 18254m | -9.3m/s | -50.8°C | 3.6% | 76.2hPa | 2.7V | 00:00:00 | 01:41:49 | 00:00:00 | |
| DB0UT-7 | 2026-09-02 08:16:41 | 52.61425 | 8.19698 | 118° | 26km/h | 18264m | -9.5m/s | -50.7°C | 3.6% | 76.1hPa | 2.7V | 00:00:00 | 01:41:48 | 00:00:00 | |
| DJ2KF-10 | 2026-09-02 08:16:40 | 52.61427 | 8.19691 | 117° | 27km/h | 18273m | -9.4m/s | -50.7°C | 3.6% | 76.0hPa | 2.7V | 00:00:00 | 01:41:47 | 00:00:00 | |
| DB0DAN | 2026-09-02 08:16:40 | 52.61427 | 8.19691 | 116° | 18km/h | 18273m | -9.4m/s | -50.7°C | 1.2% | 76.01hPa | 2.7V | 00:00:00 | 00:00:00 | 00:00:00 | |
| DL1XH-15 | 2026-09-02 08:16:39 | 52.61439 | 8.19645 | 112° | 24km/h | 18330m | -9.7m/s | -50.9°C | 3.7% | 75.3hPa | 2.7V | 08:20:20 | 01:41:41 | 00:00:00 | |
| HSKMA3-T | 2026-09-02 08:16:39 | 52.61429 | 8.19684 | 117° | 18km/h | 18283m | -9.4m/s | -50.8°C | 0.6% | 75.9hPa | 2.6V | 08:20:52 | 01:41:46 | 00:00:00 | |
| DO2JMG | 2026-09-02 08:16:38 | 52.61431 | 8.19677 | 112° | 18km/h | 18292m | -9.6m/s | -50.8°C | 0.6% | 75.8hPa | 2.6V | 08:20:52 | 01:41:45 | 00:00:00 | |
| DL1XH-west | 2026-09-02 08:16:37 | 52.61433 | 8.19669 | 115° | 20km/h | 18302m | -9.5m/s | -50.9°C | 0.6% | 75.7hPa | 2.6V | 08:20:52 | 01:41:44 | 00:00:00 | |
| GOEST3-10 | 2026-09-02 08:16:37 | 52.61433 | 8.19669 | 115° | 22km/h | 18302m | -9.5m/s | -50.8°C | 3.6% | 75.6hPa | 2.6V | 08:20:00 | 00:00:00 | 00:00:00 | |
| DD8BA-10 | 2026-09-02 08:16:36 | 52.61435 | 8.19662 | 112° | 27km/h | 18311m | -9.5m/s | -50.8°C | 3.6% | 75.5hPa | 2.7V | 00:00:00 | 00:00:00 | 00:00:00 | |
| DM0DOS-11 | 2026-09-02 08:16:35 | 52.61449 | 8.19602 | 109° | 31km/h | 18369m | -9.2m/s | -50.8°C | 3.7% | 74.9hPa | 2.7V | 08:20:24 | 01:41:37 | 00:00:00 | |
| DB0NH | 2026-09-02 08:16:35 | 52.61437 | 8.19654 | 114° | 24km/h | 18321m | -9.5m/s | -50.8°C | 3.7% | 75.4hPa | 2.7V | 00:00:00 | 01:41:42 | 00:00:00 | |
| DL1XH1-15 | 2026-09-02 08:16:34 | 52.61451 | 8.19590 | 105° | 31km/h | 18378m | -9.2m/s | -50.9°C | 3.6% | 74.8hPa | 2.7V | 08:20:25 | 01:41:36 | 00:00:00 | |
| DF8AY | 2026-09-02 08:16:32 | 52.61444 | 8.19625 | 110° | 27km/h | 18350m | -9.7m/s | -50.8°C | 0.6% | 75.2hPa | 2.6V | 08:20:52 | 01:41:39 | 00:00:00 | |
| AA1-15 | 2026-09-02 08:16:31 | 52.61447 | 8.19613 | 109° | 29km/h | 18360m | -9.3m/s | -50.8°C | 0.6% | 75hPa | 2.6V | 08:20:52 | 01:41:38 | 00:00:00 | |
| EDDB2-11 | 2026-09-02 08:16:30 | 52.61449 | 8.19602 | 109° | 29km/h | 18369m | -9.3m/s | -50.8°C | 1.2% | 74.9hPa | 2.7V | 00:00:00 | 00:00:00 | 00:00:00 | |
| DL1XH-15 | 2026-09-02 08:16:29 | 52.61458 | 8.19532 | 93° | 26km/h | 18426m | -9.7m/s | -51.1°C | 3.7% | 74.3hPa | 2.7V | 08:20:30 | 01:41:31 | 00:00:00 | |
| HSKMA3-T | 2026-09-02 08:16:29 | 52.61451 | 8.19590 | 106° | 31km/h | 18378m | -9.2m/s | -50.9°C | 0.6% | 74.8hPa | 2.7V | 08:20:52 | 01:41:36 | 00:00:00 | |
| DO2JMG | 2026-09-02 08:16:27 | 52.61455 | 8.19566 | 102° | 29km/h | 18397m | -9.5m/s | -50.9°C | 0.7% | 74.6hPa | 2.6V | 08:20:52 | 01:41:34 | 00:00:00 | |
| DL1XH-west | 2026-09-02 08:16:26 | 52.61456 | 8.19554 | 101° | 27km/h | 18407m | -9.4m/s | -51°C | 0.6% | 74.5hPa | 2.6V | 08:20:52 | 01:41:33 | 00:00:00 | |
| DD8BA-10 | 2026-09-02 08:16:26 | 52.61456 | 8.19554 | 102° | 27km/h | 18407m | -9.4m/s | -50.9°C | 3.7% | 74.5hPa | 2.6V | 00:00:00 | 00:00:00 | 00:00:00 | |
| DM0DOS-11 | 2026-09-02 08:16:25 | 52.61458 | 8.19488 | 89° | 29km/h | 18464m | -9.7m/s | -51.1°C | 3.8% | 73.8hPa | 2.6V | 08:20:34 | 01:41:27 | 00:00:00 | |
| SMARD9-15 | 2026-09-02 08:16:25 | 52.61458 | 8.19533 | 93° | 26km/h | 18426m | -9.7m/s | -51.1°C | 1.2% | 74.3hPa | 2.6V | 00:00:00 | 00:00:00 | 00:00:00 | |
| DL1XH1-15 | 2026-09-02 08:16:24 | 52.61458 | 8.19476 | 90° | 27km/h | 18474m | -9.2m/s | -51.1°C | 3.7% | 73.7hPa | 2.6V | 08:20:35 | 01:41:26 | 00:00:00 | |
| DF8AY | 2026-09-02 08:16:21 | 52.61458 | 8.19500 | 90° | 27km/h | 18455m | -9.9m/s | -51.2°C | 0.7% | 74hPa | 2.6V | 08:20:52 | 01:41:28 | 00:00:00 | |
| AA1-15 | 2026-09-02 08:16:20 | 52.61458 | 8.19488 | 90° | 29km/h | 18465m | -9.7m/s | -51.2°C | 0.7% | 73.8hPa | 2.6V | 08:20:52 | 01:41:27 | 00:00:00 | |
| HSKMA3-T | 2026-09-02 08:16:19 | 52.61458 | 8.19476 | 91° | 29km/h | 18474m | -9.2m/s | -51.1°C | 0.7% | 73.7hPa | 2.6V | 08:20:52 | 01:41:26 | 00:00:00 | |
| DO2JMG | 2026-09-02 08:16:17 | 52.61459 | 8.19453 | 93° | 27km/h | 18493m | -9.6m/s | -51°C | 0.7% | 73.5hPa | 2.7V | 08:20:52 | 01:41:24 | 00:00:00 | |
| DL1XH-west | 2026-09-02 08:16:16 | 52.61459 | 8.19442 | 92° | 26km/h | 18503m | -9.8m/s | -51°C | 0.7% | 73.4hPa | 2.7V | 08:20:52 | 01:41:23 | 00:00:00 | |
| DD8BA-10 | 2026-09-02 08:16:16 | 52.61459 | 8.19442 | 92° | 20km/h | 18503m | -9.7m/s | -50.9°C | 3.7% | 73.3hPa | 2.7V | 08:20:00 | 00:00:00 | 00:00:00 | |
| DM0DOS-11 | 2026-09-02 08:16:15 | 52.61459 | 8.19391 | 79° | 18km/h | 18561m | -9.5m/s | -51.1°C | 3.7% | 72.7hPa | 2.7V | 08:20:44 | 01:41:17 | 00:00:00 | |
| BIOWL1-15 | 2026-09-02 08:16:15 | 52.61460 | 8.19432 | 94° | 24km/h | 18512m | -9.3m/s | -51°C | 0.7% | 73.3hPa | 2.6V | 08:20:52 | 01:41:22 | 00:00:00 | |
| DL1XH1-15 | 2026-09-02 08:16:14 | 52.61458 | 8.19384 | 80° | 20km/h | 18571m | -9.6m/s | -51.2°C | 3.7% | 72.6hPa | 2.6V | 08:20:45 | 01:41:16 | 00:00:00 | |
| DF8AY | 2026-09-02 08:16:11 | 52.61459 | 8.19399 | 83° | 18km/h | 18551m | -9.6m/s | -51.2°C | 0.6% | 72.8hPa | 2.7V | 08:20:52 | 01:41:18 | 00:00:00 | |
| DB0DAN | 2026-09-02 08:16:10 | 52.61459 | 8.19391 | 80° | 18km/h | 18561m | -9.5m/s | -51.2°C | 1.3% | 72.72hPa | 2.7V | 00:00:00 | 00:00:00 | 00:00:00 | |
| DL1XH-15 | 2026-09-02 08:16:09 | 52.61452 | 8.19337 | 82° | 27km/h | 18620m | -9.4m/s | -50.9°C | 3.6% | 72.1hPa | 2.7V | 08:20:50 | 01:41:11 | 00:00:00 | |
| HSKMA3-T | 2026-09-02 08:16:09 | 52.61458 | 8.19384 | 80° | 20km/h | 18571m | -9.6m/s | -51.2°C | 0.7% | 72.6hPa | 2.6V | 08:20:52 | 01:41:16 | 00:00:00 | |
| DL1XH-west | 2026-09-02 08:16:06 | 52.61455 | 8.19358 | 77° | 24km/h | 18600m | -9.8m/s | -51.1°C | 0.6% | 72.3hPa | 2.7V | 08:20:52 | 01:41:13 | 00:00:00 | |
| DD8BA-10 | 2026-09-02 08:16:06 | 52.61455 | 8.19358 | 78° | 27km/h | 18600m | -9.8m/s | -51.1°C | 3.7% | 72.3hPa | 2.7V | 00:00:00 | 00:00:00 | 00:00:00 | |
| BIOWL1-15 | 2026-09-02 08:16:06 | 52.61453 | 8.19348 | 81° | 26km/h | 18610m | -9.7m/s | -51°C | 0.7% | 72.2hPa | 2.7V | 08:20:52 | 01:41:12 | 00:00:00 | |
| DB0NH | 2026-09-02 08:16:05 | 52.61453 | 8.19348 | 81° | 27km/h | 18610m | -9.6m/s | -51.0°C | 3.7% | 72.1hPa | 2.7V | 00:00:00 | 01:41:12 | 00:00:00 | |
| DL1XH1-15 | 2026-09-02 08:16:04 | 52.61448 | 8.19278 | 81° | 29km/h | 18668m | -9.5m/s | -51.2°C | 3.7% | 71.5hPa | 2.7V | 08:20:55 | 01:41:06 | 00:00:00 | |
| DF8AY | 2026-09-02 08:16:00 | 52.61449 | 8.19290 | 83° | 29km/h | 18659m | -9.6m/s | -51.1°C | 0.6% | 71.7hPa | 2.7V | 08:21:43 | 01:41:07 | 00:00:00 | |
| EDDB2-11 | 2026-09-02 08:16:00 | 52.61448 | 8.19278 | 81° | 29km/h | 18669m | -9.5m/s | -51.2°C | 1.2% | 71.5hPa | 2.7V | 00:00:00 | 00:00:00 | 00:00:00 | |
| DL1XH-15 | 2026-09-02 08:15:59 | 52.61440 | 8.19224 | 77° | 24km/h | 18717m | -9.6m/s | -51.1°C | 3.7% | 71hPa | 2.7V | 08:21:00 | 01:41:01 | 00:00:00 | |
| HSKMA3-T | 2026-09-02 08:15:58 | 52.61446 | 8.19266 | 79° | 27km/h | 18678m | -9.6m/s | -51.2°C | 0.6% | 71.4hPa | 2.7V | 08:21:43 | 01:41:05 | 00:00:00 | |
| BIOWL1-15 | 2026-09-02 08:15:55 | 52.61442 | 8.19234 | 75° | 26km/h | 18708m | -9.5m/s | -51.2°C | 0.7% | 71.1hPa | 2.6V | 08:21:43 | 01:41:02 | 00:00:00 | |
| DB0DAN | 2026-09-02 08:15:55 | 52.61442 | 8.19234 | 75° | 24km/h | 18707m | -9.5m/s | -51.2°C | 1.2% | 71.1hPa | 2.6V | 00:00:00 | 00:00:00 | 00:00:00 | |
| DL1XH1-15 | 2026-09-02 08:15:54 | 52.61434 | 8.19178 | 80° | 22km/h | 18766m | -9.6m/s | -51°C | 3.7% | 70.5hPa | 2.6V | 08:21:05 | 01:40:56 | 00:00:00 | |
| DF8AY | 2026-09-02 08:15:50 | 52.61435 | 8.19187 | 80° | 24km/h | 18756m | -9.7m/s | -51°C | 0.7% | 70.6hPa | 2.6V | 08:21:43 | 01:40:57 | 00:00:00 | |
| HSKMA3-T | 2026-09-02 08:15:47 | 52.61432 | 8.19162 | 82° | 18km/h | 18785m | -9.8m/s | -51°C | 0.6% | 70.3hPa | 2.7V | 08:21:43 | 01:40:54 | 00:00:00 | |
| DO2JMG | 2026-09-02 08:15:45 | 52.61431 | 8.19148 | 76° | 16km/h | 18805m | -9.5m/s | -51.2°C | 0.6% | 70.1hPa | 2.6V | 08:21:43 | 01:40:52 | 00:00:00 | |
| DL1XH-west | 2026-09-02 08:15:44 | 52.61429 | 8.19142 | 68° | 15km/h | 18814m | -9.8m/s | -51.2°C | 0.7% | 70hPa | 2.6V | 08:21:43 | 01:40:51 | 00:00:00 | |
| DJ2DS-15 | 2026-09-02 08:15:44 | 52.61429 | 8.19142 | 68° | 18km/h | 18814m | -9.7m/s | -51.2°C | 3.7% | 69.9hPa | 2.7V | 00:00:00 | 01:40:51 | 00:00:00 | |
| EDDB2-12 | 2026-09-02 08:15:43 | 52.61426 | 8.19133 | 50° | 11km/h | 18834m | -9.7m/s | -51.3°C | 1.2% | 69.8hPa | 2.7V | 00:00:00 | 00:00:00 | 00:00:00 | |
| GOEST3-10 | 2026-09-02 08:15:42 | 52.61426 | 8.19133 | 51° | 13km/h | 18834m | -9.6m/s | -51.2°C | 3.7% | 69.7hPa | 2.7V | 00:00:00 | 01:40:49 | 00:00:00 | |
| DN9WHV | 2026-09-02 08:15:41 | 52.61426 | 8.19133 | 52° | 11km/h | 18834m | -9.7m/s | -51.3°C | 1.2% | 69.8hPa | 2.7V | 08:21:00 | 00:00:00 | 00:00:00 | |
| DB0DAN | 2026-09-02 08:15:40 | 52.61422 | 8.19127 | 38° | 11km/h | 18853m | -9.4m/s | -51.4°C | 1.3% | 69.51hPa | 2.7V | 00:00:00 | 00:00:00 | 00:00:00 | |
| DF8AY | 2026-09-02 08:15:39 | 52.61420 | 8.19124 | 35° | 13km/h | 18863m | -9.7m/s | -51.4°C | 0.8% | 69.4hPa | 2.6V | 08:21:43 | 01:40:46 | 00:00:00 | |
| HSKMA3-T | 2026-09-02 08:15:37 | 52.61414 | 8.19117 | 39° | 15km/h | 18882m | -9.6m/s | -51.4°C | 0.7% | 69.2hPa | 2.6V | 08:21:43 | 01:40:44 | 00:00:00 | |
| AA1-15 | 2026-09-02 08:15:36 | 52.61411 | 8.19113 | 45° | 16km/h | 18892m | -9.7m/s | -51.4°C | 0.7% | 69.1hPa | 2.7V | 08:21:43 | 01:40:43 | 00:00:00 | |
| DL1XH-west | 2026-09-02 08:15:34 | 52.61405 | 8.19102 | 54° | 18km/h | 18912m | -9.8m/s | -51.4°C | 0.8% | 68.9hPa | 2.7V | 08:21:43 | 01:40:41 | 00:00:00 | |
| DN9WHV | 2026-09-02 08:15:33 | 52.61405 | 8.19102 | 55° | 18km/h | 18912m | -9.8m/s | -51.4°C | 1.3% | 68.9hPa | 2.7V | 08:21:00 | 00:00:00 | 00:00:00 | |
| GOEST3-10 | 2026-09-02 08:15:32 | 52.61400 | 8.19089 | 61° | 22km/h | 18932m | -9.6m/s | -51.3°C | 3.8% | 68.7hPa | 2.7V | 00:00:00 | 01:40:39 | 00:00:00 | |
| DD1CC3-15 | 2026-09-02 08:15:31 | 52.61400 | 8.19089 | 62° | 20km/h | 18932m | -9.7m/s | -51.3°C | 1.3% | 68.7hPa | 2.7V | 08:21:00 | 00:00:00 | 00:00:00 | |
| DD1CC8 | 2026-09-02 08:15:30 | 52.61395 | 8.19073 | 62° | 20km/h | 18951m | -9.6m/s | -51.3°C | 1.2% | 68.5hPa | 2.7V | 00:00:00 | 00:00:00 | 00:00:00 | |
| DL1XH-15 | 2026-09-02 08:15:29 | 52.61376 | 8.19020 | 62° | 27km/h | 19009m | -9.7m/s | -50.8°C | 3.6% | 67.9hPa | 2.7V | 08:21:30 | 01:40:31 | 00:00:00 | |
| DF8AY | 2026-09-02 08:15:28 | 52.61389 | 8.19057 | 61° | 24km/h | 18970m | -9.7m/s | -51.1°C | 0.8% | 68.3hPa | 2.7V | 08:21:43 | 01:40:35 | 00:00:00 | |
| HSKMA3-T | 2026-09-02 08:15:27 | 52.61386 | 8.19048 | 61° | 24km/h | 18980m | -9.9m/s | -51°C | 0.8% | 68.2hPa | 2.6V | 08:21:43 | 01:40:34 | 00:00:00 | |
| AA1-15 | 2026-09-02 08:15:25 | 52.61380 | 8.19030 | 61° | 27km/h | 19000m | -9.5m/s | -50.8°C | 0.7% | 68hPa | 2.6V | 08:21:43 | 01:40:32 | 00:00:00 | |
| DL1XH-west | 2026-09-02 08:15:24 | 52.61376 | 8.19020 | 63° | 27km/h | 19009m | -9.7m/s | -50.8°C | 0.6% | 67.9hPa | 2.7V | 08:21:43 | 01:40:31 | 00:00:00 | |
| DO2JMG | 2026-09-02 08:15:23 | 52.61373 | 8.19010 | 67° | 27km/h | 19019m | -10.1m/s | -50.8°C | 0.7% | 67.8hPa | 2.7V | 08:21:43 | 01:40:30 | 00:00:00 | |
| SMARD9-15 | 2026-09-02 08:15:23 | 52.61371 | 8.18999 | 73° | 27km/h | 19030m | -10.2m/s | -50.7°C | 1.2% | 67.7hPa | 2.7V | 00:00:00 | 00:00:00 | 00:00:00 | |
| GOEST3-10 | 2026-09-02 08:15:22 | 52.61371 | 8.18999 | 74° | 31km/h | 19030m | -10.1m/s | -50.7°C | 3.6% | 67.6hPa | 2.7V | 00:00:00 | 01:40:29 | 00:00:00 | |
| DO3DL | 2026-09-02 08:15:20 | 52.61369 | 8.18987 | 78° | 31km/h | 19040m | -10.0m/s | -50.8°C | 1.2% | 67.6hPa | 2.6V | 08:21:00 | 00:00:00 | 00:00:00 | |
| DL1XH-15 | 2026-09-02 08:15:19 | 52.61359 | 8.18886 | 78° | 38km/h | 19110m | -9.9m/s | -50.9°C | 3.7% | 66.8hPa | 2.6V | 08:21:40 | 01:40:21 | 00:00:00 | |
| DF8AY | 2026-09-02 08:15:19 | 52.61365 | 8.18947 | 84° | 35km/h | 19070m | -9.9m/s | -50.8°C | 0.6% | 67.3hPa | 2.7V | 08:21:43 | 01:40:25 | 00:00:00 | |
| HSKMA3-T | 2026-09-02 08:15:16 | 52.61363 | 8.18917 | 83° | 37km/h | 19090m | -9.8m/s | -50.9°C | 0.7% | 67hPa | 2.7V | 08:21:43 | 01:40:23 | 00:00:00 | |
| DD8BA-10 | 2026-09-02 08:15:16 | 52.61363 | 8.18917 | 83° | 38km/h | 19090m | -9.7m/s | -50.9°C | 3.7% | 67.0hPa | 2.7V | 00:00:00 | 00:00:00 | 00:00:00 | |
| DM0DOS-11 | 2026-09-02 08:15:15 | 52.61349 | 8.18826 | 71° | 37km/h | 19149m | -9.9m/s | -51°C | 3.8% | 66.5hPa | 2.7V | 08:21:44 | 01:40:17 | 00:00:00 | |
| AA1-15 | 2026-09-02 08:15:14 | 52.61360 | 8.18887 | 79° | 38km/h | 19110m | -9.9m/s | -50.9°C | 0.7% | 66.9hPa | 2.6V | 08:21:43 | 01:40:21 | 00:00:00 | |
| DL1XH-west | 2026-09-02 08:15:13 | 52.61357 | 8.18871 | 77° | 38km/h | 19120m | -9.9m/s | -50.9°C | 0.7% | 66.8hPa | 2.6V | 08:21:43 | 01:40:20 | 00:00:00 | |
| GOEST3-10 | 2026-09-02 08:15:12 | 52.61355 | 8.18856 | 75° | 37km/h | 19130m | -9.8m/s | -50.9°C | 3.7% | 66.6hPa | 2.7V | 00:00:00 | 01:40:19 | 00:00:00 | |
| DD1CC3-15 | 2026-09-02 08:15:11 | 52.61355 | 8.18856 | 76° | 38km/h | 19130m | -9.9m/s | -50.9°C | 1.3% | 66.7hPa | 2.7V | 08:21:00 | 00:00:00 | 00:00:00 | |
| DB0DAN | 2026-09-02 08:15:10 | 52.61349 | 8.18826 | 72° | 37km/h | 19150m | -9.9m/s | -51°C | 1.2% | 66.46hPa | 2.7V | 00:00:00 | 00:00:00 | 00:00:00 | |
| DL1XH-15 | 2026-09-02 08:15:09 | 52.61337 | 8.18732 | 84° | 40km/h | 19209m | -9.9m/s | -50.9°C | 3.7% | 65.8hPa | 2.7V | 08:21:50 | 01:40:11 | 00:00:00 | |
| DF8AY | 2026-09-02 08:15:07 | 52.61342 | 8.18781 | 79° | 38km/h | 19180m | -9.4m/s | -51.1°C | 0.7% | 66.1hPa | 2.6V | 08:22:34 | 01:40:14 | 00:00:00 | |
| HSKMA3-T | 2026-09-02 08:15:06 | 52.61340 | 8.18765 | 80° | 38km/h | 19189m | -9.6m/s | -51.1°C | 0.8% | 66hPa | 2.7V | 08:22:34 | 01:40:13 | 00:00:00 | |
| DL4BBY-15 | 2026-09-02 08:15:06 | 52.61340 | 8.18765 | 81° | 29km/h | 19189m | -9.6m/s | -51.6°C | 0% | 0hPa | 2.7V | 00:00:00 | 00:00:00 | 00:00:00 | |
| DM0DOS-11 | 2026-09-02 08:15:05 | 52.61336 | 8.18665 | 91° | 38km/h | 19248m | -9.7m/s | -50.7°C | 3.7% | 65.4hPa | 2.7V | 08:21:54 | 01:40:07 | 00:00:00 | |
| DB0NH | 2026-09-02 08:15:05 | 52.61338 | 8.18749 | 84° | 29km/h | 19199m | -9.5m/s | -51.0°C | 3.8% | 65.9hPa | 2.7V | 00:00:00 | 01:40:12 | 00:00:00 | |
| DL1XH1-15 | 2026-09-02 08:15:04 | 52.61336 | 8.18649 | 91° | 37km/h | 19257m | -9.2m/s | -50.8°C | 3.7% | 65.3hPa | 2.7V | 08:21:55 | 01:40:06 | 00:00:00 | |
| AA1-15 | 2026-09-02 08:15:04 | 52.61337 | 8.18732 | 85° | 40km/h | 19209m | -9.9m/s | -50.9°C | 0.7% | 65.8hPa | 2.7V | 08:22:34 | 01:40:11 | 00:00:00 | |
| BIOWL1-15 | 2026-09-02 08:15:03 | 52.61337 | 8.18715 | 87° | 42km/h | 19219m | -9.6m/s | -50.8°C | 0.7% | 65.7hPa | 2.6V | 08:22:34 | 01:40:10 | 00:00:00 | |
| DL1XH-west | 2026-09-02 08:15:02 | 52.61336 | 8.18698 | 89° | 40km/h | 19228m | -9.5m/s | -50.7°C | 0.7% | 65.7hPa | 2.6V | 08:22:34 | 01:40:09 | 00:00:00 | |
| DN9WHV | 2026-09-02 08:15:02 | 52.61336 | 8.18698 | 90° | 40km/h | 19229m | -9.5m/s | -50.7°C | 1.2% | 65.7hPa | 2.7V | 08:22:00 | 00:00:00 | 00:00:00 | |
| DO3DL | 2026-09-02 08:15:00 | 52.61336 | 8.18681 | 91° | 40km/h | 19238m | -9.6m/s | -50.7°C | 1.2% | 65.6hPa | 2.7V | 08:22:00 | 00:00:00 | 00:00:00 | |
| DL1XH-15 | 2026-09-02 08:14:59 | 52.61338 | 8.18579 | 96° | 31km/h | 19306m | -10.1m/s | -50.8°C | 3.7% | 64.8hPa | 2.7V | 08:22:00 | 01:40:01 | 00:00:00 | |
| DF8AY | 2026-09-02 08:14:56 | 52.61337 | 8.18606 | 94° | 33km/h | 19286m | -9.9m/s | -50.8°C | 0.7% | 65.1hPa | 2.6V | 08:22:34 | 01:40:03 | 00:00:00 | |
| DD8BA-10 | 2026-09-02 08:14:56 | 52.61337 | 8.18606 | 94° | 31km/h | 19287m | -9.8m/s | -50.8°C | 3.7% | 65.0hPa | 2.6V | 00:00:00 | 00:00:00 | 00:00:00 | |
| DM0DOS-11 | 2026-09-02 08:14:55 | 52.61345 | 8.18530 | 108° | 31km/h | 19346m | -9.7m/s | -50.7°C | 3.7% | 64.4hPa | 2.6V | 08:22:04 | 01:39:57 | 00:00:00 | |
| HSKMA3-T | 2026-09-02 08:14:55 | 52.61338 | 8.18593 | 94° | 33km/h | 19296m | -10.3m/s | -50.8°C | 0.7% | 65hPa | 2.6V | 08:22:34 | 01:40:02 | 00:00:00 | |
| DB0DAN | 2026-09-02 08:14:55 | 52.61338 | 8.18593 | 94° | 31km/h | 19296m | -10.3m/s | -50.8°C | 1.2% | 64.95hPa | 2.6V | 00:00:00 | 00:00:00 | 00:00:00 | |
| DL1XH1-15 | 2026-09-02 08:14:54 | 52.61347 | 8.18518 | 110° | 29km/h | 19356m | -9.9m/s | -50.7°C | 3.6% | 64.3hPa | 2.6V | 08:22:05 | 01:39:56 | 00:00:00 | |
| BIOWL1-15 | 2026-09-02 08:14:54 | 52.61339 | 8.18566 | 99° | 31km/h | 19317m | -9.9m/s | -50.8°C | 0.6% | 64.8hPa | 2.7V | 08:22:34 | 01:40:00 | 00:00:00 | |
| DO2JMG | 2026-09-02 08:14:52 | 52.61341 | 8.18554 | 102° | 31km/h | 19326m | -9.8m/s | -50.8°C | 0.7% | 64.6hPa | 2.7V | 08:22:34 | 01:39:59 | 00:00:00 | |
| SMARD9-15 | 2026-09-02 08:14:52 | 52.61342 | 8.18542 | 105° | 29km/h | 19337m | -9.7m/s | -50.8°C | 1.2% | 64.5hPa | 2.6V | 00:00:00 | 00:00:00 | 00:00:00 | |
| DD1CC1-15 | 2026-09-02 08:14:51 | 52.61341 | 8.18554 | 103° | 31km/h | 19327m | -9.8m/s | -50.8°C | 1.2% | 64.6hPa | 2.6V | 00:00:00 | 00:00:00 | 00:00:00 | |
| DD1CC3-15 | 2026-09-02 08:14:50 | 52.61342 | 8.18542 | 106° | 29km/h | 19337m | -9.7m/s | -50.8°C | 1.2% | 64.5hPa | 2.6V | 08:22:00 | 00:00:00 | 00:00:00 | |
| DL1XH-15 | 2026-09-02 08:14:49 | 52.61359 | 8.18466 | 108° | 22km/h | 19405m | -9.7m/s | -50.9°C | 3.7% | 63.9hPa | 2.6V | 08:22:10 | 01:39:51 | 00:00:00 | |
| DF8AY | 2026-09-02 08:14:46 | 52.61355 | 8.18484 | 112° | 27km/h | 19386m | -9.7m/s | -50.9°C | 0.7% | 64.1hPa | 2.7V | 08:22:34 | 01:39:53 | 00:00:00 | |
| DD8BA-10 | 2026-09-02 08:14:46 | 52.61355 | 8.18484 | 112° | 20km/h | 19386m | -9.6m/s | -50.8°C | 3.7% | 64.0hPa | 2.7V | 08:22:00 | 00:00:00 | 00:00:00 | |
| DM0DOS-11 | 2026-09-02 08:14:45 | 52.61364 | 8.18435 | 99° | 16km/h | 19444m | -9.7m/s | -50.8°C | 3.7% | 63.5hPa | 2.7V | 08:22:14 | 01:39:47 | 00:00:00 | |
| HSKMA3-T | 2026-09-02 08:14:45 | 52.61358 | 8.18475 | 112° | 24km/h | 19395m | -9.5m/s | -50.9°C | 0.7% | 64hPa | 2.6V | 08:22:34 | 01:39:52 | 00:00:00 | |
| DL1XH1-15 | 2026-09-02 08:14:44 | 52.61365 | 8.18428 | 96° | 16km/h | 19453m | -10m/s | -50.8°C | 3.6% | 63.4hPa | 2.6V | 08:22:15 | 01:39:46 | 00:00:00 | |
| DL1XH-west | 2026-09-02 08:14:42 | 52.61363 | 8.18449 | 103° | 18km/h | 19424m | -9.8m/s | -50.8°C | 0.7% | 63.7hPa | 2.7V | 08:22:34 | 01:39:49 | 00:00:00 | |
| DO2JMG | 2026-09-02 08:14:41 | 52.61364 | 8.18442 | 103° | 18km/h | 19434m | -9.7m/s | -50.8°C | 0.6% | 63.6hPa | 2.7V | 08:22:34 | 01:39:48 | 00:00:00 | |
| EDDB2-12 | 2026-09-02 08:14:41 | 52.61364 | 8.18435 | 99° | 16km/h | 19444m | -9.7m/s | -50.8°C | 1.2% | 63.5hPa | 2.7V | 00:00:00 | 00:00:00 | 00:00:00 | |
| DL1XH-15 | 2026-09-02 08:14:39 | 52.61365 | 8.18386 | 85° | 24km/h | 19504m | -10.1m/s | -51°C | 3.7% | 62.9hPa | 2.7V | 08:22:20 | 01:39:41 | 00:00:00 | |
| HSKMA3-T | 2026-09-02 08:14:35 | 52.61365 | 8.18396 | 87° | 24km/h | 19494m | -10.1m/s | -50.9°C | 0.7% | 63hPa | 2.7V | 08:22:34 | 01:39:42 | 00:00:00 | |
| SO1NDE-10 | 2026-09-02 08:14:35 | 52.61365 | 8.18396 | 88° | 26km/h | 19495m | -10.1m/s | -50.9°C | 3.7% | 62.9hPa | 2.7V | 00:00:00 | 01:39:42 | 00:00:00 | |
| DL1XH1-15 | 2026-09-02 08:14:34 | 52.61363 | 8.18328 | 89° | 31km/h | 19555m | -10.3m/s | -50.9°C | 3.7% | 62.4hPa | 2.7V | 08:22:25 | 01:39:36 | 00:00:00 | |
| BIOWL1-15 | 2026-09-02 08:14:32 | 52.61364 | 8.18364 | 86° | 27km/h | 19525m | -10.2m/s | -51°C | 0.7% | 62.7hPa | 2.6V | 08:22:34 | 01:39:39 | 00:00:00 | |
| DO2JMG | 2026-09-02 08:14:31 | 52.61363 | 8.18352 | 86° | 29km/h | 19535m | -10.3m/s | -51°C | 0.7% | 62.6hPa | 2.6V | 08:22:34 | 01:39:38 | 00:00:00 | |
| DJ2DS-15 | 2026-09-02 08:14:31 | 52.61363 | 8.18352 | 86° | 27km/h | 19535m | -10.3m/s | -51.0°C | 1.2% | 62.6hPa | 2.7V | 00:00:00 | 00:00:00 | 00:00:00 | |
| DN9WHV | 2026-09-02 08:14:30 | 52.61363 | 8.18340 | 92° | 29km/h | 19545m | -9.9m/s | -51.0°C | 1.2% | 62.5hPa | 2.7V | 08:22:00 | 00:00:00 | 00:00:00 | |
| DL1XH-15 | 2026-09-02 08:14:29 | 52.61366 | 8.18265 | 95° | 31km/h | 19606m | -10.3m/s | -50.9°C | 3.7% | 61.9hPa | 2.7V | 08:22:30 | 01:39:31 | 00:00:00 | |
| HSKMA3-T | 2026-09-02 08:14:25 | 52.61365 | 8.18277 | 97° | 29km/h | 19596m | -10.3m/s | -50.9°C | 0.7% | 62hPa | 2.6V | 08:22:34 | 01:39:32 | 00:00:00 | |
| DB0DAN | 2026-09-02 08:14:25 | 52.61365 | 8.18277 | 97° | 27km/h | 19596m | -10.3m/s | -50.9°C | 1.2% | 61.98hPa | 2.6V | 00:00:00 | 00:00:00 | 00:00:00 | |
| BIOWL1-15 | 2026-09-02 08:14:21 | 52.61368 | 8.18227 | 97° | 31km/h | 19637m | -10.2m/s | -51°C | 0.8% | 61.6hPa | 2.6V | 08:22:34 | 01:39:28 | 00:00:00 | |
| DO2JMG | 2026-09-02 08:14:20 | 52.61369 | 8.18214 | 94° | 33km/h | 19647m | -9.5m/s | -51.1°C | 0.8% | 61.5hPa | 2.6V | 08:22:34 | 01:39:27 | 00:00:00 | |
| HSKMA3-T | 2026-09-02 08:14:14 | 52.61374 | 8.18134 | 100° | 31km/h | 19708m | -10.3m/s | -50.7°C | 0.7% | 61hPa | 2.6V | 08:23:25 | 01:39:21 | 00:00:00 | |
| DL1XH-west | 2026-09-02 08:14:11 | 52.61379 | 8.18097 | 105° | 29km/h | 19739m | -10.3m/s | -50.6°C | 0.6% | 60.7hPa | 2.7V | 08:23:25 | 01:39:18 | 00:00:00 | |
| DB0DAN | 2026-09-02 08:14:10 | 52.61381 | 8.18086 | 106° | 26km/h | 19749m | -10.7m/s | -50.6°C | 1.2% | 60.54hPa | 2.7V | 00:00:00 | 00:00:00 | 00:00:00 | |
| DO2JMG | 2026-09-02 08:14:09 | 52.61383 | 8.18076 | 105° | 26km/h | 19760m | -10.3m/s | -50.5°C | 0.6% | 60.5hPa | 2.6V | 08:23:25 | 01:39:16 | 00:00:00 | |
| DL4XJ-10 | 2026-09-02 08:14:09 | 52.61383 | 8.18075 | 106° | 16km/h | 19760m | -10.3m/s | -51.0°C | 0% | 0hPa | 2.7V | 00:00:00 | 00:00:00 | 00:00:00 | |
| BIOWL7-15 | 2026-09-02 08:14:08 | 52.61383 | 8.18075 | 106° | 26km/h | 19760m | -10.3m/s | -50.5°C | 1.1% | 60.5hPa | 2.7V | 08:23:00 | 00:00:00 | 00:00:00 | |
| D01LWL | 2026-09-02 08:14:07 | 52.61387 | 8.18048 | 100° | 20km/h | 19791m | -10.2m/s | -50.6°C | 1.2% | 60.2hPa | 2.7V | 00:00:00 | 00:00:00 | 00:00:00 | |
| DD8BA-10 | 2026-09-02 08:14:06 | 52.61387 | 8.18048 | 101° | 16km/h | 19791m | -10.1m/s | -50.5°C | 3.6% | 60.1hPa | 2.7V | 00:00:00 | 00:00:00 | 00:00:00 | |
| DL3AQ-11 | 2026-09-02 08:14:05 | 52.61389 | 8.18033 | 99° | 16km/h | 19811m | -10.1m/s | -50.7°C | 1.2% | 60.0hPa | 2.7V | 00:00:00 | 00:00:00 | 00:00:00 | |
| DL1XH1-15 | 2026-09-02 08:14:04 | 52.61393 | 8.18000 | 100° | 16km/h | 19863m | -10.3m/s | -50.6°C | 3.6% | 59.5hPa | 2.7V | 08:22:55 | 01:39:06 | 00:00:00 | |
| HSKMA3-T | 2026-09-02 08:14:04 | 52.61389 | 8.18033 | 100° | 18km/h | 19811m | -10.1m/s | -50.7°C | 0.6% | 60hPa | 2.7V | 08:23:25 | 01:39:11 | 00:00:00 | |
| DF8AY | 2026-09-02 08:14:03 | 52.61390 | 8.18026 | 100° | 16km/h | 19821m | -10.4m/s | -50.7°C | 0.7% | 59.9hPa | 2.6V | 08:23:25 | 01:39:10 | 00:00:00 | |
| DL1XH-west | 2026-09-02 08:14:01 | 52.61391 | 8.18013 | 100° | 16km/h | 19842m | -10.4m/s | -50.6°C | 0.6% | 59.7hPa | 2.6V | 08:23:25 | 01:39:08 | 00:00:00 | |
| BIOWL1-15 | 2026-09-02 08:14:00 | 52.61392 | 8.18006 | 101° | 15km/h | 19852m | -10.4m/s | -50.6°C | 0.6% | 59.6hPa | 2.7V | 08:23:25 | 01:39:07 | 00:00:00 | |
| DO2JMG | 2026-09-02 08:13:59 | 52.61393 | 8.18000 | 100° | 16km/h | 19863m | -10.3m/s | -50.6°C | 0.6% | 59.5hPa | 2.7V | 08:23:25 | 01:39:06 | 00:00:00 | |
| AA1-15 | 2026-09-02 08:13:58 | 52.61394 | 8.17993 | 99° | 16km/h | 19873m | -10.4m/s | -50.7°C | 0.6% | 59.4hPa | 2.7V | 08:23:25 | 01:39:05 | 00:00:00 | |
| BIOWL1-15 | 2026-09-02 08:13:57 | 52.61384 | 8.17943 | 54° | 15km/h | 19967m | -10.5m/s | -51.3°C | 0.7% | 58.5hPa | 2.6V | 08:23:25 | 01:38:56 | 00:00:00 | |
| GOEST3-10 | 2026-09-02 08:13:57 | 52.61394 | 8.17987 | 95° | 15km/h | 19884m | -10.5m/s | -50.6°C | 3.6% | 59.3hPa | 2.6V | 00:00:00 | 00:00:00 | 00:00:00 | |
| DD8BA-10 | 2026-09-02 08:13:56 | 52.61394 | 8.17981 | 94° | 15km/h | 19894m | -10.2m/s | -50.7°C | 3.6% | 59.2hPa | 2.6V | 00:00:00 | 00:00:00 | 00:00:00 | |
| DM0DOS-11 | 2026-09-02 08:13:55 | 52.61386 | 8.17948 | 55° | 15km/h | 19956m | -10.5m/s | -51.2°C | 3.7% | 58.6hPa | 2.6V | 08:23:04 | 01:38:57 | 00:00:00 | |
| DB0DAN | 2026-09-02 08:13:55 | 52.61394 | 8.17975 | 80° | 13km/h | 19904m | -10.4m/s | -50.8°C | 1.2% | 59.12hPa | 2.6V | 00:00:00 | 00:00:00 | 00:00:00 | |
| HSKMA3-T | 2026-09-02 08:13:54 | 52.61393 | 8.17969 | 73° | 15km/h | 19915m | -10.4m/s | -50.9°C | 0.6% | 59hPa | 2.7V | 08:23:25 | 01:39:01 | 00:00:00 | |
| DF8AY | 2026-09-02 08:13:53 | 52.61392 | 8.17964 | 65° | 15km/h | 19925m | -10.4m/s | -50.9°C | 0.7% | 58.9hPa | 2.7V | 08:23:25 | 01:39:00 | 00:00:00 | |
| BUE01 | 2026-09-02 08:13:53 | 52.61390 | 8.17959 | 58° | 15km/h | 19935m | -10.2m/s | -51.0°C | 1.2% | 58.8hPa | 2.7V | 00:00:00 | 00:00:00 | 00:00:00 | |
| GOEST3-10 | 2026-09-02 08:13:52 | 52.61390 | 8.17958 | 59° | 15km/h | 19935m | -10.1m/s | -51.0°C | 3.6% | 58.8hPa | 2.7V | 00:00:00 | 01:38:59 | 00:00:00 | |
| DN9WHV | 2026-09-02 08:13:51 | 52.61388 | 8.17953 | 54° | 15km/h | 19946m | -10.6m/s | -51.1°C | 1.2% | 58.8hPa | 2.6V | 08:23:00 | 00:00:00 | 00:00:00 | |
| DC6BW-12 | 2026-09-02 08:13:50 | 52.61388 | 8.17953 | 54° | 15km/h | 19946m | -10.6m/s | -51.1°C | 1.2% | 58.8hPa | 2.6V | 08:23:00 | 00:00:00 | 00:00:00 | |
| DL1XH-west | 2026-09-02 08:13:50 | 52.61386 | 8.17948 | 56° | 15km/h | 19956m | -10.5m/s | -51.2°C | 0.7% | 58.7hPa | 2.6V | 08:23:25 | 01:38:57 | 00:00:00 | |
| DL1XH-15 | 2026-09-02 08:13:49 | 52.61375 | 8.17917 | 67° | 15km/h | 20020m | -10.8m/s | -51.3°C | 3.7% | 58.1hPa | 2.6V | 08:23:10 | 01:38:51 | 00:00:00 | |
| DO2JMG | 2026-09-02 08:13:48 | 52.61382 | 8.17938 | 57° | 15km/h | 19977m | -10.5m/s | -51.3°C | 0.8% | 58.5hPa | 2.7V | 08:23:25 | 01:38:55 | 00:00:00 | |
| AA1-15 | 2026-09-02 08:13:47 | 52.61380 | 8.17933 | 58° | 15km/h | 19988m | -10.5m/s | -51.4°C | 0.8% | 58.4hPa | 2.7V | 08:23:25 | 01:38:54 | 00:00:00 | |
| DL1NUX | 2026-09-02 08:13:47 | 52.61372 | 8.17904 | 72° | 16km/h | 20041m | -10.6m/s | -51.3°C | 3.7% | 57.9hPa | 2.7V | 08:23:12 | 01:38:49 | 00:00:00 | |
| GOEST3-10 | 2026-09-02 08:13:47 | 52.61380 | 8.17933 | 58° | 15km/h | 19988m | -10.5m/s | -51.3°C | 3.8% | 58.3hPa | 2.7V | 00:00:00 | 00:00:00 | 00:00:00 | |
| DD8BA-10 | 2026-09-02 08:13:46 | 52.61378 | 8.17928 | 61° | 16km/h | 19998m | -10.6m/s | -51.4°C | 3.8% | 58.2hPa | 2.7V | 00:00:00 | 00:00:00 | 00:00:00 | |
| DM0DOS-11 | 2026-09-02 08:13:45 | 52.61370 | 8.17890 | 80° | 16km/h | 20062m | -10.4m/s | -51.4°C | 3.8% | 57.7hPa | 2.7V | 08:23:14 | 01:38:47 | 00:00:00 | |
| DL1XH1-15 | 2026-09-02 08:13:44 | 52.61369 | 8.17883 | 78° | 18km/h | 20073m | -10.6m/s | -51.4°C | 3.8% | 57.6hPa | 2.6V | 08:23:15 | 01:38:46 | 00:00:00 | |
| HSKMA3-T | 2026-09-02 08:13:44 | 52.61375 | 8.17917 | 68° | 15km/h | 20020m | -10.8m/s | -51.3°C | 0.7% | 58.1hPa | 2.6V | 08:23:25 | 01:38:51 | 00:00:00 | |
| DF8AY | 2026-09-02 08:13:42 | 52.61372 | 8.17904 | 73° | 16km/h | 20041m | -10.6m/s | -51.3°C | 0.7% | 57.9hPa | 2.7V | 08:23:25 | 01:38:49 | 00:00:00 | |
| DL1XH-west | 2026-09-02 08:13:40 | 52.61370 | 8.17890 | 81° | 16km/h | 20062m | -10.5m/s | -51.4°C | 0.8% | 57.7hPa | 2.7V | 08:23:25 | 01:38:47 | 00:00:00 | |
| DB0DAN | 2026-09-02 08:13:40 | 52.61370 | 8.17890 | 80° | 16km/h | 20062m | -10.5m/s | -51.4°C | 1.2% | 57.71hPa | 2.7V | 00:00:00 | 00:00:00 | 00:00:00 | |
| BIOWL1-15 | 2026-09-02 08:13:38 | 52.61368 | 8.17876 | 80° | 18km/h | 20083m | -11m/s | -51.4°C | 0.8% | 57.5hPa | 2.6V | 08:23:25 | 01:38:45 | 00:00:00 | |
| DO2JMG | 2026-09-02 08:13:37 | 52.61367 | 8.17868 | 79° | 18km/h | 20094m | -10.8m/s | -51.4°C | 0.8% | 57.4hPa | 2.6V | 08:23:25 | 01:38:44 | 00:00:00 | |
| AA1-15 | 2026-09-02 08:13:36 | 52.61367 | 8.17861 | 80° | 18km/h | 20105m | -10.8m/s | -51.5°C | 0.8% | 57.3hPa | 2.7V | 08:23:25 | 01:38:43 | 00:00:00 | |
| D01LWL | 2026-09-02 08:13:36 | 52.61366 | 8.17854 | 82° | 16km/h | 20116m | -10.9m/s | -51.5°C | 1.3% | 57.2hPa | 2.7V | 00:00:00 | 00:00:00 | 00:00:00 | |
| DB0NH | 2026-09-02 08:13:35 | 52.61366 | 8.17854 | 83° | 16km/h | 20116m | -10.9m/s | -51.5°C | 3.8% | 57.2hPa | 2.7V | 00:00:00 | 01:38:42 | 00:00:00 | |
| DL1XH1-15 | 2026-09-02 08:13:34 | 52.61368 | 8.17808 | 101° | 22km/h | 20180m | -10.5m/s | -51.5°C | 3.8% | 56.7hPa | 2.7V | 08:23:25 | 01:38:36 | 00:00:00 | |
| HSKMA3-T | 2026-09-02 08:13:33 | 52.61365 | 8.17839 | 89° | 18km/h | 20138m | -11m/s | -51.6°C | 0.8% | 57hPa | 2.6V | 08:23:25 | 01:38:40 | 00:00:00 | |
| DF8AY | 2026-09-02 08:13:32 | 52.61365 | 8.17832 | 92° | 18km/h | 20148m | -10.5m/s | -51.6°C | 0.8% | 56.9hPa | 2.6V | 08:23:25 | 01:38:39 | 00:00:00 | |
| GOEST3-10 | 2026-09-02 08:13:32 | 52.61365 | 8.17832 | 92° | 20km/h | 20148m | -10.5m/s | -51.6°C | 3.8% | 56.9hPa | 2.7V | 00:00:00 | 01:38:39 | 00:00:00 | |
| DN9WHV | 2026-09-02 08:13:31 | 52.61366 | 8.17832 | 93° | 18km/h | 20148m | -10.5m/s | -51.6°C | 1.2% | 56.9hPa | 2.7V | 08:23:00 | 00:00:00 | 00:00:00 | |
| SONCRA | 2026-09-02 08:13:30 | 52.61367 | 8.17817 | 104° | 18km/h | 20170m | -10.6m/s | -51.5°C | 1.2% | 56.8hPa | 2.7V | 00:00:00 | 00:00:00 | 00:00:00 | |
| DL1XH-15 | 2026-09-02 08:13:29 | 52.61374 | 8.17764 | 106° | 18km/h | 20234m | -11m/s | -51.4°C | 3.8% | 56.2hPa | 2.7V | 08:23:30 | 01:38:31 | 00:00:00 | |
| DL1XH-west | 2026-09-02 08:13:29 | 52.61368 | 8.17808 | 102° | 22km/h | 20180m | -10.5m/s | -51.5°C | 0.8% | 56.7hPa | 2.7V | 08:23:25 | 01:38:36 | 00:00:00 | |
| DO2JMG | 2026-09-02 08:13:27 | 52.61370 | 8.17790 | 99° | 22km/h | 20202m | -10.5m/s | -51.5°C | 0.8% | 56.5hPa | 2.6V | 08:24:16 | 01:38:34 | 00:00:00 | |
| GOEST3-10 | 2026-09-02 08:13:27 | 52.61370 | 8.17790 | 99° | 20km/h | 20202m | -10.4m/s | -51.4°C | 3.8% | 56.4hPa | 2.6V | 00:00:00 | 00:00:00 | 00:00:00 | |
| DD1CC8 | 2026-09-02 08:13:26 | 52.61372 | 8.17781 | 101° | 22km/h | 20212m | -10.7m/s | -51.4°C | 1.3% | 56.4hPa | 2.6V | 00:00:00 | 00:00:00 | 00:00:00 | |
| DM0DOS-11 | 2026-09-02 08:13:25 | 52.61379 | 8.17743 | 133° | 11km/h | 20277m | -10.6m/s | -51.5°C | 3.8% | 55.8hPa | 2.6V | 08:23:34 | 01:38:27 | 00:00:00 | |
| AA1-15 | 2026-09-02 08:13:25 | 52.61372 | 8.17772 | 99° | 20km/h | 20223m | -10.8m/s | -51.4°C | 0.8% | 56.3hPa | 2.6V | 08:24:16 | 01:38:32 | 00:00:00 | |
| DB0DAN | 2026-09-02 08:13:25 | 52.61372 | 8.17772 | 99° | 18km/h | 20223m | -10.8m/s | -51.4°C | 1.2% | 56.27hPa | 2.6V | 00:00:00 | 00:00:00 | 00:00:00 | |
| HSKMA3-T | 2026-09-02 08:13:22 | 52.61376 | 8.17751 | 110° | 15km/h | 20255m | -10.8m/s | -51.5°C | 0.8% | 56hPa | 2.7V | 08:24:16 | 01:38:29 | 00:00:00 | |
| DF8AY | 2026-09-02 08:13:21 | 52.61377 | 8.17746 | 124° | 11km/h | 20266m | -10.4m/s | -51.5°C | 0.8% | 55.9hPa | 2.6V | 08:24:16 | 01:38:28 | 00:00:00 | |
| DO9LL-15 | 2026-09-02 08:13:20 | 52.61379 | 8.17743 | 134° | 11km/h | 20277m | -10.6m/s | -51.5°C | 3.8% | 55.8hPa | 2.6V | 00:00:00 | 01:38:27 | 00:00:00 | |
| DL1XH-15 | 2026-09-02 08:13:19 | 52.61388 | 8.17721 | 90° | 11km/h | 20343m | -11.1m/s | -51.5°C | 3.8% | 55.2hPa | 2.6V | 08:23:40 | 01:38:21 | 00:00:00 | |
| DL1XH-west | 2026-09-02 08:13:18 | 52.61383 | 8.17736 | 135° | 11km/h | 20298m | -11.4m/s | -51.5°C | 0.7% | 55.6hPa | 2.7V | 08:24:16 | 01:38:25 | 00:00:00 | |
| BIOWL1-15 | 2026-09-02 08:13:17 | 52.61385 | 8.17733 | 130° | 11km/h | 20310m | -11.2m/s | -51.5°C | 0.8% | 55.5hPa | 2.7V | 08:24:16 | 01:38:24 | 00:00:00 | |
| DO2JMG | 2026-09-02 08:13:16 | 52.61387 | 8.17729 | 112° | 11km/h | 20321m | -11.1m/s | -51.5°C | 0.8% | 55.5hPa | 2.7V | 08:24:16 | 01:38:23 | 00:00:00 | |
| AA1-15 | 2026-09-02 08:13:14 | 52.61388 | 8.17720 | 91° | 11km/h | 20343m | -11.1m/s | -51.5°C | 0.8% | 55.3hPa | 2.6V | 08:24:16 | 01:38:21 | 00:00:00 | |
| HSKMA3-T | 2026-09-02 08:13:11 | 52.61385 | 8.17703 | 68° | 18km/h | 20376m | -11.2m/s | -51.6°C | 0.8% | 55hPa | 2.7V | 08:24:16 | 01:38:18 | 00:00:00 | |
| DF8AY | 2026-09-02 08:13:10 | 52.61384 | 8.17696 | 63° | 16km/h | 20387m | -11.4m/s | -51.6°C | 0.9% | 54.9hPa | 2.7V | 08:24:16 | 01:38:17 | 00:00:00 | |
| DB0DAN | 2026-09-02 08:13:10 | 52.61384 | 8.17696 | 63° | 16km/h | 20387m | -11.4m/s | -51.6°C | 1.3% | 54.89hPa | 2.7V | 00:00:00 | 00:00:00 | 00:00:00 | |
| DL1XH-west | 2026-09-02 08:13:07 | 52.61379 | 8.17677 | 69° | 15km/h | 20421m | -11.4m/s | -51.4°C | 0.8% | 54.6hPa | 2.6V | 08:24:16 | 01:38:14 | 00:00:00 | |
| DL1NUX | 2026-09-02 08:13:07 | 52.61377 | 8.17656 | 88° | 7km/h | 20476m | -10.9m/s | -51.4°C | 3.8% | 54.1hPa | 2.6V | 08:23:52 | 01:38:09 | 00:00:00 | |
| BIOWL1-15 | 2026-09-02 08:13:06 | 52.61378 | 8.17672 | 71° | 13km/h | 20432m | -11.4m/s | -51.4°C | 0.7% | 54.5hPa | 2.7V | 08:24:16 | 01:38:13 | 00:00:00 | |
| DL4BBY-15 | 2026-09-02 08:13:06 | 52.61378 | 8.17672 | 72° | 15km/h | 20432m | -11.4m/s | -51.9°C | 0% | 0hPa | 2.7V | 00:00:00 | 00:00:00 | 00:00:00 | |
| DM0DOS-11 | 2026-09-02 08:13:05 | 52.61377 | 8.17652 | 78° | 5km/h | 20498m | -11.1m/s | -51.5°C | 3.8% | 53.9hPa | 2.7V | 08:23:54 | 01:38:07 | 00:00:00 | |
| DO2JMG | 2026-09-02 08:13:05 | 52.61377 | 8.17668 | 83° | 11km/h | 20444m | -11.1m/s | -51.4°C | 0.8% | 54.4hPa | 2.7V | 08:24:16 | 01:38:12 | 00:00:00 | |
| AA1-15 | 2026-09-02 08:13:03 | 52.61377 | 8.17659 | 81° | 9km/h | 20465m | -11.3m/s | -51.4°C | 0.7% | 54.2hPa | 2.6V | 08:24:16 | 01:38:10 | 00:00:00 | |
| HSKMA3-T | 2026-09-02 08:13:01 | 52.61377 | 8.17654 | 91° | 5km/h | 20487m | -10.9m/s | -51.4°C | 0.8% | 54hPa | 2.6V | 08:24:16 | 01:38:08 | 00:00:00 | |
| DF8AY | 2026-09-02 08:13:00 | 52.61376 | 8.17650 | 67° | 5km/h | 20509m | -11m/s | -51.5°C | 0.8% | 53.8hPa | 2.7V | 08:24:16 | 01:38:06 | 00:00:00 | |
| DL1XH-west | 2026-09-02 08:12:57 | 52.61375 | 8.17645 | 42° | 7km/h | 20532m | -11m/s | -51.4°C | 0.9% | 53.7hPa | 2.6V | 08:24:16 | 01:38:04 | 00:00:00 | |
| BIOWL1-15 | 2026-09-02 08:12:56 | 52.61374 | 8.17643 | 53° | 7km/h | 20543m | -10.8m/s | -51.4°C | 0.8% | 53.6hPa | 2.6V | 08:24:16 | 01:38:03 | 00:00:00 | |
| DB0DAN | 2026-09-02 08:12:55 | 52.61372 | 8.17641 | 41° | 9km/h | 20553m | -10.6m/s | -51.4°C | 1.2% | 53.46hPa | 2.6V | 00:00:00 | 00:00:00 | 00:00:00 | |
| DL1XH1-15 | 2026-09-02 08:12:54 | 52.61358 | 8.17618 | 60° | 13km/h | 20618m | -10.9m/s | -51.3°C | 3.7% | 53hPa | 2.6V | 08:24:05 | 01:37:56 | 00:00:00 | |
| DO2JMG | 2026-09-02 08:12:54 | 52.61370 | 8.17638 | 38° | 13km/h | 20564m | -11m/s | -51.4°C | 0.7% | 53.4hPa | 2.7V | 08:24:16 | 01:38:01 | 00:00:00 | |
| AA1-15 | 2026-09-02 08:12:53 | 52.61368 | 8.17634 | 40° | 13km/h | 20575m | -11.1m/s | -51.4°C | 0.8% | 53.3hPa | 2.7V | 08:24:16 | 01:38:00 | 00:00:00 | |
| HSKMA3-T | 2026-09-02 08:12:50 | 52.61360 | 8.17623 | 52° | 15km/h | 20608m | -10.8m/s | -51.3°C | 0.8% | 53hPa | 2.6V | 08:24:16 | 01:37:57 | 00:00:00 | |
| DF8AY | 2026-09-02 08:12:48 | 52.61357 | 8.17613 | 74° | 13km/h | 20629m | -11m/s | -51.4°C | 0.8% | 52.9hPa | 2.7V | 08:24:16 | 01:37:55 | 00:00:00 | |
| DL1XH-west | 2026-09-02 08:12:47 | 52.61357 | 8.17607 | 86° | 13km/h | 20640m | -11.2m/s | -51.4°C | 0.8% | 52.8hPa | 2.7V | 08:24:16 | 01:37:54 | 00:00:00 | |
| BIOWL1-15 | 2026-09-02 08:12:45 | 52.61358 | 8.17595 | 104° | 16km/h | 20662m | -10.7m/s | -51.4°C | 0.8% | 52.6hPa | 2.6V | 08:24:16 | 01:37:52 | 00:00:00 | |
| DL1XH1-15 | 2026-09-02 08:12:44 | 52.61360 | 8.17545 | 77° | 26km/h | 20729m | -11m/s | -51.5°C | 3.9% | 52hPa | 2.6V | 08:24:15 | 01:37:46 | 00:00:00 | |
| DO2JMG | 2026-09-02 08:12:43 | 52.61360 | 8.17580 | 103° | 18km/h | 20685m | -11.2m/s | -51.5°C | 0.9% | 52.4hPa | 2.6V | 08:24:16 | 01:37:50 | 00:00:00 | |
| AA1-15 | 2026-09-02 08:12:42 | 52.61361 | 8.17572 | 95° | 20km/h | 20696m | -11.3m/s | -51.5°C | 0.8% | 52.3hPa | 2.7V | 08:24:16 | 01:37:49 | 00:00:00 | |
| HSKMA3-T | 2026-09-02 08:12:40 | 52.61361 | 8.17554 | 83° | 24km/h | 20718m | -11m/s | -51.6°C | 0.9% | 52.1hPa | 2.7V | 08:24:16 | 01:37:47 | 00:00:00 | |
| DB0DAN | 2026-09-02 08:12:40 | 52.61361 | 8.17554 | 83° | 22km/h | 20718m | -11m/s | -51.6°C | 1.3% | 52.13hPa | 2.7V | 00:00:00 | 00:00:00 | 00:00:00 | |
| DF8AY | 2026-09-02 08:12:38 | 52.61358 | 8.17534 | 75° | 26km/h | 20740m | -10.9m/s | -51.5°C | 0.8% | 52hPa | 2.6V | 08:24:16 | 01:37:45 | 00:00:00 | |
| DL1NUX | 2026-09-02 08:12:37 | 52.61349 | 8.17474 | 81° | 22km/h | 20807m | -11.3m/s | -51.5°C | 3.9% | 51.4hPa | 2.6V | 08:24:22 | 01:37:39 | 00:00:00 | |
| DL1XH-west | 2026-09-02 08:12:36 | 52.61355 | 8.17513 | 72° | 27km/h | 20762m | -11.2m/s | -51.5°C | 0.8% | 51.8hPa | 2.7V | 08:25:07 | 01:37:43 | 00:00:00 | |
| DL4BBY-15 | 2026-09-02 08:12:36 | 52.61355 | 8.17513 | 72° | 24km/h | 20762m | -11.2m/s | -52.0°C | 0% | 0hPa | 2.7V | 00:00:00 | 00:00:00 | 00:00:00 | |
| DB0NH | 2026-09-02 08:12:35 | 52.61353 | 8.17503 | 72° | 24km/h | 20774m | -11.2m/s | -51.5°C | 3.9% | 51.7hPa | 2.7V | 00:00:00 | 01:37:42 | 00:00:00 | |
| DL1XH1-15 | 2026-09-02 08:12:34 | 52.61348 | 8.17449 | 86° | 20km/h | 20841m | -11.1m/s | -51.5°C | 3.9% | 51.2hPa | 2.7V | 08:24:25 | 01:37:36 | 00:00:00 | |
| BIOWL1-15 | 2026-09-02 08:12:34 | 52.61351 | 8.17493 | 75° | 24km/h | 20785m | -11.7m/s | -51.5°C | 0.8% | 51.6hPa | 2.7V | 08:25:07 | 01:37:41 | 00:00:00 | |
| DO2JMG | 2026-09-02 08:12:32 | 52.61349 | 8.17474 | 82° | 22km/h | 20807m | -11.3m/s | -51.5°C | 0.9% | 51.4hPa | 2.6V | 08:25:07 | 01:37:39 | 00:00:00 | |
| AA1-15 | 2026-09-02 08:12:31 | 52.61348 | 8.17465 | 84° | 20km/h | 20818m | -11m/s | -51.6°C | 0.8% | 51.3hPa | 2.6V | 08:25:07 | 01:37:38 | 00:00:00 | |
| DN9WHV | 2026-09-02 08:12:30 | 52.61348 | 8.17465 | 85° | 20km/h | 20819m | -11.0m/s | -51.6°C | 1.3% | 51.3hPa | 2.7V | 08:25:00 | 00:00:00 | 00:00:00 | |
| DL1XH-15 | 2026-09-02 08:12:29 | 52.61345 | 8.17399 | 81° | 27km/h | 20896m | -11.4m/s | -51.6°C | 4% | 50.7hPa | 2.7V | 08:24:30 | 01:37:31 | 00:00:00 | |
| HSKMA3-T | 2026-09-02 08:12:29 | 52.61348 | 8.17449 | 86° | 20km/h | 20841m | -11.1m/s | -51.6°C | 0.8% | 51.2hPa | 2.7V | 08:25:07 | 01:37:36 | 00:00:00 | |
| DF8AY | 2026-09-02 08:12:28 | 52.61347 | 8.17440 | 86° | 22km/h | 20852m | -11.4m/s | -51.6°C | 0.9% | 51.1hPa | 2.7V | 08:25:07 | 01:37:35 | 00:00:00 | |
| DL1XH-west | 2026-09-02 08:12:26 | 52.61346 | 8.17421 | 82° | 26km/h | 20874m | -10.9m/s | -51.6°C | 0.9% | 50.9hPa | 2.6V | 08:25:07 | 01:37:33 | 00:00:00 | |
| DM0DOS-11 | 2026-09-02 08:12:25 | 52.61343 | 8.17354 | 90° | 27km/h | 20942m | -11.2m/s | -51.1°C | 3.9% | 50.4hPa | 2.6V | 08:24:34 | 01:37:27 | 00:00:00 | |
| DB0DAN | 2026-09-02 08:12:25 | 52.61345 | 8.17410 | 82° | 26km/h | 20885m | -11.2m/s | -51.7°C | 1.3% | 50.8hPa | 2.6V | 00:00:00 | 00:00:00 | 00:00:00 | |
| BIOWL1-15 | 2026-09-02 08:12:24 | 52.61344 | 8.17399 | 81° | 27km/h | 20896m | -11.4m/s | -51.6°C | 0.9% | 50.7hPa | 2.7V | 08:25:07 | 01:37:31 | 00:00:00 | |
| DO2JMG | 2026-09-02 08:12:22 | 52.61343 | 8.17376 | 86° | 27km/h | 20919m | -11.6m/s | -51.5°C | 0.9% | 50.6hPa | 2.7V | 08:25:07 | 01:37:29 | 00:00:00 | |
| AA1-15 | 2026-09-02 08:12:20 | 52.61343 | 8.17354 | 91° | 27km/h | 20942m | -11.2m/s | -51.1°C | 0.8% | 50.4hPa | 2.6V | 08:25:07 | 01:37:27 | 00:00:00 | |
| HSKMA3-T | 2026-09-02 08:12:18 | 52.61343 | 8.17332 | 93° | 26km/h | 20964m | -11.3m/s | -50.9°C | 0.8% | 50.2hPa | 2.7V | 08:25:07 | 01:37:25 | 00:00:00 | |
| DL3OBA | 2026-09-02 08:12:18 | 52.61343 | 8.17332 | 94° | 26km/h | 20964m | -11.3m/s | -50.9°C | 1.2% | 50.2hPa | 2.7V | 08:25:00 | 00:00:00 | 00:00:00 | |
| DF8AY | 2026-09-02 08:12:17 | 52.61344 | 8.17322 | 92° | 26km/h | 20975m | -11.6m/s | -50.9°C | 0.8% | 50.1hPa | 2.7V | 08:25:07 | 01:37:24 | 00:00:00 | |
| GOEST3-10 | 2026-09-02 08:12:17 | 52.61344 | 8.17322 | 92° | 24km/h | 20976m | -11.6m/s | -50.8°C | 3.8% | 50.1hPa | 2.7V | 00:00:00 | 00:00:00 | 00:00:00 | |
| DL1NUX | 2026-09-02 08:12:16 | 52.61344 | 8.17265 | 90° | 22km/h | 21044m | -11.6m/s | -50.8°C | 3.8% | 49.6hPa | 2.7V | 08:24:43 | 01:37:18 | 00:00:00 | |
| DN9WHV | 2026-09-02 08:12:16 | 52.61344 | 8.17312 | 93° | 24km/h | 20987m | -11.5m/s | -50.8°C | 1.2% | 50.0hPa | 2.6V | 08:25:00 | 00:00:00 | 00:00:00 | |
| DL8OAI-8 | 2026-09-02 08:12:15 | 52.61344 | 8.17312 | 93° | 24km/h | 20987m | -11.5m/s | 0°C | 0% | 0hPa | 2.6V | 00:00:00 | 00:00:00 | 00:00:00 | |
| DL1XH-west | 2026-09-02 08:12:15 | 52.61344 | 8.17302 | 90° | 24km/h | 20999m | -11.3m/s | -50.8°C | 0.8% | 49.9hPa | 2.6V | 08:25:07 | 01:37:22 | 00:00:00 | |
| DL1XH1-15 | 2026-09-02 08:12:14 | 52.61345 | 8.17247 | 94° | 20km/h | 21067m | -11.4m/s | -50.9°C | 3.8% | 49.4hPa | 2.6V | 08:24:45 | 01:37:16 | 00:00:00 | |
| BIOWL1-15 | 2026-09-02 08:12:14 | 52.61344 | 8.17292 | 90° | 22km/h | 21010m | -11.4m/s | -50.8°C | 0.7% | 49.9hPa | 2.6V | 08:25:07 | 01:37:21 | 00:00:00 | |
| DO2JMG | 2026-09-02 08:12:11 | 52.61344 | 8.17265 | 91° | 22km/h | 21044m | -11.6m/s | -50.8°C | 0.8% | 49.6hPa | 2.7V | 08:25:07 | 01:37:18 | 00:00:00 | |
| DF8AY | 2026-09-02 08:12:11 | 52.61346 | 8.17222 | 99° | 20km/h | 21102m | -11.4m/s | -50.7°C | 0.7% | 49.1hPa | 2.7V | 08:25:07 | 01:37:13 | 00:00:00 | |
| DB0DAN | 2026-09-02 08:12:10 | 52.61344 | 8.17256 | 93° | 20km/h | 21056m | -11.6m/s | -50.8°C | 1.2% | 49.5hPa | 2.7V | 00:00:00 | 00:00:00 | 00:00:00 | |
| DL1XH-15 | 2026-09-02 08:12:09 | 52.61349 | 8.17206 | 104° | 18km/h | 21125m | -11.4m/s | -50.5°C | 3.7% | 49hPa | 2.7V | 08:24:50 | 01:37:11 | 00:00:00 | |
| AA1-15 | 2026-09-02 08:12:09 | 52.61345 | 8.17247 | 94° | 20km/h | 21067m | -11.4m/s | -50.9°C | 0.8% | 49.4hPa | 2.6V | 08:25:07 | 01:37:16 | 00:00:00 | |
| HSKMA3-T | 2026-09-02 08:12:07 | 52.61346 | 8.17230 | 97° | 20km/h | 21090m | -11.5m/s | -50.8°C | 0.8% | 49.2hPa | 2.6V | 08:25:07 | 01:37:14 | 00:00:00 | |
| BIOWL1-15 | 2026-09-02 08:12:05 | 52.61350 | 8.17198 | 101° | 18km/h | 21136m | -11.6m/s | -50.5°C | 0.7% | 48.9hPa | 2.6V | 08:25:07 | 01:37:10 | 00:00:00 | |
| DL1XH-west | 2026-09-02 08:12:05 | 52.61347 | 8.17214 | 104° | 20km/h | 21113m | -11.7m/s | -50.6°C | 0.7% | 49.1hPa | 2.7V | 08:25:07 | 01:37:12 | 00:00:00 | |
| DL3AQ-11 | 2026-09-02 08:12:05 | 52.61349 | 8.17206 | 104° | 18km/h | 21125m | -11.4m/s | -50.5°C | 1.2% | 49.0hPa | 2.7V | 00:00:00 | 00:00:00 | 00:00:00 | |
| DL1NUX | 2026-09-02 08:12:04 | 52.61354 | 8.17168 | 100° | 18km/h | 21182m | -11.5m/s | -50.3°C | 3.6% | 48.5hPa | 2.7V | 08:24:55 | 01:37:06 | 00:00:00 | |
| DO2JMG | 2026-09-02 08:12:00 | 52.61353 | 8.17176 | 100° | 18km/h | 21170m | -11.5m/s | -50.3°C | 0.6% | 48.6hPa | 2.7V | 08:25:07 | 01:37:07 | 00:00:00 | |
| AA1-15 | 2026-09-02 08:11:58 | 52.61354 | 8.17161 | 102° | 18km/h | 21193m | -11.2m/s | -50.3°C | 0.6% | 48.5hPa | 2.7V | 08:25:07 | 01:37:05 | 00:00:00 | |
| HSKMA3-T | 2026-09-02 08:11:57 | 52.61355 | 8.17154 | 105° | 16km/h | 21205m | -11.5m/s | -50.3°C | 0.6% | 48.4hPa | 2.6V | 08:25:07 | 01:37:04 | 00:00:00 | |
| DF8AY | 2026-09-02 08:11:56 | 52.61357 | 8.17147 | 111° | 18km/h | 21217m | -11.6m/s | -50.3°C | 0.7% | 48.3hPa | 2.6V | 08:25:07 | 01:37:03 | 00:00:00 | |
| DB0DAN | 2026-09-02 08:11:55 | 52.61358 | 8.17140 | 110° | 16km/h | 21228m | -11.5m/s | -50.4°C | 1.1% | 48.21hPa | 2.6V | 00:00:00 | 00:00:00 | 00:00:00 | |
| DL1NUX | 2026-09-02 08:11:54 | 52.61369 | 8.17106 | 121° | 13km/h | 21296m | -11.7m/s | -50.5°C | 3.6% | 47.7hPa | 2.6V | 08:25:05 | 01:36:56 | 00:00:00 | |
| DL1XH-west | 2026-09-02 08:11:54 | 52.61360 | 8.17133 | 111° | 16km/h | 21239m | -11.1m/s | -50.4°C | 0.6% | 48.1hPa | 2.7V | 08:25:07 | 01:37:01 | 00:00:00 | |
| BIOWL1-15 | 2026-09-02 08:11:52 | 52.61363 | 8.17121 | 120° | 16km/h | 21262m | -11.2m/s | -50.5°C | 0.7% | 48hPa | 2.7V | 08:25:07 | 01:36:59 | 00:00:00 | |
| BIOWL9-15 | 2026-09-02 08:11:52 | 52.61365 | 8.17115 | 117° | 15km/h | 21273m | -11.1m/s | -50.5°C | 1.2% | 47.9hPa | 2.6V | 00:00:00 | 00:00:00 | 00:00:00 | |
| EDDB2-11 | 2026-09-02 08:11:51 | 52.61367 | 8.17110 | 118° | 11km/h | 21284m | -11.8m/s | -50.5°C | 1.2% | 47.8hPa | 2.6V | 00:00:00 | 00:00:00 | 00:00:00 | |
| DO9LL-15 | 2026-09-02 08:11:50 | 52.61367 | 8.17110 | 119° | 9km/h | 21285m | -11.7m/s | -50.5°C | 3.6% | 47.7hPa | 2.6V | 00:00:00 | 01:36:57 | 00:00:00 | |
| DL1XH-15 | 2026-09-02 08:11:49 | 52.61373 | 8.17087 | 104° | 11km/h | 21354m | -11.6m/s | -50.9°C | 3.6% | 47.3hPa | 2.6V | 08:25:10 | 01:36:51 | 00:00:00 | |
| DO2JMG | 2026-09-02 08:11:49 | 52.61369 | 8.17106 | 121° | 13km/h | 21296m | -11.7m/s | -50.5°C | 0.6% | 47.7hPa | 2.6V | 08:25:07 | 01:36:56 | 00:00:00 | |
| HSKMA3-T | 2026-09-02 08:11:47 | 52.61371 | 8.17098 | 110° | 9km/h | 21319m | -11.5m/s | -50.6°C | 0.6% | 47.5hPa | 2.7V | 08:25:07 | 01:36:54 | 00:00:00 | |
| DF8AY | 2026-09-02 08:11:45 | 52.61372 | 8.17091 | 104° | 9km/h | 21342m | -11.7m/s | -50.8°C | 0.6% | 47.4hPa | 2.6V | 08:25:58 | 01:36:52 | 00:00:00 | |
| DL1XH-west | 2026-09-02 08:11:44 | 52.61373 | 8.17087 | 105° | 11km/h | 21354m | -11.6m/s | -50.9°C | 0.7% | 47.3hPa | 2.6V | 08:25:58 | 01:36:51 | 00:00:00 | |
| BIOWL1-15 | 2026-09-02 08:11:41 | 52.61375 | 8.17073 | 104° | 13km/h | 21388m | -11.3m/s | -51°C | 0.7% | 47hPa | 2.7V | 08:25:58 | 01:36:48 | 00:00:00 | |
| DB0UT-7 | 2026-09-02 08:11:41 | 52.61375 | 8.17073 | 105° | 9km/h | 21388m | -11.2m/s | -51.0°C | 3.7% | 47.0hPa | 2.7V | 00:00:00 | 01:36:48 | 00:00:00 | |
| AU51GT2 | 2026-09-02 08:11:40 | 52.61376 | 8.17068 | 121° | 13km/h | 21400m | -11.4m/s | -51.1°C | 1.2% | 46.9hPa | 2.7V | 00:00:00 | 00:00:00 | 00:00:00 | |
| DL1XH-15 | 2026-09-02 08:11:39 | 52.61390 | 8.17050 | 167° | 11km/h | 21469m | -11.8m/s | -51.3°C | 3.7% | 46.4hPa | 2.7V | 08:25:20 | 01:36:41 | 00:00:00 | |
| DO2JMG | 2026-09-02 08:11:38 | 52.61380 | 8.17059 | 134° | 13km/h | 21422m | -11.4m/s | -51.2°C | 0.7% | 46.8hPa | 2.6V | 08:25:58 | 01:36:45 | 00:00:00 | |
| HSKMA3-T | 2026-09-02 08:11:36 | 52.61384 | 8.17053 | 150° | 13km/h | 21446m | -11.4m/s | -51.2°C | 0.7% | 46.6hPa | 2.7V | 08:25:58 | 01:36:43 | 00:00:00 | |
| DL1XH-west | 2026-09-02 08:11:34 | 52.61390 | 8.17050 | 168° | 11km/h | 21469m | -11.8m/s | -51.3°C | 0.7% | 46.4hPa | 2.7V | 08:25:58 | 01:36:41 | 00:00:00 | |
| DF8AY-15 | 2026-09-02 08:11:33 | 52.61392 | 8.17050 | 174° | 7km/h | 21481m | -11.7m/s | -51.3°C | 3.8% | 46.3hPa | 2.6V | 00:00:00 | 01:36:40 | 00:00:00 | |
| GOEST3-10 | 2026-09-02 08:11:32 | 52.61394 | 8.17049 | 185° | 5km/h | 21493m | -11.5m/s | -51.4°C | 3.8% | 46.2hPa | 2.7V | 00:00:00 | 01:36:39 | 00:00:00 | |
| DN9WHV | 2026-09-02 08:11:31 | 52.61394 | 8.17049 | 186° | 7km/h | 21493m | -11.5m/s | -51.5°C | 1.2% | 46.3hPa | 2.7V | 08:25:00 | 00:00:00 | 00:00:00 | |
| BIOWL1-15 | 2026-09-02 08:11:31 | 52.61396 | 8.17050 | 177° | 5km/h | 21504m | -11.4m/s | -51.5°C | 0.8% | 46.2hPa | 2.6V | 08:25:58 | 01:36:38 | 00:00:00 | |
| DO2LYB-13 | 2026-09-02 08:11:30 | 52.61396 | 8.17050 | 178° | 5km/h | 21504m | -11.4m/s | -51.5°C | 1.3% | 46.2hPa | 2.7V | 00:00:00 | 00:00:00 | 00:00:00 | |
| DL1XH-15 | 2026-09-02 08:11:29 | 52.61400 | 8.17039 | 77° | 5km/h | 21584m | -11.7m/s | -51.6°C | 3.9% | 45.6hPa | 2.7V | 08:25:30 | 01:36:31 | 00:00:00 | |
| DO2JMG | 2026-09-02 08:11:27 | 52.61400 | 8.17046 | 122° | 5km/h | 21550m | -11.4m/s | -51.7°C | 0.9% | 45.9hPa | 2.6V | 08:25:58 | 01:36:34 | 00:00:00 | |
| DL4XJ-10 | 2026-09-02 08:11:27 | 52.61400 | 8.17046 | 123° | 13km/h | 21550m | -11.3m/s | -52.2°C | 0% | 0hPa | 2.6V | 00:00:00 | 00:00:00 | 00:00:00 | |
| SONCRA | 2026-09-02 08:11:26 | 52.61400 | 8.17042 | 82° | 5km/h | 21573m | -11.8m/s | -51.7°C | 1.2% | 45.7hPa | 2.6V | 00:00:00 | 00:00:00 | 00:00:00 | |
| DM0DOS-11 | 2026-09-02 08:11:25 | 52.61395 | 8.17031 | 20° | 9km/h | 21630m | -11.9m/s | -51.6°C | 3.8% | 45.3hPa | 2.6V | 08:25:34 | 01:36:27 | 00:00:00 | |
| HSKMA3-T | 2026-09-02 08:11:25 | 52.61400 | 8.17042 | 83° | 7km/h | 21573m | -11.8m/s | -51.7°C | 0.8% | 45.7hPa | 2.6V | 08:25:58 | 01:36:32 | 00:00:00 | |
| DB0DAN | 2026-09-02 08:11:25 | 52.61400 | 8.17042 | 83° | 7km/h | 21573m | -11.8m/s | -51.7°C | 1.2% | 45.71hPa | 2.6V | 00:00:00 | 00:00:00 | 00:00:00 | |
| DL1XH-west | 2026-09-02 08:11:24 | 52.61400 | 8.17039 | 78° | 5km/h | 21584m | -11.7m/s | -51.6°C | 0.8% | 45.6hPa | 2.7V | 08:25:58 | 01:36:31 | 00:00:00 | |
| DF8AY | 2026-09-02 08:11:23 | 52.61399 | 8.17037 | 50° | 7km/h | 21596m | -11.8m/s | -51.5°C | 0.8% | 45.5hPa | 2.7V | 08:25:58 | 01:36:30 | 00:00:00 | |
| BIOWL1-15 | 2026-09-02 08:11:23 | 52.61396 | 8.17033 | 32° | 7km/h | 21619m | -11.1m/s | -51.5°C | 0.8% | 45.4hPa | 2.6V | 08:25:58 | 01:36:28 | 00:00:00 | |
| DD8BA-10 | 2026-09-02 08:11:23 | 52.61399 | 8.17037 | 50° | 9km/h | 21597m | -11.8m/s | -51.5°C | 3.8% | 45.5hPa | 2.7V | 00:00:00 | 00:00:00 | 00:00:00 | |
| GOEST3-10 | 2026-09-02 08:11:22 | 52.61398 | 8.17034 | 42° | 9km/h | 21608m | -11.4m/s | -51.5°C | 3.8% | 45.4hPa | 2.7V | 08:25:00 | 01:36:29 | 00:00:00 | |
| BIOWL9-15 | 2026-09-02 08:11:21 | 52.61394 | 8.17031 | 20° | 7km/h | 21631m | -11.9m/s | -51.6°C | 1.2% | 45.3hPa | 2.7V | 00:00:00 | 00:00:00 | 00:00:00 | |
| EDDB2-11 | 2026-09-02 08:11:20 | 52.61392 | 8.17030 | 17° | 9km/h | 21642m | -11.5m/s | -51.6°C | 1.2% | 45.2hPa | 2.7V | 00:00:00 | 00:00:00 | 00:00:00 | |
| DL1XH-15 | 2026-09-02 08:11:19 | 52.61379 | 8.17022 | 33° | 15km/h | 21701m | -12.2m/s | -51.6°C | 3.9% | 44.8hPa | 2.7V | 08:25:40 | 01:36:21 | 00:00:00 | |
| DO2JMG | 2026-09-02 08:11:17 | 52.61387 | 8.17028 | 14° | 11km/h | 21665m | -11.8m/s | -51.7°C | 0.8% | 45hPa | 2.6V | 08:25:58 | 01:36:24 | 00:00:00 | |
| HSKMA3-T | 2026-09-02 08:11:15 | 52.61382 | 8.17025 | 23° | 13km/h | 21689m | -12m/s | -51.7°C | 0.8% | 44.9hPa | 2.7V | 08:25:58 | 01:36:22 | 00:00:00 | |
| BIOWL1-15 | 2026-09-02 08:11:14 | 52.61364 | 8.17003 | 39° | 24km/h | 21748m | -12m/s | -51.5°C | 0.7% | 44.5hPa | 2.7V | 08:25:58 | 01:36:17 | 00:00:00 | |
| AA1-15 | 2026-09-02 08:11:14 | 52.61379 | 8.17022 | 34° | 15km/h | 21701m | -12.2m/s | -51.7°C | 0.9% | 44.8hPa | 2.7V | 08:25:58 | 01:36:21 | 00:00:00 | |
| DL1XH1-15 | 2026-09-02 08:11:14 | 52.61359 | 8.16996 | 38° | 26km/h | 21760m | -12m/s | -51.5°C | 3.8% | 44.4hPa | 2.6V | 08:25:45 | 01:36:16 | 00:00:00 | |
| DL1XH-west | 2026-09-02 08:11:13 | 52.61376 | 8.17018 | 37° | 16km/h | 21713m | -11.2m/s | -51.5°C | 0.8% | 44.7hPa | 2.6V | 08:25:58 | 01:36:20 | 00:00:00 | |
| DF8AY | 2026-09-02 08:11:12 | 52.61372 | 8.17014 | 40° | 18km/h | 21724m | -11.5m/s | -51.4°C | 0.8% | 44.6hPa | 2.6V | 08:25:58 | 01:36:19 | 00:00:00 | |
| GOEST3-10 | 2026-09-02 08:11:12 | 52.61372 | 8.17014 | 41° | 24km/h | 21725m | -11.5m/s | -51.4°C | 3.8% | 44.6hPa | 2.7V | 00:00:00 | 01:36:19 | 00:00:00 | |
| DN9WHV | 2026-09-02 08:11:11 | 52.61372 | 8.17014 | 41° | 18km/h | 21725m | -11.5m/s | -51.4°C | 1.2% | 44.6hPa | 2.7V | 08:25:00 | 00:00:00 | 00:00:00 | |
| DB0DAN | 2026-09-02 08:11:10 | 52.61364 | 8.17003 | 39° | 22km/h | 21748m | -12m/s | -51.5°C | 1.2% | 44.51hPa | 2.7V | 00:00:00 | 00:00:00 | 00:00:00 | |
| DO2JMG | 2026-09-02 08:11:06 | 52.61344 | 8.16978 | 33° | 24km/h | 21795m | -11.8m/s | -51.6°C | 0.8% | 44.1hPa | 2.7V | 08:25:58 | 01:36:13 | 00:00:00 | |
| HSKMA3-T | 2026-09-02 08:11:05 | 52.61339 | 8.16972 | 36° | 22km/h | 21807m | -12.3m/s | -51.7°C | 0.8% | 44.1hPa | 2.6V | 08:25:58 | 01:36:12 | 00:00:00 | |
| DL1XH-west | 2026-09-02 08:11:03 | 52.61331 | 8.16963 | 36° | 16km/h | 21831m | -11.7m/s | -51.8°C | 0.9% | 43.9hPa | 2.7V | 08:25:58 | 01:36:10 | 00:00:00 | |
| DF8AY | 2026-09-02 08:11:01 | 52.61325 | 8.16955 | 35° | 16km/h | 21854m | -12m/s | -52°C | 0.9% | 43.8hPa | 2.7V | 08:25:58 | 01:36:08 | 00:00:00 | |
| BIOWL1-15 | 2026-09-02 08:11:01 | 52.61318 | 8.16946 | 50° | 18km/h | 21879m | -12.1m/s | -51.9°C | 0.9% | 43.6hPa | 2.6V | 08:25:58 | 01:36:06 | 00:00:00 | |
| DL1NUX | 2026-09-02 08:11:00 | 52.61308 | 8.16913 | 73° | 24km/h | 21926m | -11.7m/s | -51.9°C | 4% | 43.3hPa | 2.7V | 08:25:59 | 01:36:02 | 00:00:00 | |
| SO1NDE-10 | 2026-09-02 08:10:59 | 52.61318 | 8.16945 | 50° | 22km/h | 21879m | -12.0m/s | -51.9°C | 4.0% | 43.5hPa | 2.7V | 00:00:00 | 01:36:06 | 00:00:00 | |
| DO3DL | 2026-09-02 08:10:58 | 52.61319 | 8.16945 | 51° | 18km/h | 21879m | -12.1m/s | -51.9°C | 1.3% | 43.6hPa | 2.7V | 08:25:00 | 00:00:00 | 00:00:00 | |
| DK9SH | 2026-09-02 08:10:57 | 52.61312 | 8.16931 | 65° | 24km/h | 21903m | -11.8m/s | -51.9°C | 1.3% | 43.4hPa | 2.7V | 08:25:00 | 00:00:00 | 00:00:00 | |
| DN9WHV | 2026-09-02 08:10:56 | 52.61312 | 8.16931 | 65° | 24km/h | 21903m | -11.8m/s | -51.9°C | 1.3% | 43.4hPa | 2.7V | 08:25:00 | 00:00:00 | 00:00:00 | |
| DM0DOS-11 | 2026-09-02 08:10:55 | 52.61306 | 8.16877 | 96° | 11km/h | 21986m | -11.8m/s | -51.6°C | 4% | 42.9hPa | 2.7V | 08:26:04 | 01:35:57 | 00:00:00 | |
| DO2JMG | 2026-09-02 08:10:55 | 52.61308 | 8.16913 | 74° | 24km/h | 21927m | -11.7m/s | -51.9°C | 0.9% | 43.3hPa | 2.7V | 08:26:49 | 01:36:02 | 00:00:00 | |
| DB0DAN | 2026-09-02 08:10:55 | 52.61308 | 8.16913 | 74° | 22km/h | 21927m | -11.7m/s | -51.9°C | 1.3% | 43.26hPa | 2.7V | 00:00:00 | 00:00:00 | 00:00:00 | |
| HSKMA3-T | 2026-09-02 08:10:54 | 52.61307 | 8.16904 | 80° | 22km/h | 21939m | -11.9m/s | -51.9°C | 0.9% | 43.2hPa | 2.6V | 08:26:49 | 01:36:01 | 00:00:00 | |
| DL1XH-west | 2026-09-02 08:10:52 | 52.61306 | 8.16888 | 86° | 16km/h | 21962m | -11.9m/s | -51.8°C | 0.9% | 43hPa | 2.6V | 08:26:49 | 01:35:59 | 00:00:00 | |
| DF8AY | 2026-09-02 08:10:51 | 52.61306 | 8.16882 | 93° | 15km/h | 21974m | -12.1m/s | -51.7°C | 0.9% | 42.9hPa | 2.7V | 08:26:49 | 01:35:58 | 00:00:00 | |
| BIOWL1-15 | 2026-09-02 08:10:50 | 52.61307 | 8.16869 | 122° | 7km/h | 22010m | -11.5m/s | -51.6°C | 0.9% | 42.7hPa | 2.6V | 08:26:49 | 01:35:55 | 00:00:00 | |
| BIOWL9-15 | 2026-09-02 08:10:50 | 52.61307 | 8.16872 | 105° | 9km/h | 21998m | -11.6m/s | -51.7°C | 1.3% | 42.8hPa | 2.7V | 00:00:00 | 00:00:00 | 00:00:00 | |
| DL1XH-15 | 2026-09-02 08:10:49 | 52.61310 | 8.16862 | 144° | 4km/h | 22057m | -11.7m/s | -51.3°C | 3.8% | 42.4hPa | 2.7V | 08:26:10 | 01:35:51 | 00:00:00 | |
| EDDB2-11 | 2026-09-02 08:10:49 | 52.61307 | 8.16869 | 122° | 7km/h | 22010m | -11.5m/s | -51.6°C | 1.3% | 42.7hPa | 2.6V | 00:00:00 | 00:00:00 | 00:00:00 | |
| HTAHTA | 2026-09-02 08:10:48 | 52.61308 | 8.16866 | 105° | 4km/h | 22021m | -12.0m/s | -51.6°C | 1.3% | 42.6hPa | 2.6V | 00:00:00 | 00:00:00 | 00:00:00 | |
| DL4XJ-10 | 2026-09-02 08:10:47 | 52.61308 | 8.16866 | 106° | 7km/h | 22021m | -12.0m/s | -52.1°C | 0% | 0hPa | 2.6V | 00:00:00 | 00:00:00 | 00:00:00 | |
| DN9WHV | 2026-09-02 08:10:46 | 52.61309 | 8.16864 | 118° | 5km/h | 22034m | -11.8m/s | -51.5°C | 1.2% | 42.5hPa | 2.6V | 08:26:00 | 00:00:00 | 00:00:00 | |
| DM0DOS-11 | 2026-09-02 08:10:45 | 52.61309 | 8.16862 | 296° | 4km/h | 22104m | -10.9m/s | -51°C | 3.7% | 42.1hPa | 2.6V | 08:26:14 | 01:35:47 | 00:00:00 | |
| DL1XH1-15 | 2026-09-02 08:10:44 | 52.61309 | 8.16864 | 303° | 4km/h | 22115m | -11.6m/s | -51°C | 3.7% | 42hPa | 2.7V | 08:26:15 | 01:35:46 | 00:00:00 | |
| DO2JMG | 2026-09-02 08:10:44 | 52.61310 | 8.16862 | 144° | 4km/h | 22057m | -11.7m/s | -51.3°C | 0.8% | 42.4hPa | 2.7V | 08:26:49 | 01:35:51 | 00:00:00 | |
| HSKMA3-T | 2026-09-02 08:10:43 | 52.61310 | 8.16861 | 215° | 0km/h | 22068m | -12m/s | -51.2°C | 0.7% | 42.3hPa | 2.7V | 08:26:49 | 01:35:50 | 00:00:00 | |
| DL1XH-west | 2026-09-02 08:10:42 | 52.61310 | 8.16861 | 19° | 2km/h | 22081m | -12.1m/s | -51.1°C | 0.7% | 42.2hPa | 2.6V | 08:26:49 | 01:35:49 | 00:00:00 | |
| DF8AY | 2026-09-02 08:10:40 | 52.61309 | 8.16862 | 297° | 4km/h | 22104m | -10.9m/s | -51°C | 0.7% | 42.1hPa | 2.6V | 08:26:49 | 01:35:47 | 00:00:00 | |
| DB0DAN | 2026-09-02 08:10:40 | 52.61309 | 8.16862 | 297° | 4km/h | 22104m | -10.9m/s | -51°C | 1.2% | 42.09hPa | 2.6V | 00:00:00 | 00:00:00 | 00:00:00 | |
| BIOWL1-15 | 2026-09-02 08:10:38 | 52.61308 | 8.16865 | 310° | 5km/h | 22127m | -11.5m/s | -51°C | 0.7% | 41.9hPa | 2.7V | 08:26:49 | 01:35:45 | 00:00:00 | |
| AU51GT2 | 2026-09-02 08:10:38 | 52.61307 | 8.16867 | 302° | 5km/h | 22139m | -11.5m/s | -51.0°C | 1.2% | 41.9hPa | 2.7V | 00:00:00 | 00:00:00 | 00:00:00 | |
| GOEST3-10 | 2026-09-02 08:10:37 | 52.61307 | 8.16867 | 303° | 9km/h | 22139m | -11.4m/s | -51.0°C | 3.7% | 41.8hPa | 2.7V | 08:26:00 | 00:00:00 | 00:00:00 | |
| DL4BBY-15 | 2026-09-02 08:10:36 | 52.61306 | 8.16870 | 315° | 20km/h | 22150m | -11.6m/s | -51.6°C | 0% | 0hPa | 2.6V | 00:00:00 | 00:00:00 | 00:00:00 | |
| DM0DOS-11 | 2026-09-02 08:10:35 | 52.61290 | 8.16882 | 341° | 13km/h | 22219m | -11.3m/s | -51.4°C | 3.8% | 41.4hPa | 2.6V | 08:26:24 | 01:35:37 | 00:00:00 | |
| DL1XH1-15 | 2026-09-02 08:10:34 | 52.61287 | 8.16883 | 343° | 13km/h | 22231m | -11.8m/s | -51.5°C | 3.8% | 41.3hPa | 2.6V | 08:26:25 | 01:35:36 | 00:00:00 | |
| DO2JMG | 2026-09-02 08:10:33 | 52.61299 | 8.16877 | 332° | 13km/h | 22184m | -11.4m/s | -51.2°C | 0.7% | 41.6hPa | 2.7V | 08:26:49 | 01:35:40 | 00:00:00 | |
| HSKMA3-T | 2026-09-02 08:10:32 | 52.61296 | 8.16879 | 341° | 11km/h | 22196m | -11.9m/s | -51.2°C | 0.7% | 41.5hPa | 2.7V | 08:26:49 | 01:35:39 | 00:00:00 | |
| DL1XH-west | 2026-09-02 08:10:31 | 52.61293 | 8.16880 | 342° | 13km/h | 22208m | -11.5m/s | -51.3°C | 0.8% | 41.4hPa | 2.7V | 08:26:49 | 01:35:38 | 00:00:00 | |
| DF8AY | 2026-09-02 08:10:29 | 52.61287 | 8.16883 | 344° | 13km/h | 22231m | -11.9m/s | -51.5°C | 0.8% | 41.3hPa | 2.6V | 08:26:49 | 01:35:36 | 00:00:00 | |
| BIOWL1-15 | 2026-09-02 08:10:27 | 52.61280 | 8.16886 | 353° | 15km/h | 22254m | -11.5m/s | -51.6°C | 0.9% | 41.1hPa | 2.7V | 08:26:49 | 01:35:34 | 00:00:00 | |
| DB0NH | 2026-09-02 08:10:27 | 52.61280 | 8.16886 | 353° | 24km/h | 22254m | -11.4m/s | -51.6°C | 3.9% | 41.1hPa | 2.7V | 00:00:00 | 01:35:34 | 00:00:00 | |
| DL1NUX | 2026-09-02 08:10:26 | 52.61256 | 8.16887 | 6° | 18km/h | 22323m | -11.6m/s | -51.5°C | 3.8% | 40.7hPa | 2.7V | 08:26:33 | 01:35:28 | 00:00:00 | |
| DM0DOS-11 | 2026-09-02 08:10:25 | 52.61251 | 8.16886 | 8° | 20km/h | 22334m | -11.5m/s | -51.5°C | 3.7% | 40.6hPa | 2.7V | 08:26:34 | 01:35:27 | 00:00:00 | |
| DL1XH1-15 | 2026-09-02 08:10:24 | 52.61246 | 8.16885 | 14° | 20km/h | 22346m | -11.5m/s | -51.6°C | 3.8% | 40.5hPa | 2.7V | 08:26:35 | 01:35:26 | 00:00:00 | |
| DO2JMG | 2026-09-02 08:10:22 | 52.61261 | 8.16888 | 3° | 18km/h | 22311m | -11.7m/s | -51.4°C | 0.7% | 40.8hPa | 2.6V | 08:26:49 | 01:35:29 | 00:00:00 | |
| DL1XH-west | 2026-09-02 08:10:21 | 52.61256 | 8.16887 | 6° | 18km/h | 22323m | -11.6m/s | -51.5°C | 0.8% | 40.7hPa | 2.7V | 08:26:49 | 01:35:28 | 00:00:00 | |
| AA1-15 | 2026-09-02 08:10:20 | 52.61251 | 8.16886 | 9° | 20km/h | 22334m | -11.5m/s | -51.5°C | 0.7% | 40.6hPa | 2.7V | 08:26:49 | 01:35:27 | 00:00:00 | |
| DF8AY | 2026-09-02 08:10:18 | 52.61241 | 8.16882 | 20° | 20km/h | 22357m | -11.5m/s | -51.6°C | 0.8% | 40.5hPa | 2.6V | 08:26:49 | 01:35:25 | 00:00:00 | |
| BIOWL1-15 | 2026-09-02 08:10:17 | 52.61237 | 8.16879 | 24° | 22km/h | 22369m | -11.7m/s | -51.7°C | 0.8% | 40.4hPa | 2.6V | 08:26:49 | 01:35:24 | 00:00:00 | |
| HTAHTA | 2026-09-02 08:10:17 | 52.61232 | 8.16875 | 27° | 22km/h | 22381m | -12.1m/s | -51.7°C | 1.2% | 40.3hPa | 2.7V | 00:00:00 | 00:00:00 | 00:00:00 | |
| SONDE2-11 | 2026-09-02 08:10:16 | 52.61227 | 8.16871 | 27° | 20km/h | 22393m | -12.1m/s | -51.8°C | 1.2% | 40.2hPa | 2.7V | 00:00:00 | 00:00:00 | 00:00:00 | |
| DM0DOS-11 | 2026-09-02 08:10:15 | 52.61203 | 8.16841 | 43° | 27km/h | 22454m | -11.8m/s | -51.9°C | 3.9% | 39.9hPa | 2.7V | 08:26:44 | 01:35:17 | 00:00:00 | |
| DL1XH1-15 | 2026-09-02 08:10:14 | 52.61198 | 8.16833 | 42° | 29km/h | 22466m | -12.2m/s | -51.9°C | 3.9% | 39.8hPa | 2.7V | 08:26:45 | 01:35:16 | 00:00:00 | |
| DO2JMG | 2026-09-02 08:10:12 | 52.61208 | 8.16848 | 39° | 26km/h | 22442m | -12.3m/s | -51.9°C | 0.9% | 40hPa | 2.6V | 08:26:49 | 01:35:18 | 00:00:00 | |
| HSKMA3-T | 2026-09-02 08:10:10 | 52.61203 | 8.16841 | 44° | 27km/h | 22454m | -11.8m/s | -51.9°C | 0.9% | 39.9hPa | 2.7V | 08:26:49 | 01:35:17 | 00:00:00 | |
| DB0DAN | 2026-09-02 08:10:10 | 52.61203 | 8.16841 | 44° | 26km/h | 22454m | -11.8m/s | -51.9°C | 1.2% | 39.87hPa | 2.7V | 00:00:00 | 00:00:00 | 00:00:00 | |
| DL1XH-15 | 2026-09-02 08:10:09 | 52.61171 | 8.16789 | 48° | 33km/h | 22526m | -12m/s | -52.1°C | 4.1% | 39.4hPa | 2.6V | 08:26:50 | 01:35:11 | 00:00:00 | |
| AA1-15 | 2026-09-02 08:10:09 | 52.61198 | 8.16833 | 43° | 29km/h | 22466m | -12.2m/s | -51.9°C | 0.9% | 39.8hPa | 2.7V | 08:26:49 | 01:35:16 | 00:00:00 | |
| BIOWL1-15 | 2026-09-02 08:10:09 | 52.61187 | 8.16817 | 45° | 31km/h | 22490m | -12.2m/s | -52°C | 1% | 39.7hPa | 2.6V | 08:26:49 | 01:35:14 | 00:00:00 | |
| DF8AY | 2026-09-02 08:10:08 | 52.61192 | 8.16825 | 41° | 29km/h | 22478m | -11.7m/s | -52°C | 0.9% | 39.7hPa | 2.6V | 08:26:49 | 01:35:15 | 00:00:00 | |
| DL4XJ-10 | 2026-09-02 08:10:07 | 52.61186 | 8.16817 | 46° | 26km/h | 22489m | -12.1m/s | -52.5°C | 0% | 0hPa | 2.6V | 00:00:00 | 00:00:00 | 00:00:00 | |
| DO2KSM | 2026-09-02 08:10:06 | 52.61186 | 8.16817 | 46° | 31km/h | 22490m | -12.2m/s | -52.0°C | 1.3% | 39.7hPa | 2.6V | 00:00:00 | 00:00:00 | 00:00:00 | |
| DM0DOS-11 | 2026-09-02 08:10:05 | 52.61153 | 8.16747 | 61° | 29km/h | 22574m | -12.7m/s | -52.2°C | 4.1% | 39.1hPa | 2.6V | 08:26:54 | 01:35:07 | 00:00:00 | |
| DL1XH1-15 | 2026-09-02 08:10:04 | 52.61150 | 8.16736 | 69° | 29km/h | 22587m | -12.6m/s | -52.2°C | 4.1% | 39.1hPa | 2.6V | 08:26:55 | 01:35:06 | 00:00:00 | |
| DL1XH-west | 2026-09-02 08:10:00 | 52.61153 | 8.16747 | 62° | 29km/h | 22574m | -12.7m/s | -52.2°C | 1% | 39.1hPa | 2.6V | 08:27:40 | 01:35:07 | 00:00:00 | |
| HSKMA3-T | 2026-09-02 08:09:59 | 52.61150 | 8.16736 | 70° | 29km/h | 22587m | -12.6m/s | -52.2°C | 1% | 39.1hPa | 2.6V | 08:27:40 | 01:35:06 | 00:00:00 | |
| AA1-15 | 2026-09-02 08:09:58 | 52.61148 | 8.16724 | 79° | 27km/h | 22600m | -14m/s | -52.1°C | 0.9% | 39hPa | 2.7V | 08:27:40 | 01:35:05 | 00:00:00 | |
| DF8AY | 2026-09-02 08:09:57 | 52.61147 | 8.16713 | 88° | 26km/h | 22615m | -14.7m/s | -51.9°C | 0.9% | 38.9hPa | 2.7V | 08:27:40 | 01:35:04 | 00:00:00 | |
| BIOWL1-15 | 2026-09-02 08:09:56 | 52.61147 | 8.16703 | 94° | 24km/h | 22631m | -17.4m/s | -51.8°C | 0.9% | 38.8hPa | 2.7V | 08:27:40 | 01:35:03 | 00:00:00 | |
| DM0DOS-11 | 2026-09-02 08:09:55 | 52.61152 | 8.16654 | 109° | 18km/h | 22735m | -16.5m/s | -51.5°C | 3.8% | 38.2hPa | 2.7V | 08:27:04 | 01:34:57 | 00:00:00 | |
| DB0DAN | 2026-09-02 08:09:55 | 52.61148 | 8.16694 | 92° | 20km/h | 22649m | -18.5m/s | -51.8°C | 1.2% | 38.72hPa | 2.6V | 00:00:00 | 00:00:00 | 00:00:00 | |
| DL1XH1-15 | 2026-09-02 08:09:54 | 52.61153 | 8.16648 | 110° | 18km/h | 22751m | -14.8m/s | -51.5°C | 3.8% | 38.1hPa | 2.6V | 08:27:05 | 01:34:56 | 00:00:00 | |
| DL1XH-west | 2026-09-02 08:09:49 | 52.61153 | 8.16647 | 111° | 18km/h | 22751m | -14.8m/s | -51.5°C | 0.8% | 38.1hPa | 2.6V | 08:27:40 | 01:34:56 | 00:00:00 | |
| AA1-15 | 2026-09-02 08:09:47 | 52.61157 | 8.16635 | 122° | 16km/h | 22778m | -12.3m/s | -51.4°C | 0.8% | 37.9hPa | 2.6V | 08:27:40 | 01:34:54 | 00:00:00 | |
| DF8AY | 2026-09-02 08:09:46 | 52.61160 | 8.16629 | 131° | 18km/h | 22790m | -12.8m/s | -51.4°C | 0.8% | 37.9hPa | 2.7V | 08:27:40 | 01:34:53 | 00:00:00 | |
| BIOWL1-15 | 2026-09-02 08:09:45 | 52.61163 | 8.16624 | 137° | 18km/h | 22803m | -12.6m/s | -51.5°C | 0.8% | 37.8hPa | 2.7V | 08:27:40 | 01:34:52 | 00:00:00 | |
| SONDE2-11 | 2026-09-02 08:09:45 | 52.61166 | 8.16619 | 135° | 16km/h | 22816m | -13.1m/s | -51.5°C | 1.2% | 37.7hPa | 2.7V | 00:00:00 | 00:00:00 | 00:00:00 | |
| DL1XH1-15 | 2026-09-02 08:09:44 | 52.61179 | 8.16599 | 133° | 11km/h | 22877m | -12m/s | -51.6°C | 3.9% | 37.4hPa | 2.7V | 08:27:15 | 01:34:46 | 00:00:00 | |
| DJ2DS-15 | 2026-09-02 08:09:44 | 52.61166 | 8.16619 | 136° | 7km/h | 22816m | -13.1m/s | -51.5°C | 3.9% | 37.7hPa | 2.7V | 00:00:00 | 01:34:51 | 00:00:00 | |
| DN9WHV | 2026-09-02 08:09:43 | 52.61166 | 8.16619 | 136° | 18km/h | 22816m | -13.1m/s | -51.5°C | 1.2% | 37.7hPa | 2.7V | 08:27:00 | 00:00:00 | 00:00:00 | |
| GOEST3-10 | 2026-09-02 08:09:42 | 52.61172 | 8.16610 | 138° | 13km/h | 22842m | -12.1m/s | -51.6°C | 3.9% | 37.5hPa | 2.7V | 00:00:00 | 01:34:49 | 00:00:00 | |
| DL1CLM-18 | 2026-09-02 08:09:41 | 52.61172 | 8.16610 | 138° | 15km/h | 22842m | -12.2m/s | -51.6°C | 1.2% | 37.6hPa | 2.7V | 08:27:00 | 00:00:00 | 00:00:00 | |
| DB0DAN | 2026-09-02 08:09:40 | 52.61177 | 8.16602 | 136° | 11km/h | 22865m | -12m/s | -51.7°C | 1.2% | 37.42hPa | 2.7V | 00:00:00 | 00:00:00 | 00:00:00 | |
| DL1XH-west | 2026-09-02 08:09:39 | 52.61179 | 8.16599 | 133° | 11km/h | 22877m | -12m/s | -51.6°C | 0.9% | 37.4hPa | 2.7V | 08:27:40 | 01:34:46 | 00:00:00 | |
| DO2JMG | 2026-09-02 08:09:38 | 52.61181 | 8.16596 | 132° | 9km/h | 22890m | -11.9m/s | -51.6°C | 0.8% | 37.3hPa | 2.7V | 08:27:40 | 01:34:45 | 00:00:00 | |
| DF8AY | 2026-09-02 08:09:36 | 52.61183 | 8.16592 | 127° | 5km/h | 22914m | -12.7m/s | -51.5°C | 0.8% | 37.1hPa | 2.6V | 08:27:40 | 01:34:43 | 00:00:00 | |
| AU51GT2 | 2026-09-02 08:09:36 | 52.61184 | 8.16590 | 124° | 4km/h | 22926m | -12.9m/s | -51.6°C | 1.2% | 37.1hPa | 2.6V | 00:00:00 | 00:00:00 | 00:00:00 | |
| DM0DOS-11 | 2026-09-02 08:09:35 | 52.61186 | 8.16589 | 237° | 4km/h | 22989m | -12.1m/s | -51.8°C | 3.9% | 36.7hPa | 2.6V | 08:27:24 | 01:34:37 | 00:00:00 | |
| BIOWL1-15 | 2026-09-02 08:09:35 | 52.61184 | 8.16590 | 125° | 4km/h | 22926m | -12.9m/s | -51.6°C | 0.8% | 37.1hPa | 2.6V | 08:27:40 | 01:34:42 | 00:00:00 | |
| DL1XH-west | 2026-09-02 08:09:29 | 52.61187 | 8.16590 | 210° | 4km/h | 23001m | -12.2m/s | -51.8°C | 0.8% | 36.6hPa | 2.6V | 08:27:40 | 01:34:36 | 00:00:00 | |
| DO2JMG | 2026-09-02 08:09:28 | 52.61188 | 8.16591 | 213° | 2km/h | 23013m | -12.5m/s | -51.8°C | 0.8% | 36.5hPa | 2.7V | 08:27:40 | 01:34:35 | 00:00:00 | |
| AA1-15 | 2026-09-02 08:09:26 | 52.61188 | 8.16590 | 57° | 2km/h | 23039m | -13m/s | -51.8°C | 0.9% | 36.4hPa | 2.7V | 08:27:40 | 01:34:33 | 00:00:00 | |
| BIOWL1-15 | 2026-09-02 08:09:26 | 52.61186 | 8.16587 | 81° | 7km/h | 23065m | -12.3m/s | -51.9°C | 0.9% | 36.3hPa | 2.6V | 08:27:40 | 01:34:31 | 00:00:00 | |
| DF8AY | 2026-09-02 08:09:25 | 52.61187 | 8.16589 | 46° | 4km/h | 23052m | -12.8m/s | -51.9°C | 0.8% | 36.4hPa | 2.6V | 08:27:40 | 01:34:32 | 00:00:00 | |
| DB0DAN | 2026-09-02 08:09:25 | 52.61187 | 8.16589 | 46° | 4km/h | 23052m | -12.8m/s | -51.9°C | 1.2% | 36.38hPa | 2.6V | 00:00:00 | 00:00:00 | 00:00:00 | |
| DL1XH-west | 2026-09-02 08:09:18 | 52.61183 | 8.16555 | 86° | 15km/h | 23140m | -12.5m/s | -51.9°C | 0.9% | 35.9hPa | 2.6V | 08:27:40 | 01:34:25 | 00:00:00 | |
| DF8AY | 2026-09-02 08:09:15 | 52.61184 | 8.16534 | 93° | 18km/h | 23178m | -12.4m/s | -52°C | 0.9% | 35.6hPa | 2.6V | 08:27:40 | 01:34:22 | 00:00:00 | |
| BIOWL1-15 | 2026-09-02 08:09:13 | 52.61184 | 8.16519 | 95° | 20km/h | 23203m | -12.8m/s | -52°C | 0.9% | 35.5hPa | 2.7V | 08:28:31 | 01:34:20 | 00:00:00 | |
| GOEST3-10 | 2026-09-02 08:09:12 | 52.61185 | 8.16510 | 100° | 22km/h | 23216m | -12.7m/s | -52.0°C | 4.0% | 35.4hPa | 2.6V | 00:00:00 | 01:34:19 | 00:00:00 | |
| DL3OBA | 2026-09-02 08:09:11 | 52.61185 | 8.16510 | 101° | 20km/h | 23216m | -12.7m/s | -52.0°C | 1.3% | 35.4hPa | 2.6V | 08:28:00 | 00:00:00 | 00:00:00 | |
| DB0DAN | 2026-09-02 08:09:10 | 52.61187 | 8.16492 | 99° | 20km/h | 23243m | -13.6m/s | -52°C | 1.2% | 35.28hPa | 2.6V | 00:00:00 | 00:00:00 | 00:00:00 | |
| DL1XH-15 | 2026-09-02 08:09:09 | 52.61191 | 8.16443 | 97° | 16km/h | 23321m | -11.9m/s | -51.6°C | 4% | 34.8hPa | 2.7V | 08:27:50 | 01:34:11 | 00:00:00 | |
| DL1XH-west | 2026-09-02 08:09:08 | 52.61189 | 8.16475 | 100° | 22km/h | 23269m | -13.3m/s | -52°C | 1% | 35.2hPa | 2.7V | 08:28:31 | 01:34:15 | 00:00:00 | |
| DO2JMG | 2026-09-02 08:09:07 | 52.61190 | 8.16466 | 98° | 20km/h | 23283m | -13.9m/s | -51.9°C | 1% | 35.1hPa | 2.6V | 08:28:31 | 01:34:14 | 00:00:00 | |
| GOEST3-10 | 2026-09-02 08:09:07 | 52.61190 | 8.16466 | 98° | 18km/h | 23283m | -13.8m/s | -51.9°C | 4.1% | 35.0hPa | 2.6V | 08:27:00 | 00:00:00 | 00:00:00 | |
| DL4XJ-10 | 2026-09-02 08:09:06 | 52.61190 | 8.16458 | 100° | 15km/h | 23296m | -12.7m/s | -52.4°C | 0% | 0hPa | 2.7V | 00:00:00 | 00:00:00 | 00:00:00 | |
| AU51GT2 | 2026-09-02 08:09:05 | 52.61192 | 8.16436 | 96° | 16km/h | 23333m | -11.7m/s | -51.6°C | 1.2% | 34.8hPa | 2.7V | 00:00:00 | 00:00:00 | 00:00:00 | |
| DF8AY | 2026-09-02 08:09:05 | 52.61191 | 8.16450 | 92° | 20km/h | 23309m | -12.9m/s | -51.7°C | 0.9% | 34.9hPa | 2.7V | 08:28:31 | 01:34:12 | 00:00:00 | |
| DL1XH1-15 | 2026-09-02 08:09:04 | 52.61198 | 8.16412 | 124° | 15km/h | 23381m | -12.5m/s | -51.5°C | 3.9% | 34.5hPa | 2.7V | 08:27:55 | 01:34:06 | 00:00:00 | |
| AA1-15 | 2026-09-02 08:09:04 | 52.61191 | 8.16443 | 98° | 16km/h | 23321m | -11.9m/s | -51.6°C | 0.9% | 34.8hPa | 2.7V | 08:28:31 | 01:34:11 | 00:00:00 | |
| BIOWL1-15 | 2026-09-02 08:09:03 | 52.61192 | 8.16436 | 97° | 18km/h | 23333m | -11.7m/s | -51.6°C | 0.9% | 34.8hPa | 2.7V | 08:28:31 | 01:34:10 | 00:00:00 | |
| DL4BBY-15 | 2026-09-02 08:09:03 | 52.61192 | 8.16436 | 97° | 9km/h | 23333m | -11.6m/s | -52.1°C | 0% | 0hPa | 2.6V | 00:00:00 | 00:00:00 | 00:00:00 | |
| DC6BW-12 | 2026-09-02 08:09:02 | 52.61193 | 8.16429 | 109° | 15km/h | 23346m | -12.3m/s | -51.6°C | 1.3% | 34.7hPa | 2.6V | 08:28:00 | 00:00:00 | 00:00:00 | |
| DD1CC3-15 | 2026-09-02 08:09:01 | 52.61193 | 8.16429 | 109° | 15km/h | 23346m | -12.3m/s | -51.6°C | 1.3% | 34.7hPa | 2.6V | 08:28:00 | 00:00:00 | 00:00:00 | |
| DL1XH-15 | 2026-09-02 08:08:59 | 52.61214 | 8.16395 | 153° | 11km/h | 23441m | -12.6m/s | -51.4°C | 3.9% | 34.2hPa | 2.6V | 08:28:00 | 01:34:01 | 00:00:00 | |
| DL1XH-west | 2026-09-02 08:08:58 | 52.61201 | 8.16407 | 142° | 16km/h | 23393m | -11.6m/s | -51.4°C | 0.8% | 34.5hPa | 2.7V | 08:28:31 | 01:34:05 | 00:00:00 | |
| DO2JMG | 2026-09-02 08:08:57 | 52.61204 | 8.16403 | 146° | 15km/h | 23405m | -11.9m/s | -51.4°C | 0.9% | 34.4hPa | 2.7V | 08:28:31 | 01:34:04 | 00:00:00 | |
| HSKMA3-T | 2026-09-02 08:08:56 | 52.61207 | 8.16400 | 145° | 16km/h | 23417m | -11.7m/s | -51.4°C | 0.9% | 34.4hPa | 2.6V | 08:28:31 | 01:34:03 | 00:00:00 | |
| DB0DAN | 2026-09-02 08:08:55 | 52.61211 | 8.16397 | 158° | 15km/h | 23428m | -11.9m/s | -51.4°C | 1.2% | 34.27hPa | 2.6V | 00:00:00 | 00:00:00 | 00:00:00 | |
| DL1XH1-15 | 2026-09-02 08:08:54 | 52.61224 | 8.16387 | 175° | 4km/h | 23502m | -12.6m/s | -51.2°C | 3.9% | 33.9hPa | 2.6V | 08:28:05 | 01:33:56 | 00:00:00 | |
| DF8AY | 2026-09-02 08:08:54 | 52.61214 | 8.16395 | 153° | 11km/h | 23441m | -12.6m/s | -51.4°C | 0.9% | 34.2hPa | 2.6V | 08:28:31 | 01:34:01 | 00:00:00 | |
| BIOWL1-15 | 2026-09-02 08:08:54 | 52.61218 | 8.16390 | 144° | 9km/h | 23465m | -12.4m/s | -51.4°C | 0.9% | 34.1hPa | 2.7V | 08:28:31 | 01:33:59 | 00:00:00 | |
| AA1-15 | 2026-09-02 08:08:53 | 52.61216 | 8.16392 | 145° | 11km/h | 23453m | -12.5m/s | -51.4°C | 0.8% | 34.1hPa | 2.7V | 08:28:31 | 01:34:00 | 00:00:00 | |
| SONCRA | 2026-09-02 08:08:50 | 52.61222 | 8.16387 | 171° | 4km/h | 23490m | -12.5m/s | -51.3°C | 1.2% | 34.0hPa | 2.6V | 00:00:00 | 00:00:00 | 00:00:00 | |
| DL1XH-15 | 2026-09-02 08:08:49 | 52.61226 | 8.16386 | 119° | 2km/h | 23566m | -12.8m/s | -51.1°C | 3.9% | 33.6hPa | 2.6V | 08:28:10 | 01:33:51 | 00:00:00 | |
| DL1XH-west | 2026-09-02 08:08:47 | 52.61225 | 8.16387 | 155° | 2km/h | 23527m | -12.8m/s | -51°C | 0.9% | 33.8hPa | 2.7V | 08:28:31 | 01:33:54 | 00:00:00 | |
| DO2JMG | 2026-09-02 08:08:46 | 52.61225 | 8.16387 | 160° | 2km/h | 23540m | -13m/s | -51.1°C | 0.8% | 33.7hPa | 2.7V | 08:28:31 | 01:33:53 | 00:00:00 | |
| HSKMA3-T | 2026-09-02 08:08:45 | 52.61226 | 8.16387 | 127° | 2km/h | 23553m | -12.8m/s | -51.1°C | 0.9% | 33.6hPa | 2.7V | 08:28:31 | 01:33:52 | 00:00:00 | |
| DF8AY | 2026-09-02 08:08:44 | 52.61226 | 8.16386 | 119° | 2km/h | 23566m | -12.8m/s | -51.2°C | 0.8% | 33.6hPa | 2.6V | 08:28:31 | 01:33:51 | 00:00:00 | |
| AA1-15 | 2026-09-02 08:08:42 | 52.61226 | 8.16385 | 31° | 4km/h | 23592m | -13m/s | -51.3°C | 0.9% | 33.4hPa | 2.6V | 08:28:31 | 01:33:49 | 00:00:00 | |
| GOEST3-10 | 2026-09-02 08:08:42 | 52.61226 | 8.16385 | 32° | 7km/h | 23592m | -12.9m/s | -51.2°C | 3.9% | 33.4hPa | 2.7V | 00:00:00 | 01:33:49 | 00:00:00 | |
| DB0UT-7 | 2026-09-02 08:08:41 | 52.61225 | 8.16385 | 5° | 13km/h | 23605m | -13.2m/s | -51.3°C | 3.9% | 33.3hPa | 2.7V | 00:00:00 | 01:33:48 | 00:00:00 | |
| DD1CC3-15 | 2026-09-02 08:08:40 | 52.61225 | 8.16385 | 6° | 4km/h | 23605m | -13.2m/s | -51.3°C | 1.2% | 33.4hPa | 2.7V | 08:28:00 | 00:00:00 | 00:00:00 | |
| DL1XH-15 | 2026-09-02 08:08:39 | 52.61204 | 8.16387 | 4° | 18km/h | 23698m | -13.9m/s | -51.1°C | 3.9% | 32.9hPa | 2.7V | 08:28:20 | 01:33:41 | 00:00:00 | |
| DL1XH-west | 2026-09-02 08:08:36 | 52.61213 | 8.16388 | 2° | 15km/h | 23671m | -13.4m/s | -51.2°C | 0.9% | 33hPa | 2.6V | 08:28:31 | 01:33:43 | 00:00:00 | |
| DF8AY | 2026-09-02 08:08:35 | 52.61204 | 8.16387 | 4° | 18km/h | 23698m | -13.9m/s | -51.1°C | 0.9% | 32.9hPa | 2.7V | 08:28:31 | 01:33:41 | 00:00:00 | |
| HSKMA3-T | 2026-09-02 08:08:35 | 52.61208 | 8.16388 | 4° | 18km/h | 23684m | -13.3m/s | -51.2°C | 0.9% | 33hPa | 2.7V | 08:28:31 | 01:33:42 | 00:00:00 | |
| DL1XH1-15 | 2026-09-02 08:08:34 | 52.61190 | 8.16374 | 63° | 13km/h | 23764m | -13.4m/s | -50.8°C | 3.8% | 32.6hPa | 2.7V | 08:28:25 | 01:33:36 | 00:00:00 | |
| BIOWL1-15 | 2026-09-02 08:08:32 | 52.61196 | 8.16386 | 20° | 13km/h | 23725m | -12.8m/s | -51°C | 0.8% | 32.8hPa | 2.6V | 08:28:31 | 01:33:39 | 00:00:00 | |
| AA1-15 | 2026-09-02 08:08:31 | 52.61193 | 8.16383 | 47° | 13km/h | 23738m | -12.9m/s | -51°C | 0.8% | 32.7hPa | 2.6V | 08:28:31 | 01:33:38 | 00:00:00 | |
| DJ2DS-15 | 2026-09-02 08:08:30 | 52.61190 | 8.16374 | 63° | 13km/h | 23764m | -13.4m/s | -50.8°C | 1.2% | 32.6hPa | 2.6V | 00:00:00 | 00:00:00 | 00:00:00 | |
| DL1XH-15 | 2026-09-02 08:08:29 | 52.61188 | 8.16350 | 68° | 9km/h | 23831m | -13.4m/s | -50.5°C | 3.7% | 32.2hPa | 2.6V | 08:28:30 | 01:33:31 | 00:00:00 | |
| DL1XH-west | 2026-09-02 08:08:26 | 52.61189 | 8.16360 | 95° | 13km/h | 23804m | -13.4m/s | -50.7°C | 0.8% | 32.4hPa | 2.7V | 08:28:31 | 01:33:33 | 00:00:00 | |
| DM0DOS-11 | 2026-09-02 08:08:25 | 52.61185 | 8.16339 | 74° | 7km/h | 23886m | -14.2m/s | -50.2°C | 3.6% | 32hPa | 2.6V | 08:28:34 | 01:33:27 | 00:00:00 | |
| DO2JMG | 2026-09-02 08:08:25 | 52.61189 | 8.16355 | 83° | 11km/h | 23818m | -13.5m/s | -50.7°C | 0.8% | 32.3hPa | 2.7V | 08:28:31 | 01:33:32 | 00:00:00 | |
| DB0DAN | 2026-09-02 08:08:25 | 52.61189 | 8.16355 | 82° | 11km/h | 23818m | -13.5m/s | -50.7°C | 1.2% | 32.3hPa | 2.7V | 00:00:00 | 00:00:00 | 00:00:00 | |
| HSKMA3-T | 2026-09-02 08:08:24 | 52.61188 | 8.16350 | 69° | 9km/h | 23831m | -13.4m/s | -50.5°C | 0.7% | 32.2hPa | 2.6V | 08:28:31 | 01:33:31 | 00:00:00 | |
| DF8AY | 2026-09-02 08:08:23 | 52.61187 | 8.16347 | 59° | 7km/h | 23845m | -13.9m/s | -50.4°C | 0.8% | 32.2hPa | 2.6V | 08:28:31 | 01:33:30 | 00:00:00 | |
| BIOWL1-15 | 2026-09-02 08:08:21 | 52.61186 | 8.16342 | 79° | 7km/h | 23873m | -13.4m/s | -50.3°C | 0.7% | 32hPa | 2.7V | 08:29:22 | 01:33:28 | 00:00:00 | |
| AA1-15 | 2026-09-02 08:08:20 | 52.61185 | 8.16339 | 75° | 7km/h | 23886m | -14.2m/s | -50.2°C | 0.6% | 32hPa | 2.6V | 08:29:22 | 01:33:27 | 00:00:00 | |
| DL1XH-west | 2026-09-02 08:08:15 | 52.61195 | 8.16326 | 165° | 18km/h | 23954m | -13.5m/s | -50.3°C | 0.7% | 31.6hPa | 2.6V | 08:29:22 | 01:33:22 | 00:00:00 | |
| DL1XH1-15 | 2026-09-02 08:08:14 | 52.61225 | 8.16317 | 182° | 16km/h | 24035m | -13.8m/s | -50.5°C | 3.7% | 31.2hPa | 2.6V | 08:28:45 | 01:33:16 | 00:00:00 | |
| BIOWL1-15 | 2026-09-02 08:08:14 | 52.61220 | 8.16318 | 171° | 20km/h | 24022m | -13.7m/s | -50.5°C | 0.7% | 31.3hPa | 2.7V | 08:29:22 | 01:33:17 | 00:00:00 | |
| DO2JMG | 2026-09-02 08:08:14 | 52.61199 | 8.16324 | 160° | 22km/h | 23968m | -13.5m/s | -50.4°C | 0.7% | 31.6hPa | 2.6V | 08:29:22 | 01:33:21 | 00:00:00 | |
| DF8AY | 2026-09-02 08:08:12 | 52.61210 | 8.16320 | 175° | 22km/h | 23995m | -13.6m/s | -50.5°C | 0.7% | 31.4hPa | 2.7V | 08:29:22 | 01:33:19 | 00:00:00 | |
| GOEST3-10 | 2026-09-02 08:08:12 | 52.61210 | 8.16320 | 176° | 18km/h | 23995m | -13.6m/s | -50.4°C | 3.7% | 31.4hPa | 2.7V | 00:00:00 | 01:33:19 | 00:00:00 | |
| DN9WHV | 2026-09-02 08:08:11 | 52.61209 | 8.16320 | 176° | 22km/h | 23995m | -13.6m/s | -50.5°C | 1.2% | 31.4hPa | 2.7V | 08:29:00 | 00:00:00 | 00:00:00 | |
| DB0DAN | 2026-09-02 08:08:10 | 52.61220 | 8.16318 | 171° | 18km/h | 24022m | -13.7m/s | -50.5°C | 1.1% | 31.3hPa | 2.7V | 00:00:00 | 00:00:00 | 00:00:00 | |
| DL1XH-15 | 2026-09-02 08:08:09 | 52.61238 | 8.16322 | 193° | 7km/h | 24102m | -13.4m/s | -50.6°C | 3.7% | 30.9hPa | 2.7V | 08:28:50 | 01:33:11 | 00:00:00 | |
| AA1-15 | 2026-09-02 08:08:09 | 52.61225 | 8.16317 | 183° | 16km/h | 24035m | -13.8m/s | -50.5°C | 0.8% | 31.2hPa | 2.6V | 08:29:22 | 01:33:16 | 00:00:00 | |
| DL1XH-west | 2026-09-02 08:08:05 | 52.61236 | 8.16321 | 215° | 7km/h | 24088m | -13.5m/s | -50.6°C | 0.7% | 31hPa | 2.7V | 08:29:22 | 01:33:12 | 00:00:00 | |
| DL3AQ-11 | 2026-09-02 08:08:05 | 52.61238 | 8.16322 | 193° | 7km/h | 24102m | -13.4m/s | -50.6°C | 1.2% | 30.9hPa | 2.7V | 00:00:00 | 00:00:00 | 00:00:00 | |
| DL1XH1-15 | 2026-09-02 08:08:04 | 52.61244 | 8.16324 | 220° | 4km/h | 24170m | -14.5m/s | -50.5°C | 3.7% | 30.6hPa | 2.7V | 08:28:55 | 01:33:06 | 00:00:00 | |
| DO2JMG | 2026-09-02 08:08:03 | 52.61239 | 8.16323 | 176° | 5km/h | 24115m | -13.7m/s | -50.6°C | 0.8% | 30.8hPa | 2.6V | 08:29:22 | 01:33:10 | 00:00:00 | |
| DF8AY | 2026-09-02 08:08:02 | 52.61240 | 8.16323 | 203° | 4km/h | 24129m | -14.1m/s | -50.6°C | 0.8% | 30.8hPa | 2.6V | 08:29:22 | 01:33:09 | 00:00:00 | |
| GOEST3-10 | 2026-09-02 08:08:02 | 52.61240 | 8.16323 | 203° | 5km/h | 24129m | -14.1m/s | -50.5°C | 3.7% | 30.7hPa | 2.7V | 00:00:00 | 01:33:09 | 00:00:00 | |
| BIOWL1-15 | 2026-09-02 08:08:02 | 52.61243 | 8.16324 | 173° | 5km/h | 24156m | -13.9m/s | -50.5°C | 0.7% | 30.7hPa | 2.7V | 08:29:22 | 01:33:07 | 00:00:00 | |
| DN9WHV | 2026-09-02 08:08:01 | 52.61240 | 8.16323 | 204° | 4km/h | 24129m | -14.1m/s | -50.6°C | 1.2% | 30.8hPa | 2.7V | 08:29:00 | 00:00:00 | 00:00:00 | |
| DO3DL | 2026-09-02 08:08:00 | 52.61242 | 8.16323 | 198° | 7km/h | 24143m | -13.8m/s | -50.5°C | 1.2% | 30.7hPa | 2.7V | 08:29:00 | 00:00:00 | 00:00:00 | |
| DL1XH-15 | 2026-09-02 08:07:59 | 52.61244 | 8.16334 | 334° | 7km/h | 24242m | -14.2m/s | -50.9°C | 3.7% | 30.2hPa | 2.7V | 08:29:00 | 01:33:01 | 00:00:00 | |
| AA1-15 | 2026-09-02 08:07:58 | 52.61245 | 8.16326 | 233° | 7km/h | 24185m | -14.3m/s | -50.6°C | 0.7% | 30.5hPa | 2.7V | 08:29:22 | 01:33:05 | 00:00:00 | |
| GOEST3-10 | 2026-09-02 08:07:57 | 52.61246 | 8.16328 | 229° | 7km/h | 24199m | -14.2m/s | -50.6°C | 3.7% | 30.4hPa | 2.6V | 00:00:00 | 00:00:00 | 00:00:00 | |
| DD8BA-10 | 2026-09-02 08:07:56 | 52.61246 | 8.16329 | 300° | 11km/h | 24214m | -14.3m/s | -50.7°C | 3.7% | 30.3hPa | 2.6V | 00:00:00 | 00:00:00 | 00:00:00 | |
| DM0DOS-11 | 2026-09-02 08:07:55 | 52.61233 | 8.16337 | 358° | 13km/h | 24300m | -14.5m/s | -50.8°C | 3.8% | 30hPa | 2.6V | 08:29:04 | 01:32:57 | 00:00:00 | |
| DB0DAN | 2026-09-02 08:07:55 | 52.61245 | 8.16332 | 294° | 7km/h | 24228m | -14.4m/s | -50.8°C | 1.1% | 30.33hPa | 2.6V | 00:00:00 | 00:00:00 | 00:00:00 | |
| DL1XH-west | 2026-09-02 08:07:54 | 52.61244 | 8.16334 | 334° | 7km/h | 24242m | -14.2m/s | -50.9°C | 0.7% | 30.2hPa | 2.7V | 08:29:22 | 01:33:01 | 00:00:00 | |
| DO2JMG | 2026-09-02 08:07:52 | 52.61239 | 8.16337 | 345° | 9km/h | 24271m | -14.4m/s | -50.9°C | 0.8% | 30.1hPa | 2.7V | 08:29:22 | 01:32:59 | 00:00:00 | |
| BIOWL1-15 | 2026-09-02 08:07:49 | 52.61230 | 8.16337 | 15° | 11km/h | 24314m | -14m/s | -50.7°C | 0.7% | 29.9hPa | 2.6V | 08:29:22 | 01:32:56 | 00:00:00 | |
| DF8AY-15 | 2026-09-02 08:07:49 | 52.61230 | 8.16336 | 15° | 11km/h | 24314m | -13.9m/s | -50.7°C | 3.7% | 29.9hPa | 2.7V | 00:00:00 | 01:32:56 | 00:00:00 | |
| DL1NUX | 2026-09-02 08:07:48 | 52.61216 | 8.16328 | 29° | 9km/h | 24400m | -15m/s | -50.5°C | 3.6% | 29.5hPa | 2.7V | 08:29:11 | 01:32:50 | 00:00:00 | |
| AA1-15 | 2026-09-02 08:07:47 | 52.61224 | 8.16334 | 11° | 11km/h | 24343m | -14.4m/s | -50.6°C | 0.7% | 29.8hPa | 2.7V | 08:29:22 | 01:32:54 | 00:00:00 | |
| GOEST3-10 | 2026-09-02 08:07:47 | 52.61224 | 8.16334 | 12° | 9km/h | 24343m | -14.3m/s | -50.6°C | 3.6% | 29.7hPa | 2.6V | 00:00:00 | 00:00:00 | 00:00:00 | |
| DD8BA-10 | 2026-09-02 08:07:46 | 52.61222 | 8.16332 | 33° | 11km/h | 24357m | -14.1m/s | -50.5°C | 3.7% | 29.7hPa | 2.6V | 00:00:00 | 00:00:00 | 00:00:00 | |
| DM0DOS-11 | 2026-09-02 08:07:45 | 52.61208 | 8.16324 | 25° | 15km/h | 24445m | -14.8m/s | -50.7°C | 3.7% | 29.3hPa | 2.6V | 08:29:14 | 01:32:47 | 00:00:00 | |
| DL1XH-west | 2026-09-02 08:07:44 | 52.61218 | 8.16329 | 16° | 5km/h | 24386m | -14.7m/s | -50.5°C | 0.6% | 29.6hPa | 2.6V | 08:29:22 | 01:32:51 | 00:00:00 | |
| DO2JMG | 2026-09-02 08:07:42 | 52.61214 | 8.16326 | 15° | 11km/h | 24415m | -15.2m/s | -50.6°C | 0.7% | 29.4hPa | 2.7V | 08:29:22 | 01:32:49 | 00:00:00 | |
| HSKMA3-T | 2026-09-02 08:07:41 | 52.61211 | 8.16325 | 10° | 9km/h | 24431m | -14.7m/s | -50.7°C | 0.7% | 29.4hPa | 2.6V | 08:29:22 | 01:32:48 | 00:00:00 | |
| DB0DAN | 2026-09-02 08:07:40 | 52.61208 | 8.16324 | 26° | 13km/h | 24445m | -14.8m/s | -50.7°C | 1.1% | 29.31hPa | 2.6V | 00:00:00 | 00:00:00 | 00:00:00 | |
| BIOWL1-15 | 2026-09-02 08:07:39 | 52.61205 | 8.16321 | 17° | 15km/h | 24461m | -15.3m/s | -50.8°C | 0.7% | 29.2hPa | 2.7V | 08:29:22 | 01:32:46 | 00:00:00 | |
| DL1NUX | 2026-09-02 08:07:38 | 52.61189 | 8.16297 | 76° | 9km/h | 24551m | -15.2m/s | -51°C | 3.8% | 28.8hPa | 2.6V | 08:29:21 | 01:32:40 | 00:00:00 | |
| AA1-15 | 2026-09-02 08:07:37 | 52.61198 | 8.16316 | 38° | 18km/h | 24491m | -15.4m/s | -50.9°C | 0.8% | 29.1hPa | 2.6V | 08:29:22 | 01:32:44 | 00:00:00 | |
| GOEST3-10 | 2026-09-02 08:07:37 | 52.61198 | 8.16316 | 38° | 15km/h | 24491m | -15.4m/s | -50.9°C | 3.7% | 29.1hPa | 2.6V | 08:29:00 | 00:00:00 | 00:00:00 | |
| SO1NDE-10 | 2026-09-02 08:07:36 | 52.61195 | 8.16311 | 35° | 9km/h | 24507m | -15.8m/s | -50.9°C | 3.7% | 29.0hPa | 2.6V | 00:00:00 | 01:32:43 | 00:00:00 | |
| DM0DOS-11 | 2026-09-02 08:07:35 | 52.61191 | 8.16285 | 130° | 11km/h | 24595m | -14.6m/s | -51.2°C | 4% | 28.6hPa | 2.7V | 08:30:00 | 01:32:37 | 00:00:00 | |
| DL1XH1-15 | 2026-09-02 08:07:34 | 52.61192 | 8.16282 | 119° | 7km/h | 24610m | -15.4m/s | -51.2°C | 4% | 28.6hPa | 2.7V | 08:30:00 | 01:32:36 | 00:00:00 | |
| DL1XH-west | 2026-09-02 08:07:33 | 52.61189 | 8.16297 | 76° | 9km/h | 24551m | -15.2m/s | -51.1°C | 0.8% | 28.8hPa | 2.6V | 08:29:22 | 01:32:40 | 00:00:00 | |
| DO2JMG | 2026-09-02 08:07:31 | 52.61190 | 8.16289 | 109° | 9km/h | 24580m | -14.8m/s | -51.2°C | 0.9% | 28.7hPa | 2.7V | 18:12:15 | 01:32:38 | 00:00:00 | |
| HSKMA3-T | 2026-09-02 08:07:30 | 52.61191 | 8.16285 | 131° | 11km/h | 24595m | -14.6m/s | -51.2°C | 0.9% | 28.6hPa | 2.7V | 18:12:15 | 01:32:37 | 00:00:00 | |
| BIOWL1-15 | 2026-09-02 08:07:28 | 52.61193 | 8.16279 | 130° | 7km/h | 24625m | -14.9m/s | -51.3°C | 0.9% | 28.5hPa | 2.6V | 18:12:15 | 01:32:35 | 00:00:00 | |
| DF8AY-15 | 2026-09-02 08:07:28 | 52.61193 | 8.16279 | 130° | 9km/h | 24625m | -14.8m/s | -51.2°C | 4.0% | 28.4hPa | 2.6V | 00:00:00 | 01:32:35 | 00:00:00 | |
| DL1NUX | 2026-09-02 08:07:27 | 52.61183 | 8.16264 | 22° | 15km/h | 24717m | -17.3m/s | -51.2°C | 3.9% | 28.1hPa | 2.6V | 08:30:00 | 01:32:29 | 00:00:00 | |
| AA1-15 | 2026-09-02 08:07:26 | 52.61194 | 8.16274 | 77° | 5km/h | 24654m | -14.5m/s | -51.2°C | 1% | 28.4hPa | 2.6V | 18:12:15 | 01:32:33 | 00:00:00 | |
| DM0DOS-11 | 2026-09-02 08:07:25 | 52.61176 | 8.16258 | 23° | 15km/h | 24753m | -17.3m/s | -51.2°C | 4% | 28hPa | 2.6V | 08:30:00 | 01:32:27 | 00:00:00 | |
| DB0DAN | 2026-09-02 08:07:25 | 52.61192 | 8.16272 | 35° | 11km/h | 24669m | -14.9m/s | -51.2°C | 1.2% | 28.31hPa | 2.7V | 00:00:00 | 00:00:00 | 00:00:00 | |
| DL4XJ-10 | 2026-09-02 08:07:25 | 52.61192 | 8.16272 | 36° | 9km/h | 24669m | -14.8m/s | -51.7°C | 0% | 0hPa | 2.7V | 00:00:00 | 00:00:00 | 00:00:00 | |
| DL1XH1-15 | 2026-09-02 08:07:24 | 52.61173 | 8.16255 | 32° | 11km/h | 24770m | -15.5m/s | -51.2°C | 4% | 27.9hPa | 2.7V | 08:30:00 | 01:32:26 | 00:00:00 | |
| DL1XH-west | 2026-09-02 08:07:23 | 52.61187 | 8.16266 | 23° | 16km/h | 24700m | -16.8m/s | -51.2°C | 0.9% | 28.2hPa | 2.7V | 18:12:15 | 01:32:30 | 00:00:00 | |
| DO2JMG | 2026-09-02 08:07:21 | 52.61180 | 8.16261 | 30° | 16km/h | 24735m | -19m/s | -51.2°C | 0.9% | 28.1hPa | 2.6V | 18:12:15 | 01:32:28 | 00:00:00 | |
| BIOWL1-15 | 2026-09-02 08:07:20 | 52.61171 | 8.16253 | 47° | 11km/h | 24786m | -17.1m/s | -51.3°C | 0.9% | 27.8hPa | 2.7V | 18:12:15 | 01:32:25 | 00:00:00 | |
| HSKMA3-T | 2026-09-02 08:07:19 | 52.61173 | 8.16255 | 32° | 11km/h | 24770m | -15.5m/s | -51.3°C | 0.9% | 27.9hPa | 2.7V | 18:12:15 | 01:32:26 | 00:00:00 | |
| DJ2DS-15 | 2026-09-02 08:07:18 | 52.61171 | 8.16253 | 46° | 9km/h | 24786m | -17.1m/s | -51.3°C | 1.2% | 27.8hPa | 2.7V | 00:00:00 | 00:00:00 | 00:00:00 | |
| DL1NUX | 2026-09-02 08:07:17 | 52.61169 | 8.16245 | 148° | 2km/h | 24874m | -14.2m/s | -50.8°C | 3.9% | 27.4hPa | 2.7V | 08:30:00 | 01:32:19 | 00:00:00 | |
| AA1-15 | 2026-09-02 08:07:16 | 52.61168 | 8.16248 | 53° | 4km/h | 24817m | -14.5m/s | -51.2°C | 1% | 27.7hPa | 2.6V | 18:12:15 | 01:32:23 | 00:00:00 | |
| DO3DL | 2026-09-02 08:07:16 | 52.61168 | 8.16248 | 54° | 4km/h | 24817m | -14.5m/s | -51.2°C | 1.3% | 27.7hPa | 2.6V | 00:00:00 | 00:00:00 | 00:00:00 | |
| DN9WHV | 2026-09-02 08:07:15 | 52.61168 | 8.16248 | 54° | 4km/h | 24817m | -14.5m/s | -51.2°C | 1.3% | 27.7hPa | 2.6V | 00:00:00 | 00:00:00 | 00:00:00 | |
| DL1XH1-15 | 2026-09-02 08:07:14 | 52.61172 | 8.16248 | 225° | 5km/h | 24916m | -14.3m/s | -50.4°C | 3.8% | 27.2hPa | 2.6V | 08:30:00 | 01:32:16 | 00:00:00 | |
| DL1XH-west | 2026-09-02 08:07:12 | 52.61169 | 8.16245 | 148° | 2km/h | 24874m | -14.2m/s | -50.8°C | 0.9% | 27.4hPa | 2.7V | 18:12:15 | 01:32:19 | 00:00:00 | |
| DO2JMG | 2026-09-02 08:07:11 | 52.61169 | 8.16245 | 230° | 5km/h | 24888m | -14.3m/s | -50.7°C | 0.9% | 27.4hPa | 2.7V | 18:12:15 | 01:32:18 | 00:00:00 | |
| HSKMA3-T | 2026-09-02 08:07:09 | 52.61172 | 8.16248 | 226° | 5km/h | 24916m | -14.4m/s | -50.4°C | 0.8% | 27.2hPa | 2.6V | 18:12:15 | 01:32:16 | 00:00:00 | |
| BIOWL1-15 | 2026-09-02 08:07:08 | 52.61173 | 8.16251 | 248° | 9km/h | 24930m | -14.1m/s | -50.3°C | 0.8% | 27.2hPa | 2.6V | 18:12:15 | 01:32:15 | 00:00:00 | |
| DL3OBA | 2026-09-02 08:07:07 | 52.61172 | 8.16251 | 249° | 9km/h | 24930m | -14.1m/s | -50.3°C | 1.2% | 27.2hPa | 2.7V | 00:00:00 | 00:00:00 | 00:00:00 | |
| SMARD9-15 | 2026-09-02 08:07:06 | 52.61175 | 8.16262 | 260° | 13km/h | 24970m | -14.2m/s | -50.1°C | 1.2% | 27.0hPa | 2.7V | 00:00:00 | 00:00:00 | 00:00:00 | |
| DM0DOS-11 | 2026-09-02 08:07:05 | 52.61179 | 8.16286 | 235° | 11km/h | 25043m | -14.6m/s | -49.6°C | 3.6% | 26.7hPa | 2.7V | 08:30:00 | 01:32:07 | 00:00:00 | |
| AA1-15 | 2026-09-02 08:07:05 | 52.61175 | 8.16262 | 261° | 15km/h | 24970m | -14.2m/s | -50.1°C | 0.8% | 27hPa | 2.7V | 18:12:15 | 01:32:12 | 00:00:00 | |
| DL1XH-west | 2026-09-02 08:07:01 | 52.61178 | 8.16282 | 250° | 15km/h | 25029m | -14.8m/s | -49.7°C | 0.7% | 26.8hPa | 2.7V | 18:12:15 | 01:32:08 | 00:00:00 | |
| DO2JMG | 2026-09-02 08:07:00 | 52.61179 | 8.16286 | 236° | 13km/h | 25043m | -14.6m/s | -49.7°C | 0.7% | 26.7hPa | 2.7V | 18:12:15 | 01:32:07 | 00:00:00 | |
| DL1XH-15 | 2026-09-02 08:06:59 | 52.61185 | 8.16306 | 279° | 5km/h | 25131m | -15.3m/s | -49.6°C | 3.5% | 26.4hPa | 2.6V | 08:30:00 | 01:32:01 | 00:00:00 | |
| HSKMA3-T | 2026-09-02 08:06:58 | 52.61182 | 8.16293 | 242° | 9km/h | 25072m | -15.3m/s | -49.6°C | 0.7% | 26.6hPa | 2.6V | 18:12:15 | 01:32:05 | 00:00:00 | |
| BIOWL1-15 | 2026-09-02 08:06:57 | 52.61183 | 8.16297 | 241° | 9km/h | 25087m | -15.5m/s | -49.6°C | 0.6% | 26.5hPa | 2.6V | 18:12:15 | 01:32:04 | 00:00:00 | |
| DD8BA-10 | 2026-09-02 08:06:56 | 52.61184 | 8.16300 | 249° | 7km/h | 25102m | -14.5m/s | -49.6°C | 3.6% | 26.4hPa | 2.6V | 00:00:00 | 00:00:00 | 00:00:00 | |
| DM0DOS-11 | 2026-09-02 08:06:55 | 52.61180 | 8.16311 | 339° | 7km/h | 25189m | -14.8m/s | -49.6°C | 3.5% | 26.1hPa | 2.6V | 08:30:00 | 01:31:57 | 00:00:00 | |
| DB0DAN | 2026-09-02 08:06:55 | 52.61185 | 8.16303 | 261° | 7km/h | 25116m | -14.9m/s | -49.6°C | 1.1% | 26.41hPa | 2.7V | 00:00:00 | 00:00:00 | 00:00:00 | |
| DB0NH | 2026-09-02 08:06:55 | 52.61185 | 8.16303 | 261° | 15km/h | 25117m | -14.9m/s | -49.6°C | 3.6% | 26.4hPa | 2.6V | 00:00:00 | 01:32:02 | 00:00:00 | |
| DL1XH1-15 | 2026-09-02 08:06:54 | 52.61178 | 8.16313 | 322° | 7km/h | 25204m | -14.4m/s | -49.6°C | 3.4% | 26.1hPa | 2.6V | 08:30:00 | 01:31:56 | 00:00:00 | |
| AA1-15 | 2026-09-02 08:06:54 | 52.61185 | 8.16306 | 279° | 5km/h | 25131m | -15.3m/s | -49.6°C | 0.7% | 26.4hPa | 2.6V | 18:12:15 | 01:32:01 | 00:00:00 | |
| DL1XH-west | 2026-09-02 08:06:51 | 52.61181 | 8.16310 | 345° | 7km/h | 25175m | -14.5m/s | -49.6°C | 0.6% | 26.2hPa | 2.7V | 18:12:15 | 01:31:58 | 00:00:00 | |
| BIOWL1-15 | 2026-09-02 08:06:50 | 52.61173 | 8.16319 | 292° | 7km/h | 25247m | -14.5m/s | -49.6°C | 0.6% | 25.9hPa | 2.6V | 18:12:15 | 01:31:53 | 00:00:00 | |
| DO2JMG | 2026-09-02 08:06:50 | 52.61180 | 8.16311 | 340° | 7km/h | 25189m | -14.8m/s | -49.6°C | 0.6% | 26.1hPa | 2.6V | 18:12:15 | 01:31:57 | 00:00:00 | |
| HSKMA3-T | 2026-09-02 08:06:48 | 52.61176 | 8.16315 | 322° | 9km/h | 25218m | -14.9m/s | -49.6°C | 0.6% | 26hPa | 2.7V | 18:12:15 | 01:31:55 | 00:00:00 | |
| DF8AY | 2026-09-02 08:06:47 | 52.61175 | 8.16317 | 324° | 7km/h | 25233m | -14.4m/s | -49.6°C | 0.6% | 25.9hPa | 2.7V | 18:12:15 | 01:31:54 | 00:00:00 | |
| DD8BA-10 | 2026-09-02 08:06:46 | 52.61173 | 8.16319 | 293° | 15km/h | 25247m | -14.4m/s | -49.5°C | 3.4% | 25.8hPa | 2.6V | 00:00:00 | 00:00:00 | 00:00:00 | |
| DM0DOS-11 | 2026-09-02 08:06:45 | 52.61165 | 8.16340 | 328° | 16km/h | 25333m | -14.6m/s | -49.8°C | 3.6% | 25.5hPa | 2.6V | 08:30:00 | 01:31:47 | 00:00:00 | |
| DL4XJ-10 | 2026-09-02 08:06:45 | 52.61172 | 8.16322 | 302° | 18km/h | 25262m | -14.3m/s | -50.1°C | 0% | 0hPa | 2.6V | 00:00:00 | 00:00:00 | 00:00:00 | |
| DL1XH1-15 | 2026-09-02 08:06:44 | 52.61161 | 8.16344 | 331° | 22km/h | 25347m | -14.4m/s | -49.9°C | 3.6% | 25.5hPa | 2.6V | 08:30:00 | 01:31:46 | 00:00:00 | |
| AA1-15 | 2026-09-02 08:06:43 | 52.61171 | 8.16329 | 296° | 11km/h | 25290m | -13.6m/s | -49.7°C | 0.6% | 25.7hPa | 2.7V | 18:12:15 | 01:31:50 | 00:00:00 | |
| DL1XH-west | 2026-09-02 08:06:41 | 52.61168 | 8.16337 | 322° | 13km/h | 25318m | -15.7m/s | -49.8°C | 0.6% | 25.6hPa | 2.6V | 18:12:15 | 01:31:48 | 00:00:00 | |
| DO2JMG | 2026-09-02 08:06:39 | 52.61161 | 8.16344 | 331° | 22km/h | 25347m | -14.4m/s | -49.9°C | 0.7% | 25.5hPa | 2.6V | 18:12:15 | 01:31:46 | 00:00:00 | |
| HSKMA3-T | 2026-09-02 08:06:37 | 52.61149 | 8.16352 | 340° | 27km/h | 25376m | -14.4m/s | -50.1°C | 0.7% | 25.4hPa | 2.7V | 18:12:15 | 01:31:44 | 00:00:00 | |
| DF8AY | 2026-09-02 08:06:36 | 52.61142 | 8.16356 | 343° | 29km/h | 25390m | -15m/s | -50.2°C | 0.7% | 25.3hPa | 2.7V | 18:12:15 | 01:31:43 | 00:00:00 | |
| BIOWL1-15 | 2026-09-02 08:06:35 | 52.61135 | 8.16359 | 350° | 29km/h | 25405m | -15.7m/s | -50.2°C | 0.8% | 25.3hPa | 2.6V | 18:12:15 | 01:31:42 | 00:00:00 | |
| SMARD9-15 | 2026-09-02 08:06:35 | 52.61119 | 8.16351 | 69° | 13km/h | 25473m | -16.6m/s | -50.5°C | 1.1% | 25.0hPa | 2.6V | 00:00:00 | 00:00:00 | 00:00:00 | |
| DL1XH1-15 | 2026-09-02 08:06:34 | 52.61118 | 8.16340 | 82° | 15km/h | 25506m | -17.2m/s | -50.6°C | 3.6% | 24.9hPa | 2.6V | 08:30:00 | 01:31:36 | 00:00:00 | |
| AA1-15 | 2026-09-02 08:06:32 | 52.61121 | 8.16356 | 51° | 13km/h | 25454m | -19.6m/s | -50.4°C | 0.7% | 25.1hPa | 2.7V | 18:12:15 | 01:31:39 | 00:00:00 | |
| DL1XH-west | 2026-09-02 08:06:30 | 52.61119 | 8.16346 | 81° | 15km/h | 25489m | -16.2m/s | -50.6°C | 0.7% | 24.9hPa | 2.7V | 18:12:15 | 01:31:37 | 00:00:00 | |
| DO2JMG | 2026-09-02 08:06:28 | 52.61117 | 8.16334 | 60° | 15km/h | 25524m | -19.3m/s | -50.6°C | 0.7% | 24.9hPa | 2.6V | 18:12:15 | 01:31:35 | 00:00:00 | |
| BIOWL1-15 | 2026-09-02 08:06:27 | 52.61107 | 8.16323 | 19° | 20km/h | 25568m | -7.1m/s | -50.3°C | 0.7% | 24.6hPa | 2.7V | 18:12:15 | 01:31:32 | 00:00:00 | |
| GOEST3-10 | 2026-09-02 08:06:26 | 52.61111 | 8.16326 | 26° | 20km/h | 25558m | -13.4m/s | -50.4°C | 3.7% | 24.6hPa | 2.7V | 00:00:00 | 00:00:00 | 00:00:00 | |
| HSKMA3-T | 2026-09-02 08:06:26 | 52.61111 | 8.16326 | 26° | 18km/h | 25557m | -13.5m/s | -50.4°C | 0.8% | 24.6hPa | 2.7V | 18:12:15 | 01:31:33 | 00:00:00 | |
| DL4XJ-10 | 2026-09-02 08:06:25 | 52.61106 | 8.16323 | 19° | 20km/h | 25568m | -7.1m/s | -50.8°C | 0% | 0hPa | 2.7V | 00:00:00 | 00:00:00 | 00:00:00 | |
| DB0DAN | 2026-09-02 08:06:25 | 52.61107 | 8.16323 | 18° | 18km/h | 25568m | -7.1m/s | -50.3°C | 1.1% | 24.61hPa | 2.7V | 00:00:00 | 00:00:00 | 00:00:00 | |
| DL1XH1-15 | 2026-09-02 08:06:24 | 52.61082 | 8.16304 | 54° | 13km/h | 25540m | 4.9m/s | -50.5°C | 3.9% | 24.7hPa | 2.7V | 08:30:00 | 01:31:26 | 00:00:00 | |
| AA1-15 | 2026-09-02 08:06:21 | 52.61088 | 8.16312 | 31° | 18km/h | 25554m | 6.9m/s | -50.6°C | 0.8% | 24.6hPa | 2.6V | 18:12:15 | 01:31:28 | 00:00:00 | |
| DL1XH-west | 2026-09-02 08:06:19 | 52.61082 | 8.16304 | 55° | 13km/h | 25540m | 4.9m/s | -50.5°C | 0.9% | 24.7hPa | 2.7V | 18:12:15 | 01:31:26 | 00:00:00 | |
| DO2JMG | 2026-09-02 08:06:18 | 52.61080 | 8.16300 | 43° | 11km/h | 25534m | 7.4m/s | -50.6°C | 0.9% | 24.7hPa | 2.7V | 18:12:15 | 01:31:25 | 00:00:00 | |
| DF8AY | 2026-09-02 08:06:16 | 52.61075 | 8.16295 | 19° | 11km/h | 25522m | 6.1m/s | -50.5°C | 0.9% | 24.8hPa | 2.6V | 18:12:15 | 01:31:23 | 00:00:00 | |
| HSKMA3-T | 2026-09-02 08:06:15 | 52.61072 | 8.16294 | 21° | 13km/h | 25515m | 7m/s | -50.5°C | 0.8% | 24.8hPa | 2.6V | 18:12:15 | 01:31:22 | 00:00:00 | |
| BIOWL1-15 | 2026-09-02 08:06:14 | 52.61069 | 8.16291 | 20° | 18km/h | 25509m | 5m/s | -50.5°C | 0.8% | 24.8hPa | 2.7V | 18:12:15 | 01:31:21 | 00:00:00 | |
| AA1-15 | 2026-09-02 08:06:10 | 52.61045 | 8.16287 | 354° | 26km/h | 25486m | 4.8m/s | -50.4°C | 0.8% | 24.9hPa | 2.6V | 18:12:15 | 01:31:17 | 00:00:00 | |
| DB0DAN | 2026-09-02 08:06:10 | 52.61045 | 8.16287 | 354° | 26km/h | 25486m | 4.8m/s | -50.4°C | 1.2% | 24.9hPa | 2.6V | 00:00:00 | 00:00:00 | 00:00:00 | |
| DL1XH-west | 2026-09-02 08:06:09 | 52.61039 | 8.16288 | 355° | 22km/h | 25481m | 6.2m/s | -50.3°C | 0.8% | 24.9hPa | 2.7V | 18:12:15 | 01:31:16 | 00:00:00 | |
| DO2JMG | 2026-09-02 08:06:08 | 52.61034 | 8.16288 | 6° | 16km/h | 25475m | 6.5m/s | -50.3°C | 0.8% | 24.9hPa | 2.7V | 18:12:15 | 01:31:15 | 00:00:00 | |
| BUE01 | 2026-09-02 08:06:07 | 52.61028 | 8.16284 | 41° | 13km/h | 25463m | 5.7m/s | -50.2°C | 1.1% | 25.0hPa | 2.6V | 00:00:00 | 00:00:00 | 00:00:00 | |
| DD8BA-10 | 2026-09-02 08:06:06 | 52.61027 | 8.16284 | 42° | 18km/h | 25463m | 5.6m/s | -50.2°C | 3.7% | 24.9hPa | 2.6V | 00:00:00 | 00:00:00 | 00:00:00 | |
| DM0DOS-11 | 2026-09-02 08:06:05 | 52.61008 | 8.16267 | 6° | 16km/h | 25427m | 4.9m/s | -50.1°C | 3.8% | 25.1hPa | 2.7V | 08:30:00 | 01:31:07 | 00:00:00 | |
| HSKMA3-T | 2026-09-02 08:06:05 | 52.61025 | 8.16280 | 40° | 15km/h | 25456m | 7m/s | -50.2°C | 0.7% | 25hPa | 2.7V | 18:12:15 | 01:31:12 | 00:00:00 | |
| BIOWL1-15 | 2026-09-02 08:06:04 | 52.61022 | 8.16276 | 30° | 16km/h | 25450m | 5.5m/s | -50.1°C | 0.7% | 25hPa | 2.7V | 18:12:15 | 01:31:11 | 00:00:00 | |
| AA1-15 | 2026-09-02 08:05:59 | 52.61003 | 8.16266 | 2° | 20km/h | 25421m | 7.6m/s | -50.1°C | 0.8% | 25.2hPa | 2.6V | 18:12:15 | 01:31:06 | 00:00:00 | |
| DL1XH-west | 2026-09-02 08:05:58 | 52.60997 | 8.16266 | 355° | 24km/h | 25414m | 5.9m/s | -50.1°C | 0.8% | 25.2hPa | 2.6V | 18:12:15 | 01:31:05 | 00:00:00 | |
| DO2JMG | 2026-09-02 08:05:57 | 52.60992 | 8.16268 | 349° | 24km/h | 25408m | 5.2m/s | -50.1°C | 0.9% | 25.2hPa | 2.7V | 18:12:15 | 01:31:04 | 00:00:00 | |
| DD8BA-10 | 2026-09-02 08:05:56 | 52.60986 | 8.16270 | 340° | 15km/h | 25402m | 7.1m/s | -49.9°C | 3.8% | 25.2hPa | 2.6V | 00:00:00 | 00:00:00 | 00:00:00 | |
| DM0DOS-11 | 2026-09-02 08:05:55 | 52.60967 | 8.16291 | 318° | 11km/h | 25364m | 6.6m/s | -49.8°C | 3.6% | 25.4hPa | 2.6V | 08:30:00 | 01:30:57 | 00:00:00 | |
| HSKMA3-T | 2026-09-02 08:05:54 | 52.60979 | 8.16277 | 323° | 15km/h | 25389m | 6.5m/s | -49.9°C | 0.8% | 25.3hPa | 2.6V | 18:12:15 | 01:31:01 | 00:00:00 | |
| BIOWL1-15 | 2026-09-02 08:05:53 | 52.60976 | 8.16281 | 325° | 16km/h | 25383m | 6.3m/s | -49.9°C | 0.7% | 25.3hPa | 2.7V | 18:12:15 | 01:31:00 | 00:00:00 | |
| DO1YAY-16 | 2026-09-02 08:05:53 | 52.60976 | 8.16281 | 324° | 16km/h | 25383m | 6.3m/s | -49.9°C | 1.1% | 25.3hPa | 2.6V | 00:00:00 | 00:00:00 | 00:00:00 | |
| D01LWL | 2026-09-02 08:05:50 | 52.60965 | 8.16294 | 317° | 9km/h | 25358m | 5.0m/s | -49.8°C | 1.1% | 25.4hPa | 2.6V | 00:00:00 | 00:00:00 | 00:00:00 | |
| DL1XH-15 | 2026-09-02 08:05:49 | 52.60945 | 8.16309 | 335° | 18km/h | 25328m | 6.9m/s | -49.6°C | 3.7% | 25.5hPa | 2.6V | 08:30:00 | 01:30:51 | 00:00:00 | |
| DL1XH-west | 2026-09-02 08:05:48 | 52.60963 | 8.16297 | 327° | 13km/h | 25353m | 5.8m/s | -49.9°C | 0.7% | 25.4hPa | 2.6V | 18:12:15 | 01:30:55 | 00:00:00 | |
| DO2JMG | 2026-09-02 08:05:46 | 52.60954 | 8.16303 | 341° | 22km/h | 25340m | 5m/s | -49.8°C | 0.8% | 25.5hPa | 2.7V | 18:12:15 | 01:30:53 | 00:00:00 | |
| GOEST3-10 | 2026-09-02 08:05:46 | 52.60954 | 8.16303 | 341° | 18km/h | 25341m | 4.9m/s | -49.8°C | 3.7% | 25.4hPa | 2.7V | 00:00:00 | 00:00:00 | 00:00:00 | |
| DM0DOS-11 | 2026-09-02 08:05:45 | 52.60929 | 8.16325 | 315° | 16km/h | 25303m | 5.1m/s | -49.6°C | 3.6% | 25.6hPa | 2.7V | 08:30:00 | 01:30:47 | 00:00:00 | |
| DL1XH1-15 | 2026-09-02 08:05:45 | 52.60927 | 8.16329 | 304° | 13km/h | 25297m | 7.3m/s | -49.6°C | 3.6% | 25.6hPa | 2.7V | 08:30:00 | 01:30:46 | 00:00:00 | |
| BIOWL1-15 | 2026-09-02 08:05:45 | 52.60937 | 8.16316 | 329° | 18km/h | 25315m | 7.1m/s | -49.6°C | 0.7% | 25.6hPa | 2.6V | 18:12:15 | 01:30:49 | 00:00:00 | |
| SONCRA | 2026-09-02 08:05:44 | 52.60945 | 8.16309 | 335° | 16km/h | 25328m | 6.9m/s | -49.6°C | 1.2% | 25.5hPa | 2.6V | 00:00:00 | 00:00:00 | 00:00:00 | |
| HSKMA3-T | 2026-09-02 08:05:43 | 52.60941 | 8.16312 | 332° | 16km/h | 25321m | 5.8m/s | -49.6°C | 0.7% | 25.6hPa | 2.6V | 18:12:15 | 01:30:50 | 00:00:00 | |
| DO3DL | 2026-09-02 08:05:42 | 52.60941 | 8.16312 | 333° | 16km/h | 25322m | 5.8m/s | -49.6°C | 1.1% | 25.6hPa | 2.7V | 00:00:00 | 00:00:00 | 00:00:00 | |
| DL8OAI-8 | 2026-09-02 08:05:41 | 52.60937 | 8.16316 | 330° | 18km/h | 25315m | 7.1m/s | 0°C | 0% | 0hPa | 2.7V | 00:00:00 | 00:00:00 | 00:00:00 | |
| DB0DAN | 2026-09-02 08:05:40 | 52.60930 | 8.16325 | 315° | 16km/h | 25304m | 5.1m/s | -49.6°C | 1.1% | 25.62hPa | 2.7V | 00:00:00 | 00:00:00 | 00:00:00 | |
| Es werden nur die letzten 3500 von 7543 Frames angezeigt. GPX/KML und Diagramme bleiben verfügbar. | |||||||||||||||